<?xml version="1.0" encoding="UTF-8" standalone="no" ?>
<gpx xmlns="http://www.topografix.com/GPX/1/1" xmlns:xsi="http://www.w3.org/2001/XMLSchema-instance" xsi:schemaLocation="http://www.topografix.com/GPX/1/1 http://www.topografix.com/GPX/1/1/gpx.xsd" version="1.1" creator="VisuGPX - https://www.visugpx.com">
  <metadata>
    <name>Enregistré le 15 oct. 2022 12:50:23</name>
  </metadata>
  <trk>
    <name><![CDATA[Enregistré le 15 oct. 2022 12:50:23]]></name>
    <trkseg>
      <trkpt lat="45.1148" lon="5.31869">
        <ele>215</ele>
        <time>2022-10-15T10:50:25.000Z</time>
      </trkpt>
      <trkpt lat="45.11482" lon="5.31866">
        <ele>215</ele>
        <time>2022-10-15T10:50:26.000Z</time>
      </trkpt>
      <trkpt lat="45.11482" lon="5.3186">
        <ele>215</ele>
        <time>2022-10-15T10:50:27.000Z</time>
      </trkpt>
      <trkpt lat="45.11484" lon="5.31863">
        <ele>215</ele>
        <time>2022-10-15T10:50:28.000Z</time>
      </trkpt>
      <trkpt lat="45.11487" lon="5.31864">
        <ele>215</ele>
        <time>2022-10-15T10:50:31.000Z</time>
      </trkpt>
      <trkpt lat="45.1149" lon="5.31861">
        <ele>215</ele>
        <time>2022-10-15T10:50:32.000Z</time>
      </trkpt>
      <trkpt lat="45.11491" lon="5.31859">
        <ele>215</ele>
        <time>2022-10-15T10:50:33.000Z</time>
      </trkpt>
      <trkpt lat="45.11494" lon="5.31856">
        <ele>215</ele>
        <time>2022-10-15T10:50:34.000Z</time>
      </trkpt>
      <trkpt lat="45.11497" lon="5.31855">
        <ele>215</ele>
        <time>2022-10-15T10:50:35.000Z</time>
      </trkpt>
      <trkpt lat="45.11501" lon="5.31852">
        <ele>215</ele>
        <time>2022-10-15T10:50:36.000Z</time>
      </trkpt>
      <trkpt lat="45.11505" lon="5.31849">
        <ele>214.8</ele>
        <time>2022-10-15T10:50:37.000Z</time>
      </trkpt>
      <trkpt lat="45.11507" lon="5.31848">
        <ele>214.8</ele>
        <time>2022-10-15T10:50:38.000Z</time>
      </trkpt>
      <trkpt lat="45.1151" lon="5.31847">
        <ele>214.6</ele>
        <time>2022-10-15T10:50:39.000Z</time>
      </trkpt>
      <trkpt lat="45.11513" lon="5.31848">
        <ele>214.5</ele>
        <time>2022-10-15T10:50:40.000Z</time>
      </trkpt>
      <trkpt lat="45.11516" lon="5.3185">
        <ele>214.4</ele>
        <time>2022-10-15T10:50:41.000Z</time>
      </trkpt>
      <trkpt lat="45.11518" lon="5.31853">
        <ele>214.4</ele>
        <time>2022-10-15T10:50:42.000Z</time>
      </trkpt>
      <trkpt lat="45.11519" lon="5.31857">
        <ele>214.3</ele>
        <time>2022-10-15T10:50:43.000Z</time>
      </trkpt>
      <trkpt lat="45.11521" lon="5.31861">
        <ele>214.2</ele>
        <time>2022-10-15T10:50:44.000Z</time>
      </trkpt>
      <trkpt lat="45.11523" lon="5.31865">
        <ele>214.3</ele>
        <time>2022-10-15T10:50:45.000Z</time>
      </trkpt>
      <trkpt lat="45.11523" lon="5.31869">
        <ele>214.4</ele>
        <time>2022-10-15T10:50:46.000Z</time>
      </trkpt>
      <trkpt lat="45.11525" lon="5.31873">
        <ele>214.5</ele>
        <time>2022-10-15T10:50:47.000Z</time>
      </trkpt>
      <trkpt lat="45.11527" lon="5.31877">
        <ele>214.6</ele>
        <time>2022-10-15T10:50:48.000Z</time>
      </trkpt>
      <trkpt lat="45.11528" lon="5.31881">
        <ele>214.7</ele>
        <time>2022-10-15T10:50:49.000Z</time>
      </trkpt>
      <trkpt lat="45.1153" lon="5.31886">
        <ele>214.7</ele>
        <time>2022-10-15T10:50:50.000Z</time>
      </trkpt>
      <trkpt lat="45.11532" lon="5.31891">
        <ele>214.7</ele>
        <time>2022-10-15T10:50:51.000Z</time>
      </trkpt>
      <trkpt lat="45.11534" lon="5.31895">
        <ele>214.6</ele>
        <time>2022-10-15T10:50:52.000Z</time>
      </trkpt>
      <trkpt lat="45.11536" lon="5.319">
        <ele>214.4</ele>
        <time>2022-10-15T10:50:53.000Z</time>
      </trkpt>
      <trkpt lat="45.11537" lon="5.31905">
        <ele>214.3</ele>
        <time>2022-10-15T10:50:54.000Z</time>
      </trkpt>
      <trkpt lat="45.11539" lon="5.3191">
        <ele>214.2</ele>
        <time>2022-10-15T10:50:55.000Z</time>
      </trkpt>
      <trkpt lat="45.11541" lon="5.31915">
        <ele>214</ele>
        <time>2022-10-15T10:50:56.000Z</time>
      </trkpt>
      <trkpt lat="45.11544" lon="5.3192">
        <ele>213.9</ele>
        <time>2022-10-15T10:50:57.000Z</time>
      </trkpt>
      <trkpt lat="45.11546" lon="5.31925">
        <ele>213.9</ele>
        <time>2022-10-15T10:50:58.000Z</time>
      </trkpt>
      <trkpt lat="45.11547" lon="5.3193">
        <ele>213.9</ele>
        <time>2022-10-15T10:50:59.000Z</time>
      </trkpt>
      <trkpt lat="45.11549" lon="5.31935">
        <ele>214</ele>
        <time>2022-10-15T10:51:00.000Z</time>
      </trkpt>
      <trkpt lat="45.11551" lon="5.3194">
        <ele>214</ele>
        <time>2022-10-15T10:51:01.000Z</time>
      </trkpt>
      <trkpt lat="45.11552" lon="5.31944">
        <ele>214.1</ele>
        <time>2022-10-15T10:51:02.000Z</time>
      </trkpt>
      <trkpt lat="45.11554" lon="5.31949">
        <ele>214.2</ele>
        <time>2022-10-15T10:51:03.000Z</time>
      </trkpt>
      <trkpt lat="45.11556" lon="5.31954">
        <ele>214.3</ele>
        <time>2022-10-15T10:51:04.000Z</time>
      </trkpt>
      <trkpt lat="45.11557" lon="5.31959">
        <ele>214.4</ele>
        <time>2022-10-15T10:51:05.000Z</time>
      </trkpt>
      <trkpt lat="45.11558" lon="5.31964">
        <ele>214.5</ele>
        <time>2022-10-15T10:51:06.000Z</time>
      </trkpt>
      <trkpt lat="45.1156" lon="5.31969">
        <ele>214.6</ele>
        <time>2022-10-15T10:51:07.000Z</time>
      </trkpt>
      <trkpt lat="45.11561" lon="5.31974">
        <ele>214.6</ele>
        <time>2022-10-15T10:51:08.000Z</time>
      </trkpt>
      <trkpt lat="45.11562" lon="5.31979">
        <ele>214.3</ele>
        <time>2022-10-15T10:51:09.000Z</time>
      </trkpt>
      <trkpt lat="45.11564" lon="5.31984">
        <ele>214.1</ele>
        <time>2022-10-15T10:51:10.000Z</time>
      </trkpt>
      <trkpt lat="45.11565" lon="5.31989">
        <ele>213.9</ele>
        <time>2022-10-15T10:51:11.000Z</time>
      </trkpt>
      <trkpt lat="45.11566" lon="5.31993">
        <ele>213.8</ele>
        <time>2022-10-15T10:51:12.000Z</time>
      </trkpt>
      <trkpt lat="45.11568" lon="5.31998">
        <ele>213.6</ele>
        <time>2022-10-15T10:51:13.000Z</time>
      </trkpt>
      <trkpt lat="45.1157" lon="5.32003">
        <ele>213.5</ele>
        <time>2022-10-15T10:51:14.000Z</time>
      </trkpt>
      <trkpt lat="45.11572" lon="5.32007">
        <ele>213.6</ele>
        <time>2022-10-15T10:51:15.000Z</time>
      </trkpt>
      <trkpt lat="45.11574" lon="5.32011">
        <ele>213.6</ele>
        <time>2022-10-15T10:51:16.000Z</time>
      </trkpt>
      <trkpt lat="45.11576" lon="5.32015">
        <ele>213.7</ele>
        <time>2022-10-15T10:51:17.000Z</time>
      </trkpt>
      <trkpt lat="45.11578" lon="5.32019">
        <ele>213.8</ele>
        <time>2022-10-15T10:51:18.000Z</time>
      </trkpt>
      <trkpt lat="45.11579" lon="5.32023">
        <ele>213.9</ele>
        <time>2022-10-15T10:51:19.000Z</time>
      </trkpt>
      <trkpt lat="45.11581" lon="5.32028">
        <ele>214</ele>
        <time>2022-10-15T10:51:20.000Z</time>
      </trkpt>
      <trkpt lat="45.11583" lon="5.32031">
        <ele>214</ele>
        <time>2022-10-15T10:51:21.000Z</time>
      </trkpt>
      <trkpt lat="45.11585" lon="5.32035">
        <ele>214</ele>
        <time>2022-10-15T10:51:22.000Z</time>
      </trkpt>
      <trkpt lat="45.11586" lon="5.3204">
        <ele>213.9</ele>
        <time>2022-10-15T10:51:23.000Z</time>
      </trkpt>
      <trkpt lat="45.11588" lon="5.32044">
        <ele>213.9</ele>
        <time>2022-10-15T10:51:24.000Z</time>
      </trkpt>
      <trkpt lat="45.11591" lon="5.32048">
        <ele>213.9</ele>
        <time>2022-10-15T10:51:25.000Z</time>
      </trkpt>
      <trkpt lat="45.11593" lon="5.32052">
        <ele>214</ele>
        <time>2022-10-15T10:51:26.000Z</time>
      </trkpt>
      <trkpt lat="45.11595" lon="5.32055">
        <ele>214</ele>
        <time>2022-10-15T10:51:27.000Z</time>
      </trkpt>
      <trkpt lat="45.11598" lon="5.32059">
        <ele>214</ele>
        <time>2022-10-15T10:51:28.000Z</time>
      </trkpt>
      <trkpt lat="45.116" lon="5.32062">
        <ele>214</ele>
        <time>2022-10-15T10:51:29.000Z</time>
      </trkpt>
      <trkpt lat="45.11603" lon="5.32065">
        <ele>214</ele>
        <time>2022-10-15T10:51:30.000Z</time>
      </trkpt>
      <trkpt lat="45.11606" lon="5.32068">
        <ele>214</ele>
        <time>2022-10-15T10:51:31.000Z</time>
      </trkpt>
      <trkpt lat="45.11609" lon="5.3207">
        <ele>214</ele>
        <time>2022-10-15T10:51:32.000Z</time>
      </trkpt>
      <trkpt lat="45.11613" lon="5.32073">
        <ele>214</ele>
        <time>2022-10-15T10:51:33.000Z</time>
      </trkpt>
      <trkpt lat="45.11616" lon="5.32077">
        <ele>214</ele>
        <time>2022-10-15T10:51:34.000Z</time>
      </trkpt>
      <trkpt lat="45.11619" lon="5.3208">
        <ele>214</ele>
        <time>2022-10-15T10:51:35.000Z</time>
      </trkpt>
      <trkpt lat="45.11622" lon="5.32083">
        <ele>214</ele>
        <time>2022-10-15T10:51:36.000Z</time>
      </trkpt>
      <trkpt lat="45.11624" lon="5.32087">
        <ele>214</ele>
        <time>2022-10-15T10:51:37.000Z</time>
      </trkpt>
      <trkpt lat="45.11627" lon="5.3209">
        <ele>214</ele>
        <time>2022-10-15T10:51:38.000Z</time>
      </trkpt>
      <trkpt lat="45.11629" lon="5.32093">
        <ele>214</ele>
        <time>2022-10-15T10:51:39.000Z</time>
      </trkpt>
      <trkpt lat="45.11631" lon="5.32096">
        <ele>214</ele>
        <time>2022-10-15T10:51:40.000Z</time>
      </trkpt>
      <trkpt lat="45.11632" lon="5.32099">
        <ele>214</ele>
        <time>2022-10-15T10:51:41.000Z</time>
      </trkpt>
      <trkpt lat="45.11634" lon="5.32103">
        <ele>214</ele>
        <time>2022-10-15T10:51:42.000Z</time>
      </trkpt>
      <trkpt lat="45.11633" lon="5.32109">
        <ele>214</ele>
        <time>2022-10-15T10:51:43.000Z</time>
      </trkpt>
      <trkpt lat="45.11634" lon="5.32113">
        <ele>214.1</ele>
        <time>2022-10-15T10:51:44.000Z</time>
      </trkpt>
      <trkpt lat="45.11633" lon="5.32117">
        <ele>214.2</ele>
        <time>2022-10-15T10:51:45.000Z</time>
      </trkpt>
      <trkpt lat="45.11633" lon="5.32121">
        <ele>214.3</ele>
        <time>2022-10-15T10:51:46.000Z</time>
      </trkpt>
      <trkpt lat="45.11634" lon="5.32126">
        <ele>214.4</ele>
        <time>2022-10-15T10:51:47.000Z</time>
      </trkpt>
      <trkpt lat="45.11633" lon="5.3213">
        <ele>214.5</ele>
        <time>2022-10-15T10:51:48.000Z</time>
      </trkpt>
      <trkpt lat="45.11633" lon="5.32134">
        <ele>214.6</ele>
        <time>2022-10-15T10:51:49.000Z</time>
      </trkpt>
      <trkpt lat="45.11632" lon="5.32138">
        <ele>214.7</ele>
        <time>2022-10-15T10:51:50.000Z</time>
      </trkpt>
      <trkpt lat="45.1163" lon="5.32143">
        <ele>214.6</ele>
        <time>2022-10-15T10:51:51.000Z</time>
      </trkpt>
      <trkpt lat="45.1163" lon="5.32147">
        <ele>214.5</ele>
        <time>2022-10-15T10:51:52.000Z</time>
      </trkpt>
      <trkpt lat="45.11629" lon="5.32151">
        <ele>214.4</ele>
        <time>2022-10-15T10:51:53.000Z</time>
      </trkpt>
      <trkpt lat="45.11628" lon="5.32155">
        <ele>214.3</ele>
        <time>2022-10-15T10:51:54.000Z</time>
      </trkpt>
      <trkpt lat="45.11627" lon="5.32159">
        <ele>214.2</ele>
        <time>2022-10-15T10:51:55.000Z</time>
      </trkpt>
      <trkpt lat="45.11627" lon="5.32163">
        <ele>214.1</ele>
        <time>2022-10-15T10:51:56.000Z</time>
      </trkpt>
      <trkpt lat="45.11626" lon="5.32168">
        <ele>214</ele>
        <time>2022-10-15T10:51:57.000Z</time>
      </trkpt>
      <trkpt lat="45.11625" lon="5.32173">
        <ele>214</ele>
        <time>2022-10-15T10:51:58.000Z</time>
      </trkpt>
      <trkpt lat="45.11626" lon="5.32178">
        <ele>214</ele>
        <time>2022-10-15T10:51:59.000Z</time>
      </trkpt>
      <trkpt lat="45.11627" lon="5.32183">
        <ele>214</ele>
        <time>2022-10-15T10:52:00.000Z</time>
      </trkpt>
      <trkpt lat="45.11628" lon="5.32188">
        <ele>214</ele>
        <time>2022-10-15T10:52:01.000Z</time>
      </trkpt>
      <trkpt lat="45.11629" lon="5.32193">
        <ele>214</ele>
        <time>2022-10-15T10:52:02.000Z</time>
      </trkpt>
      <trkpt lat="45.1163" lon="5.32198">
        <ele>214</ele>
        <time>2022-10-15T10:52:03.000Z</time>
      </trkpt>
      <trkpt lat="45.11632" lon="5.32202">
        <ele>214.1</ele>
        <time>2022-10-15T10:52:04.000Z</time>
      </trkpt>
      <trkpt lat="45.11633" lon="5.32207">
        <ele>214.1</ele>
        <time>2022-10-15T10:52:05.000Z</time>
      </trkpt>
      <trkpt lat="45.11635" lon="5.32212">
        <ele>214.1</ele>
        <time>2022-10-15T10:52:06.000Z</time>
      </trkpt>
      <trkpt lat="45.11637" lon="5.32217">
        <ele>214</ele>
        <time>2022-10-15T10:52:07.000Z</time>
      </trkpt>
      <trkpt lat="45.11639" lon="5.32222">
        <ele>214</ele>
        <time>2022-10-15T10:52:08.000Z</time>
      </trkpt>
      <trkpt lat="45.11641" lon="5.32227">
        <ele>214.2</ele>
        <time>2022-10-15T10:52:09.000Z</time>
      </trkpt>
      <trkpt lat="45.11643" lon="5.32231">
        <ele>214.3</ele>
        <time>2022-10-15T10:52:10.000Z</time>
      </trkpt>
      <trkpt lat="45.11644" lon="5.32236">
        <ele>214.4</ele>
        <time>2022-10-15T10:52:11.000Z</time>
      </trkpt>
      <trkpt lat="45.11645" lon="5.32241">
        <ele>214.5</ele>
        <time>2022-10-15T10:52:12.000Z</time>
      </trkpt>
      <trkpt lat="45.11646" lon="5.32246">
        <ele>214.6</ele>
        <time>2022-10-15T10:52:13.000Z</time>
      </trkpt>
      <trkpt lat="45.11648" lon="5.32251">
        <ele>214.7</ele>
        <time>2022-10-15T10:52:14.000Z</time>
      </trkpt>
      <trkpt lat="45.11649" lon="5.32255">
        <ele>214.6</ele>
        <time>2022-10-15T10:52:15.000Z</time>
      </trkpt>
      <trkpt lat="45.1165" lon="5.3226">
        <ele>214.6</ele>
        <time>2022-10-15T10:52:16.000Z</time>
      </trkpt>
      <trkpt lat="45.11651" lon="5.32264">
        <ele>214.6</ele>
        <time>2022-10-15T10:52:17.000Z</time>
      </trkpt>
      <trkpt lat="45.11652" lon="5.3227">
        <ele>214.5</ele>
        <time>2022-10-15T10:52:18.000Z</time>
      </trkpt>
      <trkpt lat="45.11652" lon="5.32275">
        <ele>214.5</ele>
        <time>2022-10-15T10:52:19.000Z</time>
      </trkpt>
      <trkpt lat="45.11652" lon="5.3228">
        <ele>214.5</ele>
        <time>2022-10-15T10:52:20.000Z</time>
      </trkpt>
      <trkpt lat="45.11652" lon="5.32285">
        <ele>214.5</ele>
        <time>2022-10-15T10:52:21.000Z</time>
      </trkpt>
      <trkpt lat="45.11653" lon="5.3229">
        <ele>214.5</ele>
        <time>2022-10-15T10:52:22.000Z</time>
      </trkpt>
      <trkpt lat="45.11653" lon="5.32295">
        <ele>214.5</ele>
        <time>2022-10-15T10:52:23.000Z</time>
      </trkpt>
      <trkpt lat="45.11653" lon="5.323">
        <ele>214.5</ele>
        <time>2022-10-15T10:52:24.000Z</time>
      </trkpt>
      <trkpt lat="45.11652" lon="5.32305">
        <ele>214.5</ele>
        <time>2022-10-15T10:52:25.000Z</time>
      </trkpt>
      <trkpt lat="45.11652" lon="5.32309">
        <ele>214.5</ele>
        <time>2022-10-15T10:52:26.000Z</time>
      </trkpt>
      <trkpt lat="45.11652" lon="5.32315">
        <ele>214.5</ele>
        <time>2022-10-15T10:52:27.000Z</time>
      </trkpt>
      <trkpt lat="45.11651" lon="5.3232">
        <ele>214.6</ele>
        <time>2022-10-15T10:52:28.000Z</time>
      </trkpt>
      <trkpt lat="45.11651" lon="5.32325">
        <ele>214.6</ele>
        <time>2022-10-15T10:52:29.000Z</time>
      </trkpt>
      <trkpt lat="45.11651" lon="5.32331">
        <ele>214.6</ele>
        <time>2022-10-15T10:52:30.000Z</time>
      </trkpt>
      <trkpt lat="45.1165" lon="5.32338">
        <ele>214.6</ele>
        <time>2022-10-15T10:52:31.000Z</time>
      </trkpt>
      <trkpt lat="45.1165" lon="5.32343">
        <ele>214.6</ele>
        <time>2022-10-15T10:52:32.000Z</time>
      </trkpt>
      <trkpt lat="45.1165" lon="5.32349">
        <ele>214.6</ele>
        <time>2022-10-15T10:52:33.000Z</time>
      </trkpt>
      <trkpt lat="45.1165" lon="5.32355">
        <ele>214.6</ele>
        <time>2022-10-15T10:52:34.000Z</time>
      </trkpt>
      <trkpt lat="45.11649" lon="5.32362">
        <ele>214.6</ele>
        <time>2022-10-15T10:52:35.000Z</time>
      </trkpt>
      <trkpt lat="45.11649" lon="5.32368">
        <ele>214.6</ele>
        <time>2022-10-15T10:52:36.000Z</time>
      </trkpt>
      <trkpt lat="45.11649" lon="5.32374">
        <ele>214.6</ele>
        <time>2022-10-15T10:52:37.000Z</time>
      </trkpt>
      <trkpt lat="45.11648" lon="5.32379">
        <ele>214.7</ele>
        <time>2022-10-15T10:52:38.000Z</time>
      </trkpt>
      <trkpt lat="45.11648" lon="5.32385">
        <ele>214.7</ele>
        <time>2022-10-15T10:52:39.000Z</time>
      </trkpt>
      <trkpt lat="45.11648" lon="5.32391">
        <ele>214.7</ele>
        <time>2022-10-15T10:52:40.000Z</time>
      </trkpt>
      <trkpt lat="45.11648" lon="5.32397">
        <ele>215</ele>
        <time>2022-10-15T10:52:41.000Z</time>
      </trkpt>
      <trkpt lat="45.11648" lon="5.32403">
        <ele>215.2</ele>
        <time>2022-10-15T10:52:42.000Z</time>
      </trkpt>
      <trkpt lat="45.11647" lon="5.32409">
        <ele>215.4</ele>
        <time>2022-10-15T10:52:43.000Z</time>
      </trkpt>
      <trkpt lat="45.11647" lon="5.32414">
        <ele>215.6</ele>
        <time>2022-10-15T10:52:44.000Z</time>
      </trkpt>
      <trkpt lat="45.11647" lon="5.3242">
        <ele>215.6</ele>
        <time>2022-10-15T10:52:45.000Z</time>
      </trkpt>
      <trkpt lat="45.11647" lon="5.32425">
        <ele>215.4</ele>
        <time>2022-10-15T10:52:46.000Z</time>
      </trkpt>
      <trkpt lat="45.11646" lon="5.32431">
        <ele>215.2</ele>
        <time>2022-10-15T10:52:47.000Z</time>
      </trkpt>
      <trkpt lat="45.11646" lon="5.32436">
        <ele>215</ele>
        <time>2022-10-15T10:52:48.000Z</time>
      </trkpt>
      <trkpt lat="45.11646" lon="5.32442">
        <ele>214.8</ele>
        <time>2022-10-15T10:52:49.000Z</time>
      </trkpt>
      <trkpt lat="45.11645" lon="5.32448">
        <ele>214.8</ele>
        <time>2022-10-15T10:52:50.000Z</time>
      </trkpt>
      <trkpt lat="45.11645" lon="5.32454">
        <ele>214.8</ele>
        <time>2022-10-15T10:52:51.000Z</time>
      </trkpt>
      <trkpt lat="45.11645" lon="5.3246">
        <ele>214.8</ele>
        <time>2022-10-15T10:52:52.000Z</time>
      </trkpt>
      <trkpt lat="45.11645" lon="5.32465">
        <ele>214.8</ele>
        <time>2022-10-15T10:52:53.000Z</time>
      </trkpt>
      <trkpt lat="45.11644" lon="5.32471">
        <ele>214.8</ele>
        <time>2022-10-15T10:52:54.000Z</time>
      </trkpt>
      <trkpt lat="45.11644" lon="5.32477">
        <ele>214.8</ele>
        <time>2022-10-15T10:52:55.000Z</time>
      </trkpt>
      <trkpt lat="45.11643" lon="5.32483">
        <ele>214.8</ele>
        <time>2022-10-15T10:52:56.000Z</time>
      </trkpt>
      <trkpt lat="45.11643" lon="5.32488">
        <ele>214.8</ele>
        <time>2022-10-15T10:52:57.000Z</time>
      </trkpt>
      <trkpt lat="45.11643" lon="5.32494">
        <ele>214.9</ele>
        <time>2022-10-15T10:52:58.000Z</time>
      </trkpt>
      <trkpt lat="45.11642" lon="5.325">
        <ele>214.9</ele>
        <time>2022-10-15T10:52:59.000Z</time>
      </trkpt>
      <trkpt lat="45.11642" lon="5.32505">
        <ele>214.9</ele>
        <time>2022-10-15T10:53:00.000Z</time>
      </trkpt>
      <trkpt lat="45.11642" lon="5.3251">
        <ele>214.9</ele>
        <time>2022-10-15T10:53:01.000Z</time>
      </trkpt>
      <trkpt lat="45.11642" lon="5.32515">
        <ele>214.9</ele>
        <time>2022-10-15T10:53:02.000Z</time>
      </trkpt>
      <trkpt lat="45.11642" lon="5.3252">
        <ele>214.9</ele>
        <time>2022-10-15T10:53:03.000Z</time>
      </trkpt>
      <trkpt lat="45.11642" lon="5.32525">
        <ele>214.9</ele>
        <time>2022-10-15T10:53:04.000Z</time>
      </trkpt>
      <trkpt lat="45.11643" lon="5.32529">
        <ele>214.9</ele>
        <time>2022-10-15T10:53:05.000Z</time>
      </trkpt>
      <trkpt lat="45.11642" lon="5.32534">
        <ele>214.9</ele>
        <time>2022-10-15T10:53:06.000Z</time>
      </trkpt>
      <trkpt lat="45.11643" lon="5.32539">
        <ele>214.9</ele>
        <time>2022-10-15T10:53:07.000Z</time>
      </trkpt>
      <trkpt lat="45.11643" lon="5.32543">
        <ele>214.9</ele>
        <time>2022-10-15T10:53:08.000Z</time>
      </trkpt>
      <trkpt lat="45.11643" lon="5.32549">
        <ele>214.9</ele>
        <time>2022-10-15T10:53:09.000Z</time>
      </trkpt>
      <trkpt lat="45.11644" lon="5.32554">
        <ele>214.8</ele>
        <time>2022-10-15T10:53:10.000Z</time>
      </trkpt>
      <trkpt lat="45.11644" lon="5.32559">
        <ele>214.8</ele>
        <time>2022-10-15T10:53:11.000Z</time>
      </trkpt>
      <trkpt lat="45.11644" lon="5.32564">
        <ele>214.7</ele>
        <time>2022-10-15T10:53:12.000Z</time>
      </trkpt>
      <trkpt lat="45.11645" lon="5.3257">
        <ele>214.7</ele>
        <time>2022-10-15T10:53:13.000Z</time>
      </trkpt>
      <trkpt lat="45.11645" lon="5.32575">
        <ele>214.6</ele>
        <time>2022-10-15T10:53:14.000Z</time>
      </trkpt>
      <trkpt lat="45.11645" lon="5.3258">
        <ele>214.6</ele>
        <time>2022-10-15T10:53:15.000Z</time>
      </trkpt>
      <trkpt lat="45.11645" lon="5.32584">
        <ele>214.6</ele>
        <time>2022-10-15T10:53:16.000Z</time>
      </trkpt>
      <trkpt lat="45.11645" lon="5.32589">
        <ele>214.5</ele>
        <time>2022-10-15T10:53:17.000Z</time>
      </trkpt>
      <trkpt lat="45.11646" lon="5.32594">
        <ele>214.5</ele>
        <time>2022-10-15T10:53:18.000Z</time>
      </trkpt>
      <trkpt lat="45.11646" lon="5.32598">
        <ele>214.5</ele>
        <time>2022-10-15T10:53:19.000Z</time>
      </trkpt>
      <trkpt lat="45.11647" lon="5.32602">
        <ele>214.5</ele>
        <time>2022-10-15T10:53:20.000Z</time>
      </trkpt>
      <trkpt lat="45.11648" lon="5.32606">
        <ele>214.4</ele>
        <time>2022-10-15T10:53:21.000Z</time>
      </trkpt>
      <trkpt lat="45.1165" lon="5.32612">
        <ele>214.2</ele>
        <time>2022-10-15T10:53:22.000Z</time>
      </trkpt>
      <trkpt lat="45.11652" lon="5.32615">
        <ele>213.8</ele>
        <time>2022-10-15T10:53:23.000Z</time>
      </trkpt>
      <trkpt lat="45.11654" lon="5.32618">
        <ele>213.4</ele>
        <time>2022-10-15T10:53:24.000Z</time>
      </trkpt>
      <trkpt lat="45.11656" lon="5.32621">
        <ele>213.1</ele>
        <time>2022-10-15T10:53:25.000Z</time>
      </trkpt>
      <trkpt lat="45.11658" lon="5.32625">
        <ele>212.8</ele>
        <time>2022-10-15T10:53:26.000Z</time>
      </trkpt>
      <trkpt lat="45.1166" lon="5.32629">
        <ele>212.6</ele>
        <time>2022-10-15T10:53:27.000Z</time>
      </trkpt>
      <trkpt lat="45.11663" lon="5.32632">
        <ele>212.3</ele>
        <time>2022-10-15T10:53:28.000Z</time>
      </trkpt>
      <trkpt lat="45.11665" lon="5.32635">
        <ele>212.1</ele>
        <time>2022-10-15T10:53:29.000Z</time>
      </trkpt>
      <trkpt lat="45.11668" lon="5.32639">
        <ele>212</ele>
        <time>2022-10-15T10:53:30.000Z</time>
      </trkpt>
      <trkpt lat="45.11671" lon="5.32642">
        <ele>212.4</ele>
        <time>2022-10-15T10:53:31.000Z</time>
      </trkpt>
      <trkpt lat="45.11674" lon="5.32646">
        <ele>212.7</ele>
        <time>2022-10-15T10:53:32.000Z</time>
      </trkpt>
      <trkpt lat="45.11676" lon="5.32649">
        <ele>212.9</ele>
        <time>2022-10-15T10:53:33.000Z</time>
      </trkpt>
      <trkpt lat="45.11679" lon="5.32652">
        <ele>213.2</ele>
        <time>2022-10-15T10:53:34.000Z</time>
      </trkpt>
      <trkpt lat="45.11681" lon="5.32654">
        <ele>213.3</ele>
        <time>2022-10-15T10:53:35.000Z</time>
      </trkpt>
      <trkpt lat="45.11682" lon="5.32656">
        <ele>213.5</ele>
        <time>2022-10-15T10:53:36.000Z</time>
      </trkpt>
      <trkpt lat="45.11684" lon="5.32661">
        <ele>213.7</ele>
        <time>2022-10-15T10:53:38.000Z</time>
      </trkpt>
      <trkpt lat="45.11684" lon="5.32664">
        <ele>213.9</ele>
        <time>2022-10-15T10:53:40.000Z</time>
      </trkpt>
      <trkpt lat="45.11684" lon="5.32667">
        <ele>214</ele>
        <time>2022-10-15T10:53:42.000Z</time>
      </trkpt>
      <trkpt lat="45.11685" lon="5.3267">
        <ele>214</ele>
        <time>2022-10-15T10:53:43.000Z</time>
      </trkpt>
      <trkpt lat="45.11686" lon="5.32673">
        <ele>214</ele>
        <time>2022-10-15T10:53:44.000Z</time>
      </trkpt>
      <trkpt lat="45.11688" lon="5.32676">
        <ele>214</ele>
        <time>2022-10-15T10:53:45.000Z</time>
      </trkpt>
      <trkpt lat="45.11689" lon="5.32679">
        <ele>214</ele>
        <time>2022-10-15T10:53:46.000Z</time>
      </trkpt>
      <trkpt lat="45.11691" lon="5.32682">
        <ele>214</ele>
        <time>2022-10-15T10:53:47.000Z</time>
      </trkpt>
      <trkpt lat="45.11693" lon="5.32685">
        <ele>214</ele>
        <time>2022-10-15T10:53:48.000Z</time>
      </trkpt>
      <trkpt lat="45.11696" lon="5.32687">
        <ele>214</ele>
        <time>2022-10-15T10:53:49.000Z</time>
      </trkpt>
      <trkpt lat="45.11699" lon="5.3269">
        <ele>213.9</ele>
        <time>2022-10-15T10:53:50.000Z</time>
      </trkpt>
      <trkpt lat="45.117" lon="5.32692">
        <ele>213.8</ele>
        <time>2022-10-15T10:53:51.000Z</time>
      </trkpt>
      <trkpt lat="45.11702" lon="5.32694">
        <ele>213.7</ele>
        <time>2022-10-15T10:53:52.000Z</time>
      </trkpt>
      <trkpt lat="45.11704" lon="5.32695">
        <ele>213.7</ele>
        <time>2022-10-15T10:53:53.000Z</time>
      </trkpt>
      <trkpt lat="45.11706" lon="5.32697">
        <ele>213.6</ele>
        <time>2022-10-15T10:53:54.000Z</time>
      </trkpt>
      <trkpt lat="45.11709" lon="5.32699">
        <ele>213.6</ele>
        <time>2022-10-15T10:53:55.000Z</time>
      </trkpt>
      <trkpt lat="45.1171" lon="5.32701">
        <ele>213.6</ele>
        <time>2022-10-15T10:53:56.000Z</time>
      </trkpt>
      <trkpt lat="45.11713" lon="5.32703">
        <ele>213.6</ele>
        <time>2022-10-15T10:53:57.000Z</time>
      </trkpt>
      <trkpt lat="45.11715" lon="5.32706">
        <ele>213.6</ele>
        <time>2022-10-15T10:53:58.000Z</time>
      </trkpt>
      <trkpt lat="45.11718" lon="5.32708">
        <ele>213.6</ele>
        <time>2022-10-15T10:53:59.000Z</time>
      </trkpt>
      <trkpt lat="45.1172" lon="5.3271">
        <ele>213.6</ele>
        <time>2022-10-15T10:54:00.000Z</time>
      </trkpt>
      <trkpt lat="45.11723" lon="5.32711">
        <ele>213.6</ele>
        <time>2022-10-15T10:54:01.000Z</time>
      </trkpt>
      <trkpt lat="45.11725" lon="5.32713">
        <ele>213.5</ele>
        <time>2022-10-15T10:54:02.000Z</time>
      </trkpt>
      <trkpt lat="45.11728" lon="5.32714">
        <ele>213.4</ele>
        <time>2022-10-15T10:54:03.000Z</time>
      </trkpt>
      <trkpt lat="45.1173" lon="5.32715">
        <ele>213.4</ele>
        <time>2022-10-15T10:54:04.000Z</time>
      </trkpt>
      <trkpt lat="45.11732" lon="5.32717">
        <ele>213.4</ele>
        <time>2022-10-15T10:54:05.000Z</time>
      </trkpt>
      <trkpt lat="45.11734" lon="5.32718">
        <ele>213.3</ele>
        <time>2022-10-15T10:54:06.000Z</time>
      </trkpt>
      <trkpt lat="45.11737" lon="5.32719">
        <ele>213.3</ele>
        <time>2022-10-15T10:54:07.000Z</time>
      </trkpt>
      <trkpt lat="45.1174" lon="5.32721">
        <ele>213.3</ele>
        <time>2022-10-15T10:54:08.000Z</time>
      </trkpt>
      <trkpt lat="45.11742" lon="5.32722">
        <ele>213.3</ele>
        <time>2022-10-15T10:54:09.000Z</time>
      </trkpt>
      <trkpt lat="45.11744" lon="5.32724">
        <ele>213.2</ele>
        <time>2022-10-15T10:54:10.000Z</time>
      </trkpt>
      <trkpt lat="45.11746" lon="5.32724">
        <ele>213.2</ele>
        <time>2022-10-15T10:54:11.000Z</time>
      </trkpt>
      <trkpt lat="45.11748" lon="5.32725">
        <ele>213.2</ele>
        <time>2022-10-15T10:54:12.000Z</time>
      </trkpt>
      <trkpt lat="45.11751" lon="5.32727">
        <ele>213.2</ele>
        <time>2022-10-15T10:54:14.000Z</time>
      </trkpt>
      <trkpt lat="45.11753" lon="5.32727">
        <ele>213.2</ele>
        <time>2022-10-15T10:54:16.000Z</time>
      </trkpt>
      <trkpt lat="45.11754" lon="5.32731">
        <ele>213.3</ele>
        <time>2022-10-15T10:54:18.000Z</time>
      </trkpt>
      <trkpt lat="45.11752" lon="5.32735">
        <ele>213.4</ele>
        <time>2022-10-15T10:54:20.000Z</time>
      </trkpt>
      <trkpt lat="45.11749" lon="5.32736">
        <ele>213.5</ele>
        <time>2022-10-15T10:54:21.000Z</time>
      </trkpt>
      <trkpt lat="45.11748" lon="5.32737">
        <ele>213.6</ele>
        <time>2022-10-15T10:54:22.000Z</time>
      </trkpt>
      <trkpt lat="45.11746" lon="5.3274">
        <ele>213.7</ele>
        <time>2022-10-15T10:54:23.000Z</time>
      </trkpt>
      <trkpt lat="45.11744" lon="5.32743">
        <ele>213.8</ele>
        <time>2022-10-15T10:54:24.000Z</time>
      </trkpt>
      <trkpt lat="45.11742" lon="5.32745">
        <ele>213.9</ele>
        <time>2022-10-15T10:54:25.000Z</time>
      </trkpt>
      <trkpt lat="45.11741" lon="5.32747">
        <ele>213.9</ele>
        <time>2022-10-15T10:54:26.000Z</time>
      </trkpt>
      <trkpt lat="45.11739" lon="5.3275">
        <ele>214</ele>
        <time>2022-10-15T10:54:27.000Z</time>
      </trkpt>
      <trkpt lat="45.11738" lon="5.32753">
        <ele>214</ele>
        <time>2022-10-15T10:54:28.000Z</time>
      </trkpt>
      <trkpt lat="45.11738" lon="5.32756">
        <ele>214</ele>
        <time>2022-10-15T10:54:29.000Z</time>
      </trkpt>
      <trkpt lat="45.11739" lon="5.32758">
        <ele>214</ele>
        <time>2022-10-15T10:54:30.000Z</time>
      </trkpt>
      <trkpt lat="45.11741" lon="5.32761">
        <ele>214</ele>
        <time>2022-10-15T10:54:31.000Z</time>
      </trkpt>
      <trkpt lat="45.11743" lon="5.32763">
        <ele>214</ele>
        <time>2022-10-15T10:54:32.000Z</time>
      </trkpt>
      <trkpt lat="45.11745" lon="5.32766">
        <ele>214</ele>
        <time>2022-10-15T10:54:33.000Z</time>
      </trkpt>
      <trkpt lat="45.11747" lon="5.32768">
        <ele>214</ele>
        <time>2022-10-15T10:54:34.000Z</time>
      </trkpt>
      <trkpt lat="45.11749" lon="5.32771">
        <ele>214</ele>
        <time>2022-10-15T10:54:35.000Z</time>
      </trkpt>
      <trkpt lat="45.11751" lon="5.32774">
        <ele>214</ele>
        <time>2022-10-15T10:54:36.000Z</time>
      </trkpt>
      <trkpt lat="45.11752" lon="5.32776">
        <ele>214</ele>
        <time>2022-10-15T10:54:37.000Z</time>
      </trkpt>
      <trkpt lat="45.11754" lon="5.32778">
        <ele>214</ele>
        <time>2022-10-15T10:54:38.000Z</time>
      </trkpt>
      <trkpt lat="45.11755" lon="5.3278">
        <ele>214</ele>
        <time>2022-10-15T10:54:39.000Z</time>
      </trkpt>
      <trkpt lat="45.11758" lon="5.32783">
        <ele>214</ele>
        <time>2022-10-15T10:54:41.000Z</time>
      </trkpt>
      <trkpt lat="45.1176" lon="5.32784">
        <ele>214</ele>
        <time>2022-10-15T10:54:42.000Z</time>
      </trkpt>
      <trkpt lat="45.11762" lon="5.32787">
        <ele>214</ele>
        <time>2022-10-15T10:54:43.000Z</time>
      </trkpt>
      <trkpt lat="45.11764" lon="5.32789">
        <ele>214</ele>
        <time>2022-10-15T10:54:44.000Z</time>
      </trkpt>
      <trkpt lat="45.11766" lon="5.32792">
        <ele>214</ele>
        <time>2022-10-15T10:54:45.000Z</time>
      </trkpt>
      <trkpt lat="45.11768" lon="5.32795">
        <ele>214</ele>
        <time>2022-10-15T10:54:46.000Z</time>
      </trkpt>
      <trkpt lat="45.1177" lon="5.32798">
        <ele>214</ele>
        <time>2022-10-15T10:54:47.000Z</time>
      </trkpt>
      <trkpt lat="45.11772" lon="5.32801">
        <ele>214</ele>
        <time>2022-10-15T10:54:48.000Z</time>
      </trkpt>
      <trkpt lat="45.11774" lon="5.32804">
        <ele>214</ele>
        <time>2022-10-15T10:54:49.000Z</time>
      </trkpt>
      <trkpt lat="45.11776" lon="5.32807">
        <ele>214</ele>
        <time>2022-10-15T10:54:50.000Z</time>
      </trkpt>
      <trkpt lat="45.11778" lon="5.3281">
        <ele>214</ele>
        <time>2022-10-15T10:54:51.000Z</time>
      </trkpt>
      <trkpt lat="45.1178" lon="5.32813">
        <ele>213.9</ele>
        <time>2022-10-15T10:54:52.000Z</time>
      </trkpt>
      <trkpt lat="45.11781" lon="5.32816">
        <ele>213.9</ele>
        <time>2022-10-15T10:54:53.000Z</time>
      </trkpt>
      <trkpt lat="45.11783" lon="5.32819">
        <ele>213.8</ele>
        <time>2022-10-15T10:54:54.000Z</time>
      </trkpt>
      <trkpt lat="45.11785" lon="5.32821">
        <ele>213.7</ele>
        <time>2022-10-15T10:54:55.000Z</time>
      </trkpt>
      <trkpt lat="45.11787" lon="5.32824">
        <ele>213.7</ele>
        <time>2022-10-15T10:54:56.000Z</time>
      </trkpt>
      <trkpt lat="45.1179" lon="5.32826">
        <ele>213.6</ele>
        <time>2022-10-15T10:54:57.000Z</time>
      </trkpt>
      <trkpt lat="45.11792" lon="5.32829">
        <ele>213.5</ele>
        <time>2022-10-15T10:54:58.000Z</time>
      </trkpt>
      <trkpt lat="45.11794" lon="5.32832">
        <ele>213.4</ele>
        <time>2022-10-15T10:54:59.000Z</time>
      </trkpt>
      <trkpt lat="45.11795" lon="5.32835">
        <ele>213.4</ele>
        <time>2022-10-15T10:55:00.000Z</time>
      </trkpt>
      <trkpt lat="45.11797" lon="5.32838">
        <ele>213.4</ele>
        <time>2022-10-15T10:55:01.000Z</time>
      </trkpt>
      <trkpt lat="45.11798" lon="5.32841">
        <ele>213.3</ele>
        <time>2022-10-15T10:55:02.000Z</time>
      </trkpt>
      <trkpt lat="45.11799" lon="5.32845">
        <ele>213.3</ele>
        <time>2022-10-15T10:55:03.000Z</time>
      </trkpt>
      <trkpt lat="45.118" lon="5.32848">
        <ele>213.3</ele>
        <time>2022-10-15T10:55:04.000Z</time>
      </trkpt>
      <trkpt lat="45.11801" lon="5.32853">
        <ele>213.3</ele>
        <time>2022-10-15T10:55:05.000Z</time>
      </trkpt>
      <trkpt lat="45.11803" lon="5.32857">
        <ele>213.2</ele>
        <time>2022-10-15T10:55:06.000Z</time>
      </trkpt>
      <trkpt lat="45.11805" lon="5.32861">
        <ele>213</ele>
        <time>2022-10-15T10:55:07.000Z</time>
      </trkpt>
      <trkpt lat="45.11807" lon="5.32865">
        <ele>213.2</ele>
        <time>2022-10-15T10:55:08.000Z</time>
      </trkpt>
      <trkpt lat="45.1181" lon="5.3287">
        <ele>213.3</ele>
        <time>2022-10-15T10:55:09.000Z</time>
      </trkpt>
      <trkpt lat="45.11812" lon="5.32874">
        <ele>213.5</ele>
        <time>2022-10-15T10:55:10.000Z</time>
      </trkpt>
      <trkpt lat="45.11814" lon="5.32878">
        <ele>213.6</ele>
        <time>2022-10-15T10:55:11.000Z</time>
      </trkpt>
      <trkpt lat="45.11817" lon="5.32881">
        <ele>213.7</ele>
        <time>2022-10-15T10:55:12.000Z</time>
      </trkpt>
      <trkpt lat="45.1182" lon="5.32885">
        <ele>213.9</ele>
        <time>2022-10-15T10:55:13.000Z</time>
      </trkpt>
      <trkpt lat="45.11822" lon="5.32889">
        <ele>214</ele>
        <time>2022-10-15T10:55:14.000Z</time>
      </trkpt>
      <trkpt lat="45.11825" lon="5.32893">
        <ele>214</ele>
        <time>2022-10-15T10:55:15.000Z</time>
      </trkpt>
      <trkpt lat="45.11827" lon="5.32897">
        <ele>214.1</ele>
        <time>2022-10-15T10:55:16.000Z</time>
      </trkpt>
      <trkpt lat="45.1183" lon="5.329">
        <ele>214.1</ele>
        <time>2022-10-15T10:55:17.000Z</time>
      </trkpt>
      <trkpt lat="45.11832" lon="5.32904">
        <ele>214</ele>
        <time>2022-10-15T10:55:18.000Z</time>
      </trkpt>
      <trkpt lat="45.11834" lon="5.32908">
        <ele>214</ele>
        <time>2022-10-15T10:55:19.000Z</time>
      </trkpt>
      <trkpt lat="45.11837" lon="5.32912">
        <ele>213.9</ele>
        <time>2022-10-15T10:55:20.000Z</time>
      </trkpt>
      <trkpt lat="45.1184" lon="5.32916">
        <ele>213.8</ele>
        <time>2022-10-15T10:55:21.000Z</time>
      </trkpt>
      <trkpt lat="45.11842" lon="5.3292">
        <ele>213.7</ele>
        <time>2022-10-15T10:55:22.000Z</time>
      </trkpt>
      <trkpt lat="45.11845" lon="5.32924">
        <ele>213.7</ele>
        <time>2022-10-15T10:55:23.000Z</time>
      </trkpt>
      <trkpt lat="45.11848" lon="5.32928">
        <ele>213.7</ele>
        <time>2022-10-15T10:55:24.000Z</time>
      </trkpt>
      <trkpt lat="45.11851" lon="5.32932">
        <ele>213.7</ele>
        <time>2022-10-15T10:55:25.000Z</time>
      </trkpt>
      <trkpt lat="45.11854" lon="5.32935">
        <ele>213.8</ele>
        <time>2022-10-15T10:55:26.000Z</time>
      </trkpt>
      <trkpt lat="45.11857" lon="5.32939">
        <ele>213.8</ele>
        <time>2022-10-15T10:55:27.000Z</time>
      </trkpt>
      <trkpt lat="45.1186" lon="5.32943">
        <ele>214</ele>
        <time>2022-10-15T10:55:28.000Z</time>
      </trkpt>
      <trkpt lat="45.11863" lon="5.32948">
        <ele>214</ele>
        <time>2022-10-15T10:55:29.000Z</time>
      </trkpt>
      <trkpt lat="45.11866" lon="5.32952">
        <ele>213.9</ele>
        <time>2022-10-15T10:55:30.000Z</time>
      </trkpt>
      <trkpt lat="45.11869" lon="5.32956">
        <ele>213.8</ele>
        <time>2022-10-15T10:55:31.000Z</time>
      </trkpt>
      <trkpt lat="45.11872" lon="5.3296">
        <ele>213.8</ele>
        <time>2022-10-15T10:55:32.000Z</time>
      </trkpt>
      <trkpt lat="45.11875" lon="5.32965">
        <ele>213.9</ele>
        <time>2022-10-15T10:55:33.000Z</time>
      </trkpt>
      <trkpt lat="45.11878" lon="5.32969">
        <ele>213.9</ele>
        <time>2022-10-15T10:55:34.000Z</time>
      </trkpt>
      <trkpt lat="45.11881" lon="5.32974">
        <ele>214</ele>
        <time>2022-10-15T10:55:35.000Z</time>
      </trkpt>
      <trkpt lat="45.11884" lon="5.32978">
        <ele>214</ele>
        <time>2022-10-15T10:55:36.000Z</time>
      </trkpt>
      <trkpt lat="45.11887" lon="5.32982">
        <ele>214</ele>
        <time>2022-10-15T10:55:37.000Z</time>
      </trkpt>
      <trkpt lat="45.1189" lon="5.32987">
        <ele>214</ele>
        <time>2022-10-15T10:55:38.000Z</time>
      </trkpt>
      <trkpt lat="45.11893" lon="5.32991">
        <ele>213.9</ele>
        <time>2022-10-15T10:55:39.000Z</time>
      </trkpt>
      <trkpt lat="45.11897" lon="5.32995">
        <ele>213.9</ele>
        <time>2022-10-15T10:55:40.000Z</time>
      </trkpt>
      <trkpt lat="45.119" lon="5.32999">
        <ele>214</ele>
        <time>2022-10-15T10:55:41.000Z</time>
      </trkpt>
      <trkpt lat="45.11903" lon="5.33004">
        <ele>214</ele>
        <time>2022-10-15T10:55:42.000Z</time>
      </trkpt>
      <trkpt lat="45.11907" lon="5.33008">
        <ele>214</ele>
        <time>2022-10-15T10:55:43.000Z</time>
      </trkpt>
      <trkpt lat="45.1191" lon="5.33012">
        <ele>214</ele>
        <time>2022-10-15T10:55:44.000Z</time>
      </trkpt>
      <trkpt lat="45.11914" lon="5.33017">
        <ele>214</ele>
        <time>2022-10-15T10:55:45.000Z</time>
      </trkpt>
      <trkpt lat="45.11917" lon="5.33022">
        <ele>214</ele>
        <time>2022-10-15T10:55:46.000Z</time>
      </trkpt>
      <trkpt lat="45.1192" lon="5.33027">
        <ele>213.9</ele>
        <time>2022-10-15T10:55:47.000Z</time>
      </trkpt>
      <trkpt lat="45.11924" lon="5.33032">
        <ele>213.8</ele>
        <time>2022-10-15T10:55:48.000Z</time>
      </trkpt>
      <trkpt lat="45.11927" lon="5.33036">
        <ele>213.7</ele>
        <time>2022-10-15T10:55:49.000Z</time>
      </trkpt>
      <trkpt lat="45.11931" lon="5.33041">
        <ele>213.7</ele>
        <time>2022-10-15T10:55:50.000Z</time>
      </trkpt>
      <trkpt lat="45.11934" lon="5.33046">
        <ele>213.8</ele>
        <time>2022-10-15T10:55:51.000Z</time>
      </trkpt>
      <trkpt lat="45.11938" lon="5.3305">
        <ele>213.9</ele>
        <time>2022-10-15T10:55:52.000Z</time>
      </trkpt>
      <trkpt lat="45.11941" lon="5.33055">
        <ele>214</ele>
        <time>2022-10-15T10:55:53.000Z</time>
      </trkpt>
      <trkpt lat="45.11945" lon="5.3306">
        <ele>214</ele>
        <time>2022-10-15T10:55:54.000Z</time>
      </trkpt>
      <trkpt lat="45.11948" lon="5.33064">
        <ele>213.9</ele>
        <time>2022-10-15T10:55:55.000Z</time>
      </trkpt>
      <trkpt lat="45.11952" lon="5.33069">
        <ele>213.7</ele>
        <time>2022-10-15T10:55:56.000Z</time>
      </trkpt>
      <trkpt lat="45.11955" lon="5.33073">
        <ele>213.6</ele>
        <time>2022-10-15T10:55:57.000Z</time>
      </trkpt>
      <trkpt lat="45.11959" lon="5.33078">
        <ele>213.5</ele>
        <time>2022-10-15T10:55:58.000Z</time>
      </trkpt>
      <trkpt lat="45.11963" lon="5.33082">
        <ele>213.3</ele>
        <time>2022-10-15T10:55:59.000Z</time>
      </trkpt>
      <trkpt lat="45.11966" lon="5.33087">
        <ele>213.2</ele>
        <time>2022-10-15T10:56:00.000Z</time>
      </trkpt>
      <trkpt lat="45.1197" lon="5.33092">
        <ele>213.1</ele>
        <time>2022-10-15T10:56:01.000Z</time>
      </trkpt>
      <trkpt lat="45.11973" lon="5.33096">
        <ele>213</ele>
        <time>2022-10-15T10:56:02.000Z</time>
      </trkpt>
      <trkpt lat="45.11977" lon="5.33101">
        <ele>212.9</ele>
        <time>2022-10-15T10:56:03.000Z</time>
      </trkpt>
      <trkpt lat="45.11981" lon="5.33105">
        <ele>212.9</ele>
        <time>2022-10-15T10:56:04.000Z</time>
      </trkpt>
      <trkpt lat="45.11984" lon="5.3311">
        <ele>213</ele>
        <time>2022-10-15T10:56:05.000Z</time>
      </trkpt>
      <trkpt lat="45.11987" lon="5.33115">
        <ele>213.1</ele>
        <time>2022-10-15T10:56:06.000Z</time>
      </trkpt>
      <trkpt lat="45.11991" lon="5.3312">
        <ele>213.1</ele>
        <time>2022-10-15T10:56:07.000Z</time>
      </trkpt>
      <trkpt lat="45.11994" lon="5.33124">
        <ele>213.1</ele>
        <time>2022-10-15T10:56:08.000Z</time>
      </trkpt>
      <trkpt lat="45.11998" lon="5.33129">
        <ele>213.1</ele>
        <time>2022-10-15T10:56:09.000Z</time>
      </trkpt>
      <trkpt lat="45.12001" lon="5.33134">
        <ele>213</ele>
        <time>2022-10-15T10:56:10.000Z</time>
      </trkpt>
      <trkpt lat="45.12004" lon="5.33138">
        <ele>212.8</ele>
        <time>2022-10-15T10:56:11.000Z</time>
      </trkpt>
      <trkpt lat="45.12008" lon="5.33143">
        <ele>212.8</ele>
        <time>2022-10-15T10:56:12.000Z</time>
      </trkpt>
      <trkpt lat="45.12011" lon="5.33147">
        <ele>212.7</ele>
        <time>2022-10-15T10:56:13.000Z</time>
      </trkpt>
      <trkpt lat="45.12014" lon="5.33152">
        <ele>212.7</ele>
        <time>2022-10-15T10:56:14.000Z</time>
      </trkpt>
      <trkpt lat="45.12018" lon="5.33156">
        <ele>212.8</ele>
        <time>2022-10-15T10:56:15.000Z</time>
      </trkpt>
      <trkpt lat="45.12021" lon="5.3316">
        <ele>212.8</ele>
        <time>2022-10-15T10:56:16.000Z</time>
      </trkpt>
      <trkpt lat="45.12024" lon="5.33165">
        <ele>212.9</ele>
        <time>2022-10-15T10:56:17.000Z</time>
      </trkpt>
      <trkpt lat="45.12027" lon="5.33169">
        <ele>213</ele>
        <time>2022-10-15T10:56:18.000Z</time>
      </trkpt>
      <trkpt lat="45.12031" lon="5.33173">
        <ele>212.9</ele>
        <time>2022-10-15T10:56:19.000Z</time>
      </trkpt>
      <trkpt lat="45.12033" lon="5.33178">
        <ele>212.8</ele>
        <time>2022-10-15T10:56:20.000Z</time>
      </trkpt>
      <trkpt lat="45.12036" lon="5.33183">
        <ele>212.7</ele>
        <time>2022-10-15T10:56:21.000Z</time>
      </trkpt>
      <trkpt lat="45.12039" lon="5.33187">
        <ele>212.6</ele>
        <time>2022-10-15T10:56:22.000Z</time>
      </trkpt>
      <trkpt lat="45.12043" lon="5.33192">
        <ele>212.5</ele>
        <time>2022-10-15T10:56:23.000Z</time>
      </trkpt>
      <trkpt lat="45.12046" lon="5.33196">
        <ele>212.3</ele>
        <time>2022-10-15T10:56:24.000Z</time>
      </trkpt>
      <trkpt lat="45.1205" lon="5.33201">
        <ele>212.2</ele>
        <time>2022-10-15T10:56:25.000Z</time>
      </trkpt>
      <trkpt lat="45.12053" lon="5.33205">
        <ele>212.1</ele>
        <time>2022-10-15T10:56:26.000Z</time>
      </trkpt>
      <trkpt lat="45.12057" lon="5.3321">
        <ele>212</ele>
        <time>2022-10-15T10:56:27.000Z</time>
      </trkpt>
      <trkpt lat="45.12061" lon="5.33216">
        <ele>211.8</ele>
        <time>2022-10-15T10:56:28.000Z</time>
      </trkpt>
      <trkpt lat="45.12064" lon="5.33221">
        <ele>211.7</ele>
        <time>2022-10-15T10:56:29.000Z</time>
      </trkpt>
      <trkpt lat="45.12068" lon="5.33226">
        <ele>211.6</ele>
        <time>2022-10-15T10:56:30.000Z</time>
      </trkpt>
      <trkpt lat="45.12072" lon="5.33231">
        <ele>211.5</ele>
        <time>2022-10-15T10:56:31.000Z</time>
      </trkpt>
      <trkpt lat="45.12076" lon="5.33236">
        <ele>211.4</ele>
        <time>2022-10-15T10:56:32.000Z</time>
      </trkpt>
      <trkpt lat="45.1208" lon="5.33242">
        <ele>211.2</ele>
        <time>2022-10-15T10:56:33.000Z</time>
      </trkpt>
      <trkpt lat="45.12084" lon="5.33247">
        <ele>211</ele>
        <time>2022-10-15T10:56:34.000Z</time>
      </trkpt>
      <trkpt lat="45.12088" lon="5.33253">
        <ele>210.7</ele>
        <time>2022-10-15T10:56:35.000Z</time>
      </trkpt>
      <trkpt lat="45.12092" lon="5.33258">
        <ele>210.5</ele>
        <time>2022-10-15T10:56:36.000Z</time>
      </trkpt>
      <trkpt lat="45.12096" lon="5.33263">
        <ele>210.3</ele>
        <time>2022-10-15T10:56:37.000Z</time>
      </trkpt>
      <trkpt lat="45.12101" lon="5.33269">
        <ele>210.2</ele>
        <time>2022-10-15T10:56:38.000Z</time>
      </trkpt>
      <trkpt lat="45.12105" lon="5.33274">
        <ele>210.1</ele>
        <time>2022-10-15T10:56:39.000Z</time>
      </trkpt>
      <trkpt lat="45.12109" lon="5.3328">
        <ele>209.3</ele>
        <time>2022-10-15T10:56:40.000Z</time>
      </trkpt>
      <trkpt lat="45.12114" lon="5.33286">
        <ele>206.9</ele>
        <time>2022-10-15T10:56:41.000Z</time>
      </trkpt>
      <trkpt lat="45.12119" lon="5.33292">
        <ele>205</ele>
        <time>2022-10-15T10:56:42.000Z</time>
      </trkpt>
      <trkpt lat="45.12123" lon="5.33298">
        <ele>203.7</ele>
        <time>2022-10-15T10:56:43.000Z</time>
      </trkpt>
      <trkpt lat="45.12127" lon="5.33303">
        <ele>203.2</ele>
        <time>2022-10-15T10:56:44.000Z</time>
      </trkpt>
      <trkpt lat="45.12131" lon="5.33309">
        <ele>204.1</ele>
        <time>2022-10-15T10:56:45.000Z</time>
      </trkpt>
      <trkpt lat="45.12136" lon="5.33314">
        <ele>205.8</ele>
        <time>2022-10-15T10:56:46.000Z</time>
      </trkpt>
      <trkpt lat="45.12139" lon="5.3332">
        <ele>207.5</ele>
        <time>2022-10-15T10:56:47.000Z</time>
      </trkpt>
      <trkpt lat="45.12143" lon="5.33325">
        <ele>208.2</ele>
        <time>2022-10-15T10:56:48.000Z</time>
      </trkpt>
      <trkpt lat="45.12147" lon="5.33331">
        <ele>209.1</ele>
        <time>2022-10-15T10:56:49.000Z</time>
      </trkpt>
      <trkpt lat="45.12151" lon="5.33336">
        <ele>209.7</ele>
        <time>2022-10-15T10:56:50.000Z</time>
      </trkpt>
      <trkpt lat="45.12155" lon="5.33341">
        <ele>209.9</ele>
        <time>2022-10-15T10:56:51.000Z</time>
      </trkpt>
      <trkpt lat="45.12159" lon="5.33347">
        <ele>210.1</ele>
        <time>2022-10-15T10:56:52.000Z</time>
      </trkpt>
      <trkpt lat="45.12162" lon="5.33352">
        <ele>210.4</ele>
        <time>2022-10-15T10:56:53.000Z</time>
      </trkpt>
      <trkpt lat="45.12165" lon="5.33357">
        <ele>210.7</ele>
        <time>2022-10-15T10:56:54.000Z</time>
      </trkpt>
      <trkpt lat="45.12169" lon="5.33361">
        <ele>210.9</ele>
        <time>2022-10-15T10:56:55.000Z</time>
      </trkpt>
      <trkpt lat="45.12172" lon="5.33366">
        <ele>210.8</ele>
        <time>2022-10-15T10:56:56.000Z</time>
      </trkpt>
      <trkpt lat="45.12176" lon="5.33371">
        <ele>210.8</ele>
        <time>2022-10-15T10:56:57.000Z</time>
      </trkpt>
      <trkpt lat="45.12179" lon="5.33375">
        <ele>210.8</ele>
        <time>2022-10-15T10:56:58.000Z</time>
      </trkpt>
      <trkpt lat="45.12182" lon="5.33379">
        <ele>210.9</ele>
        <time>2022-10-15T10:56:59.000Z</time>
      </trkpt>
      <trkpt lat="45.12186" lon="5.33383">
        <ele>211</ele>
        <time>2022-10-15T10:57:00.000Z</time>
      </trkpt>
      <trkpt lat="45.1219" lon="5.33387">
        <ele>211.1</ele>
        <time>2022-10-15T10:57:01.000Z</time>
      </trkpt>
      <trkpt lat="45.12194" lon="5.33391">
        <ele>211.1</ele>
        <time>2022-10-15T10:57:02.000Z</time>
      </trkpt>
      <trkpt lat="45.12197" lon="5.33395">
        <ele>211.1</ele>
        <time>2022-10-15T10:57:03.000Z</time>
      </trkpt>
      <trkpt lat="45.12201" lon="5.33399">
        <ele>211.1</ele>
        <time>2022-10-15T10:57:04.000Z</time>
      </trkpt>
      <trkpt lat="45.12204" lon="5.33403">
        <ele>211</ele>
        <time>2022-10-15T10:57:05.000Z</time>
      </trkpt>
      <trkpt lat="45.12208" lon="5.33407">
        <ele>210.8</ele>
        <time>2022-10-15T10:57:06.000Z</time>
      </trkpt>
      <trkpt lat="45.12212" lon="5.33411">
        <ele>210.7</ele>
        <time>2022-10-15T10:57:07.000Z</time>
      </trkpt>
      <trkpt lat="45.12216" lon="5.33415">
        <ele>210.5</ele>
        <time>2022-10-15T10:57:08.000Z</time>
      </trkpt>
      <trkpt lat="45.12219" lon="5.33419">
        <ele>210.3</ele>
        <time>2022-10-15T10:57:09.000Z</time>
      </trkpt>
      <trkpt lat="45.12223" lon="5.33423">
        <ele>210.2</ele>
        <time>2022-10-15T10:57:10.000Z</time>
      </trkpt>
      <trkpt lat="45.12227" lon="5.33426">
        <ele>210.2</ele>
        <time>2022-10-15T10:57:11.000Z</time>
      </trkpt>
      <trkpt lat="45.12232" lon="5.3343">
        <ele>210.1</ele>
        <time>2022-10-15T10:57:12.000Z</time>
      </trkpt>
      <trkpt lat="45.12236" lon="5.33433">
        <ele>210.1</ele>
        <time>2022-10-15T10:57:13.000Z</time>
      </trkpt>
      <trkpt lat="45.1224" lon="5.33437">
        <ele>210.1</ele>
        <time>2022-10-15T10:57:14.000Z</time>
      </trkpt>
      <trkpt lat="45.12244" lon="5.33441">
        <ele>210.1</ele>
        <time>2022-10-15T10:57:15.000Z</time>
      </trkpt>
      <trkpt lat="45.12249" lon="5.33445">
        <ele>210.1</ele>
        <time>2022-10-15T10:57:16.000Z</time>
      </trkpt>
      <trkpt lat="45.12253" lon="5.33448">
        <ele>209.9</ele>
        <time>2022-10-15T10:57:17.000Z</time>
      </trkpt>
      <trkpt lat="45.12257" lon="5.33452">
        <ele>209.7</ele>
        <time>2022-10-15T10:57:18.000Z</time>
      </trkpt>
      <trkpt lat="45.12262" lon="5.33456">
        <ele>209.6</ele>
        <time>2022-10-15T10:57:19.000Z</time>
      </trkpt>
      <trkpt lat="45.12266" lon="5.3346">
        <ele>209.4</ele>
        <time>2022-10-15T10:57:20.000Z</time>
      </trkpt>
      <trkpt lat="45.12271" lon="5.33463">
        <ele>209.3</ele>
        <time>2022-10-15T10:57:21.000Z</time>
      </trkpt>
      <trkpt lat="45.12275" lon="5.33467">
        <ele>209.1</ele>
        <time>2022-10-15T10:57:22.000Z</time>
      </trkpt>
      <trkpt lat="45.1228" lon="5.33471">
        <ele>209</ele>
        <time>2022-10-15T10:57:23.000Z</time>
      </trkpt>
      <trkpt lat="45.12284" lon="5.33474">
        <ele>209</ele>
        <time>2022-10-15T10:57:24.000Z</time>
      </trkpt>
      <trkpt lat="45.12289" lon="5.33478">
        <ele>209</ele>
        <time>2022-10-15T10:57:25.000Z</time>
      </trkpt>
      <trkpt lat="45.12294" lon="5.33482">
        <ele>209</ele>
        <time>2022-10-15T10:57:26.000Z</time>
      </trkpt>
      <trkpt lat="45.12298" lon="5.33486">
        <ele>209</ele>
        <time>2022-10-15T10:57:27.000Z</time>
      </trkpt>
      <trkpt lat="45.12303" lon="5.3349">
        <ele>209</ele>
        <time>2022-10-15T10:57:28.000Z</time>
      </trkpt>
      <trkpt lat="45.12307" lon="5.33494">
        <ele>208.9</ele>
        <time>2022-10-15T10:57:29.000Z</time>
      </trkpt>
      <trkpt lat="45.12312" lon="5.33498">
        <ele>208.5</ele>
        <time>2022-10-15T10:57:30.000Z</time>
      </trkpt>
      <trkpt lat="45.12317" lon="5.33502">
        <ele>208.2</ele>
        <time>2022-10-15T10:57:31.000Z</time>
      </trkpt>
      <trkpt lat="45.12322" lon="5.33506">
        <ele>208</ele>
        <time>2022-10-15T10:57:32.000Z</time>
      </trkpt>
      <trkpt lat="45.12326" lon="5.3351">
        <ele>207.8</ele>
        <time>2022-10-15T10:57:33.000Z</time>
      </trkpt>
      <trkpt lat="45.12331" lon="5.33514">
        <ele>207.6</ele>
        <time>2022-10-15T10:57:34.000Z</time>
      </trkpt>
      <trkpt lat="45.12336" lon="5.33519">
        <ele>207.5</ele>
        <time>2022-10-15T10:57:35.000Z</time>
      </trkpt>
      <trkpt lat="45.1234" lon="5.33523">
        <ele>207.3</ele>
        <time>2022-10-15T10:57:36.000Z</time>
      </trkpt>
      <trkpt lat="45.12345" lon="5.33528">
        <ele>207.2</ele>
        <time>2022-10-15T10:57:37.000Z</time>
      </trkpt>
      <trkpt lat="45.1235" lon="5.33532">
        <ele>206.8</ele>
        <time>2022-10-15T10:57:38.000Z</time>
      </trkpt>
      <trkpt lat="45.12355" lon="5.33537">
        <ele>206.4</ele>
        <time>2022-10-15T10:57:39.000Z</time>
      </trkpt>
      <trkpt lat="45.1236" lon="5.33541">
        <ele>206.1</ele>
        <time>2022-10-15T10:57:40.000Z</time>
      </trkpt>
      <trkpt lat="45.12366" lon="5.33546">
        <ele>205.9</ele>
        <time>2022-10-15T10:57:41.000Z</time>
      </trkpt>
      <trkpt lat="45.12371" lon="5.33551">
        <ele>205.9</ele>
        <time>2022-10-15T10:57:42.000Z</time>
      </trkpt>
      <trkpt lat="45.12376" lon="5.33555">
        <ele>206</ele>
        <time>2022-10-15T10:57:43.000Z</time>
      </trkpt>
      <trkpt lat="45.12381" lon="5.33559">
        <ele>205.9</ele>
        <time>2022-10-15T10:57:44.000Z</time>
      </trkpt>
      <trkpt lat="45.12387" lon="5.33564">
        <ele>205.8</ele>
        <time>2022-10-15T10:57:45.000Z</time>
      </trkpt>
      <trkpt lat="45.12392" lon="5.33569">
        <ele>205.5</ele>
        <time>2022-10-15T10:57:46.000Z</time>
      </trkpt>
      <trkpt lat="45.12397" lon="5.33573">
        <ele>205.3</ele>
        <time>2022-10-15T10:57:47.000Z</time>
      </trkpt>
      <trkpt lat="45.12402" lon="5.33578">
        <ele>205.4</ele>
        <time>2022-10-15T10:57:48.000Z</time>
      </trkpt>
      <trkpt lat="45.12407" lon="5.33583">
        <ele>205.6</ele>
        <time>2022-10-15T10:57:49.000Z</time>
      </trkpt>
      <trkpt lat="45.12412" lon="5.33587">
        <ele>205.7</ele>
        <time>2022-10-15T10:57:50.000Z</time>
      </trkpt>
      <trkpt lat="45.12417" lon="5.33592">
        <ele>205.7</ele>
        <time>2022-10-15T10:57:51.000Z</time>
      </trkpt>
      <trkpt lat="45.12422" lon="5.33597">
        <ele>205.4</ele>
        <time>2022-10-15T10:57:52.000Z</time>
      </trkpt>
      <trkpt lat="45.12426" lon="5.33602">
        <ele>205.3</ele>
        <time>2022-10-15T10:57:53.000Z</time>
      </trkpt>
      <trkpt lat="45.12431" lon="5.33608">
        <ele>205.4</ele>
        <time>2022-10-15T10:57:54.000Z</time>
      </trkpt>
      <trkpt lat="45.12435" lon="5.33613">
        <ele>205.6</ele>
        <time>2022-10-15T10:57:55.000Z</time>
      </trkpt>
      <trkpt lat="45.12439" lon="5.33619">
        <ele>205.6</ele>
        <time>2022-10-15T10:57:56.000Z</time>
      </trkpt>
      <trkpt lat="45.12443" lon="5.33625">
        <ele>205.5</ele>
        <time>2022-10-15T10:57:57.000Z</time>
      </trkpt>
      <trkpt lat="45.12447" lon="5.33631">
        <ele>205</ele>
        <time>2022-10-15T10:57:58.000Z</time>
      </trkpt>
      <trkpt lat="45.12451" lon="5.33638">
        <ele>204.5</ele>
        <time>2022-10-15T10:57:59.000Z</time>
      </trkpt>
      <trkpt lat="45.12455" lon="5.33644">
        <ele>204.3</ele>
        <time>2022-10-15T10:58:00.000Z</time>
      </trkpt>
      <trkpt lat="45.12458" lon="5.33651">
        <ele>204.2</ele>
        <time>2022-10-15T10:58:01.000Z</time>
      </trkpt>
      <trkpt lat="45.12461" lon="5.33658">
        <ele>204.2</ele>
        <time>2022-10-15T10:58:02.000Z</time>
      </trkpt>
      <trkpt lat="45.12464" lon="5.33665">
        <ele>204.2</ele>
        <time>2022-10-15T10:58:03.000Z</time>
      </trkpt>
      <trkpt lat="45.12467" lon="5.33672">
        <ele>204</ele>
        <time>2022-10-15T10:58:04.000Z</time>
      </trkpt>
      <trkpt lat="45.1247" lon="5.3368">
        <ele>203.7</ele>
        <time>2022-10-15T10:58:05.000Z</time>
      </trkpt>
      <trkpt lat="45.12472" lon="5.33687">
        <ele>203.3</ele>
        <time>2022-10-15T10:58:06.000Z</time>
      </trkpt>
      <trkpt lat="45.12474" lon="5.33695">
        <ele>202.9</ele>
        <time>2022-10-15T10:58:07.000Z</time>
      </trkpt>
      <trkpt lat="45.12476" lon="5.33702">
        <ele>198.1</ele>
        <time>2022-10-15T10:58:08.000Z</time>
      </trkpt>
      <trkpt lat="45.12477" lon="5.3371">
        <ele>193.4</ele>
        <time>2022-10-15T10:58:09.000Z</time>
      </trkpt>
      <trkpt lat="45.12478" lon="5.33718">
        <ele>188.7</ele>
        <time>2022-10-15T10:58:10.000Z</time>
      </trkpt>
      <trkpt lat="45.12479" lon="5.33725">
        <ele>185.6</ele>
        <time>2022-10-15T10:58:11.000Z</time>
      </trkpt>
      <trkpt lat="45.1248" lon="5.33732">
        <ele>185.2</ele>
        <time>2022-10-15T10:58:12.000Z</time>
      </trkpt>
      <trkpt lat="45.12482" lon="5.33739">
        <ele>184.9</ele>
        <time>2022-10-15T10:58:13.000Z</time>
      </trkpt>
      <trkpt lat="45.12483" lon="5.33746">
        <ele>184.6</ele>
        <time>2022-10-15T10:58:14.000Z</time>
      </trkpt>
      <trkpt lat="45.12484" lon="5.33753">
        <ele>186.1</ele>
        <time>2022-10-15T10:58:15.000Z</time>
      </trkpt>
      <trkpt lat="45.12485" lon="5.33759">
        <ele>190.3</ele>
        <time>2022-10-15T10:58:16.000Z</time>
      </trkpt>
      <trkpt lat="45.12486" lon="5.33766">
        <ele>194.7</ele>
        <time>2022-10-15T10:58:17.000Z</time>
      </trkpt>
      <trkpt lat="45.12486" lon="5.33772">
        <ele>198.9</ele>
        <time>2022-10-15T10:58:18.000Z</time>
      </trkpt>
      <trkpt lat="45.12487" lon="5.33779">
        <ele>202.5</ele>
        <time>2022-10-15T10:58:19.000Z</time>
      </trkpt>
      <trkpt lat="45.12488" lon="5.33786">
        <ele>202.8</ele>
        <time>2022-10-15T10:58:20.000Z</time>
      </trkpt>
      <trkpt lat="45.12489" lon="5.33792">
        <ele>203.1</ele>
        <time>2022-10-15T10:58:21.000Z</time>
      </trkpt>
      <trkpt lat="45.1249" lon="5.33799">
        <ele>203.4</ele>
        <time>2022-10-15T10:58:22.000Z</time>
      </trkpt>
      <trkpt lat="45.12491" lon="5.33805">
        <ele>203.6</ele>
        <time>2022-10-15T10:58:23.000Z</time>
      </trkpt>
      <trkpt lat="45.12492" lon="5.33811">
        <ele>203.9</ele>
        <time>2022-10-15T10:58:24.000Z</time>
      </trkpt>
      <trkpt lat="45.12493" lon="5.33817">
        <ele>204.2</ele>
        <time>2022-10-15T10:58:25.000Z</time>
      </trkpt>
      <trkpt lat="45.12494" lon="5.33823">
        <ele>204.6</ele>
        <time>2022-10-15T10:58:26.000Z</time>
      </trkpt>
      <trkpt lat="45.12495" lon="5.3383">
        <ele>205</ele>
        <time>2022-10-15T10:58:27.000Z</time>
      </trkpt>
      <trkpt lat="45.12495" lon="5.33836">
        <ele>205.2</ele>
        <time>2022-10-15T10:58:28.000Z</time>
      </trkpt>
      <trkpt lat="45.12496" lon="5.33842">
        <ele>205.2</ele>
        <time>2022-10-15T10:58:29.000Z</time>
      </trkpt>
      <trkpt lat="45.12497" lon="5.33848">
        <ele>205.2</ele>
        <time>2022-10-15T10:58:30.000Z</time>
      </trkpt>
      <trkpt lat="45.12497" lon="5.33854">
        <ele>205.2</ele>
        <time>2022-10-15T10:58:31.000Z</time>
      </trkpt>
      <trkpt lat="45.12498" lon="5.3386">
        <ele>205.2</ele>
        <time>2022-10-15T10:58:32.000Z</time>
      </trkpt>
      <trkpt lat="45.12499" lon="5.33865">
        <ele>205.3</ele>
        <time>2022-10-15T10:58:33.000Z</time>
      </trkpt>
      <trkpt lat="45.125" lon="5.33871">
        <ele>205.4</ele>
        <time>2022-10-15T10:58:34.000Z</time>
      </trkpt>
      <trkpt lat="45.125" lon="5.33877">
        <ele>205.6</ele>
        <time>2022-10-15T10:58:35.000Z</time>
      </trkpt>
      <trkpt lat="45.12501" lon="5.33883">
        <ele>205.7</ele>
        <time>2022-10-15T10:58:36.000Z</time>
      </trkpt>
      <trkpt lat="45.12501" lon="5.33888">
        <ele>205.9</ele>
        <time>2022-10-15T10:58:37.000Z</time>
      </trkpt>
      <trkpt lat="45.12502" lon="5.33894">
        <ele>205.9</ele>
        <time>2022-10-15T10:58:38.000Z</time>
      </trkpt>
      <trkpt lat="45.12503" lon="5.33899">
        <ele>205.9</ele>
        <time>2022-10-15T10:58:39.000Z</time>
      </trkpt>
      <trkpt lat="45.12504" lon="5.33905">
        <ele>205.9</ele>
        <time>2022-10-15T10:58:40.000Z</time>
      </trkpt>
      <trkpt lat="45.12505" lon="5.33911">
        <ele>205.8</ele>
        <time>2022-10-15T10:58:41.000Z</time>
      </trkpt>
      <trkpt lat="45.12506" lon="5.33916">
        <ele>205.8</ele>
        <time>2022-10-15T10:58:42.000Z</time>
      </trkpt>
      <trkpt lat="45.12507" lon="5.33922">
        <ele>205.9</ele>
        <time>2022-10-15T10:58:43.000Z</time>
      </trkpt>
      <trkpt lat="45.12508" lon="5.33928">
        <ele>206.1</ele>
        <time>2022-10-15T10:58:44.000Z</time>
      </trkpt>
      <trkpt lat="45.12509" lon="5.33933">
        <ele>206.3</ele>
        <time>2022-10-15T10:58:45.000Z</time>
      </trkpt>
      <trkpt lat="45.1251" lon="5.33939">
        <ele>206.5</ele>
        <time>2022-10-15T10:58:46.000Z</time>
      </trkpt>
      <trkpt lat="45.12511" lon="5.33945">
        <ele>206.6</ele>
        <time>2022-10-15T10:58:47.000Z</time>
      </trkpt>
      <trkpt lat="45.12512" lon="5.33951">
        <ele>206.7</ele>
        <time>2022-10-15T10:58:48.000Z</time>
      </trkpt>
      <trkpt lat="45.12513" lon="5.33957">
        <ele>206.8</ele>
        <time>2022-10-15T10:58:49.000Z</time>
      </trkpt>
      <trkpt lat="45.12514" lon="5.33963">
        <ele>206.8</ele>
        <time>2022-10-15T10:58:50.000Z</time>
      </trkpt>
      <trkpt lat="45.12515" lon="5.33969">
        <ele>206.9</ele>
        <time>2022-10-15T10:58:51.000Z</time>
      </trkpt>
      <trkpt lat="45.12516" lon="5.33975">
        <ele>206.9</ele>
        <time>2022-10-15T10:58:52.000Z</time>
      </trkpt>
      <trkpt lat="45.12517" lon="5.33981">
        <ele>206.8</ele>
        <time>2022-10-15T10:58:53.000Z</time>
      </trkpt>
      <trkpt lat="45.12518" lon="5.33987">
        <ele>206.7</ele>
        <time>2022-10-15T10:58:54.000Z</time>
      </trkpt>
      <trkpt lat="45.12518" lon="5.33993">
        <ele>206.7</ele>
        <time>2022-10-15T10:58:55.000Z</time>
      </trkpt>
      <trkpt lat="45.12519" lon="5.33998">
        <ele>206.6</ele>
        <time>2022-10-15T10:58:56.000Z</time>
      </trkpt>
      <trkpt lat="45.1252" lon="5.34004">
        <ele>206.5</ele>
        <time>2022-10-15T10:58:57.000Z</time>
      </trkpt>
      <trkpt lat="45.12521" lon="5.34009">
        <ele>206.5</ele>
        <time>2022-10-15T10:58:58.000Z</time>
      </trkpt>
      <trkpt lat="45.12522" lon="5.34015">
        <ele>206.4</ele>
        <time>2022-10-15T10:58:59.000Z</time>
      </trkpt>
      <trkpt lat="45.12523" lon="5.34021">
        <ele>206.4</ele>
        <time>2022-10-15T10:59:00.000Z</time>
      </trkpt>
      <trkpt lat="45.12524" lon="5.34027">
        <ele>206.3</ele>
        <time>2022-10-15T10:59:01.000Z</time>
      </trkpt>
      <trkpt lat="45.12524" lon="5.34033">
        <ele>206.2</ele>
        <time>2022-10-15T10:59:02.000Z</time>
      </trkpt>
      <trkpt lat="45.12525" lon="5.34039">
        <ele>206.1</ele>
        <time>2022-10-15T10:59:03.000Z</time>
      </trkpt>
      <trkpt lat="45.12526" lon="5.34044">
        <ele>206.1</ele>
        <time>2022-10-15T10:59:04.000Z</time>
      </trkpt>
      <trkpt lat="45.12527" lon="5.3405">
        <ele>206</ele>
        <time>2022-10-15T10:59:05.000Z</time>
      </trkpt>
      <trkpt lat="45.12528" lon="5.34055">
        <ele>206</ele>
        <time>2022-10-15T10:59:06.000Z</time>
      </trkpt>
      <trkpt lat="45.12529" lon="5.34061">
        <ele>206</ele>
        <time>2022-10-15T10:59:07.000Z</time>
      </trkpt>
      <trkpt lat="45.1253" lon="5.34066">
        <ele>205.9</ele>
        <time>2022-10-15T10:59:08.000Z</time>
      </trkpt>
      <trkpt lat="45.12531" lon="5.34072">
        <ele>205.9</ele>
        <time>2022-10-15T10:59:09.000Z</time>
      </trkpt>
      <trkpt lat="45.12531" lon="5.34078">
        <ele>205.9</ele>
        <time>2022-10-15T10:59:10.000Z</time>
      </trkpt>
      <trkpt lat="45.12532" lon="5.34083">
        <ele>205.8</ele>
        <time>2022-10-15T10:59:11.000Z</time>
      </trkpt>
      <trkpt lat="45.12533" lon="5.34089">
        <ele>205.8</ele>
        <time>2022-10-15T10:59:12.000Z</time>
      </trkpt>
      <trkpt lat="45.12534" lon="5.34096">
        <ele>205.7</ele>
        <time>2022-10-15T10:59:13.000Z</time>
      </trkpt>
      <trkpt lat="45.12536" lon="5.34102">
        <ele>205.5</ele>
        <time>2022-10-15T10:59:14.000Z</time>
      </trkpt>
      <trkpt lat="45.12537" lon="5.34108">
        <ele>205.4</ele>
        <time>2022-10-15T10:59:15.000Z</time>
      </trkpt>
      <trkpt lat="45.12538" lon="5.34114">
        <ele>205.2</ele>
        <time>2022-10-15T10:59:16.000Z</time>
      </trkpt>
      <trkpt lat="45.12539" lon="5.3412">
        <ele>205.1</ele>
        <time>2022-10-15T10:59:17.000Z</time>
      </trkpt>
      <trkpt lat="45.1254" lon="5.34126">
        <ele>205.1</ele>
        <time>2022-10-15T10:59:18.000Z</time>
      </trkpt>
      <trkpt lat="45.12541" lon="5.34131">
        <ele>205</ele>
        <time>2022-10-15T10:59:19.000Z</time>
      </trkpt>
      <trkpt lat="45.12541" lon="5.34137">
        <ele>205</ele>
        <time>2022-10-15T10:59:20.000Z</time>
      </trkpt>
      <trkpt lat="45.12542" lon="5.34143">
        <ele>204.9</ele>
        <time>2022-10-15T10:59:21.000Z</time>
      </trkpt>
      <trkpt lat="45.12543" lon="5.34148">
        <ele>204.8</ele>
        <time>2022-10-15T10:59:22.000Z</time>
      </trkpt>
      <trkpt lat="45.12544" lon="5.34154">
        <ele>204.7</ele>
        <time>2022-10-15T10:59:23.000Z</time>
      </trkpt>
      <trkpt lat="45.12545" lon="5.3416">
        <ele>204.5</ele>
        <time>2022-10-15T10:59:24.000Z</time>
      </trkpt>
      <trkpt lat="45.12546" lon="5.34166">
        <ele>204.4</ele>
        <time>2022-10-15T10:59:25.000Z</time>
      </trkpt>
      <trkpt lat="45.12547" lon="5.34172">
        <ele>204.5</ele>
        <time>2022-10-15T10:59:26.000Z</time>
      </trkpt>
      <trkpt lat="45.12548" lon="5.34179">
        <ele>204.7</ele>
        <time>2022-10-15T10:59:27.000Z</time>
      </trkpt>
      <trkpt lat="45.12549" lon="5.34185">
        <ele>204.9</ele>
        <time>2022-10-15T10:59:28.000Z</time>
      </trkpt>
      <trkpt lat="45.1255" lon="5.34192">
        <ele>205.1</ele>
        <time>2022-10-15T10:59:29.000Z</time>
      </trkpt>
      <trkpt lat="45.12551" lon="5.34198">
        <ele>205.2</ele>
        <time>2022-10-15T10:59:30.000Z</time>
      </trkpt>
      <trkpt lat="45.12552" lon="5.34204">
        <ele>205.1</ele>
        <time>2022-10-15T10:59:31.000Z</time>
      </trkpt>
      <trkpt lat="45.12553" lon="5.34211">
        <ele>205.1</ele>
        <time>2022-10-15T10:59:32.000Z</time>
      </trkpt>
      <trkpt lat="45.12554" lon="5.34217">
        <ele>205</ele>
        <time>2022-10-15T10:59:33.000Z</time>
      </trkpt>
      <trkpt lat="45.12555" lon="5.34223">
        <ele>205</ele>
        <time>2022-10-15T10:59:34.000Z</time>
      </trkpt>
      <trkpt lat="45.12556" lon="5.3423">
        <ele>204.9</ele>
        <time>2022-10-15T10:59:35.000Z</time>
      </trkpt>
      <trkpt lat="45.12557" lon="5.34237">
        <ele>204.8</ele>
        <time>2022-10-15T10:59:36.000Z</time>
      </trkpt>
      <trkpt lat="45.12558" lon="5.34243">
        <ele>204.7</ele>
        <time>2022-10-15T10:59:37.000Z</time>
      </trkpt>
      <trkpt lat="45.12559" lon="5.34249">
        <ele>204.8</ele>
        <time>2022-10-15T10:59:38.000Z</time>
      </trkpt>
      <trkpt lat="45.1256" lon="5.34255">
        <ele>204.9</ele>
        <time>2022-10-15T10:59:39.000Z</time>
      </trkpt>
      <trkpt lat="45.12561" lon="5.34261">
        <ele>205</ele>
        <time>2022-10-15T10:59:40.000Z</time>
      </trkpt>
      <trkpt lat="45.12562" lon="5.34267">
        <ele>205</ele>
        <time>2022-10-15T10:59:41.000Z</time>
      </trkpt>
      <trkpt lat="45.12563" lon="5.34274">
        <ele>204.9</ele>
        <time>2022-10-15T10:59:42.000Z</time>
      </trkpt>
      <trkpt lat="45.12564" lon="5.34279">
        <ele>204.8</ele>
        <time>2022-10-15T10:59:43.000Z</time>
      </trkpt>
      <trkpt lat="45.12565" lon="5.34284">
        <ele>205.1</ele>
        <time>2022-10-15T10:59:44.000Z</time>
      </trkpt>
      <trkpt lat="45.12566" lon="5.34289">
        <ele>205.2</ele>
        <time>2022-10-15T10:59:45.000Z</time>
      </trkpt>
      <trkpt lat="45.12566" lon="5.34293">
        <ele>205.5</ele>
        <time>2022-10-15T10:59:46.000Z</time>
      </trkpt>
      <trkpt lat="45.12566" lon="5.34297">
        <ele>205.7</ele>
        <time>2022-10-15T10:59:47.000Z</time>
      </trkpt>
      <trkpt lat="45.12568" lon="5.34302">
        <ele>205.9</ele>
        <time>2022-10-15T10:59:48.000Z</time>
      </trkpt>
      <trkpt lat="45.12568" lon="5.34306">
        <ele>206.1</ele>
        <time>2022-10-15T10:59:49.000Z</time>
      </trkpt>
      <trkpt lat="45.12569" lon="5.34311">
        <ele>206.1</ele>
        <time>2022-10-15T10:59:50.000Z</time>
      </trkpt>
      <trkpt lat="45.1257" lon="5.34317">
        <ele>206.2</ele>
        <time>2022-10-15T10:59:51.000Z</time>
      </trkpt>
      <trkpt lat="45.12571" lon="5.34322">
        <ele>206.2</ele>
        <time>2022-10-15T10:59:52.000Z</time>
      </trkpt>
      <trkpt lat="45.12572" lon="5.34328">
        <ele>206.2</ele>
        <time>2022-10-15T10:59:53.000Z</time>
      </trkpt>
      <trkpt lat="45.12573" lon="5.34334">
        <ele>206.2</ele>
        <time>2022-10-15T10:59:54.000Z</time>
      </trkpt>
      <trkpt lat="45.12574" lon="5.3434">
        <ele>206.3</ele>
        <time>2022-10-15T10:59:55.000Z</time>
      </trkpt>
      <trkpt lat="45.12575" lon="5.34345">
        <ele>206.4</ele>
        <time>2022-10-15T10:59:56.000Z</time>
      </trkpt>
      <trkpt lat="45.12575" lon="5.34351">
        <ele>206.5</ele>
        <time>2022-10-15T10:59:57.000Z</time>
      </trkpt>
      <trkpt lat="45.12576" lon="5.34357">
        <ele>206.6</ele>
        <time>2022-10-15T10:59:58.000Z</time>
      </trkpt>
      <trkpt lat="45.12577" lon="5.34363">
        <ele>206.7</ele>
        <time>2022-10-15T10:59:59.000Z</time>
      </trkpt>
      <trkpt lat="45.12578" lon="5.34369">
        <ele>206.9</ele>
        <time>2022-10-15T11:00:00.000Z</time>
      </trkpt>
      <trkpt lat="45.12579" lon="5.34375">
        <ele>207</ele>
        <time>2022-10-15T11:00:01.000Z</time>
      </trkpt>
      <trkpt lat="45.1258" lon="5.34381">
        <ele>207.1</ele>
        <time>2022-10-15T11:00:02.000Z</time>
      </trkpt>
      <trkpt lat="45.1258" lon="5.34387">
        <ele>207.2</ele>
        <time>2022-10-15T11:00:03.000Z</time>
      </trkpt>
      <trkpt lat="45.12581" lon="5.34393">
        <ele>207.3</ele>
        <time>2022-10-15T11:00:04.000Z</time>
      </trkpt>
      <trkpt lat="45.12582" lon="5.34398">
        <ele>207.2</ele>
        <time>2022-10-15T11:00:05.000Z</time>
      </trkpt>
      <trkpt lat="45.12582" lon="5.34404">
        <ele>207.1</ele>
        <time>2022-10-15T11:00:06.000Z</time>
      </trkpt>
      <trkpt lat="45.12583" lon="5.3441">
        <ele>207</ele>
        <time>2022-10-15T11:00:07.000Z</time>
      </trkpt>
      <trkpt lat="45.12584" lon="5.34416">
        <ele>206.9</ele>
        <time>2022-10-15T11:00:08.000Z</time>
      </trkpt>
      <trkpt lat="45.12585" lon="5.34421">
        <ele>207.2</ele>
        <time>2022-10-15T11:00:09.000Z</time>
      </trkpt>
      <trkpt lat="45.12586" lon="5.34427">
        <ele>207.5</ele>
        <time>2022-10-15T11:00:10.000Z</time>
      </trkpt>
      <trkpt lat="45.12587" lon="5.34433">
        <ele>207.7</ele>
        <time>2022-10-15T11:00:11.000Z</time>
      </trkpt>
      <trkpt lat="45.12588" lon="5.34438">
        <ele>208</ele>
        <time>2022-10-15T11:00:12.000Z</time>
      </trkpt>
      <trkpt lat="45.12589" lon="5.34444">
        <ele>208.2</ele>
        <time>2022-10-15T11:00:13.000Z</time>
      </trkpt>
      <trkpt lat="45.12589" lon="5.3445">
        <ele>208.1</ele>
        <time>2022-10-15T11:00:14.000Z</time>
      </trkpt>
      <trkpt lat="45.1259" lon="5.34455">
        <ele>208</ele>
        <time>2022-10-15T11:00:15.000Z</time>
      </trkpt>
      <trkpt lat="45.12591" lon="5.34461">
        <ele>207.9</ele>
        <time>2022-10-15T11:00:16.000Z</time>
      </trkpt>
      <trkpt lat="45.12592" lon="5.34467">
        <ele>207.8</ele>
        <time>2022-10-15T11:00:17.000Z</time>
      </trkpt>
      <trkpt lat="45.12592" lon="5.34472">
        <ele>207.7</ele>
        <time>2022-10-15T11:00:18.000Z</time>
      </trkpt>
      <trkpt lat="45.12593" lon="5.34477">
        <ele>208</ele>
        <time>2022-10-15T11:00:19.000Z</time>
      </trkpt>
      <trkpt lat="45.12593" lon="5.34483">
        <ele>208.3</ele>
        <time>2022-10-15T11:00:20.000Z</time>
      </trkpt>
      <trkpt lat="45.12594" lon="5.34489">
        <ele>208.6</ele>
        <time>2022-10-15T11:00:21.000Z</time>
      </trkpt>
      <trkpt lat="45.12596" lon="5.34494">
        <ele>208.8</ele>
        <time>2022-10-15T11:00:22.000Z</time>
      </trkpt>
      <trkpt lat="45.12597" lon="5.345">
        <ele>209.1</ele>
        <time>2022-10-15T11:00:23.000Z</time>
      </trkpt>
      <trkpt lat="45.12598" lon="5.34506">
        <ele>209.4</ele>
        <time>2022-10-15T11:00:24.000Z</time>
      </trkpt>
      <trkpt lat="45.12598" lon="5.34511">
        <ele>209.7</ele>
        <time>2022-10-15T11:00:25.000Z</time>
      </trkpt>
      <trkpt lat="45.12599" lon="5.34517">
        <ele>209.8</ele>
        <time>2022-10-15T11:00:26.000Z</time>
      </trkpt>
      <trkpt lat="45.126" lon="5.34523">
        <ele>210</ele>
        <time>2022-10-15T11:00:27.000Z</time>
      </trkpt>
      <trkpt lat="45.12601" lon="5.34529">
        <ele>210.2</ele>
        <time>2022-10-15T11:00:28.000Z</time>
      </trkpt>
      <trkpt lat="45.12602" lon="5.34535">
        <ele>210.2</ele>
        <time>2022-10-15T11:00:29.000Z</time>
      </trkpt>
      <trkpt lat="45.12603" lon="5.3454">
        <ele>210.2</ele>
        <time>2022-10-15T11:00:30.000Z</time>
      </trkpt>
      <trkpt lat="45.12604" lon="5.34547">
        <ele>210.2</ele>
        <time>2022-10-15T11:00:31.000Z</time>
      </trkpt>
      <trkpt lat="45.12605" lon="5.34553">
        <ele>210.2</ele>
        <time>2022-10-15T11:00:32.000Z</time>
      </trkpt>
      <trkpt lat="45.12606" lon="5.34559">
        <ele>210.2</ele>
        <time>2022-10-15T11:00:33.000Z</time>
      </trkpt>
      <trkpt lat="45.12607" lon="5.34565">
        <ele>210.1</ele>
        <time>2022-10-15T11:00:34.000Z</time>
      </trkpt>
      <trkpt lat="45.12608" lon="5.34571">
        <ele>209.9</ele>
        <time>2022-10-15T11:00:35.000Z</time>
      </trkpt>
      <trkpt lat="45.12608" lon="5.34577">
        <ele>209.9</ele>
        <time>2022-10-15T11:00:36.000Z</time>
      </trkpt>
      <trkpt lat="45.12609" lon="5.34582">
        <ele>209.6</ele>
        <time>2022-10-15T11:00:37.000Z</time>
      </trkpt>
      <trkpt lat="45.1261" lon="5.34588">
        <ele>209.9</ele>
        <time>2022-10-15T11:00:38.000Z</time>
      </trkpt>
      <trkpt lat="45.12611" lon="5.34595">
        <ele>210.2</ele>
        <time>2022-10-15T11:00:39.000Z</time>
      </trkpt>
      <trkpt lat="45.12612" lon="5.34601">
        <ele>210.8</ele>
        <time>2022-10-15T11:00:40.000Z</time>
      </trkpt>
      <trkpt lat="45.12613" lon="5.34607">
        <ele>211.2</ele>
        <time>2022-10-15T11:00:41.000Z</time>
      </trkpt>
      <trkpt lat="45.12614" lon="5.34613">
        <ele>211.5</ele>
        <time>2022-10-15T11:00:42.000Z</time>
      </trkpt>
      <trkpt lat="45.12615" lon="5.34619">
        <ele>211.4</ele>
        <time>2022-10-15T11:00:43.000Z</time>
      </trkpt>
      <trkpt lat="45.12616" lon="5.34625">
        <ele>211.1</ele>
        <time>2022-10-15T11:00:44.000Z</time>
      </trkpt>
      <trkpt lat="45.12617" lon="5.34631">
        <ele>210.9</ele>
        <time>2022-10-15T11:00:45.000Z</time>
      </trkpt>
      <trkpt lat="45.12618" lon="5.34637">
        <ele>210.7</ele>
        <time>2022-10-15T11:00:46.000Z</time>
      </trkpt>
      <trkpt lat="45.12619" lon="5.34643">
        <ele>210.8</ele>
        <time>2022-10-15T11:00:47.000Z</time>
      </trkpt>
      <trkpt lat="45.1262" lon="5.34649">
        <ele>210.9</ele>
        <time>2022-10-15T11:00:48.000Z</time>
      </trkpt>
      <trkpt lat="45.12621" lon="5.34655">
        <ele>211.1</ele>
        <time>2022-10-15T11:00:49.000Z</time>
      </trkpt>
      <trkpt lat="45.12622" lon="5.34662">
        <ele>211.3</ele>
        <time>2022-10-15T11:00:50.000Z</time>
      </trkpt>
      <trkpt lat="45.12623" lon="5.34668">
        <ele>211.5</ele>
        <time>2022-10-15T11:00:51.000Z</time>
      </trkpt>
      <trkpt lat="45.12624" lon="5.34674">
        <ele>211.6</ele>
        <time>2022-10-15T11:00:52.000Z</time>
      </trkpt>
      <trkpt lat="45.12625" lon="5.34681">
        <ele>211.6</ele>
        <time>2022-10-15T11:00:53.000Z</time>
      </trkpt>
      <trkpt lat="45.12626" lon="5.34687">
        <ele>211.6</ele>
        <time>2022-10-15T11:00:54.000Z</time>
      </trkpt>
      <trkpt lat="45.12627" lon="5.34693">
        <ele>211.6</ele>
        <time>2022-10-15T11:00:55.000Z</time>
      </trkpt>
      <trkpt lat="45.12628" lon="5.347">
        <ele>211.8</ele>
        <time>2022-10-15T11:00:56.000Z</time>
      </trkpt>
      <trkpt lat="45.12628" lon="5.34707">
        <ele>212.1</ele>
        <time>2022-10-15T11:00:57.000Z</time>
      </trkpt>
      <trkpt lat="45.12629" lon="5.34713">
        <ele>212.2</ele>
        <time>2022-10-15T11:00:58.000Z</time>
      </trkpt>
      <trkpt lat="45.1263" lon="5.3472">
        <ele>212.3</ele>
        <time>2022-10-15T11:00:59.000Z</time>
      </trkpt>
      <trkpt lat="45.12631" lon="5.34726">
        <ele>212.3</ele>
        <time>2022-10-15T11:01:00.000Z</time>
      </trkpt>
      <trkpt lat="45.12632" lon="5.34733">
        <ele>212.3</ele>
        <time>2022-10-15T11:01:01.000Z</time>
      </trkpt>
      <trkpt lat="45.12634" lon="5.3474">
        <ele>212.1</ele>
        <time>2022-10-15T11:01:02.000Z</time>
      </trkpt>
      <trkpt lat="45.12635" lon="5.34746">
        <ele>212</ele>
        <time>2022-10-15T11:01:03.000Z</time>
      </trkpt>
      <trkpt lat="45.12636" lon="5.34752">
        <ele>211.8</ele>
        <time>2022-10-15T11:01:04.000Z</time>
      </trkpt>
      <trkpt lat="45.12637" lon="5.34759">
        <ele>211.5</ele>
        <time>2022-10-15T11:01:05.000Z</time>
      </trkpt>
      <trkpt lat="45.12638" lon="5.34765">
        <ele>211.3</ele>
        <time>2022-10-15T11:01:06.000Z</time>
      </trkpt>
      <trkpt lat="45.12639" lon="5.34771">
        <ele>211</ele>
        <time>2022-10-15T11:01:07.000Z</time>
      </trkpt>
      <trkpt lat="45.1264" lon="5.34777">
        <ele>210.8</ele>
        <time>2022-10-15T11:01:08.000Z</time>
      </trkpt>
      <trkpt lat="45.12642" lon="5.34783">
        <ele>210.8</ele>
        <time>2022-10-15T11:01:09.000Z</time>
      </trkpt>
      <trkpt lat="45.12644" lon="5.34788">
        <ele>210.9</ele>
        <time>2022-10-15T11:01:10.000Z</time>
      </trkpt>
      <trkpt lat="45.12645" lon="5.34794">
        <ele>210.9</ele>
        <time>2022-10-15T11:01:11.000Z</time>
      </trkpt>
      <trkpt lat="45.12647" lon="5.348">
        <ele>210.9</ele>
        <time>2022-10-15T11:01:12.000Z</time>
      </trkpt>
      <trkpt lat="45.12649" lon="5.34806">
        <ele>211</ele>
        <time>2022-10-15T11:01:13.000Z</time>
      </trkpt>
      <trkpt lat="45.1265" lon="5.34812">
        <ele>211.3</ele>
        <time>2022-10-15T11:01:14.000Z</time>
      </trkpt>
      <trkpt lat="45.12652" lon="5.34818">
        <ele>211.5</ele>
        <time>2022-10-15T11:01:15.000Z</time>
      </trkpt>
      <trkpt lat="45.12654" lon="5.34824">
        <ele>211.8</ele>
        <time>2022-10-15T11:01:16.000Z</time>
      </trkpt>
      <trkpt lat="45.12656" lon="5.3483">
        <ele>212</ele>
        <time>2022-10-15T11:01:17.000Z</time>
      </trkpt>
      <trkpt lat="45.12658" lon="5.34836">
        <ele>212.3</ele>
        <time>2022-10-15T11:01:18.000Z</time>
      </trkpt>
      <trkpt lat="45.1266" lon="5.34842">
        <ele>212.6</ele>
        <time>2022-10-15T11:01:19.000Z</time>
      </trkpt>
      <trkpt lat="45.12662" lon="5.34848">
        <ele>212.8</ele>
        <time>2022-10-15T11:01:20.000Z</time>
      </trkpt>
      <trkpt lat="45.12664" lon="5.34854">
        <ele>212.9</ele>
        <time>2022-10-15T11:01:21.000Z</time>
      </trkpt>
      <trkpt lat="45.12667" lon="5.3486">
        <ele>212.9</ele>
        <time>2022-10-15T11:01:22.000Z</time>
      </trkpt>
      <trkpt lat="45.12669" lon="5.34866">
        <ele>213.3</ele>
        <time>2022-10-15T11:01:23.000Z</time>
      </trkpt>
      <trkpt lat="45.12671" lon="5.34872">
        <ele>213.8</ele>
        <time>2022-10-15T11:01:24.000Z</time>
      </trkpt>
      <trkpt lat="45.12673" lon="5.34877">
        <ele>214.1</ele>
        <time>2022-10-15T11:01:25.000Z</time>
      </trkpt>
      <trkpt lat="45.12676" lon="5.34882">
        <ele>214.3</ele>
        <time>2022-10-15T11:01:26.000Z</time>
      </trkpt>
      <trkpt lat="45.12678" lon="5.34888">
        <ele>214.5</ele>
        <time>2022-10-15T11:01:27.000Z</time>
      </trkpt>
      <trkpt lat="45.1268" lon="5.34893">
        <ele>214.7</ele>
        <time>2022-10-15T11:01:28.000Z</time>
      </trkpt>
      <trkpt lat="45.12683" lon="5.34899">
        <ele>214.8</ele>
        <time>2022-10-15T11:01:29.000Z</time>
      </trkpt>
      <trkpt lat="45.12685" lon="5.34905">
        <ele>214.9</ele>
        <time>2022-10-15T11:01:30.000Z</time>
      </trkpt>
      <trkpt lat="45.12688" lon="5.3491">
        <ele>214.8</ele>
        <time>2022-10-15T11:01:31.000Z</time>
      </trkpt>
      <trkpt lat="45.12691" lon="5.34916">
        <ele>214.8</ele>
        <time>2022-10-15T11:01:32.000Z</time>
      </trkpt>
      <trkpt lat="45.12694" lon="5.34922">
        <ele>214.4</ele>
        <time>2022-10-15T11:01:33.000Z</time>
      </trkpt>
      <trkpt lat="45.12696" lon="5.34927">
        <ele>214.2</ele>
        <time>2022-10-15T11:01:34.000Z</time>
      </trkpt>
      <trkpt lat="45.12699" lon="5.34933">
        <ele>214.1</ele>
        <time>2022-10-15T11:01:35.000Z</time>
      </trkpt>
      <trkpt lat="45.12702" lon="5.34939">
        <ele>214</ele>
        <time>2022-10-15T11:01:36.000Z</time>
      </trkpt>
      <trkpt lat="45.12705" lon="5.34945">
        <ele>213.9</ele>
        <time>2022-10-15T11:01:37.000Z</time>
      </trkpt>
      <trkpt lat="45.12707" lon="5.34951">
        <ele>213.9</ele>
        <time>2022-10-15T11:01:38.000Z</time>
      </trkpt>
      <trkpt lat="45.1271" lon="5.34957">
        <ele>213.7</ele>
        <time>2022-10-15T11:01:39.000Z</time>
      </trkpt>
      <trkpt lat="45.12713" lon="5.34963">
        <ele>213.7</ele>
        <time>2022-10-15T11:01:40.000Z</time>
      </trkpt>
      <trkpt lat="45.12716" lon="5.34969">
        <ele>213.6</ele>
        <time>2022-10-15T11:01:41.000Z</time>
      </trkpt>
      <trkpt lat="45.12718" lon="5.34974">
        <ele>213.6</ele>
        <time>2022-10-15T11:01:42.000Z</time>
      </trkpt>
      <trkpt lat="45.12721" lon="5.34981">
        <ele>214</ele>
        <time>2022-10-15T11:01:43.000Z</time>
      </trkpt>
      <trkpt lat="45.12724" lon="5.34987">
        <ele>214.4</ele>
        <time>2022-10-15T11:01:44.000Z</time>
      </trkpt>
      <trkpt lat="45.12727" lon="5.34993">
        <ele>214.7</ele>
        <time>2022-10-15T11:01:45.000Z</time>
      </trkpt>
      <trkpt lat="45.12729" lon="5.34999">
        <ele>214.9</ele>
        <time>2022-10-15T11:01:46.000Z</time>
      </trkpt>
      <trkpt lat="45.12732" lon="5.35005">
        <ele>214.9</ele>
        <time>2022-10-15T11:01:47.000Z</time>
      </trkpt>
      <trkpt lat="45.12735" lon="5.35011">
        <ele>214.9</ele>
        <time>2022-10-15T11:01:48.000Z</time>
      </trkpt>
      <trkpt lat="45.12737" lon="5.35018">
        <ele>214.8</ele>
        <time>2022-10-15T11:01:49.000Z</time>
      </trkpt>
      <trkpt lat="45.1274" lon="5.35024">
        <ele>214.6</ele>
        <time>2022-10-15T11:01:50.000Z</time>
      </trkpt>
      <trkpt lat="45.12743" lon="5.3503">
        <ele>214.4</ele>
        <time>2022-10-15T11:01:51.000Z</time>
      </trkpt>
      <trkpt lat="45.12746" lon="5.35037">
        <ele>214.3</ele>
        <time>2022-10-15T11:01:52.000Z</time>
      </trkpt>
      <trkpt lat="45.12749" lon="5.35042">
        <ele>214.2</ele>
        <time>2022-10-15T11:01:53.000Z</time>
      </trkpt>
      <trkpt lat="45.12751" lon="5.35048">
        <ele>214.2</ele>
        <time>2022-10-15T11:01:54.000Z</time>
      </trkpt>
      <trkpt lat="45.12754" lon="5.35054">
        <ele>214.2</ele>
        <time>2022-10-15T11:01:55.000Z</time>
      </trkpt>
      <trkpt lat="45.12756" lon="5.35059">
        <ele>214.2</ele>
        <time>2022-10-15T11:01:56.000Z</time>
      </trkpt>
      <trkpt lat="45.12758" lon="5.35065">
        <ele>214.1</ele>
        <time>2022-10-15T11:01:57.000Z</time>
      </trkpt>
      <trkpt lat="45.12761" lon="5.35071">
        <ele>214</ele>
        <time>2022-10-15T11:01:58.000Z</time>
      </trkpt>
      <trkpt lat="45.12763" lon="5.35077">
        <ele>214.1</ele>
        <time>2022-10-15T11:01:59.000Z</time>
      </trkpt>
      <trkpt lat="45.12766" lon="5.35083">
        <ele>214.3</ele>
        <time>2022-10-15T11:02:00.000Z</time>
      </trkpt>
      <trkpt lat="45.12769" lon="5.35089">
        <ele>214.3</ele>
        <time>2022-10-15T11:02:01.000Z</time>
      </trkpt>
      <trkpt lat="45.12771" lon="5.35095">
        <ele>214.2</ele>
        <time>2022-10-15T11:02:02.000Z</time>
      </trkpt>
      <trkpt lat="45.12774" lon="5.35102">
        <ele>214.2</ele>
        <time>2022-10-15T11:02:03.000Z</time>
      </trkpt>
      <trkpt lat="45.12776" lon="5.35108">
        <ele>214.1</ele>
        <time>2022-10-15T11:02:04.000Z</time>
      </trkpt>
      <trkpt lat="45.12779" lon="5.35114">
        <ele>213.9</ele>
        <time>2022-10-15T11:02:05.000Z</time>
      </trkpt>
      <trkpt lat="45.12781" lon="5.35119">
        <ele>213.8</ele>
        <time>2022-10-15T11:02:06.000Z</time>
      </trkpt>
      <trkpt lat="45.12783" lon="5.35125">
        <ele>213.7</ele>
        <time>2022-10-15T11:02:07.000Z</time>
      </trkpt>
      <trkpt lat="45.12785" lon="5.35131">
        <ele>213.7</ele>
        <time>2022-10-15T11:02:08.000Z</time>
      </trkpt>
      <trkpt lat="45.12787" lon="5.35136">
        <ele>213.8</ele>
        <time>2022-10-15T11:02:09.000Z</time>
      </trkpt>
      <trkpt lat="45.1279" lon="5.35142">
        <ele>214.1</ele>
        <time>2022-10-15T11:02:10.000Z</time>
      </trkpt>
      <trkpt lat="45.12792" lon="5.35147">
        <ele>214.5</ele>
        <time>2022-10-15T11:02:11.000Z</time>
      </trkpt>
      <trkpt lat="45.12794" lon="5.35152">
        <ele>214.8</ele>
        <time>2022-10-15T11:02:12.000Z</time>
      </trkpt>
      <trkpt lat="45.12796" lon="5.35157">
        <ele>215</ele>
        <time>2022-10-15T11:02:13.000Z</time>
      </trkpt>
      <trkpt lat="45.12799" lon="5.35163">
        <ele>215.1</ele>
        <time>2022-10-15T11:02:14.000Z</time>
      </trkpt>
      <trkpt lat="45.12801" lon="5.35168">
        <ele>215.1</ele>
        <time>2022-10-15T11:02:15.000Z</time>
      </trkpt>
      <trkpt lat="45.12803" lon="5.35173">
        <ele>215.2</ele>
        <time>2022-10-15T11:02:16.000Z</time>
      </trkpt>
      <trkpt lat="45.12805" lon="5.35178">
        <ele>215.3</ele>
        <time>2022-10-15T11:02:17.000Z</time>
      </trkpt>
      <trkpt lat="45.12807" lon="5.35183">
        <ele>215.4</ele>
        <time>2022-10-15T11:02:18.000Z</time>
      </trkpt>
      <trkpt lat="45.12809" lon="5.35187">
        <ele>215.5</ele>
        <time>2022-10-15T11:02:19.000Z</time>
      </trkpt>
      <trkpt lat="45.12811" lon="5.35192">
        <ele>215.7</ele>
        <time>2022-10-15T11:02:20.000Z</time>
      </trkpt>
      <trkpt lat="45.12814" lon="5.35197">
        <ele>215.7</ele>
        <time>2022-10-15T11:02:21.000Z</time>
      </trkpt>
      <trkpt lat="45.12816" lon="5.35203">
        <ele>215.7</ele>
        <time>2022-10-15T11:02:22.000Z</time>
      </trkpt>
      <trkpt lat="45.12817" lon="5.35208">
        <ele>215.8</ele>
        <time>2022-10-15T11:02:23.000Z</time>
      </trkpt>
      <trkpt lat="45.12818" lon="5.35214">
        <ele>215.8</ele>
        <time>2022-10-15T11:02:24.000Z</time>
      </trkpt>
      <trkpt lat="45.12819" lon="5.35219">
        <ele>215.8</ele>
        <time>2022-10-15T11:02:25.000Z</time>
      </trkpt>
      <trkpt lat="45.12821" lon="5.35224">
        <ele>215.7</ele>
        <time>2022-10-15T11:02:26.000Z</time>
      </trkpt>
      <trkpt lat="45.12824" lon="5.35229">
        <ele>215.8</ele>
        <time>2022-10-15T11:02:27.000Z</time>
      </trkpt>
      <trkpt lat="45.12826" lon="5.35234">
        <ele>215.7</ele>
        <time>2022-10-15T11:02:28.000Z</time>
      </trkpt>
      <trkpt lat="45.12829" lon="5.35239">
        <ele>215.7</ele>
        <time>2022-10-15T11:02:29.000Z</time>
      </trkpt>
      <trkpt lat="45.12831" lon="5.35245">
        <ele>215.9</ele>
        <time>2022-10-15T11:02:30.000Z</time>
      </trkpt>
      <trkpt lat="45.12833" lon="5.3525">
        <ele>216</ele>
        <time>2022-10-15T11:02:31.000Z</time>
      </trkpt>
      <trkpt lat="45.12835" lon="5.35255">
        <ele>216</ele>
        <time>2022-10-15T11:02:32.000Z</time>
      </trkpt>
      <trkpt lat="45.12837" lon="5.35261">
        <ele>216.2</ele>
        <time>2022-10-15T11:02:33.000Z</time>
      </trkpt>
      <trkpt lat="45.12838" lon="5.35267">
        <ele>216.3</ele>
        <time>2022-10-15T11:02:34.000Z</time>
      </trkpt>
      <trkpt lat="45.12842" lon="5.35272">
        <ele>216.1</ele>
        <time>2022-10-15T11:02:35.000Z</time>
      </trkpt>
      <trkpt lat="45.12845" lon="5.35278">
        <ele>215.9</ele>
        <time>2022-10-15T11:02:36.000Z</time>
      </trkpt>
      <trkpt lat="45.12848" lon="5.35282">
        <ele>215.6</ele>
        <time>2022-10-15T11:02:37.000Z</time>
      </trkpt>
      <trkpt lat="45.12851" lon="5.35287">
        <ele>215.4</ele>
        <time>2022-10-15T11:02:38.000Z</time>
      </trkpt>
      <trkpt lat="45.12853" lon="5.35291">
        <ele>215.3</ele>
        <time>2022-10-15T11:02:39.000Z</time>
      </trkpt>
      <trkpt lat="45.12856" lon="5.35296">
        <ele>215.1</ele>
        <time>2022-10-15T11:02:40.000Z</time>
      </trkpt>
      <trkpt lat="45.12859" lon="5.353">
        <ele>214.9</ele>
        <time>2022-10-15T11:02:41.000Z</time>
      </trkpt>
      <trkpt lat="45.12862" lon="5.35304">
        <ele>214.8</ele>
        <time>2022-10-15T11:02:42.000Z</time>
      </trkpt>
      <trkpt lat="45.12865" lon="5.35308">
        <ele>214.7</ele>
        <time>2022-10-15T11:02:43.000Z</time>
      </trkpt>
      <trkpt lat="45.12868" lon="5.35312">
        <ele>214.6</ele>
        <time>2022-10-15T11:02:44.000Z</time>
      </trkpt>
      <trkpt lat="45.12872" lon="5.35317">
        <ele>214.4</ele>
        <time>2022-10-15T11:02:45.000Z</time>
      </trkpt>
      <trkpt lat="45.12876" lon="5.35321">
        <ele>214.3</ele>
        <time>2022-10-15T11:02:46.000Z</time>
      </trkpt>
      <trkpt lat="45.12879" lon="5.35326">
        <ele>214.4</ele>
        <time>2022-10-15T11:02:47.000Z</time>
      </trkpt>
      <trkpt lat="45.12882" lon="5.35331">
        <ele>214.5</ele>
        <time>2022-10-15T11:02:48.000Z</time>
      </trkpt>
      <trkpt lat="45.12885" lon="5.35335">
        <ele>214.6</ele>
        <time>2022-10-15T11:02:49.000Z</time>
      </trkpt>
      <trkpt lat="45.12888" lon="5.3534">
        <ele>214.7</ele>
        <time>2022-10-15T11:02:50.000Z</time>
      </trkpt>
      <trkpt lat="45.12891" lon="5.35344">
        <ele>214.9</ele>
        <time>2022-10-15T11:02:51.000Z</time>
      </trkpt>
      <trkpt lat="45.12895" lon="5.35348">
        <ele>215</ele>
        <time>2022-10-15T11:02:52.000Z</time>
      </trkpt>
      <trkpt lat="45.12898" lon="5.35352">
        <ele>215.1</ele>
        <time>2022-10-15T11:02:53.000Z</time>
      </trkpt>
      <trkpt lat="45.12901" lon="5.35357">
        <ele>215.2</ele>
        <time>2022-10-15T11:02:54.000Z</time>
      </trkpt>
      <trkpt lat="45.12904" lon="5.35361">
        <ele>215.3</ele>
        <time>2022-10-15T11:02:55.000Z</time>
      </trkpt>
      <trkpt lat="45.12908" lon="5.35366">
        <ele>215.3</ele>
        <time>2022-10-15T11:02:56.000Z</time>
      </trkpt>
      <trkpt lat="45.12911" lon="5.3537">
        <ele>215.3</ele>
        <time>2022-10-15T11:02:57.000Z</time>
      </trkpt>
      <trkpt lat="45.12915" lon="5.35375">
        <ele>215.2</ele>
        <time>2022-10-15T11:02:58.000Z</time>
      </trkpt>
      <trkpt lat="45.12918" lon="5.3538">
        <ele>215.2</ele>
        <time>2022-10-15T11:02:59.000Z</time>
      </trkpt>
      <trkpt lat="45.12921" lon="5.35384">
        <ele>215.1</ele>
        <time>2022-10-15T11:03:00.000Z</time>
      </trkpt>
      <trkpt lat="45.12925" lon="5.35389">
        <ele>215.1</ele>
        <time>2022-10-15T11:03:01.000Z</time>
      </trkpt>
      <trkpt lat="45.12928" lon="5.35394">
        <ele>215.2</ele>
        <time>2022-10-15T11:03:02.000Z</time>
      </trkpt>
      <trkpt lat="45.12931" lon="5.35398">
        <ele>215.1</ele>
        <time>2022-10-15T11:03:03.000Z</time>
      </trkpt>
      <trkpt lat="45.12934" lon="5.35402">
        <ele>214.9</ele>
        <time>2022-10-15T11:03:04.000Z</time>
      </trkpt>
      <trkpt lat="45.12937" lon="5.35407">
        <ele>214.8</ele>
        <time>2022-10-15T11:03:05.000Z</time>
      </trkpt>
      <trkpt lat="45.12941" lon="5.35412">
        <ele>214.5</ele>
        <time>2022-10-15T11:03:06.000Z</time>
      </trkpt>
      <trkpt lat="45.12944" lon="5.35417">
        <ele>214.2</ele>
        <time>2022-10-15T11:03:07.000Z</time>
      </trkpt>
      <trkpt lat="45.12947" lon="5.35421">
        <ele>214.4</ele>
        <time>2022-10-15T11:03:08.000Z</time>
      </trkpt>
      <trkpt lat="45.12949" lon="5.35426">
        <ele>214.7</ele>
        <time>2022-10-15T11:03:09.000Z</time>
      </trkpt>
      <trkpt lat="45.12952" lon="5.35432">
        <ele>215</ele>
        <time>2022-10-15T11:03:10.000Z</time>
      </trkpt>
      <trkpt lat="45.12955" lon="5.35437">
        <ele>215.2</ele>
        <time>2022-10-15T11:03:11.000Z</time>
      </trkpt>
      <trkpt lat="45.12958" lon="5.35442">
        <ele>215.3</ele>
        <time>2022-10-15T11:03:12.000Z</time>
      </trkpt>
      <trkpt lat="45.12961" lon="5.35448">
        <ele>215.3</ele>
        <time>2022-10-15T11:03:13.000Z</time>
      </trkpt>
      <trkpt lat="45.12964" lon="5.35453">
        <ele>215.4</ele>
        <time>2022-10-15T11:03:14.000Z</time>
      </trkpt>
      <trkpt lat="45.12966" lon="5.35458">
        <ele>215.5</ele>
        <time>2022-10-15T11:03:15.000Z</time>
      </trkpt>
      <trkpt lat="45.12969" lon="5.35463">
        <ele>215.6</ele>
        <time>2022-10-15T11:03:16.000Z</time>
      </trkpt>
      <trkpt lat="45.12971" lon="5.35468">
        <ele>215.7</ele>
        <time>2022-10-15T11:03:17.000Z</time>
      </trkpt>
      <trkpt lat="45.12974" lon="5.35473">
        <ele>215.9</ele>
        <time>2022-10-15T11:03:18.000Z</time>
      </trkpt>
      <trkpt lat="45.12976" lon="5.35479">
        <ele>215.9</ele>
        <time>2022-10-15T11:03:19.000Z</time>
      </trkpt>
      <trkpt lat="45.12979" lon="5.35484">
        <ele>215.9</ele>
        <time>2022-10-15T11:03:20.000Z</time>
      </trkpt>
      <trkpt lat="45.12982" lon="5.35489">
        <ele>215.9</ele>
        <time>2022-10-15T11:03:21.000Z</time>
      </trkpt>
      <trkpt lat="45.12984" lon="5.35494">
        <ele>215.9</ele>
        <time>2022-10-15T11:03:22.000Z</time>
      </trkpt>
      <trkpt lat="45.12986" lon="5.35499">
        <ele>215.9</ele>
        <time>2022-10-15T11:03:23.000Z</time>
      </trkpt>
      <trkpt lat="45.12989" lon="5.35503">
        <ele>215.8</ele>
        <time>2022-10-15T11:03:24.000Z</time>
      </trkpt>
      <trkpt lat="45.12991" lon="5.35508">
        <ele>215.7</ele>
        <time>2022-10-15T11:03:25.000Z</time>
      </trkpt>
      <trkpt lat="45.12994" lon="5.35513">
        <ele>215.7</ele>
        <time>2022-10-15T11:03:26.000Z</time>
      </trkpt>
      <trkpt lat="45.12996" lon="5.35518">
        <ele>215.7</ele>
        <time>2022-10-15T11:03:27.000Z</time>
      </trkpt>
      <trkpt lat="45.12998" lon="5.35522">
        <ele>215.8</ele>
        <time>2022-10-15T11:03:28.000Z</time>
      </trkpt>
      <trkpt lat="45.13001" lon="5.35527">
        <ele>215.9</ele>
        <time>2022-10-15T11:03:29.000Z</time>
      </trkpt>
      <trkpt lat="45.13003" lon="5.35531">
        <ele>215.8</ele>
        <time>2022-10-15T11:03:30.000Z</time>
      </trkpt>
      <trkpt lat="45.13005" lon="5.35536">
        <ele>215.7</ele>
        <time>2022-10-15T11:03:31.000Z</time>
      </trkpt>
      <trkpt lat="45.13007" lon="5.3554">
        <ele>215.7</ele>
        <time>2022-10-15T11:03:32.000Z</time>
      </trkpt>
      <trkpt lat="45.13009" lon="5.35545">
        <ele>215.9</ele>
        <time>2022-10-15T11:03:33.000Z</time>
      </trkpt>
      <trkpt lat="45.13012" lon="5.35549">
        <ele>216.1</ele>
        <time>2022-10-15T11:03:34.000Z</time>
      </trkpt>
      <trkpt lat="45.13014" lon="5.35554">
        <ele>216.3</ele>
        <time>2022-10-15T11:03:35.000Z</time>
      </trkpt>
      <trkpt lat="45.13016" lon="5.35558">
        <ele>216.6</ele>
        <time>2022-10-15T11:03:36.000Z</time>
      </trkpt>
      <trkpt lat="45.13018" lon="5.35563">
        <ele>216.7</ele>
        <time>2022-10-15T11:03:37.000Z</time>
      </trkpt>
      <trkpt lat="45.1302" lon="5.35567">
        <ele>216.8</ele>
        <time>2022-10-15T11:03:38.000Z</time>
      </trkpt>
      <trkpt lat="45.13022" lon="5.35572">
        <ele>216.9</ele>
        <time>2022-10-15T11:03:39.000Z</time>
      </trkpt>
      <trkpt lat="45.13024" lon="5.35576">
        <ele>217</ele>
        <time>2022-10-15T11:03:40.000Z</time>
      </trkpt>
      <trkpt lat="45.13026" lon="5.35581">
        <ele>217</ele>
        <time>2022-10-15T11:03:41.000Z</time>
      </trkpt>
      <trkpt lat="45.13029" lon="5.35585">
        <ele>217.2</ele>
        <time>2022-10-15T11:03:42.000Z</time>
      </trkpt>
      <trkpt lat="45.13031" lon="5.3559">
        <ele>217.5</ele>
        <time>2022-10-15T11:03:43.000Z</time>
      </trkpt>
      <trkpt lat="45.13033" lon="5.35594">
        <ele>217.8</ele>
        <time>2022-10-15T11:03:44.000Z</time>
      </trkpt>
      <trkpt lat="45.13035" lon="5.35598">
        <ele>218.1</ele>
        <time>2022-10-15T11:03:45.000Z</time>
      </trkpt>
      <trkpt lat="45.13037" lon="5.35603">
        <ele>218.4</ele>
        <time>2022-10-15T11:03:46.000Z</time>
      </trkpt>
      <trkpt lat="45.1304" lon="5.35607">
        <ele>218.7</ele>
        <time>2022-10-15T11:03:47.000Z</time>
      </trkpt>
      <trkpt lat="45.13042" lon="5.35611">
        <ele>219</ele>
        <time>2022-10-15T11:03:48.000Z</time>
      </trkpt>
      <trkpt lat="45.13044" lon="5.35616">
        <ele>219.1</ele>
        <time>2022-10-15T11:03:49.000Z</time>
      </trkpt>
      <trkpt lat="45.13046" lon="5.3562">
        <ele>219.1</ele>
        <time>2022-10-15T11:03:50.000Z</time>
      </trkpt>
      <trkpt lat="45.13048" lon="5.35624">
        <ele>219.1</ele>
        <time>2022-10-15T11:03:51.000Z</time>
      </trkpt>
      <trkpt lat="45.1305" lon="5.35628">
        <ele>219.1</ele>
        <time>2022-10-15T11:03:52.000Z</time>
      </trkpt>
      <trkpt lat="45.13053" lon="5.35632">
        <ele>219</ele>
        <time>2022-10-15T11:03:53.000Z</time>
      </trkpt>
      <trkpt lat="45.13055" lon="5.35637">
        <ele>219</ele>
        <time>2022-10-15T11:03:54.000Z</time>
      </trkpt>
      <trkpt lat="45.13057" lon="5.35641">
        <ele>219.1</ele>
        <time>2022-10-15T11:03:55.000Z</time>
      </trkpt>
      <trkpt lat="45.13059" lon="5.35646">
        <ele>219.4</ele>
        <time>2022-10-15T11:03:56.000Z</time>
      </trkpt>
      <trkpt lat="45.13061" lon="5.3565">
        <ele>219.6</ele>
        <time>2022-10-15T11:03:57.000Z</time>
      </trkpt>
      <trkpt lat="45.13063" lon="5.35655">
        <ele>219.8</ele>
        <time>2022-10-15T11:03:58.000Z</time>
      </trkpt>
      <trkpt lat="45.13065" lon="5.3566">
        <ele>220</ele>
        <time>2022-10-15T11:03:59.000Z</time>
      </trkpt>
      <trkpt lat="45.13067" lon="5.35665">
        <ele>220.2</ele>
        <time>2022-10-15T11:04:00.000Z</time>
      </trkpt>
      <trkpt lat="45.13069" lon="5.35669">
        <ele>220.3</ele>
        <time>2022-10-15T11:04:01.000Z</time>
      </trkpt>
      <trkpt lat="45.13071" lon="5.35674">
        <ele>220.3</ele>
        <time>2022-10-15T11:04:02.000Z</time>
      </trkpt>
      <trkpt lat="45.13073" lon="5.35679">
        <ele>220.3</ele>
        <time>2022-10-15T11:04:03.000Z</time>
      </trkpt>
      <trkpt lat="45.13075" lon="5.35684">
        <ele>220.4</ele>
        <time>2022-10-15T11:04:04.000Z</time>
      </trkpt>
      <trkpt lat="45.13077" lon="5.35688">
        <ele>220.4</ele>
        <time>2022-10-15T11:04:05.000Z</time>
      </trkpt>
      <trkpt lat="45.13079" lon="5.35693">
        <ele>220.5</ele>
        <time>2022-10-15T11:04:06.000Z</time>
      </trkpt>
      <trkpt lat="45.13081" lon="5.35698">
        <ele>220.5</ele>
        <time>2022-10-15T11:04:07.000Z</time>
      </trkpt>
      <trkpt lat="45.13082" lon="5.35703">
        <ele>220.5</ele>
        <time>2022-10-15T11:04:08.000Z</time>
      </trkpt>
      <trkpt lat="45.13084" lon="5.35708">
        <ele>220.3</ele>
        <time>2022-10-15T11:04:09.000Z</time>
      </trkpt>
      <trkpt lat="45.13086" lon="5.35712">
        <ele>220.3</ele>
        <time>2022-10-15T11:04:10.000Z</time>
      </trkpt>
      <trkpt lat="45.13088" lon="5.35717">
        <ele>220.2</ele>
        <time>2022-10-15T11:04:11.000Z</time>
      </trkpt>
      <trkpt lat="45.1309" lon="5.35722">
        <ele>220.1</ele>
        <time>2022-10-15T11:04:12.000Z</time>
      </trkpt>
      <trkpt lat="45.13091" lon="5.35727">
        <ele>220.4</ele>
        <time>2022-10-15T11:04:13.000Z</time>
      </trkpt>
      <trkpt lat="45.13093" lon="5.35732">
        <ele>220.6</ele>
        <time>2022-10-15T11:04:14.000Z</time>
      </trkpt>
      <trkpt lat="45.13094" lon="5.35738">
        <ele>220.9</ele>
        <time>2022-10-15T11:04:15.000Z</time>
      </trkpt>
      <trkpt lat="45.13096" lon="5.35743">
        <ele>221</ele>
        <time>2022-10-15T11:04:16.000Z</time>
      </trkpt>
      <trkpt lat="45.13098" lon="5.35748">
        <ele>221.2</ele>
        <time>2022-10-15T11:04:17.000Z</time>
      </trkpt>
      <trkpt lat="45.131" lon="5.35753">
        <ele>221.3</ele>
        <time>2022-10-15T11:04:18.000Z</time>
      </trkpt>
      <trkpt lat="45.13102" lon="5.35758">
        <ele>221.3</ele>
        <time>2022-10-15T11:04:19.000Z</time>
      </trkpt>
      <trkpt lat="45.13103" lon="5.35764">
        <ele>221.4</ele>
        <time>2022-10-15T11:04:20.000Z</time>
      </trkpt>
      <trkpt lat="45.13105" lon="5.3577">
        <ele>221.5</ele>
        <time>2022-10-15T11:04:21.000Z</time>
      </trkpt>
      <trkpt lat="45.13107" lon="5.35775">
        <ele>221.6</ele>
        <time>2022-10-15T11:04:22.000Z</time>
      </trkpt>
      <trkpt lat="45.13108" lon="5.35781">
        <ele>221.6</ele>
        <time>2022-10-15T11:04:23.000Z</time>
      </trkpt>
      <trkpt lat="45.1311" lon="5.35786">
        <ele>221.5</ele>
        <time>2022-10-15T11:04:24.000Z</time>
      </trkpt>
      <trkpt lat="45.13112" lon="5.35791">
        <ele>221.4</ele>
        <time>2022-10-15T11:04:25.000Z</time>
      </trkpt>
      <trkpt lat="45.13114" lon="5.35797">
        <ele>221.3</ele>
        <time>2022-10-15T11:04:26.000Z</time>
      </trkpt>
      <trkpt lat="45.13115" lon="5.35802">
        <ele>221.3</ele>
        <time>2022-10-15T11:04:27.000Z</time>
      </trkpt>
      <trkpt lat="45.13117" lon="5.35807">
        <ele>221.3</ele>
        <time>2022-10-15T11:04:28.000Z</time>
      </trkpt>
      <trkpt lat="45.13118" lon="5.35812">
        <ele>221.6</ele>
        <time>2022-10-15T11:04:29.000Z</time>
      </trkpt>
      <trkpt lat="45.1312" lon="5.35817">
        <ele>221.8</ele>
        <time>2022-10-15T11:04:30.000Z</time>
      </trkpt>
      <trkpt lat="45.13121" lon="5.35823">
        <ele>221.9</ele>
        <time>2022-10-15T11:04:31.000Z</time>
      </trkpt>
      <trkpt lat="45.13123" lon="5.35828">
        <ele>222.1</ele>
        <time>2022-10-15T11:04:32.000Z</time>
      </trkpt>
      <trkpt lat="45.13124" lon="5.35833">
        <ele>222.2</ele>
        <time>2022-10-15T11:04:33.000Z</time>
      </trkpt>
      <trkpt lat="45.13126" lon="5.35838">
        <ele>222.3</ele>
        <time>2022-10-15T11:04:34.000Z</time>
      </trkpt>
      <trkpt lat="45.13127" lon="5.35843">
        <ele>222.5</ele>
        <time>2022-10-15T11:04:35.000Z</time>
      </trkpt>
      <trkpt lat="45.13129" lon="5.35849">
        <ele>222.6</ele>
        <time>2022-10-15T11:04:36.000Z</time>
      </trkpt>
      <trkpt lat="45.1313" lon="5.35854">
        <ele>222.9</ele>
        <time>2022-10-15T11:04:37.000Z</time>
      </trkpt>
      <trkpt lat="45.13132" lon="5.35859">
        <ele>223.1</ele>
        <time>2022-10-15T11:04:38.000Z</time>
      </trkpt>
      <trkpt lat="45.13133" lon="5.35864">
        <ele>223.2</ele>
        <time>2022-10-15T11:04:39.000Z</time>
      </trkpt>
      <trkpt lat="45.13135" lon="5.3587">
        <ele>223.4</ele>
        <time>2022-10-15T11:04:40.000Z</time>
      </trkpt>
      <trkpt lat="45.13136" lon="5.35875">
        <ele>223.5</ele>
        <time>2022-10-15T11:04:41.000Z</time>
      </trkpt>
      <trkpt lat="45.13138" lon="5.3588">
        <ele>223.5</ele>
        <time>2022-10-15T11:04:42.000Z</time>
      </trkpt>
      <trkpt lat="45.13139" lon="5.35885">
        <ele>223.6</ele>
        <time>2022-10-15T11:04:43.000Z</time>
      </trkpt>
      <trkpt lat="45.13141" lon="5.3589">
        <ele>223.6</ele>
        <time>2022-10-15T11:04:44.000Z</time>
      </trkpt>
      <trkpt lat="45.13143" lon="5.35895">
        <ele>223.7</ele>
        <time>2022-10-15T11:04:45.000Z</time>
      </trkpt>
      <trkpt lat="45.13144" lon="5.359">
        <ele>223.7</ele>
        <time>2022-10-15T11:04:46.000Z</time>
      </trkpt>
      <trkpt lat="45.13146" lon="5.35905">
        <ele>223.8</ele>
        <time>2022-10-15T11:04:47.000Z</time>
      </trkpt>
      <trkpt lat="45.13147" lon="5.35909">
        <ele>224</ele>
        <time>2022-10-15T11:04:48.000Z</time>
      </trkpt>
      <trkpt lat="45.13149" lon="5.35914">
        <ele>224</ele>
        <time>2022-10-15T11:04:49.000Z</time>
      </trkpt>
      <trkpt lat="45.1315" lon="5.35919">
        <ele>224.2</ele>
        <time>2022-10-15T11:04:50.000Z</time>
      </trkpt>
      <trkpt lat="45.13151" lon="5.35923">
        <ele>224.4</ele>
        <time>2022-10-15T11:04:51.000Z</time>
      </trkpt>
      <trkpt lat="45.13153" lon="5.35928">
        <ele>224.6</ele>
        <time>2022-10-15T11:04:52.000Z</time>
      </trkpt>
      <trkpt lat="45.13154" lon="5.35933">
        <ele>224.7</ele>
        <time>2022-10-15T11:04:53.000Z</time>
      </trkpt>
      <trkpt lat="45.13156" lon="5.35937">
        <ele>224.9</ele>
        <time>2022-10-15T11:04:54.000Z</time>
      </trkpt>
      <trkpt lat="45.13158" lon="5.35942">
        <ele>225</ele>
        <time>2022-10-15T11:04:55.000Z</time>
      </trkpt>
      <trkpt lat="45.13159" lon="5.35946">
        <ele>225.3</ele>
        <time>2022-10-15T11:04:56.000Z</time>
      </trkpt>
      <trkpt lat="45.13161" lon="5.3595">
        <ele>225.6</ele>
        <time>2022-10-15T11:04:57.000Z</time>
      </trkpt>
      <trkpt lat="45.13163" lon="5.35955">
        <ele>225.8</ele>
        <time>2022-10-15T11:04:58.000Z</time>
      </trkpt>
      <trkpt lat="45.13164" lon="5.35959">
        <ele>226</ele>
        <time>2022-10-15T11:04:59.000Z</time>
      </trkpt>
      <trkpt lat="45.13166" lon="5.35963">
        <ele>226.1</ele>
        <time>2022-10-15T11:05:00.000Z</time>
      </trkpt>
      <trkpt lat="45.13168" lon="5.35967">
        <ele>226</ele>
        <time>2022-10-15T11:05:01.000Z</time>
      </trkpt>
      <trkpt lat="45.1317" lon="5.35971">
        <ele>225.7</ele>
        <time>2022-10-15T11:05:02.000Z</time>
      </trkpt>
      <trkpt lat="45.13172" lon="5.35975">
        <ele>225</ele>
        <time>2022-10-15T11:05:03.000Z</time>
      </trkpt>
      <trkpt lat="45.13174" lon="5.35979">
        <ele>224.4</ele>
        <time>2022-10-15T11:05:04.000Z</time>
      </trkpt>
      <trkpt lat="45.13176" lon="5.35984">
        <ele>223.9</ele>
        <time>2022-10-15T11:05:05.000Z</time>
      </trkpt>
      <trkpt lat="45.13179" lon="5.35988">
        <ele>223.6</ele>
        <time>2022-10-15T11:05:06.000Z</time>
      </trkpt>
      <trkpt lat="45.13182" lon="5.35992">
        <ele>223.7</ele>
        <time>2022-10-15T11:05:07.000Z</time>
      </trkpt>
      <trkpt lat="45.13184" lon="5.35996">
        <ele>224.1</ele>
        <time>2022-10-15T11:05:08.000Z</time>
      </trkpt>
      <trkpt lat="45.13187" lon="5.36">
        <ele>224.7</ele>
        <time>2022-10-15T11:05:09.000Z</time>
      </trkpt>
      <trkpt lat="45.13191" lon="5.36004">
        <ele>226</ele>
        <time>2022-10-15T11:05:10.000Z</time>
      </trkpt>
      <trkpt lat="45.13194" lon="5.36008">
        <ele>227.2</ele>
        <time>2022-10-15T11:05:11.000Z</time>
      </trkpt>
      <trkpt lat="45.13197" lon="5.36012">
        <ele>228</ele>
        <time>2022-10-15T11:05:12.000Z</time>
      </trkpt>
      <trkpt lat="45.13201" lon="5.36015">
        <ele>228.3</ele>
        <time>2022-10-15T11:05:13.000Z</time>
      </trkpt>
      <trkpt lat="45.13204" lon="5.36019">
        <ele>228.5</ele>
        <time>2022-10-15T11:05:14.000Z</time>
      </trkpt>
      <trkpt lat="45.13208" lon="5.36023">
        <ele>228.3</ele>
        <time>2022-10-15T11:05:15.000Z</time>
      </trkpt>
      <trkpt lat="45.13213" lon="5.36027">
        <ele>227.7</ele>
        <time>2022-10-15T11:05:16.000Z</time>
      </trkpt>
      <trkpt lat="45.13217" lon="5.36031">
        <ele>227.2</ele>
        <time>2022-10-15T11:05:17.000Z</time>
      </trkpt>
      <trkpt lat="45.13222" lon="5.36034">
        <ele>226.8</ele>
        <time>2022-10-15T11:05:18.000Z</time>
      </trkpt>
      <trkpt lat="45.13226" lon="5.36038">
        <ele>227</ele>
        <time>2022-10-15T11:05:19.000Z</time>
      </trkpt>
      <trkpt lat="45.13231" lon="5.36041">
        <ele>227.1</ele>
        <time>2022-10-15T11:05:20.000Z</time>
      </trkpt>
      <trkpt lat="45.13236" lon="5.36045">
        <ele>227</ele>
        <time>2022-10-15T11:05:21.000Z</time>
      </trkpt>
      <trkpt lat="45.1324" lon="5.36048">
        <ele>226.6</ele>
        <time>2022-10-15T11:05:22.000Z</time>
      </trkpt>
      <trkpt lat="45.13245" lon="5.36052">
        <ele>226</ele>
        <time>2022-10-15T11:05:23.000Z</time>
      </trkpt>
      <trkpt lat="45.1325" lon="5.36055">
        <ele>225.1</ele>
        <time>2022-10-15T11:05:24.000Z</time>
      </trkpt>
      <trkpt lat="45.13254" lon="5.36059">
        <ele>225.3</ele>
        <time>2022-10-15T11:05:25.000Z</time>
      </trkpt>
      <trkpt lat="45.13259" lon="5.36063">
        <ele>225.4</ele>
        <time>2022-10-15T11:05:26.000Z</time>
      </trkpt>
      <trkpt lat="45.13264" lon="5.36066">
        <ele>225.3</ele>
        <time>2022-10-15T11:05:27.000Z</time>
      </trkpt>
      <trkpt lat="45.13269" lon="5.3607">
        <ele>225</ele>
        <time>2022-10-15T11:05:28.000Z</time>
      </trkpt>
      <trkpt lat="45.13274" lon="5.36073">
        <ele>224.5</ele>
        <time>2022-10-15T11:05:29.000Z</time>
      </trkpt>
      <trkpt lat="45.13279" lon="5.36077">
        <ele>224</ele>
        <time>2022-10-15T11:05:30.000Z</time>
      </trkpt>
      <trkpt lat="45.13284" lon="5.3608">
        <ele>224</ele>
        <time>2022-10-15T11:05:31.000Z</time>
      </trkpt>
      <trkpt lat="45.13289" lon="5.36084">
        <ele>224</ele>
        <time>2022-10-15T11:05:32.000Z</time>
      </trkpt>
      <trkpt lat="45.13294" lon="5.36088">
        <ele>224.3</ele>
        <time>2022-10-15T11:05:33.000Z</time>
      </trkpt>
      <trkpt lat="45.13298" lon="5.36091">
        <ele>224.5</ele>
        <time>2022-10-15T11:05:34.000Z</time>
      </trkpt>
      <trkpt lat="45.13303" lon="5.36095">
        <ele>224.5</ele>
        <time>2022-10-15T11:05:35.000Z</time>
      </trkpt>
      <trkpt lat="45.13307" lon="5.36098">
        <ele>224.5</ele>
        <time>2022-10-15T11:05:36.000Z</time>
      </trkpt>
      <trkpt lat="45.13312" lon="5.36101">
        <ele>224.5</ele>
        <time>2022-10-15T11:05:37.000Z</time>
      </trkpt>
      <trkpt lat="45.13316" lon="5.36105">
        <ele>224.5</ele>
        <time>2022-10-15T11:05:38.000Z</time>
      </trkpt>
      <trkpt lat="45.13321" lon="5.36108">
        <ele>224.4</ele>
        <time>2022-10-15T11:05:39.000Z</time>
      </trkpt>
      <trkpt lat="45.13326" lon="5.36112">
        <ele>224.3</ele>
        <time>2022-10-15T11:05:40.000Z</time>
      </trkpt>
      <trkpt lat="45.1333" lon="5.36115">
        <ele>224.5</ele>
        <time>2022-10-15T11:05:41.000Z</time>
      </trkpt>
      <trkpt lat="45.13335" lon="5.36118">
        <ele>224.8</ele>
        <time>2022-10-15T11:05:42.000Z</time>
      </trkpt>
      <trkpt lat="45.1334" lon="5.36121">
        <ele>225.1</ele>
        <time>2022-10-15T11:05:43.000Z</time>
      </trkpt>
      <trkpt lat="45.13344" lon="5.36124">
        <ele>225.3</ele>
        <time>2022-10-15T11:05:44.000Z</time>
      </trkpt>
      <trkpt lat="45.13348" lon="5.36127">
        <ele>225.3</ele>
        <time>2022-10-15T11:05:45.000Z</time>
      </trkpt>
      <trkpt lat="45.13352" lon="5.36131">
        <ele>225.4</ele>
        <time>2022-10-15T11:05:46.000Z</time>
      </trkpt>
      <trkpt lat="45.13357" lon="5.36134">
        <ele>225.2</ele>
        <time>2022-10-15T11:05:47.000Z</time>
      </trkpt>
      <trkpt lat="45.13361" lon="5.36137">
        <ele>225</ele>
        <time>2022-10-15T11:05:48.000Z</time>
      </trkpt>
      <trkpt lat="45.13365" lon="5.3614">
        <ele>225.1</ele>
        <time>2022-10-15T11:05:49.000Z</time>
      </trkpt>
      <trkpt lat="45.13369" lon="5.36144">
        <ele>225.2</ele>
        <time>2022-10-15T11:05:50.000Z</time>
      </trkpt>
      <trkpt lat="45.13373" lon="5.36147">
        <ele>225.3</ele>
        <time>2022-10-15T11:05:51.000Z</time>
      </trkpt>
      <trkpt lat="45.13377" lon="5.3615">
        <ele>225.3</ele>
        <time>2022-10-15T11:05:52.000Z</time>
      </trkpt>
      <trkpt lat="45.13381" lon="5.36153">
        <ele>225.2</ele>
        <time>2022-10-15T11:05:53.000Z</time>
      </trkpt>
      <trkpt lat="45.13386" lon="5.36157">
        <ele>225</ele>
        <time>2022-10-15T11:05:54.000Z</time>
      </trkpt>
      <trkpt lat="45.1339" lon="5.36159">
        <ele>224.7</ele>
        <time>2022-10-15T11:05:55.000Z</time>
      </trkpt>
      <trkpt lat="45.13394" lon="5.36162">
        <ele>224.5</ele>
        <time>2022-10-15T11:05:56.000Z</time>
      </trkpt>
      <trkpt lat="45.13398" lon="5.36166">
        <ele>224.3</ele>
        <time>2022-10-15T11:05:57.000Z</time>
      </trkpt>
      <trkpt lat="45.13402" lon="5.36168">
        <ele>224.2</ele>
        <time>2022-10-15T11:05:58.000Z</time>
      </trkpt>
      <trkpt lat="45.13407" lon="5.36171">
        <ele>224.1</ele>
        <time>2022-10-15T11:05:59.000Z</time>
      </trkpt>
      <trkpt lat="45.13411" lon="5.36174">
        <ele>224</ele>
        <time>2022-10-15T11:06:00.000Z</time>
      </trkpt>
      <trkpt lat="45.13415" lon="5.36177">
        <ele>223.9</ele>
        <time>2022-10-15T11:06:01.000Z</time>
      </trkpt>
      <trkpt lat="45.13419" lon="5.3618">
        <ele>223.8</ele>
        <time>2022-10-15T11:06:02.000Z</time>
      </trkpt>
      <trkpt lat="45.13423" lon="5.36183">
        <ele>223.7</ele>
        <time>2022-10-15T11:06:03.000Z</time>
      </trkpt>
      <trkpt lat="45.13427" lon="5.36187">
        <ele>223.6</ele>
        <time>2022-10-15T11:06:04.000Z</time>
      </trkpt>
      <trkpt lat="45.13431" lon="5.3619">
        <ele>223.3</ele>
        <time>2022-10-15T11:06:05.000Z</time>
      </trkpt>
      <trkpt lat="45.13435" lon="5.36193">
        <ele>223</ele>
        <time>2022-10-15T11:06:06.000Z</time>
      </trkpt>
      <trkpt lat="45.13439" lon="5.36196">
        <ele>222.7</ele>
        <time>2022-10-15T11:06:07.000Z</time>
      </trkpt>
      <trkpt lat="45.13443" lon="5.36199">
        <ele>222.3</ele>
        <time>2022-10-15T11:06:08.000Z</time>
      </trkpt>
      <trkpt lat="45.13446" lon="5.36202">
        <ele>222.2</ele>
        <time>2022-10-15T11:06:09.000Z</time>
      </trkpt>
      <trkpt lat="45.1345" lon="5.36205">
        <ele>222.2</ele>
        <time>2022-10-15T11:06:10.000Z</time>
      </trkpt>
      <trkpt lat="45.13453" lon="5.36208">
        <ele>222.2</ele>
        <time>2022-10-15T11:06:11.000Z</time>
      </trkpt>
      <trkpt lat="45.13457" lon="5.36211">
        <ele>222.1</ele>
        <time>2022-10-15T11:06:12.000Z</time>
      </trkpt>
      <trkpt lat="45.13461" lon="5.36213">
        <ele>222.1</ele>
        <time>2022-10-15T11:06:13.000Z</time>
      </trkpt>
      <trkpt lat="45.13465" lon="5.36216">
        <ele>222</ele>
        <time>2022-10-15T11:06:14.000Z</time>
      </trkpt>
      <trkpt lat="45.13469" lon="5.36219">
        <ele>222</ele>
        <time>2022-10-15T11:06:15.000Z</time>
      </trkpt>
      <trkpt lat="45.13472" lon="5.36221">
        <ele>222</ele>
        <time>2022-10-15T11:06:16.000Z</time>
      </trkpt>
      <trkpt lat="45.13476" lon="5.36224">
        <ele>221.9</ele>
        <time>2022-10-15T11:06:17.000Z</time>
      </trkpt>
      <trkpt lat="45.13478" lon="5.36227">
        <ele>222</ele>
        <time>2022-10-15T11:06:18.000Z</time>
      </trkpt>
      <trkpt lat="45.13482" lon="5.3623">
        <ele>222</ele>
        <time>2022-10-15T11:06:19.000Z</time>
      </trkpt>
      <trkpt lat="45.13485" lon="5.36233">
        <ele>221.9</ele>
        <time>2022-10-15T11:06:20.000Z</time>
      </trkpt>
      <trkpt lat="45.13489" lon="5.36236">
        <ele>221.9</ele>
        <time>2022-10-15T11:06:21.000Z</time>
      </trkpt>
      <trkpt lat="45.13494" lon="5.36238">
        <ele>221.8</ele>
        <time>2022-10-15T11:06:22.000Z</time>
      </trkpt>
      <trkpt lat="45.13498" lon="5.36241">
        <ele>221.8</ele>
        <time>2022-10-15T11:06:23.000Z</time>
      </trkpt>
      <trkpt lat="45.13502" lon="5.36244">
        <ele>221.7</ele>
        <time>2022-10-15T11:06:24.000Z</time>
      </trkpt>
      <trkpt lat="45.13505" lon="5.36246">
        <ele>221.6</ele>
        <time>2022-10-15T11:06:25.000Z</time>
      </trkpt>
      <trkpt lat="45.13508" lon="5.36248">
        <ele>221.6</ele>
        <time>2022-10-15T11:06:26.000Z</time>
      </trkpt>
      <trkpt lat="45.13512" lon="5.3625">
        <ele>221.6</ele>
        <time>2022-10-15T11:06:27.000Z</time>
      </trkpt>
      <trkpt lat="45.13515" lon="5.36253">
        <ele>221.7</ele>
        <time>2022-10-15T11:06:28.000Z</time>
      </trkpt>
      <trkpt lat="45.13518" lon="5.36255">
        <ele>221.7</ele>
        <time>2022-10-15T11:06:29.000Z</time>
      </trkpt>
      <trkpt lat="45.13521" lon="5.36257">
        <ele>221.8</ele>
        <time>2022-10-15T11:06:30.000Z</time>
      </trkpt>
      <trkpt lat="45.13524" lon="5.36259">
        <ele>221.8</ele>
        <time>2022-10-15T11:06:31.000Z</time>
      </trkpt>
      <trkpt lat="45.13528" lon="5.36262">
        <ele>221.9</ele>
        <time>2022-10-15T11:06:32.000Z</time>
      </trkpt>
      <trkpt lat="45.13531" lon="5.36264">
        <ele>221.9</ele>
        <time>2022-10-15T11:06:33.000Z</time>
      </trkpt>
      <trkpt lat="45.13534" lon="5.36267">
        <ele>221.9</ele>
        <time>2022-10-15T11:06:34.000Z</time>
      </trkpt>
      <trkpt lat="45.13537" lon="5.3627">
        <ele>221.9</ele>
        <time>2022-10-15T11:06:35.000Z</time>
      </trkpt>
      <trkpt lat="45.13539" lon="5.36272">
        <ele>221.9</ele>
        <time>2022-10-15T11:06:36.000Z</time>
      </trkpt>
      <trkpt lat="45.13542" lon="5.36275">
        <ele>221.8</ele>
        <time>2022-10-15T11:06:37.000Z</time>
      </trkpt>
      <trkpt lat="45.13545" lon="5.36277">
        <ele>221.7</ele>
        <time>2022-10-15T11:06:38.000Z</time>
      </trkpt>
      <trkpt lat="45.13548" lon="5.36279">
        <ele>221.6</ele>
        <time>2022-10-15T11:06:39.000Z</time>
      </trkpt>
      <trkpt lat="45.13552" lon="5.36282">
        <ele>221.5</ele>
        <time>2022-10-15T11:06:40.000Z</time>
      </trkpt>
      <trkpt lat="45.13555" lon="5.36284">
        <ele>221.5</ele>
        <time>2022-10-15T11:06:41.000Z</time>
      </trkpt>
      <trkpt lat="45.13559" lon="5.36287">
        <ele>221.4</ele>
        <time>2022-10-15T11:06:42.000Z</time>
      </trkpt>
      <trkpt lat="45.13562" lon="5.3629">
        <ele>221.3</ele>
        <time>2022-10-15T11:06:43.000Z</time>
      </trkpt>
      <trkpt lat="45.13566" lon="5.36294">
        <ele>221.2</ele>
        <time>2022-10-15T11:06:44.000Z</time>
      </trkpt>
      <trkpt lat="45.13569" lon="5.36296">
        <ele>221</ele>
        <time>2022-10-15T11:06:45.000Z</time>
      </trkpt>
      <trkpt lat="45.13573" lon="5.36299">
        <ele>220.8</ele>
        <time>2022-10-15T11:06:46.000Z</time>
      </trkpt>
      <trkpt lat="45.13577" lon="5.36302">
        <ele>220.5</ele>
        <time>2022-10-15T11:06:47.000Z</time>
      </trkpt>
      <trkpt lat="45.1358" lon="5.36305">
        <ele>220.3</ele>
        <time>2022-10-15T11:06:48.000Z</time>
      </trkpt>
      <trkpt lat="45.13584" lon="5.36309">
        <ele>220.2</ele>
        <time>2022-10-15T11:06:49.000Z</time>
      </trkpt>
      <trkpt lat="45.13587" lon="5.36312">
        <ele>220.2</ele>
        <time>2022-10-15T11:06:50.000Z</time>
      </trkpt>
      <trkpt lat="45.1359" lon="5.36315">
        <ele>220.2</ele>
        <time>2022-10-15T11:06:51.000Z</time>
      </trkpt>
      <trkpt lat="45.13593" lon="5.36319">
        <ele>220.3</ele>
        <time>2022-10-15T11:06:52.000Z</time>
      </trkpt>
      <trkpt lat="45.13597" lon="5.36323">
        <ele>220.3</ele>
        <time>2022-10-15T11:06:53.000Z</time>
      </trkpt>
      <trkpt lat="45.136" lon="5.36326">
        <ele>220.3</ele>
        <time>2022-10-15T11:06:54.000Z</time>
      </trkpt>
      <trkpt lat="45.13603" lon="5.3633">
        <ele>220.3</ele>
        <time>2022-10-15T11:06:55.000Z</time>
      </trkpt>
      <trkpt lat="45.13607" lon="5.36333">
        <ele>220.3</ele>
        <time>2022-10-15T11:06:56.000Z</time>
      </trkpt>
      <trkpt lat="45.1361" lon="5.36337">
        <ele>219.9</ele>
        <time>2022-10-15T11:06:57.000Z</time>
      </trkpt>
      <trkpt lat="45.13613" lon="5.36341">
        <ele>219.5</ele>
        <time>2022-10-15T11:06:58.000Z</time>
      </trkpt>
      <trkpt lat="45.13617" lon="5.36345">
        <ele>219.1</ele>
        <time>2022-10-15T11:06:59.000Z</time>
      </trkpt>
      <trkpt lat="45.13621" lon="5.36349">
        <ele>218.8</ele>
        <time>2022-10-15T11:07:00.000Z</time>
      </trkpt>
      <trkpt lat="45.13624" lon="5.36353">
        <ele>218.7</ele>
        <time>2022-10-15T11:07:01.000Z</time>
      </trkpt>
      <trkpt lat="45.13628" lon="5.36357">
        <ele>218.8</ele>
        <time>2022-10-15T11:07:02.000Z</time>
      </trkpt>
      <trkpt lat="45.13631" lon="5.36361">
        <ele>219</ele>
        <time>2022-10-15T11:07:03.000Z</time>
      </trkpt>
      <trkpt lat="45.13635" lon="5.36365">
        <ele>218.9</ele>
        <time>2022-10-15T11:07:04.000Z</time>
      </trkpt>
      <trkpt lat="45.13638" lon="5.36369">
        <ele>218.7</ele>
        <time>2022-10-15T11:07:05.000Z</time>
      </trkpt>
      <trkpt lat="45.13642" lon="5.36374">
        <ele>218.4</ele>
        <time>2022-10-15T11:07:06.000Z</time>
      </trkpt>
      <trkpt lat="45.13646" lon="5.36378">
        <ele>218.2</ele>
        <time>2022-10-15T11:07:07.000Z</time>
      </trkpt>
      <trkpt lat="45.13649" lon="5.36382">
        <ele>218.1</ele>
        <time>2022-10-15T11:07:08.000Z</time>
      </trkpt>
      <trkpt lat="45.13653" lon="5.36387">
        <ele>218</ele>
        <time>2022-10-15T11:07:09.000Z</time>
      </trkpt>
      <trkpt lat="45.13656" lon="5.36391">
        <ele>218.1</ele>
        <time>2022-10-15T11:07:10.000Z</time>
      </trkpt>
      <trkpt lat="45.13659" lon="5.36395">
        <ele>218.2</ele>
        <time>2022-10-15T11:07:11.000Z</time>
      </trkpt>
      <trkpt lat="45.13663" lon="5.36399">
        <ele>218.4</ele>
        <time>2022-10-15T11:07:12.000Z</time>
      </trkpt>
      <trkpt lat="45.13667" lon="5.36403">
        <ele>218.5</ele>
        <time>2022-10-15T11:07:13.000Z</time>
      </trkpt>
      <trkpt lat="45.13671" lon="5.36407">
        <ele>217.3</ele>
        <time>2022-10-15T11:07:14.000Z</time>
      </trkpt>
      <trkpt lat="45.13674" lon="5.3641">
        <ele>216.8</ele>
        <time>2022-10-15T11:07:15.000Z</time>
      </trkpt>
      <trkpt lat="45.13678" lon="5.36414">
        <ele>216.7</ele>
        <time>2022-10-15T11:07:16.000Z</time>
      </trkpt>
      <trkpt lat="45.13682" lon="5.36417">
        <ele>216.7</ele>
        <time>2022-10-15T11:07:17.000Z</time>
      </trkpt>
      <trkpt lat="45.13686" lon="5.36421">
        <ele>215.3</ele>
        <time>2022-10-15T11:07:18.000Z</time>
      </trkpt>
      <trkpt lat="45.13689" lon="5.36425">
        <ele>213.5</ele>
        <time>2022-10-15T11:07:19.000Z</time>
      </trkpt>
      <trkpt lat="45.13693" lon="5.36429">
        <ele>210.9</ele>
        <time>2022-10-15T11:07:20.000Z</time>
      </trkpt>
      <trkpt lat="45.13697" lon="5.36433">
        <ele>209.7</ele>
        <time>2022-10-15T11:07:21.000Z</time>
      </trkpt>
      <trkpt lat="45.13701" lon="5.36437">
        <ele>209.7</ele>
        <time>2022-10-15T11:07:22.000Z</time>
      </trkpt>
      <trkpt lat="45.13705" lon="5.36442">
        <ele>210.2</ele>
        <time>2022-10-15T11:07:23.000Z</time>
      </trkpt>
      <trkpt lat="45.13709" lon="5.36446">
        <ele>211.9</ele>
        <time>2022-10-15T11:07:24.000Z</time>
      </trkpt>
      <trkpt lat="45.13713" lon="5.3645">
        <ele>214.3</ele>
        <time>2022-10-15T11:07:25.000Z</time>
      </trkpt>
      <trkpt lat="45.13716" lon="5.36455">
        <ele>216.6</ele>
        <time>2022-10-15T11:07:26.000Z</time>
      </trkpt>
      <trkpt lat="45.1372" lon="5.36459">
        <ele>218.8</ele>
        <time>2022-10-15T11:07:27.000Z</time>
      </trkpt>
      <trkpt lat="45.13723" lon="5.36462">
        <ele>220.5</ele>
        <time>2022-10-15T11:07:28.000Z</time>
      </trkpt>
      <trkpt lat="45.13727" lon="5.36466">
        <ele>220.8</ele>
        <time>2022-10-15T11:07:29.000Z</time>
      </trkpt>
      <trkpt lat="45.13731" lon="5.3647">
        <ele>220.9</ele>
        <time>2022-10-15T11:07:30.000Z</time>
      </trkpt>
      <trkpt lat="45.13734" lon="5.36474">
        <ele>220.9</ele>
        <time>2022-10-15T11:07:31.000Z</time>
      </trkpt>
      <trkpt lat="45.13738" lon="5.36478">
        <ele>221</ele>
        <time>2022-10-15T11:07:32.000Z</time>
      </trkpt>
      <trkpt lat="45.13742" lon="5.36481">
        <ele>221.1</ele>
        <time>2022-10-15T11:07:33.000Z</time>
      </trkpt>
      <trkpt lat="45.13746" lon="5.36485">
        <ele>221.2</ele>
        <time>2022-10-15T11:07:34.000Z</time>
      </trkpt>
      <trkpt lat="45.1375" lon="5.36488">
        <ele>221.3</ele>
        <time>2022-10-15T11:07:35.000Z</time>
      </trkpt>
      <trkpt lat="45.13753" lon="5.36492">
        <ele>221.5</ele>
        <time>2022-10-15T11:07:36.000Z</time>
      </trkpt>
      <trkpt lat="45.13757" lon="5.36495">
        <ele>221.5</ele>
        <time>2022-10-15T11:07:37.000Z</time>
      </trkpt>
      <trkpt lat="45.13761" lon="5.36498">
        <ele>221.3</ele>
        <time>2022-10-15T11:07:38.000Z</time>
      </trkpt>
      <trkpt lat="45.13765" lon="5.36501">
        <ele>221</ele>
        <time>2022-10-15T11:07:39.000Z</time>
      </trkpt>
      <trkpt lat="45.13768" lon="5.36504">
        <ele>221</ele>
        <time>2022-10-15T11:07:40.000Z</time>
      </trkpt>
      <trkpt lat="45.13772" lon="5.36507">
        <ele>221</ele>
        <time>2022-10-15T11:07:41.000Z</time>
      </trkpt>
      <trkpt lat="45.13776" lon="5.3651">
        <ele>221.1</ele>
        <time>2022-10-15T11:07:42.000Z</time>
      </trkpt>
      <trkpt lat="45.1378" lon="5.36513">
        <ele>221.3</ele>
        <time>2022-10-15T11:07:43.000Z</time>
      </trkpt>
      <trkpt lat="45.13784" lon="5.36516">
        <ele>221.5</ele>
        <time>2022-10-15T11:07:44.000Z</time>
      </trkpt>
      <trkpt lat="45.13788" lon="5.3652">
        <ele>221.6</ele>
        <time>2022-10-15T11:07:45.000Z</time>
      </trkpt>
      <trkpt lat="45.13792" lon="5.36523">
        <ele>221.6</ele>
        <time>2022-10-15T11:07:46.000Z</time>
      </trkpt>
      <trkpt lat="45.13795" lon="5.36526">
        <ele>221.4</ele>
        <time>2022-10-15T11:07:47.000Z</time>
      </trkpt>
      <trkpt lat="45.13799" lon="5.36529">
        <ele>221.2</ele>
        <time>2022-10-15T11:07:48.000Z</time>
      </trkpt>
      <trkpt lat="45.13803" lon="5.36532">
        <ele>221</ele>
        <time>2022-10-15T11:07:49.000Z</time>
      </trkpt>
      <trkpt lat="45.13806" lon="5.36535">
        <ele>221</ele>
        <time>2022-10-15T11:07:50.000Z</time>
      </trkpt>
      <trkpt lat="45.13809" lon="5.36538">
        <ele>221.2</ele>
        <time>2022-10-15T11:07:51.000Z</time>
      </trkpt>
      <trkpt lat="45.13812" lon="5.3654">
        <ele>221.4</ele>
        <time>2022-10-15T11:07:52.000Z</time>
      </trkpt>
      <trkpt lat="45.13816" lon="5.36543">
        <ele>221.4</ele>
        <time>2022-10-15T11:07:53.000Z</time>
      </trkpt>
      <trkpt lat="45.13819" lon="5.36546">
        <ele>221.4</ele>
        <time>2022-10-15T11:07:54.000Z</time>
      </trkpt>
      <trkpt lat="45.13822" lon="5.36549">
        <ele>221.3</ele>
        <time>2022-10-15T11:07:55.000Z</time>
      </trkpt>
      <trkpt lat="45.13825" lon="5.36553">
        <ele>221.1</ele>
        <time>2022-10-15T11:07:56.000Z</time>
      </trkpt>
      <trkpt lat="45.13828" lon="5.36556">
        <ele>220.8</ele>
        <time>2022-10-15T11:07:57.000Z</time>
      </trkpt>
      <trkpt lat="45.13831" lon="5.36559">
        <ele>220.6</ele>
        <time>2022-10-15T11:07:58.000Z</time>
      </trkpt>
      <trkpt lat="45.13835" lon="5.36563">
        <ele>220.5</ele>
        <time>2022-10-15T11:07:59.000Z</time>
      </trkpt>
      <trkpt lat="45.13838" lon="5.36567">
        <ele>220.5</ele>
        <time>2022-10-15T11:08:00.000Z</time>
      </trkpt>
      <trkpt lat="45.13841" lon="5.3657">
        <ele>220.6</ele>
        <time>2022-10-15T11:08:01.000Z</time>
      </trkpt>
      <trkpt lat="45.13845" lon="5.36573">
        <ele>220.6</ele>
        <time>2022-10-15T11:08:02.000Z</time>
      </trkpt>
      <trkpt lat="45.13848" lon="5.36577">
        <ele>220.6</ele>
        <time>2022-10-15T11:08:03.000Z</time>
      </trkpt>
      <trkpt lat="45.1385" lon="5.3658">
        <ele>220.6</ele>
        <time>2022-10-15T11:08:04.000Z</time>
      </trkpt>
      <trkpt lat="45.13853" lon="5.36583">
        <ele>220.6</ele>
        <time>2022-10-15T11:08:05.000Z</time>
      </trkpt>
      <trkpt lat="45.13856" lon="5.36586">
        <ele>220.6</ele>
        <time>2022-10-15T11:08:06.000Z</time>
      </trkpt>
      <trkpt lat="45.13859" lon="5.3659">
        <ele>220.6</ele>
        <time>2022-10-15T11:08:07.000Z</time>
      </trkpt>
      <trkpt lat="45.13862" lon="5.36593">
        <ele>220.6</ele>
        <time>2022-10-15T11:08:08.000Z</time>
      </trkpt>
      <trkpt lat="45.13865" lon="5.36596">
        <ele>220.6</ele>
        <time>2022-10-15T11:08:09.000Z</time>
      </trkpt>
      <trkpt lat="45.13868" lon="5.36599">
        <ele>220.6</ele>
        <time>2022-10-15T11:08:10.000Z</time>
      </trkpt>
      <trkpt lat="45.13871" lon="5.36602">
        <ele>220.6</ele>
        <time>2022-10-15T11:08:11.000Z</time>
      </trkpt>
      <trkpt lat="45.13874" lon="5.36604">
        <ele>220.6</ele>
        <time>2022-10-15T11:08:12.000Z</time>
      </trkpt>
      <trkpt lat="45.13877" lon="5.36607">
        <ele>220.6</ele>
        <time>2022-10-15T11:08:13.000Z</time>
      </trkpt>
      <trkpt lat="45.1388" lon="5.3661">
        <ele>220.6</ele>
        <time>2022-10-15T11:08:14.000Z</time>
      </trkpt>
      <trkpt lat="45.13883" lon="5.36613">
        <ele>220.5</ele>
        <time>2022-10-15T11:08:15.000Z</time>
      </trkpt>
      <trkpt lat="45.13887" lon="5.36616">
        <ele>220.3</ele>
        <time>2022-10-15T11:08:16.000Z</time>
      </trkpt>
      <trkpt lat="45.13891" lon="5.36619">
        <ele>220.2</ele>
        <time>2022-10-15T11:08:17.000Z</time>
      </trkpt>
      <trkpt lat="45.13894" lon="5.36623">
        <ele>220</ele>
        <time>2022-10-15T11:08:18.000Z</time>
      </trkpt>
      <trkpt lat="45.13897" lon="5.36626">
        <ele>220</ele>
        <time>2022-10-15T11:08:19.000Z</time>
      </trkpt>
      <trkpt lat="45.139" lon="5.3663">
        <ele>220</ele>
        <time>2022-10-15T11:08:20.000Z</time>
      </trkpt>
      <trkpt lat="45.13903" lon="5.36634">
        <ele>220.1</ele>
        <time>2022-10-15T11:08:21.000Z</time>
      </trkpt>
      <trkpt lat="45.13906" lon="5.36638">
        <ele>220.3</ele>
        <time>2022-10-15T11:08:22.000Z</time>
      </trkpt>
      <trkpt lat="45.13909" lon="5.36641">
        <ele>220.3</ele>
        <time>2022-10-15T11:08:23.000Z</time>
      </trkpt>
      <trkpt lat="45.13913" lon="5.36646">
        <ele>220.2</ele>
        <time>2022-10-15T11:08:24.000Z</time>
      </trkpt>
      <trkpt lat="45.13916" lon="5.36651">
        <ele>220.1</ele>
        <time>2022-10-15T11:08:25.000Z</time>
      </trkpt>
      <trkpt lat="45.13919" lon="5.36656">
        <ele>219.9</ele>
        <time>2022-10-15T11:08:26.000Z</time>
      </trkpt>
      <trkpt lat="45.13922" lon="5.36661">
        <ele>219.9</ele>
        <time>2022-10-15T11:08:27.000Z</time>
      </trkpt>
      <trkpt lat="45.13926" lon="5.36665">
        <ele>219.9</ele>
        <time>2022-10-15T11:08:28.000Z</time>
      </trkpt>
      <trkpt lat="45.13929" lon="5.3667">
        <ele>220.2</ele>
        <time>2022-10-15T11:08:29.000Z</time>
      </trkpt>
      <trkpt lat="45.13933" lon="5.36674">
        <ele>220.3</ele>
        <time>2022-10-15T11:08:30.000Z</time>
      </trkpt>
      <trkpt lat="45.13937" lon="5.36678">
        <ele>220.3</ele>
        <time>2022-10-15T11:08:31.000Z</time>
      </trkpt>
      <trkpt lat="45.1394" lon="5.36682">
        <ele>220.2</ele>
        <time>2022-10-15T11:08:32.000Z</time>
      </trkpt>
      <trkpt lat="45.13944" lon="5.36685">
        <ele>220.1</ele>
        <time>2022-10-15T11:08:33.000Z</time>
      </trkpt>
      <trkpt lat="45.13947" lon="5.36689">
        <ele>220</ele>
        <time>2022-10-15T11:08:34.000Z</time>
      </trkpt>
      <trkpt lat="45.13951" lon="5.36692">
        <ele>219.9</ele>
        <time>2022-10-15T11:08:35.000Z</time>
      </trkpt>
      <trkpt lat="45.13955" lon="5.36696">
        <ele>220.1</ele>
        <time>2022-10-15T11:08:36.000Z</time>
      </trkpt>
      <trkpt lat="45.13958" lon="5.36699">
        <ele>220.3</ele>
        <time>2022-10-15T11:08:37.000Z</time>
      </trkpt>
      <trkpt lat="45.13961" lon="5.36702">
        <ele>220.5</ele>
        <time>2022-10-15T11:08:38.000Z</time>
      </trkpt>
      <trkpt lat="45.13964" lon="5.36705">
        <ele>220.6</ele>
        <time>2022-10-15T11:08:39.000Z</time>
      </trkpt>
      <trkpt lat="45.13966" lon="5.36708">
        <ele>220.7</ele>
        <time>2022-10-15T11:08:40.000Z</time>
      </trkpt>
      <trkpt lat="45.13969" lon="5.36711">
        <ele>220.8</ele>
        <time>2022-10-15T11:08:41.000Z</time>
      </trkpt>
      <trkpt lat="45.13972" lon="5.36715">
        <ele>220.8</ele>
        <time>2022-10-15T11:08:42.000Z</time>
      </trkpt>
      <trkpt lat="45.13974" lon="5.36718">
        <ele>220.8</ele>
        <time>2022-10-15T11:08:43.000Z</time>
      </trkpt>
      <trkpt lat="45.13977" lon="5.36721">
        <ele>220.8</ele>
        <time>2022-10-15T11:08:44.000Z</time>
      </trkpt>
      <trkpt lat="45.13979" lon="5.36724">
        <ele>220.9</ele>
        <time>2022-10-15T11:08:45.000Z</time>
      </trkpt>
      <trkpt lat="45.13981" lon="5.36728">
        <ele>221.1</ele>
        <time>2022-10-15T11:08:46.000Z</time>
      </trkpt>
      <trkpt lat="45.13984" lon="5.36731">
        <ele>221.2</ele>
        <time>2022-10-15T11:08:47.000Z</time>
      </trkpt>
      <trkpt lat="45.13986" lon="5.36735">
        <ele>221.4</ele>
        <time>2022-10-15T11:08:48.000Z</time>
      </trkpt>
      <trkpt lat="45.13989" lon="5.36738">
        <ele>221.5</ele>
        <time>2022-10-15T11:08:49.000Z</time>
      </trkpt>
      <trkpt lat="45.13991" lon="5.36741">
        <ele>221.6</ele>
        <time>2022-10-15T11:08:50.000Z</time>
      </trkpt>
      <trkpt lat="45.13994" lon="5.36744">
        <ele>221.8</ele>
        <time>2022-10-15T11:08:51.000Z</time>
      </trkpt>
      <trkpt lat="45.13996" lon="5.36747">
        <ele>222</ele>
        <time>2022-10-15T11:08:52.000Z</time>
      </trkpt>
      <trkpt lat="45.13997" lon="5.36751">
        <ele>222.2</ele>
        <time>2022-10-15T11:08:53.000Z</time>
      </trkpt>
      <trkpt lat="45.14" lon="5.36754">
        <ele>222.3</ele>
        <time>2022-10-15T11:08:54.000Z</time>
      </trkpt>
      <trkpt lat="45.14003" lon="5.36757">
        <ele>222.4</ele>
        <time>2022-10-15T11:08:55.000Z</time>
      </trkpt>
      <trkpt lat="45.14004" lon="5.36761">
        <ele>222.6</ele>
        <time>2022-10-15T11:08:56.000Z</time>
      </trkpt>
      <trkpt lat="45.14006" lon="5.36764">
        <ele>222.8</ele>
        <time>2022-10-15T11:08:57.000Z</time>
      </trkpt>
      <trkpt lat="45.14009" lon="5.36767">
        <ele>222.9</ele>
        <time>2022-10-15T11:08:58.000Z</time>
      </trkpt>
      <trkpt lat="45.14011" lon="5.3677">
        <ele>223</ele>
        <time>2022-10-15T11:08:59.000Z</time>
      </trkpt>
      <trkpt lat="45.14014" lon="5.36772">
        <ele>223.1</ele>
        <time>2022-10-15T11:09:00.000Z</time>
      </trkpt>
      <trkpt lat="45.14017" lon="5.36775">
        <ele>223.2</ele>
        <time>2022-10-15T11:09:01.000Z</time>
      </trkpt>
      <trkpt lat="45.14019" lon="5.36777">
        <ele>223.3</ele>
        <time>2022-10-15T11:09:02.000Z</time>
      </trkpt>
      <trkpt lat="45.14022" lon="5.3678">
        <ele>223.4</ele>
        <time>2022-10-15T11:09:03.000Z</time>
      </trkpt>
      <trkpt lat="45.14025" lon="5.36783">
        <ele>223.6</ele>
        <time>2022-10-15T11:09:04.000Z</time>
      </trkpt>
      <trkpt lat="45.14028" lon="5.36786">
        <ele>223.9</ele>
        <time>2022-10-15T11:09:05.000Z</time>
      </trkpt>
      <trkpt lat="45.14031" lon="5.3679">
        <ele>224.1</ele>
        <time>2022-10-15T11:09:06.000Z</time>
      </trkpt>
      <trkpt lat="45.14034" lon="5.36793">
        <ele>224.3</ele>
        <time>2022-10-15T11:09:07.000Z</time>
      </trkpt>
      <trkpt lat="45.14038" lon="5.36797">
        <ele>224.5</ele>
        <time>2022-10-15T11:09:08.000Z</time>
      </trkpt>
      <trkpt lat="45.14041" lon="5.36801">
        <ele>224.6</ele>
        <time>2022-10-15T11:09:09.000Z</time>
      </trkpt>
      <trkpt lat="45.14044" lon="5.36804">
        <ele>224.7</ele>
        <time>2022-10-15T11:09:10.000Z</time>
      </trkpt>
      <trkpt lat="45.14047" lon="5.36808">
        <ele>224.8</ele>
        <time>2022-10-15T11:09:11.000Z</time>
      </trkpt>
      <trkpt lat="45.1405" lon="5.36811">
        <ele>224.8</ele>
        <time>2022-10-15T11:09:12.000Z</time>
      </trkpt>
      <trkpt lat="45.14054" lon="5.36815">
        <ele>224.8</ele>
        <time>2022-10-15T11:09:13.000Z</time>
      </trkpt>
      <trkpt lat="45.14057" lon="5.36818">
        <ele>224.8</ele>
        <time>2022-10-15T11:09:14.000Z</time>
      </trkpt>
      <trkpt lat="45.1406" lon="5.36822">
        <ele>224.8</ele>
        <time>2022-10-15T11:09:15.000Z</time>
      </trkpt>
      <trkpt lat="45.14064" lon="5.36825">
        <ele>224.8</ele>
        <time>2022-10-15T11:09:16.000Z</time>
      </trkpt>
      <trkpt lat="45.14067" lon="5.36829">
        <ele>224.9</ele>
        <time>2022-10-15T11:09:17.000Z</time>
      </trkpt>
      <trkpt lat="45.1407" lon="5.36833">
        <ele>224.9</ele>
        <time>2022-10-15T11:09:18.000Z</time>
      </trkpt>
      <trkpt lat="45.14073" lon="5.36836">
        <ele>224.9</ele>
        <time>2022-10-15T11:09:19.000Z</time>
      </trkpt>
      <trkpt lat="45.14076" lon="5.3684">
        <ele>224.8</ele>
        <time>2022-10-15T11:09:20.000Z</time>
      </trkpt>
      <trkpt lat="45.14079" lon="5.36844">
        <ele>224.7</ele>
        <time>2022-10-15T11:09:21.000Z</time>
      </trkpt>
      <trkpt lat="45.14082" lon="5.36847">
        <ele>224.6</ele>
        <time>2022-10-15T11:09:22.000Z</time>
      </trkpt>
      <trkpt lat="45.14085" lon="5.36851">
        <ele>224.6</ele>
        <time>2022-10-15T11:09:23.000Z</time>
      </trkpt>
      <trkpt lat="45.14088" lon="5.36854">
        <ele>224.7</ele>
        <time>2022-10-15T11:09:24.000Z</time>
      </trkpt>
      <trkpt lat="45.14091" lon="5.36858">
        <ele>224.8</ele>
        <time>2022-10-15T11:09:25.000Z</time>
      </trkpt>
      <trkpt lat="45.14095" lon="5.36861">
        <ele>225</ele>
        <time>2022-10-15T11:09:26.000Z</time>
      </trkpt>
      <trkpt lat="45.14098" lon="5.36865">
        <ele>225.2</ele>
        <time>2022-10-15T11:09:27.000Z</time>
      </trkpt>
      <trkpt lat="45.141" lon="5.36868">
        <ele>225.4</ele>
        <time>2022-10-15T11:09:28.000Z</time>
      </trkpt>
      <trkpt lat="45.14103" lon="5.36872">
        <ele>225.5</ele>
        <time>2022-10-15T11:09:29.000Z</time>
      </trkpt>
      <trkpt lat="45.14105" lon="5.36875">
        <ele>225.6</ele>
        <time>2022-10-15T11:09:30.000Z</time>
      </trkpt>
      <trkpt lat="45.14108" lon="5.36879">
        <ele>225.7</ele>
        <time>2022-10-15T11:09:31.000Z</time>
      </trkpt>
      <trkpt lat="45.14111" lon="5.36882">
        <ele>225.8</ele>
        <time>2022-10-15T11:09:32.000Z</time>
      </trkpt>
      <trkpt lat="45.14114" lon="5.36886">
        <ele>225.9</ele>
        <time>2022-10-15T11:09:33.000Z</time>
      </trkpt>
      <trkpt lat="45.14117" lon="5.36889">
        <ele>226</ele>
        <time>2022-10-15T11:09:34.000Z</time>
      </trkpt>
      <trkpt lat="45.1412" lon="5.36892">
        <ele>226.2</ele>
        <time>2022-10-15T11:09:35.000Z</time>
      </trkpt>
      <trkpt lat="45.14123" lon="5.36895">
        <ele>226.4</ele>
        <time>2022-10-15T11:09:36.000Z</time>
      </trkpt>
      <trkpt lat="45.14126" lon="5.36899">
        <ele>226.5</ele>
        <time>2022-10-15T11:09:37.000Z</time>
      </trkpt>
      <trkpt lat="45.14129" lon="5.36903">
        <ele>226.7</ele>
        <time>2022-10-15T11:09:38.000Z</time>
      </trkpt>
      <trkpt lat="45.14132" lon="5.36907">
        <ele>226.8</ele>
        <time>2022-10-15T11:09:39.000Z</time>
      </trkpt>
      <trkpt lat="45.14135" lon="5.3691">
        <ele>226.9</ele>
        <time>2022-10-15T11:09:40.000Z</time>
      </trkpt>
      <trkpt lat="45.14138" lon="5.36914">
        <ele>226.9</ele>
        <time>2022-10-15T11:09:41.000Z</time>
      </trkpt>
      <trkpt lat="45.14141" lon="5.36918">
        <ele>227</ele>
        <time>2022-10-15T11:09:42.000Z</time>
      </trkpt>
      <trkpt lat="45.14144" lon="5.36921">
        <ele>227.1</ele>
        <time>2022-10-15T11:09:43.000Z</time>
      </trkpt>
      <trkpt lat="45.14147" lon="5.36924">
        <ele>227.2</ele>
        <time>2022-10-15T11:09:44.000Z</time>
      </trkpt>
      <trkpt lat="45.1415" lon="5.36928">
        <ele>227.3</ele>
        <time>2022-10-15T11:09:45.000Z</time>
      </trkpt>
      <trkpt lat="45.14153" lon="5.36932">
        <ele>227.3</ele>
        <time>2022-10-15T11:09:46.000Z</time>
      </trkpt>
      <trkpt lat="45.14156" lon="5.36935">
        <ele>227.3</ele>
        <time>2022-10-15T11:09:47.000Z</time>
      </trkpt>
      <trkpt lat="45.14159" lon="5.36938">
        <ele>227.2</ele>
        <time>2022-10-15T11:09:48.000Z</time>
      </trkpt>
      <trkpt lat="45.14163" lon="5.36942">
        <ele>227.2</ele>
        <time>2022-10-15T11:09:49.000Z</time>
      </trkpt>
      <trkpt lat="45.14166" lon="5.36945">
        <ele>227.1</ele>
        <time>2022-10-15T11:09:50.000Z</time>
      </trkpt>
      <trkpt lat="45.14168" lon="5.36949">
        <ele>227.1</ele>
        <time>2022-10-15T11:09:51.000Z</time>
      </trkpt>
      <trkpt lat="45.14171" lon="5.36953">
        <ele>227.1</ele>
        <time>2022-10-15T11:09:52.000Z</time>
      </trkpt>
      <trkpt lat="45.14173" lon="5.36956">
        <ele>227.2</ele>
        <time>2022-10-15T11:09:53.000Z</time>
      </trkpt>
      <trkpt lat="45.14175" lon="5.36959">
        <ele>227.2</ele>
        <time>2022-10-15T11:09:54.000Z</time>
      </trkpt>
      <trkpt lat="45.14177" lon="5.36962">
        <ele>227.3</ele>
        <time>2022-10-15T11:09:55.000Z</time>
      </trkpt>
      <trkpt lat="45.14179" lon="5.36966">
        <ele>227.3</ele>
        <time>2022-10-15T11:09:56.000Z</time>
      </trkpt>
      <trkpt lat="45.14182" lon="5.36969">
        <ele>227.3</ele>
        <time>2022-10-15T11:09:57.000Z</time>
      </trkpt>
      <trkpt lat="45.14185" lon="5.36973">
        <ele>227.4</ele>
        <time>2022-10-15T11:09:58.000Z</time>
      </trkpt>
      <trkpt lat="45.14188" lon="5.36976">
        <ele>227.3</ele>
        <time>2022-10-15T11:09:59.000Z</time>
      </trkpt>
      <trkpt lat="45.1419" lon="5.36979">
        <ele>227.2</ele>
        <time>2022-10-15T11:10:00.000Z</time>
      </trkpt>
      <trkpt lat="45.14193" lon="5.36983">
        <ele>227.1</ele>
        <time>2022-10-15T11:10:01.000Z</time>
      </trkpt>
      <trkpt lat="45.14196" lon="5.36987">
        <ele>227</ele>
        <time>2022-10-15T11:10:02.000Z</time>
      </trkpt>
      <trkpt lat="45.14199" lon="5.3699">
        <ele>227</ele>
        <time>2022-10-15T11:10:03.000Z</time>
      </trkpt>
      <trkpt lat="45.14202" lon="5.36994">
        <ele>227.2</ele>
        <time>2022-10-15T11:10:04.000Z</time>
      </trkpt>
      <trkpt lat="45.14205" lon="5.36998">
        <ele>227.3</ele>
        <time>2022-10-15T11:10:05.000Z</time>
      </trkpt>
      <trkpt lat="45.14208" lon="5.37001">
        <ele>227.5</ele>
        <time>2022-10-15T11:10:06.000Z</time>
      </trkpt>
      <trkpt lat="45.14211" lon="5.37005">
        <ele>227.7</ele>
        <time>2022-10-15T11:10:07.000Z</time>
      </trkpt>
      <trkpt lat="45.14214" lon="5.37008">
        <ele>227.8</ele>
        <time>2022-10-15T11:10:08.000Z</time>
      </trkpt>
      <trkpt lat="45.14217" lon="5.37012">
        <ele>227.9</ele>
        <time>2022-10-15T11:10:09.000Z</time>
      </trkpt>
      <trkpt lat="45.1422" lon="5.37015">
        <ele>228</ele>
        <time>2022-10-15T11:10:10.000Z</time>
      </trkpt>
      <trkpt lat="45.14222" lon="5.37019">
        <ele>228</ele>
        <time>2022-10-15T11:10:11.000Z</time>
      </trkpt>
      <trkpt lat="45.14225" lon="5.37022">
        <ele>228</ele>
        <time>2022-10-15T11:10:12.000Z</time>
      </trkpt>
      <trkpt lat="45.14228" lon="5.37026">
        <ele>228</ele>
        <time>2022-10-15T11:10:13.000Z</time>
      </trkpt>
      <trkpt lat="45.14231" lon="5.3703">
        <ele>228</ele>
        <time>2022-10-15T11:10:14.000Z</time>
      </trkpt>
      <trkpt lat="45.14234" lon="5.37034">
        <ele>228</ele>
        <time>2022-10-15T11:10:15.000Z</time>
      </trkpt>
      <trkpt lat="45.14237" lon="5.37037">
        <ele>228</ele>
        <time>2022-10-15T11:10:16.000Z</time>
      </trkpt>
      <trkpt lat="45.1424" lon="5.37041">
        <ele>228</ele>
        <time>2022-10-15T11:10:17.000Z</time>
      </trkpt>
      <trkpt lat="45.14242" lon="5.37044">
        <ele>228</ele>
        <time>2022-10-15T11:10:18.000Z</time>
      </trkpt>
      <trkpt lat="45.14245" lon="5.37048">
        <ele>228</ele>
        <time>2022-10-15T11:10:19.000Z</time>
      </trkpt>
      <trkpt lat="45.14248" lon="5.37051">
        <ele>228</ele>
        <time>2022-10-15T11:10:20.000Z</time>
      </trkpt>
      <trkpt lat="45.1425" lon="5.37055">
        <ele>228</ele>
        <time>2022-10-15T11:10:21.000Z</time>
      </trkpt>
      <trkpt lat="45.14253" lon="5.37059">
        <ele>228.2</ele>
        <time>2022-10-15T11:10:22.000Z</time>
      </trkpt>
      <trkpt lat="45.14256" lon="5.37062">
        <ele>228.4</ele>
        <time>2022-10-15T11:10:23.000Z</time>
      </trkpt>
      <trkpt lat="45.14259" lon="5.37066">
        <ele>228.6</ele>
        <time>2022-10-15T11:10:24.000Z</time>
      </trkpt>
      <trkpt lat="45.14262" lon="5.37069">
        <ele>228.7</ele>
        <time>2022-10-15T11:10:25.000Z</time>
      </trkpt>
      <trkpt lat="45.14265" lon="5.37073">
        <ele>228.8</ele>
        <time>2022-10-15T11:10:26.000Z</time>
      </trkpt>
      <trkpt lat="45.14268" lon="5.37076">
        <ele>228.9</ele>
        <time>2022-10-15T11:10:27.000Z</time>
      </trkpt>
      <trkpt lat="45.14272" lon="5.3708">
        <ele>229</ele>
        <time>2022-10-15T11:10:28.000Z</time>
      </trkpt>
      <trkpt lat="45.14275" lon="5.37084">
        <ele>229</ele>
        <time>2022-10-15T11:10:29.000Z</time>
      </trkpt>
      <trkpt lat="45.14278" lon="5.37087">
        <ele>229.1</ele>
        <time>2022-10-15T11:10:30.000Z</time>
      </trkpt>
      <trkpt lat="45.14281" lon="5.37091">
        <ele>229.3</ele>
        <time>2022-10-15T11:10:31.000Z</time>
      </trkpt>
      <trkpt lat="45.14284" lon="5.37096">
        <ele>229.4</ele>
        <time>2022-10-15T11:10:32.000Z</time>
      </trkpt>
      <trkpt lat="45.14286" lon="5.371">
        <ele>229.6</ele>
        <time>2022-10-15T11:10:33.000Z</time>
      </trkpt>
      <trkpt lat="45.14289" lon="5.37104">
        <ele>229.7</ele>
        <time>2022-10-15T11:10:34.000Z</time>
      </trkpt>
      <trkpt lat="45.14293" lon="5.37107">
        <ele>229.8</ele>
        <time>2022-10-15T11:10:35.000Z</time>
      </trkpt>
      <trkpt lat="45.14296" lon="5.3711">
        <ele>230</ele>
        <time>2022-10-15T11:10:36.000Z</time>
      </trkpt>
      <trkpt lat="45.14299" lon="5.37113">
        <ele>230</ele>
        <time>2022-10-15T11:10:37.000Z</time>
      </trkpt>
      <trkpt lat="45.14303" lon="5.37117">
        <ele>230</ele>
        <time>2022-10-15T11:10:38.000Z</time>
      </trkpt>
      <trkpt lat="45.14306" lon="5.3712">
        <ele>230</ele>
        <time>2022-10-15T11:10:39.000Z</time>
      </trkpt>
      <trkpt lat="45.14309" lon="5.37123">
        <ele>230.1</ele>
        <time>2022-10-15T11:10:40.000Z</time>
      </trkpt>
      <trkpt lat="45.14312" lon="5.37127">
        <ele>230.1</ele>
        <time>2022-10-15T11:10:41.000Z</time>
      </trkpt>
      <trkpt lat="45.14315" lon="5.37131">
        <ele>230.2</ele>
        <time>2022-10-15T11:10:42.000Z</time>
      </trkpt>
      <trkpt lat="45.14318" lon="5.37134">
        <ele>230.4</ele>
        <time>2022-10-15T11:10:43.000Z</time>
      </trkpt>
      <trkpt lat="45.14321" lon="5.37138">
        <ele>230.5</ele>
        <time>2022-10-15T11:10:44.000Z</time>
      </trkpt>
      <trkpt lat="45.14324" lon="5.37141">
        <ele>230.7</ele>
        <time>2022-10-15T11:10:45.000Z</time>
      </trkpt>
      <trkpt lat="45.14327" lon="5.37145">
        <ele>230.9</ele>
        <time>2022-10-15T11:10:46.000Z</time>
      </trkpt>
      <trkpt lat="45.1433" lon="5.37148">
        <ele>231</ele>
        <time>2022-10-15T11:10:47.000Z</time>
      </trkpt>
      <trkpt lat="45.14334" lon="5.37151">
        <ele>231</ele>
        <time>2022-10-15T11:10:48.000Z</time>
      </trkpt>
      <trkpt lat="45.14337" lon="5.37154">
        <ele>231.2</ele>
        <time>2022-10-15T11:10:49.000Z</time>
      </trkpt>
      <trkpt lat="45.1434" lon="5.37158">
        <ele>231.4</ele>
        <time>2022-10-15T11:10:50.000Z</time>
      </trkpt>
      <trkpt lat="45.14343" lon="5.37161">
        <ele>231.6</ele>
        <time>2022-10-15T11:10:51.000Z</time>
      </trkpt>
      <trkpt lat="45.14346" lon="5.37165">
        <ele>231.9</ele>
        <time>2022-10-15T11:10:52.000Z</time>
      </trkpt>
      <trkpt lat="45.14349" lon="5.37168">
        <ele>232.2</ele>
        <time>2022-10-15T11:10:53.000Z</time>
      </trkpt>
      <trkpt lat="45.14352" lon="5.37172">
        <ele>232.4</ele>
        <time>2022-10-15T11:10:54.000Z</time>
      </trkpt>
      <trkpt lat="45.14355" lon="5.37175">
        <ele>232.6</ele>
        <time>2022-10-15T11:10:55.000Z</time>
      </trkpt>
      <trkpt lat="45.14358" lon="5.37178">
        <ele>232.8</ele>
        <time>2022-10-15T11:10:56.000Z</time>
      </trkpt>
      <trkpt lat="45.14361" lon="5.37182">
        <ele>233</ele>
        <time>2022-10-15T11:10:57.000Z</time>
      </trkpt>
      <trkpt lat="45.14364" lon="5.37185">
        <ele>233.1</ele>
        <time>2022-10-15T11:10:58.000Z</time>
      </trkpt>
      <trkpt lat="45.14367" lon="5.37188">
        <ele>233.1</ele>
        <time>2022-10-15T11:10:59.000Z</time>
      </trkpt>
      <trkpt lat="45.14369" lon="5.37191">
        <ele>233.3</ele>
        <time>2022-10-15T11:11:00.000Z</time>
      </trkpt>
      <trkpt lat="45.14372" lon="5.37195">
        <ele>233.4</ele>
        <time>2022-10-15T11:11:01.000Z</time>
      </trkpt>
      <trkpt lat="45.14375" lon="5.37198">
        <ele>233.5</ele>
        <time>2022-10-15T11:11:02.000Z</time>
      </trkpt>
      <trkpt lat="45.14378" lon="5.37201">
        <ele>233.6</ele>
        <time>2022-10-15T11:11:03.000Z</time>
      </trkpt>
      <trkpt lat="45.14381" lon="5.37205">
        <ele>233.7</ele>
        <time>2022-10-15T11:11:04.000Z</time>
      </trkpt>
      <trkpt lat="45.14384" lon="5.37208">
        <ele>233.8</ele>
        <time>2022-10-15T11:11:05.000Z</time>
      </trkpt>
      <trkpt lat="45.14387" lon="5.37211">
        <ele>233.9</ele>
        <time>2022-10-15T11:11:06.000Z</time>
      </trkpt>
      <trkpt lat="45.1439" lon="5.37215">
        <ele>234</ele>
        <time>2022-10-15T11:11:07.000Z</time>
      </trkpt>
      <trkpt lat="45.14393" lon="5.37218">
        <ele>234.1</ele>
        <time>2022-10-15T11:11:08.000Z</time>
      </trkpt>
      <trkpt lat="45.14396" lon="5.37221">
        <ele>234.2</ele>
        <time>2022-10-15T11:11:09.000Z</time>
      </trkpt>
      <trkpt lat="45.14399" lon="5.37224">
        <ele>234.4</ele>
        <time>2022-10-15T11:11:10.000Z</time>
      </trkpt>
      <trkpt lat="45.14401" lon="5.37228">
        <ele>234.5</ele>
        <time>2022-10-15T11:11:11.000Z</time>
      </trkpt>
      <trkpt lat="45.14404" lon="5.37231">
        <ele>234.7</ele>
        <time>2022-10-15T11:11:12.000Z</time>
      </trkpt>
      <trkpt lat="45.14407" lon="5.37234">
        <ele>234.8</ele>
        <time>2022-10-15T11:11:13.000Z</time>
      </trkpt>
      <trkpt lat="45.1441" lon="5.37238">
        <ele>234.9</ele>
        <time>2022-10-15T11:11:14.000Z</time>
      </trkpt>
      <trkpt lat="45.14413" lon="5.37242">
        <ele>235</ele>
        <time>2022-10-15T11:11:15.000Z</time>
      </trkpt>
      <trkpt lat="45.14415" lon="5.37245">
        <ele>235</ele>
        <time>2022-10-15T11:11:16.000Z</time>
      </trkpt>
      <trkpt lat="45.14418" lon="5.37249">
        <ele>235</ele>
        <time>2022-10-15T11:11:17.000Z</time>
      </trkpt>
      <trkpt lat="45.14421" lon="5.37252">
        <ele>235.1</ele>
        <time>2022-10-15T11:11:18.000Z</time>
      </trkpt>
      <trkpt lat="45.14424" lon="5.37256">
        <ele>235.2</ele>
        <time>2022-10-15T11:11:19.000Z</time>
      </trkpt>
      <trkpt lat="45.14427" lon="5.3726">
        <ele>235.3</ele>
        <time>2022-10-15T11:11:20.000Z</time>
      </trkpt>
      <trkpt lat="45.1443" lon="5.37263">
        <ele>235.5</ele>
        <time>2022-10-15T11:11:21.000Z</time>
      </trkpt>
      <trkpt lat="45.14433" lon="5.37267">
        <ele>235.6</ele>
        <time>2022-10-15T11:11:22.000Z</time>
      </trkpt>
      <trkpt lat="45.14437" lon="5.3727">
        <ele>235.7</ele>
        <time>2022-10-15T11:11:23.000Z</time>
      </trkpt>
      <trkpt lat="45.1444" lon="5.37274">
        <ele>235.9</ele>
        <time>2022-10-15T11:11:24.000Z</time>
      </trkpt>
      <trkpt lat="45.14443" lon="5.37277">
        <ele>236</ele>
        <time>2022-10-15T11:11:25.000Z</time>
      </trkpt>
      <trkpt lat="45.14446" lon="5.37281">
        <ele>236.1</ele>
        <time>2022-10-15T11:11:26.000Z</time>
      </trkpt>
      <trkpt lat="45.14449" lon="5.37285">
        <ele>236.2</ele>
        <time>2022-10-15T11:11:27.000Z</time>
      </trkpt>
      <trkpt lat="45.14452" lon="5.37288">
        <ele>236.4</ele>
        <time>2022-10-15T11:11:28.000Z</time>
      </trkpt>
      <trkpt lat="45.14456" lon="5.37292">
        <ele>236.5</ele>
        <time>2022-10-15T11:11:29.000Z</time>
      </trkpt>
      <trkpt lat="45.14459" lon="5.37295">
        <ele>236.6</ele>
        <time>2022-10-15T11:11:30.000Z</time>
      </trkpt>
      <trkpt lat="45.14462" lon="5.37299">
        <ele>236.8</ele>
        <time>2022-10-15T11:11:31.000Z</time>
      </trkpt>
      <trkpt lat="45.14465" lon="5.37302">
        <ele>236.9</ele>
        <time>2022-10-15T11:11:32.000Z</time>
      </trkpt>
      <trkpt lat="45.14468" lon="5.37306">
        <ele>237</ele>
        <time>2022-10-15T11:11:33.000Z</time>
      </trkpt>
      <trkpt lat="45.14471" lon="5.37309">
        <ele>237.1</ele>
        <time>2022-10-15T11:11:34.000Z</time>
      </trkpt>
      <trkpt lat="45.14474" lon="5.37312">
        <ele>237.2</ele>
        <time>2022-10-15T11:11:35.000Z</time>
      </trkpt>
      <trkpt lat="45.14477" lon="5.37314">
        <ele>237.3</ele>
        <time>2022-10-15T11:11:36.000Z</time>
      </trkpt>
      <trkpt lat="45.14481" lon="5.37317">
        <ele>237.4</ele>
        <time>2022-10-15T11:11:37.000Z</time>
      </trkpt>
      <trkpt lat="45.14484" lon="5.3732">
        <ele>237.5</ele>
        <time>2022-10-15T11:11:38.000Z</time>
      </trkpt>
      <trkpt lat="45.14487" lon="5.37323">
        <ele>237.6</ele>
        <time>2022-10-15T11:11:39.000Z</time>
      </trkpt>
      <trkpt lat="45.14491" lon="5.37326">
        <ele>237.7</ele>
        <time>2022-10-15T11:11:40.000Z</time>
      </trkpt>
      <trkpt lat="45.14494" lon="5.37329">
        <ele>237.8</ele>
        <time>2022-10-15T11:11:41.000Z</time>
      </trkpt>
      <trkpt lat="45.14497" lon="5.37331">
        <ele>237.9</ele>
        <time>2022-10-15T11:11:42.000Z</time>
      </trkpt>
      <trkpt lat="45.14501" lon="5.37335">
        <ele>238</ele>
        <time>2022-10-15T11:11:43.000Z</time>
      </trkpt>
      <trkpt lat="45.14504" lon="5.37338">
        <ele>237.8</ele>
        <time>2022-10-15T11:11:44.000Z</time>
      </trkpt>
      <trkpt lat="45.14506" lon="5.37342">
        <ele>237.7</ele>
        <time>2022-10-15T11:11:45.000Z</time>
      </trkpt>
      <trkpt lat="45.14508" lon="5.37347">
        <ele>237.5</ele>
        <time>2022-10-15T11:11:46.000Z</time>
      </trkpt>
      <trkpt lat="45.14509" lon="5.37352">
        <ele>237.3</ele>
        <time>2022-10-15T11:11:47.000Z</time>
      </trkpt>
      <trkpt lat="45.14509" lon="5.37358">
        <ele>237.1</ele>
        <time>2022-10-15T11:11:48.000Z</time>
      </trkpt>
      <trkpt lat="45.14508" lon="5.37363">
        <ele>237</ele>
        <time>2022-10-15T11:11:49.000Z</time>
      </trkpt>
      <trkpt lat="45.14506" lon="5.37367">
        <ele>237</ele>
        <time>2022-10-15T11:11:50.000Z</time>
      </trkpt>
      <trkpt lat="45.14505" lon="5.37371">
        <ele>237</ele>
        <time>2022-10-15T11:11:51.000Z</time>
      </trkpt>
      <trkpt lat="45.14504" lon="5.37375">
        <ele>237</ele>
        <time>2022-10-15T11:11:52.000Z</time>
      </trkpt>
      <trkpt lat="45.14503" lon="5.37379">
        <ele>237</ele>
        <time>2022-10-15T11:11:53.000Z</time>
      </trkpt>
      <trkpt lat="45.14502" lon="5.37383">
        <ele>237</ele>
        <time>2022-10-15T11:11:54.000Z</time>
      </trkpt>
      <trkpt lat="45.14501" lon="5.37386">
        <ele>237</ele>
        <time>2022-10-15T11:11:55.000Z</time>
      </trkpt>
      <trkpt lat="45.145" lon="5.37389">
        <ele>237</ele>
        <time>2022-10-15T11:11:56.000Z</time>
      </trkpt>
      <trkpt lat="45.14499" lon="5.37392">
        <ele>237.2</ele>
        <time>2022-10-15T11:11:57.000Z</time>
      </trkpt>
      <trkpt lat="45.14497" lon="5.37396">
        <ele>237.3</ele>
        <time>2022-10-15T11:11:58.000Z</time>
      </trkpt>
      <trkpt lat="45.14496" lon="5.37399">
        <ele>237.4</ele>
        <time>2022-10-15T11:11:59.000Z</time>
      </trkpt>
      <trkpt lat="45.14495" lon="5.37402">
        <ele>237.5</ele>
        <time>2022-10-15T11:12:00.000Z</time>
      </trkpt>
      <trkpt lat="45.14494" lon="5.37404">
        <ele>237.7</ele>
        <time>2022-10-15T11:12:01.000Z</time>
      </trkpt>
      <trkpt lat="45.14493" lon="5.37407">
        <ele>237.7</ele>
        <time>2022-10-15T11:12:02.000Z</time>
      </trkpt>
      <trkpt lat="45.14491" lon="5.37411">
        <ele>237.9</ele>
        <time>2022-10-15T11:12:03.000Z</time>
      </trkpt>
      <trkpt lat="45.14489" lon="5.37414">
        <ele>237.9</ele>
        <time>2022-10-15T11:12:04.000Z</time>
      </trkpt>
      <trkpt lat="45.14487" lon="5.37418">
        <ele>238</ele>
        <time>2022-10-15T11:12:05.000Z</time>
      </trkpt>
      <trkpt lat="45.14486" lon="5.37421">
        <ele>238.1</ele>
        <time>2022-10-15T11:12:06.000Z</time>
      </trkpt>
      <trkpt lat="45.14485" lon="5.37424">
        <ele>238.1</ele>
        <time>2022-10-15T11:12:07.000Z</time>
      </trkpt>
      <trkpt lat="45.14484" lon="5.37428">
        <ele>238.2</ele>
        <time>2022-10-15T11:12:08.000Z</time>
      </trkpt>
      <trkpt lat="45.14484" lon="5.37433">
        <ele>238.3</ele>
        <time>2022-10-15T11:12:09.000Z</time>
      </trkpt>
      <trkpt lat="45.14484" lon="5.37437">
        <ele>238.4</ele>
        <time>2022-10-15T11:12:10.000Z</time>
      </trkpt>
      <trkpt lat="45.14484" lon="5.3744">
        <ele>238.5</ele>
        <time>2022-10-15T11:12:11.000Z</time>
      </trkpt>
      <trkpt lat="45.14484" lon="5.37443">
        <ele>238.6</ele>
        <time>2022-10-15T11:12:12.000Z</time>
      </trkpt>
      <trkpt lat="45.14484" lon="5.37446">
        <ele>238.6</ele>
        <time>2022-10-15T11:12:13.000Z</time>
      </trkpt>
      <trkpt lat="45.14484" lon="5.37449">
        <ele>238.7</ele>
        <time>2022-10-15T11:12:14.000Z</time>
      </trkpt>
      <trkpt lat="45.14483" lon="5.37453">
        <ele>238.7</ele>
        <time>2022-10-15T11:12:15.000Z</time>
      </trkpt>
      <trkpt lat="45.14483" lon="5.37457">
        <ele>238.8</ele>
        <time>2022-10-15T11:12:16.000Z</time>
      </trkpt>
      <trkpt lat="45.14483" lon="5.3746">
        <ele>238.8</ele>
        <time>2022-10-15T11:12:17.000Z</time>
      </trkpt>
      <trkpt lat="45.14483" lon="5.37463">
        <ele>238.9</ele>
        <time>2022-10-15T11:12:18.000Z</time>
      </trkpt>
      <trkpt lat="45.14482" lon="5.37467">
        <ele>238.9</ele>
        <time>2022-10-15T11:12:19.000Z</time>
      </trkpt>
      <trkpt lat="45.14481" lon="5.3747">
        <ele>239</ele>
        <time>2022-10-15T11:12:20.000Z</time>
      </trkpt>
      <trkpt lat="45.14481" lon="5.37474">
        <ele>239.1</ele>
        <time>2022-10-15T11:12:21.000Z</time>
      </trkpt>
      <trkpt lat="45.1448" lon="5.37478">
        <ele>239.2</ele>
        <time>2022-10-15T11:12:22.000Z</time>
      </trkpt>
      <trkpt lat="45.1448" lon="5.37482">
        <ele>239.3</ele>
        <time>2022-10-15T11:12:23.000Z</time>
      </trkpt>
      <trkpt lat="45.14478" lon="5.37485">
        <ele>239.4</ele>
        <time>2022-10-15T11:12:24.000Z</time>
      </trkpt>
      <trkpt lat="45.14477" lon="5.37488">
        <ele>239.6</ele>
        <time>2022-10-15T11:12:25.000Z</time>
      </trkpt>
      <trkpt lat="45.14476" lon="5.37491">
        <ele>239.7</ele>
        <time>2022-10-15T11:12:26.000Z</time>
      </trkpt>
      <trkpt lat="45.14475" lon="5.37495">
        <ele>239.8</ele>
        <time>2022-10-15T11:12:27.000Z</time>
      </trkpt>
      <trkpt lat="45.14473" lon="5.37498">
        <ele>239.9</ele>
        <time>2022-10-15T11:12:28.000Z</time>
      </trkpt>
      <trkpt lat="45.14472" lon="5.37502">
        <ele>240.1</ele>
        <time>2022-10-15T11:12:29.000Z</time>
      </trkpt>
      <trkpt lat="45.1447" lon="5.37505">
        <ele>240.3</ele>
        <time>2022-10-15T11:12:30.000Z</time>
      </trkpt>
      <trkpt lat="45.14469" lon="5.37508">
        <ele>240.4</ele>
        <time>2022-10-15T11:12:31.000Z</time>
      </trkpt>
      <trkpt lat="45.14468" lon="5.37512">
        <ele>240.6</ele>
        <time>2022-10-15T11:12:32.000Z</time>
      </trkpt>
      <trkpt lat="45.14467" lon="5.37515">
        <ele>240.7</ele>
        <time>2022-10-15T11:12:33.000Z</time>
      </trkpt>
      <trkpt lat="45.14466" lon="5.37518">
        <ele>240.9</ele>
        <time>2022-10-15T11:12:34.000Z</time>
      </trkpt>
      <trkpt lat="45.14464" lon="5.37521">
        <ele>241</ele>
        <time>2022-10-15T11:12:35.000Z</time>
      </trkpt>
      <trkpt lat="45.14463" lon="5.37524">
        <ele>241.2</ele>
        <time>2022-10-15T11:12:36.000Z</time>
      </trkpt>
      <trkpt lat="45.14462" lon="5.37527">
        <ele>241.4</ele>
        <time>2022-10-15T11:12:37.000Z</time>
      </trkpt>
      <trkpt lat="45.1446" lon="5.37531">
        <ele>241.6</ele>
        <time>2022-10-15T11:12:38.000Z</time>
      </trkpt>
      <trkpt lat="45.14459" lon="5.37534">
        <ele>241.9</ele>
        <time>2022-10-15T11:12:39.000Z</time>
      </trkpt>
      <trkpt lat="45.14458" lon="5.37538">
        <ele>242.2</ele>
        <time>2022-10-15T11:12:40.000Z</time>
      </trkpt>
      <trkpt lat="45.14456" lon="5.37541">
        <ele>242.5</ele>
        <time>2022-10-15T11:12:41.000Z</time>
      </trkpt>
      <trkpt lat="45.14455" lon="5.37544">
        <ele>242.8</ele>
        <time>2022-10-15T11:12:42.000Z</time>
      </trkpt>
      <trkpt lat="45.14453" lon="5.37548">
        <ele>243.1</ele>
        <time>2022-10-15T11:12:43.000Z</time>
      </trkpt>
      <trkpt lat="45.14452" lon="5.37551">
        <ele>243.4</ele>
        <time>2022-10-15T11:12:44.000Z</time>
      </trkpt>
      <trkpt lat="45.14451" lon="5.37554">
        <ele>243.6</ele>
        <time>2022-10-15T11:12:45.000Z</time>
      </trkpt>
      <trkpt lat="45.1445" lon="5.37558">
        <ele>243.9</ele>
        <time>2022-10-15T11:12:46.000Z</time>
      </trkpt>
      <trkpt lat="45.14448" lon="5.37561">
        <ele>244</ele>
        <time>2022-10-15T11:12:47.000Z</time>
      </trkpt>
      <trkpt lat="45.14447" lon="5.37564">
        <ele>244.2</ele>
        <time>2022-10-15T11:12:48.000Z</time>
      </trkpt>
      <trkpt lat="45.14446" lon="5.37568">
        <ele>244.4</ele>
        <time>2022-10-15T11:12:49.000Z</time>
      </trkpt>
      <trkpt lat="45.14445" lon="5.37572">
        <ele>244.6</ele>
        <time>2022-10-15T11:12:50.000Z</time>
      </trkpt>
      <trkpt lat="45.14445" lon="5.37576">
        <ele>244.7</ele>
        <time>2022-10-15T11:12:51.000Z</time>
      </trkpt>
      <trkpt lat="45.14444" lon="5.3758">
        <ele>244.9</ele>
        <time>2022-10-15T11:12:52.000Z</time>
      </trkpt>
      <trkpt lat="45.14444" lon="5.37584">
        <ele>245.1</ele>
        <time>2022-10-15T11:12:53.000Z</time>
      </trkpt>
      <trkpt lat="45.14443" lon="5.37588">
        <ele>245.4</ele>
        <time>2022-10-15T11:12:54.000Z</time>
      </trkpt>
      <trkpt lat="45.14444" lon="5.37592">
        <ele>245.7</ele>
        <time>2022-10-15T11:12:55.000Z</time>
      </trkpt>
      <trkpt lat="45.14444" lon="5.37595">
        <ele>245.9</ele>
        <time>2022-10-15T11:12:56.000Z</time>
      </trkpt>
      <trkpt lat="45.14445" lon="5.37599">
        <ele>246.1</ele>
        <time>2022-10-15T11:12:57.000Z</time>
      </trkpt>
      <trkpt lat="45.14445" lon="5.37603">
        <ele>246.3</ele>
        <time>2022-10-15T11:12:58.000Z</time>
      </trkpt>
      <trkpt lat="45.14445" lon="5.37606">
        <ele>246.6</ele>
        <time>2022-10-15T11:12:59.000Z</time>
      </trkpt>
      <trkpt lat="45.14445" lon="5.3761">
        <ele>246.9</ele>
        <time>2022-10-15T11:13:00.000Z</time>
      </trkpt>
      <trkpt lat="45.14444" lon="5.37614">
        <ele>247.1</ele>
        <time>2022-10-15T11:13:01.000Z</time>
      </trkpt>
      <trkpt lat="45.14444" lon="5.37617">
        <ele>247.3</ele>
        <time>2022-10-15T11:13:02.000Z</time>
      </trkpt>
      <trkpt lat="45.14443" lon="5.3762">
        <ele>247.4</ele>
        <time>2022-10-15T11:13:03.000Z</time>
      </trkpt>
      <trkpt lat="45.14442" lon="5.37624">
        <ele>247.6</ele>
        <time>2022-10-15T11:13:04.000Z</time>
      </trkpt>
      <trkpt lat="45.14441" lon="5.37627">
        <ele>247.7</ele>
        <time>2022-10-15T11:13:05.000Z</time>
      </trkpt>
      <trkpt lat="45.14439" lon="5.37629">
        <ele>247.9</ele>
        <time>2022-10-15T11:13:06.000Z</time>
      </trkpt>
      <trkpt lat="45.14438" lon="5.37633">
        <ele>248.1</ele>
        <time>2022-10-15T11:13:07.000Z</time>
      </trkpt>
      <trkpt lat="45.14436" lon="5.37635">
        <ele>248.2</ele>
        <time>2022-10-15T11:13:08.000Z</time>
      </trkpt>
      <trkpt lat="45.14435" lon="5.37638">
        <ele>248.3</ele>
        <time>2022-10-15T11:13:09.000Z</time>
      </trkpt>
      <trkpt lat="45.14433" lon="5.37641">
        <ele>248.6</ele>
        <time>2022-10-15T11:13:10.000Z</time>
      </trkpt>
      <trkpt lat="45.14432" lon="5.37643">
        <ele>248.9</ele>
        <time>2022-10-15T11:13:11.000Z</time>
      </trkpt>
      <trkpt lat="45.14431" lon="5.37646">
        <ele>249.2</ele>
        <time>2022-10-15T11:13:12.000Z</time>
      </trkpt>
      <trkpt lat="45.14429" lon="5.37648">
        <ele>249.5</ele>
        <time>2022-10-15T11:13:13.000Z</time>
      </trkpt>
      <trkpt lat="45.14428" lon="5.37651">
        <ele>249.8</ele>
        <time>2022-10-15T11:13:14.000Z</time>
      </trkpt>
      <trkpt lat="45.14427" lon="5.37654">
        <ele>250.1</ele>
        <time>2022-10-15T11:13:15.000Z</time>
      </trkpt>
      <trkpt lat="45.14426" lon="5.37656">
        <ele>250.3</ele>
        <time>2022-10-15T11:13:16.000Z</time>
      </trkpt>
      <trkpt lat="45.14426" lon="5.37659">
        <ele>250.6</ele>
        <time>2022-10-15T11:13:17.000Z</time>
      </trkpt>
      <trkpt lat="45.14426" lon="5.37662">
        <ele>250.9</ele>
        <time>2022-10-15T11:13:18.000Z</time>
      </trkpt>
      <trkpt lat="45.14426" lon="5.37665">
        <ele>251.2</ele>
        <time>2022-10-15T11:13:19.000Z</time>
      </trkpt>
      <trkpt lat="45.14427" lon="5.37668">
        <ele>251.5</ele>
        <time>2022-10-15T11:13:20.000Z</time>
      </trkpt>
      <trkpt lat="45.14428" lon="5.3767">
        <ele>251.9</ele>
        <time>2022-10-15T11:13:21.000Z</time>
      </trkpt>
      <trkpt lat="45.14429" lon="5.37671">
        <ele>252.2</ele>
        <time>2022-10-15T11:13:22.000Z</time>
      </trkpt>
      <trkpt lat="45.14431" lon="5.37672">
        <ele>252.4</ele>
        <time>2022-10-15T11:13:23.000Z</time>
      </trkpt>
      <trkpt lat="45.14433" lon="5.37674">
        <ele>252.7</ele>
        <time>2022-10-15T11:13:24.000Z</time>
      </trkpt>
      <trkpt lat="45.14436" lon="5.37676">
        <ele>253.2</ele>
        <time>2022-10-15T11:13:26.000Z</time>
      </trkpt>
      <trkpt lat="45.14438" lon="5.37676">
        <ele>253.4</ele>
        <time>2022-10-15T11:13:27.000Z</time>
      </trkpt>
      <trkpt lat="45.1444" lon="5.37677">
        <ele>253.6</ele>
        <time>2022-10-15T11:13:28.000Z</time>
      </trkpt>
      <trkpt lat="45.14443" lon="5.37677">
        <ele>253.8</ele>
        <time>2022-10-15T11:13:29.000Z</time>
      </trkpt>
      <trkpt lat="45.14444" lon="5.37678">
        <ele>254</ele>
        <time>2022-10-15T11:13:30.000Z</time>
      </trkpt>
      <trkpt lat="45.14446" lon="5.37679">
        <ele>254.1</ele>
        <time>2022-10-15T11:13:31.000Z</time>
      </trkpt>
      <trkpt lat="45.14448" lon="5.37679">
        <ele>254.1</ele>
        <time>2022-10-15T11:13:32.000Z</time>
      </trkpt>
      <trkpt lat="45.1445" lon="5.37679">
        <ele>254.1</ele>
        <time>2022-10-15T11:13:33.000Z</time>
      </trkpt>
      <trkpt lat="45.14452" lon="5.3768">
        <ele>254.2</ele>
        <time>2022-10-15T11:13:34.000Z</time>
      </trkpt>
      <trkpt lat="45.14454" lon="5.3768">
        <ele>254.2</ele>
        <time>2022-10-15T11:13:35.000Z</time>
      </trkpt>
      <trkpt lat="45.14458" lon="5.37681">
        <ele>254.3</ele>
        <time>2022-10-15T11:13:37.000Z</time>
      </trkpt>
      <trkpt lat="45.14461" lon="5.37682">
        <ele>254.4</ele>
        <time>2022-10-15T11:13:39.000Z</time>
      </trkpt>
      <trkpt lat="45.14463" lon="5.37682">
        <ele>254.4</ele>
        <time>2022-10-15T11:13:40.000Z</time>
      </trkpt>
      <trkpt lat="45.14465" lon="5.37682">
        <ele>254.5</ele>
        <time>2022-10-15T11:13:41.000Z</time>
      </trkpt>
      <trkpt lat="45.14467" lon="5.37683">
        <ele>254.5</ele>
        <time>2022-10-15T11:13:42.000Z</time>
      </trkpt>
      <trkpt lat="45.1447" lon="5.37684">
        <ele>254.7</ele>
        <time>2022-10-15T11:13:44.000Z</time>
      </trkpt>
      <trkpt lat="45.14472" lon="5.37685">
        <ele>255</ele>
        <time>2022-10-15T11:13:46.000Z</time>
      </trkpt>
      <trkpt lat="45.14475" lon="5.37688">
        <ele>255.5</ele>
        <time>2022-10-15T11:13:48.000Z</time>
      </trkpt>
      <trkpt lat="45.14476" lon="5.37689">
        <ele>255.6</ele>
        <time>2022-10-15T11:13:49.000Z</time>
      </trkpt>
      <trkpt lat="45.14478" lon="5.3769">
        <ele>255.6</ele>
        <time>2022-10-15T11:13:50.000Z</time>
      </trkpt>
      <trkpt lat="45.1448" lon="5.37691">
        <ele>255.7</ele>
        <time>2022-10-15T11:13:51.000Z</time>
      </trkpt>
      <trkpt lat="45.14483" lon="5.37694">
        <ele>256.1</ele>
        <time>2022-10-15T11:13:53.000Z</time>
      </trkpt>
      <trkpt lat="45.14486" lon="5.37697">
        <ele>256.6</ele>
        <time>2022-10-15T11:13:55.000Z</time>
      </trkpt>
      <trkpt lat="45.14488" lon="5.37699">
        <ele>257.1</ele>
        <time>2022-10-15T11:13:57.000Z</time>
      </trkpt>
      <trkpt lat="45.14491" lon="5.37702">
        <ele>257.6</ele>
        <time>2022-10-15T11:13:59.000Z</time>
      </trkpt>
      <trkpt lat="45.14493" lon="5.37705">
        <ele>258.1</ele>
        <time>2022-10-15T11:14:01.000Z</time>
      </trkpt>
      <trkpt lat="45.14495" lon="5.37705">
        <ele>258.1</ele>
        <time>2022-10-15T11:14:02.000Z</time>
      </trkpt>
      <trkpt lat="45.14497" lon="5.37706">
        <ele>258.3</ele>
        <time>2022-10-15T11:14:03.000Z</time>
      </trkpt>
      <trkpt lat="45.145" lon="5.37708">
        <ele>258.3</ele>
        <time>2022-10-15T11:14:05.000Z</time>
      </trkpt>
      <trkpt lat="45.14503" lon="5.37708">
        <ele>258</ele>
        <time>2022-10-15T11:14:06.000Z</time>
      </trkpt>
      <trkpt lat="45.14506" lon="5.37709">
        <ele>257.7</ele>
        <time>2022-10-15T11:14:08.000Z</time>
      </trkpt>
      <trkpt lat="45.14508" lon="5.37712">
        <ele>258.1</ele>
        <time>2022-10-15T11:14:10.000Z</time>
      </trkpt>
      <trkpt lat="45.14509" lon="5.37715">
        <ele>258.6</ele>
        <time>2022-10-15T11:14:12.000Z</time>
      </trkpt>
      <trkpt lat="45.1451" lon="5.37717">
        <ele>259</ele>
        <time>2022-10-15T11:14:13.000Z</time>
      </trkpt>
      <trkpt lat="45.14511" lon="5.37719">
        <ele>259.1</ele>
        <time>2022-10-15T11:14:14.000Z</time>
      </trkpt>
      <trkpt lat="45.14513" lon="5.37721">
        <ele>259.4</ele>
        <time>2022-10-15T11:14:15.000Z</time>
      </trkpt>
      <trkpt lat="45.14514" lon="5.37723">
        <ele>259.6</ele>
        <time>2022-10-15T11:14:16.000Z</time>
      </trkpt>
      <trkpt lat="45.14515" lon="5.37725">
        <ele>260</ele>
        <time>2022-10-15T11:14:17.000Z</time>
      </trkpt>
      <trkpt lat="45.14517" lon="5.37728">
        <ele>260.6</ele>
        <time>2022-10-15T11:14:18.000Z</time>
      </trkpt>
      <trkpt lat="45.14518" lon="5.3773">
        <ele>261</ele>
        <time>2022-10-15T11:14:19.000Z</time>
      </trkpt>
      <trkpt lat="45.1452" lon="5.37733">
        <ele>261.7</ele>
        <time>2022-10-15T11:14:21.000Z</time>
      </trkpt>
      <trkpt lat="45.14521" lon="5.37735">
        <ele>262</ele>
        <time>2022-10-15T11:14:22.000Z</time>
      </trkpt>
      <trkpt lat="45.14523" lon="5.37737">
        <ele>262.4</ele>
        <time>2022-10-15T11:14:23.000Z</time>
      </trkpt>
      <trkpt lat="45.14524" lon="5.37739">
        <ele>262.6</ele>
        <time>2022-10-15T11:14:24.000Z</time>
      </trkpt>
      <trkpt lat="45.14527" lon="5.37743">
        <ele>263</ele>
        <time>2022-10-15T11:14:26.000Z</time>
      </trkpt>
      <trkpt lat="45.1453" lon="5.37746">
        <ele>263.4</ele>
        <time>2022-10-15T11:14:28.000Z</time>
      </trkpt>
      <trkpt lat="45.14532" lon="5.3775">
        <ele>264</ele>
        <time>2022-10-15T11:14:30.000Z</time>
      </trkpt>
      <trkpt lat="45.14534" lon="5.37752">
        <ele>264.1</ele>
        <time>2022-10-15T11:14:31.000Z</time>
      </trkpt>
      <trkpt lat="45.14536" lon="5.37753">
        <ele>264.1</ele>
        <time>2022-10-15T11:14:32.000Z</time>
      </trkpt>
      <trkpt lat="45.14538" lon="5.37756">
        <ele>264.4</ele>
        <time>2022-10-15T11:14:34.000Z</time>
      </trkpt>
      <trkpt lat="45.1454" lon="5.37758">
        <ele>264.5</ele>
        <time>2022-10-15T11:14:35.000Z</time>
      </trkpt>
      <trkpt lat="45.14542" lon="5.37759">
        <ele>264.5</ele>
        <time>2022-10-15T11:14:36.000Z</time>
      </trkpt>
      <trkpt lat="45.14545" lon="5.37762">
        <ele>264.6</ele>
        <time>2022-10-15T11:14:38.000Z</time>
      </trkpt>
      <trkpt lat="45.14546" lon="5.37764">
        <ele>264.7</ele>
        <time>2022-10-15T11:14:39.000Z</time>
      </trkpt>
      <trkpt lat="45.14549" lon="5.37767">
        <ele>264.8</ele>
        <time>2022-10-15T11:14:41.000Z</time>
      </trkpt>
      <trkpt lat="45.14551" lon="5.3777">
        <ele>265</ele>
        <time>2022-10-15T11:14:43.000Z</time>
      </trkpt>
      <trkpt lat="45.14553" lon="5.37771">
        <ele>265</ele>
        <time>2022-10-15T11:14:44.000Z</time>
      </trkpt>
      <trkpt lat="45.14554" lon="5.37773">
        <ele>265</ele>
        <time>2022-10-15T11:14:45.000Z</time>
      </trkpt>
      <trkpt lat="45.14557" lon="5.37776">
        <ele>265.2</ele>
        <time>2022-10-15T11:14:47.000Z</time>
      </trkpt>
      <trkpt lat="45.14559" lon="5.37778">
        <ele>265.2</ele>
        <time>2022-10-15T11:14:48.000Z</time>
      </trkpt>
      <trkpt lat="45.14561" lon="5.37779">
        <ele>265.2</ele>
        <time>2022-10-15T11:14:49.000Z</time>
      </trkpt>
      <trkpt lat="45.14562" lon="5.3778">
        <ele>265</ele>
        <time>2022-10-15T11:14:50.000Z</time>
      </trkpt>
      <trkpt lat="45.14565" lon="5.37783">
        <ele>265.1</ele>
        <time>2022-10-15T11:14:52.000Z</time>
      </trkpt>
      <trkpt lat="45.14567" lon="5.37785">
        <ele>265.1</ele>
        <time>2022-10-15T11:14:53.000Z</time>
      </trkpt>
      <trkpt lat="45.1457" lon="5.37788">
        <ele>265.2</ele>
        <time>2022-10-15T11:14:55.000Z</time>
      </trkpt>
      <trkpt lat="45.14572" lon="5.37792">
        <ele>265.5</ele>
        <time>2022-10-15T11:14:57.000Z</time>
      </trkpt>
      <trkpt lat="45.14575" lon="5.37794">
        <ele>265.5</ele>
        <time>2022-10-15T11:14:59.000Z</time>
      </trkpt>
      <trkpt lat="45.14577" lon="5.37798">
        <ele>265.9</ele>
        <time>2022-10-15T11:15:01.000Z</time>
      </trkpt>
      <trkpt lat="45.14579" lon="5.37801">
        <ele>266.1</ele>
        <time>2022-10-15T11:15:03.000Z</time>
      </trkpt>
      <trkpt lat="45.14581" lon="5.37805">
        <ele>266.5</ele>
        <time>2022-10-15T11:15:05.000Z</time>
      </trkpt>
      <trkpt lat="45.14583" lon="5.37809">
        <ele>267.1</ele>
        <time>2022-10-15T11:15:07.000Z</time>
      </trkpt>
      <trkpt lat="45.14584" lon="5.37813">
        <ele>267.7</ele>
        <time>2022-10-15T11:15:09.000Z</time>
      </trkpt>
      <trkpt lat="45.14586" lon="5.37817">
        <ele>268</ele>
        <time>2022-10-15T11:15:11.000Z</time>
      </trkpt>
      <trkpt lat="45.14588" lon="5.3782">
        <ele>268.5</ele>
        <time>2022-10-15T11:15:13.000Z</time>
      </trkpt>
      <trkpt lat="45.1459" lon="5.37823">
        <ele>268.7</ele>
        <time>2022-10-15T11:15:15.000Z</time>
      </trkpt>
      <trkpt lat="45.14593" lon="5.37826">
        <ele>268.6</ele>
        <time>2022-10-15T11:15:17.000Z</time>
      </trkpt>
      <trkpt lat="45.14594" lon="5.37828">
        <ele>268.5</ele>
        <time>2022-10-15T11:15:18.000Z</time>
      </trkpt>
      <trkpt lat="45.14596" lon="5.37829">
        <ele>268.2</ele>
        <time>2022-10-15T11:15:19.000Z</time>
      </trkpt>
      <trkpt lat="45.14599" lon="5.37831">
        <ele>268.1</ele>
        <time>2022-10-15T11:15:21.000Z</time>
      </trkpt>
      <trkpt lat="45.14602" lon="5.37834">
        <ele>267.8</ele>
        <time>2022-10-15T11:15:23.000Z</time>
      </trkpt>
      <trkpt lat="45.14604" lon="5.37835">
        <ele>267.6</ele>
        <time>2022-10-15T11:15:24.000Z</time>
      </trkpt>
      <trkpt lat="45.14607" lon="5.37838">
        <ele>267.5</ele>
        <time>2022-10-15T11:15:26.000Z</time>
      </trkpt>
      <trkpt lat="45.14608" lon="5.3784">
        <ele>267.5</ele>
        <time>2022-10-15T11:15:27.000Z</time>
      </trkpt>
      <trkpt lat="45.1461" lon="5.37842">
        <ele>267.3</ele>
        <time>2022-10-15T11:15:28.000Z</time>
      </trkpt>
      <trkpt lat="45.14613" lon="5.37842">
        <ele>266.9</ele>
        <time>2022-10-15T11:15:29.000Z</time>
      </trkpt>
      <trkpt lat="45.14615" lon="5.37843">
        <ele>266.5</ele>
        <time>2022-10-15T11:15:30.000Z</time>
      </trkpt>
      <trkpt lat="45.14617" lon="5.37844">
        <ele>266.3</ele>
        <time>2022-10-15T11:15:31.000Z</time>
      </trkpt>
      <trkpt lat="45.14618" lon="5.37848">
        <ele>266.8</ele>
        <time>2022-10-15T11:15:33.000Z</time>
      </trkpt>
      <trkpt lat="45.1462" lon="5.37851">
        <ele>267</ele>
        <time>2022-10-15T11:15:35.000Z</time>
      </trkpt>
      <trkpt lat="45.14623" lon="5.37853">
        <ele>266.8</ele>
        <time>2022-10-15T11:15:37.000Z</time>
      </trkpt>
      <trkpt lat="45.14625" lon="5.37856">
        <ele>266.8</ele>
        <time>2022-10-15T11:15:39.000Z</time>
      </trkpt>
      <trkpt lat="45.14626" lon="5.37859">
        <ele>267.2</ele>
        <time>2022-10-15T11:15:41.000Z</time>
      </trkpt>
      <trkpt lat="45.14628" lon="5.37863">
        <ele>267.5</ele>
        <time>2022-10-15T11:15:43.000Z</time>
      </trkpt>
      <trkpt lat="45.14629" lon="5.37866">
        <ele>268.1</ele>
        <time>2022-10-15T11:15:45.000Z</time>
      </trkpt>
      <trkpt lat="45.14632" lon="5.37869">
        <ele>268.2</ele>
        <time>2022-10-15T11:15:47.000Z</time>
      </trkpt>
      <trkpt lat="45.14634" lon="5.37872">
        <ele>268.2</ele>
        <time>2022-10-15T11:15:49.000Z</time>
      </trkpt>
      <trkpt lat="45.14636" lon="5.37874">
        <ele>268.1</ele>
        <time>2022-10-15T11:15:51.000Z</time>
      </trkpt>
      <trkpt lat="45.14637" lon="5.37878">
        <ele>268.7</ele>
        <time>2022-10-15T11:15:53.000Z</time>
      </trkpt>
      <trkpt lat="45.14638" lon="5.37881">
        <ele>269.3</ele>
        <time>2022-10-15T11:15:55.000Z</time>
      </trkpt>
      <trkpt lat="45.1464" lon="5.37885">
        <ele>269.8</ele>
        <time>2022-10-15T11:15:57.000Z</time>
      </trkpt>
      <trkpt lat="45.14641" lon="5.37888">
        <ele>270</ele>
        <time>2022-10-15T11:15:58.000Z</time>
      </trkpt>
      <trkpt lat="45.14643" lon="5.3789">
        <ele>270</ele>
        <time>2022-10-15T11:15:59.000Z</time>
      </trkpt>
      <trkpt lat="45.14645" lon="5.37892">
        <ele>270</ele>
        <time>2022-10-15T11:16:00.000Z</time>
      </trkpt>
      <trkpt lat="45.14646" lon="5.37895">
        <ele>270.1</ele>
        <time>2022-10-15T11:16:01.000Z</time>
      </trkpt>
      <trkpt lat="45.14647" lon="5.37897">
        <ele>270.3</ele>
        <time>2022-10-15T11:16:02.000Z</time>
      </trkpt>
      <trkpt lat="45.14647" lon="5.379">
        <ele>271</ele>
        <time>2022-10-15T11:16:03.000Z</time>
      </trkpt>
      <trkpt lat="45.14646" lon="5.37902">
        <ele>271.8</ele>
        <time>2022-10-15T11:16:04.000Z</time>
      </trkpt>
      <trkpt lat="45.14644" lon="5.37905">
        <ele>272.9</ele>
        <time>2022-10-15T11:16:06.000Z</time>
      </trkpt>
      <trkpt lat="45.14641" lon="5.37905">
        <ele>273.8</ele>
        <time>2022-10-15T11:16:08.000Z</time>
      </trkpt>
      <trkpt lat="45.14639" lon="5.37904">
        <ele>274.1</ele>
        <time>2022-10-15T11:16:10.000Z</time>
      </trkpt>
      <trkpt lat="45.14637" lon="5.37901">
        <ele>274.1</ele>
        <time>2022-10-15T11:16:12.000Z</time>
      </trkpt>
      <trkpt lat="45.14635" lon="5.37897">
        <ele>273.8</ele>
        <time>2022-10-15T11:16:14.000Z</time>
      </trkpt>
      <trkpt lat="45.14634" lon="5.37894">
        <ele>273.5</ele>
        <time>2022-10-15T11:16:16.000Z</time>
      </trkpt>
      <trkpt lat="45.14633" lon="5.37892">
        <ele>273.3</ele>
        <time>2022-10-15T11:16:17.000Z</time>
      </trkpt>
      <trkpt lat="45.14631" lon="5.37889">
        <ele>273.3</ele>
        <time>2022-10-15T11:16:19.000Z</time>
      </trkpt>
      <trkpt lat="45.14629" lon="5.37885">
        <ele>272.9</ele>
        <time>2022-10-15T11:16:21.000Z</time>
      </trkpt>
      <trkpt lat="45.14628" lon="5.37883">
        <ele>272.5</ele>
        <time>2022-10-15T11:16:23.000Z</time>
      </trkpt>
      <trkpt lat="45.14626" lon="5.37879">
        <ele>272.4</ele>
        <time>2022-10-15T11:16:25.000Z</time>
      </trkpt>
      <trkpt lat="45.14624" lon="5.37878">
        <ele>272.8</ele>
        <time>2022-10-15T11:16:26.000Z</time>
      </trkpt>
      <trkpt lat="45.14621" lon="5.37878">
        <ele>273.4</ele>
        <time>2022-10-15T11:16:28.000Z</time>
      </trkpt>
      <trkpt lat="45.14618" lon="5.37876">
        <ele>273.8</ele>
        <time>2022-10-15T11:16:30.000Z</time>
      </trkpt>
      <trkpt lat="45.14616" lon="5.37873">
        <ele>273.8</ele>
        <time>2022-10-15T11:16:32.000Z</time>
      </trkpt>
      <trkpt lat="45.14613" lon="5.3787">
        <ele>273.7</ele>
        <time>2022-10-15T11:16:34.000Z</time>
      </trkpt>
      <trkpt lat="45.14611" lon="5.37867">
        <ele>273.5</ele>
        <time>2022-10-15T11:16:36.000Z</time>
      </trkpt>
      <trkpt lat="45.14608" lon="5.37864">
        <ele>273.6</ele>
        <time>2022-10-15T11:16:38.000Z</time>
      </trkpt>
      <trkpt lat="45.14607" lon="5.37863">
        <ele>273.8</ele>
        <time>2022-10-15T11:16:39.000Z</time>
      </trkpt>
      <trkpt lat="45.14605" lon="5.37861">
        <ele>273.8</ele>
        <time>2022-10-15T11:16:40.000Z</time>
      </trkpt>
      <trkpt lat="45.14602" lon="5.3786">
        <ele>274.5</ele>
        <time>2022-10-15T11:16:42.000Z</time>
      </trkpt>
      <trkpt lat="45.14598" lon="5.37859">
        <ele>275.2</ele>
        <time>2022-10-15T11:16:44.000Z</time>
      </trkpt>
      <trkpt lat="45.14595" lon="5.37858">
        <ele>275.7</ele>
        <time>2022-10-15T11:16:46.000Z</time>
      </trkpt>
      <trkpt lat="45.14592" lon="5.37857">
        <ele>276.5</ele>
        <time>2022-10-15T11:16:48.000Z</time>
      </trkpt>
      <trkpt lat="45.14588" lon="5.37855">
        <ele>277.1</ele>
        <time>2022-10-15T11:16:50.000Z</time>
      </trkpt>
      <trkpt lat="45.14585" lon="5.37855">
        <ele>277.9</ele>
        <time>2022-10-15T11:16:52.000Z</time>
      </trkpt>
      <trkpt lat="45.14582" lon="5.37854">
        <ele>278.4</ele>
        <time>2022-10-15T11:16:54.000Z</time>
      </trkpt>
      <trkpt lat="45.14581" lon="5.37853">
        <ele>278.6</ele>
        <time>2022-10-15T11:16:56.000Z</time>
      </trkpt>
      <trkpt lat="45.14578" lon="5.3785">
        <ele>278.7</ele>
        <time>2022-10-15T11:16:58.000Z</time>
      </trkpt>
      <trkpt lat="45.14576" lon="5.37849">
        <ele>279.1</ele>
        <time>2022-10-15T11:17:00.000Z</time>
      </trkpt>
      <trkpt lat="45.14573" lon="5.37847">
        <ele>279.3</ele>
        <time>2022-10-15T11:17:02.000Z</time>
      </trkpt>
      <trkpt lat="45.14571" lon="5.37846">
        <ele>279.8</ele>
        <time>2022-10-15T11:17:04.000Z</time>
      </trkpt>
      <trkpt lat="45.14568" lon="5.37844">
        <ele>280.1</ele>
        <time>2022-10-15T11:17:06.000Z</time>
      </trkpt>
      <trkpt lat="45.14565" lon="5.37842">
        <ele>280.5</ele>
        <time>2022-10-15T11:17:08.000Z</time>
      </trkpt>
      <trkpt lat="45.14562" lon="5.3784">
        <ele>280.8</ele>
        <time>2022-10-15T11:17:10.000Z</time>
      </trkpt>
      <trkpt lat="45.1456" lon="5.37838">
        <ele>281.1</ele>
        <time>2022-10-15T11:17:12.000Z</time>
      </trkpt>
      <trkpt lat="45.14557" lon="5.37836">
        <ele>281.1</ele>
        <time>2022-10-15T11:17:14.000Z</time>
      </trkpt>
      <trkpt lat="45.14554" lon="5.37833">
        <ele>281.3</ele>
        <time>2022-10-15T11:17:16.000Z</time>
      </trkpt>
      <trkpt lat="45.14552" lon="5.37831">
        <ele>281.4</ele>
        <time>2022-10-15T11:17:18.000Z</time>
      </trkpt>
      <trkpt lat="45.14549" lon="5.37829">
        <ele>281.5</ele>
        <time>2022-10-15T11:17:20.000Z</time>
      </trkpt>
      <trkpt lat="45.14546" lon="5.37827">
        <ele>281.7</ele>
        <time>2022-10-15T11:17:22.000Z</time>
      </trkpt>
      <trkpt lat="45.14543" lon="5.37825">
        <ele>282.1</ele>
        <time>2022-10-15T11:17:24.000Z</time>
      </trkpt>
      <trkpt lat="45.1454" lon="5.37824">
        <ele>282.5</ele>
        <time>2022-10-15T11:17:26.000Z</time>
      </trkpt>
      <trkpt lat="45.14538" lon="5.37822">
        <ele>282.6</ele>
        <time>2022-10-15T11:17:28.000Z</time>
      </trkpt>
      <trkpt lat="45.14535" lon="5.3782">
        <ele>282.6</ele>
        <time>2022-10-15T11:17:30.000Z</time>
      </trkpt>
      <trkpt lat="45.14533" lon="5.37817">
        <ele>282.6</ele>
        <time>2022-10-15T11:17:32.000Z</time>
      </trkpt>
      <trkpt lat="45.1453" lon="5.37814">
        <ele>282.5</ele>
        <time>2022-10-15T11:17:34.000Z</time>
      </trkpt>
      <trkpt lat="45.14527" lon="5.37811">
        <ele>282.5</ele>
        <time>2022-10-15T11:17:36.000Z</time>
      </trkpt>
      <trkpt lat="45.14524" lon="5.3781">
        <ele>282.9</ele>
        <time>2022-10-15T11:17:38.000Z</time>
      </trkpt>
      <trkpt lat="45.14522" lon="5.37809">
        <ele>283.1</ele>
        <time>2022-10-15T11:17:39.000Z</time>
      </trkpt>
      <trkpt lat="45.1452" lon="5.37808">
        <ele>283.3</ele>
        <time>2022-10-15T11:17:40.000Z</time>
      </trkpt>
      <trkpt lat="45.14518" lon="5.37807">
        <ele>283.6</ele>
        <time>2022-10-15T11:17:41.000Z</time>
      </trkpt>
      <trkpt lat="45.14516" lon="5.37806">
        <ele>283.7</ele>
        <time>2022-10-15T11:17:42.000Z</time>
      </trkpt>
      <trkpt lat="45.14514" lon="5.37805">
        <ele>283.9</ele>
        <time>2022-10-15T11:17:43.000Z</time>
      </trkpt>
      <trkpt lat="45.14512" lon="5.37804">
        <ele>284</ele>
        <time>2022-10-15T11:17:44.000Z</time>
      </trkpt>
      <trkpt lat="45.1451" lon="5.37804">
        <ele>284.2</ele>
        <time>2022-10-15T11:17:45.000Z</time>
      </trkpt>
      <trkpt lat="45.14507" lon="5.37803">
        <ele>284.7</ele>
        <time>2022-10-15T11:17:47.000Z</time>
      </trkpt>
      <trkpt lat="45.14503" lon="5.37802">
        <ele>285.1</ele>
        <time>2022-10-15T11:17:49.000Z</time>
      </trkpt>
      <trkpt lat="45.14501" lon="5.378">
        <ele>285.2</ele>
        <time>2022-10-15T11:17:51.000Z</time>
      </trkpt>
      <trkpt lat="45.14498" lon="5.37798">
        <ele>285.2</ele>
        <time>2022-10-15T11:17:53.000Z</time>
      </trkpt>
      <trkpt lat="45.14495" lon="5.37797">
        <ele>285.1</ele>
        <time>2022-10-15T11:17:55.000Z</time>
      </trkpt>
      <trkpt lat="45.14492" lon="5.37797">
        <ele>285.3</ele>
        <time>2022-10-15T11:17:57.000Z</time>
      </trkpt>
      <trkpt lat="45.14489" lon="5.37795">
        <ele>285.2</ele>
        <time>2022-10-15T11:17:59.000Z</time>
      </trkpt>
      <trkpt lat="45.14486" lon="5.37795">
        <ele>285.4</ele>
        <time>2022-10-15T11:18:01.000Z</time>
      </trkpt>
      <trkpt lat="45.14483" lon="5.37794">
        <ele>285.5</ele>
        <time>2022-10-15T11:18:03.000Z</time>
      </trkpt>
      <trkpt lat="45.14479" lon="5.37793">
        <ele>285.5</ele>
        <time>2022-10-15T11:18:05.000Z</time>
      </trkpt>
      <trkpt lat="45.14476" lon="5.37791">
        <ele>285.4</ele>
        <time>2022-10-15T11:18:07.000Z</time>
      </trkpt>
      <trkpt lat="45.14474" lon="5.3779">
        <ele>285.4</ele>
        <time>2022-10-15T11:18:08.000Z</time>
      </trkpt>
      <trkpt lat="45.14472" lon="5.37789">
        <ele>285.3</ele>
        <time>2022-10-15T11:18:10.000Z</time>
      </trkpt>
      <trkpt lat="45.14468" lon="5.3779">
        <ele>285.5</ele>
        <time>2022-10-15T11:18:12.000Z</time>
      </trkpt>
      <trkpt lat="45.14465" lon="5.37791">
        <ele>286</ele>
        <time>2022-10-15T11:18:14.000Z</time>
      </trkpt>
      <trkpt lat="45.14463" lon="5.37792">
        <ele>286.3</ele>
        <time>2022-10-15T11:18:15.000Z</time>
      </trkpt>
      <trkpt lat="45.14461" lon="5.37795">
        <ele>287.1</ele>
        <time>2022-10-15T11:18:17.000Z</time>
      </trkpt>
      <trkpt lat="45.1446" lon="5.37798">
        <ele>288.1</ele>
        <time>2022-10-15T11:18:19.000Z</time>
      </trkpt>
      <trkpt lat="45.14459" lon="5.378">
        <ele>288.9</ele>
        <time>2022-10-15T11:18:22.000Z</time>
      </trkpt>
      <trkpt lat="45.14458" lon="5.37804">
        <ele>290</ele>
        <time>2022-10-15T11:18:24.000Z</time>
      </trkpt>
      <trkpt lat="45.14458" lon="5.37808">
        <ele>291.1</ele>
        <time>2022-10-15T11:18:26.000Z</time>
      </trkpt>
      <trkpt lat="45.14458" lon="5.3781">
        <ele>291.7</ele>
        <time>2022-10-15T11:18:27.000Z</time>
      </trkpt>
      <trkpt lat="45.1446" lon="5.37814">
        <ele>292.6</ele>
        <time>2022-10-15T11:18:29.000Z</time>
      </trkpt>
      <trkpt lat="45.14462" lon="5.37816">
        <ele>293</ele>
        <time>2022-10-15T11:18:30.000Z</time>
      </trkpt>
      <trkpt lat="45.14464" lon="5.3782">
        <ele>293.6</ele>
        <time>2022-10-15T11:18:32.000Z</time>
      </trkpt>
      <trkpt lat="45.14464" lon="5.37824">
        <ele>294.7</ele>
        <time>2022-10-15T11:18:34.000Z</time>
      </trkpt>
      <trkpt lat="45.14465" lon="5.37826">
        <ele>295.1</ele>
        <time>2022-10-15T11:18:35.000Z</time>
      </trkpt>
      <trkpt lat="45.14466" lon="5.37829">
        <ele>295.6</ele>
        <time>2022-10-15T11:18:36.000Z</time>
      </trkpt>
      <trkpt lat="45.14468" lon="5.37831">
        <ele>296</ele>
        <time>2022-10-15T11:18:37.000Z</time>
      </trkpt>
      <trkpt lat="45.14469" lon="5.37833">
        <ele>296.1</ele>
        <time>2022-10-15T11:18:38.000Z</time>
      </trkpt>
      <trkpt lat="45.1447" lon="5.37835">
        <ele>296.5</ele>
        <time>2022-10-15T11:18:39.000Z</time>
      </trkpt>
      <trkpt lat="45.14472" lon="5.37838">
        <ele>297.3</ele>
        <time>2022-10-15T11:18:41.000Z</time>
      </trkpt>
      <trkpt lat="45.14474" lon="5.37842">
        <ele>297.9</ele>
        <time>2022-10-15T11:18:43.000Z</time>
      </trkpt>
      <trkpt lat="45.14476" lon="5.37846">
        <ele>298.6</ele>
        <time>2022-10-15T11:18:45.000Z</time>
      </trkpt>
      <trkpt lat="45.14478" lon="5.37849">
        <ele>299.3</ele>
        <time>2022-10-15T11:18:47.000Z</time>
      </trkpt>
      <trkpt lat="45.1448" lon="5.37851">
        <ele>299.5</ele>
        <time>2022-10-15T11:18:48.000Z</time>
      </trkpt>
      <trkpt lat="45.14481" lon="5.37856">
        <ele>300.4</ele>
        <time>2022-10-15T11:18:50.000Z</time>
      </trkpt>
      <trkpt lat="45.14483" lon="5.37859">
        <ele>301</ele>
        <time>2022-10-15T11:18:52.000Z</time>
      </trkpt>
      <trkpt lat="45.14486" lon="5.37862">
        <ele>301.2</ele>
        <time>2022-10-15T11:18:54.000Z</time>
      </trkpt>
      <trkpt lat="45.14488" lon="5.37865">
        <ele>301.7</ele>
        <time>2022-10-15T11:18:56.000Z</time>
      </trkpt>
      <trkpt lat="45.1449" lon="5.37869">
        <ele>302.2</ele>
        <time>2022-10-15T11:18:58.000Z</time>
      </trkpt>
      <trkpt lat="45.14492" lon="5.37871">
        <ele>302.4</ele>
        <time>2022-10-15T11:18:59.000Z</time>
      </trkpt>
      <trkpt lat="45.14494" lon="5.37872">
        <ele>302.5</ele>
        <time>2022-10-15T11:19:00.000Z</time>
      </trkpt>
      <trkpt lat="45.14496" lon="5.37873">
        <ele>302.5</ele>
        <time>2022-10-15T11:19:01.000Z</time>
      </trkpt>
      <trkpt lat="45.14499" lon="5.37874">
        <ele>302.4</ele>
        <time>2022-10-15T11:19:03.000Z</time>
      </trkpt>
      <trkpt lat="45.14502" lon="5.37876">
        <ele>302.4</ele>
        <time>2022-10-15T11:19:05.000Z</time>
      </trkpt>
      <trkpt lat="45.14504" lon="5.37878">
        <ele>302.5</ele>
        <time>2022-10-15T11:19:07.000Z</time>
      </trkpt>
      <trkpt lat="45.14507" lon="5.37881">
        <ele>302.7</ele>
        <time>2022-10-15T11:19:09.000Z</time>
      </trkpt>
      <trkpt lat="45.1451" lon="5.37883">
        <ele>302.8</ele>
        <time>2022-10-15T11:19:11.000Z</time>
      </trkpt>
      <trkpt lat="45.14513" lon="5.37885">
        <ele>302.6</ele>
        <time>2022-10-15T11:19:13.000Z</time>
      </trkpt>
      <trkpt lat="45.14515" lon="5.37885">
        <ele>302.5</ele>
        <time>2022-10-15T11:19:14.000Z</time>
      </trkpt>
      <trkpt lat="45.14518" lon="5.37887">
        <ele>302.2</ele>
        <time>2022-10-15T11:19:16.000Z</time>
      </trkpt>
      <trkpt lat="45.1452" lon="5.37888">
        <ele>302.2</ele>
        <time>2022-10-15T11:19:17.000Z</time>
      </trkpt>
      <trkpt lat="45.14522" lon="5.37889">
        <ele>302.2</ele>
        <time>2022-10-15T11:19:18.000Z</time>
      </trkpt>
      <trkpt lat="45.14523" lon="5.37891">
        <ele>302.2</ele>
        <time>2022-10-15T11:19:19.000Z</time>
      </trkpt>
      <trkpt lat="45.14525" lon="5.37892">
        <ele>302.3</ele>
        <time>2022-10-15T11:19:20.000Z</time>
      </trkpt>
      <trkpt lat="45.14527" lon="5.37893">
        <ele>302.3</ele>
        <time>2022-10-15T11:19:21.000Z</time>
      </trkpt>
      <trkpt lat="45.14528" lon="5.37895">
        <ele>302.4</ele>
        <time>2022-10-15T11:19:22.000Z</time>
      </trkpt>
      <trkpt lat="45.1453" lon="5.37896">
        <ele>302.5</ele>
        <time>2022-10-15T11:19:23.000Z</time>
      </trkpt>
      <trkpt lat="45.14532" lon="5.37899">
        <ele>302.6</ele>
        <time>2022-10-15T11:19:25.000Z</time>
      </trkpt>
      <trkpt lat="45.14536" lon="5.37902">
        <ele>302.6</ele>
        <time>2022-10-15T11:19:27.000Z</time>
      </trkpt>
      <trkpt lat="45.14537" lon="5.37904">
        <ele>302.7</ele>
        <time>2022-10-15T11:19:28.000Z</time>
      </trkpt>
      <trkpt lat="45.1454" lon="5.37907">
        <ele>302.9</ele>
        <time>2022-10-15T11:19:30.000Z</time>
      </trkpt>
      <trkpt lat="45.14543" lon="5.37909">
        <ele>302.9</ele>
        <time>2022-10-15T11:19:32.000Z</time>
      </trkpt>
      <trkpt lat="45.14546" lon="5.37912">
        <ele>303</ele>
        <time>2022-10-15T11:19:34.000Z</time>
      </trkpt>
      <trkpt lat="45.14547" lon="5.37914">
        <ele>303</ele>
        <time>2022-10-15T11:19:35.000Z</time>
      </trkpt>
      <trkpt lat="45.1455" lon="5.37916">
        <ele>303</ele>
        <time>2022-10-15T11:19:37.000Z</time>
      </trkpt>
      <trkpt lat="45.14551" lon="5.37918">
        <ele>303.3</ele>
        <time>2022-10-15T11:19:38.000Z</time>
      </trkpt>
      <trkpt lat="45.14552" lon="5.37921">
        <ele>303.7</ele>
        <time>2022-10-15T11:19:39.000Z</time>
      </trkpt>
      <trkpt lat="45.14554" lon="5.37923">
        <ele>304</ele>
        <time>2022-10-15T11:19:40.000Z</time>
      </trkpt>
      <trkpt lat="45.14555" lon="5.37925">
        <ele>304.3</ele>
        <time>2022-10-15T11:19:41.000Z</time>
      </trkpt>
      <trkpt lat="45.14556" lon="5.37927">
        <ele>304.3</ele>
        <time>2022-10-15T11:19:42.000Z</time>
      </trkpt>
      <trkpt lat="45.14558" lon="5.37929">
        <ele>304.4</ele>
        <time>2022-10-15T11:19:43.000Z</time>
      </trkpt>
      <trkpt lat="45.1456" lon="5.3793">
        <ele>304.3</ele>
        <time>2022-10-15T11:19:44.000Z</time>
      </trkpt>
      <trkpt lat="45.14561" lon="5.37933">
        <ele>304.7</ele>
        <time>2022-10-15T11:19:46.000Z</time>
      </trkpt>
      <trkpt lat="45.14562" lon="5.37936">
        <ele>305.1</ele>
        <time>2022-10-15T11:19:47.000Z</time>
      </trkpt>
      <trkpt lat="45.14564" lon="5.37939">
        <ele>305.6</ele>
        <time>2022-10-15T11:19:49.000Z</time>
      </trkpt>
      <trkpt lat="45.14565" lon="5.37941">
        <ele>305.8</ele>
        <time>2022-10-15T11:19:50.000Z</time>
      </trkpt>
      <trkpt lat="45.14566" lon="5.37944">
        <ele>306.1</ele>
        <time>2022-10-15T11:19:51.000Z</time>
      </trkpt>
      <trkpt lat="45.14568" lon="5.37945">
        <ele>306.1</ele>
        <time>2022-10-15T11:19:52.000Z</time>
      </trkpt>
      <trkpt lat="45.14569" lon="5.37947">
        <ele>306.1</ele>
        <time>2022-10-15T11:19:53.000Z</time>
      </trkpt>
      <trkpt lat="45.14571" lon="5.37949">
        <ele>306.2</ele>
        <time>2022-10-15T11:19:54.000Z</time>
      </trkpt>
      <trkpt lat="45.14572" lon="5.37951">
        <ele>306.3</ele>
        <time>2022-10-15T11:19:55.000Z</time>
      </trkpt>
      <trkpt lat="45.14574" lon="5.37953">
        <ele>306.5</ele>
        <time>2022-10-15T11:19:56.000Z</time>
      </trkpt>
      <trkpt lat="45.14575" lon="5.37956">
        <ele>306.8</ele>
        <time>2022-10-15T11:19:57.000Z</time>
      </trkpt>
      <trkpt lat="45.14576" lon="5.37958">
        <ele>307</ele>
        <time>2022-10-15T11:19:58.000Z</time>
      </trkpt>
      <trkpt lat="45.14577" lon="5.3796">
        <ele>307.3</ele>
        <time>2022-10-15T11:19:59.000Z</time>
      </trkpt>
      <trkpt lat="45.14578" lon="5.37962">
        <ele>307.5</ele>
        <time>2022-10-15T11:20:00.000Z</time>
      </trkpt>
      <trkpt lat="45.1458" lon="5.37965">
        <ele>307.7</ele>
        <time>2022-10-15T11:20:02.000Z</time>
      </trkpt>
      <trkpt lat="45.14583" lon="5.37968">
        <ele>308.1</ele>
        <time>2022-10-15T11:20:04.000Z</time>
      </trkpt>
      <trkpt lat="45.14585" lon="5.37973">
        <ele>308.5</ele>
        <time>2022-10-15T11:20:06.000Z</time>
      </trkpt>
      <trkpt lat="45.14587" lon="5.37976">
        <ele>308</ele>
        <time>2022-10-15T11:20:07.000Z</time>
      </trkpt>
      <trkpt lat="45.14588" lon="5.37978">
        <ele>307.6</ele>
        <time>2022-10-15T11:20:08.000Z</time>
      </trkpt>
      <trkpt lat="45.1459" lon="5.37982">
        <ele>307.3</ele>
        <time>2022-10-15T11:20:10.000Z</time>
      </trkpt>
      <trkpt lat="45.14591" lon="5.37984">
        <ele>307</ele>
        <time>2022-10-15T11:20:11.000Z</time>
      </trkpt>
      <trkpt lat="45.14592" lon="5.37987">
        <ele>306.8</ele>
        <time>2022-10-15T11:20:12.000Z</time>
      </trkpt>
      <trkpt lat="45.14593" lon="5.37989">
        <ele>306.8</ele>
        <time>2022-10-15T11:20:13.000Z</time>
      </trkpt>
      <trkpt lat="45.14594" lon="5.37992">
        <ele>306.5</ele>
        <time>2022-10-15T11:20:14.000Z</time>
      </trkpt>
      <trkpt lat="45.14595" lon="5.37995">
        <ele>306.3</ele>
        <time>2022-10-15T11:20:15.000Z</time>
      </trkpt>
      <trkpt lat="45.14596" lon="5.37997">
        <ele>306.1</ele>
        <time>2022-10-15T11:20:16.000Z</time>
      </trkpt>
      <trkpt lat="45.14597" lon="5.37999">
        <ele>305.9</ele>
        <time>2022-10-15T11:20:17.000Z</time>
      </trkpt>
      <trkpt lat="45.146" lon="5.38003">
        <ele>304.9</ele>
        <time>2022-10-15T11:20:19.000Z</time>
      </trkpt>
      <trkpt lat="45.14602" lon="5.38006">
        <ele>304.1</ele>
        <time>2022-10-15T11:20:21.000Z</time>
      </trkpt>
      <trkpt lat="45.14603" lon="5.38011">
        <ele>303.7</ele>
        <time>2022-10-15T11:20:23.000Z</time>
      </trkpt>
      <trkpt lat="45.14603" lon="5.38013">
        <ele>303.6</ele>
        <time>2022-10-15T11:20:24.000Z</time>
      </trkpt>
      <trkpt lat="45.14604" lon="5.38016">
        <ele>303.5</ele>
        <time>2022-10-15T11:20:25.000Z</time>
      </trkpt>
      <trkpt lat="45.14604" lon="5.38018">
        <ele>303.4</ele>
        <time>2022-10-15T11:20:26.000Z</time>
      </trkpt>
      <trkpt lat="45.14604" lon="5.38021">
        <ele>303.5</ele>
        <time>2022-10-15T11:20:27.000Z</time>
      </trkpt>
      <trkpt lat="45.14603" lon="5.38026">
        <ele>303.9</ele>
        <time>2022-10-15T11:20:29.000Z</time>
      </trkpt>
      <trkpt lat="45.14602" lon="5.38029">
        <ele>304.3</ele>
        <time>2022-10-15T11:20:31.000Z</time>
      </trkpt>
      <trkpt lat="45.14601" lon="5.38034">
        <ele>304.9</ele>
        <time>2022-10-15T11:20:33.000Z</time>
      </trkpt>
      <trkpt lat="45.146" lon="5.38037">
        <ele>305.2</ele>
        <time>2022-10-15T11:20:34.000Z</time>
      </trkpt>
      <trkpt lat="45.14599" lon="5.38039">
        <ele>305.4</ele>
        <time>2022-10-15T11:20:35.000Z</time>
      </trkpt>
      <trkpt lat="45.14599" lon="5.38042">
        <ele>305.6</ele>
        <time>2022-10-15T11:20:36.000Z</time>
      </trkpt>
      <trkpt lat="45.14598" lon="5.38044">
        <ele>305.8</ele>
        <time>2022-10-15T11:20:37.000Z</time>
      </trkpt>
      <trkpt lat="45.14597" lon="5.38047">
        <ele>306</ele>
        <time>2022-10-15T11:20:38.000Z</time>
      </trkpt>
      <trkpt lat="45.14596" lon="5.3805">
        <ele>306.3</ele>
        <time>2022-10-15T11:20:39.000Z</time>
      </trkpt>
      <trkpt lat="45.14595" lon="5.38053">
        <ele>306.6</ele>
        <time>2022-10-15T11:20:40.000Z</time>
      </trkpt>
      <trkpt lat="45.14595" lon="5.38056">
        <ele>306.8</ele>
        <time>2022-10-15T11:20:41.000Z</time>
      </trkpt>
      <trkpt lat="45.14594" lon="5.38058">
        <ele>307.2</ele>
        <time>2022-10-15T11:20:42.000Z</time>
      </trkpt>
      <trkpt lat="45.14593" lon="5.38061">
        <ele>307.7</ele>
        <time>2022-10-15T11:20:43.000Z</time>
      </trkpt>
      <trkpt lat="45.14592" lon="5.38063">
        <ele>308.2</ele>
        <time>2022-10-15T11:20:44.000Z</time>
      </trkpt>
      <trkpt lat="45.14591" lon="5.38065">
        <ele>308.7</ele>
        <time>2022-10-15T11:20:45.000Z</time>
      </trkpt>
      <trkpt lat="45.1459" lon="5.38068">
        <ele>309.2</ele>
        <time>2022-10-15T11:20:46.000Z</time>
      </trkpt>
      <trkpt lat="45.14589" lon="5.38072">
        <ele>309.8</ele>
        <time>2022-10-15T11:20:48.000Z</time>
      </trkpt>
      <trkpt lat="45.14588" lon="5.38077">
        <ele>310.4</ele>
        <time>2022-10-15T11:20:50.000Z</time>
      </trkpt>
      <trkpt lat="45.14588" lon="5.38082">
        <ele>311</ele>
        <time>2022-10-15T11:20:52.000Z</time>
      </trkpt>
      <trkpt lat="45.14587" lon="5.38085">
        <ele>311.4</ele>
        <time>2022-10-15T11:20:53.000Z</time>
      </trkpt>
      <trkpt lat="45.14586" lon="5.38088">
        <ele>311.9</ele>
        <time>2022-10-15T11:20:54.000Z</time>
      </trkpt>
      <trkpt lat="45.14585" lon="5.38091">
        <ele>312.2</ele>
        <time>2022-10-15T11:20:55.000Z</time>
      </trkpt>
      <trkpt lat="45.14584" lon="5.38094">
        <ele>312.6</ele>
        <time>2022-10-15T11:20:56.000Z</time>
      </trkpt>
      <trkpt lat="45.14583" lon="5.38096">
        <ele>313</ele>
        <time>2022-10-15T11:20:57.000Z</time>
      </trkpt>
      <trkpt lat="45.14582" lon="5.38101">
        <ele>313.4</ele>
        <time>2022-10-15T11:20:59.000Z</time>
      </trkpt>
      <trkpt lat="45.14581" lon="5.38106">
        <ele>313.9</ele>
        <time>2022-10-15T11:21:01.000Z</time>
      </trkpt>
      <trkpt lat="45.14581" lon="5.38108">
        <ele>314.1</ele>
        <time>2022-10-15T11:21:02.000Z</time>
      </trkpt>
      <trkpt lat="45.14581" lon="5.38113">
        <ele>314.5</ele>
        <time>2022-10-15T11:21:04.000Z</time>
      </trkpt>
      <trkpt lat="45.1458" lon="5.38118">
        <ele>315.2</ele>
        <time>2022-10-15T11:21:06.000Z</time>
      </trkpt>
      <trkpt lat="45.14579" lon="5.38123">
        <ele>315.9</ele>
        <time>2022-10-15T11:21:08.000Z</time>
      </trkpt>
      <trkpt lat="45.14579" lon="5.38125">
        <ele>316.2</ele>
        <time>2022-10-15T11:21:09.000Z</time>
      </trkpt>
      <trkpt lat="45.14579" lon="5.38128">
        <ele>316.6</ele>
        <time>2022-10-15T11:21:10.000Z</time>
      </trkpt>
      <trkpt lat="45.14578" lon="5.38131">
        <ele>317</ele>
        <time>2022-10-15T11:21:11.000Z</time>
      </trkpt>
      <trkpt lat="45.14577" lon="5.38133">
        <ele>317.3</ele>
        <time>2022-10-15T11:21:12.000Z</time>
      </trkpt>
      <trkpt lat="45.14577" lon="5.38136">
        <ele>317.6</ele>
        <time>2022-10-15T11:21:13.000Z</time>
      </trkpt>
      <trkpt lat="45.14576" lon="5.38138">
        <ele>317.9</ele>
        <time>2022-10-15T11:21:14.000Z</time>
      </trkpt>
      <trkpt lat="45.14576" lon="5.38141">
        <ele>318.2</ele>
        <time>2022-10-15T11:21:15.000Z</time>
      </trkpt>
      <trkpt lat="45.14576" lon="5.38144">
        <ele>318.4</ele>
        <time>2022-10-15T11:21:16.000Z</time>
      </trkpt>
      <trkpt lat="45.14576" lon="5.38148">
        <ele>318.6</ele>
        <time>2022-10-15T11:21:17.000Z</time>
      </trkpt>
      <trkpt lat="45.14575" lon="5.38151">
        <ele>318.9</ele>
        <time>2022-10-15T11:21:18.000Z</time>
      </trkpt>
      <trkpt lat="45.14575" lon="5.38154">
        <ele>319.1</ele>
        <time>2022-10-15T11:21:19.000Z</time>
      </trkpt>
      <trkpt lat="45.14574" lon="5.38157">
        <ele>319.3</ele>
        <time>2022-10-15T11:21:20.000Z</time>
      </trkpt>
      <trkpt lat="45.14574" lon="5.3816">
        <ele>319.5</ele>
        <time>2022-10-15T11:21:21.000Z</time>
      </trkpt>
      <trkpt lat="45.14574" lon="5.38163">
        <ele>319.7</ele>
        <time>2022-10-15T11:21:22.000Z</time>
      </trkpt>
      <trkpt lat="45.14573" lon="5.38167">
        <ele>320.1</ele>
        <time>2022-10-15T11:21:24.000Z</time>
      </trkpt>
      <trkpt lat="45.14573" lon="5.38173">
        <ele>320.5</ele>
        <time>2022-10-15T11:21:26.000Z</time>
      </trkpt>
      <trkpt lat="45.14572" lon="5.38176">
        <ele>320.8</ele>
        <time>2022-10-15T11:21:27.000Z</time>
      </trkpt>
      <trkpt lat="45.14571" lon="5.3818">
        <ele>321.2</ele>
        <time>2022-10-15T11:21:29.000Z</time>
      </trkpt>
      <trkpt lat="45.14571" lon="5.38184">
        <ele>321.5</ele>
        <time>2022-10-15T11:21:31.000Z</time>
      </trkpt>
      <trkpt lat="45.14571" lon="5.38188">
        <ele>321.9</ele>
        <time>2022-10-15T11:21:33.000Z</time>
      </trkpt>
      <trkpt lat="45.1457" lon="5.3819">
        <ele>322.1</ele>
        <time>2022-10-15T11:21:34.000Z</time>
      </trkpt>
      <trkpt lat="45.14568" lon="5.38192">
        <ele>322.3</ele>
        <time>2022-10-15T11:21:35.000Z</time>
      </trkpt>
      <trkpt lat="45.14567" lon="5.38194">
        <ele>322.6</ele>
        <time>2022-10-15T11:21:36.000Z</time>
      </trkpt>
      <trkpt lat="45.14565" lon="5.38197">
        <ele>322.9</ele>
        <time>2022-10-15T11:21:37.000Z</time>
      </trkpt>
      <trkpt lat="45.14563" lon="5.382">
        <ele>323.3</ele>
        <time>2022-10-15T11:21:39.000Z</time>
      </trkpt>
      <trkpt lat="45.14562" lon="5.38203">
        <ele>323.7</ele>
        <time>2022-10-15T11:21:41.000Z</time>
      </trkpt>
      <trkpt lat="45.1456" lon="5.38207">
        <ele>324.2</ele>
        <time>2022-10-15T11:21:43.000Z</time>
      </trkpt>
      <trkpt lat="45.14557" lon="5.38209">
        <ele>324.5</ele>
        <time>2022-10-15T11:21:45.000Z</time>
      </trkpt>
      <trkpt lat="45.14555" lon="5.38211">
        <ele>324.8</ele>
        <time>2022-10-15T11:21:47.000Z</time>
      </trkpt>
      <trkpt lat="45.14554" lon="5.38213">
        <ele>325</ele>
        <time>2022-10-15T11:21:51.000Z</time>
      </trkpt>
      <trkpt lat="45.14552" lon="5.38215">
        <ele>325.2</ele>
        <time>2022-10-15T11:21:57.000Z</time>
      </trkpt>
      <trkpt lat="45.14553" lon="5.38221">
        <ele>325.8</ele>
        <time>2022-10-15T11:22:29.000Z</time>
      </trkpt>
      <trkpt lat="45.14552" lon="5.38224">
        <ele>326.1</ele>
        <time>2022-10-15T11:23:07.000Z</time>
      </trkpt>
      <trkpt lat="45.1455" lon="5.38227">
        <ele>326.5</ele>
        <time>2022-10-15T11:23:09.000Z</time>
      </trkpt>
      <trkpt lat="45.14549" lon="5.3823">
        <ele>326.9</ele>
        <time>2022-10-15T11:23:11.000Z</time>
      </trkpt>
      <trkpt lat="45.14547" lon="5.38234">
        <ele>327.2</ele>
        <time>2022-10-15T11:23:13.000Z</time>
      </trkpt>
      <trkpt lat="45.14545" lon="5.38237">
        <ele>327.6</ele>
        <time>2022-10-15T11:23:15.000Z</time>
      </trkpt>
      <trkpt lat="45.14543" lon="5.3824">
        <ele>327.9</ele>
        <time>2022-10-15T11:23:17.000Z</time>
      </trkpt>
      <trkpt lat="45.14542" lon="5.38243">
        <ele>328.3</ele>
        <time>2022-10-15T11:23:19.000Z</time>
      </trkpt>
      <trkpt lat="45.14541" lon="5.38246">
        <ele>328.6</ele>
        <time>2022-10-15T11:23:21.000Z</time>
      </trkpt>
      <trkpt lat="45.14539" lon="5.3825">
        <ele>329</ele>
        <time>2022-10-15T11:23:23.000Z</time>
      </trkpt>
      <trkpt lat="45.14538" lon="5.38252">
        <ele>329.3</ele>
        <time>2022-10-15T11:23:24.000Z</time>
      </trkpt>
      <trkpt lat="45.14536" lon="5.38256">
        <ele>329.8</ele>
        <time>2022-10-15T11:23:26.000Z</time>
      </trkpt>
      <trkpt lat="45.14534" lon="5.3826">
        <ele>330.3</ele>
        <time>2022-10-15T11:23:28.000Z</time>
      </trkpt>
      <trkpt lat="45.14532" lon="5.38263">
        <ele>330.8</ele>
        <time>2022-10-15T11:23:30.000Z</time>
      </trkpt>
      <trkpt lat="45.1453" lon="5.38266">
        <ele>331.2</ele>
        <time>2022-10-15T11:23:32.000Z</time>
      </trkpt>
      <trkpt lat="45.14528" lon="5.38269">
        <ele>331.7</ele>
        <time>2022-10-15T11:23:34.000Z</time>
      </trkpt>
      <trkpt lat="45.14527" lon="5.38272">
        <ele>332.2</ele>
        <time>2022-10-15T11:23:36.000Z</time>
      </trkpt>
      <trkpt lat="45.14525" lon="5.38276">
        <ele>332.8</ele>
        <time>2022-10-15T11:23:38.000Z</time>
      </trkpt>
      <trkpt lat="45.14523" lon="5.3828">
        <ele>333.2</ele>
        <time>2022-10-15T11:23:40.000Z</time>
      </trkpt>
      <trkpt lat="45.14521" lon="5.38282">
        <ele>333.6</ele>
        <time>2022-10-15T11:23:42.000Z</time>
      </trkpt>
      <trkpt lat="45.14518" lon="5.38284">
        <ele>333.9</ele>
        <time>2022-10-15T11:23:44.000Z</time>
      </trkpt>
      <trkpt lat="45.14516" lon="5.38288">
        <ele>334.4</ele>
        <time>2022-10-15T11:23:46.000Z</time>
      </trkpt>
      <trkpt lat="45.14514" lon="5.3829">
        <ele>334.8</ele>
        <time>2022-10-15T11:23:48.000Z</time>
      </trkpt>
      <trkpt lat="45.14512" lon="5.38292">
        <ele>335</ele>
        <time>2022-10-15T11:23:50.000Z</time>
      </trkpt>
      <trkpt lat="45.14509" lon="5.38293">
        <ele>335.2</ele>
        <time>2022-10-15T11:23:52.000Z</time>
      </trkpt>
      <trkpt lat="45.14506" lon="5.38295">
        <ele>335.5</ele>
        <time>2022-10-15T11:23:54.000Z</time>
      </trkpt>
      <trkpt lat="45.14503" lon="5.38298">
        <ele>335.8</ele>
        <time>2022-10-15T11:23:56.000Z</time>
      </trkpt>
      <trkpt lat="45.145" lon="5.383">
        <ele>336.2</ele>
        <time>2022-10-15T11:23:58.000Z</time>
      </trkpt>
      <trkpt lat="45.14498" lon="5.38301">
        <ele>336.5</ele>
        <time>2022-10-15T11:23:59.000Z</time>
      </trkpt>
      <trkpt lat="45.14495" lon="5.38303">
        <ele>336.9</ele>
        <time>2022-10-15T11:24:01.000Z</time>
      </trkpt>
      <trkpt lat="45.14492" lon="5.38306">
        <ele>337.6</ele>
        <time>2022-10-15T11:24:03.000Z</time>
      </trkpt>
      <trkpt lat="45.1449" lon="5.38307">
        <ele>337.9</ele>
        <time>2022-10-15T11:24:04.000Z</time>
      </trkpt>
      <trkpt lat="45.14488" lon="5.38308">
        <ele>338.2</ele>
        <time>2022-10-15T11:24:06.000Z</time>
      </trkpt>
      <trkpt lat="45.14486" lon="5.38308">
        <ele>338.4</ele>
        <time>2022-10-15T11:24:08.000Z</time>
      </trkpt>
      <trkpt lat="45.14483" lon="5.38309">
        <ele>338.9</ele>
        <time>2022-10-15T11:24:10.000Z</time>
      </trkpt>
      <trkpt lat="45.14481" lon="5.3831">
        <ele>339.2</ele>
        <time>2022-10-15T11:24:11.000Z</time>
      </trkpt>
      <trkpt lat="45.14478" lon="5.38312">
        <ele>339.7</ele>
        <time>2022-10-15T11:24:13.000Z</time>
      </trkpt>
      <trkpt lat="45.14475" lon="5.38313">
        <ele>340.2</ele>
        <time>2022-10-15T11:24:15.000Z</time>
      </trkpt>
      <trkpt lat="45.14472" lon="5.38313">
        <ele>340.4</ele>
        <time>2022-10-15T11:24:17.000Z</time>
      </trkpt>
      <trkpt lat="45.14469" lon="5.38312">
        <ele>340.6</ele>
        <time>2022-10-15T11:24:19.000Z</time>
      </trkpt>
      <trkpt lat="45.14466" lon="5.3831">
        <ele>340.7</ele>
        <time>2022-10-15T11:24:21.000Z</time>
      </trkpt>
      <trkpt lat="45.14463" lon="5.38308">
        <ele>340.8</ele>
        <time>2022-10-15T11:24:23.000Z</time>
      </trkpt>
      <trkpt lat="45.1446" lon="5.38306">
        <ele>340.8</ele>
        <time>2022-10-15T11:24:25.000Z</time>
      </trkpt>
      <trkpt lat="45.14458" lon="5.38303">
        <ele>340.6</ele>
        <time>2022-10-15T11:24:27.000Z</time>
      </trkpt>
      <trkpt lat="45.14455" lon="5.383">
        <ele>340.5</ele>
        <time>2022-10-15T11:24:29.000Z</time>
      </trkpt>
      <trkpt lat="45.14453" lon="5.38297">
        <ele>340.3</ele>
        <time>2022-10-15T11:24:31.000Z</time>
      </trkpt>
      <trkpt lat="45.1445" lon="5.38295">
        <ele>340.3</ele>
        <time>2022-10-15T11:24:33.000Z</time>
      </trkpt>
      <trkpt lat="45.14447" lon="5.38292">
        <ele>340.2</ele>
        <time>2022-10-15T11:24:35.000Z</time>
      </trkpt>
      <trkpt lat="45.14445" lon="5.38289">
        <ele>340</ele>
        <time>2022-10-15T11:24:37.000Z</time>
      </trkpt>
      <trkpt lat="45.14443" lon="5.38288">
        <ele>340.1</ele>
        <time>2022-10-15T11:24:39.000Z</time>
      </trkpt>
      <trkpt lat="45.1444" lon="5.38286">
        <ele>340.1</ele>
        <time>2022-10-15T11:24:41.000Z</time>
      </trkpt>
      <trkpt lat="45.14438" lon="5.38285">
        <ele>340.2</ele>
        <time>2022-10-15T11:24:42.000Z</time>
      </trkpt>
      <trkpt lat="45.14435" lon="5.38282">
        <ele>340.2</ele>
        <time>2022-10-15T11:24:44.000Z</time>
      </trkpt>
      <trkpt lat="45.14432" lon="5.3828">
        <ele>340.2</ele>
        <time>2022-10-15T11:24:46.000Z</time>
      </trkpt>
      <trkpt lat="45.14429" lon="5.38277">
        <ele>340.1</ele>
        <time>2022-10-15T11:24:48.000Z</time>
      </trkpt>
      <trkpt lat="45.14428" lon="5.38276">
        <ele>340.1</ele>
        <time>2022-10-15T11:24:49.000Z</time>
      </trkpt>
      <trkpt lat="45.14426" lon="5.38275">
        <ele>340.3</ele>
        <time>2022-10-15T11:24:50.000Z</time>
      </trkpt>
      <trkpt lat="45.14424" lon="5.38274">
        <ele>340.4</ele>
        <time>2022-10-15T11:24:51.000Z</time>
      </trkpt>
      <trkpt lat="45.14422" lon="5.38273">
        <ele>340.4</ele>
        <time>2022-10-15T11:24:52.000Z</time>
      </trkpt>
      <trkpt lat="45.14421" lon="5.38271">
        <ele>340.5</ele>
        <time>2022-10-15T11:24:53.000Z</time>
      </trkpt>
      <trkpt lat="45.14418" lon="5.38269">
        <ele>340.6</ele>
        <time>2022-10-15T11:24:55.000Z</time>
      </trkpt>
      <trkpt lat="45.14415" lon="5.38267">
        <ele>340.7</ele>
        <time>2022-10-15T11:24:57.000Z</time>
      </trkpt>
      <trkpt lat="45.14412" lon="5.38264">
        <ele>340.9</ele>
        <time>2022-10-15T11:24:59.000Z</time>
      </trkpt>
      <trkpt lat="45.14409" lon="5.38262">
        <ele>341.1</ele>
        <time>2022-10-15T11:25:01.000Z</time>
      </trkpt>
      <trkpt lat="45.14406" lon="5.3826">
        <ele>341.3</ele>
        <time>2022-10-15T11:25:03.000Z</time>
      </trkpt>
      <trkpt lat="45.14403" lon="5.38259">
        <ele>341.6</ele>
        <time>2022-10-15T11:25:05.000Z</time>
      </trkpt>
      <trkpt lat="45.144" lon="5.38258">
        <ele>341.9</ele>
        <time>2022-10-15T11:25:07.000Z</time>
      </trkpt>
      <trkpt lat="45.14398" lon="5.38257">
        <ele>342</ele>
        <time>2022-10-15T11:25:08.000Z</time>
      </trkpt>
      <trkpt lat="45.14396" lon="5.38256">
        <ele>342</ele>
        <time>2022-10-15T11:25:09.000Z</time>
      </trkpt>
      <trkpt lat="45.14395" lon="5.38254">
        <ele>342.1</ele>
        <time>2022-10-15T11:25:10.000Z</time>
      </trkpt>
      <trkpt lat="45.14393" lon="5.38254">
        <ele>342.2</ele>
        <time>2022-10-15T11:25:11.000Z</time>
      </trkpt>
      <trkpt lat="45.14391" lon="5.38252">
        <ele>342.1</ele>
        <time>2022-10-15T11:25:12.000Z</time>
      </trkpt>
      <trkpt lat="45.14388" lon="5.3825">
        <ele>342.1</ele>
        <time>2022-10-15T11:25:14.000Z</time>
      </trkpt>
      <trkpt lat="45.14386" lon="5.3825">
        <ele>342.4</ele>
        <time>2022-10-15T11:25:16.000Z</time>
      </trkpt>
      <trkpt lat="45.14383" lon="5.38249">
        <ele>342.7</ele>
        <time>2022-10-15T11:25:18.000Z</time>
      </trkpt>
      <trkpt lat="45.14381" lon="5.38249">
        <ele>342.8</ele>
        <time>2022-10-15T11:25:19.000Z</time>
      </trkpt>
      <trkpt lat="45.14378" lon="5.38247">
        <ele>342.8</ele>
        <time>2022-10-15T11:25:21.000Z</time>
      </trkpt>
      <trkpt lat="45.14375" lon="5.38245">
        <ele>342.9</ele>
        <time>2022-10-15T11:25:23.000Z</time>
      </trkpt>
      <trkpt lat="45.14372" lon="5.38245">
        <ele>343.2</ele>
        <time>2022-10-15T11:25:25.000Z</time>
      </trkpt>
      <trkpt lat="45.1437" lon="5.38244">
        <ele>343.3</ele>
        <time>2022-10-15T11:25:26.000Z</time>
      </trkpt>
      <trkpt lat="45.14367" lon="5.38243">
        <ele>343.4</ele>
        <time>2022-10-15T11:25:28.000Z</time>
      </trkpt>
      <trkpt lat="45.14364" lon="5.38241">
        <ele>343.4</ele>
        <time>2022-10-15T11:25:30.000Z</time>
      </trkpt>
      <trkpt lat="45.14362" lon="5.38241">
        <ele>343.6</ele>
        <time>2022-10-15T11:25:31.000Z</time>
      </trkpt>
      <trkpt lat="45.1436" lon="5.38241">
        <ele>343.9</ele>
        <time>2022-10-15T11:25:32.000Z</time>
      </trkpt>
      <trkpt lat="45.14356" lon="5.38239">
        <ele>344</ele>
        <time>2022-10-15T11:25:34.000Z</time>
      </trkpt>
      <trkpt lat="45.14353" lon="5.38238">
        <ele>344</ele>
        <time>2022-10-15T11:25:36.000Z</time>
      </trkpt>
      <trkpt lat="45.1435" lon="5.38237">
        <ele>344.3</ele>
        <time>2022-10-15T11:25:38.000Z</time>
      </trkpt>
      <trkpt lat="45.14347" lon="5.38237">
        <ele>344.4</ele>
        <time>2022-10-15T11:25:40.000Z</time>
      </trkpt>
      <trkpt lat="45.14344" lon="5.38236">
        <ele>344.7</ele>
        <time>2022-10-15T11:25:42.000Z</time>
      </trkpt>
      <trkpt lat="45.14341" lon="5.38236">
        <ele>345</ele>
        <time>2022-10-15T11:25:44.000Z</time>
      </trkpt>
      <trkpt lat="45.14339" lon="5.38236">
        <ele>345.2</ele>
        <time>2022-10-15T11:25:45.000Z</time>
      </trkpt>
      <trkpt lat="45.14337" lon="5.38236">
        <ele>345.6</ele>
        <time>2022-10-15T11:25:46.000Z</time>
      </trkpt>
      <trkpt lat="45.14335" lon="5.38236">
        <ele>345.8</ele>
        <time>2022-10-15T11:25:47.000Z</time>
      </trkpt>
      <trkpt lat="45.14333" lon="5.38237">
        <ele>346.1</ele>
        <time>2022-10-15T11:25:48.000Z</time>
      </trkpt>
      <trkpt lat="45.14331" lon="5.38237">
        <ele>346.5</ele>
        <time>2022-10-15T11:25:49.000Z</time>
      </trkpt>
      <trkpt lat="45.14328" lon="5.38238">
        <ele>347</ele>
        <time>2022-10-15T11:25:51.000Z</time>
      </trkpt>
      <trkpt lat="45.14325" lon="5.3824">
        <ele>347.6</ele>
        <time>2022-10-15T11:25:53.000Z</time>
      </trkpt>
      <trkpt lat="45.14323" lon="5.38241">
        <ele>348</ele>
        <time>2022-10-15T11:25:54.000Z</time>
      </trkpt>
      <trkpt lat="45.14322" lon="5.38242">
        <ele>348.4</ele>
        <time>2022-10-15T11:25:55.000Z</time>
      </trkpt>
      <trkpt lat="45.1432" lon="5.38242">
        <ele>348.7</ele>
        <time>2022-10-15T11:25:56.000Z</time>
      </trkpt>
      <trkpt lat="45.14318" lon="5.38242">
        <ele>348.8</ele>
        <time>2022-10-15T11:25:57.000Z</time>
      </trkpt>
      <trkpt lat="45.14315" lon="5.38243">
        <ele>349.4</ele>
        <time>2022-10-15T11:25:59.000Z</time>
      </trkpt>
      <trkpt lat="45.14312" lon="5.38245">
        <ele>350</ele>
        <time>2022-10-15T11:26:01.000Z</time>
      </trkpt>
      <trkpt lat="45.14309" lon="5.38247">
        <ele>350.9</ele>
        <time>2022-10-15T11:26:03.000Z</time>
      </trkpt>
      <trkpt lat="45.14306" lon="5.38248">
        <ele>351.4</ele>
        <time>2022-10-15T11:26:05.000Z</time>
      </trkpt>
      <trkpt lat="45.14303" lon="5.38249">
        <ele>351.9</ele>
        <time>2022-10-15T11:26:07.000Z</time>
      </trkpt>
      <trkpt lat="45.143" lon="5.38249">
        <ele>352.2</ele>
        <time>2022-10-15T11:26:09.000Z</time>
      </trkpt>
      <trkpt lat="45.14297" lon="5.38248">
        <ele>352.3</ele>
        <time>2022-10-15T11:26:11.000Z</time>
      </trkpt>
      <trkpt lat="45.14295" lon="5.38247">
        <ele>352.4</ele>
        <time>2022-10-15T11:26:13.000Z</time>
      </trkpt>
      <trkpt lat="45.14292" lon="5.38246">
        <ele>352.3</ele>
        <time>2022-10-15T11:26:15.000Z</time>
      </trkpt>
      <trkpt lat="45.1429" lon="5.38245">
        <ele>352.2</ele>
        <time>2022-10-15T11:26:17.000Z</time>
      </trkpt>
      <trkpt lat="45.14288" lon="5.38243">
        <ele>351.8</ele>
        <time>2022-10-15T11:26:19.000Z</time>
      </trkpt>
      <trkpt lat="45.14285" lon="5.38242">
        <ele>351.8</ele>
        <time>2022-10-15T11:26:21.000Z</time>
      </trkpt>
      <trkpt lat="45.14281" lon="5.38242">
        <ele>351.9</ele>
        <time>2022-10-15T11:26:23.000Z</time>
      </trkpt>
      <trkpt lat="45.1428" lon="5.38241">
        <ele>351.9</ele>
        <time>2022-10-15T11:26:24.000Z</time>
      </trkpt>
      <trkpt lat="45.14276" lon="5.3824">
        <ele>351.9</ele>
        <time>2022-10-15T11:26:26.000Z</time>
      </trkpt>
      <trkpt lat="45.14273" lon="5.38239">
        <ele>352.1</ele>
        <time>2022-10-15T11:26:28.000Z</time>
      </trkpt>
      <trkpt lat="45.14269" lon="5.38239">
        <ele>352.6</ele>
        <time>2022-10-15T11:26:30.000Z</time>
      </trkpt>
      <trkpt lat="45.14267" lon="5.38239">
        <ele>352.9</ele>
        <time>2022-10-15T11:26:31.000Z</time>
      </trkpt>
      <trkpt lat="45.14266" lon="5.3824">
        <ele>353.2</ele>
        <time>2022-10-15T11:26:32.000Z</time>
      </trkpt>
      <trkpt lat="45.14264" lon="5.3824">
        <ele>353.7</ele>
        <time>2022-10-15T11:26:33.000Z</time>
      </trkpt>
      <trkpt lat="45.1426" lon="5.38241">
        <ele>354.3</ele>
        <time>2022-10-15T11:26:35.000Z</time>
      </trkpt>
      <trkpt lat="45.14258" lon="5.38241">
        <ele>354.6</ele>
        <time>2022-10-15T11:26:36.000Z</time>
      </trkpt>
      <trkpt lat="45.14255" lon="5.38241">
        <ele>354.9</ele>
        <time>2022-10-15T11:26:38.000Z</time>
      </trkpt>
      <trkpt lat="45.14252" lon="5.38241">
        <ele>355.5</ele>
        <time>2022-10-15T11:26:40.000Z</time>
      </trkpt>
      <trkpt lat="45.1425" lon="5.38241">
        <ele>355.8</ele>
        <time>2022-10-15T11:26:41.000Z</time>
      </trkpt>
      <trkpt lat="45.14248" lon="5.38241">
        <ele>356.1</ele>
        <time>2022-10-15T11:26:42.000Z</time>
      </trkpt>
      <trkpt lat="45.14245" lon="5.38242">
        <ele>356.6</ele>
        <time>2022-10-15T11:26:44.000Z</time>
      </trkpt>
      <trkpt lat="45.14242" lon="5.38243">
        <ele>357.1</ele>
        <time>2022-10-15T11:26:46.000Z</time>
      </trkpt>
      <trkpt lat="45.14239" lon="5.38243">
        <ele>357.7</ele>
        <time>2022-10-15T11:26:48.000Z</time>
      </trkpt>
      <trkpt lat="45.14236" lon="5.38244">
        <ele>358.4</ele>
        <time>2022-10-15T11:26:50.000Z</time>
      </trkpt>
      <trkpt lat="45.14234" lon="5.38245">
        <ele>358.8</ele>
        <time>2022-10-15T11:26:52.000Z</time>
      </trkpt>
      <trkpt lat="45.14232" lon="5.38245">
        <ele>359.1</ele>
        <time>2022-10-15T11:26:54.000Z</time>
      </trkpt>
      <trkpt lat="45.14229" lon="5.38246">
        <ele>359.9</ele>
        <time>2022-10-15T11:26:56.000Z</time>
      </trkpt>
      <trkpt lat="45.14227" lon="5.38247">
        <ele>360.5</ele>
        <time>2022-10-15T11:26:57.000Z</time>
      </trkpt>
      <trkpt lat="45.14224" lon="5.38249">
        <ele>361.3</ele>
        <time>2022-10-15T11:26:59.000Z</time>
      </trkpt>
      <trkpt lat="45.14221" lon="5.3825">
        <ele>361.9</ele>
        <time>2022-10-15T11:27:01.000Z</time>
      </trkpt>
      <trkpt lat="45.14218" lon="5.3825">
        <ele>362.2</ele>
        <time>2022-10-15T11:27:03.000Z</time>
      </trkpt>
      <trkpt lat="45.14215" lon="5.38249">
        <ele>362.1</ele>
        <time>2022-10-15T11:27:05.000Z</time>
      </trkpt>
      <trkpt lat="45.14213" lon="5.38248">
        <ele>362.1</ele>
        <time>2022-10-15T11:27:06.000Z</time>
      </trkpt>
      <trkpt lat="45.14209" lon="5.38247">
        <ele>361.9</ele>
        <time>2022-10-15T11:27:08.000Z</time>
      </trkpt>
      <trkpt lat="45.14206" lon="5.38247">
        <ele>362</ele>
        <time>2022-10-15T11:27:10.000Z</time>
      </trkpt>
      <trkpt lat="45.14204" lon="5.38246">
        <ele>361.7</ele>
        <time>2022-10-15T11:27:11.000Z</time>
      </trkpt>
      <trkpt lat="45.14201" lon="5.38244">
        <ele>361.4</ele>
        <time>2022-10-15T11:27:13.000Z</time>
      </trkpt>
      <trkpt lat="45.14199" lon="5.38244">
        <ele>361.4</ele>
        <time>2022-10-15T11:27:15.000Z</time>
      </trkpt>
      <trkpt lat="45.14195" lon="5.38243">
        <ele>361.4</ele>
        <time>2022-10-15T11:27:17.000Z</time>
      </trkpt>
      <trkpt lat="45.14193" lon="5.38242">
        <ele>361.1</ele>
        <time>2022-10-15T11:27:18.000Z</time>
      </trkpt>
      <trkpt lat="45.14191" lon="5.38241">
        <ele>360.9</ele>
        <time>2022-10-15T11:27:19.000Z</time>
      </trkpt>
      <trkpt lat="45.14189" lon="5.38241">
        <ele>360.9</ele>
        <time>2022-10-15T11:27:20.000Z</time>
      </trkpt>
      <trkpt lat="45.14187" lon="5.38241">
        <ele>360.8</ele>
        <time>2022-10-15T11:27:21.000Z</time>
      </trkpt>
      <trkpt lat="45.14184" lon="5.3824">
        <ele>360.6</ele>
        <time>2022-10-15T11:27:22.000Z</time>
      </trkpt>
      <trkpt lat="45.14182" lon="5.38239">
        <ele>360.3</ele>
        <time>2022-10-15T11:27:23.000Z</time>
      </trkpt>
      <trkpt lat="45.1418" lon="5.38239">
        <ele>360.3</ele>
        <time>2022-10-15T11:27:24.000Z</time>
      </trkpt>
      <trkpt lat="45.14177" lon="5.38239">
        <ele>360.2</ele>
        <time>2022-10-15T11:27:25.000Z</time>
      </trkpt>
      <trkpt lat="45.14175" lon="5.38238">
        <ele>360.1</ele>
        <time>2022-10-15T11:27:26.000Z</time>
      </trkpt>
      <trkpt lat="45.14172" lon="5.38238">
        <ele>360.1</ele>
        <time>2022-10-15T11:27:27.000Z</time>
      </trkpt>
      <trkpt lat="45.1417" lon="5.38239">
        <ele>360.3</ele>
        <time>2022-10-15T11:27:28.000Z</time>
      </trkpt>
      <trkpt lat="45.14167" lon="5.38239">
        <ele>360.4</ele>
        <time>2022-10-15T11:27:29.000Z</time>
      </trkpt>
      <trkpt lat="45.14165" lon="5.38239">
        <ele>360.4</ele>
        <time>2022-10-15T11:27:30.000Z</time>
      </trkpt>
      <trkpt lat="45.14163" lon="5.38239">
        <ele>360.4</ele>
        <time>2022-10-15T11:27:31.000Z</time>
      </trkpt>
      <trkpt lat="45.1416" lon="5.38239">
        <ele>360.3</ele>
        <time>2022-10-15T11:27:32.000Z</time>
      </trkpt>
      <trkpt lat="45.14158" lon="5.38239">
        <ele>360.1</ele>
        <time>2022-10-15T11:27:33.000Z</time>
      </trkpt>
      <trkpt lat="45.14156" lon="5.38239">
        <ele>360.1</ele>
        <time>2022-10-15T11:27:34.000Z</time>
      </trkpt>
      <trkpt lat="45.14154" lon="5.38239">
        <ele>360.2</ele>
        <time>2022-10-15T11:27:35.000Z</time>
      </trkpt>
      <trkpt lat="45.14151" lon="5.38241">
        <ele>360.8</ele>
        <time>2022-10-15T11:27:37.000Z</time>
      </trkpt>
      <trkpt lat="45.1415" lon="5.38242">
        <ele>361.2</ele>
        <time>2022-10-15T11:27:38.000Z</time>
      </trkpt>
      <trkpt lat="45.14148" lon="5.38245">
        <ele>362</ele>
        <time>2022-10-15T11:27:40.000Z</time>
      </trkpt>
      <trkpt lat="45.14147" lon="5.3825">
        <ele>364.1</ele>
        <time>2022-10-15T11:27:42.000Z</time>
      </trkpt>
      <trkpt lat="45.14147" lon="5.38254">
        <ele>365.2</ele>
        <time>2022-10-15T11:27:43.000Z</time>
      </trkpt>
      <trkpt lat="45.14148" lon="5.38256">
        <ele>366</ele>
        <time>2022-10-15T11:27:44.000Z</time>
      </trkpt>
      <trkpt lat="45.1415" lon="5.38259">
        <ele>366.9</ele>
        <time>2022-10-15T11:27:46.000Z</time>
      </trkpt>
      <trkpt lat="45.14152" lon="5.38259">
        <ele>367</ele>
        <time>2022-10-15T11:27:47.000Z</time>
      </trkpt>
      <trkpt lat="45.14155" lon="5.38259">
        <ele>366.9</ele>
        <time>2022-10-15T11:27:48.000Z</time>
      </trkpt>
      <trkpt lat="45.14157" lon="5.38258">
        <ele>366.9</ele>
        <time>2022-10-15T11:27:49.000Z</time>
      </trkpt>
      <trkpt lat="45.14159" lon="5.38258">
        <ele>366.9</ele>
        <time>2022-10-15T11:27:50.000Z</time>
      </trkpt>
      <trkpt lat="45.1416" lon="5.38258">
        <ele>366.9</ele>
        <time>2022-10-15T11:27:51.000Z</time>
      </trkpt>
      <trkpt lat="45.14162" lon="5.38258">
        <ele>366.8</ele>
        <time>2022-10-15T11:27:52.000Z</time>
      </trkpt>
      <trkpt lat="45.14164" lon="5.38258">
        <ele>366.7</ele>
        <time>2022-10-15T11:27:53.000Z</time>
      </trkpt>
      <trkpt lat="45.14166" lon="5.38257">
        <ele>366.4</ele>
        <time>2022-10-15T11:27:54.000Z</time>
      </trkpt>
      <trkpt lat="45.14168" lon="5.38256">
        <ele>366.1</ele>
        <time>2022-10-15T11:27:55.000Z</time>
      </trkpt>
      <trkpt lat="45.1417" lon="5.38255">
        <ele>365.9</ele>
        <time>2022-10-15T11:27:56.000Z</time>
      </trkpt>
      <trkpt lat="45.14172" lon="5.38255">
        <ele>365.6</ele>
        <time>2022-10-15T11:27:57.000Z</time>
      </trkpt>
      <trkpt lat="45.14176" lon="5.38254">
        <ele>365.3</ele>
        <time>2022-10-15T11:27:59.000Z</time>
      </trkpt>
      <trkpt lat="45.14178" lon="5.38254">
        <ele>365.3</ele>
        <time>2022-10-15T11:28:01.000Z</time>
      </trkpt>
      <trkpt lat="45.14181" lon="5.38254">
        <ele>365.4</ele>
        <time>2022-10-15T11:28:03.000Z</time>
      </trkpt>
      <trkpt lat="45.14183" lon="5.38254">
        <ele>365.3</ele>
        <time>2022-10-15T11:28:04.000Z</time>
      </trkpt>
      <trkpt lat="45.14186" lon="5.38254">
        <ele>365.5</ele>
        <time>2022-10-15T11:28:06.000Z</time>
      </trkpt>
      <trkpt lat="45.14189" lon="5.38257">
        <ele>366.4</ele>
        <time>2022-10-15T11:28:08.000Z</time>
      </trkpt>
      <trkpt lat="45.14191" lon="5.38259">
        <ele>367.2</ele>
        <time>2022-10-15T11:28:10.000Z</time>
      </trkpt>
      <trkpt lat="45.14194" lon="5.38261">
        <ele>368.1</ele>
        <time>2022-10-15T11:28:12.000Z</time>
      </trkpt>
      <trkpt lat="45.14195" lon="5.38262">
        <ele>368.4</ele>
        <time>2022-10-15T11:28:13.000Z</time>
      </trkpt>
      <trkpt lat="45.14197" lon="5.38264">
        <ele>368.7</ele>
        <time>2022-10-15T11:28:14.000Z</time>
      </trkpt>
      <trkpt lat="45.14201" lon="5.38265">
        <ele>369</ele>
        <time>2022-10-15T11:28:16.000Z</time>
      </trkpt>
      <trkpt lat="45.14203" lon="5.38267">
        <ele>369.4</ele>
        <time>2022-10-15T11:28:18.000Z</time>
      </trkpt>
      <trkpt lat="45.14206" lon="5.38269">
        <ele>369.8</ele>
        <time>2022-10-15T11:28:20.000Z</time>
      </trkpt>
      <trkpt lat="45.14209" lon="5.3827">
        <ele>370.3</ele>
        <time>2022-10-15T11:28:22.000Z</time>
      </trkpt>
      <trkpt lat="45.14212" lon="5.38271">
        <ele>370.4</ele>
        <time>2022-10-15T11:28:24.000Z</time>
      </trkpt>
      <trkpt lat="45.14214" lon="5.38272">
        <ele>370.6</ele>
        <time>2022-10-15T11:28:26.000Z</time>
      </trkpt>
      <trkpt lat="45.14216" lon="5.38272">
        <ele>370.4</ele>
        <time>2022-10-15T11:28:28.000Z</time>
      </trkpt>
      <trkpt lat="45.14219" lon="5.38273">
        <ele>370.4</ele>
        <time>2022-10-15T11:28:30.000Z</time>
      </trkpt>
      <trkpt lat="45.14221" lon="5.38274">
        <ele>370.6</ele>
        <time>2022-10-15T11:28:32.000Z</time>
      </trkpt>
      <trkpt lat="45.14223" lon="5.38275">
        <ele>371</ele>
        <time>2022-10-15T11:28:34.000Z</time>
      </trkpt>
      <trkpt lat="45.14225" lon="5.38276">
        <ele>371.2</ele>
        <time>2022-10-15T11:28:36.000Z</time>
      </trkpt>
      <trkpt lat="45.14227" lon="5.38277">
        <ele>371.3</ele>
        <time>2022-10-15T11:28:38.000Z</time>
      </trkpt>
      <trkpt lat="45.1423" lon="5.38277">
        <ele>371</ele>
        <time>2022-10-15T11:28:40.000Z</time>
      </trkpt>
      <trkpt lat="45.14232" lon="5.38278">
        <ele>370.9</ele>
        <time>2022-10-15T11:28:41.000Z</time>
      </trkpt>
      <trkpt lat="45.14234" lon="5.38278">
        <ele>370.9</ele>
        <time>2022-10-15T11:28:42.000Z</time>
      </trkpt>
      <trkpt lat="45.14237" lon="5.38279">
        <ele>370.9</ele>
        <time>2022-10-15T11:28:44.000Z</time>
      </trkpt>
      <trkpt lat="45.14239" lon="5.3828">
        <ele>370.9</ele>
        <time>2022-10-15T11:28:45.000Z</time>
      </trkpt>
      <trkpt lat="45.14241" lon="5.38279">
        <ele>370.5</ele>
        <time>2022-10-15T11:28:46.000Z</time>
      </trkpt>
      <trkpt lat="45.14244" lon="5.38282">
        <ele>371</ele>
        <time>2022-10-15T11:28:48.000Z</time>
      </trkpt>
      <trkpt lat="45.14245" lon="5.38283">
        <ele>371.5</ele>
        <time>2022-10-15T11:28:49.000Z</time>
      </trkpt>
      <trkpt lat="45.14248" lon="5.38286">
        <ele>372</ele>
        <time>2022-10-15T11:28:51.000Z</time>
      </trkpt>
      <trkpt lat="45.14251" lon="5.38286">
        <ele>371.9</ele>
        <time>2022-10-15T11:28:53.000Z</time>
      </trkpt>
      <trkpt lat="45.14254" lon="5.38287">
        <ele>371.9</ele>
        <time>2022-10-15T11:28:55.000Z</time>
      </trkpt>
      <trkpt lat="45.14257" lon="5.38288">
        <ele>371.6</ele>
        <time>2022-10-15T11:28:57.000Z</time>
      </trkpt>
      <trkpt lat="45.14259" lon="5.38288">
        <ele>371.3</ele>
        <time>2022-10-15T11:28:58.000Z</time>
      </trkpt>
      <trkpt lat="45.14262" lon="5.38289">
        <ele>371.2</ele>
        <time>2022-10-15T11:29:00.000Z</time>
      </trkpt>
      <trkpt lat="45.14265" lon="5.3829">
        <ele>371.1</ele>
        <time>2022-10-15T11:29:02.000Z</time>
      </trkpt>
      <trkpt lat="45.14268" lon="5.38291">
        <ele>371.3</ele>
        <time>2022-10-15T11:29:04.000Z</time>
      </trkpt>
      <trkpt lat="45.1427" lon="5.38293">
        <ele>371.5</ele>
        <time>2022-10-15T11:29:06.000Z</time>
      </trkpt>
      <trkpt lat="45.14273" lon="5.38292">
        <ele>370.9</ele>
        <time>2022-10-15T11:29:08.000Z</time>
      </trkpt>
      <trkpt lat="45.14275" lon="5.38294">
        <ele>371.2</ele>
        <time>2022-10-15T11:29:10.000Z</time>
      </trkpt>
      <trkpt lat="45.14277" lon="5.38297">
        <ele>372</ele>
        <time>2022-10-15T11:29:12.000Z</time>
      </trkpt>
      <trkpt lat="45.1428" lon="5.383">
        <ele>372.5</ele>
        <time>2022-10-15T11:29:14.000Z</time>
      </trkpt>
      <trkpt lat="45.14281" lon="5.38301">
        <ele>372.7</ele>
        <time>2022-10-15T11:29:15.000Z</time>
      </trkpt>
      <trkpt lat="45.14285" lon="5.38302">
        <ele>372.6</ele>
        <time>2022-10-15T11:29:17.000Z</time>
      </trkpt>
      <trkpt lat="45.14287" lon="5.38305">
        <ele>373</ele>
        <time>2022-10-15T11:29:19.000Z</time>
      </trkpt>
      <trkpt lat="45.1429" lon="5.38308">
        <ele>373.5</ele>
        <time>2022-10-15T11:29:21.000Z</time>
      </trkpt>
      <trkpt lat="45.14292" lon="5.38311">
        <ele>374</ele>
        <time>2022-10-15T11:29:23.000Z</time>
      </trkpt>
      <trkpt lat="45.14294" lon="5.38314">
        <ele>374.4</ele>
        <time>2022-10-15T11:29:25.000Z</time>
      </trkpt>
      <trkpt lat="45.14296" lon="5.38316">
        <ele>374.5</ele>
        <time>2022-10-15T11:29:27.000Z</time>
      </trkpt>
      <trkpt lat="45.14297" lon="5.38319">
        <ele>375</ele>
        <time>2022-10-15T11:29:29.000Z</time>
      </trkpt>
      <trkpt lat="45.14299" lon="5.38322">
        <ele>375.5</ele>
        <time>2022-10-15T11:29:31.000Z</time>
      </trkpt>
      <trkpt lat="45.14301" lon="5.38325">
        <ele>375.9</ele>
        <time>2022-10-15T11:29:33.000Z</time>
      </trkpt>
      <trkpt lat="45.14303" lon="5.38327">
        <ele>376.1</ele>
        <time>2022-10-15T11:29:34.000Z</time>
      </trkpt>
      <trkpt lat="45.14304" lon="5.38329">
        <ele>376.2</ele>
        <time>2022-10-15T11:29:35.000Z</time>
      </trkpt>
      <trkpt lat="45.14306" lon="5.38331">
        <ele>376.4</ele>
        <time>2022-10-15T11:29:36.000Z</time>
      </trkpt>
      <trkpt lat="45.14307" lon="5.38333">
        <ele>376.6</ele>
        <time>2022-10-15T11:29:37.000Z</time>
      </trkpt>
      <trkpt lat="45.14309" lon="5.38335">
        <ele>376.8</ele>
        <time>2022-10-15T11:29:38.000Z</time>
      </trkpt>
      <trkpt lat="45.14311" lon="5.38336">
        <ele>376.7</ele>
        <time>2022-10-15T11:29:39.000Z</time>
      </trkpt>
      <trkpt lat="45.14312" lon="5.38338">
        <ele>376.9</ele>
        <time>2022-10-15T11:29:40.000Z</time>
      </trkpt>
      <trkpt lat="45.14315" lon="5.3834">
        <ele>376.9</ele>
        <time>2022-10-15T11:29:42.000Z</time>
      </trkpt>
      <trkpt lat="45.14317" lon="5.38342">
        <ele>377.1</ele>
        <time>2022-10-15T11:29:43.000Z</time>
      </trkpt>
      <trkpt lat="45.14318" lon="5.38344">
        <ele>377.4</ele>
        <time>2022-10-15T11:29:44.000Z</time>
      </trkpt>
      <trkpt lat="45.14319" lon="5.38349">
        <ele>378.2</ele>
        <time>2022-10-15T11:29:46.000Z</time>
      </trkpt>
      <trkpt lat="45.14321" lon="5.38351">
        <ele>378.4</ele>
        <time>2022-10-15T11:29:47.000Z</time>
      </trkpt>
      <trkpt lat="45.14323" lon="5.38354">
        <ele>378.6</ele>
        <time>2022-10-15T11:29:49.000Z</time>
      </trkpt>
      <trkpt lat="45.14325" lon="5.38357">
        <ele>378.7</ele>
        <time>2022-10-15T11:29:51.000Z</time>
      </trkpt>
      <trkpt lat="45.14328" lon="5.3836">
        <ele>378.9</ele>
        <time>2022-10-15T11:29:53.000Z</time>
      </trkpt>
      <trkpt lat="45.1433" lon="5.38363">
        <ele>379.1</ele>
        <time>2022-10-15T11:29:55.000Z</time>
      </trkpt>
      <trkpt lat="45.14333" lon="5.38365">
        <ele>379</ele>
        <time>2022-10-15T11:29:57.000Z</time>
      </trkpt>
      <trkpt lat="45.14335" lon="5.38368">
        <ele>379.1</ele>
        <time>2022-10-15T11:29:59.000Z</time>
      </trkpt>
      <trkpt lat="45.14337" lon="5.3837">
        <ele>379.3</ele>
        <time>2022-10-15T11:30:00.000Z</time>
      </trkpt>
      <trkpt lat="45.14338" lon="5.38373">
        <ele>379.6</ele>
        <time>2022-10-15T11:30:01.000Z</time>
      </trkpt>
      <trkpt lat="45.14339" lon="5.38374">
        <ele>379.7</ele>
        <time>2022-10-15T11:30:02.000Z</time>
      </trkpt>
      <trkpt lat="45.14342" lon="5.38377">
        <ele>379.8</ele>
        <time>2022-10-15T11:30:04.000Z</time>
      </trkpt>
      <trkpt lat="45.14344" lon="5.38379">
        <ele>379.8</ele>
        <time>2022-10-15T11:30:05.000Z</time>
      </trkpt>
      <trkpt lat="45.14346" lon="5.3838">
        <ele>379.5</ele>
        <time>2022-10-15T11:30:06.000Z</time>
      </trkpt>
      <trkpt lat="45.14348" lon="5.38381">
        <ele>379.5</ele>
        <time>2022-10-15T11:30:07.000Z</time>
      </trkpt>
      <trkpt lat="45.1435" lon="5.38383">
        <ele>379.7</ele>
        <time>2022-10-15T11:30:09.000Z</time>
      </trkpt>
      <trkpt lat="45.14353" lon="5.38386">
        <ele>379.7</ele>
        <time>2022-10-15T11:30:11.000Z</time>
      </trkpt>
      <trkpt lat="45.14355" lon="5.38387">
        <ele>379.6</ele>
        <time>2022-10-15T11:30:12.000Z</time>
      </trkpt>
      <trkpt lat="45.14357" lon="5.38389">
        <ele>379.7</ele>
        <time>2022-10-15T11:30:14.000Z</time>
      </trkpt>
      <trkpt lat="45.14359" lon="5.3839">
        <ele>379.7</ele>
        <time>2022-10-15T11:30:15.000Z</time>
      </trkpt>
      <trkpt lat="45.14361" lon="5.38392">
        <ele>379.8</ele>
        <time>2022-10-15T11:30:16.000Z</time>
      </trkpt>
      <trkpt lat="45.14363" lon="5.38393">
        <ele>380</ele>
        <time>2022-10-15T11:30:17.000Z</time>
      </trkpt>
      <trkpt lat="45.14365" lon="5.38395">
        <ele>380.2</ele>
        <time>2022-10-15T11:30:18.000Z</time>
      </trkpt>
      <trkpt lat="45.14366" lon="5.38398">
        <ele>380.6</ele>
        <time>2022-10-15T11:30:19.000Z</time>
      </trkpt>
      <trkpt lat="45.14368" lon="5.384">
        <ele>380.9</ele>
        <time>2022-10-15T11:30:20.000Z</time>
      </trkpt>
      <trkpt lat="45.1437" lon="5.38401">
        <ele>381.1</ele>
        <time>2022-10-15T11:30:21.000Z</time>
      </trkpt>
      <trkpt lat="45.14372" lon="5.38403">
        <ele>381.3</ele>
        <time>2022-10-15T11:30:22.000Z</time>
      </trkpt>
      <trkpt lat="45.14374" lon="5.38404">
        <ele>381.4</ele>
        <time>2022-10-15T11:30:23.000Z</time>
      </trkpt>
      <trkpt lat="45.14375" lon="5.38406">
        <ele>381.6</ele>
        <time>2022-10-15T11:30:24.000Z</time>
      </trkpt>
      <trkpt lat="45.14377" lon="5.38407">
        <ele>381.8</ele>
        <time>2022-10-15T11:30:25.000Z</time>
      </trkpt>
      <trkpt lat="45.1438" lon="5.38409">
        <ele>382</ele>
        <time>2022-10-15T11:30:27.000Z</time>
      </trkpt>
      <trkpt lat="45.14383" lon="5.3841">
        <ele>381.8</ele>
        <time>2022-10-15T11:30:29.000Z</time>
      </trkpt>
      <trkpt lat="45.14386" lon="5.38412">
        <ele>381.8</ele>
        <time>2022-10-15T11:30:31.000Z</time>
      </trkpt>
      <trkpt lat="45.14388" lon="5.38413">
        <ele>382</ele>
        <time>2022-10-15T11:30:33.000Z</time>
      </trkpt>
      <trkpt lat="45.14391" lon="5.38415">
        <ele>382</ele>
        <time>2022-10-15T11:30:35.000Z</time>
      </trkpt>
      <trkpt lat="45.14394" lon="5.38416">
        <ele>381.8</ele>
        <time>2022-10-15T11:30:37.000Z</time>
      </trkpt>
      <trkpt lat="45.14396" lon="5.38417">
        <ele>381.8</ele>
        <time>2022-10-15T11:30:38.000Z</time>
      </trkpt>
      <trkpt lat="45.14398" lon="5.38418">
        <ele>381.7</ele>
        <time>2022-10-15T11:30:39.000Z</time>
      </trkpt>
      <trkpt lat="45.144" lon="5.38419">
        <ele>381.7</ele>
        <time>2022-10-15T11:30:40.000Z</time>
      </trkpt>
      <trkpt lat="45.14402" lon="5.3842">
        <ele>381.7</ele>
        <time>2022-10-15T11:30:41.000Z</time>
      </trkpt>
      <trkpt lat="45.14404" lon="5.38421">
        <ele>381.7</ele>
        <time>2022-10-15T11:30:42.000Z</time>
      </trkpt>
      <trkpt lat="45.14407" lon="5.38422">
        <ele>381.6</ele>
        <time>2022-10-15T11:30:44.000Z</time>
      </trkpt>
      <trkpt lat="45.14409" lon="5.38422">
        <ele>381.4</ele>
        <time>2022-10-15T11:30:45.000Z</time>
      </trkpt>
      <trkpt lat="45.14411" lon="5.38423">
        <ele>381.3</ele>
        <time>2022-10-15T11:30:46.000Z</time>
      </trkpt>
      <trkpt lat="45.14412" lon="5.38423">
        <ele>381</ele>
        <time>2022-10-15T11:30:47.000Z</time>
      </trkpt>
      <trkpt lat="45.14415" lon="5.38425">
        <ele>381.1</ele>
        <time>2022-10-15T11:30:49.000Z</time>
      </trkpt>
      <trkpt lat="45.14417" lon="5.38427">
        <ele>381.7</ele>
        <time>2022-10-15T11:30:51.000Z</time>
      </trkpt>
      <trkpt lat="45.1442" lon="5.38429">
        <ele>382</ele>
        <time>2022-10-15T11:30:53.000Z</time>
      </trkpt>
      <trkpt lat="45.14423" lon="5.38432">
        <ele>382.3</ele>
        <time>2022-10-15T11:30:55.000Z</time>
      </trkpt>
      <trkpt lat="45.14425" lon="5.38435">
        <ele>383</ele>
        <time>2022-10-15T11:30:57.000Z</time>
      </trkpt>
      <trkpt lat="45.14427" lon="5.38437">
        <ele>383.6</ele>
        <time>2022-10-15T11:30:59.000Z</time>
      </trkpt>
      <trkpt lat="45.14429" lon="5.38439">
        <ele>383.9</ele>
        <time>2022-10-15T11:31:00.000Z</time>
      </trkpt>
      <trkpt lat="45.14431" lon="5.38443">
        <ele>384.8</ele>
        <time>2022-10-15T11:31:02.000Z</time>
      </trkpt>
      <trkpt lat="45.14433" lon="5.38445">
        <ele>385.1</ele>
        <time>2022-10-15T11:31:03.000Z</time>
      </trkpt>
      <trkpt lat="45.14435" lon="5.38446">
        <ele>385.4</ele>
        <time>2022-10-15T11:31:04.000Z</time>
      </trkpt>
      <trkpt lat="45.14436" lon="5.38449">
        <ele>386</ele>
        <time>2022-10-15T11:31:05.000Z</time>
      </trkpt>
      <trkpt lat="45.14438" lon="5.38451">
        <ele>386.5</ele>
        <time>2022-10-15T11:31:06.000Z</time>
      </trkpt>
      <trkpt lat="45.14439" lon="5.38453">
        <ele>387.1</ele>
        <time>2022-10-15T11:31:07.000Z</time>
      </trkpt>
      <trkpt lat="45.14441" lon="5.38457">
        <ele>388.1</ele>
        <time>2022-10-15T11:31:09.000Z</time>
      </trkpt>
      <trkpt lat="45.14442" lon="5.38458">
        <ele>388.5</ele>
        <time>2022-10-15T11:31:10.000Z</time>
      </trkpt>
      <trkpt lat="45.14443" lon="5.3846">
        <ele>388.9</ele>
        <time>2022-10-15T11:31:11.000Z</time>
      </trkpt>
      <trkpt lat="45.14445" lon="5.38462">
        <ele>389.3</ele>
        <time>2022-10-15T11:31:12.000Z</time>
      </trkpt>
      <trkpt lat="45.14448" lon="5.38465">
        <ele>389.8</ele>
        <time>2022-10-15T11:31:14.000Z</time>
      </trkpt>
      <trkpt lat="45.1445" lon="5.38468">
        <ele>390.4</ele>
        <time>2022-10-15T11:31:16.000Z</time>
      </trkpt>
      <trkpt lat="45.14453" lon="5.3847">
        <ele>390.6</ele>
        <time>2022-10-15T11:31:18.000Z</time>
      </trkpt>
      <trkpt lat="45.14455" lon="5.38471">
        <ele>390.7</ele>
        <time>2022-10-15T11:31:19.000Z</time>
      </trkpt>
      <trkpt lat="45.14456" lon="5.38473">
        <ele>391.1</ele>
        <time>2022-10-15T11:31:20.000Z</time>
      </trkpt>
      <trkpt lat="45.14458" lon="5.38475">
        <ele>391.5</ele>
        <time>2022-10-15T11:31:21.000Z</time>
      </trkpt>
      <trkpt lat="45.1446" lon="5.38476">
        <ele>391.9</ele>
        <time>2022-10-15T11:31:22.000Z</time>
      </trkpt>
      <trkpt lat="45.14461" lon="5.38478">
        <ele>392.2</ele>
        <time>2022-10-15T11:31:23.000Z</time>
      </trkpt>
      <trkpt lat="45.14463" lon="5.38479">
        <ele>392.6</ele>
        <time>2022-10-15T11:31:24.000Z</time>
      </trkpt>
      <trkpt lat="45.14464" lon="5.3848">
        <ele>392.6</ele>
        <time>2022-10-15T11:31:25.000Z</time>
      </trkpt>
      <trkpt lat="45.14467" lon="5.38483">
        <ele>393.4</ele>
        <time>2022-10-15T11:31:27.000Z</time>
      </trkpt>
      <trkpt lat="45.14468" lon="5.38485">
        <ele>393.9</ele>
        <time>2022-10-15T11:31:28.000Z</time>
      </trkpt>
      <trkpt lat="45.1447" lon="5.38488">
        <ele>394.5</ele>
        <time>2022-10-15T11:31:29.000Z</time>
      </trkpt>
      <trkpt lat="45.14472" lon="5.3849">
        <ele>395.2</ele>
        <time>2022-10-15T11:31:30.000Z</time>
      </trkpt>
      <trkpt lat="45.14473" lon="5.38492">
        <ele>395.6</ele>
        <time>2022-10-15T11:31:31.000Z</time>
      </trkpt>
      <trkpt lat="45.14476" lon="5.38494">
        <ele>395.9</ele>
        <time>2022-10-15T11:31:32.000Z</time>
      </trkpt>
      <trkpt lat="45.14478" lon="5.38495">
        <ele>396.2</ele>
        <time>2022-10-15T11:31:33.000Z</time>
      </trkpt>
      <trkpt lat="45.14479" lon="5.38497">
        <ele>396.5</ele>
        <time>2022-10-15T11:31:34.000Z</time>
      </trkpt>
      <trkpt lat="45.14483" lon="5.38499">
        <ele>396.8</ele>
        <time>2022-10-15T11:31:36.000Z</time>
      </trkpt>
      <trkpt lat="45.14484" lon="5.38501">
        <ele>397</ele>
        <time>2022-10-15T11:31:37.000Z</time>
      </trkpt>
      <trkpt lat="45.14486" lon="5.38502">
        <ele>397.3</ele>
        <time>2022-10-15T11:31:38.000Z</time>
      </trkpt>
      <trkpt lat="45.14488" lon="5.38503">
        <ele>397.6</ele>
        <time>2022-10-15T11:31:39.000Z</time>
      </trkpt>
      <trkpt lat="45.14489" lon="5.38505">
        <ele>398.1</ele>
        <time>2022-10-15T11:31:40.000Z</time>
      </trkpt>
      <trkpt lat="45.14491" lon="5.38508">
        <ele>399</ele>
        <time>2022-10-15T11:31:42.000Z</time>
      </trkpt>
      <trkpt lat="45.14493" lon="5.3851">
        <ele>399.5</ele>
        <time>2022-10-15T11:31:43.000Z</time>
      </trkpt>
      <trkpt lat="45.14496" lon="5.38513">
        <ele>400.4</ele>
        <time>2022-10-15T11:31:45.000Z</time>
      </trkpt>
      <trkpt lat="45.14497" lon="5.38515">
        <ele>400.9</ele>
        <time>2022-10-15T11:31:46.000Z</time>
      </trkpt>
      <trkpt lat="45.14499" lon="5.38517">
        <ele>401.5</ele>
        <time>2022-10-15T11:31:47.000Z</time>
      </trkpt>
      <trkpt lat="45.145" lon="5.38518">
        <ele>401.9</ele>
        <time>2022-10-15T11:31:48.000Z</time>
      </trkpt>
      <trkpt lat="45.14503" lon="5.38521">
        <ele>402.7</ele>
        <time>2022-10-15T11:31:50.000Z</time>
      </trkpt>
      <trkpt lat="45.14505" lon="5.38524">
        <ele>403.4</ele>
        <time>2022-10-15T11:31:52.000Z</time>
      </trkpt>
      <trkpt lat="45.14508" lon="5.38526">
        <ele>403.9</ele>
        <time>2022-10-15T11:31:54.000Z</time>
      </trkpt>
      <trkpt lat="45.14511" lon="5.38528">
        <ele>404.5</ele>
        <time>2022-10-15T11:31:56.000Z</time>
      </trkpt>
      <trkpt lat="45.14513" lon="5.38529">
        <ele>404.6</ele>
        <time>2022-10-15T11:31:58.000Z</time>
      </trkpt>
      <trkpt lat="45.14516" lon="5.3853">
        <ele>404.8</ele>
        <time>2022-10-15T11:32:00.000Z</time>
      </trkpt>
      <trkpt lat="45.14518" lon="5.38532">
        <ele>405.1</ele>
        <time>2022-10-15T11:32:02.000Z</time>
      </trkpt>
      <trkpt lat="45.14521" lon="5.38533">
        <ele>405.2</ele>
        <time>2022-10-15T11:32:04.000Z</time>
      </trkpt>
      <trkpt lat="45.14524" lon="5.38534">
        <ele>405.1</ele>
        <time>2022-10-15T11:32:06.000Z</time>
      </trkpt>
      <trkpt lat="45.14527" lon="5.38535">
        <ele>405.1</ele>
        <time>2022-10-15T11:32:08.000Z</time>
      </trkpt>
      <trkpt lat="45.1453" lon="5.38536">
        <ele>404.9</ele>
        <time>2022-10-15T11:32:10.000Z</time>
      </trkpt>
      <trkpt lat="45.14532" lon="5.38536">
        <ele>404.8</ele>
        <time>2022-10-15T11:32:11.000Z</time>
      </trkpt>
      <trkpt lat="45.14535" lon="5.38537">
        <ele>404.7</ele>
        <time>2022-10-15T11:32:13.000Z</time>
      </trkpt>
      <trkpt lat="45.14538" lon="5.38539">
        <ele>405</ele>
        <time>2022-10-15T11:32:15.000Z</time>
      </trkpt>
      <trkpt lat="45.14542" lon="5.38539">
        <ele>404.5</ele>
        <time>2022-10-15T11:32:17.000Z</time>
      </trkpt>
      <trkpt lat="45.14545" lon="5.3854">
        <ele>404.4</ele>
        <time>2022-10-15T11:32:19.000Z</time>
      </trkpt>
      <trkpt lat="45.14547" lon="5.38541">
        <ele>404.3</ele>
        <time>2022-10-15T11:32:20.000Z</time>
      </trkpt>
      <trkpt lat="45.1455" lon="5.38542">
        <ele>404.3</ele>
        <time>2022-10-15T11:32:22.000Z</time>
      </trkpt>
      <trkpt lat="45.14552" lon="5.38542">
        <ele>404.2</ele>
        <time>2022-10-15T11:32:23.000Z</time>
      </trkpt>
      <trkpt lat="45.14554" lon="5.38543">
        <ele>404.4</ele>
        <time>2022-10-15T11:32:24.000Z</time>
      </trkpt>
      <trkpt lat="45.14555" lon="5.38544">
        <ele>404.6</ele>
        <time>2022-10-15T11:32:25.000Z</time>
      </trkpt>
      <trkpt lat="45.14557" lon="5.38545">
        <ele>404.7</ele>
        <time>2022-10-15T11:32:26.000Z</time>
      </trkpt>
      <trkpt lat="45.14559" lon="5.38546">
        <ele>404.8</ele>
        <time>2022-10-15T11:32:27.000Z</time>
      </trkpt>
      <trkpt lat="45.14563" lon="5.38548">
        <ele>404.9</ele>
        <time>2022-10-15T11:32:29.000Z</time>
      </trkpt>
      <trkpt lat="45.14564" lon="5.38549">
        <ele>405.1</ele>
        <time>2022-10-15T11:32:30.000Z</time>
      </trkpt>
      <trkpt lat="45.14567" lon="5.3855">
        <ele>405.2</ele>
        <time>2022-10-15T11:32:32.000Z</time>
      </trkpt>
      <trkpt lat="45.1457" lon="5.38553">
        <ele>405.8</ele>
        <time>2022-10-15T11:32:34.000Z</time>
      </trkpt>
      <trkpt lat="45.14573" lon="5.38555">
        <ele>406.4</ele>
        <time>2022-10-15T11:32:36.000Z</time>
      </trkpt>
      <trkpt lat="45.14576" lon="5.38558">
        <ele>406.8</ele>
        <time>2022-10-15T11:32:38.000Z</time>
      </trkpt>
      <trkpt lat="45.14577" lon="5.38559">
        <ele>407.2</ele>
        <time>2022-10-15T11:32:39.000Z</time>
      </trkpt>
      <trkpt lat="45.14579" lon="5.38561">
        <ele>407.7</ele>
        <time>2022-10-15T11:32:40.000Z</time>
      </trkpt>
      <trkpt lat="45.14581" lon="5.38564">
        <ele>408.3</ele>
        <time>2022-10-15T11:32:42.000Z</time>
      </trkpt>
      <trkpt lat="45.14583" lon="5.38566">
        <ele>408.9</ele>
        <time>2022-10-15T11:32:44.000Z</time>
      </trkpt>
      <trkpt lat="45.14585" lon="5.38569">
        <ele>409.7</ele>
        <time>2022-10-15T11:32:46.000Z</time>
      </trkpt>
      <trkpt lat="45.14587" lon="5.38572">
        <ele>410.3</ele>
        <time>2022-10-15T11:32:48.000Z</time>
      </trkpt>
      <trkpt lat="45.14591" lon="5.38575">
        <ele>410.5</ele>
        <time>2022-10-15T11:32:50.000Z</time>
      </trkpt>
      <trkpt lat="45.14593" lon="5.38576">
        <ele>410.3</ele>
        <time>2022-10-15T11:32:51.000Z</time>
      </trkpt>
      <trkpt lat="45.14595" lon="5.38579">
        <ele>411</ele>
        <time>2022-10-15T11:32:53.000Z</time>
      </trkpt>
      <trkpt lat="45.14597" lon="5.38582">
        <ele>411.5</ele>
        <time>2022-10-15T11:32:55.000Z</time>
      </trkpt>
      <trkpt lat="45.14598" lon="5.38585">
        <ele>412.5</ele>
        <time>2022-10-15T11:32:58.000Z</time>
      </trkpt>
      <trkpt lat="45.146" lon="5.38588">
        <ele>413</ele>
        <time>2022-10-15T11:33:00.000Z</time>
      </trkpt>
      <trkpt lat="45.146" lon="5.38592">
        <ele>414.5</ele>
        <time>2022-10-15T11:33:02.000Z</time>
      </trkpt>
      <trkpt lat="45.14601" lon="5.38596">
        <ele>415.6</ele>
        <time>2022-10-15T11:33:04.000Z</time>
      </trkpt>
      <trkpt lat="45.14605" lon="5.38594">
        <ele>414.3</ele>
        <time>2022-10-15T11:33:06.000Z</time>
      </trkpt>
      <trkpt lat="45.14607" lon="5.38596">
        <ele>414.4</ele>
        <time>2022-10-15T11:33:07.000Z</time>
      </trkpt>
      <trkpt lat="45.14609" lon="5.38597">
        <ele>414.5</ele>
        <time>2022-10-15T11:33:08.000Z</time>
      </trkpt>
      <trkpt lat="45.14611" lon="5.38598">
        <ele>414.4</ele>
        <time>2022-10-15T11:33:09.000Z</time>
      </trkpt>
      <trkpt lat="45.14613" lon="5.38599">
        <ele>414</ele>
        <time>2022-10-15T11:33:11.000Z</time>
      </trkpt>
      <trkpt lat="45.14615" lon="5.386">
        <ele>414</ele>
        <time>2022-10-15T11:33:14.000Z</time>
      </trkpt>
      <trkpt lat="45.14617" lon="5.386">
        <ele>413.1</ele>
        <time>2022-10-15T11:33:15.000Z</time>
      </trkpt>
      <trkpt lat="45.1462" lon="5.38601">
        <ele>413</ele>
        <time>2022-10-15T11:33:17.000Z</time>
      </trkpt>
      <trkpt lat="45.14624" lon="5.38599">
        <ele>411.2</ele>
        <time>2022-10-15T11:33:19.000Z</time>
      </trkpt>
      <trkpt lat="45.14626" lon="5.38598">
        <ele>410.5</ele>
        <time>2022-10-15T11:33:23.000Z</time>
      </trkpt>
      <trkpt lat="45.14628" lon="5.386">
        <ele>410.4</ele>
        <time>2022-10-15T11:33:25.000Z</time>
      </trkpt>
      <trkpt lat="45.1463" lon="5.38604">
        <ele>411.2</ele>
        <time>2022-10-15T11:33:26.000Z</time>
      </trkpt>
      <trkpt lat="45.14633" lon="5.38609">
        <ele>412</ele>
        <time>2022-10-15T11:33:27.000Z</time>
      </trkpt>
      <trkpt lat="45.14635" lon="5.38612">
        <ele>412.3</ele>
        <time>2022-10-15T11:33:28.000Z</time>
      </trkpt>
      <trkpt lat="45.14637" lon="5.38614">
        <ele>412.8</ele>
        <time>2022-10-15T11:33:29.000Z</time>
      </trkpt>
      <trkpt lat="45.14638" lon="5.38618">
        <ele>413.8</ele>
        <time>2022-10-15T11:33:30.000Z</time>
      </trkpt>
      <trkpt lat="45.1464" lon="5.3862">
        <ele>413.9</ele>
        <time>2022-10-15T11:33:31.000Z</time>
      </trkpt>
      <trkpt lat="45.14642" lon="5.38621">
        <ele>413.6</ele>
        <time>2022-10-15T11:33:32.000Z</time>
      </trkpt>
      <trkpt lat="45.14644" lon="5.38622">
        <ele>413.5</ele>
        <time>2022-10-15T11:33:33.000Z</time>
      </trkpt>
      <trkpt lat="45.14646" lon="5.38624">
        <ele>413.6</ele>
        <time>2022-10-15T11:33:35.000Z</time>
      </trkpt>
      <trkpt lat="45.14648" lon="5.38627">
        <ele>414.1</ele>
        <time>2022-10-15T11:33:37.000Z</time>
      </trkpt>
      <trkpt lat="45.1465" lon="5.38629">
        <ele>414.4</ele>
        <time>2022-10-15T11:33:39.000Z</time>
      </trkpt>
      <trkpt lat="45.14652" lon="5.38632">
        <ele>414.6</ele>
        <time>2022-10-15T11:33:41.000Z</time>
      </trkpt>
      <trkpt lat="45.14654" lon="5.38634">
        <ele>415.1</ele>
        <time>2022-10-15T11:33:43.000Z</time>
      </trkpt>
      <trkpt lat="45.14655" lon="5.38638">
        <ele>415.9</ele>
        <time>2022-10-15T11:33:45.000Z</time>
      </trkpt>
      <trkpt lat="45.14656" lon="5.38642">
        <ele>416.9</ele>
        <time>2022-10-15T11:33:47.000Z</time>
      </trkpt>
      <trkpt lat="45.14656" lon="5.38645">
        <ele>418</ele>
        <time>2022-10-15T11:33:49.000Z</time>
      </trkpt>
      <trkpt lat="45.14657" lon="5.38648">
        <ele>418.7</ele>
        <time>2022-10-15T11:33:51.000Z</time>
      </trkpt>
      <trkpt lat="45.14658" lon="5.3865">
        <ele>419.2</ele>
        <time>2022-10-15T11:33:53.000Z</time>
      </trkpt>
      <trkpt lat="45.14659" lon="5.38653">
        <ele>419.8</ele>
        <time>2022-10-15T11:33:56.000Z</time>
      </trkpt>
      <trkpt lat="45.14661" lon="5.38656">
        <ele>420.2</ele>
        <time>2022-10-15T11:33:57.000Z</time>
      </trkpt>
      <trkpt lat="45.14662" lon="5.3866">
        <ele>421</ele>
        <time>2022-10-15T11:33:58.000Z</time>
      </trkpt>
      <trkpt lat="45.14665" lon="5.38662">
        <ele>421</ele>
        <time>2022-10-15T11:33:59.000Z</time>
      </trkpt>
      <trkpt lat="45.14665" lon="5.38665">
        <ele>421.8</ele>
        <time>2022-10-15T11:34:00.000Z</time>
      </trkpt>
      <trkpt lat="45.14666" lon="5.38669">
        <ele>423</ele>
        <time>2022-10-15T11:34:01.000Z</time>
      </trkpt>
      <trkpt lat="45.14667" lon="5.38673">
        <ele>424.2</ele>
        <time>2022-10-15T11:34:02.000Z</time>
      </trkpt>
      <trkpt lat="45.14669" lon="5.38674">
        <ele>424</ele>
        <time>2022-10-15T11:34:03.000Z</time>
      </trkpt>
      <trkpt lat="45.1467" lon="5.38676">
        <ele>424.2</ele>
        <time>2022-10-15T11:34:04.000Z</time>
      </trkpt>
      <trkpt lat="45.14672" lon="5.38677">
        <ele>424.3</ele>
        <time>2022-10-15T11:34:05.000Z</time>
      </trkpt>
      <trkpt lat="45.14673" lon="5.38679">
        <ele>424.3</ele>
        <time>2022-10-15T11:34:06.000Z</time>
      </trkpt>
      <trkpt lat="45.14676" lon="5.3868">
        <ele>424.1</ele>
        <time>2022-10-15T11:34:07.000Z</time>
      </trkpt>
      <trkpt lat="45.14678" lon="5.38682">
        <ele>424.1</ele>
        <time>2022-10-15T11:34:08.000Z</time>
      </trkpt>
      <trkpt lat="45.14679" lon="5.38683">
        <ele>423.9</ele>
        <time>2022-10-15T11:34:09.000Z</time>
      </trkpt>
      <trkpt lat="45.14681" lon="5.38684">
        <ele>423.9</ele>
        <time>2022-10-15T11:34:10.000Z</time>
      </trkpt>
      <trkpt lat="45.14683" lon="5.38685">
        <ele>423.6</ele>
        <time>2022-10-15T11:34:11.000Z</time>
      </trkpt>
      <trkpt lat="45.14686" lon="5.38688">
        <ele>423.6</ele>
        <time>2022-10-15T11:34:13.000Z</time>
      </trkpt>
      <trkpt lat="45.14688" lon="5.38689">
        <ele>423.4</ele>
        <time>2022-10-15T11:34:14.000Z</time>
      </trkpt>
      <trkpt lat="45.14691" lon="5.38691">
        <ele>423</ele>
        <time>2022-10-15T11:34:16.000Z</time>
      </trkpt>
      <trkpt lat="45.14695" lon="5.38693">
        <ele>422.6</ele>
        <time>2022-10-15T11:34:18.000Z</time>
      </trkpt>
      <trkpt lat="45.14697" lon="5.38695">
        <ele>422.6</ele>
        <time>2022-10-15T11:34:19.000Z</time>
      </trkpt>
      <trkpt lat="45.14699" lon="5.38696">
        <ele>422.6</ele>
        <time>2022-10-15T11:34:20.000Z</time>
      </trkpt>
      <trkpt lat="45.147" lon="5.38697">
        <ele>422.5</ele>
        <time>2022-10-15T11:34:21.000Z</time>
      </trkpt>
      <trkpt lat="45.14703" lon="5.387">
        <ele>422.7</ele>
        <time>2022-10-15T11:34:23.000Z</time>
      </trkpt>
      <trkpt lat="45.14706" lon="5.38703">
        <ele>423.3</ele>
        <time>2022-10-15T11:34:25.000Z</time>
      </trkpt>
      <trkpt lat="45.14708" lon="5.38706">
        <ele>423.9</ele>
        <time>2022-10-15T11:34:27.000Z</time>
      </trkpt>
      <trkpt lat="45.1471" lon="5.38708">
        <ele>424</ele>
        <time>2022-10-15T11:34:28.000Z</time>
      </trkpt>
      <trkpt lat="45.14711" lon="5.38709">
        <ele>424.2</ele>
        <time>2022-10-15T11:34:29.000Z</time>
      </trkpt>
      <trkpt lat="45.14712" lon="5.38712">
        <ele>424.9</ele>
        <time>2022-10-15T11:34:31.000Z</time>
      </trkpt>
      <trkpt lat="45.14713" lon="5.38715">
        <ele>425.7</ele>
        <time>2022-10-15T11:34:33.000Z</time>
      </trkpt>
      <trkpt lat="45.14716" lon="5.38718">
        <ele>426.1</ele>
        <time>2022-10-15T11:34:35.000Z</time>
      </trkpt>
      <trkpt lat="45.14717" lon="5.3872">
        <ele>426.3</ele>
        <time>2022-10-15T11:34:36.000Z</time>
      </trkpt>
      <trkpt lat="45.14719" lon="5.38721">
        <ele>426.1</ele>
        <time>2022-10-15T11:34:37.000Z</time>
      </trkpt>
      <trkpt lat="45.14721" lon="5.38722">
        <ele>426.1</ele>
        <time>2022-10-15T11:34:38.000Z</time>
      </trkpt>
      <trkpt lat="45.14723" lon="5.38723">
        <ele>426</ele>
        <time>2022-10-15T11:34:39.000Z</time>
      </trkpt>
      <trkpt lat="45.14725" lon="5.38724">
        <ele>426.1</ele>
        <time>2022-10-15T11:34:40.000Z</time>
      </trkpt>
      <trkpt lat="45.14726" lon="5.38727">
        <ele>426.8</ele>
        <time>2022-10-15T11:34:42.000Z</time>
      </trkpt>
      <trkpt lat="45.14729" lon="5.38728">
        <ele>426.7</ele>
        <time>2022-10-15T11:34:44.000Z</time>
      </trkpt>
      <trkpt lat="45.14731" lon="5.38729">
        <ele>426.7</ele>
        <time>2022-10-15T11:34:45.000Z</time>
      </trkpt>
      <trkpt lat="45.14732" lon="5.38729">
        <ele>426.4</ele>
        <time>2022-10-15T11:34:46.000Z</time>
      </trkpt>
      <trkpt lat="45.14735" lon="5.38731">
        <ele>426.6</ele>
        <time>2022-10-15T11:34:48.000Z</time>
      </trkpt>
      <trkpt lat="45.14736" lon="5.38732">
        <ele>426.7</ele>
        <time>2022-10-15T11:34:49.000Z</time>
      </trkpt>
      <trkpt lat="45.14739" lon="5.38735">
        <ele>427.2</ele>
        <time>2022-10-15T11:34:51.000Z</time>
      </trkpt>
      <trkpt lat="45.14741" lon="5.38737">
        <ele>427.7</ele>
        <time>2022-10-15T11:34:53.000Z</time>
      </trkpt>
      <trkpt lat="45.14743" lon="5.3874">
        <ele>428.4</ele>
        <time>2022-10-15T11:34:55.000Z</time>
      </trkpt>
      <trkpt lat="45.14744" lon="5.38743">
        <ele>429.5</ele>
        <time>2022-10-15T11:34:57.000Z</time>
      </trkpt>
      <trkpt lat="45.14745" lon="5.38746">
        <ele>430.3</ele>
        <time>2022-10-15T11:34:59.000Z</time>
      </trkpt>
      <trkpt lat="45.14747" lon="5.38748">
        <ele>430.7</ele>
        <time>2022-10-15T11:35:01.000Z</time>
      </trkpt>
      <trkpt lat="45.14749" lon="5.3875">
        <ele>431.3</ele>
        <time>2022-10-15T11:35:03.000Z</time>
      </trkpt>
      <trkpt lat="45.14751" lon="5.38753">
        <ele>431.9</ele>
        <time>2022-10-15T11:35:05.000Z</time>
      </trkpt>
      <trkpt lat="45.14753" lon="5.38755">
        <ele>432.7</ele>
        <time>2022-10-15T11:35:07.000Z</time>
      </trkpt>
      <trkpt lat="45.14755" lon="5.38758">
        <ele>433.4</ele>
        <time>2022-10-15T11:35:09.000Z</time>
      </trkpt>
      <trkpt lat="45.14758" lon="5.3876">
        <ele>434.1</ele>
        <time>2022-10-15T11:35:11.000Z</time>
      </trkpt>
      <trkpt lat="45.1476" lon="5.38763">
        <ele>434.9</ele>
        <time>2022-10-15T11:35:13.000Z</time>
      </trkpt>
      <trkpt lat="45.14761" lon="5.38765">
        <ele>435.7</ele>
        <time>2022-10-15T11:35:15.000Z</time>
      </trkpt>
      <trkpt lat="45.14762" lon="5.38768">
        <ele>436.8</ele>
        <time>2022-10-15T11:35:17.000Z</time>
      </trkpt>
      <trkpt lat="45.14764" lon="5.3877">
        <ele>437.4</ele>
        <time>2022-10-15T11:35:19.000Z</time>
      </trkpt>
      <trkpt lat="45.14766" lon="5.38771">
        <ele>437.6</ele>
        <time>2022-10-15T11:35:20.000Z</time>
      </trkpt>
      <trkpt lat="45.14768" lon="5.38773">
        <ele>438.2</ele>
        <time>2022-10-15T11:35:22.000Z</time>
      </trkpt>
      <trkpt lat="45.14771" lon="5.38775">
        <ele>438.5</ele>
        <time>2022-10-15T11:35:24.000Z</time>
      </trkpt>
      <trkpt lat="45.14773" lon="5.38775">
        <ele>438.3</ele>
        <time>2022-10-15T11:35:25.000Z</time>
      </trkpt>
      <trkpt lat="45.14775" lon="5.38776">
        <ele>438.3</ele>
        <time>2022-10-15T11:35:26.000Z</time>
      </trkpt>
      <trkpt lat="45.14777" lon="5.38775">
        <ele>438</ele>
        <time>2022-10-15T11:35:27.000Z</time>
      </trkpt>
      <trkpt lat="45.14779" lon="5.38774">
        <ele>437.2</ele>
        <time>2022-10-15T11:35:28.000Z</time>
      </trkpt>
      <trkpt lat="45.14781" lon="5.38774">
        <ele>437</ele>
        <time>2022-10-15T11:35:29.000Z</time>
      </trkpt>
      <trkpt lat="45.14783" lon="5.38775">
        <ele>436.8</ele>
        <time>2022-10-15T11:35:30.000Z</time>
      </trkpt>
      <trkpt lat="45.14786" lon="5.38775">
        <ele>436.5</ele>
        <time>2022-10-15T11:35:31.000Z</time>
      </trkpt>
      <trkpt lat="45.14788" lon="5.38775">
        <ele>436.4</ele>
        <time>2022-10-15T11:35:32.000Z</time>
      </trkpt>
      <trkpt lat="45.14791" lon="5.38777">
        <ele>436.7</ele>
        <time>2022-10-15T11:35:33.000Z</time>
      </trkpt>
      <trkpt lat="45.14793" lon="5.38778">
        <ele>436.9</ele>
        <time>2022-10-15T11:35:34.000Z</time>
      </trkpt>
      <trkpt lat="45.14795" lon="5.38779">
        <ele>437</ele>
        <time>2022-10-15T11:35:35.000Z</time>
      </trkpt>
      <trkpt lat="45.14797" lon="5.3878">
        <ele>437</ele>
        <time>2022-10-15T11:35:36.000Z</time>
      </trkpt>
      <trkpt lat="45.14799" lon="5.3878">
        <ele>437.1</ele>
        <time>2022-10-15T11:35:37.000Z</time>
      </trkpt>
      <trkpt lat="45.14801" lon="5.38781">
        <ele>437.1</ele>
        <time>2022-10-15T11:35:38.000Z</time>
      </trkpt>
      <trkpt lat="45.14803" lon="5.38782">
        <ele>437.4</ele>
        <time>2022-10-15T11:35:39.000Z</time>
      </trkpt>
      <trkpt lat="45.14807" lon="5.38784">
        <ele>437.5</ele>
        <time>2022-10-15T11:35:41.000Z</time>
      </trkpt>
      <trkpt lat="45.14809" lon="5.38784">
        <ele>437.3</ele>
        <time>2022-10-15T11:35:42.000Z</time>
      </trkpt>
      <trkpt lat="45.14812" lon="5.38784">
        <ele>437.2</ele>
        <time>2022-10-15T11:35:44.000Z</time>
      </trkpt>
      <trkpt lat="45.14814" lon="5.38785">
        <ele>437.2</ele>
        <time>2022-10-15T11:35:45.000Z</time>
      </trkpt>
      <trkpt lat="45.14815" lon="5.38786">
        <ele>437.5</ele>
        <time>2022-10-15T11:35:46.000Z</time>
      </trkpt>
      <trkpt lat="45.14818" lon="5.38787">
        <ele>437.4</ele>
        <time>2022-10-15T11:35:48.000Z</time>
      </trkpt>
      <trkpt lat="45.1482" lon="5.38788">
        <ele>437.6</ele>
        <time>2022-10-15T11:35:49.000Z</time>
      </trkpt>
      <trkpt lat="45.14823" lon="5.38789">
        <ele>437.8</ele>
        <time>2022-10-15T11:35:51.000Z</time>
      </trkpt>
      <trkpt lat="45.14826" lon="5.3879">
        <ele>438.2</ele>
        <time>2022-10-15T11:35:53.000Z</time>
      </trkpt>
      <trkpt lat="45.14829" lon="5.38792">
        <ele>438.9</ele>
        <time>2022-10-15T11:35:55.000Z</time>
      </trkpt>
      <trkpt lat="45.14831" lon="5.38795">
        <ele>439.7</ele>
        <time>2022-10-15T11:35:57.000Z</time>
      </trkpt>
      <trkpt lat="45.14834" lon="5.38797">
        <ele>440.6</ele>
        <time>2022-10-15T11:35:59.000Z</time>
      </trkpt>
      <trkpt lat="45.14836" lon="5.38799">
        <ele>441.1</ele>
        <time>2022-10-15T11:36:00.000Z</time>
      </trkpt>
      <trkpt lat="45.14838" lon="5.388">
        <ele>441.3</ele>
        <time>2022-10-15T11:36:01.000Z</time>
      </trkpt>
      <trkpt lat="45.14841" lon="5.38801">
        <ele>441.5</ele>
        <time>2022-10-15T11:36:03.000Z</time>
      </trkpt>
      <trkpt lat="45.14844" lon="5.38803">
        <ele>442</ele>
        <time>2022-10-15T11:36:05.000Z</time>
      </trkpt>
      <trkpt lat="45.14845" lon="5.38805">
        <ele>442.5</ele>
        <time>2022-10-15T11:36:06.000Z</time>
      </trkpt>
      <trkpt lat="45.14847" lon="5.38806">
        <ele>442.8</ele>
        <time>2022-10-15T11:36:07.000Z</time>
      </trkpt>
      <trkpt lat="45.14849" lon="5.38807">
        <ele>442.9</ele>
        <time>2022-10-15T11:36:08.000Z</time>
      </trkpt>
      <trkpt lat="45.14851" lon="5.38809">
        <ele>443.4</ele>
        <time>2022-10-15T11:36:09.000Z</time>
      </trkpt>
      <trkpt lat="45.14853" lon="5.3881">
        <ele>443.6</ele>
        <time>2022-10-15T11:36:10.000Z</time>
      </trkpt>
      <trkpt lat="45.14854" lon="5.38811">
        <ele>443.9</ele>
        <time>2022-10-15T11:36:11.000Z</time>
      </trkpt>
      <trkpt lat="45.14856" lon="5.38812">
        <ele>444.2</ele>
        <time>2022-10-15T11:36:12.000Z</time>
      </trkpt>
      <trkpt lat="45.1486" lon="5.38814">
        <ele>444.2</ele>
        <time>2022-10-15T11:36:14.000Z</time>
      </trkpt>
      <trkpt lat="45.14861" lon="5.38815">
        <ele>444.6</ele>
        <time>2022-10-15T11:36:15.000Z</time>
      </trkpt>
      <trkpt lat="45.14863" lon="5.38816">
        <ele>444.7</ele>
        <time>2022-10-15T11:36:16.000Z</time>
      </trkpt>
      <trkpt lat="45.14866" lon="5.38818">
        <ele>445.4</ele>
        <time>2022-10-15T11:36:18.000Z</time>
      </trkpt>
      <trkpt lat="45.14868" lon="5.38819">
        <ele>445.5</ele>
        <time>2022-10-15T11:36:19.000Z</time>
      </trkpt>
      <trkpt lat="45.1487" lon="5.3882">
        <ele>445.6</ele>
        <time>2022-10-15T11:36:20.000Z</time>
      </trkpt>
      <trkpt lat="45.14872" lon="5.38821">
        <ele>445.6</ele>
        <time>2022-10-15T11:36:21.000Z</time>
      </trkpt>
      <trkpt lat="45.14874" lon="5.38822">
        <ele>445.8</ele>
        <time>2022-10-15T11:36:22.000Z</time>
      </trkpt>
      <trkpt lat="45.14876" lon="5.38823">
        <ele>445.9</ele>
        <time>2022-10-15T11:36:23.000Z</time>
      </trkpt>
      <trkpt lat="45.14878" lon="5.38825">
        <ele>446.2</ele>
        <time>2022-10-15T11:36:25.000Z</time>
      </trkpt>
      <trkpt lat="45.14881" lon="5.38827">
        <ele>446.5</ele>
        <time>2022-10-15T11:36:27.000Z</time>
      </trkpt>
      <trkpt lat="45.14883" lon="5.38829">
        <ele>447.2</ele>
        <time>2022-10-15T11:36:29.000Z</time>
      </trkpt>
      <trkpt lat="45.14885" lon="5.38831">
        <ele>447.9</ele>
        <time>2022-10-15T11:36:31.000Z</time>
      </trkpt>
      <trkpt lat="45.14886" lon="5.38833">
        <ele>448.3</ele>
        <time>2022-10-15T11:36:32.000Z</time>
      </trkpt>
      <trkpt lat="45.14888" lon="5.38834">
        <ele>448.6</ele>
        <time>2022-10-15T11:36:33.000Z</time>
      </trkpt>
      <trkpt lat="45.14889" lon="5.38836">
        <ele>449</ele>
        <time>2022-10-15T11:36:34.000Z</time>
      </trkpt>
      <trkpt lat="45.14891" lon="5.38838">
        <ele>449.4</ele>
        <time>2022-10-15T11:36:35.000Z</time>
      </trkpt>
      <trkpt lat="45.14894" lon="5.3884">
        <ele>449.6</ele>
        <time>2022-10-15T11:36:37.000Z</time>
      </trkpt>
      <trkpt lat="45.14895" lon="5.38842">
        <ele>450</ele>
        <time>2022-10-15T11:36:38.000Z</time>
      </trkpt>
      <trkpt lat="45.14897" lon="5.38843">
        <ele>450.3</ele>
        <time>2022-10-15T11:36:39.000Z</time>
      </trkpt>
      <trkpt lat="45.14899" lon="5.38846">
        <ele>451</ele>
        <time>2022-10-15T11:36:41.000Z</time>
      </trkpt>
      <trkpt lat="45.14902" lon="5.38849">
        <ele>451.3</ele>
        <time>2022-10-15T11:36:43.000Z</time>
      </trkpt>
      <trkpt lat="45.14905" lon="5.38851">
        <ele>451.4</ele>
        <time>2022-10-15T11:36:45.000Z</time>
      </trkpt>
      <trkpt lat="45.14908" lon="5.38853">
        <ele>451.5</ele>
        <time>2022-10-15T11:36:47.000Z</time>
      </trkpt>
      <trkpt lat="45.14911" lon="5.38854">
        <ele>451.5</ele>
        <time>2022-10-15T11:36:49.000Z</time>
      </trkpt>
      <trkpt lat="45.14914" lon="5.38856">
        <ele>451.7</ele>
        <time>2022-10-15T11:36:51.000Z</time>
      </trkpt>
      <trkpt lat="45.14916" lon="5.38858">
        <ele>452.1</ele>
        <time>2022-10-15T11:36:53.000Z</time>
      </trkpt>
      <trkpt lat="45.14918" lon="5.3886">
        <ele>452.3</ele>
        <time>2022-10-15T11:36:55.000Z</time>
      </trkpt>
      <trkpt lat="45.14919" lon="5.38861">
        <ele>452.4</ele>
        <time>2022-10-15T11:36:56.000Z</time>
      </trkpt>
      <trkpt lat="45.14921" lon="5.38862">
        <ele>452.4</ele>
        <time>2022-10-15T11:36:57.000Z</time>
      </trkpt>
      <trkpt lat="45.14924" lon="5.38865">
        <ele>452.7</ele>
        <time>2022-10-15T11:36:59.000Z</time>
      </trkpt>
      <trkpt lat="45.14927" lon="5.38868">
        <ele>453.1</ele>
        <time>2022-10-15T11:37:01.000Z</time>
      </trkpt>
      <trkpt lat="45.1493" lon="5.38869">
        <ele>453.1</ele>
        <time>2022-10-15T11:37:03.000Z</time>
      </trkpt>
      <trkpt lat="45.14932" lon="5.38871">
        <ele>453.2</ele>
        <time>2022-10-15T11:37:05.000Z</time>
      </trkpt>
      <trkpt lat="45.14933" lon="5.38872">
        <ele>453.5</ele>
        <time>2022-10-15T11:37:06.000Z</time>
      </trkpt>
      <trkpt lat="45.14935" lon="5.38874">
        <ele>453.8</ele>
        <time>2022-10-15T11:37:07.000Z</time>
      </trkpt>
      <trkpt lat="45.14937" lon="5.38875">
        <ele>453.9</ele>
        <time>2022-10-15T11:37:08.000Z</time>
      </trkpt>
      <trkpt lat="45.14939" lon="5.38878">
        <ele>454.3</ele>
        <time>2022-10-15T11:37:10.000Z</time>
      </trkpt>
      <trkpt lat="45.14942" lon="5.38879">
        <ele>454.3</ele>
        <time>2022-10-15T11:37:12.000Z</time>
      </trkpt>
      <trkpt lat="45.14945" lon="5.3888">
        <ele>453.9</ele>
        <time>2022-10-15T11:37:14.000Z</time>
      </trkpt>
      <trkpt lat="45.14947" lon="5.38881">
        <ele>453.9</ele>
        <time>2022-10-15T11:37:15.000Z</time>
      </trkpt>
      <trkpt lat="45.14949" lon="5.38882">
        <ele>453.9</ele>
        <time>2022-10-15T11:37:16.000Z</time>
      </trkpt>
      <trkpt lat="45.14951" lon="5.38883">
        <ele>453.9</ele>
        <time>2022-10-15T11:37:17.000Z</time>
      </trkpt>
      <trkpt lat="45.14953" lon="5.38884">
        <ele>453.8</ele>
        <time>2022-10-15T11:37:18.000Z</time>
      </trkpt>
      <trkpt lat="45.14955" lon="5.38885">
        <ele>453.9</ele>
        <time>2022-10-15T11:37:19.000Z</time>
      </trkpt>
      <trkpt lat="45.14957" lon="5.38886">
        <ele>454</ele>
        <time>2022-10-15T11:37:21.000Z</time>
      </trkpt>
      <trkpt lat="45.14959" lon="5.38887">
        <ele>454</ele>
        <time>2022-10-15T11:37:23.000Z</time>
      </trkpt>
      <trkpt lat="45.14962" lon="5.3889">
        <ele>454.8</ele>
        <time>2022-10-15T11:37:25.000Z</time>
      </trkpt>
      <trkpt lat="45.14965" lon="5.38894">
        <ele>455.6</ele>
        <time>2022-10-15T11:37:27.000Z</time>
      </trkpt>
      <trkpt lat="45.14966" lon="5.38895">
        <ele>455.9</ele>
        <time>2022-10-15T11:37:28.000Z</time>
      </trkpt>
      <trkpt lat="45.14968" lon="5.38896">
        <ele>456</ele>
        <time>2022-10-15T11:37:29.000Z</time>
      </trkpt>
      <trkpt lat="45.1497" lon="5.38898">
        <ele>456.3</ele>
        <time>2022-10-15T11:37:30.000Z</time>
      </trkpt>
      <trkpt lat="45.14973" lon="5.38901">
        <ele>456.9</ele>
        <time>2022-10-15T11:37:32.000Z</time>
      </trkpt>
      <trkpt lat="45.14976" lon="5.38903">
        <ele>457.3</ele>
        <time>2022-10-15T11:37:34.000Z</time>
      </trkpt>
      <trkpt lat="45.14979" lon="5.38905">
        <ele>457.2</ele>
        <time>2022-10-15T11:37:36.000Z</time>
      </trkpt>
      <trkpt lat="45.14983" lon="5.38906">
        <ele>457</ele>
        <time>2022-10-15T11:37:38.000Z</time>
      </trkpt>
      <trkpt lat="45.14984" lon="5.38907">
        <ele>457.1</ele>
        <time>2022-10-15T11:37:39.000Z</time>
      </trkpt>
      <trkpt lat="45.14987" lon="5.3891">
        <ele>457.9</ele>
        <time>2022-10-15T11:37:41.000Z</time>
      </trkpt>
      <trkpt lat="45.14989" lon="5.38911">
        <ele>457.9</ele>
        <time>2022-10-15T11:37:42.000Z</time>
      </trkpt>
      <trkpt lat="45.14991" lon="5.38912">
        <ele>458</ele>
        <time>2022-10-15T11:37:43.000Z</time>
      </trkpt>
      <trkpt lat="45.14994" lon="5.38914">
        <ele>458.2</ele>
        <time>2022-10-15T11:37:45.000Z</time>
      </trkpt>
      <trkpt lat="45.14996" lon="5.38915">
        <ele>458.3</ele>
        <time>2022-10-15T11:37:46.000Z</time>
      </trkpt>
      <trkpt lat="45.14999" lon="5.38918">
        <ele>458.6</ele>
        <time>2022-10-15T11:37:48.000Z</time>
      </trkpt>
      <trkpt lat="45.15001" lon="5.38919">
        <ele>458.6</ele>
        <time>2022-10-15T11:37:49.000Z</time>
      </trkpt>
      <trkpt lat="45.15003" lon="5.3892">
        <ele>458.7</ele>
        <time>2022-10-15T11:37:50.000Z</time>
      </trkpt>
      <trkpt lat="45.15004" lon="5.38921">
        <ele>458.7</ele>
        <time>2022-10-15T11:37:51.000Z</time>
      </trkpt>
      <trkpt lat="45.15006" lon="5.38922">
        <ele>458.7</ele>
        <time>2022-10-15T11:37:52.000Z</time>
      </trkpt>
      <trkpt lat="45.1501" lon="5.38923">
        <ele>458.6</ele>
        <time>2022-10-15T11:37:54.000Z</time>
      </trkpt>
      <trkpt lat="45.15013" lon="5.38925">
        <ele>458.9</ele>
        <time>2022-10-15T11:37:56.000Z</time>
      </trkpt>
      <trkpt lat="45.15015" lon="5.38927">
        <ele>459.3</ele>
        <time>2022-10-15T11:37:58.000Z</time>
      </trkpt>
      <trkpt lat="45.15018" lon="5.38929">
        <ele>459.3</ele>
        <time>2022-10-15T11:38:00.000Z</time>
      </trkpt>
      <trkpt lat="45.1502" lon="5.3893">
        <ele>459.3</ele>
        <time>2022-10-15T11:38:01.000Z</time>
      </trkpt>
      <trkpt lat="45.15023" lon="5.38931">
        <ele>459.2</ele>
        <time>2022-10-15T11:38:03.000Z</time>
      </trkpt>
      <trkpt lat="45.15026" lon="5.38933">
        <ele>459.6</ele>
        <time>2022-10-15T11:38:05.000Z</time>
      </trkpt>
      <trkpt lat="45.15028" lon="5.38935">
        <ele>460</ele>
        <time>2022-10-15T11:38:07.000Z</time>
      </trkpt>
      <trkpt lat="45.1503" lon="5.38938">
        <ele>460.6</ele>
        <time>2022-10-15T11:38:09.000Z</time>
      </trkpt>
      <trkpt lat="45.15033" lon="5.3894">
        <ele>460.8</ele>
        <time>2022-10-15T11:38:11.000Z</time>
      </trkpt>
      <trkpt lat="45.15035" lon="5.38941">
        <ele>461</ele>
        <time>2022-10-15T11:38:12.000Z</time>
      </trkpt>
      <trkpt lat="45.15038" lon="5.38943">
        <ele>461.3</ele>
        <time>2022-10-15T11:38:14.000Z</time>
      </trkpt>
      <trkpt lat="45.15041" lon="5.38945">
        <ele>461.4</ele>
        <time>2022-10-15T11:38:16.000Z</time>
      </trkpt>
      <trkpt lat="45.15043" lon="5.38947">
        <ele>461.9</ele>
        <time>2022-10-15T11:38:18.000Z</time>
      </trkpt>
      <trkpt lat="45.15046" lon="5.38949">
        <ele>462</ele>
        <time>2022-10-15T11:38:20.000Z</time>
      </trkpt>
      <trkpt lat="45.15049" lon="5.38951">
        <ele>462.1</ele>
        <time>2022-10-15T11:38:22.000Z</time>
      </trkpt>
      <trkpt lat="45.15052" lon="5.38953">
        <ele>462.3</ele>
        <time>2022-10-15T11:38:24.000Z</time>
      </trkpt>
      <trkpt lat="45.15055" lon="5.38955">
        <ele>462.1</ele>
        <time>2022-10-15T11:38:26.000Z</time>
      </trkpt>
      <trkpt lat="45.15058" lon="5.38957">
        <ele>462.5</ele>
        <time>2022-10-15T11:38:28.000Z</time>
      </trkpt>
      <trkpt lat="45.1506" lon="5.38959">
        <ele>462.7</ele>
        <time>2022-10-15T11:38:29.000Z</time>
      </trkpt>
      <trkpt lat="45.15062" lon="5.3896">
        <ele>462.9</ele>
        <time>2022-10-15T11:38:30.000Z</time>
      </trkpt>
      <trkpt lat="45.15063" lon="5.38962">
        <ele>463.2</ele>
        <time>2022-10-15T11:38:32.000Z</time>
      </trkpt>
      <trkpt lat="45.15066" lon="5.38965">
        <ele>464</ele>
        <time>2022-10-15T11:38:34.000Z</time>
      </trkpt>
      <trkpt lat="45.15068" lon="5.38968">
        <ele>464.6</ele>
        <time>2022-10-15T11:38:36.000Z</time>
      </trkpt>
      <trkpt lat="45.1507" lon="5.38969">
        <ele>464.8</ele>
        <time>2022-10-15T11:38:37.000Z</time>
      </trkpt>
      <trkpt lat="45.15072" lon="5.38971">
        <ele>465</ele>
        <time>2022-10-15T11:38:38.000Z</time>
      </trkpt>
      <trkpt lat="45.15075" lon="5.38973">
        <ele>465</ele>
        <time>2022-10-15T11:38:40.000Z</time>
      </trkpt>
      <trkpt lat="45.15077" lon="5.38975">
        <ele>465.5</ele>
        <time>2022-10-15T11:38:42.000Z</time>
      </trkpt>
      <trkpt lat="45.15079" lon="5.38977">
        <ele>465.9</ele>
        <time>2022-10-15T11:38:43.000Z</time>
      </trkpt>
      <trkpt lat="45.1508" lon="5.38978">
        <ele>466.3</ele>
        <time>2022-10-15T11:38:44.000Z</time>
      </trkpt>
      <trkpt lat="45.15082" lon="5.3898">
        <ele>466.5</ele>
        <time>2022-10-15T11:38:45.000Z</time>
      </trkpt>
      <trkpt lat="45.15084" lon="5.38981">
        <ele>466.7</ele>
        <time>2022-10-15T11:38:46.000Z</time>
      </trkpt>
      <trkpt lat="45.15085" lon="5.38983">
        <ele>467.1</ele>
        <time>2022-10-15T11:38:47.000Z</time>
      </trkpt>
      <trkpt lat="45.15088" lon="5.38986">
        <ele>467.8</ele>
        <time>2022-10-15T11:38:49.000Z</time>
      </trkpt>
      <trkpt lat="45.15089" lon="5.38987">
        <ele>468.2</ele>
        <time>2022-10-15T11:38:50.000Z</time>
      </trkpt>
      <trkpt lat="45.1509" lon="5.38991">
        <ele>469.6</ele>
        <time>2022-10-15T11:38:52.000Z</time>
      </trkpt>
      <trkpt lat="45.15092" lon="5.38996">
        <ele>470.8</ele>
        <time>2022-10-15T11:38:54.000Z</time>
      </trkpt>
      <trkpt lat="45.15094" lon="5.38999">
        <ele>471.9</ele>
        <time>2022-10-15T11:38:56.000Z</time>
      </trkpt>
      <trkpt lat="45.15096" lon="5.39003">
        <ele>473.2</ele>
        <time>2022-10-15T11:38:58.000Z</time>
      </trkpt>
      <trkpt lat="45.15098" lon="5.39007">
        <ele>474.1</ele>
        <time>2022-10-15T11:39:00.000Z</time>
      </trkpt>
      <trkpt lat="45.15099" lon="5.3901">
        <ele>475.4</ele>
        <time>2022-10-15T11:39:02.000Z</time>
      </trkpt>
      <trkpt lat="45.15102" lon="5.39013">
        <ele>475.8</ele>
        <time>2022-10-15T11:39:04.000Z</time>
      </trkpt>
      <trkpt lat="45.15103" lon="5.39015">
        <ele>476.3</ele>
        <time>2022-10-15T11:39:05.000Z</time>
      </trkpt>
      <trkpt lat="45.15106" lon="5.39018">
        <ele>477</ele>
        <time>2022-10-15T11:39:07.000Z</time>
      </trkpt>
      <trkpt lat="45.15108" lon="5.39018">
        <ele>476.8</ele>
        <time>2022-10-15T11:39:08.000Z</time>
      </trkpt>
      <trkpt lat="45.1511" lon="5.3902">
        <ele>476.8</ele>
        <time>2022-10-15T11:39:10.000Z</time>
      </trkpt>
      <trkpt lat="45.15113" lon="5.3902">
        <ele>476.3</ele>
        <time>2022-10-15T11:39:11.000Z</time>
      </trkpt>
      <trkpt lat="45.15115" lon="5.39021">
        <ele>476.1</ele>
        <time>2022-10-15T11:39:12.000Z</time>
      </trkpt>
      <trkpt lat="45.15118" lon="5.3902">
        <ele>475.4</ele>
        <time>2022-10-15T11:39:13.000Z</time>
      </trkpt>
      <trkpt lat="45.15122" lon="5.3902">
        <ele>474.3</ele>
        <time>2022-10-15T11:39:15.000Z</time>
      </trkpt>
      <trkpt lat="45.15124" lon="5.3902">
        <ele>473.9</ele>
        <time>2022-10-15T11:39:16.000Z</time>
      </trkpt>
      <trkpt lat="45.15126" lon="5.3902">
        <ele>473.6</ele>
        <time>2022-10-15T11:39:17.000Z</time>
      </trkpt>
      <trkpt lat="45.15129" lon="5.3902">
        <ele>472.6</ele>
        <time>2022-10-15T11:39:19.000Z</time>
      </trkpt>
      <trkpt lat="45.15131" lon="5.3902">
        <ele>472.1</ele>
        <time>2022-10-15T11:39:20.000Z</time>
      </trkpt>
      <trkpt lat="45.15133" lon="5.39019">
        <ele>471.4</ele>
        <time>2022-10-15T11:39:21.000Z</time>
      </trkpt>
      <trkpt lat="45.15136" lon="5.39019">
        <ele>470.8</ele>
        <time>2022-10-15T11:39:22.000Z</time>
      </trkpt>
      <trkpt lat="45.15138" lon="5.39019">
        <ele>470.3</ele>
        <time>2022-10-15T11:39:23.000Z</time>
      </trkpt>
      <trkpt lat="45.1514" lon="5.39019">
        <ele>469.9</ele>
        <time>2022-10-15T11:39:24.000Z</time>
      </trkpt>
      <trkpt lat="45.15142" lon="5.39019">
        <ele>469.6</ele>
        <time>2022-10-15T11:39:25.000Z</time>
      </trkpt>
      <trkpt lat="45.15144" lon="5.3902">
        <ele>469.4</ele>
        <time>2022-10-15T11:39:26.000Z</time>
      </trkpt>
      <trkpt lat="45.15146" lon="5.3902">
        <ele>469.2</ele>
        <time>2022-10-15T11:39:27.000Z</time>
      </trkpt>
      <trkpt lat="45.15149" lon="5.39021">
        <ele>469</ele>
        <time>2022-10-15T11:39:29.000Z</time>
      </trkpt>
      <trkpt lat="45.15152" lon="5.39022">
        <ele>468.5</ele>
        <time>2022-10-15T11:39:31.000Z</time>
      </trkpt>
      <trkpt lat="45.15156" lon="5.39023">
        <ele>468.4</ele>
        <time>2022-10-15T11:39:33.000Z</time>
      </trkpt>
      <trkpt lat="45.15159" lon="5.39025">
        <ele>468.6</ele>
        <time>2022-10-15T11:39:35.000Z</time>
      </trkpt>
      <trkpt lat="45.15161" lon="5.39028">
        <ele>469.1</ele>
        <time>2022-10-15T11:39:37.000Z</time>
      </trkpt>
      <trkpt lat="45.15164" lon="5.3903">
        <ele>469.6</ele>
        <time>2022-10-15T11:39:39.000Z</time>
      </trkpt>
      <trkpt lat="45.15166" lon="5.39031">
        <ele>469.7</ele>
        <time>2022-10-15T11:39:40.000Z</time>
      </trkpt>
      <trkpt lat="45.15169" lon="5.39033">
        <ele>469.8</ele>
        <time>2022-10-15T11:39:42.000Z</time>
      </trkpt>
      <trkpt lat="45.15172" lon="5.39035">
        <ele>470.3</ele>
        <time>2022-10-15T11:39:44.000Z</time>
      </trkpt>
      <trkpt lat="45.15175" lon="5.39038">
        <ele>470.8</ele>
        <time>2022-10-15T11:39:46.000Z</time>
      </trkpt>
      <trkpt lat="45.15178" lon="5.3904">
        <ele>471.3</ele>
        <time>2022-10-15T11:39:48.000Z</time>
      </trkpt>
      <trkpt lat="45.15181" lon="5.39043">
        <ele>471.9</ele>
        <time>2022-10-15T11:39:50.000Z</time>
      </trkpt>
      <trkpt lat="45.15183" lon="5.39045">
        <ele>472.4</ele>
        <time>2022-10-15T11:39:52.000Z</time>
      </trkpt>
      <trkpt lat="45.15186" lon="5.39048">
        <ele>473.1</ele>
        <time>2022-10-15T11:39:54.000Z</time>
      </trkpt>
      <trkpt lat="45.15189" lon="5.3905">
        <ele>473.5</ele>
        <time>2022-10-15T11:39:56.000Z</time>
      </trkpt>
      <trkpt lat="45.15191" lon="5.39052">
        <ele>473.8</ele>
        <time>2022-10-15T11:39:58.000Z</time>
      </trkpt>
      <trkpt lat="45.15194" lon="5.39054">
        <ele>474.2</ele>
        <time>2022-10-15T11:40:00.000Z</time>
      </trkpt>
      <trkpt lat="45.15196" lon="5.39055">
        <ele>474.4</ele>
        <time>2022-10-15T11:40:01.000Z</time>
      </trkpt>
      <trkpt lat="45.15198" lon="5.39056">
        <ele>474.4</ele>
        <time>2022-10-15T11:40:03.000Z</time>
      </trkpt>
      <trkpt lat="45.152" lon="5.39057">
        <ele>474.7</ele>
        <time>2022-10-15T11:40:04.000Z</time>
      </trkpt>
      <trkpt lat="45.15203" lon="5.39059">
        <ele>474.8</ele>
        <time>2022-10-15T11:40:05.000Z</time>
      </trkpt>
      <trkpt lat="45.15205" lon="5.3906">
        <ele>474.8</ele>
        <time>2022-10-15T11:40:06.000Z</time>
      </trkpt>
      <trkpt lat="45.15208" lon="5.39061">
        <ele>474.8</ele>
        <time>2022-10-15T11:40:07.000Z</time>
      </trkpt>
      <trkpt lat="45.1521" lon="5.39063">
        <ele>475.1</ele>
        <time>2022-10-15T11:40:08.000Z</time>
      </trkpt>
      <trkpt lat="45.15212" lon="5.39064">
        <ele>475.3</ele>
        <time>2022-10-15T11:40:09.000Z</time>
      </trkpt>
      <trkpt lat="45.15214" lon="5.39066">
        <ele>475.5</ele>
        <time>2022-10-15T11:40:10.000Z</time>
      </trkpt>
      <trkpt lat="45.15217" lon="5.39068">
        <ele>475.8</ele>
        <time>2022-10-15T11:40:11.000Z</time>
      </trkpt>
      <trkpt lat="45.1522" lon="5.39069">
        <ele>475.9</ele>
        <time>2022-10-15T11:40:12.000Z</time>
      </trkpt>
      <trkpt lat="45.15223" lon="5.39071">
        <ele>476.1</ele>
        <time>2022-10-15T11:40:14.000Z</time>
      </trkpt>
      <trkpt lat="45.15224" lon="5.39075">
        <ele>477.1</ele>
        <time>2022-10-15T11:40:16.000Z</time>
      </trkpt>
      <trkpt lat="45.15224" lon="5.39077">
        <ele>478.2</ele>
        <time>2022-10-15T11:40:17.000Z</time>
      </trkpt>
      <trkpt lat="45.15222" lon="5.39081">
        <ele>480</ele>
        <time>2022-10-15T11:40:19.000Z</time>
      </trkpt>
      <trkpt lat="45.15221" lon="5.39082">
        <ele>480.9</ele>
        <time>2022-10-15T11:40:20.000Z</time>
      </trkpt>
      <trkpt lat="45.15218" lon="5.39083">
        <ele>481.6</ele>
        <time>2022-10-15T11:40:21.000Z</time>
      </trkpt>
      <trkpt lat="45.15216" lon="5.39083">
        <ele>482.1</ele>
        <time>2022-10-15T11:40:22.000Z</time>
      </trkpt>
      <trkpt lat="45.15214" lon="5.39083">
        <ele>482.5</ele>
        <time>2022-10-15T11:40:23.000Z</time>
      </trkpt>
      <trkpt lat="45.15212" lon="5.39082">
        <ele>482.5</ele>
        <time>2022-10-15T11:40:24.000Z</time>
      </trkpt>
      <trkpt lat="45.1521" lon="5.3908">
        <ele>482.1</ele>
        <time>2022-10-15T11:40:25.000Z</time>
      </trkpt>
      <trkpt lat="45.15209" lon="5.39078">
        <ele>481.6</ele>
        <time>2022-10-15T11:40:26.000Z</time>
      </trkpt>
      <trkpt lat="45.15206" lon="5.39075">
        <ele>481</ele>
        <time>2022-10-15T11:40:28.000Z</time>
      </trkpt>
      <trkpt lat="45.15203" lon="5.39072">
        <ele>480.4</ele>
        <time>2022-10-15T11:40:30.000Z</time>
      </trkpt>
      <trkpt lat="45.15201" lon="5.39071">
        <ele>480.4</ele>
        <time>2022-10-15T11:40:32.000Z</time>
      </trkpt>
      <trkpt lat="45.15199" lon="5.39069">
        <ele>480</ele>
        <time>2022-10-15T11:40:34.000Z</time>
      </trkpt>
      <trkpt lat="45.15197" lon="5.39068">
        <ele>479.8</ele>
        <time>2022-10-15T11:40:36.000Z</time>
      </trkpt>
      <trkpt lat="45.15195" lon="5.39067">
        <ele>479.6</ele>
        <time>2022-10-15T11:40:37.000Z</time>
      </trkpt>
      <trkpt lat="45.15194" lon="5.39065">
        <ele>479.4</ele>
        <time>2022-10-15T11:40:38.000Z</time>
      </trkpt>
      <trkpt lat="45.15192" lon="5.39065">
        <ele>479.4</ele>
        <time>2022-10-15T11:40:39.000Z</time>
      </trkpt>
      <trkpt lat="45.1519" lon="5.39063">
        <ele>479.2</ele>
        <time>2022-10-15T11:40:40.000Z</time>
      </trkpt>
      <trkpt lat="45.15188" lon="5.39063">
        <ele>479.2</ele>
        <time>2022-10-15T11:40:41.000Z</time>
      </trkpt>
      <trkpt lat="45.15186" lon="5.39062">
        <ele>479</ele>
        <time>2022-10-15T11:40:42.000Z</time>
      </trkpt>
      <trkpt lat="45.15185" lon="5.39061">
        <ele>478.9</ele>
        <time>2022-10-15T11:40:43.000Z</time>
      </trkpt>
      <trkpt lat="45.15182" lon="5.39058">
        <ele>478.4</ele>
        <time>2022-10-15T11:40:45.000Z</time>
      </trkpt>
      <trkpt lat="45.15179" lon="5.39057">
        <ele>478.5</ele>
        <time>2022-10-15T11:40:47.000Z</time>
      </trkpt>
      <trkpt lat="45.15176" lon="5.39057">
        <ele>478.9</ele>
        <time>2022-10-15T11:40:49.000Z</time>
      </trkpt>
      <trkpt lat="45.15174" lon="5.39057">
        <ele>479.3</ele>
        <time>2022-10-15T11:40:51.000Z</time>
      </trkpt>
      <trkpt lat="45.15171" lon="5.39056">
        <ele>479.4</ele>
        <time>2022-10-15T11:40:53.000Z</time>
      </trkpt>
      <trkpt lat="45.15169" lon="5.39056">
        <ele>479.8</ele>
        <time>2022-10-15T11:40:54.000Z</time>
      </trkpt>
      <trkpt lat="45.15167" lon="5.39056">
        <ele>480</ele>
        <time>2022-10-15T11:40:55.000Z</time>
      </trkpt>
      <trkpt lat="45.15164" lon="5.39056">
        <ele>480.9</ele>
        <time>2022-10-15T11:40:57.000Z</time>
      </trkpt>
      <trkpt lat="45.15161" lon="5.39056">
        <ele>481.3</ele>
        <time>2022-10-15T11:40:59.000Z</time>
      </trkpt>
      <trkpt lat="45.15158" lon="5.39054">
        <ele>481.3</ele>
        <time>2022-10-15T11:41:01.000Z</time>
      </trkpt>
      <trkpt lat="45.15156" lon="5.39054">
        <ele>481.4</ele>
        <time>2022-10-15T11:41:02.000Z</time>
      </trkpt>
      <trkpt lat="45.15153" lon="5.39051">
        <ele>481.1</ele>
        <time>2022-10-15T11:41:04.000Z</time>
      </trkpt>
      <trkpt lat="45.1515" lon="5.3905">
        <ele>481.2</ele>
        <time>2022-10-15T11:41:06.000Z</time>
      </trkpt>
      <trkpt lat="45.15148" lon="5.39049">
        <ele>481.2</ele>
        <time>2022-10-15T11:41:07.000Z</time>
      </trkpt>
      <trkpt lat="45.15145" lon="5.39048">
        <ele>481.5</ele>
        <time>2022-10-15T11:41:09.000Z</time>
      </trkpt>
      <trkpt lat="45.15142" lon="5.39048">
        <ele>482.1</ele>
        <time>2022-10-15T11:41:11.000Z</time>
      </trkpt>
      <trkpt lat="45.1514" lon="5.39048">
        <ele>482.5</ele>
        <time>2022-10-15T11:41:12.000Z</time>
      </trkpt>
      <trkpt lat="45.15138" lon="5.39047">
        <ele>482.7</ele>
        <time>2022-10-15T11:41:13.000Z</time>
      </trkpt>
      <trkpt lat="45.15136" lon="5.39047">
        <ele>483.1</ele>
        <time>2022-10-15T11:41:14.000Z</time>
      </trkpt>
      <trkpt lat="45.15134" lon="5.39047">
        <ele>483.5</ele>
        <time>2022-10-15T11:41:15.000Z</time>
      </trkpt>
      <trkpt lat="45.15132" lon="5.39048">
        <ele>484</ele>
        <time>2022-10-15T11:41:16.000Z</time>
      </trkpt>
      <trkpt lat="45.15128" lon="5.39049">
        <ele>485.4</ele>
        <time>2022-10-15T11:41:18.000Z</time>
      </trkpt>
      <trkpt lat="45.15127" lon="5.39049">
        <ele>486</ele>
        <time>2022-10-15T11:41:19.000Z</time>
      </trkpt>
      <trkpt lat="45.15124" lon="5.39051">
        <ele>487.1</ele>
        <time>2022-10-15T11:41:21.000Z</time>
      </trkpt>
      <trkpt lat="45.15121" lon="5.39052">
        <ele>488.2</ele>
        <time>2022-10-15T11:41:23.000Z</time>
      </trkpt>
      <trkpt lat="45.15117" lon="5.39052">
        <ele>489.3</ele>
        <time>2022-10-15T11:41:25.000Z</time>
      </trkpt>
      <trkpt lat="45.15114" lon="5.39053">
        <ele>490.2</ele>
        <time>2022-10-15T11:41:27.000Z</time>
      </trkpt>
      <trkpt lat="45.1511" lon="5.39053">
        <ele>491.2</ele>
        <time>2022-10-15T11:41:29.000Z</time>
      </trkpt>
      <trkpt lat="45.15109" lon="5.39053">
        <ele>491.6</ele>
        <time>2022-10-15T11:41:30.000Z</time>
      </trkpt>
      <trkpt lat="45.15105" lon="5.39053">
        <ele>492.6</ele>
        <time>2022-10-15T11:41:32.000Z</time>
      </trkpt>
      <trkpt lat="45.15103" lon="5.39053">
        <ele>493</ele>
        <time>2022-10-15T11:41:33.000Z</time>
      </trkpt>
      <trkpt lat="45.15101" lon="5.39053">
        <ele>493.5</ele>
        <time>2022-10-15T11:41:34.000Z</time>
      </trkpt>
      <trkpt lat="45.15099" lon="5.39054">
        <ele>494.2</ele>
        <time>2022-10-15T11:41:35.000Z</time>
      </trkpt>
      <trkpt lat="45.15097" lon="5.39053">
        <ele>494.5</ele>
        <time>2022-10-15T11:41:36.000Z</time>
      </trkpt>
      <trkpt lat="45.15095" lon="5.39053">
        <ele>495</ele>
        <time>2022-10-15T11:41:37.000Z</time>
      </trkpt>
      <trkpt lat="45.15093" lon="5.39052">
        <ele>495.2</ele>
        <time>2022-10-15T11:41:38.000Z</time>
      </trkpt>
      <trkpt lat="45.15091" lon="5.39051">
        <ele>495</ele>
        <time>2022-10-15T11:41:39.000Z</time>
      </trkpt>
      <trkpt lat="45.15089" lon="5.39047">
        <ele>493.8</ele>
        <time>2022-10-15T11:41:41.000Z</time>
      </trkpt>
      <trkpt lat="45.15088" lon="5.39045">
        <ele>493.3</ele>
        <time>2022-10-15T11:41:42.000Z</time>
      </trkpt>
      <trkpt lat="45.15085" lon="5.39042">
        <ele>492.4</ele>
        <time>2022-10-15T11:41:44.000Z</time>
      </trkpt>
      <trkpt lat="45.15084" lon="5.3904">
        <ele>492.3</ele>
        <time>2022-10-15T11:41:45.000Z</time>
      </trkpt>
      <trkpt lat="45.15082" lon="5.39039">
        <ele>492.2</ele>
        <time>2022-10-15T11:41:46.000Z</time>
      </trkpt>
      <trkpt lat="45.1508" lon="5.39038">
        <ele>492.1</ele>
        <time>2022-10-15T11:41:47.000Z</time>
      </trkpt>
      <trkpt lat="45.15077" lon="5.39036">
        <ele>492.1</ele>
        <time>2022-10-15T11:41:49.000Z</time>
      </trkpt>
      <trkpt lat="45.15075" lon="5.39035">
        <ele>492.1</ele>
        <time>2022-10-15T11:41:51.000Z</time>
      </trkpt>
      <trkpt lat="45.15073" lon="5.39033">
        <ele>491.6</ele>
        <time>2022-10-15T11:41:53.000Z</time>
      </trkpt>
      <trkpt lat="45.1507" lon="5.39031">
        <ele>491.5</ele>
        <time>2022-10-15T11:41:55.000Z</time>
      </trkpt>
      <trkpt lat="45.15068" lon="5.3903">
        <ele>491.2</ele>
        <time>2022-10-15T11:41:56.000Z</time>
      </trkpt>
      <trkpt lat="45.15066" lon="5.39029">
        <ele>491.1</ele>
        <time>2022-10-15T11:41:57.000Z</time>
      </trkpt>
      <trkpt lat="45.15063" lon="5.39029">
        <ele>491.8</ele>
        <time>2022-10-15T11:41:59.000Z</time>
      </trkpt>
      <trkpt lat="45.1506" lon="5.39027">
        <ele>491.9</ele>
        <time>2022-10-15T11:42:01.000Z</time>
      </trkpt>
      <trkpt lat="45.15058" lon="5.39026">
        <ele>491.8</ele>
        <time>2022-10-15T11:42:02.000Z</time>
      </trkpt>
      <trkpt lat="45.15054" lon="5.39024">
        <ele>491.7</ele>
        <time>2022-10-15T11:42:04.000Z</time>
      </trkpt>
      <trkpt lat="45.15053" lon="5.39023">
        <ele>491.7</ele>
        <time>2022-10-15T11:42:05.000Z</time>
      </trkpt>
      <trkpt lat="45.15049" lon="5.39022">
        <ele>491.9</ele>
        <time>2022-10-15T11:42:07.000Z</time>
      </trkpt>
      <trkpt lat="45.15046" lon="5.3902">
        <ele>492</ele>
        <time>2022-10-15T11:42:09.000Z</time>
      </trkpt>
      <trkpt lat="45.15044" lon="5.39019">
        <ele>491.9</ele>
        <time>2022-10-15T11:42:11.000Z</time>
      </trkpt>
      <trkpt lat="45.1504" lon="5.39017">
        <ele>492.1</ele>
        <time>2022-10-15T11:42:13.000Z</time>
      </trkpt>
      <trkpt lat="45.15037" lon="5.39016">
        <ele>492.2</ele>
        <time>2022-10-15T11:42:15.000Z</time>
      </trkpt>
      <trkpt lat="45.15034" lon="5.39015">
        <ele>492.5</ele>
        <time>2022-10-15T11:42:17.000Z</time>
      </trkpt>
      <trkpt lat="45.15032" lon="5.39014">
        <ele>492.6</ele>
        <time>2022-10-15T11:42:19.000Z</time>
      </trkpt>
      <trkpt lat="45.15028" lon="5.39012">
        <ele>492.6</ele>
        <time>2022-10-15T11:42:21.000Z</time>
      </trkpt>
      <trkpt lat="45.15025" lon="5.39011">
        <ele>492.5</ele>
        <time>2022-10-15T11:42:23.000Z</time>
      </trkpt>
      <trkpt lat="45.15022" lon="5.3901">
        <ele>492.7</ele>
        <time>2022-10-15T11:42:25.000Z</time>
      </trkpt>
      <trkpt lat="45.15019" lon="5.39008">
        <ele>492.7</ele>
        <time>2022-10-15T11:42:27.000Z</time>
      </trkpt>
      <trkpt lat="45.15016" lon="5.39007">
        <ele>492.7</ele>
        <time>2022-10-15T11:42:29.000Z</time>
      </trkpt>
      <trkpt lat="45.15013" lon="5.39006">
        <ele>492.8</ele>
        <time>2022-10-15T11:42:31.000Z</time>
      </trkpt>
      <trkpt lat="45.1501" lon="5.39005">
        <ele>493</ele>
        <time>2022-10-15T11:42:33.000Z</time>
      </trkpt>
      <trkpt lat="45.15007" lon="5.39004">
        <ele>493.2</ele>
        <time>2022-10-15T11:42:35.000Z</time>
      </trkpt>
      <trkpt lat="45.15004" lon="5.39002">
        <ele>492.9</ele>
        <time>2022-10-15T11:42:37.000Z</time>
      </trkpt>
      <trkpt lat="45.15001" lon="5.39001">
        <ele>493.1</ele>
        <time>2022-10-15T11:42:39.000Z</time>
      </trkpt>
      <trkpt lat="45.14999" lon="5.39">
        <ele>493.3</ele>
        <time>2022-10-15T11:42:41.000Z</time>
      </trkpt>
      <trkpt lat="45.14996" lon="5.39">
        <ele>493.9</ele>
        <time>2022-10-15T11:42:43.000Z</time>
      </trkpt>
      <trkpt lat="45.14993" lon="5.39002">
        <ele>495.2</ele>
        <time>2022-10-15T11:42:45.000Z</time>
      </trkpt>
      <trkpt lat="45.14989" lon="5.39001">
        <ele>495.5</ele>
        <time>2022-10-15T11:42:47.000Z</time>
      </trkpt>
      <trkpt lat="45.14988" lon="5.39">
        <ele>495.4</ele>
        <time>2022-10-15T11:42:48.000Z</time>
      </trkpt>
      <trkpt lat="45.14986" lon="5.39">
        <ele>495.4</ele>
        <time>2022-10-15T11:42:49.000Z</time>
      </trkpt>
      <trkpt lat="45.14984" lon="5.38999">
        <ele>495.4</ele>
        <time>2022-10-15T11:42:50.000Z</time>
      </trkpt>
      <trkpt lat="45.14981" lon="5.38997">
        <ele>495.3</ele>
        <time>2022-10-15T11:42:52.000Z</time>
      </trkpt>
      <trkpt lat="45.14978" lon="5.38995">
        <ele>495.1</ele>
        <time>2022-10-15T11:42:54.000Z</time>
      </trkpt>
      <trkpt lat="45.14975" lon="5.38994">
        <ele>495.2</ele>
        <time>2022-10-15T11:42:56.000Z</time>
      </trkpt>
      <trkpt lat="45.14972" lon="5.38993">
        <ele>495.2</ele>
        <time>2022-10-15T11:42:58.000Z</time>
      </trkpt>
      <trkpt lat="45.14968" lon="5.38992">
        <ele>495.8</ele>
        <time>2022-10-15T11:43:00.000Z</time>
      </trkpt>
      <trkpt lat="45.14966" lon="5.38991">
        <ele>496.2</ele>
        <time>2022-10-15T11:43:02.000Z</time>
      </trkpt>
      <trkpt lat="45.14963" lon="5.38989">
        <ele>496.2</ele>
        <time>2022-10-15T11:43:04.000Z</time>
      </trkpt>
      <trkpt lat="45.14959" lon="5.38988">
        <ele>496.4</ele>
        <time>2022-10-15T11:43:06.000Z</time>
      </trkpt>
      <trkpt lat="45.14956" lon="5.38985">
        <ele>496.2</ele>
        <time>2022-10-15T11:43:08.000Z</time>
      </trkpt>
      <trkpt lat="45.14955" lon="5.38984">
        <ele>495.9</ele>
        <time>2022-10-15T11:43:09.000Z</time>
      </trkpt>
      <trkpt lat="45.14953" lon="5.38983">
        <ele>495.8</ele>
        <time>2022-10-15T11:43:10.000Z</time>
      </trkpt>
      <trkpt lat="45.14951" lon="5.38982">
        <ele>496.2</ele>
        <time>2022-10-15T11:43:11.000Z</time>
      </trkpt>
      <trkpt lat="45.14949" lon="5.38981">
        <ele>496.2</ele>
        <time>2022-10-15T11:43:12.000Z</time>
      </trkpt>
      <trkpt lat="45.14946" lon="5.38979">
        <ele>495.8</ele>
        <time>2022-10-15T11:43:14.000Z</time>
      </trkpt>
      <trkpt lat="45.14942" lon="5.38977">
        <ele>495.8</ele>
        <time>2022-10-15T11:43:16.000Z</time>
      </trkpt>
      <trkpt lat="45.14941" lon="5.38976">
        <ele>495.6</ele>
        <time>2022-10-15T11:43:17.000Z</time>
      </trkpt>
      <trkpt lat="45.14938" lon="5.38974">
        <ele>495.7</ele>
        <time>2022-10-15T11:43:19.000Z</time>
      </trkpt>
      <trkpt lat="45.14935" lon="5.38973">
        <ele>496</ele>
        <time>2022-10-15T11:43:21.000Z</time>
      </trkpt>
      <trkpt lat="45.14932" lon="5.38972">
        <ele>496.3</ele>
        <time>2022-10-15T11:43:23.000Z</time>
      </trkpt>
      <trkpt lat="45.14928" lon="5.38971">
        <ele>496.4</ele>
        <time>2022-10-15T11:43:25.000Z</time>
      </trkpt>
      <trkpt lat="45.14925" lon="5.3897">
        <ele>496.8</ele>
        <time>2022-10-15T11:43:27.000Z</time>
      </trkpt>
      <trkpt lat="45.14922" lon="5.38969">
        <ele>497.4</ele>
        <time>2022-10-15T11:43:29.000Z</time>
      </trkpt>
      <trkpt lat="45.14918" lon="5.38969">
        <ele>498.1</ele>
        <time>2022-10-15T11:43:31.000Z</time>
      </trkpt>
      <trkpt lat="45.14917" lon="5.38969">
        <ele>498.5</ele>
        <time>2022-10-15T11:43:32.000Z</time>
      </trkpt>
      <trkpt lat="45.14915" lon="5.38969">
        <ele>498.8</ele>
        <time>2022-10-15T11:43:33.000Z</time>
      </trkpt>
      <trkpt lat="45.14912" lon="5.38967">
        <ele>498.5</ele>
        <time>2022-10-15T11:43:35.000Z</time>
      </trkpt>
      <trkpt lat="45.14909" lon="5.38967">
        <ele>499</ele>
        <time>2022-10-15T11:43:37.000Z</time>
      </trkpt>
      <trkpt lat="45.14907" lon="5.38967">
        <ele>499.6</ele>
        <time>2022-10-15T11:43:39.000Z</time>
      </trkpt>
      <trkpt lat="45.14904" lon="5.38967">
        <ele>500</ele>
        <time>2022-10-15T11:43:41.000Z</time>
      </trkpt>
      <trkpt lat="45.14902" lon="5.38966">
        <ele>500.3</ele>
        <time>2022-10-15T11:43:42.000Z</time>
      </trkpt>
      <trkpt lat="45.149" lon="5.38965">
        <ele>500.2</ele>
        <time>2022-10-15T11:43:43.000Z</time>
      </trkpt>
      <trkpt lat="45.14899" lon="5.38964">
        <ele>500.1</ele>
        <time>2022-10-15T11:43:44.000Z</time>
      </trkpt>
      <trkpt lat="45.14897" lon="5.38963">
        <ele>500.1</ele>
        <time>2022-10-15T11:43:45.000Z</time>
      </trkpt>
      <trkpt lat="45.14894" lon="5.38961">
        <ele>499.7</ele>
        <time>2022-10-15T11:43:47.000Z</time>
      </trkpt>
      <trkpt lat="45.14891" lon="5.3896">
        <ele>499.7</ele>
        <time>2022-10-15T11:43:48.000Z</time>
      </trkpt>
      <trkpt lat="45.14889" lon="5.38959">
        <ele>499.7</ele>
        <time>2022-10-15T11:43:49.000Z</time>
      </trkpt>
      <trkpt lat="45.14887" lon="5.38958">
        <ele>499.8</ele>
        <time>2022-10-15T11:43:50.000Z</time>
      </trkpt>
      <trkpt lat="45.14885" lon="5.38957">
        <ele>500</ele>
        <time>2022-10-15T11:43:51.000Z</time>
      </trkpt>
      <trkpt lat="45.14883" lon="5.38957">
        <ele>500.6</ele>
        <time>2022-10-15T11:43:52.000Z</time>
      </trkpt>
      <trkpt lat="45.14881" lon="5.38957">
        <ele>500.7</ele>
        <time>2022-10-15T11:43:53.000Z</time>
      </trkpt>
      <trkpt lat="45.14879" lon="5.38956">
        <ele>500.9</ele>
        <time>2022-10-15T11:43:54.000Z</time>
      </trkpt>
      <trkpt lat="45.14877" lon="5.38955">
        <ele>501</ele>
        <time>2022-10-15T11:43:55.000Z</time>
      </trkpt>
      <trkpt lat="45.14875" lon="5.38955">
        <ele>501.3</ele>
        <time>2022-10-15T11:43:56.000Z</time>
      </trkpt>
      <trkpt lat="45.14872" lon="5.38954">
        <ele>501.4</ele>
        <time>2022-10-15T11:43:57.000Z</time>
      </trkpt>
      <trkpt lat="45.1487" lon="5.38953">
        <ele>501.7</ele>
        <time>2022-10-15T11:43:58.000Z</time>
      </trkpt>
      <trkpt lat="45.14868" lon="5.38952">
        <ele>501.7</ele>
        <time>2022-10-15T11:43:59.000Z</time>
      </trkpt>
      <trkpt lat="45.14866" lon="5.38951">
        <ele>501.7</ele>
        <time>2022-10-15T11:44:00.000Z</time>
      </trkpt>
      <trkpt lat="45.14864" lon="5.38949">
        <ele>501.6</ele>
        <time>2022-10-15T11:44:01.000Z</time>
      </trkpt>
      <trkpt lat="45.14862" lon="5.38948">
        <ele>501.4</ele>
        <time>2022-10-15T11:44:02.000Z</time>
      </trkpt>
      <trkpt lat="45.1486" lon="5.38947">
        <ele>501.5</ele>
        <time>2022-10-15T11:44:03.000Z</time>
      </trkpt>
      <trkpt lat="45.14857" lon="5.38945">
        <ele>501.8</ele>
        <time>2022-10-15T11:44:05.000Z</time>
      </trkpt>
      <trkpt lat="45.14855" lon="5.38944">
        <ele>501.9</ele>
        <time>2022-10-15T11:44:06.000Z</time>
      </trkpt>
      <trkpt lat="45.14852" lon="5.38943">
        <ele>502.5</ele>
        <time>2022-10-15T11:44:08.000Z</time>
      </trkpt>
      <trkpt lat="45.14849" lon="5.38941">
        <ele>502.6</ele>
        <time>2022-10-15T11:44:10.000Z</time>
      </trkpt>
      <trkpt lat="45.14846" lon="5.3894">
        <ele>502.8</ele>
        <time>2022-10-15T11:44:12.000Z</time>
      </trkpt>
      <trkpt lat="45.14843" lon="5.38938">
        <ele>503</ele>
        <time>2022-10-15T11:44:14.000Z</time>
      </trkpt>
      <trkpt lat="45.1484" lon="5.38936">
        <ele>503.5</ele>
        <time>2022-10-15T11:44:16.000Z</time>
      </trkpt>
      <trkpt lat="45.14837" lon="5.38935">
        <ele>503.7</ele>
        <time>2022-10-15T11:44:18.000Z</time>
      </trkpt>
      <trkpt lat="45.14835" lon="5.38934">
        <ele>503.8</ele>
        <time>2022-10-15T11:44:19.000Z</time>
      </trkpt>
      <trkpt lat="45.14833" lon="5.38933">
        <ele>503.9</ele>
        <time>2022-10-15T11:44:20.000Z</time>
      </trkpt>
      <trkpt lat="45.1483" lon="5.38932">
        <ele>504.4</ele>
        <time>2022-10-15T11:44:22.000Z</time>
      </trkpt>
      <trkpt lat="45.14827" lon="5.3893">
        <ele>504.5</ele>
        <time>2022-10-15T11:44:24.000Z</time>
      </trkpt>
      <trkpt lat="45.14823" lon="5.38929">
        <ele>505</ele>
        <time>2022-10-15T11:44:26.000Z</time>
      </trkpt>
      <trkpt lat="45.14821" lon="5.38929">
        <ele>505.2</ele>
        <time>2022-10-15T11:44:27.000Z</time>
      </trkpt>
      <trkpt lat="45.14819" lon="5.38928">
        <ele>505.5</ele>
        <time>2022-10-15T11:44:28.000Z</time>
      </trkpt>
      <trkpt lat="45.14817" lon="5.38928">
        <ele>505.9</ele>
        <time>2022-10-15T11:44:29.000Z</time>
      </trkpt>
      <trkpt lat="45.14814" lon="5.38927">
        <ele>506.2</ele>
        <time>2022-10-15T11:44:31.000Z</time>
      </trkpt>
      <trkpt lat="45.14812" lon="5.38926">
        <ele>506.4</ele>
        <time>2022-10-15T11:44:33.000Z</time>
      </trkpt>
      <trkpt lat="45.14809" lon="5.38925">
        <ele>506.5</ele>
        <time>2022-10-15T11:44:35.000Z</time>
      </trkpt>
      <trkpt lat="45.14806" lon="5.38925">
        <ele>507</ele>
        <time>2022-10-15T11:44:37.000Z</time>
      </trkpt>
      <trkpt lat="45.14802" lon="5.38925">
        <ele>507.8</ele>
        <time>2022-10-15T11:44:39.000Z</time>
      </trkpt>
      <trkpt lat="45.14799" lon="5.38924">
        <ele>507.9</ele>
        <time>2022-10-15T11:44:41.000Z</time>
      </trkpt>
      <trkpt lat="45.14797" lon="5.38923">
        <ele>508.2</ele>
        <time>2022-10-15T11:44:42.000Z</time>
      </trkpt>
      <trkpt lat="45.14795" lon="5.38923">
        <ele>508.2</ele>
        <time>2022-10-15T11:44:43.000Z</time>
      </trkpt>
      <trkpt lat="45.14793" lon="5.38922">
        <ele>508.4</ele>
        <time>2022-10-15T11:44:44.000Z</time>
      </trkpt>
      <trkpt lat="45.14791" lon="5.38922">
        <ele>508.8</ele>
        <time>2022-10-15T11:44:45.000Z</time>
      </trkpt>
      <trkpt lat="45.14789" lon="5.38922">
        <ele>508.9</ele>
        <time>2022-10-15T11:44:46.000Z</time>
      </trkpt>
      <trkpt lat="45.14788" lon="5.38921">
        <ele>509</ele>
        <time>2022-10-15T11:44:47.000Z</time>
      </trkpt>
      <trkpt lat="45.14786" lon="5.38921">
        <ele>509.1</ele>
        <time>2022-10-15T11:44:48.000Z</time>
      </trkpt>
      <trkpt lat="45.14784" lon="5.3892">
        <ele>509.1</ele>
        <time>2022-10-15T11:44:49.000Z</time>
      </trkpt>
      <trkpt lat="45.14782" lon="5.38919">
        <ele>508.9</ele>
        <time>2022-10-15T11:44:50.000Z</time>
      </trkpt>
      <trkpt lat="45.14779" lon="5.38918">
        <ele>508.5</ele>
        <time>2022-10-15T11:44:52.000Z</time>
      </trkpt>
      <trkpt lat="45.14776" lon="5.38917">
        <ele>508.9</ele>
        <time>2022-10-15T11:44:54.000Z</time>
      </trkpt>
      <trkpt lat="45.14773" lon="5.38918">
        <ele>510</ele>
        <time>2022-10-15T11:44:56.000Z</time>
      </trkpt>
      <trkpt lat="45.14769" lon="5.38918">
        <ele>510.8</ele>
        <time>2022-10-15T11:44:58.000Z</time>
      </trkpt>
      <trkpt lat="45.14766" lon="5.38917">
        <ele>511.1</ele>
        <time>2022-10-15T11:45:00.000Z</time>
      </trkpt>
      <trkpt lat="45.14764" lon="5.38917">
        <ele>511.3</ele>
        <time>2022-10-15T11:45:01.000Z</time>
      </trkpt>
      <trkpt lat="45.14761" lon="5.38916">
        <ele>511.7</ele>
        <time>2022-10-15T11:45:03.000Z</time>
      </trkpt>
      <trkpt lat="45.14759" lon="5.38916">
        <ele>512.1</ele>
        <time>2022-10-15T11:45:04.000Z</time>
      </trkpt>
      <trkpt lat="45.14756" lon="5.38917">
        <ele>513.6</ele>
        <time>2022-10-15T11:45:06.000Z</time>
      </trkpt>
      <trkpt lat="45.14752" lon="5.38918">
        <ele>515.3</ele>
        <time>2022-10-15T11:45:08.000Z</time>
      </trkpt>
      <trkpt lat="45.14748" lon="5.38917">
        <ele>516.1</ele>
        <time>2022-10-15T11:45:10.000Z</time>
      </trkpt>
      <trkpt lat="45.14745" lon="5.38916">
        <ele>516.6</ele>
        <time>2022-10-15T11:45:12.000Z</time>
      </trkpt>
      <trkpt lat="45.14743" lon="5.38915">
        <ele>516.3</ele>
        <time>2022-10-15T11:45:13.000Z</time>
      </trkpt>
      <trkpt lat="45.1474" lon="5.38913">
        <ele>516.2</ele>
        <time>2022-10-15T11:45:15.000Z</time>
      </trkpt>
      <trkpt lat="45.14738" lon="5.38912">
        <ele>516.3</ele>
        <time>2022-10-15T11:45:16.000Z</time>
      </trkpt>
      <trkpt lat="45.14736" lon="5.38911">
        <ele>516.2</ele>
        <time>2022-10-15T11:45:17.000Z</time>
      </trkpt>
      <trkpt lat="45.14733" lon="5.38909">
        <ele>515.2</ele>
        <time>2022-10-15T11:45:19.000Z</time>
      </trkpt>
      <trkpt lat="45.1473" lon="5.38906">
        <ele>514.3</ele>
        <time>2022-10-15T11:45:21.000Z</time>
      </trkpt>
      <trkpt lat="45.14728" lon="5.38903">
        <ele>512.7</ele>
        <time>2022-10-15T11:45:23.000Z</time>
      </trkpt>
      <trkpt lat="45.14725" lon="5.38902">
        <ele>512.6</ele>
        <time>2022-10-15T11:45:25.000Z</time>
      </trkpt>
      <trkpt lat="45.14722" lon="5.38899">
        <ele>511.7</ele>
        <time>2022-10-15T11:45:27.000Z</time>
      </trkpt>
      <trkpt lat="45.14721" lon="5.38898">
        <ele>511.4</ele>
        <time>2022-10-15T11:45:28.000Z</time>
      </trkpt>
      <trkpt lat="45.14719" lon="5.38897">
        <ele>511.3</ele>
        <time>2022-10-15T11:45:29.000Z</time>
      </trkpt>
      <trkpt lat="45.14716" lon="5.38894">
        <ele>510.9</ele>
        <time>2022-10-15T11:45:31.000Z</time>
      </trkpt>
      <trkpt lat="45.14714" lon="5.38893">
        <ele>510.9</ele>
        <time>2022-10-15T11:45:32.000Z</time>
      </trkpt>
      <trkpt lat="45.14711" lon="5.38891">
        <ele>510.9</ele>
        <time>2022-10-15T11:45:34.000Z</time>
      </trkpt>
      <trkpt lat="45.14709" lon="5.3889">
        <ele>510.5</ele>
        <time>2022-10-15T11:45:35.000Z</time>
      </trkpt>
      <trkpt lat="45.14707" lon="5.38889">
        <ele>510.3</ele>
        <time>2022-10-15T11:45:36.000Z</time>
      </trkpt>
      <trkpt lat="45.14705" lon="5.38887">
        <ele>510.3</ele>
        <time>2022-10-15T11:45:37.000Z</time>
      </trkpt>
      <trkpt lat="45.14703" lon="5.38886">
        <ele>510</ele>
        <time>2022-10-15T11:45:38.000Z</time>
      </trkpt>
      <trkpt lat="45.14701" lon="5.38885">
        <ele>510.2</ele>
        <time>2022-10-15T11:45:39.000Z</time>
      </trkpt>
      <trkpt lat="45.14698" lon="5.38884">
        <ele>510.6</ele>
        <time>2022-10-15T11:45:41.000Z</time>
      </trkpt>
      <trkpt lat="45.14695" lon="5.38883">
        <ele>511.2</ele>
        <time>2022-10-15T11:45:43.000Z</time>
      </trkpt>
      <trkpt lat="45.14692" lon="5.38881">
        <ele>511.2</ele>
        <time>2022-10-15T11:45:45.000Z</time>
      </trkpt>
      <trkpt lat="45.14689" lon="5.38879">
        <ele>511.7</ele>
        <time>2022-10-15T11:45:47.000Z</time>
      </trkpt>
      <trkpt lat="45.14687" lon="5.38878">
        <ele>511.8</ele>
        <time>2022-10-15T11:45:48.000Z</time>
      </trkpt>
      <trkpt lat="45.14685" lon="5.38877">
        <ele>511.8</ele>
        <time>2022-10-15T11:45:49.000Z</time>
      </trkpt>
      <trkpt lat="45.14683" lon="5.38876">
        <ele>512</ele>
        <time>2022-10-15T11:45:50.000Z</time>
      </trkpt>
      <trkpt lat="45.14681" lon="5.38875">
        <ele>512.1</ele>
        <time>2022-10-15T11:45:51.000Z</time>
      </trkpt>
      <trkpt lat="45.14679" lon="5.38874">
        <ele>512.4</ele>
        <time>2022-10-15T11:45:52.000Z</time>
      </trkpt>
      <trkpt lat="45.14678" lon="5.38873">
        <ele>512.3</ele>
        <time>2022-10-15T11:45:53.000Z</time>
      </trkpt>
      <trkpt lat="45.14675" lon="5.38871">
        <ele>512</ele>
        <time>2022-10-15T11:45:55.000Z</time>
      </trkpt>
      <trkpt lat="45.14673" lon="5.3887">
        <ele>512.1</ele>
        <time>2022-10-15T11:45:56.000Z</time>
      </trkpt>
      <trkpt lat="45.14671" lon="5.38868">
        <ele>511.9</ele>
        <time>2022-10-15T11:45:57.000Z</time>
      </trkpt>
      <trkpt lat="45.1467" lon="5.38867">
        <ele>511.8</ele>
        <time>2022-10-15T11:45:58.000Z</time>
      </trkpt>
      <trkpt lat="45.14666" lon="5.38864">
        <ele>511.4</ele>
        <time>2022-10-15T11:46:00.000Z</time>
      </trkpt>
      <trkpt lat="45.14663" lon="5.38862">
        <ele>511.1</ele>
        <time>2022-10-15T11:46:02.000Z</time>
      </trkpt>
      <trkpt lat="45.1466" lon="5.3886">
        <ele>511.6</ele>
        <time>2022-10-15T11:46:04.000Z</time>
      </trkpt>
      <trkpt lat="45.14657" lon="5.38859">
        <ele>511.6</ele>
        <time>2022-10-15T11:46:06.000Z</time>
      </trkpt>
      <trkpt lat="45.14654" lon="5.38858">
        <ele>512.3</ele>
        <time>2022-10-15T11:46:08.000Z</time>
      </trkpt>
      <trkpt lat="45.14651" lon="5.38856">
        <ele>512.9</ele>
        <time>2022-10-15T11:46:10.000Z</time>
      </trkpt>
      <trkpt lat="45.14648" lon="5.38855">
        <ele>513.6</ele>
        <time>2022-10-15T11:46:12.000Z</time>
      </trkpt>
      <trkpt lat="45.14645" lon="5.38853">
        <ele>513.9</ele>
        <time>2022-10-15T11:46:14.000Z</time>
      </trkpt>
      <trkpt lat="45.14642" lon="5.38852">
        <ele>514.1</ele>
        <time>2022-10-15T11:46:16.000Z</time>
      </trkpt>
      <trkpt lat="45.14639" lon="5.38849">
        <ele>513.5</ele>
        <time>2022-10-15T11:46:18.000Z</time>
      </trkpt>
      <trkpt lat="45.14638" lon="5.38848">
        <ele>513.7</ele>
        <time>2022-10-15T11:46:19.000Z</time>
      </trkpt>
      <trkpt lat="45.14636" lon="5.38847">
        <ele>513.8</ele>
        <time>2022-10-15T11:46:20.000Z</time>
      </trkpt>
      <trkpt lat="45.14634" lon="5.38846">
        <ele>513.9</ele>
        <time>2022-10-15T11:46:21.000Z</time>
      </trkpt>
      <trkpt lat="45.1463" lon="5.38845">
        <ele>514.8</ele>
        <time>2022-10-15T11:46:23.000Z</time>
      </trkpt>
      <trkpt lat="45.14628" lon="5.38843">
        <ele>515</ele>
        <time>2022-10-15T11:46:24.000Z</time>
      </trkpt>
      <trkpt lat="45.14626" lon="5.38842">
        <ele>515</ele>
        <time>2022-10-15T11:46:25.000Z</time>
      </trkpt>
      <trkpt lat="45.14624" lon="5.3884">
        <ele>514.8</ele>
        <time>2022-10-15T11:46:26.000Z</time>
      </trkpt>
      <trkpt lat="45.14622" lon="5.38838">
        <ele>514.5</ele>
        <time>2022-10-15T11:46:27.000Z</time>
      </trkpt>
      <trkpt lat="45.14621" lon="5.38836">
        <ele>514.1</ele>
        <time>2022-10-15T11:46:28.000Z</time>
      </trkpt>
      <trkpt lat="45.14619" lon="5.38834">
        <ele>513.5</ele>
        <time>2022-10-15T11:46:29.000Z</time>
      </trkpt>
      <trkpt lat="45.14618" lon="5.38832">
        <ele>512.7</ele>
        <time>2022-10-15T11:46:30.000Z</time>
      </trkpt>
      <trkpt lat="45.14615" lon="5.3883">
        <ele>512.8</ele>
        <time>2022-10-15T11:46:32.000Z</time>
      </trkpt>
      <trkpt lat="45.14613" lon="5.38829">
        <ele>513</ele>
        <time>2022-10-15T11:46:34.000Z</time>
      </trkpt>
      <trkpt lat="45.14609" lon="5.38827">
        <ele>513.1</ele>
        <time>2022-10-15T11:46:36.000Z</time>
      </trkpt>
      <trkpt lat="45.14607" lon="5.38824">
        <ele>512.4</ele>
        <time>2022-10-15T11:46:38.000Z</time>
      </trkpt>
      <trkpt lat="45.14604" lon="5.38823">
        <ele>512.9</ele>
        <time>2022-10-15T11:46:40.000Z</time>
      </trkpt>
      <trkpt lat="45.14601" lon="5.38822">
        <ele>513.7</ele>
        <time>2022-10-15T11:46:42.000Z</time>
      </trkpt>
      <trkpt lat="45.14599" lon="5.38821">
        <ele>514</ele>
        <time>2022-10-15T11:46:43.000Z</time>
      </trkpt>
      <trkpt lat="45.14596" lon="5.38822">
        <ele>516</ele>
        <time>2022-10-15T11:46:45.000Z</time>
      </trkpt>
      <trkpt lat="45.14593" lon="5.38823">
        <ele>518</ele>
        <time>2022-10-15T11:46:47.000Z</time>
      </trkpt>
      <trkpt lat="45.1459" lon="5.38825">
        <ele>520.3</ele>
        <time>2022-10-15T11:46:49.000Z</time>
      </trkpt>
      <trkpt lat="45.14588" lon="5.38825">
        <ele>521.5</ele>
        <time>2022-10-15T11:46:50.000Z</time>
      </trkpt>
      <trkpt lat="45.14586" lon="5.38825">
        <ele>522.5</ele>
        <time>2022-10-15T11:46:51.000Z</time>
      </trkpt>
      <trkpt lat="45.14584" lon="5.38825">
        <ele>523.2</ele>
        <time>2022-10-15T11:46:52.000Z</time>
      </trkpt>
      <trkpt lat="45.14582" lon="5.38825">
        <ele>523.6</ele>
        <time>2022-10-15T11:46:53.000Z</time>
      </trkpt>
      <trkpt lat="45.1458" lon="5.38824">
        <ele>523.9</ele>
        <time>2022-10-15T11:46:54.000Z</time>
      </trkpt>
      <trkpt lat="45.14578" lon="5.38824">
        <ele>524.1</ele>
        <time>2022-10-15T11:46:55.000Z</time>
      </trkpt>
      <trkpt lat="45.14576" lon="5.38823">
        <ele>524.2</ele>
        <time>2022-10-15T11:46:56.000Z</time>
      </trkpt>
      <trkpt lat="45.14574" lon="5.38822">
        <ele>524.3</ele>
        <time>2022-10-15T11:46:57.000Z</time>
      </trkpt>
      <trkpt lat="45.14572" lon="5.38821">
        <ele>524.4</ele>
        <time>2022-10-15T11:46:58.000Z</time>
      </trkpt>
      <trkpt lat="45.1457" lon="5.3882">
        <ele>524.3</ele>
        <time>2022-10-15T11:46:59.000Z</time>
      </trkpt>
      <trkpt lat="45.14568" lon="5.38819">
        <ele>524.5</ele>
        <time>2022-10-15T11:47:00.000Z</time>
      </trkpt>
      <trkpt lat="45.14566" lon="5.38818">
        <ele>524.5</ele>
        <time>2022-10-15T11:47:01.000Z</time>
      </trkpt>
      <trkpt lat="45.14563" lon="5.38817">
        <ele>524.4</ele>
        <time>2022-10-15T11:47:03.000Z</time>
      </trkpt>
      <trkpt lat="45.14561" lon="5.38816">
        <ele>524.6</ele>
        <time>2022-10-15T11:47:04.000Z</time>
      </trkpt>
      <trkpt lat="45.14558" lon="5.38815">
        <ele>525.3</ele>
        <time>2022-10-15T11:47:06.000Z</time>
      </trkpt>
      <trkpt lat="45.14556" lon="5.38815">
        <ele>525.9</ele>
        <time>2022-10-15T11:47:07.000Z</time>
      </trkpt>
      <trkpt lat="45.14554" lon="5.38814">
        <ele>526.1</ele>
        <time>2022-10-15T11:47:08.000Z</time>
      </trkpt>
      <trkpt lat="45.14552" lon="5.38814">
        <ele>526.7</ele>
        <time>2022-10-15T11:47:09.000Z</time>
      </trkpt>
      <trkpt lat="45.14548" lon="5.38814">
        <ele>527.3</ele>
        <time>2022-10-15T11:47:11.000Z</time>
      </trkpt>
      <trkpt lat="45.14546" lon="5.38814">
        <ele>527.7</ele>
        <time>2022-10-15T11:47:12.000Z</time>
      </trkpt>
      <trkpt lat="45.14544" lon="5.38814">
        <ele>528.4</ele>
        <time>2022-10-15T11:47:13.000Z</time>
      </trkpt>
      <trkpt lat="45.14542" lon="5.38813">
        <ele>528.7</ele>
        <time>2022-10-15T11:47:14.000Z</time>
      </trkpt>
      <trkpt lat="45.1454" lon="5.38814">
        <ele>529.5</ele>
        <time>2022-10-15T11:47:15.000Z</time>
      </trkpt>
      <trkpt lat="45.14537" lon="5.38814">
        <ele>530.4</ele>
        <time>2022-10-15T11:47:17.000Z</time>
      </trkpt>
      <trkpt lat="45.14535" lon="5.38813">
        <ele>530.7</ele>
        <time>2022-10-15T11:47:18.000Z</time>
      </trkpt>
      <trkpt lat="45.14533" lon="5.38813">
        <ele>530.9</ele>
        <time>2022-10-15T11:47:19.000Z</time>
      </trkpt>
      <trkpt lat="45.14529" lon="5.38812">
        <ele>531.6</ele>
        <time>2022-10-15T11:47:21.000Z</time>
      </trkpt>
      <trkpt lat="45.14527" lon="5.38814">
        <ele>533.3</ele>
        <time>2022-10-15T11:47:24.000Z</time>
      </trkpt>
      <trkpt lat="45.14525" lon="5.38815">
        <ele>534.5</ele>
        <time>2022-10-15T11:47:26.000Z</time>
      </trkpt>
      <trkpt lat="45.14521" lon="5.38816">
        <ele>535.7</ele>
        <time>2022-10-15T11:47:28.000Z</time>
      </trkpt>
      <trkpt lat="45.14519" lon="5.38816">
        <ele>535.9</ele>
        <time>2022-10-15T11:47:30.000Z</time>
      </trkpt>
      <trkpt lat="45.14515" lon="5.3882">
        <ele>538.6</ele>
        <time>2022-10-15T11:47:32.000Z</time>
      </trkpt>
      <trkpt lat="45.14511" lon="5.38821">
        <ele>539.8</ele>
        <time>2022-10-15T11:47:33.000Z</time>
      </trkpt>
      <trkpt lat="45.1451" lon="5.3883">
        <ele>544.9</ele>
        <time>2022-10-15T11:47:34.000Z</time>
      </trkpt>
      <trkpt lat="45.14509" lon="5.38798">
        <ele>527.1</ele>
        <time>2022-10-15T11:47:35.000Z</time>
      </trkpt>
      <trkpt lat="45.14501" lon="5.38792">
        <ele>525</ele>
        <time>2022-10-15T11:47:36.000Z</time>
      </trkpt>
      <trkpt lat="45.14503" lon="5.38777">
        <ele>514.4</ele>
        <time>2022-10-15T11:47:37.000Z</time>
      </trkpt>
      <trkpt lat="45.145" lon="5.38774">
        <ele>513.6</ele>
        <time>2022-10-15T11:47:38.000Z</time>
      </trkpt>
      <trkpt lat="45.14499" lon="5.38768">
        <ele>509.9</ele>
        <time>2022-10-15T11:47:39.000Z</time>
      </trkpt>
      <trkpt lat="45.14495" lon="5.38766">
        <ele>509.8</ele>
        <time>2022-10-15T11:47:40.000Z</time>
      </trkpt>
      <trkpt lat="45.14494" lon="5.38775">
        <ele>515.8</ele>
        <time>2022-10-15T11:47:41.000Z</time>
      </trkpt>
      <trkpt lat="45.14492" lon="5.38773">
        <ele>514.7</ele>
        <time>2022-10-15T11:47:42.000Z</time>
      </trkpt>
      <trkpt lat="45.1449" lon="5.38771">
        <ele>514.3</ele>
        <time>2022-10-15T11:47:43.000Z</time>
      </trkpt>
      <trkpt lat="45.14486" lon="5.3877">
        <ele>514.7</ele>
        <time>2022-10-15T11:47:44.000Z</time>
      </trkpt>
      <trkpt lat="45.14483" lon="5.38769">
        <ele>514.9</ele>
        <time>2022-10-15T11:47:45.000Z</time>
      </trkpt>
      <trkpt lat="45.14481" lon="5.38771">
        <ele>516.3</ele>
        <time>2022-10-15T11:47:46.000Z</time>
      </trkpt>
      <trkpt lat="45.14479" lon="5.38767">
        <ele>514.4</ele>
        <time>2022-10-15T11:47:48.000Z</time>
      </trkpt>
      <trkpt lat="45.14476" lon="5.38767">
        <ele>515.3</ele>
        <time>2022-10-15T11:47:50.000Z</time>
      </trkpt>
      <trkpt lat="45.14476" lon="5.3877">
        <ele>517</ele>
        <time>2022-10-15T11:47:51.000Z</time>
      </trkpt>
      <trkpt lat="45.14476" lon="5.38772">
        <ele>518.8</ele>
        <time>2022-10-15T11:47:52.000Z</time>
      </trkpt>
      <trkpt lat="45.14473" lon="5.38775">
        <ele>521.1</ele>
        <time>2022-10-15T11:47:53.000Z</time>
      </trkpt>
      <trkpt lat="45.14471" lon="5.38777">
        <ele>523</ele>
        <time>2022-10-15T11:47:55.000Z</time>
      </trkpt>
      <trkpt lat="45.14468" lon="5.38778">
        <ele>523.9</ele>
        <time>2022-10-15T11:47:57.000Z</time>
      </trkpt>
      <trkpt lat="45.14466" lon="5.38779">
        <ele>524.9</ele>
        <time>2022-10-15T11:47:59.000Z</time>
      </trkpt>
      <trkpt lat="45.14465" lon="5.38777">
        <ele>524.4</ele>
        <time>2022-10-15T11:48:00.000Z</time>
      </trkpt>
      <trkpt lat="45.14463" lon="5.38778">
        <ele>525.6</ele>
        <time>2022-10-15T11:48:01.000Z</time>
      </trkpt>
      <trkpt lat="45.14461" lon="5.3878">
        <ele>526.8</ele>
        <time>2022-10-15T11:48:02.000Z</time>
      </trkpt>
      <trkpt lat="45.14459" lon="5.38781">
        <ele>527.8</ele>
        <time>2022-10-15T11:48:03.000Z</time>
      </trkpt>
      <trkpt lat="45.14456" lon="5.38783">
        <ele>529.6</ele>
        <time>2022-10-15T11:48:05.000Z</time>
      </trkpt>
      <trkpt lat="45.14453" lon="5.38786">
        <ele>531.8</ele>
        <time>2022-10-15T11:48:07.000Z</time>
      </trkpt>
      <trkpt lat="45.14451" lon="5.38788">
        <ele>533.4</ele>
        <time>2022-10-15T11:48:09.000Z</time>
      </trkpt>
      <trkpt lat="45.1445" lon="5.3879">
        <ele>534.7</ele>
        <time>2022-10-15T11:48:10.000Z</time>
      </trkpt>
      <trkpt lat="45.14449" lon="5.38793">
        <ele>536.2</ele>
        <time>2022-10-15T11:48:13.000Z</time>
      </trkpt>
      <trkpt lat="45.14447" lon="5.38794">
        <ele>537.1</ele>
        <time>2022-10-15T11:48:15.000Z</time>
      </trkpt>
      <trkpt lat="45.14445" lon="5.38793">
        <ele>537.1</ele>
        <time>2022-10-15T11:48:19.000Z</time>
      </trkpt>
      <trkpt lat="45.14442" lon="5.38791">
        <ele>536.8</ele>
        <time>2022-10-15T11:48:22.000Z</time>
      </trkpt>
      <trkpt lat="45.14439" lon="5.3879">
        <ele>536.4</ele>
        <time>2022-10-15T11:48:24.000Z</time>
      </trkpt>
      <trkpt lat="45.14436" lon="5.38788">
        <ele>536.1</ele>
        <time>2022-10-15T11:48:26.000Z</time>
      </trkpt>
      <trkpt lat="45.14433" lon="5.38785">
        <ele>535.6</ele>
        <time>2022-10-15T11:48:28.000Z</time>
      </trkpt>
      <trkpt lat="45.14432" lon="5.38784">
        <ele>535.3</ele>
        <time>2022-10-15T11:48:29.000Z</time>
      </trkpt>
      <trkpt lat="45.1443" lon="5.38783">
        <ele>535.2</ele>
        <time>2022-10-15T11:48:30.000Z</time>
      </trkpt>
      <trkpt lat="45.14428" lon="5.38782">
        <ele>535.1</ele>
        <time>2022-10-15T11:48:31.000Z</time>
      </trkpt>
      <trkpt lat="45.14425" lon="5.3878">
        <ele>535.3</ele>
        <time>2022-10-15T11:48:33.000Z</time>
      </trkpt>
      <trkpt lat="45.14422" lon="5.38779">
        <ele>535.5</ele>
        <time>2022-10-15T11:48:35.000Z</time>
      </trkpt>
      <trkpt lat="45.1442" lon="5.38779">
        <ele>535.8</ele>
        <time>2022-10-15T11:48:36.000Z</time>
      </trkpt>
      <trkpt lat="45.14417" lon="5.38779">
        <ele>536.3</ele>
        <time>2022-10-15T11:48:38.000Z</time>
      </trkpt>
      <trkpt lat="45.14414" lon="5.38779">
        <ele>536.9</ele>
        <time>2022-10-15T11:48:40.000Z</time>
      </trkpt>
      <trkpt lat="45.14412" lon="5.38779">
        <ele>537.1</ele>
        <time>2022-10-15T11:48:41.000Z</time>
      </trkpt>
      <trkpt lat="45.14409" lon="5.38779">
        <ele>537.5</ele>
        <time>2022-10-15T11:48:43.000Z</time>
      </trkpt>
      <trkpt lat="45.14406" lon="5.38779">
        <ele>538</ele>
        <time>2022-10-15T11:48:45.000Z</time>
      </trkpt>
      <trkpt lat="45.14404" lon="5.38778">
        <ele>538.1</ele>
        <time>2022-10-15T11:48:46.000Z</time>
      </trkpt>
      <trkpt lat="45.144" lon="5.38779">
        <ele>538.6</ele>
        <time>2022-10-15T11:48:48.000Z</time>
      </trkpt>
      <trkpt lat="45.14398" lon="5.38778">
        <ele>538.8</ele>
        <time>2022-10-15T11:48:49.000Z</time>
      </trkpt>
      <trkpt lat="45.14396" lon="5.38778">
        <ele>539</ele>
        <time>2022-10-15T11:48:50.000Z</time>
      </trkpt>
      <trkpt lat="45.14394" lon="5.38778">
        <ele>539.3</ele>
        <time>2022-10-15T11:48:51.000Z</time>
      </trkpt>
      <trkpt lat="45.14392" lon="5.38777">
        <ele>539.4</ele>
        <time>2022-10-15T11:48:52.000Z</time>
      </trkpt>
      <trkpt lat="45.14389" lon="5.38777">
        <ele>539.5</ele>
        <time>2022-10-15T11:48:53.000Z</time>
      </trkpt>
      <trkpt lat="45.14387" lon="5.38777">
        <ele>539.8</ele>
        <time>2022-10-15T11:48:54.000Z</time>
      </trkpt>
      <trkpt lat="45.14385" lon="5.38777">
        <ele>540.3</ele>
        <time>2022-10-15T11:48:55.000Z</time>
      </trkpt>
      <trkpt lat="45.14382" lon="5.38778">
        <ele>540.7</ele>
        <time>2022-10-15T11:48:57.000Z</time>
      </trkpt>
      <trkpt lat="45.14379" lon="5.38778">
        <ele>541.3</ele>
        <time>2022-10-15T11:48:59.000Z</time>
      </trkpt>
      <trkpt lat="45.14375" lon="5.38779">
        <ele>541.9</ele>
        <time>2022-10-15T11:49:01.000Z</time>
      </trkpt>
      <trkpt lat="45.14372" lon="5.3878">
        <ele>542.4</ele>
        <time>2022-10-15T11:49:03.000Z</time>
      </trkpt>
      <trkpt lat="45.14369" lon="5.38781">
        <ele>543.1</ele>
        <time>2022-10-15T11:49:05.000Z</time>
      </trkpt>
      <trkpt lat="45.14367" lon="5.38781">
        <ele>543.3</ele>
        <time>2022-10-15T11:49:06.000Z</time>
      </trkpt>
      <trkpt lat="45.14364" lon="5.38783">
        <ele>544.2</ele>
        <time>2022-10-15T11:49:08.000Z</time>
      </trkpt>
      <trkpt lat="45.14361" lon="5.38784">
        <ele>544.9</ele>
        <time>2022-10-15T11:49:10.000Z</time>
      </trkpt>
      <trkpt lat="45.14358" lon="5.38786">
        <ele>545.6</ele>
        <time>2022-10-15T11:49:12.000Z</time>
      </trkpt>
      <trkpt lat="45.14355" lon="5.38788">
        <ele>546.3</ele>
        <time>2022-10-15T11:49:14.000Z</time>
      </trkpt>
      <trkpt lat="45.14353" lon="5.38789">
        <ele>546.6</ele>
        <time>2022-10-15T11:49:15.000Z</time>
      </trkpt>
      <trkpt lat="45.14351" lon="5.38791">
        <ele>547.2</ele>
        <time>2022-10-15T11:49:16.000Z</time>
      </trkpt>
      <trkpt lat="45.1435" lon="5.38792">
        <ele>547.6</ele>
        <time>2022-10-15T11:49:17.000Z</time>
      </trkpt>
      <trkpt lat="45.14348" lon="5.38793">
        <ele>547.9</ele>
        <time>2022-10-15T11:49:18.000Z</time>
      </trkpt>
      <trkpt lat="45.14346" lon="5.38794">
        <ele>548.4</ele>
        <time>2022-10-15T11:49:19.000Z</time>
      </trkpt>
      <trkpt lat="45.14343" lon="5.38796">
        <ele>549.2</ele>
        <time>2022-10-15T11:49:21.000Z</time>
      </trkpt>
      <trkpt lat="45.14341" lon="5.38798">
        <ele>549.7</ele>
        <time>2022-10-15T11:49:22.000Z</time>
      </trkpt>
      <trkpt lat="45.14339" lon="5.38799">
        <ele>550</ele>
        <time>2022-10-15T11:49:23.000Z</time>
      </trkpt>
      <trkpt lat="45.14337" lon="5.388">
        <ele>550.3</ele>
        <time>2022-10-15T11:49:24.000Z</time>
      </trkpt>
      <trkpt lat="45.14335" lon="5.38801">
        <ele>550.6</ele>
        <time>2022-10-15T11:49:25.000Z</time>
      </trkpt>
      <trkpt lat="45.14333" lon="5.38802">
        <ele>551</ele>
        <time>2022-10-15T11:49:26.000Z</time>
      </trkpt>
      <trkpt lat="45.14332" lon="5.38803">
        <ele>551.3</ele>
        <time>2022-10-15T11:49:27.000Z</time>
      </trkpt>
      <trkpt lat="45.1433" lon="5.38804">
        <ele>551.7</ele>
        <time>2022-10-15T11:49:28.000Z</time>
      </trkpt>
      <trkpt lat="45.14328" lon="5.38804">
        <ele>551.9</ele>
        <time>2022-10-15T11:49:29.000Z</time>
      </trkpt>
      <trkpt lat="45.14326" lon="5.38805">
        <ele>552.1</ele>
        <time>2022-10-15T11:49:30.000Z</time>
      </trkpt>
      <trkpt lat="45.14324" lon="5.38805">
        <ele>552.3</ele>
        <time>2022-10-15T11:49:31.000Z</time>
      </trkpt>
      <trkpt lat="45.14322" lon="5.38806">
        <ele>552.5</ele>
        <time>2022-10-15T11:49:32.000Z</time>
      </trkpt>
      <trkpt lat="45.1432" lon="5.38806">
        <ele>552.7</ele>
        <time>2022-10-15T11:49:33.000Z</time>
      </trkpt>
      <trkpt lat="45.14318" lon="5.38807">
        <ele>552.8</ele>
        <time>2022-10-15T11:49:34.000Z</time>
      </trkpt>
      <trkpt lat="45.14316" lon="5.38807">
        <ele>552.9</ele>
        <time>2022-10-15T11:49:35.000Z</time>
      </trkpt>
      <trkpt lat="45.14314" lon="5.38807">
        <ele>553</ele>
        <time>2022-10-15T11:49:36.000Z</time>
      </trkpt>
      <trkpt lat="45.14312" lon="5.38807">
        <ele>553</ele>
        <time>2022-10-15T11:49:37.000Z</time>
      </trkpt>
      <trkpt lat="45.1431" lon="5.38806">
        <ele>552.9</ele>
        <time>2022-10-15T11:49:38.000Z</time>
      </trkpt>
      <trkpt lat="45.14308" lon="5.38806">
        <ele>553</ele>
        <time>2022-10-15T11:49:39.000Z</time>
      </trkpt>
      <trkpt lat="45.14305" lon="5.38806">
        <ele>553.1</ele>
        <time>2022-10-15T11:49:41.000Z</time>
      </trkpt>
      <trkpt lat="45.14301" lon="5.38807">
        <ele>553.8</ele>
        <time>2022-10-15T11:49:43.000Z</time>
      </trkpt>
      <trkpt lat="45.14299" lon="5.38807">
        <ele>554</ele>
        <time>2022-10-15T11:49:44.000Z</time>
      </trkpt>
      <trkpt lat="45.14297" lon="5.38807">
        <ele>554.2</ele>
        <time>2022-10-15T11:49:45.000Z</time>
      </trkpt>
      <trkpt lat="45.14295" lon="5.38807">
        <ele>554.4</ele>
        <time>2022-10-15T11:49:46.000Z</time>
      </trkpt>
      <trkpt lat="45.14292" lon="5.38807">
        <ele>554.7</ele>
        <time>2022-10-15T11:49:47.000Z</time>
      </trkpt>
      <trkpt lat="45.1429" lon="5.38807">
        <ele>555</ele>
        <time>2022-10-15T11:49:48.000Z</time>
      </trkpt>
      <trkpt lat="45.14288" lon="5.38807">
        <ele>555.3</ele>
        <time>2022-10-15T11:49:49.000Z</time>
      </trkpt>
      <trkpt lat="45.14286" lon="5.38807">
        <ele>555.6</ele>
        <time>2022-10-15T11:49:50.000Z</time>
      </trkpt>
      <trkpt lat="45.14284" lon="5.38807">
        <ele>555.8</ele>
        <time>2022-10-15T11:49:51.000Z</time>
      </trkpt>
      <trkpt lat="45.14281" lon="5.38807">
        <ele>556.1</ele>
        <time>2022-10-15T11:49:52.000Z</time>
      </trkpt>
      <trkpt lat="45.14279" lon="5.38808">
        <ele>556.5</ele>
        <time>2022-10-15T11:49:53.000Z</time>
      </trkpt>
      <trkpt lat="45.14277" lon="5.38808">
        <ele>556.9</ele>
        <time>2022-10-15T11:49:54.000Z</time>
      </trkpt>
      <trkpt lat="45.14274" lon="5.38808">
        <ele>557.1</ele>
        <time>2022-10-15T11:49:55.000Z</time>
      </trkpt>
      <trkpt lat="45.14272" lon="5.38807">
        <ele>557.4</ele>
        <time>2022-10-15T11:49:56.000Z</time>
      </trkpt>
      <trkpt lat="45.14269" lon="5.38807">
        <ele>557.7</ele>
        <time>2022-10-15T11:49:57.000Z</time>
      </trkpt>
      <trkpt lat="45.14267" lon="5.38807">
        <ele>558</ele>
        <time>2022-10-15T11:49:58.000Z</time>
      </trkpt>
      <trkpt lat="45.14265" lon="5.38807">
        <ele>558.2</ele>
        <time>2022-10-15T11:49:59.000Z</time>
      </trkpt>
      <trkpt lat="45.14262" lon="5.38806">
        <ele>558.4</ele>
        <time>2022-10-15T11:50:00.000Z</time>
      </trkpt>
      <trkpt lat="45.1426" lon="5.38806">
        <ele>558.6</ele>
        <time>2022-10-15T11:50:01.000Z</time>
      </trkpt>
      <trkpt lat="45.14258" lon="5.38805">
        <ele>558.7</ele>
        <time>2022-10-15T11:50:02.000Z</time>
      </trkpt>
      <trkpt lat="45.14255" lon="5.38804">
        <ele>558.9</ele>
        <time>2022-10-15T11:50:03.000Z</time>
      </trkpt>
      <trkpt lat="45.14253" lon="5.38804">
        <ele>559.1</ele>
        <time>2022-10-15T11:50:04.000Z</time>
      </trkpt>
      <trkpt lat="45.1425" lon="5.38802">
        <ele>559.1</ele>
        <time>2022-10-15T11:50:05.000Z</time>
      </trkpt>
      <trkpt lat="45.14247" lon="5.38801">
        <ele>559.2</ele>
        <time>2022-10-15T11:50:06.000Z</time>
      </trkpt>
      <trkpt lat="45.14245" lon="5.388">
        <ele>559.3</ele>
        <time>2022-10-15T11:50:07.000Z</time>
      </trkpt>
      <trkpt lat="45.14242" lon="5.38799">
        <ele>559.5</ele>
        <time>2022-10-15T11:50:08.000Z</time>
      </trkpt>
      <trkpt lat="45.14239" lon="5.38798">
        <ele>559.8</ele>
        <time>2022-10-15T11:50:09.000Z</time>
      </trkpt>
      <trkpt lat="45.14237" lon="5.38797">
        <ele>559.8</ele>
        <time>2022-10-15T11:50:10.000Z</time>
      </trkpt>
      <trkpt lat="45.14234" lon="5.38795">
        <ele>559.8</ele>
        <time>2022-10-15T11:50:11.000Z</time>
      </trkpt>
      <trkpt lat="45.14232" lon="5.38794">
        <ele>559.9</ele>
        <time>2022-10-15T11:50:12.000Z</time>
      </trkpt>
      <trkpt lat="45.14229" lon="5.38792">
        <ele>559.9</ele>
        <time>2022-10-15T11:50:13.000Z</time>
      </trkpt>
      <trkpt lat="45.14227" lon="5.38791">
        <ele>560.1</ele>
        <time>2022-10-15T11:50:14.000Z</time>
      </trkpt>
      <trkpt lat="45.14224" lon="5.3879">
        <ele>560.3</ele>
        <time>2022-10-15T11:50:15.000Z</time>
      </trkpt>
      <trkpt lat="45.14222" lon="5.3879">
        <ele>560.4</ele>
        <time>2022-10-15T11:50:16.000Z</time>
      </trkpt>
      <trkpt lat="45.1422" lon="5.3879">
        <ele>560.8</ele>
        <time>2022-10-15T11:50:17.000Z</time>
      </trkpt>
      <trkpt lat="45.14217" lon="5.38789">
        <ele>561.3</ele>
        <time>2022-10-15T11:50:19.000Z</time>
      </trkpt>
      <trkpt lat="45.14215" lon="5.38787">
        <ele>561.1</ele>
        <time>2022-10-15T11:50:27.000Z</time>
      </trkpt>
      <trkpt lat="45.14215" lon="5.38787">
        <ele>561.1</ele>
        <time>2022-10-15T11:50:27.000Z</time>
      </trkpt>
      <trkpt lat="45.14212" lon="5.38785">
        <ele>561</ele>
        <time>2022-10-15T12:18:30.000Z</time>
      </trkpt>
      <trkpt lat="45.14212" lon="5.38785">
        <ele>561</ele>
        <time>2022-10-15T12:18:30.000Z</time>
      </trkpt>
      <trkpt lat="45.1421" lon="5.38784">
        <ele>561.2</ele>
        <time>2022-10-15T12:18:33.000Z</time>
      </trkpt>
      <trkpt lat="45.14209" lon="5.38782">
        <ele>560.6</ele>
        <time>2022-10-15T12:18:36.000Z</time>
      </trkpt>
      <trkpt lat="45.14214" lon="5.3878">
        <ele>559.1</ele>
        <time>2022-10-15T12:18:38.000Z</time>
      </trkpt>
      <trkpt lat="45.14216" lon="5.38785">
        <ele>560.1</ele>
        <time>2022-10-15T12:18:40.000Z</time>
      </trkpt>
      <trkpt lat="45.14217" lon="5.38787">
        <ele>560.5</ele>
        <time>2022-10-15T12:18:41.000Z</time>
      </trkpt>
      <trkpt lat="45.1422" lon="5.38787">
        <ele>560.2</ele>
        <time>2022-10-15T12:18:46.000Z</time>
      </trkpt>
      <trkpt lat="45.14216" lon="5.3879">
        <ele>561.6</ele>
        <time>2022-10-15T12:18:48.000Z</time>
      </trkpt>
      <trkpt lat="45.14214" lon="5.38789">
        <ele>561.9</ele>
        <time>2022-10-15T12:18:49.000Z</time>
      </trkpt>
      <trkpt lat="45.14211" lon="5.38789">
        <ele>562.3</ele>
        <time>2022-10-15T12:18:50.000Z</time>
      </trkpt>
      <trkpt lat="45.14209" lon="5.38789">
        <ele>562.7</ele>
        <time>2022-10-15T12:18:51.000Z</time>
      </trkpt>
      <trkpt lat="45.14207" lon="5.38788">
        <ele>562.9</ele>
        <time>2022-10-15T12:18:52.000Z</time>
      </trkpt>
      <trkpt lat="45.14201" lon="5.38785">
        <ele>563</ele>
        <time>2022-10-15T12:18:54.000Z</time>
      </trkpt>
      <trkpt lat="45.14204" lon="5.38783">
        <ele>561.9</ele>
        <time>2022-10-15T12:18:56.000Z</time>
      </trkpt>
      <trkpt lat="45.14206" lon="5.38784">
        <ele>561.7</ele>
        <time>2022-10-15T12:18:58.000Z</time>
      </trkpt>
      <trkpt lat="45.14208" lon="5.38784">
        <ele>561.5</ele>
        <time>2022-10-15T12:18:59.000Z</time>
      </trkpt>
      <trkpt lat="45.14212" lon="5.38785">
        <ele>561.1</ele>
        <time>2022-10-15T12:19:01.000Z</time>
      </trkpt>
      <trkpt lat="45.14216" lon="5.38786">
        <ele>560.6</ele>
        <time>2022-10-15T12:19:03.000Z</time>
      </trkpt>
      <trkpt lat="45.14218" lon="5.38787">
        <ele>560.4</ele>
        <time>2022-10-15T12:19:04.000Z</time>
      </trkpt>
      <trkpt lat="45.14221" lon="5.38788">
        <ele>560.3</ele>
        <time>2022-10-15T12:19:05.000Z</time>
      </trkpt>
      <trkpt lat="45.14223" lon="5.38789">
        <ele>560</ele>
        <time>2022-10-15T12:19:07.000Z</time>
      </trkpt>
      <trkpt lat="45.14225" lon="5.3879">
        <ele>559.8</ele>
        <time>2022-10-15T12:19:08.000Z</time>
      </trkpt>
      <trkpt lat="45.14227" lon="5.38793">
        <ele>560.6</ele>
        <time>2022-10-15T12:19:09.000Z</time>
      </trkpt>
      <trkpt lat="45.14229" lon="5.38794">
        <ele>560.5</ele>
        <time>2022-10-15T12:19:10.000Z</time>
      </trkpt>
      <trkpt lat="45.14231" lon="5.38797">
        <ele>561</ele>
        <time>2022-10-15T12:19:11.000Z</time>
      </trkpt>
      <trkpt lat="45.14234" lon="5.388">
        <ele>561.4</ele>
        <time>2022-10-15T12:19:12.000Z</time>
      </trkpt>
      <trkpt lat="45.14236" lon="5.38803">
        <ele>561.8</ele>
        <time>2022-10-15T12:19:13.000Z</time>
      </trkpt>
      <trkpt lat="45.14238" lon="5.38804">
        <ele>561.6</ele>
        <time>2022-10-15T12:19:14.000Z</time>
      </trkpt>
      <trkpt lat="45.14241" lon="5.38806">
        <ele>561.6</ele>
        <time>2022-10-15T12:19:15.000Z</time>
      </trkpt>
      <trkpt lat="45.14243" lon="5.38807">
        <ele>561.8</ele>
        <time>2022-10-15T12:19:16.000Z</time>
      </trkpt>
      <trkpt lat="45.14245" lon="5.38809">
        <ele>562</ele>
        <time>2022-10-15T12:19:17.000Z</time>
      </trkpt>
      <trkpt lat="45.14247" lon="5.38812">
        <ele>562.6</ele>
        <time>2022-10-15T12:19:18.000Z</time>
      </trkpt>
      <trkpt lat="45.14249" lon="5.38814">
        <ele>562.9</ele>
        <time>2022-10-15T12:19:19.000Z</time>
      </trkpt>
      <trkpt lat="45.14251" lon="5.38816">
        <ele>563.1</ele>
        <time>2022-10-15T12:19:20.000Z</time>
      </trkpt>
      <trkpt lat="45.14253" lon="5.38818">
        <ele>563.4</ele>
        <time>2022-10-15T12:19:21.000Z</time>
      </trkpt>
      <trkpt lat="45.14255" lon="5.3882">
        <ele>563.9</ele>
        <time>2022-10-15T12:19:22.000Z</time>
      </trkpt>
      <trkpt lat="45.14257" lon="5.38821">
        <ele>563.9</ele>
        <time>2022-10-15T12:19:23.000Z</time>
      </trkpt>
      <trkpt lat="45.14259" lon="5.38825">
        <ele>564.6</ele>
        <time>2022-10-15T12:19:24.000Z</time>
      </trkpt>
      <trkpt lat="45.14261" lon="5.38827">
        <ele>565</ele>
        <time>2022-10-15T12:19:25.000Z</time>
      </trkpt>
      <trkpt lat="45.14262" lon="5.38828">
        <ele>565.1</ele>
        <time>2022-10-15T12:19:26.000Z</time>
      </trkpt>
      <trkpt lat="45.14266" lon="5.3883">
        <ele>565.1</ele>
        <time>2022-10-15T12:19:28.000Z</time>
      </trkpt>
      <trkpt lat="45.14267" lon="5.38831">
        <ele>565.3</ele>
        <time>2022-10-15T12:19:29.000Z</time>
      </trkpt>
      <trkpt lat="45.14269" lon="5.38833">
        <ele>565.5</ele>
        <time>2022-10-15T12:19:30.000Z</time>
      </trkpt>
      <trkpt lat="45.1427" lon="5.38835">
        <ele>565.8</ele>
        <time>2022-10-15T12:19:31.000Z</time>
      </trkpt>
      <trkpt lat="45.14271" lon="5.38837">
        <ele>566.2</ele>
        <time>2022-10-15T12:19:32.000Z</time>
      </trkpt>
      <trkpt lat="45.14274" lon="5.3884">
        <ele>566.5</ele>
        <time>2022-10-15T12:19:34.000Z</time>
      </trkpt>
      <trkpt lat="45.14276" lon="5.38842">
        <ele>566.8</ele>
        <time>2022-10-15T12:19:36.000Z</time>
      </trkpt>
      <trkpt lat="45.14277" lon="5.38844">
        <ele>567.2</ele>
        <time>2022-10-15T12:19:38.000Z</time>
      </trkpt>
      <trkpt lat="45.14279" lon="5.38847">
        <ele>567.6</ele>
        <time>2022-10-15T12:19:40.000Z</time>
      </trkpt>
      <trkpt lat="45.14282" lon="5.38849">
        <ele>567.9</ele>
        <time>2022-10-15T12:19:42.000Z</time>
      </trkpt>
      <trkpt lat="45.14284" lon="5.38851">
        <ele>568.4</ele>
        <time>2022-10-15T12:19:44.000Z</time>
      </trkpt>
      <trkpt lat="45.14286" lon="5.38853">
        <ele>568.6</ele>
        <time>2022-10-15T12:19:46.000Z</time>
      </trkpt>
      <trkpt lat="45.14289" lon="5.38855">
        <ele>568.7</ele>
        <time>2022-10-15T12:19:48.000Z</time>
      </trkpt>
      <trkpt lat="45.14292" lon="5.38857">
        <ele>568.7</ele>
        <time>2022-10-15T12:19:50.000Z</time>
      </trkpt>
      <trkpt lat="45.14294" lon="5.38858">
        <ele>568.7</ele>
        <time>2022-10-15T12:19:52.000Z</time>
      </trkpt>
      <trkpt lat="45.14297" lon="5.3886">
        <ele>568.9</ele>
        <time>2022-10-15T12:19:54.000Z</time>
      </trkpt>
      <trkpt lat="45.14299" lon="5.38862">
        <ele>569.1</ele>
        <time>2022-10-15T12:19:55.000Z</time>
      </trkpt>
      <trkpt lat="45.14302" lon="5.38864">
        <ele>569.4</ele>
        <time>2022-10-15T12:19:57.000Z</time>
      </trkpt>
      <trkpt lat="45.14304" lon="5.38866">
        <ele>569.6</ele>
        <time>2022-10-15T12:19:59.000Z</time>
      </trkpt>
      <trkpt lat="45.14306" lon="5.38867">
        <ele>569.6</ele>
        <time>2022-10-15T12:20:01.000Z</time>
      </trkpt>
      <trkpt lat="45.14309" lon="5.3887">
        <ele>569.9</ele>
        <time>2022-10-15T12:20:03.000Z</time>
      </trkpt>
      <trkpt lat="45.14312" lon="5.38872">
        <ele>570.2</ele>
        <time>2022-10-15T12:20:05.000Z</time>
      </trkpt>
      <trkpt lat="45.14313" lon="5.38875">
        <ele>570.7</ele>
        <time>2022-10-15T12:20:07.000Z</time>
      </trkpt>
      <trkpt lat="45.14316" lon="5.38878">
        <ele>571.2</ele>
        <time>2022-10-15T12:20:09.000Z</time>
      </trkpt>
      <trkpt lat="45.14317" lon="5.38882">
        <ele>572</ele>
        <time>2022-10-15T12:20:11.000Z</time>
      </trkpt>
      <trkpt lat="45.14318" lon="5.38885">
        <ele>572.7</ele>
        <time>2022-10-15T12:20:13.000Z</time>
      </trkpt>
      <trkpt lat="45.1432" lon="5.38888">
        <ele>573.1</ele>
        <time>2022-10-15T12:20:15.000Z</time>
      </trkpt>
      <trkpt lat="45.14322" lon="5.38889">
        <ele>573.1</ele>
        <time>2022-10-15T12:20:17.000Z</time>
      </trkpt>
      <trkpt lat="45.14325" lon="5.38889">
        <ele>572.6</ele>
        <time>2022-10-15T12:20:19.000Z</time>
      </trkpt>
      <trkpt lat="45.14328" lon="5.38892">
        <ele>572.8</ele>
        <time>2022-10-15T12:20:21.000Z</time>
      </trkpt>
      <trkpt lat="45.1433" lon="5.38895">
        <ele>573.2</ele>
        <time>2022-10-15T12:20:23.000Z</time>
      </trkpt>
      <trkpt lat="45.14332" lon="5.38897">
        <ele>573.4</ele>
        <time>2022-10-15T12:20:25.000Z</time>
      </trkpt>
      <trkpt lat="45.14335" lon="5.38898">
        <ele>573.5</ele>
        <time>2022-10-15T12:20:27.000Z</time>
      </trkpt>
      <trkpt lat="45.14337" lon="5.38899">
        <ele>573.5</ele>
        <time>2022-10-15T12:20:29.000Z</time>
      </trkpt>
      <trkpt lat="45.1434" lon="5.38901">
        <ele>573.7</ele>
        <time>2022-10-15T12:20:31.000Z</time>
      </trkpt>
      <trkpt lat="45.14342" lon="5.38901">
        <ele>573.3</ele>
        <time>2022-10-15T12:20:33.000Z</time>
      </trkpt>
      <trkpt lat="45.14345" lon="5.38903">
        <ele>573.6</ele>
        <time>2022-10-15T12:20:35.000Z</time>
      </trkpt>
      <trkpt lat="45.14347" lon="5.38905">
        <ele>573.8</ele>
        <time>2022-10-15T12:20:37.000Z</time>
      </trkpt>
      <trkpt lat="45.1435" lon="5.38908">
        <ele>574.3</ele>
        <time>2022-10-15T12:20:39.000Z</time>
      </trkpt>
      <trkpt lat="45.14352" lon="5.3891">
        <ele>574.7</ele>
        <time>2022-10-15T12:20:41.000Z</time>
      </trkpt>
      <trkpt lat="45.14353" lon="5.38913">
        <ele>575.1</ele>
        <time>2022-10-15T12:20:43.000Z</time>
      </trkpt>
      <trkpt lat="45.14354" lon="5.38916">
        <ele>575.7</ele>
        <time>2022-10-15T12:20:45.000Z</time>
      </trkpt>
      <trkpt lat="45.14357" lon="5.38919">
        <ele>576.2</ele>
        <time>2022-10-15T12:20:47.000Z</time>
      </trkpt>
      <trkpt lat="45.14359" lon="5.38921">
        <ele>576.5</ele>
        <time>2022-10-15T12:20:49.000Z</time>
      </trkpt>
      <trkpt lat="45.14362" lon="5.38922">
        <ele>576.2</ele>
        <time>2022-10-15T12:20:51.000Z</time>
      </trkpt>
      <trkpt lat="45.14365" lon="5.38924">
        <ele>576.1</ele>
        <time>2022-10-15T12:20:53.000Z</time>
      </trkpt>
      <trkpt lat="45.14367" lon="5.38927">
        <ele>576.5</ele>
        <time>2022-10-15T12:20:55.000Z</time>
      </trkpt>
      <trkpt lat="45.14369" lon="5.3893">
        <ele>576.9</ele>
        <time>2022-10-15T12:20:57.000Z</time>
      </trkpt>
      <trkpt lat="45.14372" lon="5.38931">
        <ele>576.5</ele>
        <time>2022-10-15T12:20:59.000Z</time>
      </trkpt>
      <trkpt lat="45.14375" lon="5.38932">
        <ele>576.3</ele>
        <time>2022-10-15T12:21:01.000Z</time>
      </trkpt>
      <trkpt lat="45.14377" lon="5.38933">
        <ele>576.4</ele>
        <time>2022-10-15T12:21:03.000Z</time>
      </trkpt>
      <trkpt lat="45.14379" lon="5.38935">
        <ele>576.5</ele>
        <time>2022-10-15T12:21:05.000Z</time>
      </trkpt>
      <trkpt lat="45.14381" lon="5.38937">
        <ele>576.6</ele>
        <time>2022-10-15T12:21:07.000Z</time>
      </trkpt>
      <trkpt lat="45.14383" lon="5.38939">
        <ele>576.9</ele>
        <time>2022-10-15T12:21:09.000Z</time>
      </trkpt>
      <trkpt lat="45.14384" lon="5.38941">
        <ele>577.1</ele>
        <time>2022-10-15T12:21:11.000Z</time>
      </trkpt>
      <trkpt lat="45.14386" lon="5.38943">
        <ele>577</ele>
        <time>2022-10-15T12:21:13.000Z</time>
      </trkpt>
      <trkpt lat="45.14388" lon="5.38944">
        <ele>577.1</ele>
        <time>2022-10-15T12:21:14.000Z</time>
      </trkpt>
      <trkpt lat="45.1439" lon="5.38947">
        <ele>577.5</ele>
        <time>2022-10-15T12:21:16.000Z</time>
      </trkpt>
      <trkpt lat="45.14392" lon="5.38949">
        <ele>577.8</ele>
        <time>2022-10-15T12:21:19.000Z</time>
      </trkpt>
      <trkpt lat="45.14394" lon="5.38951">
        <ele>578.1</ele>
        <time>2022-10-15T12:21:21.000Z</time>
      </trkpt>
      <trkpt lat="45.14396" lon="5.38953">
        <ele>578.4</ele>
        <time>2022-10-15T12:21:22.000Z</time>
      </trkpt>
      <trkpt lat="45.14397" lon="5.38955">
        <ele>578.8</ele>
        <time>2022-10-15T12:21:25.000Z</time>
      </trkpt>
      <trkpt lat="45.14399" lon="5.38957">
        <ele>579.1</ele>
        <time>2022-10-15T12:21:27.000Z</time>
      </trkpt>
      <trkpt lat="45.14401" lon="5.3896">
        <ele>579.5</ele>
        <time>2022-10-15T12:21:29.000Z</time>
      </trkpt>
      <trkpt lat="45.14404" lon="5.38962">
        <ele>579.5</ele>
        <time>2022-10-15T12:21:31.000Z</time>
      </trkpt>
      <trkpt lat="45.14407" lon="5.38963">
        <ele>579.3</ele>
        <time>2022-10-15T12:21:33.000Z</time>
      </trkpt>
      <trkpt lat="45.14409" lon="5.38965">
        <ele>579.5</ele>
        <time>2022-10-15T12:21:35.000Z</time>
      </trkpt>
      <trkpt lat="45.1441" lon="5.38967">
        <ele>579.8</ele>
        <time>2022-10-15T12:21:37.000Z</time>
      </trkpt>
      <trkpt lat="45.14413" lon="5.38969">
        <ele>579.7</ele>
        <time>2022-10-15T12:21:40.000Z</time>
      </trkpt>
      <trkpt lat="45.14415" lon="5.38968">
        <ele>579.3</ele>
        <time>2022-10-15T12:21:41.000Z</time>
      </trkpt>
      <trkpt lat="45.14418" lon="5.38969">
        <ele>579</ele>
        <time>2022-10-15T12:21:43.000Z</time>
      </trkpt>
      <trkpt lat="45.14421" lon="5.38972">
        <ele>579.1</ele>
        <time>2022-10-15T12:21:45.000Z</time>
      </trkpt>
      <trkpt lat="45.14423" lon="5.38974">
        <ele>579.2</ele>
        <time>2022-10-15T12:21:46.000Z</time>
      </trkpt>
      <trkpt lat="45.14425" lon="5.38976">
        <ele>579.4</ele>
        <time>2022-10-15T12:21:47.000Z</time>
      </trkpt>
      <trkpt lat="45.14426" lon="5.38978">
        <ele>579.8</ele>
        <time>2022-10-15T12:21:48.000Z</time>
      </trkpt>
      <trkpt lat="45.14428" lon="5.3898">
        <ele>580.1</ele>
        <time>2022-10-15T12:21:49.000Z</time>
      </trkpt>
      <trkpt lat="45.14429" lon="5.38982">
        <ele>580.3</ele>
        <time>2022-10-15T12:21:50.000Z</time>
      </trkpt>
      <trkpt lat="45.14431" lon="5.38984">
        <ele>580.5</ele>
        <time>2022-10-15T12:21:51.000Z</time>
      </trkpt>
      <trkpt lat="45.14432" lon="5.38987">
        <ele>580.8</ele>
        <time>2022-10-15T12:21:52.000Z</time>
      </trkpt>
      <trkpt lat="45.14435" lon="5.38988">
        <ele>580.7</ele>
        <time>2022-10-15T12:21:53.000Z</time>
      </trkpt>
      <trkpt lat="45.14438" lon="5.38989">
        <ele>580.5</ele>
        <time>2022-10-15T12:21:55.000Z</time>
      </trkpt>
      <trkpt lat="45.1444" lon="5.38991">
        <ele>580.5</ele>
        <time>2022-10-15T12:21:57.000Z</time>
      </trkpt>
      <trkpt lat="45.14442" lon="5.38992">
        <ele>580.4</ele>
        <time>2022-10-15T12:21:59.000Z</time>
      </trkpt>
      <trkpt lat="45.14444" lon="5.38993">
        <ele>580.2</ele>
        <time>2022-10-15T12:22:01.000Z</time>
      </trkpt>
      <trkpt lat="45.14446" lon="5.38994">
        <ele>580.4</ele>
        <time>2022-10-15T12:22:03.000Z</time>
      </trkpt>
      <trkpt lat="45.14449" lon="5.38997">
        <ele>580.7</ele>
        <time>2022-10-15T12:22:05.000Z</time>
      </trkpt>
      <trkpt lat="45.1445" lon="5.39">
        <ele>581.2</ele>
        <time>2022-10-15T12:22:08.000Z</time>
      </trkpt>
      <trkpt lat="45.14452" lon="5.39002">
        <ele>581.7</ele>
        <time>2022-10-15T12:22:11.000Z</time>
      </trkpt>
      <trkpt lat="45.14453" lon="5.39003">
        <ele>582</ele>
        <time>2022-10-15T12:22:12.000Z</time>
      </trkpt>
      <trkpt lat="45.14455" lon="5.39004">
        <ele>582.1</ele>
        <time>2022-10-15T12:22:13.000Z</time>
      </trkpt>
      <trkpt lat="45.14457" lon="5.39005">
        <ele>582.1</ele>
        <time>2022-10-15T12:22:15.000Z</time>
      </trkpt>
      <trkpt lat="45.14458" lon="5.39007">
        <ele>582.3</ele>
        <time>2022-10-15T12:22:17.000Z</time>
      </trkpt>
      <trkpt lat="45.1446" lon="5.39008">
        <ele>582.5</ele>
        <time>2022-10-15T12:22:19.000Z</time>
      </trkpt>
      <trkpt lat="45.14462" lon="5.3901">
        <ele>582.6</ele>
        <time>2022-10-15T12:22:20.000Z</time>
      </trkpt>
      <trkpt lat="45.14464" lon="5.39011">
        <ele>582.7</ele>
        <time>2022-10-15T12:22:21.000Z</time>
      </trkpt>
      <trkpt lat="45.14466" lon="5.39012">
        <ele>582.8</ele>
        <time>2022-10-15T12:22:22.000Z</time>
      </trkpt>
      <trkpt lat="45.14468" lon="5.39013">
        <ele>582.7</ele>
        <time>2022-10-15T12:22:23.000Z</time>
      </trkpt>
      <trkpt lat="45.1447" lon="5.39014">
        <ele>582.8</ele>
        <time>2022-10-15T12:22:24.000Z</time>
      </trkpt>
      <trkpt lat="45.14472" lon="5.39015">
        <ele>582.9</ele>
        <time>2022-10-15T12:22:25.000Z</time>
      </trkpt>
      <trkpt lat="45.14474" lon="5.39016">
        <ele>582.9</ele>
        <time>2022-10-15T12:22:26.000Z</time>
      </trkpt>
      <trkpt lat="45.14477" lon="5.39017">
        <ele>582.8</ele>
        <time>2022-10-15T12:22:28.000Z</time>
      </trkpt>
      <trkpt lat="45.1448" lon="5.39016">
        <ele>582.3</ele>
        <time>2022-10-15T12:22:30.000Z</time>
      </trkpt>
      <trkpt lat="45.14483" lon="5.39016">
        <ele>582.1</ele>
        <time>2022-10-15T12:22:32.000Z</time>
      </trkpt>
      <trkpt lat="45.14486" lon="5.39018">
        <ele>582.1</ele>
        <time>2022-10-15T12:22:34.000Z</time>
      </trkpt>
      <trkpt lat="45.14488" lon="5.39018">
        <ele>582</ele>
        <time>2022-10-15T12:22:35.000Z</time>
      </trkpt>
      <trkpt lat="45.14491" lon="5.39019">
        <ele>582</ele>
        <time>2022-10-15T12:22:36.000Z</time>
      </trkpt>
      <trkpt lat="45.14493" lon="5.39019">
        <ele>581.8</ele>
        <time>2022-10-15T12:22:38.000Z</time>
      </trkpt>
      <trkpt lat="45.14496" lon="5.3902">
        <ele>581.7</ele>
        <time>2022-10-15T12:22:40.000Z</time>
      </trkpt>
      <trkpt lat="45.14499" lon="5.39021">
        <ele>581.5</ele>
        <time>2022-10-15T12:22:42.000Z</time>
      </trkpt>
      <trkpt lat="45.14502" lon="5.39021">
        <ele>581.4</ele>
        <time>2022-10-15T12:22:44.000Z</time>
      </trkpt>
      <trkpt lat="45.14504" lon="5.39022">
        <ele>581.5</ele>
        <time>2022-10-15T12:22:46.000Z</time>
      </trkpt>
      <trkpt lat="45.14506" lon="5.39023">
        <ele>581.5</ele>
        <time>2022-10-15T12:22:49.000Z</time>
      </trkpt>
      <trkpt lat="45.14507" lon="5.39025">
        <ele>581.8</ele>
        <time>2022-10-15T12:22:51.000Z</time>
      </trkpt>
      <trkpt lat="45.14509" lon="5.39027">
        <ele>582.2</ele>
        <time>2022-10-15T12:22:52.000Z</time>
      </trkpt>
      <trkpt lat="45.14511" lon="5.3903">
        <ele>582.7</ele>
        <time>2022-10-15T12:22:54.000Z</time>
      </trkpt>
      <trkpt lat="45.14513" lon="5.39031">
        <ele>582.8</ele>
        <time>2022-10-15T12:22:56.000Z</time>
      </trkpt>
      <trkpt lat="45.14516" lon="5.39033">
        <ele>583.1</ele>
        <time>2022-10-15T12:22:58.000Z</time>
      </trkpt>
      <trkpt lat="45.14518" lon="5.39034">
        <ele>583.3</ele>
        <time>2022-10-15T12:23:00.000Z</time>
      </trkpt>
      <trkpt lat="45.1452" lon="5.39035">
        <ele>583.3</ele>
        <time>2022-10-15T12:23:02.000Z</time>
      </trkpt>
      <trkpt lat="45.14522" lon="5.39036">
        <ele>583.6</ele>
        <time>2022-10-15T12:23:04.000Z</time>
      </trkpt>
      <trkpt lat="45.14523" lon="5.39038">
        <ele>584</ele>
        <time>2022-10-15T12:23:07.000Z</time>
      </trkpt>
      <trkpt lat="45.14525" lon="5.3904">
        <ele>584.2</ele>
        <time>2022-10-15T12:23:09.000Z</time>
      </trkpt>
      <trkpt lat="45.14527" lon="5.39041">
        <ele>584.5</ele>
        <time>2022-10-15T12:23:11.000Z</time>
      </trkpt>
      <trkpt lat="45.14529" lon="5.39043">
        <ele>584.7</ele>
        <time>2022-10-15T12:23:13.000Z</time>
      </trkpt>
      <trkpt lat="45.1453" lon="5.39045">
        <ele>585.2</ele>
        <time>2022-10-15T12:23:15.000Z</time>
      </trkpt>
      <trkpt lat="45.14532" lon="5.39046">
        <ele>585.3</ele>
        <time>2022-10-15T12:23:17.000Z</time>
      </trkpt>
      <trkpt lat="45.14534" lon="5.39047">
        <ele>585.6</ele>
        <time>2022-10-15T12:23:19.000Z</time>
      </trkpt>
      <trkpt lat="45.14536" lon="5.39049">
        <ele>585.8</ele>
        <time>2022-10-15T12:23:21.000Z</time>
      </trkpt>
      <trkpt lat="45.14539" lon="5.3905">
        <ele>585.9</ele>
        <time>2022-10-15T12:23:23.000Z</time>
      </trkpt>
      <trkpt lat="45.14542" lon="5.39052">
        <ele>586.2</ele>
        <time>2022-10-15T12:23:25.000Z</time>
      </trkpt>
      <trkpt lat="45.14543" lon="5.39053">
        <ele>586.3</ele>
        <time>2022-10-15T12:23:26.000Z</time>
      </trkpt>
      <trkpt lat="45.14545" lon="5.39054">
        <ele>586.4</ele>
        <time>2022-10-15T12:23:27.000Z</time>
      </trkpt>
      <trkpt lat="45.14547" lon="5.39055">
        <ele>586.6</ele>
        <time>2022-10-15T12:23:28.000Z</time>
      </trkpt>
      <trkpt lat="45.1455" lon="5.39056">
        <ele>586.6</ele>
        <time>2022-10-15T12:23:30.000Z</time>
      </trkpt>
      <trkpt lat="45.14551" lon="5.39058">
        <ele>587</ele>
        <time>2022-10-15T12:23:32.000Z</time>
      </trkpt>
      <trkpt lat="45.14552" lon="5.39061">
        <ele>587.5</ele>
        <time>2022-10-15T12:23:35.000Z</time>
      </trkpt>
      <trkpt lat="45.14554" lon="5.39062">
        <ele>587.7</ele>
        <time>2022-10-15T12:23:37.000Z</time>
      </trkpt>
      <trkpt lat="45.14557" lon="5.39063">
        <ele>587.8</ele>
        <time>2022-10-15T12:23:39.000Z</time>
      </trkpt>
      <trkpt lat="45.14559" lon="5.39065">
        <ele>588.1</ele>
        <time>2022-10-15T12:23:40.000Z</time>
      </trkpt>
      <trkpt lat="45.14563" lon="5.39066">
        <ele>588.4</ele>
        <time>2022-10-15T12:23:42.000Z</time>
      </trkpt>
      <trkpt lat="45.14565" lon="5.39068">
        <ele>588.7</ele>
        <time>2022-10-15T12:23:44.000Z</time>
      </trkpt>
      <trkpt lat="45.14568" lon="5.39072">
        <ele>589.3</ele>
        <time>2022-10-15T12:23:47.000Z</time>
      </trkpt>
      <trkpt lat="45.14569" lon="5.39073">
        <ele>589.5</ele>
        <time>2022-10-15T12:23:48.000Z</time>
      </trkpt>
      <trkpt lat="45.14572" lon="5.39076">
        <ele>590.1</ele>
        <time>2022-10-15T12:23:50.000Z</time>
      </trkpt>
      <trkpt lat="45.14575" lon="5.39078">
        <ele>590.4</ele>
        <time>2022-10-15T12:23:52.000Z</time>
      </trkpt>
      <trkpt lat="45.14578" lon="5.39081">
        <ele>590.8</ele>
        <time>2022-10-15T12:23:54.000Z</time>
      </trkpt>
      <trkpt lat="45.1458" lon="5.39082">
        <ele>591</ele>
        <time>2022-10-15T12:23:55.000Z</time>
      </trkpt>
      <trkpt lat="45.14582" lon="5.39085">
        <ele>591.4</ele>
        <time>2022-10-15T12:23:57.000Z</time>
      </trkpt>
      <trkpt lat="45.14585" lon="5.39088">
        <ele>591.9</ele>
        <time>2022-10-15T12:23:59.000Z</time>
      </trkpt>
      <trkpt lat="45.14586" lon="5.39089">
        <ele>592.1</ele>
        <time>2022-10-15T12:24:00.000Z</time>
      </trkpt>
      <trkpt lat="45.1459" lon="5.39092">
        <ele>592.4</ele>
        <time>2022-10-15T12:24:02.000Z</time>
      </trkpt>
      <trkpt lat="45.14592" lon="5.39093">
        <ele>592.5</ele>
        <time>2022-10-15T12:24:03.000Z</time>
      </trkpt>
      <trkpt lat="45.14593" lon="5.39094">
        <ele>592.5</ele>
        <time>2022-10-15T12:24:04.000Z</time>
      </trkpt>
      <trkpt lat="45.14597" lon="5.39096">
        <ele>592.6</ele>
        <time>2022-10-15T12:24:06.000Z</time>
      </trkpt>
      <trkpt lat="45.146" lon="5.39098">
        <ele>592.6</ele>
        <time>2022-10-15T12:24:08.000Z</time>
      </trkpt>
      <trkpt lat="45.14601" lon="5.39099">
        <ele>592.7</ele>
        <time>2022-10-15T12:24:09.000Z</time>
      </trkpt>
      <trkpt lat="45.14603" lon="5.39102">
        <ele>593</ele>
        <time>2022-10-15T12:24:11.000Z</time>
      </trkpt>
      <trkpt lat="45.14605" lon="5.39104">
        <ele>593.3</ele>
        <time>2022-10-15T12:24:13.000Z</time>
      </trkpt>
      <trkpt lat="45.14607" lon="5.39107">
        <ele>593.7</ele>
        <time>2022-10-15T12:24:15.000Z</time>
      </trkpt>
      <trkpt lat="45.14608" lon="5.39109">
        <ele>593.9</ele>
        <time>2022-10-15T12:24:16.000Z</time>
      </trkpt>
      <trkpt lat="45.1461" lon="5.3911">
        <ele>593.9</ele>
        <time>2022-10-15T12:24:17.000Z</time>
      </trkpt>
      <trkpt lat="45.14612" lon="5.39111">
        <ele>594</ele>
        <time>2022-10-15T12:24:18.000Z</time>
      </trkpt>
      <trkpt lat="45.14614" lon="5.39113">
        <ele>594.4</ele>
        <time>2022-10-15T12:24:20.000Z</time>
      </trkpt>
      <trkpt lat="45.14614" lon="5.39116">
        <ele>595.3</ele>
        <time>2022-10-15T12:24:23.000Z</time>
      </trkpt>
      <trkpt lat="45.14616" lon="5.39118">
        <ele>595.4</ele>
        <time>2022-10-15T12:24:25.000Z</time>
      </trkpt>
      <trkpt lat="45.14619" lon="5.39119">
        <ele>595.5</ele>
        <time>2022-10-15T12:24:27.000Z</time>
      </trkpt>
      <trkpt lat="45.1462" lon="5.39122">
        <ele>596.2</ele>
        <time>2022-10-15T12:24:29.000Z</time>
      </trkpt>
      <trkpt lat="45.14623" lon="5.39124">
        <ele>596.4</ele>
        <time>2022-10-15T12:24:31.000Z</time>
      </trkpt>
      <trkpt lat="45.14624" lon="5.39126">
        <ele>597</ele>
        <time>2022-10-15T12:24:34.000Z</time>
      </trkpt>
      <trkpt lat="45.14625" lon="5.39129">
        <ele>597.5</ele>
        <time>2022-10-15T12:24:36.000Z</time>
      </trkpt>
      <trkpt lat="45.14626" lon="5.39131">
        <ele>597.9</ele>
        <time>2022-10-15T12:24:39.000Z</time>
      </trkpt>
      <trkpt lat="45.14628" lon="5.39134">
        <ele>598.4</ele>
        <time>2022-10-15T12:24:41.000Z</time>
      </trkpt>
      <trkpt lat="45.14629" lon="5.39136">
        <ele>598.7</ele>
        <time>2022-10-15T12:24:43.000Z</time>
      </trkpt>
      <trkpt lat="45.14632" lon="5.39138">
        <ele>598.7</ele>
        <time>2022-10-15T12:24:45.000Z</time>
      </trkpt>
      <trkpt lat="45.14635" lon="5.39139">
        <ele>598.7</ele>
        <time>2022-10-15T12:24:47.000Z</time>
      </trkpt>
      <trkpt lat="45.14637" lon="5.39141">
        <ele>598.7</ele>
        <time>2022-10-15T12:24:49.000Z</time>
      </trkpt>
      <trkpt lat="45.14639" lon="5.39142">
        <ele>598.9</ele>
        <time>2022-10-15T12:24:51.000Z</time>
      </trkpt>
      <trkpt lat="45.14641" lon="5.39144">
        <ele>599.1</ele>
        <time>2022-10-15T12:24:53.000Z</time>
      </trkpt>
      <trkpt lat="45.14644" lon="5.39145">
        <ele>599.1</ele>
        <time>2022-10-15T12:24:55.000Z</time>
      </trkpt>
      <trkpt lat="45.14647" lon="5.39147">
        <ele>599.5</ele>
        <time>2022-10-15T12:24:57.000Z</time>
      </trkpt>
      <trkpt lat="45.14649" lon="5.39149">
        <ele>599.7</ele>
        <time>2022-10-15T12:24:59.000Z</time>
      </trkpt>
      <trkpt lat="45.14651" lon="5.39151">
        <ele>600.1</ele>
        <time>2022-10-15T12:25:01.000Z</time>
      </trkpt>
      <trkpt lat="45.14653" lon="5.39154">
        <ele>600.6</ele>
        <time>2022-10-15T12:25:03.000Z</time>
      </trkpt>
      <trkpt lat="45.14655" lon="5.39157">
        <ele>601</ele>
        <time>2022-10-15T12:25:05.000Z</time>
      </trkpt>
      <trkpt lat="45.14658" lon="5.39159">
        <ele>601.2</ele>
        <time>2022-10-15T12:25:07.000Z</time>
      </trkpt>
      <trkpt lat="45.14661" lon="5.3916">
        <ele>601.2</ele>
        <time>2022-10-15T12:25:09.000Z</time>
      </trkpt>
      <trkpt lat="45.14663" lon="5.39161">
        <ele>601.2</ele>
        <time>2022-10-15T12:25:11.000Z</time>
      </trkpt>
      <trkpt lat="45.14665" lon="5.39163">
        <ele>601.2</ele>
        <time>2022-10-15T12:25:13.000Z</time>
      </trkpt>
      <trkpt lat="45.14668" lon="5.39164">
        <ele>601.3</ele>
        <time>2022-10-15T12:25:15.000Z</time>
      </trkpt>
      <trkpt lat="45.1467" lon="5.39166">
        <ele>601.5</ele>
        <time>2022-10-15T12:25:16.000Z</time>
      </trkpt>
      <trkpt lat="45.14672" lon="5.39169">
        <ele>602</ele>
        <time>2022-10-15T12:25:18.000Z</time>
      </trkpt>
      <trkpt lat="45.14674" lon="5.39171">
        <ele>602.4</ele>
        <time>2022-10-15T12:25:20.000Z</time>
      </trkpt>
      <trkpt lat="45.14677" lon="5.39172">
        <ele>602.3</ele>
        <time>2022-10-15T12:25:22.000Z</time>
      </trkpt>
      <trkpt lat="45.14678" lon="5.39173">
        <ele>602.7</ele>
        <time>2022-10-15T12:25:24.000Z</time>
      </trkpt>
      <trkpt lat="45.14681" lon="5.39176">
        <ele>603.1</ele>
        <time>2022-10-15T12:25:27.000Z</time>
      </trkpt>
      <trkpt lat="45.14683" lon="5.39177">
        <ele>603.2</ele>
        <time>2022-10-15T12:25:29.000Z</time>
      </trkpt>
      <trkpt lat="45.14685" lon="5.3918">
        <ele>603.8</ele>
        <time>2022-10-15T12:25:31.000Z</time>
      </trkpt>
      <trkpt lat="45.14688" lon="5.39181">
        <ele>603.8</ele>
        <time>2022-10-15T12:25:33.000Z</time>
      </trkpt>
      <trkpt lat="45.1469" lon="5.39182">
        <ele>604</ele>
        <time>2022-10-15T12:25:35.000Z</time>
      </trkpt>
      <trkpt lat="45.14692" lon="5.39185">
        <ele>604.6</ele>
        <time>2022-10-15T12:25:37.000Z</time>
      </trkpt>
      <trkpt lat="45.14693" lon="5.39188">
        <ele>605.2</ele>
        <time>2022-10-15T12:25:39.000Z</time>
      </trkpt>
      <trkpt lat="45.14696" lon="5.3919">
        <ele>605.7</ele>
        <time>2022-10-15T12:25:41.000Z</time>
      </trkpt>
      <trkpt lat="45.14698" lon="5.39192">
        <ele>606.1</ele>
        <time>2022-10-15T12:25:43.000Z</time>
      </trkpt>
      <trkpt lat="45.14701" lon="5.39194">
        <ele>606.5</ele>
        <time>2022-10-15T12:25:45.000Z</time>
      </trkpt>
      <trkpt lat="45.14703" lon="5.39197">
        <ele>607.1</ele>
        <time>2022-10-15T12:25:47.000Z</time>
      </trkpt>
      <trkpt lat="45.14704" lon="5.39198">
        <ele>607.3</ele>
        <time>2022-10-15T12:25:49.000Z</time>
      </trkpt>
      <trkpt lat="45.14706" lon="5.39199">
        <ele>607.6</ele>
        <time>2022-10-15T12:25:51.000Z</time>
      </trkpt>
      <trkpt lat="45.14709" lon="5.39201">
        <ele>608</ele>
        <time>2022-10-15T12:25:53.000Z</time>
      </trkpt>
      <trkpt lat="45.14711" lon="5.39202">
        <ele>608.3</ele>
        <time>2022-10-15T12:25:55.000Z</time>
      </trkpt>
      <trkpt lat="45.14713" lon="5.39204">
        <ele>608.8</ele>
        <time>2022-10-15T12:25:57.000Z</time>
      </trkpt>
      <trkpt lat="45.14715" lon="5.39206">
        <ele>609.2</ele>
        <time>2022-10-15T12:25:59.000Z</time>
      </trkpt>
      <trkpt lat="45.14717" lon="5.39206">
        <ele>609</ele>
        <time>2022-10-15T12:26:01.000Z</time>
      </trkpt>
      <trkpt lat="45.1472" lon="5.39207">
        <ele>609.3</ele>
        <time>2022-10-15T12:26:03.000Z</time>
      </trkpt>
      <trkpt lat="45.14722" lon="5.39207">
        <ele>609.1</ele>
        <time>2022-10-15T12:26:05.000Z</time>
      </trkpt>
      <trkpt lat="45.14725" lon="5.39208">
        <ele>609.5</ele>
        <time>2022-10-15T12:26:07.000Z</time>
      </trkpt>
      <trkpt lat="45.14727" lon="5.39211">
        <ele>610.2</ele>
        <time>2022-10-15T12:26:09.000Z</time>
      </trkpt>
      <trkpt lat="45.1473" lon="5.39213">
        <ele>610.9</ele>
        <time>2022-10-15T12:26:11.000Z</time>
      </trkpt>
      <trkpt lat="45.14733" lon="5.39214">
        <ele>611.4</ele>
        <time>2022-10-15T12:26:13.000Z</time>
      </trkpt>
      <trkpt lat="45.14736" lon="5.39215">
        <ele>611.7</ele>
        <time>2022-10-15T12:26:15.000Z</time>
      </trkpt>
      <trkpt lat="45.14738" lon="5.39216">
        <ele>612</ele>
        <time>2022-10-15T12:26:16.000Z</time>
      </trkpt>
      <trkpt lat="45.1474" lon="5.39216">
        <ele>612.1</ele>
        <time>2022-10-15T12:26:17.000Z</time>
      </trkpt>
      <trkpt lat="45.14742" lon="5.39217">
        <ele>612.3</ele>
        <time>2022-10-15T12:26:18.000Z</time>
      </trkpt>
      <trkpt lat="45.14743" lon="5.39218">
        <ele>612.5</ele>
        <time>2022-10-15T12:26:19.000Z</time>
      </trkpt>
      <trkpt lat="45.14747" lon="5.39219">
        <ele>612.9</ele>
        <time>2022-10-15T12:26:21.000Z</time>
      </trkpt>
      <trkpt lat="45.14749" lon="5.39219">
        <ele>613</ele>
        <time>2022-10-15T12:26:22.000Z</time>
      </trkpt>
      <trkpt lat="45.14751" lon="5.39219">
        <ele>613.1</ele>
        <time>2022-10-15T12:26:23.000Z</time>
      </trkpt>
      <trkpt lat="45.14754" lon="5.3922">
        <ele>613.5</ele>
        <time>2022-10-15T12:26:25.000Z</time>
      </trkpt>
      <trkpt lat="45.14757" lon="5.39221">
        <ele>613.9</ele>
        <time>2022-10-15T12:26:27.000Z</time>
      </trkpt>
      <trkpt lat="45.14759" lon="5.39222">
        <ele>614.6</ele>
        <time>2022-10-15T12:26:29.000Z</time>
      </trkpt>
      <trkpt lat="45.14761" lon="5.39223">
        <ele>615</ele>
        <time>2022-10-15T12:26:30.000Z</time>
      </trkpt>
      <trkpt lat="45.14763" lon="5.39224">
        <ele>615.5</ele>
        <time>2022-10-15T12:26:31.000Z</time>
      </trkpt>
      <trkpt lat="45.14766" lon="5.39226">
        <ele>616.3</ele>
        <time>2022-10-15T12:26:33.000Z</time>
      </trkpt>
      <trkpt lat="45.14768" lon="5.39226">
        <ele>616.5</ele>
        <time>2022-10-15T12:26:34.000Z</time>
      </trkpt>
      <trkpt lat="45.14771" lon="5.39227">
        <ele>616.8</ele>
        <time>2022-10-15T12:26:36.000Z</time>
      </trkpt>
      <trkpt lat="45.14774" lon="5.39228">
        <ele>617.2</ele>
        <time>2022-10-15T12:26:38.000Z</time>
      </trkpt>
      <trkpt lat="45.14776" lon="5.39229">
        <ele>617.8</ele>
        <time>2022-10-15T12:26:40.000Z</time>
      </trkpt>
      <trkpt lat="45.14779" lon="5.39229">
        <ele>618.1</ele>
        <time>2022-10-15T12:26:42.000Z</time>
      </trkpt>
      <trkpt lat="45.14782" lon="5.3923">
        <ele>618.6</ele>
        <time>2022-10-15T12:26:44.000Z</time>
      </trkpt>
      <trkpt lat="45.14785" lon="5.39231">
        <ele>619.1</ele>
        <time>2022-10-15T12:26:46.000Z</time>
      </trkpt>
      <trkpt lat="45.14788" lon="5.39233">
        <ele>619.8</ele>
        <time>2022-10-15T12:26:48.000Z</time>
      </trkpt>
      <trkpt lat="45.1479" lon="5.39234">
        <ele>620.2</ele>
        <time>2022-10-15T12:26:49.000Z</time>
      </trkpt>
      <trkpt lat="45.14792" lon="5.39234">
        <ele>620.5</ele>
        <time>2022-10-15T12:26:50.000Z</time>
      </trkpt>
      <trkpt lat="45.14794" lon="5.39234">
        <ele>620.5</ele>
        <time>2022-10-15T12:26:52.000Z</time>
      </trkpt>
      <trkpt lat="45.14796" lon="5.39234">
        <ele>620.7</ele>
        <time>2022-10-15T12:26:54.000Z</time>
      </trkpt>
      <trkpt lat="45.14799" lon="5.39234">
        <ele>620.8</ele>
        <time>2022-10-15T12:26:56.000Z</time>
      </trkpt>
      <trkpt lat="45.14801" lon="5.39235">
        <ele>621.3</ele>
        <time>2022-10-15T12:26:58.000Z</time>
      </trkpt>
      <trkpt lat="45.14804" lon="5.39235">
        <ele>621.6</ele>
        <time>2022-10-15T12:27:00.000Z</time>
      </trkpt>
      <trkpt lat="45.14806" lon="5.39235">
        <ele>621.8</ele>
        <time>2022-10-15T12:27:02.000Z</time>
      </trkpt>
      <trkpt lat="45.14809" lon="5.39236">
        <ele>622.1</ele>
        <time>2022-10-15T12:27:04.000Z</time>
      </trkpt>
      <trkpt lat="45.14811" lon="5.39236">
        <ele>622.2</ele>
        <time>2022-10-15T12:27:05.000Z</time>
      </trkpt>
      <trkpt lat="45.14814" lon="5.39236">
        <ele>622.4</ele>
        <time>2022-10-15T12:27:07.000Z</time>
      </trkpt>
      <trkpt lat="45.14817" lon="5.39236">
        <ele>622.6</ele>
        <time>2022-10-15T12:27:09.000Z</time>
      </trkpt>
      <trkpt lat="45.1482" lon="5.39238">
        <ele>623.2</ele>
        <time>2022-10-15T12:27:11.000Z</time>
      </trkpt>
      <trkpt lat="45.14823" lon="5.39239">
        <ele>623.6</ele>
        <time>2022-10-15T12:27:13.000Z</time>
      </trkpt>
      <trkpt lat="45.14825" lon="5.39239">
        <ele>623.9</ele>
        <time>2022-10-15T12:27:15.000Z</time>
      </trkpt>
      <trkpt lat="45.14828" lon="5.3924">
        <ele>624.3</ele>
        <time>2022-10-15T12:27:17.000Z</time>
      </trkpt>
      <trkpt lat="45.14832" lon="5.39242">
        <ele>624.8</ele>
        <time>2022-10-15T12:27:19.000Z</time>
      </trkpt>
      <trkpt lat="45.14835" lon="5.39242">
        <ele>625</ele>
        <time>2022-10-15T12:27:21.000Z</time>
      </trkpt>
      <trkpt lat="45.14838" lon="5.39244">
        <ele>625.3</ele>
        <time>2022-10-15T12:27:23.000Z</time>
      </trkpt>
      <trkpt lat="45.14841" lon="5.39245">
        <ele>625.5</ele>
        <time>2022-10-15T12:27:25.000Z</time>
      </trkpt>
      <trkpt lat="45.14843" lon="5.39246">
        <ele>625.7</ele>
        <time>2022-10-15T12:27:27.000Z</time>
      </trkpt>
      <trkpt lat="45.14846" lon="5.39248">
        <ele>626</ele>
        <time>2022-10-15T12:27:29.000Z</time>
      </trkpt>
      <trkpt lat="45.14848" lon="5.39249">
        <ele>626.2</ele>
        <time>2022-10-15T12:27:31.000Z</time>
      </trkpt>
      <trkpt lat="45.14851" lon="5.39251">
        <ele>626.5</ele>
        <time>2022-10-15T12:27:33.000Z</time>
      </trkpt>
      <trkpt lat="45.14853" lon="5.39252">
        <ele>626.7</ele>
        <time>2022-10-15T12:27:35.000Z</time>
      </trkpt>
      <trkpt lat="45.14855" lon="5.39254">
        <ele>627.2</ele>
        <time>2022-10-15T12:27:37.000Z</time>
      </trkpt>
      <trkpt lat="45.14857" lon="5.39257">
        <ele>627.6</ele>
        <time>2022-10-15T12:27:39.000Z</time>
      </trkpt>
      <trkpt lat="45.1486" lon="5.39258">
        <ele>627.9</ele>
        <time>2022-10-15T12:27:41.000Z</time>
      </trkpt>
      <trkpt lat="45.14862" lon="5.39259">
        <ele>627.9</ele>
        <time>2022-10-15T12:27:43.000Z</time>
      </trkpt>
      <trkpt lat="45.14865" lon="5.39261">
        <ele>627.8</ele>
        <time>2022-10-15T12:27:45.000Z</time>
      </trkpt>
      <trkpt lat="45.14867" lon="5.39262">
        <ele>627.8</ele>
        <time>2022-10-15T12:27:47.000Z</time>
      </trkpt>
      <trkpt lat="45.14869" lon="5.39263">
        <ele>627.8</ele>
        <time>2022-10-15T12:27:49.000Z</time>
      </trkpt>
      <trkpt lat="45.14871" lon="5.39265">
        <ele>628.1</ele>
        <time>2022-10-15T12:27:51.000Z</time>
      </trkpt>
      <trkpt lat="45.14873" lon="5.39267">
        <ele>628.1</ele>
        <time>2022-10-15T12:27:53.000Z</time>
      </trkpt>
      <trkpt lat="45.14875" lon="5.39268">
        <ele>628.1</ele>
        <time>2022-10-15T12:27:55.000Z</time>
      </trkpt>
      <trkpt lat="45.14878" lon="5.39271">
        <ele>628.2</ele>
        <time>2022-10-15T12:27:57.000Z</time>
      </trkpt>
      <trkpt lat="45.1488" lon="5.39273">
        <ele>628.2</ele>
        <time>2022-10-15T12:27:59.000Z</time>
      </trkpt>
      <trkpt lat="45.14883" lon="5.39274">
        <ele>628.2</ele>
        <time>2022-10-15T12:28:01.000Z</time>
      </trkpt>
      <trkpt lat="45.14885" lon="5.39275">
        <ele>628.1</ele>
        <time>2022-10-15T12:28:03.000Z</time>
      </trkpt>
      <trkpt lat="45.14887" lon="5.39277">
        <ele>628.1</ele>
        <time>2022-10-15T12:28:05.000Z</time>
      </trkpt>
      <trkpt lat="45.1489" lon="5.39279">
        <ele>628.1</ele>
        <time>2022-10-15T12:28:07.000Z</time>
      </trkpt>
      <trkpt lat="45.14892" lon="5.3928">
        <ele>627.6</ele>
        <time>2022-10-15T12:28:09.000Z</time>
      </trkpt>
      <trkpt lat="45.14894" lon="5.39282">
        <ele>627.7</ele>
        <time>2022-10-15T12:28:11.000Z</time>
      </trkpt>
      <trkpt lat="45.14896" lon="5.39285">
        <ele>627.7</ele>
        <time>2022-10-15T12:28:13.000Z</time>
      </trkpt>
      <trkpt lat="45.14898" lon="5.39288">
        <ele>628</ele>
        <time>2022-10-15T12:28:15.000Z</time>
      </trkpt>
      <trkpt lat="45.14899" lon="5.3929">
        <ele>628.1</ele>
        <time>2022-10-15T12:28:16.000Z</time>
      </trkpt>
      <trkpt lat="45.14902" lon="5.39293">
        <ele>627.9</ele>
        <time>2022-10-15T12:28:18.000Z</time>
      </trkpt>
      <trkpt lat="45.14905" lon="5.39296">
        <ele>627.9</ele>
        <time>2022-10-15T12:28:20.000Z</time>
      </trkpt>
      <trkpt lat="45.14907" lon="5.39299">
        <ele>628</ele>
        <time>2022-10-15T12:28:22.000Z</time>
      </trkpt>
      <trkpt lat="45.14909" lon="5.39302">
        <ele>628.1</ele>
        <time>2022-10-15T12:28:24.000Z</time>
      </trkpt>
      <trkpt lat="45.14911" lon="5.39305">
        <ele>628.1</ele>
        <time>2022-10-15T12:28:26.000Z</time>
      </trkpt>
      <trkpt lat="45.14913" lon="5.39308">
        <ele>628.1</ele>
        <time>2022-10-15T12:28:28.000Z</time>
      </trkpt>
      <trkpt lat="45.14915" lon="5.3931">
        <ele>628</ele>
        <time>2022-10-15T12:28:30.000Z</time>
      </trkpt>
      <trkpt lat="45.14918" lon="5.39315">
        <ele>628.1</ele>
        <time>2022-10-15T12:28:32.000Z</time>
      </trkpt>
      <trkpt lat="45.14919" lon="5.39318">
        <ele>628.3</ele>
        <time>2022-10-15T12:28:34.000Z</time>
      </trkpt>
      <trkpt lat="45.14919" lon="5.39322">
        <ele>628.7</ele>
        <time>2022-10-15T12:28:36.000Z</time>
      </trkpt>
      <trkpt lat="45.1492" lon="5.39325">
        <ele>628.9</ele>
        <time>2022-10-15T12:28:38.000Z</time>
      </trkpt>
      <trkpt lat="45.1492" lon="5.39329">
        <ele>629.5</ele>
        <time>2022-10-15T12:28:40.000Z</time>
      </trkpt>
      <trkpt lat="45.1492" lon="5.39331">
        <ele>630</ele>
        <time>2022-10-15T12:28:42.000Z</time>
      </trkpt>
      <trkpt lat="45.1492" lon="5.39334">
        <ele>630.4</ele>
        <time>2022-10-15T12:28:44.000Z</time>
      </trkpt>
      <trkpt lat="45.1492" lon="5.39338">
        <ele>631</ele>
        <time>2022-10-15T12:28:46.000Z</time>
      </trkpt>
      <trkpt lat="45.14921" lon="5.39341">
        <ele>631.5</ele>
        <time>2022-10-15T12:28:48.000Z</time>
      </trkpt>
      <trkpt lat="45.14921" lon="5.39345">
        <ele>632.1</ele>
        <time>2022-10-15T12:28:50.000Z</time>
      </trkpt>
      <trkpt lat="45.1492" lon="5.39349">
        <ele>633</ele>
        <time>2022-10-15T12:28:52.000Z</time>
      </trkpt>
      <trkpt lat="45.1492" lon="5.39353">
        <ele>633.8</ele>
        <time>2022-10-15T12:28:54.000Z</time>
      </trkpt>
      <trkpt lat="45.1492" lon="5.39357">
        <ele>634.7</ele>
        <time>2022-10-15T12:28:56.000Z</time>
      </trkpt>
      <trkpt lat="45.1492" lon="5.39361">
        <ele>635.4</ele>
        <time>2022-10-15T12:28:58.000Z</time>
      </trkpt>
      <trkpt lat="45.14919" lon="5.39365">
        <ele>636.5</ele>
        <time>2022-10-15T12:29:00.000Z</time>
      </trkpt>
      <trkpt lat="45.14919" lon="5.39368">
        <ele>637.3</ele>
        <time>2022-10-15T12:29:02.000Z</time>
      </trkpt>
      <trkpt lat="45.14918" lon="5.39371">
        <ele>638.1</ele>
        <time>2022-10-15T12:29:04.000Z</time>
      </trkpt>
      <trkpt lat="45.14917" lon="5.39374">
        <ele>639.1</ele>
        <time>2022-10-15T12:29:06.000Z</time>
      </trkpt>
      <trkpt lat="45.14917" lon="5.39377">
        <ele>639.9</ele>
        <time>2022-10-15T12:29:08.000Z</time>
      </trkpt>
      <trkpt lat="45.14917" lon="5.3938">
        <ele>640.6</ele>
        <time>2022-10-15T12:29:10.000Z</time>
      </trkpt>
      <trkpt lat="45.14918" lon="5.39384">
        <ele>641.4</ele>
        <time>2022-10-15T12:29:12.000Z</time>
      </trkpt>
      <trkpt lat="45.1492" lon="5.39388">
        <ele>642</ele>
        <time>2022-10-15T12:29:14.000Z</time>
      </trkpt>
      <trkpt lat="45.14922" lon="5.39391">
        <ele>642.4</ele>
        <time>2022-10-15T12:29:16.000Z</time>
      </trkpt>
      <trkpt lat="45.14923" lon="5.39393">
        <ele>642.6</ele>
        <time>2022-10-15T12:29:17.000Z</time>
      </trkpt>
      <trkpt lat="45.14925" lon="5.39394">
        <ele>642.6</ele>
        <time>2022-10-15T12:29:18.000Z</time>
      </trkpt>
      <trkpt lat="45.14927" lon="5.39395">
        <ele>642.7</ele>
        <time>2022-10-15T12:29:19.000Z</time>
      </trkpt>
      <trkpt lat="45.14929" lon="5.39398">
        <ele>643</ele>
        <time>2022-10-15T12:29:21.000Z</time>
      </trkpt>
      <trkpt lat="45.14931" lon="5.39401">
        <ele>643.2</ele>
        <time>2022-10-15T12:29:23.000Z</time>
      </trkpt>
      <trkpt lat="45.14934" lon="5.39402">
        <ele>642.8</ele>
        <time>2022-10-15T12:29:25.000Z</time>
      </trkpt>
      <trkpt lat="45.14937" lon="5.39403">
        <ele>642.5</ele>
        <time>2022-10-15T12:29:27.000Z</time>
      </trkpt>
      <trkpt lat="45.1494" lon="5.39403">
        <ele>642.1</ele>
        <time>2022-10-15T12:29:29.000Z</time>
      </trkpt>
      <trkpt lat="45.14942" lon="5.39404">
        <ele>641.9</ele>
        <time>2022-10-15T12:29:30.000Z</time>
      </trkpt>
      <trkpt lat="45.14945" lon="5.39403">
        <ele>641.1</ele>
        <time>2022-10-15T12:29:32.000Z</time>
      </trkpt>
      <trkpt lat="45.14947" lon="5.39405">
        <ele>641.3</ele>
        <time>2022-10-15T12:29:34.000Z</time>
      </trkpt>
      <trkpt lat="45.1495" lon="5.39406">
        <ele>641.1</ele>
        <time>2022-10-15T12:29:36.000Z</time>
      </trkpt>
      <trkpt lat="45.14953" lon="5.39408">
        <ele>641</ele>
        <time>2022-10-15T12:29:38.000Z</time>
      </trkpt>
      <trkpt lat="45.14955" lon="5.39409">
        <ele>641</ele>
        <time>2022-10-15T12:29:40.000Z</time>
      </trkpt>
      <trkpt lat="45.14957" lon="5.3941">
        <ele>640.7</ele>
        <time>2022-10-15T12:29:42.000Z</time>
      </trkpt>
      <trkpt lat="45.14959" lon="5.3941">
        <ele>640.4</ele>
        <time>2022-10-15T12:29:44.000Z</time>
      </trkpt>
      <trkpt lat="45.14961" lon="5.3941">
        <ele>640.1</ele>
        <time>2022-10-15T12:29:46.000Z</time>
      </trkpt>
      <trkpt lat="45.14964" lon="5.39412">
        <ele>640</ele>
        <time>2022-10-15T12:29:48.000Z</time>
      </trkpt>
      <trkpt lat="45.14966" lon="5.39413">
        <ele>640</ele>
        <time>2022-10-15T12:29:50.000Z</time>
      </trkpt>
      <trkpt lat="45.14969" lon="5.39414">
        <ele>639.8</ele>
        <time>2022-10-15T12:29:52.000Z</time>
      </trkpt>
      <trkpt lat="45.14972" lon="5.39414">
        <ele>639.3</ele>
        <time>2022-10-15T12:29:54.000Z</time>
      </trkpt>
      <trkpt lat="45.14974" lon="5.39416">
        <ele>639.6</ele>
        <time>2022-10-15T12:29:56.000Z</time>
      </trkpt>
      <trkpt lat="45.14976" lon="5.39419">
        <ele>640.2</ele>
        <time>2022-10-15T12:29:58.000Z</time>
      </trkpt>
      <trkpt lat="45.14979" lon="5.39421">
        <ele>640.4</ele>
        <time>2022-10-15T12:30:00.000Z</time>
      </trkpt>
      <trkpt lat="45.14981" lon="5.39422">
        <ele>640.7</ele>
        <time>2022-10-15T12:30:02.000Z</time>
      </trkpt>
      <trkpt lat="45.14983" lon="5.39424">
        <ele>640.9</ele>
        <time>2022-10-15T12:30:04.000Z</time>
      </trkpt>
      <trkpt lat="45.14986" lon="5.39426">
        <ele>641</ele>
        <time>2022-10-15T12:30:06.000Z</time>
      </trkpt>
      <trkpt lat="45.14989" lon="5.39428">
        <ele>641.4</ele>
        <time>2022-10-15T12:30:08.000Z</time>
      </trkpt>
      <trkpt lat="45.14991" lon="5.3943">
        <ele>641.8</ele>
        <time>2022-10-15T12:30:11.000Z</time>
      </trkpt>
      <trkpt lat="45.14993" lon="5.39432">
        <ele>642</ele>
        <time>2022-10-15T12:30:13.000Z</time>
      </trkpt>
      <trkpt lat="45.14995" lon="5.39434">
        <ele>642.3</ele>
        <time>2022-10-15T12:30:15.000Z</time>
      </trkpt>
      <trkpt lat="45.14997" lon="5.39436">
        <ele>642.7</ele>
        <time>2022-10-15T12:30:17.000Z</time>
      </trkpt>
      <trkpt lat="45.15" lon="5.39438">
        <ele>642.9</ele>
        <time>2022-10-15T12:30:19.000Z</time>
      </trkpt>
      <trkpt lat="45.15002" lon="5.3944">
        <ele>643.5</ele>
        <time>2022-10-15T12:30:21.000Z</time>
      </trkpt>
      <trkpt lat="45.15004" lon="5.39444">
        <ele>644.4</ele>
        <time>2022-10-15T12:30:23.000Z</time>
      </trkpt>
      <trkpt lat="45.15006" lon="5.39447">
        <ele>645.4</ele>
        <time>2022-10-15T12:30:25.000Z</time>
      </trkpt>
      <trkpt lat="45.15008" lon="5.3945">
        <ele>646.5</ele>
        <time>2022-10-15T12:30:27.000Z</time>
      </trkpt>
      <trkpt lat="45.1501" lon="5.39452">
        <ele>646.9</ele>
        <time>2022-10-15T12:30:28.000Z</time>
      </trkpt>
      <trkpt lat="45.15012" lon="5.39456">
        <ele>648</ele>
        <time>2022-10-15T12:30:30.000Z</time>
      </trkpt>
      <trkpt lat="45.15014" lon="5.39459">
        <ele>649.1</ele>
        <time>2022-10-15T12:30:32.000Z</time>
      </trkpt>
      <trkpt lat="45.15015" lon="5.39463">
        <ele>650.2</ele>
        <time>2022-10-15T12:30:34.000Z</time>
      </trkpt>
      <trkpt lat="45.15017" lon="5.39466">
        <ele>651.1</ele>
        <time>2022-10-15T12:30:36.000Z</time>
      </trkpt>
      <trkpt lat="45.1502" lon="5.3947">
        <ele>652</ele>
        <time>2022-10-15T12:30:38.000Z</time>
      </trkpt>
      <trkpt lat="45.15022" lon="5.39472">
        <ele>652.7</ele>
        <time>2022-10-15T12:30:40.000Z</time>
      </trkpt>
      <trkpt lat="45.15024" lon="5.39475">
        <ele>653.3</ele>
        <time>2022-10-15T12:30:42.000Z</time>
      </trkpt>
      <trkpt lat="45.15026" lon="5.39478">
        <ele>654.1</ele>
        <time>2022-10-15T12:30:44.000Z</time>
      </trkpt>
      <trkpt lat="45.15029" lon="5.39481">
        <ele>654.9</ele>
        <time>2022-10-15T12:30:46.000Z</time>
      </trkpt>
      <trkpt lat="45.15031" lon="5.39482">
        <ele>655.1</ele>
        <time>2022-10-15T12:30:47.000Z</time>
      </trkpt>
      <trkpt lat="45.15033" lon="5.39484">
        <ele>655.6</ele>
        <time>2022-10-15T12:30:49.000Z</time>
      </trkpt>
      <trkpt lat="45.15037" lon="5.39485">
        <ele>655.7</ele>
        <time>2022-10-15T12:30:51.000Z</time>
      </trkpt>
      <trkpt lat="45.15039" lon="5.39486">
        <ele>655.8</ele>
        <time>2022-10-15T12:30:52.000Z</time>
      </trkpt>
      <trkpt lat="45.15041" lon="5.39486">
        <ele>655.6</ele>
        <time>2022-10-15T12:30:53.000Z</time>
      </trkpt>
      <trkpt lat="45.15042" lon="5.39485">
        <ele>655.4</ele>
        <time>2022-10-15T12:30:54.000Z</time>
      </trkpt>
      <trkpt lat="45.15046" lon="5.39485">
        <ele>655.1</ele>
        <time>2022-10-15T12:30:56.000Z</time>
      </trkpt>
      <trkpt lat="45.15048" lon="5.39485">
        <ele>655</ele>
        <time>2022-10-15T12:30:57.000Z</time>
      </trkpt>
      <trkpt lat="45.15051" lon="5.39484">
        <ele>654.7</ele>
        <time>2022-10-15T12:30:59.000Z</time>
      </trkpt>
      <trkpt lat="45.15053" lon="5.39484">
        <ele>654.5</ele>
        <time>2022-10-15T12:31:00.000Z</time>
      </trkpt>
      <trkpt lat="45.15055" lon="5.39484">
        <ele>654.4</ele>
        <time>2022-10-15T12:31:01.000Z</time>
      </trkpt>
      <trkpt lat="45.15057" lon="5.39484">
        <ele>654.3</ele>
        <time>2022-10-15T12:31:02.000Z</time>
      </trkpt>
      <trkpt lat="45.1506" lon="5.39484">
        <ele>654.2</ele>
        <time>2022-10-15T12:31:03.000Z</time>
      </trkpt>
      <trkpt lat="45.15063" lon="5.39483">
        <ele>654.1</ele>
        <time>2022-10-15T12:31:05.000Z</time>
      </trkpt>
      <trkpt lat="45.15065" lon="5.39483">
        <ele>654</ele>
        <time>2022-10-15T12:31:06.000Z</time>
      </trkpt>
      <trkpt lat="45.15067" lon="5.39483">
        <ele>653.9</ele>
        <time>2022-10-15T12:31:07.000Z</time>
      </trkpt>
      <trkpt lat="45.15069" lon="5.39483">
        <ele>653.9</ele>
        <time>2022-10-15T12:31:08.000Z</time>
      </trkpt>
      <trkpt lat="45.15071" lon="5.39483">
        <ele>653.8</ele>
        <time>2022-10-15T12:31:09.000Z</time>
      </trkpt>
      <trkpt lat="45.15073" lon="5.39483">
        <ele>653.7</ele>
        <time>2022-10-15T12:31:10.000Z</time>
      </trkpt>
      <trkpt lat="45.15076" lon="5.39482">
        <ele>653.6</ele>
        <time>2022-10-15T12:31:12.000Z</time>
      </trkpt>
      <trkpt lat="45.15079" lon="5.39483">
        <ele>653.9</ele>
        <time>2022-10-15T12:31:14.000Z</time>
      </trkpt>
      <trkpt lat="45.15081" lon="5.39485">
        <ele>654.2</ele>
        <time>2022-10-15T12:31:16.000Z</time>
      </trkpt>
      <trkpt lat="45.15084" lon="5.39487">
        <ele>654.6</ele>
        <time>2022-10-15T12:31:18.000Z</time>
      </trkpt>
      <trkpt lat="45.15087" lon="5.39488">
        <ele>654.8</ele>
        <time>2022-10-15T12:31:20.000Z</time>
      </trkpt>
      <trkpt lat="45.15091" lon="5.3949">
        <ele>655</ele>
        <time>2022-10-15T12:31:22.000Z</time>
      </trkpt>
      <trkpt lat="45.15093" lon="5.3949">
        <ele>655</ele>
        <time>2022-10-15T12:31:23.000Z</time>
      </trkpt>
      <trkpt lat="45.15095" lon="5.39491">
        <ele>655</ele>
        <time>2022-10-15T12:31:24.000Z</time>
      </trkpt>
      <trkpt lat="45.15096" lon="5.39491">
        <ele>654.9</ele>
        <time>2022-10-15T12:31:25.000Z</time>
      </trkpt>
      <trkpt lat="45.15099" lon="5.39492">
        <ele>655</ele>
        <time>2022-10-15T12:31:27.000Z</time>
      </trkpt>
      <trkpt lat="45.15101" lon="5.39493">
        <ele>655.1</ele>
        <time>2022-10-15T12:31:28.000Z</time>
      </trkpt>
      <trkpt lat="45.15104" lon="5.39496">
        <ele>655.5</ele>
        <time>2022-10-15T12:31:30.000Z</time>
      </trkpt>
      <trkpt lat="45.15106" lon="5.39497">
        <ele>655.8</ele>
        <time>2022-10-15T12:31:31.000Z</time>
      </trkpt>
      <trkpt lat="45.15107" lon="5.39499">
        <ele>656</ele>
        <time>2022-10-15T12:31:32.000Z</time>
      </trkpt>
      <trkpt lat="45.15109" lon="5.395">
        <ele>656.2</ele>
        <time>2022-10-15T12:31:33.000Z</time>
      </trkpt>
      <trkpt lat="45.15111" lon="5.39502">
        <ele>656.5</ele>
        <time>2022-10-15T12:31:34.000Z</time>
      </trkpt>
      <trkpt lat="45.15112" lon="5.39504">
        <ele>656.6</ele>
        <time>2022-10-15T12:31:35.000Z</time>
      </trkpt>
      <trkpt lat="45.15116" lon="5.39506">
        <ele>656.6</ele>
        <time>2022-10-15T12:31:37.000Z</time>
      </trkpt>
      <trkpt lat="45.15117" lon="5.39507">
        <ele>656.5</ele>
        <time>2022-10-15T12:31:38.000Z</time>
      </trkpt>
      <trkpt lat="45.1512" lon="5.39509">
        <ele>656.6</ele>
        <time>2022-10-15T12:31:40.000Z</time>
      </trkpt>
      <trkpt lat="45.15122" lon="5.39513">
        <ele>656.8</ele>
        <time>2022-10-15T12:31:42.000Z</time>
      </trkpt>
      <trkpt lat="45.15124" lon="5.39515">
        <ele>657</ele>
        <time>2022-10-15T12:31:43.000Z</time>
      </trkpt>
      <trkpt lat="45.15125" lon="5.39519">
        <ele>657.4</ele>
        <time>2022-10-15T12:31:45.000Z</time>
      </trkpt>
      <trkpt lat="45.15126" lon="5.39523">
        <ele>657.8</ele>
        <time>2022-10-15T12:31:47.000Z</time>
      </trkpt>
      <trkpt lat="45.15129" lon="5.39526">
        <ele>657.8</ele>
        <time>2022-10-15T12:31:49.000Z</time>
      </trkpt>
      <trkpt lat="45.15131" lon="5.39529">
        <ele>658</ele>
        <time>2022-10-15T12:31:51.000Z</time>
      </trkpt>
      <trkpt lat="45.15132" lon="5.39531">
        <ele>658.2</ele>
        <time>2022-10-15T12:31:52.000Z</time>
      </trkpt>
      <trkpt lat="45.15133" lon="5.39536">
        <ele>658.6</ele>
        <time>2022-10-15T12:31:54.000Z</time>
      </trkpt>
      <trkpt lat="45.15134" lon="5.39538">
        <ele>658.9</ele>
        <time>2022-10-15T12:31:55.000Z</time>
      </trkpt>
      <trkpt lat="45.15135" lon="5.39543">
        <ele>659.5</ele>
        <time>2022-10-15T12:31:57.000Z</time>
      </trkpt>
      <trkpt lat="45.15137" lon="5.39548">
        <ele>660</ele>
        <time>2022-10-15T12:31:59.000Z</time>
      </trkpt>
      <trkpt lat="45.15138" lon="5.3955">
        <ele>660.2</ele>
        <time>2022-10-15T12:32:00.000Z</time>
      </trkpt>
      <trkpt lat="45.15139" lon="5.39554">
        <ele>660.6</ele>
        <time>2022-10-15T12:32:02.000Z</time>
      </trkpt>
      <trkpt lat="45.15141" lon="5.39558">
        <ele>660.9</ele>
        <time>2022-10-15T12:32:04.000Z</time>
      </trkpt>
      <trkpt lat="45.15141" lon="5.39562">
        <ele>661.8</ele>
        <time>2022-10-15T12:32:06.000Z</time>
      </trkpt>
      <trkpt lat="45.15142" lon="5.39567">
        <ele>662.6</ele>
        <time>2022-10-15T12:32:08.000Z</time>
      </trkpt>
      <trkpt lat="45.15143" lon="5.39571">
        <ele>663.4</ele>
        <time>2022-10-15T12:32:10.000Z</time>
      </trkpt>
      <trkpt lat="45.15144" lon="5.39575">
        <ele>664.1</ele>
        <time>2022-10-15T12:32:12.000Z</time>
      </trkpt>
      <trkpt lat="45.15145" lon="5.39579">
        <ele>664.8</ele>
        <time>2022-10-15T12:32:14.000Z</time>
      </trkpt>
      <trkpt lat="45.15146" lon="5.39583">
        <ele>665.5</ele>
        <time>2022-10-15T12:32:16.000Z</time>
      </trkpt>
      <trkpt lat="45.15147" lon="5.39587">
        <ele>666.2</ele>
        <time>2022-10-15T12:32:18.000Z</time>
      </trkpt>
      <trkpt lat="45.15148" lon="5.3959">
        <ele>666.8</ele>
        <time>2022-10-15T12:32:20.000Z</time>
      </trkpt>
      <trkpt lat="45.15149" lon="5.39593">
        <ele>667.3</ele>
        <time>2022-10-15T12:32:22.000Z</time>
      </trkpt>
      <trkpt lat="45.15152" lon="5.39596">
        <ele>667.6</ele>
        <time>2022-10-15T12:32:24.000Z</time>
      </trkpt>
      <trkpt lat="45.15154" lon="5.39598">
        <ele>667.8</ele>
        <time>2022-10-15T12:32:26.000Z</time>
      </trkpt>
      <trkpt lat="45.15156" lon="5.39601">
        <ele>668</ele>
        <time>2022-10-15T12:32:28.000Z</time>
      </trkpt>
      <trkpt lat="45.15159" lon="5.39603">
        <ele>668.1</ele>
        <time>2022-10-15T12:32:30.000Z</time>
      </trkpt>
      <trkpt lat="45.15161" lon="5.39604">
        <ele>668.1</ele>
        <time>2022-10-15T12:32:31.000Z</time>
      </trkpt>
      <trkpt lat="45.15164" lon="5.39606">
        <ele>668.1</ele>
        <time>2022-10-15T12:32:33.000Z</time>
      </trkpt>
      <trkpt lat="45.15167" lon="5.39608">
        <ele>667.9</ele>
        <time>2022-10-15T12:32:35.000Z</time>
      </trkpt>
      <trkpt lat="45.1517" lon="5.39609">
        <ele>667.7</ele>
        <time>2022-10-15T12:32:37.000Z</time>
      </trkpt>
      <trkpt lat="45.15173" lon="5.39609">
        <ele>667.5</ele>
        <time>2022-10-15T12:32:39.000Z</time>
      </trkpt>
      <trkpt lat="45.15175" lon="5.3961">
        <ele>667.4</ele>
        <time>2022-10-15T12:32:41.000Z</time>
      </trkpt>
      <trkpt lat="45.15178" lon="5.39612">
        <ele>667.5</ele>
        <time>2022-10-15T12:32:43.000Z</time>
      </trkpt>
      <trkpt lat="45.1518" lon="5.39611">
        <ele>667.2</ele>
        <time>2022-10-15T12:32:44.000Z</time>
      </trkpt>
      <trkpt lat="45.15182" lon="5.39611">
        <ele>666.6</ele>
        <time>2022-10-15T12:32:46.000Z</time>
      </trkpt>
      <trkpt lat="45.15184" lon="5.39612">
        <ele>666.7</ele>
        <time>2022-10-15T12:32:48.000Z</time>
      </trkpt>
      <trkpt lat="45.15187" lon="5.39614">
        <ele>666.9</ele>
        <time>2022-10-15T12:32:50.000Z</time>
      </trkpt>
      <trkpt lat="45.15188" lon="5.39615">
        <ele>667</ele>
        <time>2022-10-15T12:32:51.000Z</time>
      </trkpt>
      <trkpt lat="45.15191" lon="5.39617">
        <ele>667.4</ele>
        <time>2022-10-15T12:32:53.000Z</time>
      </trkpt>
      <trkpt lat="45.15193" lon="5.3962">
        <ele>668.2</ele>
        <time>2022-10-15T12:32:55.000Z</time>
      </trkpt>
      <trkpt lat="45.15195" lon="5.39621">
        <ele>668.2</ele>
        <time>2022-10-15T12:32:57.000Z</time>
      </trkpt>
      <trkpt lat="45.15198" lon="5.39623">
        <ele>668.5</ele>
        <time>2022-10-15T12:32:59.000Z</time>
      </trkpt>
      <trkpt lat="45.152" lon="5.39624">
        <ele>668.7</ele>
        <time>2022-10-15T12:33:01.000Z</time>
      </trkpt>
      <trkpt lat="45.15203" lon="5.39625">
        <ele>668.8</ele>
        <time>2022-10-15T12:33:03.000Z</time>
      </trkpt>
      <trkpt lat="45.15205" lon="5.39627">
        <ele>669.1</ele>
        <time>2022-10-15T12:33:05.000Z</time>
      </trkpt>
      <trkpt lat="45.15208" lon="5.39627">
        <ele>669</ele>
        <time>2022-10-15T12:33:07.000Z</time>
      </trkpt>
      <trkpt lat="45.15211" lon="5.39627">
        <ele>668.8</ele>
        <time>2022-10-15T12:33:09.000Z</time>
      </trkpt>
      <trkpt lat="45.15214" lon="5.39628">
        <ele>668.9</ele>
        <time>2022-10-15T12:33:11.000Z</time>
      </trkpt>
      <trkpt lat="45.15216" lon="5.39631">
        <ele>669.5</ele>
        <time>2022-10-15T12:33:13.000Z</time>
      </trkpt>
      <trkpt lat="45.15219" lon="5.39633">
        <ele>670</ele>
        <time>2022-10-15T12:33:15.000Z</time>
      </trkpt>
      <trkpt lat="45.15222" lon="5.39635">
        <ele>670.4</ele>
        <time>2022-10-15T12:33:17.000Z</time>
      </trkpt>
      <trkpt lat="45.15225" lon="5.39635">
        <ele>670.5</ele>
        <time>2022-10-15T12:33:19.000Z</time>
      </trkpt>
      <trkpt lat="45.15228" lon="5.39636">
        <ele>670.6</ele>
        <time>2022-10-15T12:33:21.000Z</time>
      </trkpt>
      <trkpt lat="45.15231" lon="5.39637">
        <ele>670.7</ele>
        <time>2022-10-15T12:33:23.000Z</time>
      </trkpt>
      <trkpt lat="45.15233" lon="5.39639">
        <ele>671.2</ele>
        <time>2022-10-15T12:33:25.000Z</time>
      </trkpt>
      <trkpt lat="45.15235" lon="5.3964">
        <ele>671.4</ele>
        <time>2022-10-15T12:33:27.000Z</time>
      </trkpt>
      <trkpt lat="45.15237" lon="5.3964">
        <ele>671.4</ele>
        <time>2022-10-15T12:33:28.000Z</time>
      </trkpt>
      <trkpt lat="45.15239" lon="5.3964">
        <ele>671.1</ele>
        <time>2022-10-15T12:33:29.000Z</time>
      </trkpt>
      <trkpt lat="45.15242" lon="5.39641">
        <ele>671.3</ele>
        <time>2022-10-15T12:33:31.000Z</time>
      </trkpt>
      <trkpt lat="45.15245" lon="5.39643">
        <ele>671.6</ele>
        <time>2022-10-15T12:33:33.000Z</time>
      </trkpt>
      <trkpt lat="45.15248" lon="5.39644">
        <ele>671.7</ele>
        <time>2022-10-15T12:33:35.000Z</time>
      </trkpt>
      <trkpt lat="45.1525" lon="5.39645">
        <ele>671.9</ele>
        <time>2022-10-15T12:33:37.000Z</time>
      </trkpt>
      <trkpt lat="45.15253" lon="5.39647">
        <ele>672.6</ele>
        <time>2022-10-15T12:33:39.000Z</time>
      </trkpt>
      <trkpt lat="45.15256" lon="5.39649">
        <ele>673.3</ele>
        <time>2022-10-15T12:33:41.000Z</time>
      </trkpt>
      <trkpt lat="45.15259" lon="5.39651">
        <ele>673.9</ele>
        <time>2022-10-15T12:33:43.000Z</time>
      </trkpt>
      <trkpt lat="45.15261" lon="5.39653">
        <ele>674.4</ele>
        <time>2022-10-15T12:33:45.000Z</time>
      </trkpt>
      <trkpt lat="45.15265" lon="5.39654">
        <ele>674.7</ele>
        <time>2022-10-15T12:33:47.000Z</time>
      </trkpt>
      <trkpt lat="45.15267" lon="5.39654">
        <ele>674.8</ele>
        <time>2022-10-15T12:33:49.000Z</time>
      </trkpt>
      <trkpt lat="45.15269" lon="5.39654">
        <ele>674.8</ele>
        <time>2022-10-15T12:33:51.000Z</time>
      </trkpt>
      <trkpt lat="45.15272" lon="5.39655">
        <ele>675.2</ele>
        <time>2022-10-15T12:33:53.000Z</time>
      </trkpt>
      <trkpt lat="45.15274" lon="5.39656">
        <ele>675.6</ele>
        <time>2022-10-15T12:33:55.000Z</time>
      </trkpt>
      <trkpt lat="45.15277" lon="5.39657">
        <ele>675.9</ele>
        <time>2022-10-15T12:33:57.000Z</time>
      </trkpt>
      <trkpt lat="45.15279" lon="5.39658">
        <ele>676.3</ele>
        <time>2022-10-15T12:33:59.000Z</time>
      </trkpt>
      <trkpt lat="45.15281" lon="5.39661">
        <ele>677.1</ele>
        <time>2022-10-15T12:34:01.000Z</time>
      </trkpt>
      <trkpt lat="45.15285" lon="5.39662">
        <ele>677.7</ele>
        <time>2022-10-15T12:34:03.000Z</time>
      </trkpt>
      <trkpt lat="45.15288" lon="5.39663">
        <ele>678.2</ele>
        <time>2022-10-15T12:34:05.000Z</time>
      </trkpt>
      <trkpt lat="45.15291" lon="5.39663">
        <ele>678.3</ele>
        <time>2022-10-15T12:34:07.000Z</time>
      </trkpt>
      <trkpt lat="45.15293" lon="5.39664">
        <ele>678.7</ele>
        <time>2022-10-15T12:34:09.000Z</time>
      </trkpt>
      <trkpt lat="45.15295" lon="5.39666">
        <ele>679.5</ele>
        <time>2022-10-15T12:34:11.000Z</time>
      </trkpt>
      <trkpt lat="45.15298" lon="5.39668">
        <ele>680.1</ele>
        <time>2022-10-15T12:34:13.000Z</time>
      </trkpt>
      <trkpt lat="45.15301" lon="5.3967">
        <ele>680.7</ele>
        <time>2022-10-15T12:34:15.000Z</time>
      </trkpt>
      <trkpt lat="45.15303" lon="5.39672">
        <ele>681.4</ele>
        <time>2022-10-15T12:34:17.000Z</time>
      </trkpt>
      <trkpt lat="45.15305" lon="5.39673">
        <ele>681.6</ele>
        <time>2022-10-15T12:34:18.000Z</time>
      </trkpt>
      <trkpt lat="45.15308" lon="5.39674">
        <ele>682.1</ele>
        <time>2022-10-15T12:34:20.000Z</time>
      </trkpt>
      <trkpt lat="45.15311" lon="5.39675">
        <ele>682.6</ele>
        <time>2022-10-15T12:34:22.000Z</time>
      </trkpt>
      <trkpt lat="45.15314" lon="5.39677">
        <ele>683.1</ele>
        <time>2022-10-15T12:34:24.000Z</time>
      </trkpt>
      <trkpt lat="45.15317" lon="5.39677">
        <ele>683.4</ele>
        <time>2022-10-15T12:34:26.000Z</time>
      </trkpt>
      <trkpt lat="45.1532" lon="5.39678">
        <ele>683.8</ele>
        <time>2022-10-15T12:34:28.000Z</time>
      </trkpt>
      <trkpt lat="45.15322" lon="5.39679">
        <ele>684.2</ele>
        <time>2022-10-15T12:34:30.000Z</time>
      </trkpt>
      <trkpt lat="45.15324" lon="5.39679">
        <ele>684.3</ele>
        <time>2022-10-15T12:34:31.000Z</time>
      </trkpt>
      <trkpt lat="45.15326" lon="5.39679">
        <ele>684.2</ele>
        <time>2022-10-15T12:34:32.000Z</time>
      </trkpt>
      <trkpt lat="45.15329" lon="5.39678">
        <ele>684.2</ele>
        <time>2022-10-15T12:34:34.000Z</time>
      </trkpt>
      <trkpt lat="45.15332" lon="5.39677">
        <ele>683.9</ele>
        <time>2022-10-15T12:34:36.000Z</time>
      </trkpt>
      <trkpt lat="45.15333" lon="5.39676">
        <ele>683.6</ele>
        <time>2022-10-15T12:34:37.000Z</time>
      </trkpt>
      <trkpt lat="45.15336" lon="5.39675">
        <ele>683.3</ele>
        <time>2022-10-15T12:34:39.000Z</time>
      </trkpt>
      <trkpt lat="45.1534" lon="5.39674">
        <ele>682.7</ele>
        <time>2022-10-15T12:34:41.000Z</time>
      </trkpt>
      <trkpt lat="45.15343" lon="5.39673">
        <ele>682.4</ele>
        <time>2022-10-15T12:34:43.000Z</time>
      </trkpt>
      <trkpt lat="45.15347" lon="5.39672">
        <ele>682.1</ele>
        <time>2022-10-15T12:34:45.000Z</time>
      </trkpt>
      <trkpt lat="45.15348" lon="5.39671">
        <ele>681.8</ele>
        <time>2022-10-15T12:34:46.000Z</time>
      </trkpt>
      <trkpt lat="45.1535" lon="5.3967">
        <ele>681.4</ele>
        <time>2022-10-15T12:34:47.000Z</time>
      </trkpt>
      <trkpt lat="45.15353" lon="5.3967">
        <ele>681.1</ele>
        <time>2022-10-15T12:34:49.000Z</time>
      </trkpt>
      <trkpt lat="45.15356" lon="5.3967">
        <ele>681.1</ele>
        <time>2022-10-15T12:34:51.000Z</time>
      </trkpt>
      <trkpt lat="45.15359" lon="5.39669">
        <ele>680.7</ele>
        <time>2022-10-15T12:34:53.000Z</time>
      </trkpt>
      <trkpt lat="45.15361" lon="5.39668">
        <ele>680.2</ele>
        <time>2022-10-15T12:34:55.000Z</time>
      </trkpt>
      <trkpt lat="45.15364" lon="5.39666">
        <ele>679.3</ele>
        <time>2022-10-15T12:34:57.000Z</time>
      </trkpt>
      <trkpt lat="45.15367" lon="5.39665">
        <ele>678.3</ele>
        <time>2022-10-15T12:34:59.000Z</time>
      </trkpt>
      <trkpt lat="45.1537" lon="5.39663">
        <ele>677.3</ele>
        <time>2022-10-15T12:35:01.000Z</time>
      </trkpt>
      <trkpt lat="45.15371" lon="5.39662">
        <ele>676.6</ele>
        <time>2022-10-15T12:35:03.000Z</time>
      </trkpt>
      <trkpt lat="45.15373" lon="5.39664">
        <ele>676.9</ele>
        <time>2022-10-15T12:35:05.000Z</time>
      </trkpt>
      <trkpt lat="45.15376" lon="5.39667">
        <ele>677.6</ele>
        <time>2022-10-15T12:35:07.000Z</time>
      </trkpt>
      <trkpt lat="45.15376" lon="5.39672">
        <ele>678.9</ele>
        <time>2022-10-15T12:35:09.000Z</time>
      </trkpt>
      <trkpt lat="45.15375" lon="5.39675">
        <ele>679.8</ele>
        <time>2022-10-15T12:35:10.000Z</time>
      </trkpt>
      <trkpt lat="45.15374" lon="5.39679">
        <ele>681.3</ele>
        <time>2022-10-15T12:35:12.000Z</time>
      </trkpt>
      <trkpt lat="45.15371" lon="5.39683">
        <ele>682.8</ele>
        <time>2022-10-15T12:35:14.000Z</time>
      </trkpt>
      <trkpt lat="45.1537" lon="5.39685">
        <ele>683.7</ele>
        <time>2022-10-15T12:35:15.000Z</time>
      </trkpt>
      <trkpt lat="45.15368" lon="5.39686">
        <ele>684.4</ele>
        <time>2022-10-15T12:35:16.000Z</time>
      </trkpt>
      <trkpt lat="45.15366" lon="5.39687">
        <ele>685</ele>
        <time>2022-10-15T12:35:17.000Z</time>
      </trkpt>
      <trkpt lat="45.15364" lon="5.39688">
        <ele>685.8</ele>
        <time>2022-10-15T12:35:18.000Z</time>
      </trkpt>
      <trkpt lat="45.15362" lon="5.3969">
        <ele>686.5</ele>
        <time>2022-10-15T12:35:19.000Z</time>
      </trkpt>
      <trkpt lat="45.1536" lon="5.39691">
        <ele>687</ele>
        <time>2022-10-15T12:35:20.000Z</time>
      </trkpt>
      <trkpt lat="45.15358" lon="5.39692">
        <ele>687.4</ele>
        <time>2022-10-15T12:35:21.000Z</time>
      </trkpt>
      <trkpt lat="45.15355" lon="5.39694">
        <ele>688</ele>
        <time>2022-10-15T12:35:23.000Z</time>
      </trkpt>
      <trkpt lat="45.15353" lon="5.39695">
        <ele>688.3</ele>
        <time>2022-10-15T12:35:24.000Z</time>
      </trkpt>
      <trkpt lat="45.1535" lon="5.39696">
        <ele>688.8</ele>
        <time>2022-10-15T12:35:26.000Z</time>
      </trkpt>
      <trkpt lat="45.15347" lon="5.39698">
        <ele>689.3</ele>
        <time>2022-10-15T12:35:28.000Z</time>
      </trkpt>
      <trkpt lat="45.15345" lon="5.397">
        <ele>689.8</ele>
        <time>2022-10-15T12:35:29.000Z</time>
      </trkpt>
      <trkpt lat="45.15343" lon="5.39702">
        <ele>690.2</ele>
        <time>2022-10-15T12:35:30.000Z</time>
      </trkpt>
      <trkpt lat="45.15342" lon="5.39703">
        <ele>690.6</ele>
        <time>2022-10-15T12:35:31.000Z</time>
      </trkpt>
      <trkpt lat="45.15339" lon="5.39704">
        <ele>690.9</ele>
        <time>2022-10-15T12:35:32.000Z</time>
      </trkpt>
      <trkpt lat="45.15337" lon="5.39706">
        <ele>691.3</ele>
        <time>2022-10-15T12:35:33.000Z</time>
      </trkpt>
      <trkpt lat="45.15335" lon="5.39707">
        <ele>691.6</ele>
        <time>2022-10-15T12:35:34.000Z</time>
      </trkpt>
      <trkpt lat="45.15333" lon="5.39708">
        <ele>691.9</ele>
        <time>2022-10-15T12:35:35.000Z</time>
      </trkpt>
      <trkpt lat="45.15331" lon="5.39709">
        <ele>692</ele>
        <time>2022-10-15T12:35:36.000Z</time>
      </trkpt>
      <trkpt lat="45.15329" lon="5.3971">
        <ele>692.2</ele>
        <time>2022-10-15T12:35:37.000Z</time>
      </trkpt>
      <trkpt lat="45.15327" lon="5.39711">
        <ele>692.4</ele>
        <time>2022-10-15T12:35:38.000Z</time>
      </trkpt>
      <trkpt lat="45.15324" lon="5.39712">
        <ele>692.7</ele>
        <time>2022-10-15T12:35:40.000Z</time>
      </trkpt>
      <trkpt lat="45.15322" lon="5.39713">
        <ele>692.8</ele>
        <time>2022-10-15T12:35:41.000Z</time>
      </trkpt>
      <trkpt lat="45.1532" lon="5.39713">
        <ele>692.8</ele>
        <time>2022-10-15T12:35:42.000Z</time>
      </trkpt>
      <trkpt lat="45.15317" lon="5.39713">
        <ele>692.9</ele>
        <time>2022-10-15T12:35:44.000Z</time>
      </trkpt>
      <trkpt lat="45.15315" lon="5.39713">
        <ele>692.9</ele>
        <time>2022-10-15T12:35:45.000Z</time>
      </trkpt>
      <trkpt lat="45.15313" lon="5.39714">
        <ele>693</ele>
        <time>2022-10-15T12:35:46.000Z</time>
      </trkpt>
      <trkpt lat="45.15311" lon="5.39715">
        <ele>693.2</ele>
        <time>2022-10-15T12:35:47.000Z</time>
      </trkpt>
      <trkpt lat="45.15309" lon="5.39716">
        <ele>693.4</ele>
        <time>2022-10-15T12:35:48.000Z</time>
      </trkpt>
      <trkpt lat="45.15307" lon="5.39716">
        <ele>693.5</ele>
        <time>2022-10-15T12:35:49.000Z</time>
      </trkpt>
      <trkpt lat="45.15305" lon="5.39717">
        <ele>693.6</ele>
        <time>2022-10-15T12:35:50.000Z</time>
      </trkpt>
      <trkpt lat="45.15303" lon="5.39716">
        <ele>693.5</ele>
        <time>2022-10-15T12:35:51.000Z</time>
      </trkpt>
      <trkpt lat="45.15301" lon="5.39717">
        <ele>693.5</ele>
        <time>2022-10-15T12:35:52.000Z</time>
      </trkpt>
      <trkpt lat="45.15299" lon="5.39717">
        <ele>693.5</ele>
        <time>2022-10-15T12:35:53.000Z</time>
      </trkpt>
      <trkpt lat="45.15297" lon="5.39717">
        <ele>693.6</ele>
        <time>2022-10-15T12:35:54.000Z</time>
      </trkpt>
      <trkpt lat="45.15296" lon="5.39718">
        <ele>693.8</ele>
        <time>2022-10-15T12:35:55.000Z</time>
      </trkpt>
      <trkpt lat="45.15293" lon="5.39719">
        <ele>694.1</ele>
        <time>2022-10-15T12:35:57.000Z</time>
      </trkpt>
      <trkpt lat="45.15289" lon="5.39719">
        <ele>694</ele>
        <time>2022-10-15T12:35:59.000Z</time>
      </trkpt>
      <trkpt lat="45.15286" lon="5.39719">
        <ele>694</ele>
        <time>2022-10-15T12:36:01.000Z</time>
      </trkpt>
      <trkpt lat="45.15282" lon="5.3972">
        <ele>694.4</ele>
        <time>2022-10-15T12:36:03.000Z</time>
      </trkpt>
      <trkpt lat="45.15279" lon="5.39721">
        <ele>694.6</ele>
        <time>2022-10-15T12:36:05.000Z</time>
      </trkpt>
      <trkpt lat="45.15276" lon="5.39722">
        <ele>694.9</ele>
        <time>2022-10-15T12:36:07.000Z</time>
      </trkpt>
      <trkpt lat="45.15272" lon="5.39722">
        <ele>694.9</ele>
        <time>2022-10-15T12:36:09.000Z</time>
      </trkpt>
      <trkpt lat="45.15269" lon="5.39721">
        <ele>694.7</ele>
        <time>2022-10-15T12:36:11.000Z</time>
      </trkpt>
      <trkpt lat="45.15267" lon="5.39721">
        <ele>694.7</ele>
        <time>2022-10-15T12:36:12.000Z</time>
      </trkpt>
      <trkpt lat="45.15264" lon="5.39723">
        <ele>695.1</ele>
        <time>2022-10-15T12:36:14.000Z</time>
      </trkpt>
      <trkpt lat="45.15261" lon="5.39723">
        <ele>695.3</ele>
        <time>2022-10-15T12:36:16.000Z</time>
      </trkpt>
      <trkpt lat="45.15259" lon="5.39723">
        <ele>695.3</ele>
        <time>2022-10-15T12:36:17.000Z</time>
      </trkpt>
      <trkpt lat="45.15257" lon="5.39724">
        <ele>695.3</ele>
        <time>2022-10-15T12:36:18.000Z</time>
      </trkpt>
      <trkpt lat="45.15255" lon="5.39725">
        <ele>695.6</ele>
        <time>2022-10-15T12:36:20.000Z</time>
      </trkpt>
      <trkpt lat="45.15253" lon="5.39726">
        <ele>695.9</ele>
        <time>2022-10-15T12:36:22.000Z</time>
      </trkpt>
      <trkpt lat="45.15251" lon="5.39727">
        <ele>696.1</ele>
        <time>2022-10-15T12:36:24.000Z</time>
      </trkpt>
      <trkpt lat="45.15248" lon="5.39727">
        <ele>696.1</ele>
        <time>2022-10-15T12:36:25.000Z</time>
      </trkpt>
      <trkpt lat="45.15245" lon="5.39725">
        <ele>695.9</ele>
        <time>2022-10-15T12:36:27.000Z</time>
      </trkpt>
      <trkpt lat="45.15243" lon="5.39725">
        <ele>696</ele>
        <time>2022-10-15T12:36:29.000Z</time>
      </trkpt>
      <trkpt lat="45.15241" lon="5.39726">
        <ele>696.4</ele>
        <time>2022-10-15T12:36:31.000Z</time>
      </trkpt>
      <trkpt lat="45.15238" lon="5.39728">
        <ele>696.9</ele>
        <time>2022-10-15T12:36:34.000Z</time>
      </trkpt>
      <trkpt lat="45.15235" lon="5.39728">
        <ele>697</ele>
        <time>2022-10-15T12:36:36.000Z</time>
      </trkpt>
      <trkpt lat="45.15234" lon="5.39729">
        <ele>697.2</ele>
        <time>2022-10-15T12:36:37.000Z</time>
      </trkpt>
      <trkpt lat="45.1523" lon="5.39729">
        <ele>697.3</ele>
        <time>2022-10-15T12:36:39.000Z</time>
      </trkpt>
      <trkpt lat="45.15227" lon="5.39728">
        <ele>697.2</ele>
        <time>2022-10-15T12:36:41.000Z</time>
      </trkpt>
      <trkpt lat="45.15224" lon="5.39728">
        <ele>697.3</ele>
        <time>2022-10-15T12:36:43.000Z</time>
      </trkpt>
      <trkpt lat="45.15222" lon="5.39728">
        <ele>697.6</ele>
        <time>2022-10-15T12:36:45.000Z</time>
      </trkpt>
      <trkpt lat="45.15219" lon="5.39729">
        <ele>697.9</ele>
        <time>2022-10-15T12:36:47.000Z</time>
      </trkpt>
      <trkpt lat="45.15217" lon="5.39729">
        <ele>698.1</ele>
        <time>2022-10-15T12:36:48.000Z</time>
      </trkpt>
      <trkpt lat="45.15214" lon="5.3973">
        <ele>698.5</ele>
        <time>2022-10-15T12:36:50.000Z</time>
      </trkpt>
      <trkpt lat="45.15212" lon="5.3973">
        <ele>698.6</ele>
        <time>2022-10-15T12:36:52.000Z</time>
      </trkpt>
      <trkpt lat="45.15209" lon="5.3973">
        <ele>698.9</ele>
        <time>2022-10-15T12:36:54.000Z</time>
      </trkpt>
      <trkpt lat="45.15206" lon="5.3973">
        <ele>699.1</ele>
        <time>2022-10-15T12:36:56.000Z</time>
      </trkpt>
      <trkpt lat="45.15204" lon="5.39729">
        <ele>699.1</ele>
        <time>2022-10-15T12:36:58.000Z</time>
      </trkpt>
      <trkpt lat="45.15202" lon="5.39729">
        <ele>699.2</ele>
        <time>2022-10-15T12:37:00.000Z</time>
      </trkpt>
      <trkpt lat="45.15199" lon="5.39729">
        <ele>699.3</ele>
        <time>2022-10-15T12:37:02.000Z</time>
      </trkpt>
      <trkpt lat="45.15196" lon="5.39728">
        <ele>699.3</ele>
        <time>2022-10-15T12:37:04.000Z</time>
      </trkpt>
      <trkpt lat="45.15193" lon="5.39728">
        <ele>699.7</ele>
        <time>2022-10-15T12:37:06.000Z</time>
      </trkpt>
      <trkpt lat="45.1519" lon="5.39728">
        <ele>699.9</ele>
        <time>2022-10-15T12:37:08.000Z</time>
      </trkpt>
      <trkpt lat="45.15188" lon="5.39727">
        <ele>700</ele>
        <time>2022-10-15T12:37:10.000Z</time>
      </trkpt>
      <trkpt lat="45.15186" lon="5.39728">
        <ele>700.3</ele>
        <time>2022-10-15T12:37:12.000Z</time>
      </trkpt>
      <trkpt lat="45.15183" lon="5.39729">
        <ele>700.9</ele>
        <time>2022-10-15T12:37:14.000Z</time>
      </trkpt>
      <trkpt lat="45.1518" lon="5.39729">
        <ele>701.2</ele>
        <time>2022-10-15T12:37:16.000Z</time>
      </trkpt>
      <trkpt lat="45.15177" lon="5.39728">
        <ele>701.4</ele>
        <time>2022-10-15T12:37:18.000Z</time>
      </trkpt>
      <trkpt lat="45.15175" lon="5.39727">
        <ele>701.4</ele>
        <time>2022-10-15T12:37:20.000Z</time>
      </trkpt>
      <trkpt lat="45.15172" lon="5.39727">
        <ele>701.6</ele>
        <time>2022-10-15T12:37:22.000Z</time>
      </trkpt>
      <trkpt lat="45.1517" lon="5.39727">
        <ele>701.8</ele>
        <time>2022-10-15T12:37:24.000Z</time>
      </trkpt>
      <trkpt lat="45.15167" lon="5.39727">
        <ele>702.1</ele>
        <time>2022-10-15T12:37:26.000Z</time>
      </trkpt>
      <trkpt lat="45.15164" lon="5.39727">
        <ele>702.5</ele>
        <time>2022-10-15T12:37:28.000Z</time>
      </trkpt>
      <trkpt lat="45.15162" lon="5.39727">
        <ele>702.8</ele>
        <time>2022-10-15T12:37:30.000Z</time>
      </trkpt>
      <trkpt lat="45.15159" lon="5.39726">
        <ele>703</ele>
        <time>2022-10-15T12:37:32.000Z</time>
      </trkpt>
      <trkpt lat="45.15156" lon="5.39725">
        <ele>703.3</ele>
        <time>2022-10-15T12:37:34.000Z</time>
      </trkpt>
      <trkpt lat="45.15154" lon="5.39725">
        <ele>703.4</ele>
        <time>2022-10-15T12:37:36.000Z</time>
      </trkpt>
      <trkpt lat="45.15152" lon="5.39724">
        <ele>703.5</ele>
        <time>2022-10-15T12:37:38.000Z</time>
      </trkpt>
      <trkpt lat="45.15149" lon="5.39722">
        <ele>703.5</ele>
        <time>2022-10-15T12:37:40.000Z</time>
      </trkpt>
      <trkpt lat="45.15147" lon="5.39722">
        <ele>703.6</ele>
        <time>2022-10-15T12:37:41.000Z</time>
      </trkpt>
      <trkpt lat="45.15145" lon="5.39721">
        <ele>703.7</ele>
        <time>2022-10-15T12:37:42.000Z</time>
      </trkpt>
      <trkpt lat="45.15142" lon="5.39721">
        <ele>704.2</ele>
        <time>2022-10-15T12:37:44.000Z</time>
      </trkpt>
      <trkpt lat="45.15139" lon="5.3972">
        <ele>704.5</ele>
        <time>2022-10-15T12:37:46.000Z</time>
      </trkpt>
      <trkpt lat="45.15136" lon="5.3972">
        <ele>705</ele>
        <time>2022-10-15T12:37:48.000Z</time>
      </trkpt>
      <trkpt lat="45.15133" lon="5.39721">
        <ele>705.6</ele>
        <time>2022-10-15T12:37:50.000Z</time>
      </trkpt>
      <trkpt lat="45.1513" lon="5.3972">
        <ele>705.8</ele>
        <time>2022-10-15T12:37:52.000Z</time>
      </trkpt>
      <trkpt lat="45.15128" lon="5.39719">
        <ele>705.7</ele>
        <time>2022-10-15T12:37:54.000Z</time>
      </trkpt>
      <trkpt lat="45.15125" lon="5.39718">
        <ele>705.9</ele>
        <time>2022-10-15T12:37:57.000Z</time>
      </trkpt>
      <trkpt lat="45.15122" lon="5.39717">
        <ele>706</ele>
        <time>2022-10-15T12:37:59.000Z</time>
      </trkpt>
      <trkpt lat="45.1512" lon="5.39716">
        <ele>706.1</ele>
        <time>2022-10-15T12:38:01.000Z</time>
      </trkpt>
      <trkpt lat="45.15118" lon="5.39714">
        <ele>706</ele>
        <time>2022-10-15T12:38:03.000Z</time>
      </trkpt>
      <trkpt lat="45.15115" lon="5.39714">
        <ele>706.4</ele>
        <time>2022-10-15T12:38:05.000Z</time>
      </trkpt>
      <trkpt lat="45.15112" lon="5.39714">
        <ele>706.7</ele>
        <time>2022-10-15T12:38:07.000Z</time>
      </trkpt>
      <trkpt lat="45.15109" lon="5.39714">
        <ele>707.3</ele>
        <time>2022-10-15T12:38:09.000Z</time>
      </trkpt>
      <trkpt lat="45.15106" lon="5.39714">
        <ele>708</ele>
        <time>2022-10-15T12:38:11.000Z</time>
      </trkpt>
      <trkpt lat="45.15102" lon="5.39712">
        <ele>708.3</ele>
        <time>2022-10-15T12:38:13.000Z</time>
      </trkpt>
      <trkpt lat="45.15099" lon="5.39712">
        <ele>709</ele>
        <time>2022-10-15T12:38:15.000Z</time>
      </trkpt>
      <trkpt lat="45.15096" lon="5.39712">
        <ele>709.6</ele>
        <time>2022-10-15T12:38:17.000Z</time>
      </trkpt>
      <trkpt lat="45.15093" lon="5.39711">
        <ele>710</ele>
        <time>2022-10-15T12:38:19.000Z</time>
      </trkpt>
      <trkpt lat="45.15091" lon="5.39709">
        <ele>710.1</ele>
        <time>2022-10-15T12:38:20.000Z</time>
      </trkpt>
      <trkpt lat="45.15089" lon="5.39708">
        <ele>710.2</ele>
        <time>2022-10-15T12:38:21.000Z</time>
      </trkpt>
      <trkpt lat="45.15087" lon="5.39706">
        <ele>710.3</ele>
        <time>2022-10-15T12:38:23.000Z</time>
      </trkpt>
      <trkpt lat="45.15084" lon="5.39705">
        <ele>710.6</ele>
        <time>2022-10-15T12:38:25.000Z</time>
      </trkpt>
      <trkpt lat="45.15082" lon="5.39705">
        <ele>711</ele>
        <time>2022-10-15T12:38:27.000Z</time>
      </trkpt>
      <trkpt lat="45.15079" lon="5.39704">
        <ele>711.3</ele>
        <time>2022-10-15T12:38:29.000Z</time>
      </trkpt>
      <trkpt lat="45.15075" lon="5.39703">
        <ele>711.9</ele>
        <time>2022-10-15T12:38:31.000Z</time>
      </trkpt>
      <trkpt lat="45.15073" lon="5.39703">
        <ele>712.4</ele>
        <time>2022-10-15T12:38:33.000Z</time>
      </trkpt>
      <trkpt lat="45.1507" lon="5.39701">
        <ele>712.6</ele>
        <time>2022-10-15T12:38:35.000Z</time>
      </trkpt>
      <trkpt lat="45.15067" lon="5.39699">
        <ele>712.8</ele>
        <time>2022-10-15T12:38:37.000Z</time>
      </trkpt>
      <trkpt lat="45.15064" lon="5.39698">
        <ele>713</ele>
        <time>2022-10-15T12:38:39.000Z</time>
      </trkpt>
      <trkpt lat="45.15061" lon="5.39697">
        <ele>713.3</ele>
        <time>2022-10-15T12:38:41.000Z</time>
      </trkpt>
      <trkpt lat="45.15059" lon="5.39697">
        <ele>713.8</ele>
        <time>2022-10-15T12:38:43.000Z</time>
      </trkpt>
      <trkpt lat="45.15056" lon="5.39697">
        <ele>714.5</ele>
        <time>2022-10-15T12:38:45.000Z</time>
      </trkpt>
      <trkpt lat="45.15053" lon="5.39696">
        <ele>714.9</ele>
        <time>2022-10-15T12:38:47.000Z</time>
      </trkpt>
      <trkpt lat="45.15051" lon="5.39694">
        <ele>715</ele>
        <time>2022-10-15T12:38:49.000Z</time>
      </trkpt>
      <trkpt lat="45.15049" lon="5.39693">
        <ele>715.3</ele>
        <time>2022-10-15T12:38:50.000Z</time>
      </trkpt>
      <trkpt lat="45.15047" lon="5.39692">
        <ele>715.5</ele>
        <time>2022-10-15T12:38:51.000Z</time>
      </trkpt>
      <trkpt lat="45.15044" lon="5.3969">
        <ele>715.8</ele>
        <time>2022-10-15T12:38:53.000Z</time>
      </trkpt>
      <trkpt lat="45.15042" lon="5.39689">
        <ele>716.1</ele>
        <time>2022-10-15T12:38:55.000Z</time>
      </trkpt>
      <trkpt lat="45.1504" lon="5.39688">
        <ele>716.3</ele>
        <time>2022-10-15T12:38:57.000Z</time>
      </trkpt>
      <trkpt lat="45.15038" lon="5.39688">
        <ele>716.6</ele>
        <time>2022-10-15T12:38:59.000Z</time>
      </trkpt>
      <trkpt lat="45.15035" lon="5.39686">
        <ele>716.9</ele>
        <time>2022-10-15T12:39:01.000Z</time>
      </trkpt>
      <trkpt lat="45.15032" lon="5.39685">
        <ele>717.2</ele>
        <time>2022-10-15T12:39:03.000Z</time>
      </trkpt>
      <trkpt lat="45.15028" lon="5.39684">
        <ele>717.9</ele>
        <time>2022-10-15T12:39:05.000Z</time>
      </trkpt>
      <trkpt lat="45.15026" lon="5.39683">
        <ele>718.1</ele>
        <time>2022-10-15T12:39:07.000Z</time>
      </trkpt>
      <trkpt lat="45.15023" lon="5.39681">
        <ele>718.2</ele>
        <time>2022-10-15T12:39:09.000Z</time>
      </trkpt>
      <trkpt lat="45.15021" lon="5.3968">
        <ele>718.4</ele>
        <time>2022-10-15T12:39:11.000Z</time>
      </trkpt>
      <trkpt lat="45.15019" lon="5.39679">
        <ele>718.9</ele>
        <time>2022-10-15T12:39:13.000Z</time>
      </trkpt>
      <trkpt lat="45.15016" lon="5.39678">
        <ele>719.3</ele>
        <time>2022-10-15T12:39:15.000Z</time>
      </trkpt>
      <trkpt lat="45.15013" lon="5.39675">
        <ele>719.2</ele>
        <time>2022-10-15T12:39:17.000Z</time>
      </trkpt>
      <trkpt lat="45.15011" lon="5.39674">
        <ele>719.3</ele>
        <time>2022-10-15T12:39:19.000Z</time>
      </trkpt>
      <trkpt lat="45.15008" lon="5.39672">
        <ele>719.5</ele>
        <time>2022-10-15T12:39:21.000Z</time>
      </trkpt>
      <trkpt lat="45.15006" lon="5.3967">
        <ele>719.6</ele>
        <time>2022-10-15T12:39:23.000Z</time>
      </trkpt>
      <trkpt lat="45.15003" lon="5.39669">
        <ele>720</ele>
        <time>2022-10-15T12:39:25.000Z</time>
      </trkpt>
      <trkpt lat="45.15001" lon="5.39667">
        <ele>719.9</ele>
        <time>2022-10-15T12:39:26.000Z</time>
      </trkpt>
      <trkpt lat="45.14998" lon="5.39664">
        <ele>719.7</ele>
        <time>2022-10-15T12:39:28.000Z</time>
      </trkpt>
      <trkpt lat="45.14995" lon="5.39663">
        <ele>720</ele>
        <time>2022-10-15T12:39:30.000Z</time>
      </trkpt>
      <trkpt lat="45.14992" lon="5.39662">
        <ele>720.4</ele>
        <time>2022-10-15T12:39:32.000Z</time>
      </trkpt>
      <trkpt lat="45.1499" lon="5.39661">
        <ele>720.7</ele>
        <time>2022-10-15T12:39:34.000Z</time>
      </trkpt>
      <trkpt lat="45.14988" lon="5.3966">
        <ele>721</ele>
        <time>2022-10-15T12:39:36.000Z</time>
      </trkpt>
      <trkpt lat="45.14985" lon="5.39659">
        <ele>721.2</ele>
        <time>2022-10-15T12:39:38.000Z</time>
      </trkpt>
      <trkpt lat="45.14982" lon="5.39656">
        <ele>721.1</ele>
        <time>2022-10-15T12:39:40.000Z</time>
      </trkpt>
      <trkpt lat="45.1498" lon="5.39654">
        <ele>721.2</ele>
        <time>2022-10-15T12:39:42.000Z</time>
      </trkpt>
      <trkpt lat="45.14977" lon="5.39655">
        <ele>721.8</ele>
        <time>2022-10-15T12:39:44.000Z</time>
      </trkpt>
      <trkpt lat="45.14975" lon="5.39654">
        <ele>722</ele>
        <time>2022-10-15T12:39:46.000Z</time>
      </trkpt>
      <trkpt lat="45.14972" lon="5.39652">
        <ele>722.2</ele>
        <time>2022-10-15T12:39:48.000Z</time>
      </trkpt>
      <trkpt lat="45.1497" lon="5.39651">
        <ele>722.6</ele>
        <time>2022-10-15T12:39:50.000Z</time>
      </trkpt>
      <trkpt lat="45.14968" lon="5.39649">
        <ele>722.4</ele>
        <time>2022-10-15T12:39:52.000Z</time>
      </trkpt>
      <trkpt lat="45.14965" lon="5.39648">
        <ele>722.8</ele>
        <time>2022-10-15T12:39:54.000Z</time>
      </trkpt>
      <trkpt lat="45.14962" lon="5.39646">
        <ele>722.8</ele>
        <time>2022-10-15T12:39:56.000Z</time>
      </trkpt>
      <trkpt lat="45.1496" lon="5.39644">
        <ele>722.8</ele>
        <time>2022-10-15T12:39:58.000Z</time>
      </trkpt>
      <trkpt lat="45.14958" lon="5.39643">
        <ele>723</ele>
        <time>2022-10-15T12:40:00.000Z</time>
      </trkpt>
      <trkpt lat="45.14956" lon="5.39641">
        <ele>722.9</ele>
        <time>2022-10-15T12:40:02.000Z</time>
      </trkpt>
      <trkpt lat="45.14954" lon="5.39641">
        <ele>723.3</ele>
        <time>2022-10-15T12:40:04.000Z</time>
      </trkpt>
      <trkpt lat="45.14951" lon="5.39639">
        <ele>723.3</ele>
        <time>2022-10-15T12:40:06.000Z</time>
      </trkpt>
      <trkpt lat="45.14949" lon="5.39637">
        <ele>723.4</ele>
        <time>2022-10-15T12:40:07.000Z</time>
      </trkpt>
      <trkpt lat="45.14946" lon="5.39636">
        <ele>723.6</ele>
        <time>2022-10-15T12:40:08.000Z</time>
      </trkpt>
      <trkpt lat="45.14944" lon="5.39635">
        <ele>723.8</ele>
        <time>2022-10-15T12:40:09.000Z</time>
      </trkpt>
      <trkpt lat="45.14942" lon="5.39634">
        <ele>724</ele>
        <time>2022-10-15T12:40:10.000Z</time>
      </trkpt>
      <trkpt lat="45.1494" lon="5.39634">
        <ele>724.4</ele>
        <time>2022-10-15T12:40:11.000Z</time>
      </trkpt>
      <trkpt lat="45.14938" lon="5.39633">
        <ele>724.7</ele>
        <time>2022-10-15T12:40:12.000Z</time>
      </trkpt>
      <trkpt lat="45.14936" lon="5.39632">
        <ele>724.8</ele>
        <time>2022-10-15T12:40:13.000Z</time>
      </trkpt>
      <trkpt lat="45.14932" lon="5.39631">
        <ele>725.1</ele>
        <time>2022-10-15T12:40:15.000Z</time>
      </trkpt>
      <trkpt lat="45.14929" lon="5.3963">
        <ele>725.7</ele>
        <time>2022-10-15T12:40:17.000Z</time>
      </trkpt>
      <trkpt lat="45.14927" lon="5.3963">
        <ele>726.1</ele>
        <time>2022-10-15T12:40:19.000Z</time>
      </trkpt>
      <trkpt lat="45.14923" lon="5.39629">
        <ele>726.7</ele>
        <time>2022-10-15T12:40:21.000Z</time>
      </trkpt>
      <trkpt lat="45.14922" lon="5.39628">
        <ele>726.6</ele>
        <time>2022-10-15T12:40:22.000Z</time>
      </trkpt>
      <trkpt lat="45.14919" lon="5.39625">
        <ele>726.5</ele>
        <time>2022-10-15T12:40:24.000Z</time>
      </trkpt>
      <trkpt lat="45.14915" lon="5.39623">
        <ele>726.7</ele>
        <time>2022-10-15T12:40:26.000Z</time>
      </trkpt>
      <trkpt lat="45.14914" lon="5.39622">
        <ele>726.6</ele>
        <time>2022-10-15T12:40:27.000Z</time>
      </trkpt>
      <trkpt lat="45.14911" lon="5.39621">
        <ele>726.7</ele>
        <time>2022-10-15T12:40:29.000Z</time>
      </trkpt>
      <trkpt lat="45.14908" lon="5.39619">
        <ele>726.9</ele>
        <time>2022-10-15T12:40:31.000Z</time>
      </trkpt>
      <trkpt lat="45.14906" lon="5.3962">
        <ele>727.6</ele>
        <time>2022-10-15T12:40:33.000Z</time>
      </trkpt>
      <trkpt lat="45.14904" lon="5.3962">
        <ele>728.1</ele>
        <time>2022-10-15T12:40:35.000Z</time>
      </trkpt>
      <trkpt lat="45.14902" lon="5.3962">
        <ele>728.7</ele>
        <time>2022-10-15T12:40:37.000Z</time>
      </trkpt>
      <trkpt lat="45.14899" lon="5.39619">
        <ele>728.9</ele>
        <time>2022-10-15T12:40:39.000Z</time>
      </trkpt>
      <trkpt lat="45.14897" lon="5.39619">
        <ele>729.4</ele>
        <time>2022-10-15T12:40:41.000Z</time>
      </trkpt>
      <trkpt lat="45.14895" lon="5.39619">
        <ele>729.7</ele>
        <time>2022-10-15T12:40:43.000Z</time>
      </trkpt>
      <trkpt lat="45.14892" lon="5.39618">
        <ele>729.9</ele>
        <time>2022-10-15T12:40:45.000Z</time>
      </trkpt>
      <trkpt lat="45.1489" lon="5.39617">
        <ele>730</ele>
        <time>2022-10-15T12:40:47.000Z</time>
      </trkpt>
      <trkpt lat="45.14886" lon="5.39614">
        <ele>729.8</ele>
        <time>2022-10-15T12:40:49.000Z</time>
      </trkpt>
      <trkpt lat="45.14885" lon="5.39613">
        <ele>729.7</ele>
        <time>2022-10-15T12:40:50.000Z</time>
      </trkpt>
      <trkpt lat="45.14881" lon="5.39612">
        <ele>730.1</ele>
        <time>2022-10-15T12:40:52.000Z</time>
      </trkpt>
      <trkpt lat="45.14879" lon="5.39612">
        <ele>730.4</ele>
        <time>2022-10-15T12:40:53.000Z</time>
      </trkpt>
      <trkpt lat="45.14876" lon="5.3961">
        <ele>730.4</ele>
        <time>2022-10-15T12:40:55.000Z</time>
      </trkpt>
      <trkpt lat="45.14874" lon="5.39609">
        <ele>730.2</ele>
        <time>2022-10-15T12:40:57.000Z</time>
      </trkpt>
      <trkpt lat="45.14871" lon="5.39607">
        <ele>730.3</ele>
        <time>2022-10-15T12:40:59.000Z</time>
      </trkpt>
      <trkpt lat="45.14869" lon="5.39607">
        <ele>730.5</ele>
        <time>2022-10-15T12:41:00.000Z</time>
      </trkpt>
      <trkpt lat="45.14867" lon="5.39606">
        <ele>730.8</ele>
        <time>2022-10-15T12:41:01.000Z</time>
      </trkpt>
      <trkpt lat="45.14864" lon="5.39606">
        <ele>731.3</ele>
        <time>2022-10-15T12:41:03.000Z</time>
      </trkpt>
      <trkpt lat="45.14861" lon="5.39605">
        <ele>731.5</ele>
        <time>2022-10-15T12:41:05.000Z</time>
      </trkpt>
      <trkpt lat="45.14858" lon="5.39604">
        <ele>732</ele>
        <time>2022-10-15T12:41:07.000Z</time>
      </trkpt>
      <trkpt lat="45.14856" lon="5.39604">
        <ele>732.2</ele>
        <time>2022-10-15T12:41:08.000Z</time>
      </trkpt>
      <trkpt lat="45.14853" lon="5.39602">
        <ele>731.9</ele>
        <time>2022-10-15T12:41:10.000Z</time>
      </trkpt>
      <trkpt lat="45.14851" lon="5.396">
        <ele>731.7</ele>
        <time>2022-10-15T12:41:12.000Z</time>
      </trkpt>
      <trkpt lat="45.14848" lon="5.39599">
        <ele>732</ele>
        <time>2022-10-15T12:41:14.000Z</time>
      </trkpt>
      <trkpt lat="45.14846" lon="5.39598">
        <ele>732</ele>
        <time>2022-10-15T12:41:16.000Z</time>
      </trkpt>
      <trkpt lat="45.14844" lon="5.39597">
        <ele>732.2</ele>
        <time>2022-10-15T12:41:18.000Z</time>
      </trkpt>
      <trkpt lat="45.14841" lon="5.39596">
        <ele>732.3</ele>
        <time>2022-10-15T12:41:20.000Z</time>
      </trkpt>
      <trkpt lat="45.14838" lon="5.39595">
        <ele>732.5</ele>
        <time>2022-10-15T12:41:22.000Z</time>
      </trkpt>
      <trkpt lat="45.14835" lon="5.39593">
        <ele>732.6</ele>
        <time>2022-10-15T12:41:24.000Z</time>
      </trkpt>
      <trkpt lat="45.14832" lon="5.39592">
        <ele>732.7</ele>
        <time>2022-10-15T12:41:26.000Z</time>
      </trkpt>
      <trkpt lat="45.1483" lon="5.39592">
        <ele>733.2</ele>
        <time>2022-10-15T12:41:28.000Z</time>
      </trkpt>
      <trkpt lat="45.14827" lon="5.39592">
        <ele>733.8</ele>
        <time>2022-10-15T12:41:30.000Z</time>
      </trkpt>
      <trkpt lat="45.14824" lon="5.39591">
        <ele>734.2</ele>
        <time>2022-10-15T12:41:32.000Z</time>
      </trkpt>
      <trkpt lat="45.14822" lon="5.3959">
        <ele>734.4</ele>
        <time>2022-10-15T12:41:34.000Z</time>
      </trkpt>
      <trkpt lat="45.14819" lon="5.3959">
        <ele>734.8</ele>
        <time>2022-10-15T12:41:36.000Z</time>
      </trkpt>
      <trkpt lat="45.14817" lon="5.3959">
        <ele>735.5</ele>
        <time>2022-10-15T12:41:38.000Z</time>
      </trkpt>
      <trkpt lat="45.14814" lon="5.39588">
        <ele>735.6</ele>
        <time>2022-10-15T12:41:40.000Z</time>
      </trkpt>
      <trkpt lat="45.14811" lon="5.39587">
        <ele>735.7</ele>
        <time>2022-10-15T12:41:42.000Z</time>
      </trkpt>
      <trkpt lat="45.14808" lon="5.39586">
        <ele>736.2</ele>
        <time>2022-10-15T12:41:44.000Z</time>
      </trkpt>
      <trkpt lat="45.14805" lon="5.39585">
        <ele>736.7</ele>
        <time>2022-10-15T12:41:46.000Z</time>
      </trkpt>
      <trkpt lat="45.14802" lon="5.39584">
        <ele>737.1</ele>
        <time>2022-10-15T12:41:48.000Z</time>
      </trkpt>
      <trkpt lat="45.14798" lon="5.39582">
        <ele>737.2</ele>
        <time>2022-10-15T12:41:50.000Z</time>
      </trkpt>
      <trkpt lat="45.14797" lon="5.3958">
        <ele>736.8</ele>
        <time>2022-10-15T12:41:51.000Z</time>
      </trkpt>
      <trkpt lat="45.14793" lon="5.39578">
        <ele>736.8</ele>
        <time>2022-10-15T12:41:53.000Z</time>
      </trkpt>
      <trkpt lat="45.14791" lon="5.39578">
        <ele>737.3</ele>
        <time>2022-10-15T12:41:54.000Z</time>
      </trkpt>
      <trkpt lat="45.14789" lon="5.39577">
        <ele>737.6</ele>
        <time>2022-10-15T12:41:55.000Z</time>
      </trkpt>
      <trkpt lat="45.14787" lon="5.39577">
        <ele>737.9</ele>
        <time>2022-10-15T12:41:56.000Z</time>
      </trkpt>
      <trkpt lat="45.14783" lon="5.39574">
        <ele>737.8</ele>
        <time>2022-10-15T12:41:58.000Z</time>
      </trkpt>
      <trkpt lat="45.14782" lon="5.39574">
        <ele>738</ele>
        <time>2022-10-15T12:41:59.000Z</time>
      </trkpt>
      <trkpt lat="45.1478" lon="5.39572">
        <ele>738</ele>
        <time>2022-10-15T12:42:00.000Z</time>
      </trkpt>
      <trkpt lat="45.14778" lon="5.39571">
        <ele>738.1</ele>
        <time>2022-10-15T12:42:01.000Z</time>
      </trkpt>
      <trkpt lat="45.14776" lon="5.3957">
        <ele>738</ele>
        <time>2022-10-15T12:42:02.000Z</time>
      </trkpt>
      <trkpt lat="45.14773" lon="5.39569">
        <ele>738.2</ele>
        <time>2022-10-15T12:42:04.000Z</time>
      </trkpt>
      <trkpt lat="45.14771" lon="5.39568">
        <ele>738.3</ele>
        <time>2022-10-15T12:42:05.000Z</time>
      </trkpt>
      <trkpt lat="45.14769" lon="5.39567">
        <ele>738.5</ele>
        <time>2022-10-15T12:42:06.000Z</time>
      </trkpt>
      <trkpt lat="45.14767" lon="5.39567">
        <ele>738.8</ele>
        <time>2022-10-15T12:42:07.000Z</time>
      </trkpt>
      <trkpt lat="45.14765" lon="5.39566">
        <ele>739</ele>
        <time>2022-10-15T12:42:08.000Z</time>
      </trkpt>
      <trkpt lat="45.14764" lon="5.39565">
        <ele>739</ele>
        <time>2022-10-15T12:42:09.000Z</time>
      </trkpt>
      <trkpt lat="45.14761" lon="5.39562">
        <ele>738.9</ele>
        <time>2022-10-15T12:42:11.000Z</time>
      </trkpt>
      <trkpt lat="45.14759" lon="5.39561">
        <ele>738.8</ele>
        <time>2022-10-15T12:42:12.000Z</time>
      </trkpt>
      <trkpt lat="45.14757" lon="5.3956">
        <ele>739</ele>
        <time>2022-10-15T12:42:13.000Z</time>
      </trkpt>
      <trkpt lat="45.14755" lon="5.39559">
        <ele>739.1</ele>
        <time>2022-10-15T12:42:14.000Z</time>
      </trkpt>
      <trkpt lat="45.14753" lon="5.39558">
        <ele>739.2</ele>
        <time>2022-10-15T12:42:15.000Z</time>
      </trkpt>
      <trkpt lat="45.1475" lon="5.39557">
        <ele>739.4</ele>
        <time>2022-10-15T12:42:17.000Z</time>
      </trkpt>
      <trkpt lat="45.14747" lon="5.39555">
        <ele>739.7</ele>
        <time>2022-10-15T12:42:19.000Z</time>
      </trkpt>
      <trkpt lat="45.14743" lon="5.39555">
        <ele>740.5</ele>
        <time>2022-10-15T12:42:21.000Z</time>
      </trkpt>
      <trkpt lat="45.1474" lon="5.39554">
        <ele>741.1</ele>
        <time>2022-10-15T12:42:23.000Z</time>
      </trkpt>
      <trkpt lat="45.14737" lon="5.39553">
        <ele>741.5</ele>
        <time>2022-10-15T12:42:25.000Z</time>
      </trkpt>
      <trkpt lat="45.14734" lon="5.39551">
        <ele>741.7</ele>
        <time>2022-10-15T12:42:27.000Z</time>
      </trkpt>
      <trkpt lat="45.14732" lon="5.39551">
        <ele>741.9</ele>
        <time>2022-10-15T12:42:28.000Z</time>
      </trkpt>
      <trkpt lat="45.1473" lon="5.3955">
        <ele>742.1</ele>
        <time>2022-10-15T12:42:29.000Z</time>
      </trkpt>
      <trkpt lat="45.14728" lon="5.39549">
        <ele>742.4</ele>
        <time>2022-10-15T12:42:30.000Z</time>
      </trkpt>
      <trkpt lat="45.14726" lon="5.39549">
        <ele>742.7</ele>
        <time>2022-10-15T12:42:31.000Z</time>
      </trkpt>
      <trkpt lat="45.14723" lon="5.39547">
        <ele>742.8</ele>
        <time>2022-10-15T12:42:33.000Z</time>
      </trkpt>
      <trkpt lat="45.1472" lon="5.39546">
        <ele>743.2</ele>
        <time>2022-10-15T12:42:35.000Z</time>
      </trkpt>
      <trkpt lat="45.14717" lon="5.39545">
        <ele>743.3</ele>
        <time>2022-10-15T12:42:37.000Z</time>
      </trkpt>
      <trkpt lat="45.14714" lon="5.39544">
        <ele>743.4</ele>
        <time>2022-10-15T12:42:39.000Z</time>
      </trkpt>
      <trkpt lat="45.14711" lon="5.39543">
        <ele>743.7</ele>
        <time>2022-10-15T12:42:42.000Z</time>
      </trkpt>
      <trkpt lat="45.14708" lon="5.39542">
        <ele>743.9</ele>
        <time>2022-10-15T12:42:44.000Z</time>
      </trkpt>
      <trkpt lat="45.14705" lon="5.39541">
        <ele>744.1</ele>
        <time>2022-10-15T12:42:46.000Z</time>
      </trkpt>
      <trkpt lat="45.14703" lon="5.39539">
        <ele>743.7</ele>
        <time>2022-10-15T12:42:48.000Z</time>
      </trkpt>
      <trkpt lat="45.14701" lon="5.39537">
        <ele>743.6</ele>
        <time>2022-10-15T12:42:50.000Z</time>
      </trkpt>
      <trkpt lat="45.14698" lon="5.39537">
        <ele>744.2</ele>
        <time>2022-10-15T12:42:52.000Z</time>
      </trkpt>
      <trkpt lat="45.14696" lon="5.39537">
        <ele>744.7</ele>
        <time>2022-10-15T12:42:54.000Z</time>
      </trkpt>
      <trkpt lat="45.14693" lon="5.39536">
        <ele>744.9</ele>
        <time>2022-10-15T12:42:56.000Z</time>
      </trkpt>
      <trkpt lat="45.14691" lon="5.39535">
        <ele>744.9</ele>
        <time>2022-10-15T12:42:58.000Z</time>
      </trkpt>
      <trkpt lat="45.14689" lon="5.39534">
        <ele>745</ele>
        <time>2022-10-15T12:42:59.000Z</time>
      </trkpt>
      <trkpt lat="45.14686" lon="5.39532">
        <ele>744.9</ele>
        <time>2022-10-15T12:43:01.000Z</time>
      </trkpt>
      <trkpt lat="45.14683" lon="5.39531">
        <ele>745.1</ele>
        <time>2022-10-15T12:43:03.000Z</time>
      </trkpt>
      <trkpt lat="45.1468" lon="5.3953">
        <ele>745.3</ele>
        <time>2022-10-15T12:43:05.000Z</time>
      </trkpt>
      <trkpt lat="45.14678" lon="5.39528">
        <ele>745.1</ele>
        <time>2022-10-15T12:43:07.000Z</time>
      </trkpt>
      <trkpt lat="45.14676" lon="5.39527">
        <ele>745.2</ele>
        <time>2022-10-15T12:43:09.000Z</time>
      </trkpt>
      <trkpt lat="45.14672" lon="5.39528">
        <ele>746.1</ele>
        <time>2022-10-15T12:43:11.000Z</time>
      </trkpt>
      <trkpt lat="45.14669" lon="5.39528">
        <ele>746.7</ele>
        <time>2022-10-15T12:43:13.000Z</time>
      </trkpt>
      <trkpt lat="45.14666" lon="5.39528">
        <ele>747.1</ele>
        <time>2022-10-15T12:43:15.000Z</time>
      </trkpt>
      <trkpt lat="45.14663" lon="5.39527">
        <ele>747.4</ele>
        <time>2022-10-15T12:43:17.000Z</time>
      </trkpt>
      <trkpt lat="45.14661" lon="5.39525">
        <ele>747.3</ele>
        <time>2022-10-15T12:43:19.000Z</time>
      </trkpt>
      <trkpt lat="45.14659" lon="5.39525">
        <ele>747.5</ele>
        <time>2022-10-15T12:43:21.000Z</time>
      </trkpt>
      <trkpt lat="45.14656" lon="5.39524">
        <ele>747.7</ele>
        <time>2022-10-15T12:43:23.000Z</time>
      </trkpt>
      <trkpt lat="45.14653" lon="5.39523">
        <ele>748</ele>
        <time>2022-10-15T12:43:25.000Z</time>
      </trkpt>
      <trkpt lat="45.1465" lon="5.39523">
        <ele>748.5</ele>
        <time>2022-10-15T12:43:27.000Z</time>
      </trkpt>
      <trkpt lat="45.14647" lon="5.39523">
        <ele>749</ele>
        <time>2022-10-15T12:43:29.000Z</time>
      </trkpt>
      <trkpt lat="45.14645" lon="5.39523">
        <ele>749.3</ele>
        <time>2022-10-15T12:43:30.000Z</time>
      </trkpt>
      <trkpt lat="45.14643" lon="5.39522">
        <ele>749.5</ele>
        <time>2022-10-15T12:43:31.000Z</time>
      </trkpt>
      <trkpt lat="45.14641" lon="5.39522">
        <ele>749.7</ele>
        <time>2022-10-15T12:43:32.000Z</time>
      </trkpt>
      <trkpt lat="45.14638" lon="5.39521">
        <ele>749.9</ele>
        <time>2022-10-15T12:43:34.000Z</time>
      </trkpt>
      <trkpt lat="45.14635" lon="5.39519">
        <ele>749.8</ele>
        <time>2022-10-15T12:43:36.000Z</time>
      </trkpt>
      <trkpt lat="45.14632" lon="5.39518">
        <ele>749.9</ele>
        <time>2022-10-15T12:43:38.000Z</time>
      </trkpt>
      <trkpt lat="45.14629" lon="5.39517">
        <ele>750.2</ele>
        <time>2022-10-15T12:43:40.000Z</time>
      </trkpt>
      <trkpt lat="45.14627" lon="5.39516">
        <ele>750.4</ele>
        <time>2022-10-15T12:43:42.000Z</time>
      </trkpt>
      <trkpt lat="45.14624" lon="5.39515">
        <ele>750.4</ele>
        <time>2022-10-15T12:43:44.000Z</time>
      </trkpt>
      <trkpt lat="45.14621" lon="5.39514">
        <ele>750.7</ele>
        <time>2022-10-15T12:43:46.000Z</time>
      </trkpt>
      <trkpt lat="45.14619" lon="5.39513">
        <ele>750.7</ele>
        <time>2022-10-15T12:43:48.000Z</time>
      </trkpt>
      <trkpt lat="45.14617" lon="5.39511">
        <ele>750.7</ele>
        <time>2022-10-15T12:43:50.000Z</time>
      </trkpt>
      <trkpt lat="45.14614" lon="5.3951">
        <ele>751</ele>
        <time>2022-10-15T12:43:52.000Z</time>
      </trkpt>
      <trkpt lat="45.14612" lon="5.39509">
        <ele>751.1</ele>
        <time>2022-10-15T12:43:54.000Z</time>
      </trkpt>
      <trkpt lat="45.14609" lon="5.39508">
        <ele>751.4</ele>
        <time>2022-10-15T12:43:56.000Z</time>
      </trkpt>
      <trkpt lat="45.14607" lon="5.39507">
        <ele>751.4</ele>
        <time>2022-10-15T12:43:58.000Z</time>
      </trkpt>
      <trkpt lat="45.14605" lon="5.39505">
        <ele>751.5</ele>
        <time>2022-10-15T12:44:00.000Z</time>
      </trkpt>
      <trkpt lat="45.14602" lon="5.39505">
        <ele>751.9</ele>
        <time>2022-10-15T12:44:02.000Z</time>
      </trkpt>
      <trkpt lat="45.146" lon="5.39505">
        <ele>752.3</ele>
        <time>2022-10-15T12:44:03.000Z</time>
      </trkpt>
      <trkpt lat="45.14598" lon="5.39505">
        <ele>752.5</ele>
        <time>2022-10-15T12:44:04.000Z</time>
      </trkpt>
      <trkpt lat="45.14596" lon="5.39503">
        <ele>752.6</ele>
        <time>2022-10-15T12:44:06.000Z</time>
      </trkpt>
      <trkpt lat="45.14593" lon="5.39502">
        <ele>752.6</ele>
        <time>2022-10-15T12:44:09.000Z</time>
      </trkpt>
      <trkpt lat="45.14591" lon="5.39501">
        <ele>752.9</ele>
        <time>2022-10-15T12:44:11.000Z</time>
      </trkpt>
      <trkpt lat="45.14589" lon="5.39501">
        <ele>753.3</ele>
        <time>2022-10-15T12:44:13.000Z</time>
      </trkpt>
      <trkpt lat="45.14586" lon="5.39501">
        <ele>753.8</ele>
        <time>2022-10-15T12:44:15.000Z</time>
      </trkpt>
      <trkpt lat="45.14583" lon="5.395">
        <ele>754</ele>
        <time>2022-10-15T12:44:17.000Z</time>
      </trkpt>
      <trkpt lat="45.1458" lon="5.39498">
        <ele>754</ele>
        <time>2022-10-15T12:44:19.000Z</time>
      </trkpt>
      <trkpt lat="45.14578" lon="5.39498">
        <ele>754.3</ele>
        <time>2022-10-15T12:44:21.000Z</time>
      </trkpt>
      <trkpt lat="45.14576" lon="5.39496">
        <ele>754.1</ele>
        <time>2022-10-15T12:44:23.000Z</time>
      </trkpt>
      <trkpt lat="45.14574" lon="5.39495">
        <ele>754.2</ele>
        <time>2022-10-15T12:44:25.000Z</time>
      </trkpt>
      <trkpt lat="45.14571" lon="5.39494">
        <ele>754.5</ele>
        <time>2022-10-15T12:44:27.000Z</time>
      </trkpt>
      <trkpt lat="45.14569" lon="5.39494">
        <ele>754.7</ele>
        <time>2022-10-15T12:44:28.000Z</time>
      </trkpt>
      <trkpt lat="45.14566" lon="5.39493">
        <ele>755.1</ele>
        <time>2022-10-15T12:44:30.000Z</time>
      </trkpt>
      <trkpt lat="45.14564" lon="5.39493">
        <ele>755.4</ele>
        <time>2022-10-15T12:44:32.000Z</time>
      </trkpt>
      <trkpt lat="45.14562" lon="5.39492">
        <ele>755.6</ele>
        <time>2022-10-15T12:44:34.000Z</time>
      </trkpt>
      <trkpt lat="45.14559" lon="5.39491">
        <ele>755.7</ele>
        <time>2022-10-15T12:44:36.000Z</time>
      </trkpt>
      <trkpt lat="45.14556" lon="5.39491">
        <ele>756.1</ele>
        <time>2022-10-15T12:44:38.000Z</time>
      </trkpt>
      <trkpt lat="45.14553" lon="5.3949">
        <ele>756.3</ele>
        <time>2022-10-15T12:44:40.000Z</time>
      </trkpt>
      <trkpt lat="45.14552" lon="5.39489">
        <ele>756.2</ele>
        <time>2022-10-15T12:44:41.000Z</time>
      </trkpt>
      <trkpt lat="45.1455" lon="5.39488">
        <ele>756.5</ele>
        <time>2022-10-15T12:44:43.000Z</time>
      </trkpt>
      <trkpt lat="45.14547" lon="5.39489">
        <ele>757</ele>
        <time>2022-10-15T12:44:45.000Z</time>
      </trkpt>
      <trkpt lat="45.14545" lon="5.39489">
        <ele>757.2</ele>
        <time>2022-10-15T12:44:47.000Z</time>
      </trkpt>
      <trkpt lat="45.14541" lon="5.39488">
        <ele>757.6</ele>
        <time>2022-10-15T12:44:49.000Z</time>
      </trkpt>
      <trkpt lat="45.14538" lon="5.39488">
        <ele>758.1</ele>
        <time>2022-10-15T12:44:51.000Z</time>
      </trkpt>
      <trkpt lat="45.14535" lon="5.39488">
        <ele>758.5</ele>
        <time>2022-10-15T12:44:53.000Z</time>
      </trkpt>
      <trkpt lat="45.14532" lon="5.39487">
        <ele>758.7</ele>
        <time>2022-10-15T12:44:55.000Z</time>
      </trkpt>
      <trkpt lat="45.14528" lon="5.39486">
        <ele>758.8</ele>
        <time>2022-10-15T12:44:57.000Z</time>
      </trkpt>
      <trkpt lat="45.14525" lon="5.39487">
        <ele>759.5</ele>
        <time>2022-10-15T12:44:59.000Z</time>
      </trkpt>
      <trkpt lat="45.14522" lon="5.39486">
        <ele>759.6</ele>
        <time>2022-10-15T12:45:01.000Z</time>
      </trkpt>
      <trkpt lat="45.14519" lon="5.39486">
        <ele>759.9</ele>
        <time>2022-10-15T12:45:03.000Z</time>
      </trkpt>
      <trkpt lat="45.14517" lon="5.39485">
        <ele>760.1</ele>
        <time>2022-10-15T12:45:05.000Z</time>
      </trkpt>
      <trkpt lat="45.14514" lon="5.39485">
        <ele>760.3</ele>
        <time>2022-10-15T12:45:07.000Z</time>
      </trkpt>
      <trkpt lat="45.14511" lon="5.39484">
        <ele>760.5</ele>
        <time>2022-10-15T12:45:09.000Z</time>
      </trkpt>
      <trkpt lat="45.14508" lon="5.39484">
        <ele>760.9</ele>
        <time>2022-10-15T12:45:11.000Z</time>
      </trkpt>
      <trkpt lat="45.14506" lon="5.39484">
        <ele>761.2</ele>
        <time>2022-10-15T12:45:13.000Z</time>
      </trkpt>
      <trkpt lat="45.14503" lon="5.39485">
        <ele>761.7</ele>
        <time>2022-10-15T12:45:15.000Z</time>
      </trkpt>
      <trkpt lat="45.14501" lon="5.39485">
        <ele>762</ele>
        <time>2022-10-15T12:45:17.000Z</time>
      </trkpt>
      <trkpt lat="45.14498" lon="5.39484">
        <ele>762.3</ele>
        <time>2022-10-15T12:45:19.000Z</time>
      </trkpt>
      <trkpt lat="45.14495" lon="5.39485">
        <ele>762.7</ele>
        <time>2022-10-15T12:45:21.000Z</time>
      </trkpt>
      <trkpt lat="45.14493" lon="5.39485">
        <ele>763</ele>
        <time>2022-10-15T12:45:23.000Z</time>
      </trkpt>
      <trkpt lat="45.1449" lon="5.39485">
        <ele>763.2</ele>
        <time>2022-10-15T12:45:25.000Z</time>
      </trkpt>
      <trkpt lat="45.14489" lon="5.39484">
        <ele>763.3</ele>
        <time>2022-10-15T12:45:26.000Z</time>
      </trkpt>
      <trkpt lat="45.14487" lon="5.39484">
        <ele>763.4</ele>
        <time>2022-10-15T12:45:27.000Z</time>
      </trkpt>
      <trkpt lat="45.14484" lon="5.39485">
        <ele>763.9</ele>
        <time>2022-10-15T12:45:29.000Z</time>
      </trkpt>
      <trkpt lat="45.14481" lon="5.39485">
        <ele>764.2</ele>
        <time>2022-10-15T12:45:31.000Z</time>
      </trkpt>
      <trkpt lat="45.14479" lon="5.39484">
        <ele>764.3</ele>
        <time>2022-10-15T12:45:33.000Z</time>
      </trkpt>
      <trkpt lat="45.14476" lon="5.39485">
        <ele>764.8</ele>
        <time>2022-10-15T12:45:35.000Z</time>
      </trkpt>
      <trkpt lat="45.14473" lon="5.39486">
        <ele>765.3</ele>
        <time>2022-10-15T12:45:37.000Z</time>
      </trkpt>
      <trkpt lat="45.14471" lon="5.39487">
        <ele>765.7</ele>
        <time>2022-10-15T12:45:39.000Z</time>
      </trkpt>
      <trkpt lat="45.14469" lon="5.39487">
        <ele>765.9</ele>
        <time>2022-10-15T12:45:40.000Z</time>
      </trkpt>
      <trkpt lat="45.14467" lon="5.39487">
        <ele>766.1</ele>
        <time>2022-10-15T12:45:41.000Z</time>
      </trkpt>
      <trkpt lat="45.14464" lon="5.39487">
        <ele>766.2</ele>
        <time>2022-10-15T12:45:43.000Z</time>
      </trkpt>
      <trkpt lat="45.14462" lon="5.39487">
        <ele>766.3</ele>
        <time>2022-10-15T12:45:45.000Z</time>
      </trkpt>
      <trkpt lat="45.14459" lon="5.39487">
        <ele>766.4</ele>
        <time>2022-10-15T12:45:47.000Z</time>
      </trkpt>
      <trkpt lat="45.14457" lon="5.39487">
        <ele>766.5</ele>
        <time>2022-10-15T12:45:49.000Z</time>
      </trkpt>
      <trkpt lat="45.14454" lon="5.39486">
        <ele>766.5</ele>
        <time>2022-10-15T12:45:50.000Z</time>
      </trkpt>
      <trkpt lat="45.14452" lon="5.39486">
        <ele>766.5</ele>
        <time>2022-10-15T12:45:52.000Z</time>
      </trkpt>
      <trkpt lat="45.14449" lon="5.39485">
        <ele>766.6</ele>
        <time>2022-10-15T12:45:54.000Z</time>
      </trkpt>
      <trkpt lat="45.14447" lon="5.39485">
        <ele>766.6</ele>
        <time>2022-10-15T12:45:55.000Z</time>
      </trkpt>
      <trkpt lat="45.14445" lon="5.39484">
        <ele>766.6</ele>
        <time>2022-10-15T12:45:56.000Z</time>
      </trkpt>
      <trkpt lat="45.14442" lon="5.39484">
        <ele>766.6</ele>
        <time>2022-10-15T12:45:58.000Z</time>
      </trkpt>
      <trkpt lat="45.14439" lon="5.39484">
        <ele>766.7</ele>
        <time>2022-10-15T12:46:00.000Z</time>
      </trkpt>
      <trkpt lat="45.14437" lon="5.39484">
        <ele>766.7</ele>
        <time>2022-10-15T12:46:02.000Z</time>
      </trkpt>
      <trkpt lat="45.14435" lon="5.39484">
        <ele>766.6</ele>
        <time>2022-10-15T12:46:03.000Z</time>
      </trkpt>
      <trkpt lat="45.14432" lon="5.39484">
        <ele>766.7</ele>
        <time>2022-10-15T12:46:05.000Z</time>
      </trkpt>
      <trkpt lat="45.14429" lon="5.39485">
        <ele>767</ele>
        <time>2022-10-15T12:46:08.000Z</time>
      </trkpt>
      <trkpt lat="45.14427" lon="5.39484">
        <ele>766.9</ele>
        <time>2022-10-15T12:46:09.000Z</time>
      </trkpt>
      <trkpt lat="45.14424" lon="5.39484">
        <ele>767</ele>
        <time>2022-10-15T12:46:11.000Z</time>
      </trkpt>
      <trkpt lat="45.14422" lon="5.39485">
        <ele>767.1</ele>
        <time>2022-10-15T12:46:13.000Z</time>
      </trkpt>
      <trkpt lat="45.14419" lon="5.39486">
        <ele>767.3</ele>
        <time>2022-10-15T12:46:15.000Z</time>
      </trkpt>
      <trkpt lat="45.14417" lon="5.39487">
        <ele>767.6</ele>
        <time>2022-10-15T12:46:17.000Z</time>
      </trkpt>
      <trkpt lat="45.14414" lon="5.39488">
        <ele>767.8</ele>
        <time>2022-10-15T12:46:19.000Z</time>
      </trkpt>
      <trkpt lat="45.14412" lon="5.3949">
        <ele>768</ele>
        <time>2022-10-15T12:46:21.000Z</time>
      </trkpt>
      <trkpt lat="45.14409" lon="5.3949">
        <ele>767.9</ele>
        <time>2022-10-15T12:46:22.000Z</time>
      </trkpt>
      <trkpt lat="45.14406" lon="5.3949">
        <ele>767.7</ele>
        <time>2022-10-15T12:46:24.000Z</time>
      </trkpt>
      <trkpt lat="45.14404" lon="5.39489">
        <ele>767.6</ele>
        <time>2022-10-15T12:46:25.000Z</time>
      </trkpt>
      <trkpt lat="45.14401" lon="5.39488">
        <ele>767.3</ele>
        <time>2022-10-15T12:46:26.000Z</time>
      </trkpt>
      <trkpt lat="45.14399" lon="5.39488">
        <ele>767.3</ele>
        <time>2022-10-15T12:46:27.000Z</time>
      </trkpt>
      <trkpt lat="45.14396" lon="5.39488">
        <ele>767.1</ele>
        <time>2022-10-15T12:46:29.000Z</time>
      </trkpt>
      <trkpt lat="45.14394" lon="5.39488">
        <ele>767</ele>
        <time>2022-10-15T12:46:30.000Z</time>
      </trkpt>
      <trkpt lat="45.14392" lon="5.39488">
        <ele>767</ele>
        <time>2022-10-15T12:46:31.000Z</time>
      </trkpt>
      <trkpt lat="45.14389" lon="5.39488">
        <ele>766.9</ele>
        <time>2022-10-15T12:46:32.000Z</time>
      </trkpt>
      <trkpt lat="45.14387" lon="5.39488">
        <ele>766.7</ele>
        <time>2022-10-15T12:46:33.000Z</time>
      </trkpt>
      <trkpt lat="45.14384" lon="5.39489">
        <ele>766.6</ele>
        <time>2022-10-15T12:46:34.000Z</time>
      </trkpt>
      <trkpt lat="45.14382" lon="5.39489">
        <ele>766.5</ele>
        <time>2022-10-15T12:46:35.000Z</time>
      </trkpt>
      <trkpt lat="45.14379" lon="5.3949">
        <ele>766.5</ele>
        <time>2022-10-15T12:46:36.000Z</time>
      </trkpt>
      <trkpt lat="45.14377" lon="5.39492">
        <ele>766.5</ele>
        <time>2022-10-15T12:46:37.000Z</time>
      </trkpt>
      <trkpt lat="45.14375" lon="5.39493">
        <ele>766.5</ele>
        <time>2022-10-15T12:46:38.000Z</time>
      </trkpt>
      <trkpt lat="45.14373" lon="5.39495">
        <ele>766.6</ele>
        <time>2022-10-15T12:46:39.000Z</time>
      </trkpt>
      <trkpt lat="45.14372" lon="5.39497">
        <ele>766.8</ele>
        <time>2022-10-15T12:46:40.000Z</time>
      </trkpt>
      <trkpt lat="45.1437" lon="5.395">
        <ele>766.9</ele>
        <time>2022-10-15T12:46:41.000Z</time>
      </trkpt>
      <trkpt lat="45.14368" lon="5.39502">
        <ele>767</ele>
        <time>2022-10-15T12:46:42.000Z</time>
      </trkpt>
      <trkpt lat="45.14367" lon="5.39505">
        <ele>767.2</ele>
        <time>2022-10-15T12:46:43.000Z</time>
      </trkpt>
      <trkpt lat="45.14365" lon="5.39508">
        <ele>767.3</ele>
        <time>2022-10-15T12:46:44.000Z</time>
      </trkpt>
      <trkpt lat="45.14365" lon="5.39511">
        <ele>767.6</ele>
        <time>2022-10-15T12:46:45.000Z</time>
      </trkpt>
      <trkpt lat="45.14364" lon="5.39514">
        <ele>767.8</ele>
        <time>2022-10-15T12:46:46.000Z</time>
      </trkpt>
      <trkpt lat="45.14364" lon="5.39517">
        <ele>768.2</ele>
        <time>2022-10-15T12:46:47.000Z</time>
      </trkpt>
      <trkpt lat="45.14363" lon="5.3952">
        <ele>768.4</ele>
        <time>2022-10-15T12:46:48.000Z</time>
      </trkpt>
      <trkpt lat="45.14363" lon="5.39522">
        <ele>768.7</ele>
        <time>2022-10-15T12:46:49.000Z</time>
      </trkpt>
      <trkpt lat="45.14363" lon="5.39527">
        <ele>769.2</ele>
        <time>2022-10-15T12:46:51.000Z</time>
      </trkpt>
      <trkpt lat="45.14363" lon="5.39532">
        <ele>769.8</ele>
        <time>2022-10-15T12:46:53.000Z</time>
      </trkpt>
      <trkpt lat="45.14363" lon="5.39537">
        <ele>770.3</ele>
        <time>2022-10-15T12:46:55.000Z</time>
      </trkpt>
      <trkpt lat="45.14363" lon="5.39541">
        <ele>770.7</ele>
        <time>2022-10-15T12:46:57.000Z</time>
      </trkpt>
      <trkpt lat="45.14363" lon="5.39544">
        <ele>771.1</ele>
        <time>2022-10-15T12:46:59.000Z</time>
      </trkpt>
      <trkpt lat="45.14363" lon="5.39547">
        <ele>771.3</ele>
        <time>2022-10-15T12:47:00.000Z</time>
      </trkpt>
      <trkpt lat="45.14363" lon="5.3955">
        <ele>771.6</ele>
        <time>2022-10-15T12:47:01.000Z</time>
      </trkpt>
      <trkpt lat="45.14362" lon="5.39553">
        <ele>771.8</ele>
        <time>2022-10-15T12:47:02.000Z</time>
      </trkpt>
      <trkpt lat="45.14362" lon="5.39555">
        <ele>772</ele>
        <time>2022-10-15T12:47:03.000Z</time>
      </trkpt>
      <trkpt lat="45.14361" lon="5.39558">
        <ele>772.1</ele>
        <time>2022-10-15T12:47:04.000Z</time>
      </trkpt>
      <trkpt lat="45.1436" lon="5.39562">
        <ele>772.2</ele>
        <time>2022-10-15T12:47:06.000Z</time>
      </trkpt>
      <trkpt lat="45.14359" lon="5.39565">
        <ele>772.1</ele>
        <time>2022-10-15T12:47:08.000Z</time>
      </trkpt>
      <trkpt lat="45.14357" lon="5.39568">
        <ele>771.9</ele>
        <time>2022-10-15T12:47:10.000Z</time>
      </trkpt>
      <trkpt lat="45.14355" lon="5.39571">
        <ele>771.8</ele>
        <time>2022-10-15T12:47:12.000Z</time>
      </trkpt>
      <trkpt lat="45.14354" lon="5.39574">
        <ele>771.7</ele>
        <time>2022-10-15T12:47:14.000Z</time>
      </trkpt>
      <trkpt lat="45.14352" lon="5.39577">
        <ele>771.6</ele>
        <time>2022-10-15T12:47:16.000Z</time>
      </trkpt>
      <trkpt lat="45.1435" lon="5.39581">
        <ele>771.4</ele>
        <time>2022-10-15T12:47:18.000Z</time>
      </trkpt>
      <trkpt lat="45.14349" lon="5.39584">
        <ele>771.4</ele>
        <time>2022-10-15T12:47:19.000Z</time>
      </trkpt>
      <trkpt lat="45.14348" lon="5.39587">
        <ele>771.5</ele>
        <time>2022-10-15T12:47:21.000Z</time>
      </trkpt>
      <trkpt lat="45.14347" lon="5.3959">
        <ele>771.5</ele>
        <time>2022-10-15T12:47:23.000Z</time>
      </trkpt>
      <trkpt lat="45.14344" lon="5.39594">
        <ele>771.3</ele>
        <time>2022-10-15T12:47:25.000Z</time>
      </trkpt>
      <trkpt lat="45.14343" lon="5.39598">
        <ele>771.5</ele>
        <time>2022-10-15T12:47:27.000Z</time>
      </trkpt>
      <trkpt lat="45.14342" lon="5.39602">
        <ele>771.6</ele>
        <time>2022-10-15T12:47:29.000Z</time>
      </trkpt>
      <trkpt lat="45.1434" lon="5.39606">
        <ele>771.6</ele>
        <time>2022-10-15T12:47:31.000Z</time>
      </trkpt>
      <trkpt lat="45.14339" lon="5.39608">
        <ele>771.6</ele>
        <time>2022-10-15T12:47:32.000Z</time>
      </trkpt>
      <trkpt lat="45.14337" lon="5.3961">
        <ele>771.6</ele>
        <time>2022-10-15T12:47:33.000Z</time>
      </trkpt>
      <trkpt lat="45.14336" lon="5.39613">
        <ele>771.6</ele>
        <time>2022-10-15T12:47:34.000Z</time>
      </trkpt>
      <trkpt lat="45.14335" lon="5.39616">
        <ele>771.5</ele>
        <time>2022-10-15T12:47:36.000Z</time>
      </trkpt>
      <trkpt lat="45.14333" lon="5.39619">
        <ele>771.3</ele>
        <time>2022-10-15T12:47:38.000Z</time>
      </trkpt>
      <trkpt lat="45.14333" lon="5.39622">
        <ele>771.2</ele>
        <time>2022-10-15T12:47:39.000Z</time>
      </trkpt>
      <trkpt lat="45.14332" lon="5.39625">
        <ele>771.1</ele>
        <time>2022-10-15T12:47:40.000Z</time>
      </trkpt>
      <trkpt lat="45.14331" lon="5.39627">
        <ele>770.9</ele>
        <time>2022-10-15T12:47:41.000Z</time>
      </trkpt>
      <trkpt lat="45.14329" lon="5.39632">
        <ele>770.7</ele>
        <time>2022-10-15T12:47:43.000Z</time>
      </trkpt>
      <trkpt lat="45.14328" lon="5.39636">
        <ele>770.6</ele>
        <time>2022-10-15T12:47:45.000Z</time>
      </trkpt>
      <trkpt lat="45.14327" lon="5.39641">
        <ele>770.5</ele>
        <time>2022-10-15T12:47:47.000Z</time>
      </trkpt>
      <trkpt lat="45.14327" lon="5.39643">
        <ele>770.4</ele>
        <time>2022-10-15T12:47:48.000Z</time>
      </trkpt>
      <trkpt lat="45.14326" lon="5.39647">
        <ele>770.5</ele>
        <time>2022-10-15T12:47:49.000Z</time>
      </trkpt>
      <trkpt lat="45.14326" lon="5.39649">
        <ele>770.5</ele>
        <time>2022-10-15T12:47:50.000Z</time>
      </trkpt>
      <trkpt lat="45.14326" lon="5.39652">
        <ele>770.5</ele>
        <time>2022-10-15T12:47:51.000Z</time>
      </trkpt>
      <trkpt lat="45.14325" lon="5.39655">
        <ele>770.5</ele>
        <time>2022-10-15T12:47:52.000Z</time>
      </trkpt>
      <trkpt lat="45.14326" lon="5.39659">
        <ele>770.8</ele>
        <time>2022-10-15T12:47:54.000Z</time>
      </trkpt>
      <trkpt lat="45.14327" lon="5.39664">
        <ele>771.3</ele>
        <time>2022-10-15T12:47:56.000Z</time>
      </trkpt>
      <trkpt lat="45.14329" lon="5.39668">
        <ele>771.8</ele>
        <time>2022-10-15T12:47:58.000Z</time>
      </trkpt>
      <trkpt lat="45.14329" lon="5.39671">
        <ele>771.8</ele>
        <time>2022-10-15T12:47:59.000Z</time>
      </trkpt>
      <trkpt lat="45.14329" lon="5.39674">
        <ele>772</ele>
        <time>2022-10-15T12:48:00.000Z</time>
      </trkpt>
      <trkpt lat="45.1433" lon="5.39679">
        <ele>772.2</ele>
        <time>2022-10-15T12:48:02.000Z</time>
      </trkpt>
      <trkpt lat="45.14331" lon="5.39683">
        <ele>772.5</ele>
        <time>2022-10-15T12:48:04.000Z</time>
      </trkpt>
      <trkpt lat="45.14333" lon="5.39687">
        <ele>772.9</ele>
        <time>2022-10-15T12:48:06.000Z</time>
      </trkpt>
      <trkpt lat="45.14334" lon="5.39689">
        <ele>773.1</ele>
        <time>2022-10-15T12:48:07.000Z</time>
      </trkpt>
      <trkpt lat="45.14335" lon="5.39691">
        <ele>773.3</ele>
        <time>2022-10-15T12:48:08.000Z</time>
      </trkpt>
      <trkpt lat="45.14337" lon="5.39693">
        <ele>773.6</ele>
        <time>2022-10-15T12:48:09.000Z</time>
      </trkpt>
      <trkpt lat="45.14339" lon="5.39697">
        <ele>773.8</ele>
        <time>2022-10-15T12:48:11.000Z</time>
      </trkpt>
      <trkpt lat="45.1434" lon="5.397">
        <ele>773.8</ele>
        <time>2022-10-15T12:48:12.000Z</time>
      </trkpt>
      <trkpt lat="45.14341" lon="5.39702">
        <ele>773.8</ele>
        <time>2022-10-15T12:48:13.000Z</time>
      </trkpt>
      <trkpt lat="45.14342" lon="5.39705">
        <ele>773.7</ele>
        <time>2022-10-15T12:48:14.000Z</time>
      </trkpt>
      <trkpt lat="45.14343" lon="5.39709">
        <ele>773.6</ele>
        <time>2022-10-15T12:48:15.000Z</time>
      </trkpt>
      <trkpt lat="45.14344" lon="5.39712">
        <ele>773.6</ele>
        <time>2022-10-15T12:48:16.000Z</time>
      </trkpt>
      <trkpt lat="45.14345" lon="5.39715">
        <ele>773.6</ele>
        <time>2022-10-15T12:48:17.000Z</time>
      </trkpt>
      <trkpt lat="45.14346" lon="5.39717">
        <ele>773.7</ele>
        <time>2022-10-15T12:48:18.000Z</time>
      </trkpt>
      <trkpt lat="45.14347" lon="5.3972">
        <ele>773.7</ele>
        <time>2022-10-15T12:48:19.000Z</time>
      </trkpt>
      <trkpt lat="45.14348" lon="5.39722">
        <ele>773.7</ele>
        <time>2022-10-15T12:48:20.000Z</time>
      </trkpt>
      <trkpt lat="45.14349" lon="5.39725">
        <ele>773.7</ele>
        <time>2022-10-15T12:48:21.000Z</time>
      </trkpt>
      <trkpt lat="45.14351" lon="5.39729">
        <ele>773.6</ele>
        <time>2022-10-15T12:48:23.000Z</time>
      </trkpt>
      <trkpt lat="45.14354" lon="5.39733">
        <ele>773.8</ele>
        <time>2022-10-15T12:48:25.000Z</time>
      </trkpt>
      <trkpt lat="45.14355" lon="5.39735">
        <ele>773.9</ele>
        <time>2022-10-15T12:48:26.000Z</time>
      </trkpt>
      <trkpt lat="45.14357" lon="5.39738">
        <ele>774</ele>
        <time>2022-10-15T12:48:27.000Z</time>
      </trkpt>
      <trkpt lat="45.14358" lon="5.39741">
        <ele>774.1</ele>
        <time>2022-10-15T12:48:28.000Z</time>
      </trkpt>
      <trkpt lat="45.1436" lon="5.39744">
        <ele>774.2</ele>
        <time>2022-10-15T12:48:29.000Z</time>
      </trkpt>
      <trkpt lat="45.14362" lon="5.39746">
        <ele>774.4</ele>
        <time>2022-10-15T12:48:30.000Z</time>
      </trkpt>
      <trkpt lat="45.14363" lon="5.39748">
        <ele>774.5</ele>
        <time>2022-10-15T12:48:31.000Z</time>
      </trkpt>
      <trkpt lat="45.14365" lon="5.3975">
        <ele>774.6</ele>
        <time>2022-10-15T12:48:32.000Z</time>
      </trkpt>
      <trkpt lat="45.14367" lon="5.39754">
        <ele>774.7</ele>
        <time>2022-10-15T12:48:34.000Z</time>
      </trkpt>
      <trkpt lat="45.1437" lon="5.39756">
        <ele>774.9</ele>
        <time>2022-10-15T12:48:36.000Z</time>
      </trkpt>
      <trkpt lat="45.14372" lon="5.39758">
        <ele>775.1</ele>
        <time>2022-10-15T12:48:37.000Z</time>
      </trkpt>
      <trkpt lat="45.14374" lon="5.39759">
        <ele>775.3</ele>
        <time>2022-10-15T12:48:38.000Z</time>
      </trkpt>
      <trkpt lat="45.14375" lon="5.3976">
        <ele>775.5</ele>
        <time>2022-10-15T12:48:39.000Z</time>
      </trkpt>
      <trkpt lat="45.14377" lon="5.39762">
        <ele>775.7</ele>
        <time>2022-10-15T12:48:40.000Z</time>
      </trkpt>
      <trkpt lat="45.14379" lon="5.39763">
        <ele>775.8</ele>
        <time>2022-10-15T12:48:41.000Z</time>
      </trkpt>
      <trkpt lat="45.14381" lon="5.39766">
        <ele>775.9</ele>
        <time>2022-10-15T12:48:42.000Z</time>
      </trkpt>
      <trkpt lat="45.14383" lon="5.39768">
        <ele>776</ele>
        <time>2022-10-15T12:48:43.000Z</time>
      </trkpt>
      <trkpt lat="45.14384" lon="5.39769">
        <ele>776.1</ele>
        <time>2022-10-15T12:48:44.000Z</time>
      </trkpt>
      <trkpt lat="45.14387" lon="5.39773">
        <ele>776.2</ele>
        <time>2022-10-15T12:48:46.000Z</time>
      </trkpt>
      <trkpt lat="45.14389" lon="5.39774">
        <ele>776.4</ele>
        <time>2022-10-15T12:48:47.000Z</time>
      </trkpt>
      <trkpt lat="45.14392" lon="5.39778">
        <ele>776.4</ele>
        <time>2022-10-15T12:48:49.000Z</time>
      </trkpt>
      <trkpt lat="45.14395" lon="5.3978">
        <ele>776.5</ele>
        <time>2022-10-15T12:48:51.000Z</time>
      </trkpt>
      <trkpt lat="45.14397" lon="5.39782">
        <ele>776.6</ele>
        <time>2022-10-15T12:48:52.000Z</time>
      </trkpt>
      <trkpt lat="45.14399" lon="5.39784">
        <ele>776.7</ele>
        <time>2022-10-15T12:48:53.000Z</time>
      </trkpt>
      <trkpt lat="45.14401" lon="5.39786">
        <ele>776.7</ele>
        <time>2022-10-15T12:48:54.000Z</time>
      </trkpt>
      <trkpt lat="45.14404" lon="5.39788">
        <ele>776.9</ele>
        <time>2022-10-15T12:48:55.000Z</time>
      </trkpt>
      <trkpt lat="45.14406" lon="5.39789">
        <ele>777.1</ele>
        <time>2022-10-15T12:48:56.000Z</time>
      </trkpt>
      <trkpt lat="45.14408" lon="5.39791">
        <ele>777.2</ele>
        <time>2022-10-15T12:48:57.000Z</time>
      </trkpt>
      <trkpt lat="45.14409" lon="5.39793">
        <ele>777.1</ele>
        <time>2022-10-15T12:48:58.000Z</time>
      </trkpt>
      <trkpt lat="45.14411" lon="5.39795">
        <ele>777.1</ele>
        <time>2022-10-15T12:48:59.000Z</time>
      </trkpt>
      <trkpt lat="45.14412" lon="5.39796">
        <ele>777.2</ele>
        <time>2022-10-15T12:49:00.000Z</time>
      </trkpt>
      <trkpt lat="45.14414" lon="5.39799">
        <ele>777.3</ele>
        <time>2022-10-15T12:49:02.000Z</time>
      </trkpt>
      <trkpt lat="45.14416" lon="5.39801">
        <ele>777.4</ele>
        <time>2022-10-15T12:49:03.000Z</time>
      </trkpt>
      <trkpt lat="45.14418" lon="5.39803">
        <ele>777.4</ele>
        <time>2022-10-15T12:49:04.000Z</time>
      </trkpt>
      <trkpt lat="45.1442" lon="5.39806">
        <ele>777.3</ele>
        <time>2022-10-15T12:49:05.000Z</time>
      </trkpt>
      <trkpt lat="45.14422" lon="5.39809">
        <ele>777.2</ele>
        <time>2022-10-15T12:49:06.000Z</time>
      </trkpt>
      <trkpt lat="45.14424" lon="5.39812">
        <ele>777</ele>
        <time>2022-10-15T12:49:07.000Z</time>
      </trkpt>
      <trkpt lat="45.14426" lon="5.39814">
        <ele>777</ele>
        <time>2022-10-15T12:49:08.000Z</time>
      </trkpt>
      <trkpt lat="45.14429" lon="5.39816">
        <ele>777.1</ele>
        <time>2022-10-15T12:49:09.000Z</time>
      </trkpt>
      <trkpt lat="45.14432" lon="5.39818">
        <ele>777.2</ele>
        <time>2022-10-15T12:49:10.000Z</time>
      </trkpt>
      <trkpt lat="45.14434" lon="5.3982">
        <ele>777.2</ele>
        <time>2022-10-15T12:49:11.000Z</time>
      </trkpt>
      <trkpt lat="45.14437" lon="5.39824">
        <ele>777.2</ele>
        <time>2022-10-15T12:49:12.000Z</time>
      </trkpt>
      <trkpt lat="45.1444" lon="5.39826">
        <ele>777.3</ele>
        <time>2022-10-15T12:49:13.000Z</time>
      </trkpt>
      <trkpt lat="45.14443" lon="5.39829">
        <ele>777.3</ele>
        <time>2022-10-15T12:49:14.000Z</time>
      </trkpt>
      <trkpt lat="45.14446" lon="5.39832">
        <ele>777.4</ele>
        <time>2022-10-15T12:49:15.000Z</time>
      </trkpt>
      <trkpt lat="45.1445" lon="5.39835">
        <ele>777.5</ele>
        <time>2022-10-15T12:49:16.000Z</time>
      </trkpt>
      <trkpt lat="45.14453" lon="5.39839">
        <ele>777.5</ele>
        <time>2022-10-15T12:49:17.000Z</time>
      </trkpt>
      <trkpt lat="45.14456" lon="5.39842">
        <ele>777.6</ele>
        <time>2022-10-15T12:49:18.000Z</time>
      </trkpt>
      <trkpt lat="45.14459" lon="5.39845">
        <ele>777.7</ele>
        <time>2022-10-15T12:49:19.000Z</time>
      </trkpt>
      <trkpt lat="45.14462" lon="5.39848">
        <ele>777.8</ele>
        <time>2022-10-15T12:49:20.000Z</time>
      </trkpt>
      <trkpt lat="45.14466" lon="5.39851">
        <ele>778</ele>
        <time>2022-10-15T12:49:21.000Z</time>
      </trkpt>
      <trkpt lat="45.14469" lon="5.39854">
        <ele>778.2</ele>
        <time>2022-10-15T12:49:22.000Z</time>
      </trkpt>
      <trkpt lat="45.14473" lon="5.39857">
        <ele>778.5</ele>
        <time>2022-10-15T12:49:23.000Z</time>
      </trkpt>
      <trkpt lat="45.14476" lon="5.3986">
        <ele>778.6</ele>
        <time>2022-10-15T12:49:24.000Z</time>
      </trkpt>
      <trkpt lat="45.14479" lon="5.39863">
        <ele>778.6</ele>
        <time>2022-10-15T12:49:25.000Z</time>
      </trkpt>
      <trkpt lat="45.14482" lon="5.39865">
        <ele>778.7</ele>
        <time>2022-10-15T12:49:26.000Z</time>
      </trkpt>
      <trkpt lat="45.14484" lon="5.39868">
        <ele>778.6</ele>
        <time>2022-10-15T12:49:27.000Z</time>
      </trkpt>
      <trkpt lat="45.14486" lon="5.3987">
        <ele>778.6</ele>
        <time>2022-10-15T12:49:28.000Z</time>
      </trkpt>
      <trkpt lat="45.14489" lon="5.39872">
        <ele>778.7</ele>
        <time>2022-10-15T12:49:29.000Z</time>
      </trkpt>
      <trkpt lat="45.14491" lon="5.39874">
        <ele>778.7</ele>
        <time>2022-10-15T12:49:30.000Z</time>
      </trkpt>
      <trkpt lat="45.14493" lon="5.39876">
        <ele>778.8</ele>
        <time>2022-10-15T12:49:31.000Z</time>
      </trkpt>
      <trkpt lat="45.14496" lon="5.39878">
        <ele>778.9</ele>
        <time>2022-10-15T12:49:32.000Z</time>
      </trkpt>
      <trkpt lat="45.14498" lon="5.3988">
        <ele>779</ele>
        <time>2022-10-15T12:49:33.000Z</time>
      </trkpt>
      <trkpt lat="45.14501" lon="5.39882">
        <ele>779.1</ele>
        <time>2022-10-15T12:49:34.000Z</time>
      </trkpt>
      <trkpt lat="45.14504" lon="5.39884">
        <ele>779.3</ele>
        <time>2022-10-15T12:49:35.000Z</time>
      </trkpt>
      <trkpt lat="45.14507" lon="5.39886">
        <ele>779.3</ele>
        <time>2022-10-15T12:49:36.000Z</time>
      </trkpt>
      <trkpt lat="45.1451" lon="5.39889">
        <ele>779.4</ele>
        <time>2022-10-15T12:49:37.000Z</time>
      </trkpt>
      <trkpt lat="45.14513" lon="5.39891">
        <ele>779.5</ele>
        <time>2022-10-15T12:49:38.000Z</time>
      </trkpt>
      <trkpt lat="45.14516" lon="5.39893">
        <ele>779.5</ele>
        <time>2022-10-15T12:49:39.000Z</time>
      </trkpt>
      <trkpt lat="45.14519" lon="5.39896">
        <ele>779.5</ele>
        <time>2022-10-15T12:49:40.000Z</time>
      </trkpt>
      <trkpt lat="45.14521" lon="5.39897">
        <ele>779.5</ele>
        <time>2022-10-15T12:49:41.000Z</time>
      </trkpt>
      <trkpt lat="45.14524" lon="5.39899">
        <ele>779.6</ele>
        <time>2022-10-15T12:49:42.000Z</time>
      </trkpt>
      <trkpt lat="45.14526" lon="5.39901">
        <ele>779.6</ele>
        <time>2022-10-15T12:49:43.000Z</time>
      </trkpt>
      <trkpt lat="45.14529" lon="5.39903">
        <ele>779.7</ele>
        <time>2022-10-15T12:49:44.000Z</time>
      </trkpt>
      <trkpt lat="45.14532" lon="5.39905">
        <ele>779.6</ele>
        <time>2022-10-15T12:49:45.000Z</time>
      </trkpt>
      <trkpt lat="45.14535" lon="5.39906">
        <ele>779.6</ele>
        <time>2022-10-15T12:49:46.000Z</time>
      </trkpt>
      <trkpt lat="45.14538" lon="5.39908">
        <ele>779.6</ele>
        <time>2022-10-15T12:49:47.000Z</time>
      </trkpt>
      <trkpt lat="45.14541" lon="5.3991">
        <ele>779.6</ele>
        <time>2022-10-15T12:49:48.000Z</time>
      </trkpt>
      <trkpt lat="45.14544" lon="5.39912">
        <ele>779.6</ele>
        <time>2022-10-15T12:49:49.000Z</time>
      </trkpt>
      <trkpt lat="45.14547" lon="5.39914">
        <ele>779.5</ele>
        <time>2022-10-15T12:49:50.000Z</time>
      </trkpt>
      <trkpt lat="45.14549" lon="5.39916">
        <ele>779.4</ele>
        <time>2022-10-15T12:49:51.000Z</time>
      </trkpt>
      <trkpt lat="45.14552" lon="5.39919">
        <ele>779.2</ele>
        <time>2022-10-15T12:49:52.000Z</time>
      </trkpt>
      <trkpt lat="45.14555" lon="5.39921">
        <ele>779.1</ele>
        <time>2022-10-15T12:49:53.000Z</time>
      </trkpt>
      <trkpt lat="45.14557" lon="5.39923">
        <ele>779</ele>
        <time>2022-10-15T12:49:54.000Z</time>
      </trkpt>
      <trkpt lat="45.14559" lon="5.39924">
        <ele>779</ele>
        <time>2022-10-15T12:49:55.000Z</time>
      </trkpt>
      <trkpt lat="45.14561" lon="5.39926">
        <ele>779</ele>
        <time>2022-10-15T12:49:56.000Z</time>
      </trkpt>
      <trkpt lat="45.14563" lon="5.39927">
        <ele>779</ele>
        <time>2022-10-15T12:49:57.000Z</time>
      </trkpt>
      <trkpt lat="45.14566" lon="5.39928">
        <ele>779.1</ele>
        <time>2022-10-15T12:49:59.000Z</time>
      </trkpt>
      <trkpt lat="45.14568" lon="5.39929">
        <ele>779.1</ele>
        <time>2022-10-15T12:50:00.000Z</time>
      </trkpt>
      <trkpt lat="45.1457" lon="5.3993">
        <ele>779.1</ele>
        <time>2022-10-15T12:50:01.000Z</time>
      </trkpt>
      <trkpt lat="45.14572" lon="5.39932">
        <ele>779</ele>
        <time>2022-10-15T12:50:02.000Z</time>
      </trkpt>
      <trkpt lat="45.14574" lon="5.39933">
        <ele>779</ele>
        <time>2022-10-15T12:50:03.000Z</time>
      </trkpt>
      <trkpt lat="45.14576" lon="5.39934">
        <ele>779</ele>
        <time>2022-10-15T12:50:04.000Z</time>
      </trkpt>
      <trkpt lat="45.14578" lon="5.39936">
        <ele>779</ele>
        <time>2022-10-15T12:50:05.000Z</time>
      </trkpt>
      <trkpt lat="45.1458" lon="5.39938">
        <ele>778.9</ele>
        <time>2022-10-15T12:50:07.000Z</time>
      </trkpt>
      <trkpt lat="45.14584" lon="5.3994">
        <ele>778.9</ele>
        <time>2022-10-15T12:50:09.000Z</time>
      </trkpt>
      <trkpt lat="45.14586" lon="5.3994">
        <ele>779.1</ele>
        <time>2022-10-15T12:50:10.000Z</time>
      </trkpt>
      <trkpt lat="45.14588" lon="5.39941">
        <ele>779.4</ele>
        <time>2022-10-15T12:50:11.000Z</time>
      </trkpt>
      <trkpt lat="45.1459" lon="5.39942">
        <ele>779.7</ele>
        <time>2022-10-15T12:50:12.000Z</time>
      </trkpt>
      <trkpt lat="45.14594" lon="5.39943">
        <ele>780</ele>
        <time>2022-10-15T12:50:14.000Z</time>
      </trkpt>
      <trkpt lat="45.14595" lon="5.39944">
        <ele>780.2</ele>
        <time>2022-10-15T12:50:15.000Z</time>
      </trkpt>
      <trkpt lat="45.14598" lon="5.39945">
        <ele>780.4</ele>
        <time>2022-10-15T12:50:16.000Z</time>
      </trkpt>
      <trkpt lat="45.146" lon="5.39946">
        <ele>780.7</ele>
        <time>2022-10-15T12:50:17.000Z</time>
      </trkpt>
      <trkpt lat="45.14602" lon="5.39948">
        <ele>780.9</ele>
        <time>2022-10-15T12:50:18.000Z</time>
      </trkpt>
      <trkpt lat="45.14603" lon="5.39948">
        <ele>781.1</ele>
        <time>2022-10-15T12:50:19.000Z</time>
      </trkpt>
      <trkpt lat="45.14605" lon="5.39949">
        <ele>781.3</ele>
        <time>2022-10-15T12:50:20.000Z</time>
      </trkpt>
      <trkpt lat="45.14607" lon="5.3995">
        <ele>781.6</ele>
        <time>2022-10-15T12:50:21.000Z</time>
      </trkpt>
      <trkpt lat="45.1461" lon="5.39951">
        <ele>781.8</ele>
        <time>2022-10-15T12:50:22.000Z</time>
      </trkpt>
      <trkpt lat="45.14612" lon="5.39952">
        <ele>782</ele>
        <time>2022-10-15T12:50:23.000Z</time>
      </trkpt>
      <trkpt lat="45.14614" lon="5.39953">
        <ele>782.3</ele>
        <time>2022-10-15T12:50:24.000Z</time>
      </trkpt>
      <trkpt lat="45.14616" lon="5.39954">
        <ele>782.4</ele>
        <time>2022-10-15T12:50:25.000Z</time>
      </trkpt>
      <trkpt lat="45.14618" lon="5.39955">
        <ele>782.5</ele>
        <time>2022-10-15T12:50:26.000Z</time>
      </trkpt>
      <trkpt lat="45.1462" lon="5.39957">
        <ele>782.6</ele>
        <time>2022-10-15T12:50:27.000Z</time>
      </trkpt>
      <trkpt lat="45.14621" lon="5.39959">
        <ele>782.6</ele>
        <time>2022-10-15T12:50:28.000Z</time>
      </trkpt>
      <trkpt lat="45.14623" lon="5.39963">
        <ele>782.2</ele>
        <time>2022-10-15T12:50:30.000Z</time>
      </trkpt>
      <trkpt lat="45.14624" lon="5.39966">
        <ele>782.1</ele>
        <time>2022-10-15T12:50:31.000Z</time>
      </trkpt>
      <trkpt lat="45.14625" lon="5.3997">
        <ele>781.8</ele>
        <time>2022-10-15T12:50:33.000Z</time>
      </trkpt>
      <trkpt lat="45.14626" lon="5.39973">
        <ele>781.6</ele>
        <time>2022-10-15T12:50:35.000Z</time>
      </trkpt>
      <trkpt lat="45.14627" lon="5.39977">
        <ele>781.4</ele>
        <time>2022-10-15T12:50:38.000Z</time>
      </trkpt>
      <trkpt lat="45.14627" lon="5.39983">
        <ele>781</ele>
        <time>2022-10-15T12:50:40.000Z</time>
      </trkpt>
      <trkpt lat="45.14628" lon="5.39987">
        <ele>780.7</ele>
        <time>2022-10-15T12:50:41.000Z</time>
      </trkpt>
      <trkpt lat="45.14628" lon="5.39992">
        <ele>780.4</ele>
        <time>2022-10-15T12:50:42.000Z</time>
      </trkpt>
      <trkpt lat="45.14629" lon="5.39996">
        <ele>780.2</ele>
        <time>2022-10-15T12:50:43.000Z</time>
      </trkpt>
      <trkpt lat="45.1463" lon="5.39999">
        <ele>780</ele>
        <time>2022-10-15T12:50:44.000Z</time>
      </trkpt>
      <trkpt lat="45.1463" lon="5.40003">
        <ele>779.9</ele>
        <time>2022-10-15T12:50:45.000Z</time>
      </trkpt>
      <trkpt lat="45.1463" lon="5.40007">
        <ele>779.7</ele>
        <time>2022-10-15T12:50:46.000Z</time>
      </trkpt>
      <trkpt lat="45.14631" lon="5.40012">
        <ele>779.5</ele>
        <time>2022-10-15T12:50:47.000Z</time>
      </trkpt>
      <trkpt lat="45.14631" lon="5.40016">
        <ele>779.2</ele>
        <time>2022-10-15T12:50:48.000Z</time>
      </trkpt>
      <trkpt lat="45.14631" lon="5.40021">
        <ele>778.9</ele>
        <time>2022-10-15T12:50:49.000Z</time>
      </trkpt>
      <trkpt lat="45.14631" lon="5.40025">
        <ele>778.6</ele>
        <time>2022-10-15T12:50:50.000Z</time>
      </trkpt>
      <trkpt lat="45.1463" lon="5.40029">
        <ele>778.3</ele>
        <time>2022-10-15T12:50:51.000Z</time>
      </trkpt>
      <trkpt lat="45.1463" lon="5.40033">
        <ele>778.2</ele>
        <time>2022-10-15T12:50:52.000Z</time>
      </trkpt>
      <trkpt lat="45.1463" lon="5.40038">
        <ele>778</ele>
        <time>2022-10-15T12:50:53.000Z</time>
      </trkpt>
      <trkpt lat="45.1463" lon="5.40043">
        <ele>777.9</ele>
        <time>2022-10-15T12:50:54.000Z</time>
      </trkpt>
      <trkpt lat="45.1463" lon="5.40048">
        <ele>777.7</ele>
        <time>2022-10-15T12:50:55.000Z</time>
      </trkpt>
      <trkpt lat="45.14631" lon="5.40053">
        <ele>777.6</ele>
        <time>2022-10-15T12:50:56.000Z</time>
      </trkpt>
      <trkpt lat="45.1463" lon="5.40058">
        <ele>777.5</ele>
        <time>2022-10-15T12:50:57.000Z</time>
      </trkpt>
      <trkpt lat="45.14631" lon="5.40063">
        <ele>777.6</ele>
        <time>2022-10-15T12:50:58.000Z</time>
      </trkpt>
      <trkpt lat="45.14631" lon="5.40068">
        <ele>777.7</ele>
        <time>2022-10-15T12:50:59.000Z</time>
      </trkpt>
      <trkpt lat="45.1463" lon="5.40073">
        <ele>777.6</ele>
        <time>2022-10-15T12:51:00.000Z</time>
      </trkpt>
      <trkpt lat="45.14629" lon="5.40078">
        <ele>777.5</ele>
        <time>2022-10-15T12:51:01.000Z</time>
      </trkpt>
      <trkpt lat="45.14628" lon="5.40084">
        <ele>777.4</ele>
        <time>2022-10-15T12:51:02.000Z</time>
      </trkpt>
      <trkpt lat="45.14626" lon="5.40089">
        <ele>777.4</ele>
        <time>2022-10-15T12:51:03.000Z</time>
      </trkpt>
      <trkpt lat="45.14626" lon="5.40094">
        <ele>777.4</ele>
        <time>2022-10-15T12:51:04.000Z</time>
      </trkpt>
      <trkpt lat="45.14625" lon="5.40099">
        <ele>777.5</ele>
        <time>2022-10-15T12:51:05.000Z</time>
      </trkpt>
      <trkpt lat="45.14623" lon="5.40104">
        <ele>777.6</ele>
        <time>2022-10-15T12:51:06.000Z</time>
      </trkpt>
      <trkpt lat="45.14622" lon="5.40108">
        <ele>777.6</ele>
        <time>2022-10-15T12:51:07.000Z</time>
      </trkpt>
      <trkpt lat="45.14621" lon="5.40113">
        <ele>777.8</ele>
        <time>2022-10-15T12:51:08.000Z</time>
      </trkpt>
      <trkpt lat="45.1462" lon="5.40117">
        <ele>778</ele>
        <time>2022-10-15T12:51:09.000Z</time>
      </trkpt>
      <trkpt lat="45.14618" lon="5.40122">
        <ele>778.2</ele>
        <time>2022-10-15T12:51:10.000Z</time>
      </trkpt>
      <trkpt lat="45.14617" lon="5.40126">
        <ele>778.4</ele>
        <time>2022-10-15T12:51:11.000Z</time>
      </trkpt>
      <trkpt lat="45.14616" lon="5.40131">
        <ele>778.6</ele>
        <time>2022-10-15T12:51:12.000Z</time>
      </trkpt>
      <trkpt lat="45.14615" lon="5.40136">
        <ele>778.9</ele>
        <time>2022-10-15T12:51:13.000Z</time>
      </trkpt>
      <trkpt lat="45.14615" lon="5.4014">
        <ele>779.2</ele>
        <time>2022-10-15T12:51:14.000Z</time>
      </trkpt>
      <trkpt lat="45.14615" lon="5.40144">
        <ele>779.5</ele>
        <time>2022-10-15T12:51:15.000Z</time>
      </trkpt>
      <trkpt lat="45.14614" lon="5.40148">
        <ele>779.7</ele>
        <time>2022-10-15T12:51:16.000Z</time>
      </trkpt>
      <trkpt lat="45.14613" lon="5.40152">
        <ele>779.9</ele>
        <time>2022-10-15T12:51:17.000Z</time>
      </trkpt>
      <trkpt lat="45.14612" lon="5.40155">
        <ele>780.2</ele>
        <time>2022-10-15T12:51:18.000Z</time>
      </trkpt>
      <trkpt lat="45.14612" lon="5.40158">
        <ele>780.4</ele>
        <time>2022-10-15T12:51:19.000Z</time>
      </trkpt>
      <trkpt lat="45.14611" lon="5.40163">
        <ele>780.8</ele>
        <time>2022-10-15T12:51:21.000Z</time>
      </trkpt>
      <trkpt lat="45.14609" lon="5.40168">
        <ele>781.2</ele>
        <time>2022-10-15T12:51:23.000Z</time>
      </trkpt>
      <trkpt lat="45.14609" lon="5.4017">
        <ele>781.4</ele>
        <time>2022-10-15T12:51:24.000Z</time>
      </trkpt>
      <trkpt lat="45.14608" lon="5.40173">
        <ele>781.6</ele>
        <time>2022-10-15T12:51:25.000Z</time>
      </trkpt>
      <trkpt lat="45.1461" lon="5.40178">
        <ele>781.9</ele>
        <time>2022-10-15T12:51:27.000Z</time>
      </trkpt>
      <trkpt lat="45.14609" lon="5.40181">
        <ele>782.2</ele>
        <time>2022-10-15T12:51:29.000Z</time>
      </trkpt>
      <trkpt lat="45.14607" lon="5.40183">
        <ele>782.5</ele>
        <time>2022-10-15T12:51:31.000Z</time>
      </trkpt>
      <trkpt lat="45.14605" lon="5.40187">
        <ele>782.9</ele>
        <time>2022-10-15T12:51:33.000Z</time>
      </trkpt>
      <trkpt lat="45.14605" lon="5.40192">
        <ele>783.2</ele>
        <time>2022-10-15T12:51:35.000Z</time>
      </trkpt>
      <trkpt lat="45.14602" lon="5.40192">
        <ele>783.5</ele>
        <time>2022-10-15T12:51:36.000Z</time>
      </trkpt>
      <trkpt lat="45.146" lon="5.40193">
        <ele>783.7</ele>
        <time>2022-10-15T12:51:37.000Z</time>
      </trkpt>
      <trkpt lat="45.14599" lon="5.40195">
        <ele>783.9</ele>
        <time>2022-10-15T12:51:38.000Z</time>
      </trkpt>
      <trkpt lat="45.14597" lon="5.40199">
        <ele>784.1</ele>
        <time>2022-10-15T12:51:40.000Z</time>
      </trkpt>
      <trkpt lat="45.14595" lon="5.40202">
        <ele>784.3</ele>
        <time>2022-10-15T12:51:42.000Z</time>
      </trkpt>
      <trkpt lat="45.14592" lon="5.40206">
        <ele>784.6</ele>
        <time>2022-10-15T12:51:44.000Z</time>
      </trkpt>
      <trkpt lat="45.14591" lon="5.40208">
        <ele>784.8</ele>
        <time>2022-10-15T12:51:45.000Z</time>
      </trkpt>
      <trkpt lat="45.14589" lon="5.4021">
        <ele>785</ele>
        <time>2022-10-15T12:51:46.000Z</time>
      </trkpt>
      <trkpt lat="45.14588" lon="5.40211">
        <ele>785.2</ele>
        <time>2022-10-15T12:51:47.000Z</time>
      </trkpt>
      <trkpt lat="45.14585" lon="5.40213">
        <ele>785.5</ele>
        <time>2022-10-15T12:51:49.000Z</time>
      </trkpt>
      <trkpt lat="45.14582" lon="5.40215">
        <ele>785.8</ele>
        <time>2022-10-15T12:51:51.000Z</time>
      </trkpt>
      <trkpt lat="45.14578" lon="5.40216">
        <ele>786.1</ele>
        <time>2022-10-15T12:51:53.000Z</time>
      </trkpt>
      <trkpt lat="45.14576" lon="5.40217">
        <ele>786.3</ele>
        <time>2022-10-15T12:51:55.000Z</time>
      </trkpt>
      <trkpt lat="45.14573" lon="5.40216">
        <ele>786.5</ele>
        <time>2022-10-15T12:51:57.000Z</time>
      </trkpt>
      <trkpt lat="45.14571" lon="5.40218">
        <ele>786.7</ele>
        <time>2022-10-15T12:51:59.000Z</time>
      </trkpt>
      <trkpt lat="45.14569" lon="5.40222">
        <ele>787</ele>
        <time>2022-10-15T12:52:01.000Z</time>
      </trkpt>
      <trkpt lat="45.14567" lon="5.40226">
        <ele>787.4</ele>
        <time>2022-10-15T12:52:03.000Z</time>
      </trkpt>
      <trkpt lat="45.14563" lon="5.40229">
        <ele>787.9</ele>
        <time>2022-10-15T12:52:04.000Z</time>
      </trkpt>
      <trkpt lat="45.14561" lon="5.40233">
        <ele>788.3</ele>
        <time>2022-10-15T12:52:06.000Z</time>
      </trkpt>
      <trkpt lat="45.1456" lon="5.40236">
        <ele>788.6</ele>
        <time>2022-10-15T12:52:07.000Z</time>
      </trkpt>
      <trkpt lat="45.14559" lon="5.40239">
        <ele>788.9</ele>
        <time>2022-10-15T12:52:08.000Z</time>
      </trkpt>
      <trkpt lat="45.14558" lon="5.40241">
        <ele>789.1</ele>
        <time>2022-10-15T12:52:09.000Z</time>
      </trkpt>
      <trkpt lat="45.14556" lon="5.40243">
        <ele>789.4</ele>
        <time>2022-10-15T12:52:10.000Z</time>
      </trkpt>
      <trkpt lat="45.14553" lon="5.40245">
        <ele>789.7</ele>
        <time>2022-10-15T12:52:12.000Z</time>
      </trkpt>
      <trkpt lat="45.1455" lon="5.40248">
        <ele>789.8</ele>
        <time>2022-10-15T12:52:14.000Z</time>
      </trkpt>
      <trkpt lat="45.14549" lon="5.40251">
        <ele>790</ele>
        <time>2022-10-15T12:52:16.000Z</time>
      </trkpt>
      <trkpt lat="45.14549" lon="5.40255">
        <ele>790.2</ele>
        <time>2022-10-15T12:52:18.000Z</time>
      </trkpt>
      <trkpt lat="45.14547" lon="5.40258">
        <ele>790.4</ele>
        <time>2022-10-15T12:52:20.000Z</time>
      </trkpt>
      <trkpt lat="45.1455" lon="5.40265">
        <ele>790.6</ele>
        <time>2022-10-15T12:52:21.000Z</time>
      </trkpt>
      <trkpt lat="45.1455" lon="5.40269">
        <ele>790.8</ele>
        <time>2022-10-15T12:52:23.000Z</time>
      </trkpt>
      <trkpt lat="45.14547" lon="5.40272">
        <ele>791</ele>
        <time>2022-10-15T12:52:25.000Z</time>
      </trkpt>
      <trkpt lat="45.14545" lon="5.40276">
        <ele>791.3</ele>
        <time>2022-10-15T12:52:27.000Z</time>
      </trkpt>
      <trkpt lat="45.14543" lon="5.40279">
        <ele>791.5</ele>
        <time>2022-10-15T12:52:28.000Z</time>
      </trkpt>
      <trkpt lat="45.14542" lon="5.40281">
        <ele>791.7</ele>
        <time>2022-10-15T12:52:29.000Z</time>
      </trkpt>
      <trkpt lat="45.14541" lon="5.40283">
        <ele>791.9</ele>
        <time>2022-10-15T12:52:30.000Z</time>
      </trkpt>
      <trkpt lat="45.14538" lon="5.40286">
        <ele>792.2</ele>
        <time>2022-10-15T12:52:31.000Z</time>
      </trkpt>
      <trkpt lat="45.14536" lon="5.40289">
        <ele>792.5</ele>
        <time>2022-10-15T12:52:32.000Z</time>
      </trkpt>
      <trkpt lat="45.14534" lon="5.40292">
        <ele>792.8</ele>
        <time>2022-10-15T12:52:33.000Z</time>
      </trkpt>
      <trkpt lat="45.14532" lon="5.40295">
        <ele>793.1</ele>
        <time>2022-10-15T12:52:34.000Z</time>
      </trkpt>
      <trkpt lat="45.14529" lon="5.40298">
        <ele>793.4</ele>
        <time>2022-10-15T12:52:35.000Z</time>
      </trkpt>
      <trkpt lat="45.14528" lon="5.403">
        <ele>793.6</ele>
        <time>2022-10-15T12:52:36.000Z</time>
      </trkpt>
      <trkpt lat="45.14526" lon="5.40302">
        <ele>793.6</ele>
        <time>2022-10-15T12:52:37.000Z</time>
      </trkpt>
      <trkpt lat="45.14524" lon="5.40304">
        <ele>793.6</ele>
        <time>2022-10-15T12:52:38.000Z</time>
      </trkpt>
      <trkpt lat="45.14522" lon="5.40305">
        <ele>793.6</ele>
        <time>2022-10-15T12:52:39.000Z</time>
      </trkpt>
      <trkpt lat="45.14521" lon="5.40308">
        <ele>793.7</ele>
        <time>2022-10-15T12:52:40.000Z</time>
      </trkpt>
      <trkpt lat="45.14519" lon="5.40309">
        <ele>793.8</ele>
        <time>2022-10-15T12:52:41.000Z</time>
      </trkpt>
      <trkpt lat="45.14518" lon="5.40312">
        <ele>793.9</ele>
        <time>2022-10-15T12:52:42.000Z</time>
      </trkpt>
      <trkpt lat="45.14516" lon="5.40314">
        <ele>794</ele>
        <time>2022-10-15T12:52:43.000Z</time>
      </trkpt>
      <trkpt lat="45.14514" lon="5.40316">
        <ele>794.2</ele>
        <time>2022-10-15T12:52:44.000Z</time>
      </trkpt>
      <trkpt lat="45.14513" lon="5.40319">
        <ele>794.4</ele>
        <time>2022-10-15T12:52:45.000Z</time>
      </trkpt>
      <trkpt lat="45.14512" lon="5.40321">
        <ele>794.6</ele>
        <time>2022-10-15T12:52:46.000Z</time>
      </trkpt>
      <trkpt lat="45.14511" lon="5.40324">
        <ele>794.8</ele>
        <time>2022-10-15T12:52:47.000Z</time>
      </trkpt>
      <trkpt lat="45.14509" lon="5.40329">
        <ele>795.1</ele>
        <time>2022-10-15T12:52:49.000Z</time>
      </trkpt>
      <trkpt lat="45.14508" lon="5.40331">
        <ele>795.3</ele>
        <time>2022-10-15T12:52:50.000Z</time>
      </trkpt>
      <trkpt lat="45.14508" lon="5.40336">
        <ele>795.8</ele>
        <time>2022-10-15T12:52:52.000Z</time>
      </trkpt>
      <trkpt lat="45.14507" lon="5.40339">
        <ele>796.1</ele>
        <time>2022-10-15T12:52:53.000Z</time>
      </trkpt>
      <trkpt lat="45.14507" lon="5.40342">
        <ele>796.4</ele>
        <time>2022-10-15T12:52:54.000Z</time>
      </trkpt>
      <trkpt lat="45.14506" lon="5.40345">
        <ele>796.7</ele>
        <time>2022-10-15T12:52:55.000Z</time>
      </trkpt>
      <trkpt lat="45.14506" lon="5.40348">
        <ele>797</ele>
        <time>2022-10-15T12:52:56.000Z</time>
      </trkpt>
      <trkpt lat="45.14506" lon="5.40351">
        <ele>797.3</ele>
        <time>2022-10-15T12:52:57.000Z</time>
      </trkpt>
      <trkpt lat="45.14505" lon="5.40354">
        <ele>797.6</ele>
        <time>2022-10-15T12:52:58.000Z</time>
      </trkpt>
      <trkpt lat="45.14505" lon="5.40357">
        <ele>797.9</ele>
        <time>2022-10-15T12:52:59.000Z</time>
      </trkpt>
      <trkpt lat="45.14505" lon="5.40361">
        <ele>798.3</ele>
        <time>2022-10-15T12:53:00.000Z</time>
      </trkpt>
      <trkpt lat="45.14505" lon="5.40365">
        <ele>798.8</ele>
        <time>2022-10-15T12:53:01.000Z</time>
      </trkpt>
      <trkpt lat="45.14505" lon="5.40369">
        <ele>799.3</ele>
        <time>2022-10-15T12:53:02.000Z</time>
      </trkpt>
      <trkpt lat="45.14506" lon="5.40373">
        <ele>799.8</ele>
        <time>2022-10-15T12:53:03.000Z</time>
      </trkpt>
      <trkpt lat="45.14506" lon="5.40378">
        <ele>800.3</ele>
        <time>2022-10-15T12:53:04.000Z</time>
      </trkpt>
      <trkpt lat="45.14506" lon="5.40382">
        <ele>800.9</ele>
        <time>2022-10-15T12:53:05.000Z</time>
      </trkpt>
      <trkpt lat="45.14507" lon="5.40386">
        <ele>801.3</ele>
        <time>2022-10-15T12:53:06.000Z</time>
      </trkpt>
      <trkpt lat="45.14507" lon="5.40389">
        <ele>801.8</ele>
        <time>2022-10-15T12:53:07.000Z</time>
      </trkpt>
      <trkpt lat="45.14508" lon="5.40394">
        <ele>802.3</ele>
        <time>2022-10-15T12:53:08.000Z</time>
      </trkpt>
      <trkpt lat="45.14509" lon="5.40397">
        <ele>802.9</ele>
        <time>2022-10-15T12:53:09.000Z</time>
      </trkpt>
      <trkpt lat="45.1451" lon="5.404">
        <ele>803.3</ele>
        <time>2022-10-15T12:53:10.000Z</time>
      </trkpt>
      <trkpt lat="45.14511" lon="5.40403">
        <ele>803.7</ele>
        <time>2022-10-15T12:53:11.000Z</time>
      </trkpt>
      <trkpt lat="45.14513" lon="5.40407">
        <ele>804.3</ele>
        <time>2022-10-15T12:53:12.000Z</time>
      </trkpt>
      <trkpt lat="45.14516" lon="5.4041">
        <ele>804.9</ele>
        <time>2022-10-15T12:53:14.000Z</time>
      </trkpt>
      <trkpt lat="45.14518" lon="5.40412">
        <ele>805.4</ele>
        <time>2022-10-15T12:53:16.000Z</time>
      </trkpt>
      <trkpt lat="45.1452" lon="5.40413">
        <ele>805.8</ele>
        <time>2022-10-15T12:53:17.000Z</time>
      </trkpt>
      <trkpt lat="45.14523" lon="5.40414">
        <ele>806.2</ele>
        <time>2022-10-15T12:53:19.000Z</time>
      </trkpt>
      <trkpt lat="45.14525" lon="5.40415">
        <ele>806.5</ele>
        <time>2022-10-15T12:53:20.000Z</time>
      </trkpt>
      <trkpt lat="45.14527" lon="5.40416">
        <ele>806.8</ele>
        <time>2022-10-15T12:53:22.000Z</time>
      </trkpt>
      <trkpt lat="45.14528" lon="5.40418">
        <ele>807.1</ele>
        <time>2022-10-15T12:53:24.000Z</time>
      </trkpt>
      <trkpt lat="45.1453" lon="5.4042">
        <ele>807.3</ele>
        <time>2022-10-15T12:53:26.000Z</time>
      </trkpt>
      <trkpt lat="45.14532" lon="5.40423">
        <ele>807.5</ele>
        <time>2022-10-15T12:53:28.000Z</time>
      </trkpt>
      <trkpt lat="45.14534" lon="5.40423">
        <ele>807.5</ele>
        <time>2022-10-15T12:53:29.000Z</time>
      </trkpt>
      <trkpt lat="45.14536" lon="5.40424">
        <ele>807.6</ele>
        <time>2022-10-15T12:53:30.000Z</time>
      </trkpt>
      <trkpt lat="45.14539" lon="5.40423">
        <ele>807.4</ele>
        <time>2022-10-15T12:53:32.000Z</time>
      </trkpt>
      <trkpt lat="45.14541" lon="5.40424">
        <ele>807.4</ele>
        <time>2022-10-15T12:53:33.000Z</time>
      </trkpt>
      <trkpt lat="45.14543" lon="5.40425">
        <ele>807.5</ele>
        <time>2022-10-15T12:53:34.000Z</time>
      </trkpt>
      <trkpt lat="45.14545" lon="5.40426">
        <ele>807.6</ele>
        <time>2022-10-15T12:53:35.000Z</time>
      </trkpt>
      <trkpt lat="45.14547" lon="5.40426">
        <ele>807.5</ele>
        <time>2022-10-15T12:53:36.000Z</time>
      </trkpt>
      <trkpt lat="45.1455" lon="5.40426">
        <ele>807.5</ele>
        <time>2022-10-15T12:53:37.000Z</time>
      </trkpt>
      <trkpt lat="45.14552" lon="5.40426">
        <ele>807.5</ele>
        <time>2022-10-15T12:53:38.000Z</time>
      </trkpt>
      <trkpt lat="45.14554" lon="5.40427">
        <ele>807.5</ele>
        <time>2022-10-15T12:53:39.000Z</time>
      </trkpt>
      <trkpt lat="45.14557" lon="5.40428">
        <ele>807.5</ele>
        <time>2022-10-15T12:53:40.000Z</time>
      </trkpt>
      <trkpt lat="45.14559" lon="5.40428">
        <ele>807.4</ele>
        <time>2022-10-15T12:53:41.000Z</time>
      </trkpt>
      <trkpt lat="45.14563" lon="5.4043">
        <ele>807.4</ele>
        <time>2022-10-15T12:53:43.000Z</time>
      </trkpt>
      <trkpt lat="45.14564" lon="5.40431">
        <ele>807.5</ele>
        <time>2022-10-15T12:53:44.000Z</time>
      </trkpt>
      <trkpt lat="45.14566" lon="5.40433">
        <ele>807.6</ele>
        <time>2022-10-15T12:53:45.000Z</time>
      </trkpt>
      <trkpt lat="45.14568" lon="5.40434">
        <ele>807.6</ele>
        <time>2022-10-15T12:53:46.000Z</time>
      </trkpt>
      <trkpt lat="45.1457" lon="5.40435">
        <ele>807.7</ele>
        <time>2022-10-15T12:53:47.000Z</time>
      </trkpt>
      <trkpt lat="45.14572" lon="5.40437">
        <ele>807.7</ele>
        <time>2022-10-15T12:53:48.000Z</time>
      </trkpt>
      <trkpt lat="45.14573" lon="5.40438">
        <ele>807.8</ele>
        <time>2022-10-15T12:53:49.000Z</time>
      </trkpt>
      <trkpt lat="45.14577" lon="5.40441">
        <ele>808</ele>
        <time>2022-10-15T12:53:51.000Z</time>
      </trkpt>
      <trkpt lat="45.14578" lon="5.40443">
        <ele>808.2</ele>
        <time>2022-10-15T12:53:52.000Z</time>
      </trkpt>
      <trkpt lat="45.1458" lon="5.40447">
        <ele>808.5</ele>
        <time>2022-10-15T12:53:54.000Z</time>
      </trkpt>
      <trkpt lat="45.14581" lon="5.40449">
        <ele>808.7</ele>
        <time>2022-10-15T12:53:55.000Z</time>
      </trkpt>
      <trkpt lat="45.14583" lon="5.40451">
        <ele>808.8</ele>
        <time>2022-10-15T12:53:56.000Z</time>
      </trkpt>
      <trkpt lat="45.14584" lon="5.40454">
        <ele>808.9</ele>
        <time>2022-10-15T12:53:57.000Z</time>
      </trkpt>
      <trkpt lat="45.14585" lon="5.40456">
        <ele>808.9</ele>
        <time>2022-10-15T12:53:58.000Z</time>
      </trkpt>
      <trkpt lat="45.14587" lon="5.40458">
        <ele>808.9</ele>
        <time>2022-10-15T12:53:59.000Z</time>
      </trkpt>
      <trkpt lat="45.14589" lon="5.4046">
        <ele>808.9</ele>
        <time>2022-10-15T12:54:00.000Z</time>
      </trkpt>
      <trkpt lat="45.14591" lon="5.40461">
        <ele>808.8</ele>
        <time>2022-10-15T12:54:01.000Z</time>
      </trkpt>
      <trkpt lat="45.14592" lon="5.40463">
        <ele>808.8</ele>
        <time>2022-10-15T12:54:02.000Z</time>
      </trkpt>
      <trkpt lat="45.14594" lon="5.40465">
        <ele>808.7</ele>
        <time>2022-10-15T12:54:03.000Z</time>
      </trkpt>
      <trkpt lat="45.14597" lon="5.40468">
        <ele>808.6</ele>
        <time>2022-10-15T12:54:04.000Z</time>
      </trkpt>
      <trkpt lat="45.146" lon="5.40472">
        <ele>808.6</ele>
        <time>2022-10-15T12:54:05.000Z</time>
      </trkpt>
      <trkpt lat="45.14602" lon="5.40474">
        <ele>808.5</ele>
        <time>2022-10-15T12:54:06.000Z</time>
      </trkpt>
      <trkpt lat="45.14606" lon="5.40477">
        <ele>808.3</ele>
        <time>2022-10-15T12:54:07.000Z</time>
      </trkpt>
      <trkpt lat="45.14609" lon="5.40479">
        <ele>808.1</ele>
        <time>2022-10-15T12:54:08.000Z</time>
      </trkpt>
      <trkpt lat="45.14611" lon="5.40481">
        <ele>808</ele>
        <time>2022-10-15T12:54:09.000Z</time>
      </trkpt>
      <trkpt lat="45.14614" lon="5.40484">
        <ele>807.9</ele>
        <time>2022-10-15T12:54:10.000Z</time>
      </trkpt>
      <trkpt lat="45.14617" lon="5.40487">
        <ele>807.7</ele>
        <time>2022-10-15T12:54:11.000Z</time>
      </trkpt>
      <trkpt lat="45.14619" lon="5.4049">
        <ele>807.6</ele>
        <time>2022-10-15T12:54:12.000Z</time>
      </trkpt>
      <trkpt lat="45.14622" lon="5.40493">
        <ele>807.4</ele>
        <time>2022-10-15T12:54:13.000Z</time>
      </trkpt>
      <trkpt lat="45.14626" lon="5.40497">
        <ele>807.1</ele>
        <time>2022-10-15T12:54:14.000Z</time>
      </trkpt>
      <trkpt lat="45.14628" lon="5.40501">
        <ele>807</ele>
        <time>2022-10-15T12:54:15.000Z</time>
      </trkpt>
      <trkpt lat="45.14631" lon="5.40504">
        <ele>806.7</ele>
        <time>2022-10-15T12:54:16.000Z</time>
      </trkpt>
      <trkpt lat="45.14634" lon="5.40508">
        <ele>806.5</ele>
        <time>2022-10-15T12:54:17.000Z</time>
      </trkpt>
      <trkpt lat="45.14637" lon="5.40514">
        <ele>806.3</ele>
        <time>2022-10-15T12:54:18.000Z</time>
      </trkpt>
      <trkpt lat="45.14642" lon="5.40521">
        <ele>805.9</ele>
        <time>2022-10-15T12:54:19.000Z</time>
      </trkpt>
      <trkpt lat="45.14646" lon="5.40529">
        <ele>805.6</ele>
        <time>2022-10-15T12:54:20.000Z</time>
      </trkpt>
      <trkpt lat="45.14652" lon="5.40539">
        <ele>805.1</ele>
        <time>2022-10-15T12:54:21.000Z</time>
      </trkpt>
      <trkpt lat="45.14659" lon="5.40549">
        <ele>804.7</ele>
        <time>2022-10-15T12:54:22.000Z</time>
      </trkpt>
      <trkpt lat="45.14665" lon="5.40558">
        <ele>804.5</ele>
        <time>2022-10-15T12:54:23.000Z</time>
      </trkpt>
      <trkpt lat="45.14671" lon="5.40568">
        <ele>804</ele>
        <time>2022-10-15T12:54:24.000Z</time>
      </trkpt>
      <trkpt lat="45.14678" lon="5.40576">
        <ele>803.4</ele>
        <time>2022-10-15T12:54:25.000Z</time>
      </trkpt>
      <trkpt lat="45.14683" lon="5.40584">
        <ele>803</ele>
        <time>2022-10-15T12:54:26.000Z</time>
      </trkpt>
      <trkpt lat="45.14688" lon="5.4059">
        <ele>803.1</ele>
        <time>2022-10-15T12:54:27.000Z</time>
      </trkpt>
      <trkpt lat="45.14693" lon="5.40596">
        <ele>803.1</ele>
        <time>2022-10-15T12:54:28.000Z</time>
      </trkpt>
      <trkpt lat="45.14697" lon="5.40601">
        <ele>803.1</ele>
        <time>2022-10-15T12:54:29.000Z</time>
      </trkpt>
      <trkpt lat="45.14701" lon="5.40604">
        <ele>802.9</ele>
        <time>2022-10-15T12:54:30.000Z</time>
      </trkpt>
      <trkpt lat="45.14704" lon="5.40608">
        <ele>802.8</ele>
        <time>2022-10-15T12:54:31.000Z</time>
      </trkpt>
      <trkpt lat="45.14707" lon="5.40611">
        <ele>802.7</ele>
        <time>2022-10-15T12:54:32.000Z</time>
      </trkpt>
      <trkpt lat="45.1471" lon="5.40614">
        <ele>802.5</ele>
        <time>2022-10-15T12:54:33.000Z</time>
      </trkpt>
      <trkpt lat="45.14713" lon="5.40617">
        <ele>802.3</ele>
        <time>2022-10-15T12:54:34.000Z</time>
      </trkpt>
      <trkpt lat="45.14715" lon="5.4062">
        <ele>802.3</ele>
        <time>2022-10-15T12:54:35.000Z</time>
      </trkpt>
      <trkpt lat="45.14716" lon="5.40623">
        <ele>802.4</ele>
        <time>2022-10-15T12:54:36.000Z</time>
      </trkpt>
      <trkpt lat="45.14717" lon="5.40626">
        <ele>802.5</ele>
        <time>2022-10-15T12:54:37.000Z</time>
      </trkpt>
      <trkpt lat="45.14718" lon="5.40628">
        <ele>802.7</ele>
        <time>2022-10-15T12:54:38.000Z</time>
      </trkpt>
      <trkpt lat="45.14719" lon="5.40631">
        <ele>802.7</ele>
        <time>2022-10-15T12:54:39.000Z</time>
      </trkpt>
      <trkpt lat="45.1472" lon="5.40633">
        <ele>802.8</ele>
        <time>2022-10-15T12:54:40.000Z</time>
      </trkpt>
      <trkpt lat="45.14722" lon="5.40636">
        <ele>802.8</ele>
        <time>2022-10-15T12:54:41.000Z</time>
      </trkpt>
      <trkpt lat="45.14723" lon="5.4064">
        <ele>802.9</ele>
        <time>2022-10-15T12:54:42.000Z</time>
      </trkpt>
      <trkpt lat="45.14724" lon="5.40642">
        <ele>802.9</ele>
        <time>2022-10-15T12:54:43.000Z</time>
      </trkpt>
      <trkpt lat="45.14726" lon="5.40645">
        <ele>802.8</ele>
        <time>2022-10-15T12:54:44.000Z</time>
      </trkpt>
      <trkpt lat="45.14728" lon="5.40648">
        <ele>802.7</ele>
        <time>2022-10-15T12:54:45.000Z</time>
      </trkpt>
      <trkpt lat="45.1473" lon="5.40651">
        <ele>802.6</ele>
        <time>2022-10-15T12:54:46.000Z</time>
      </trkpt>
      <trkpt lat="45.14731" lon="5.40655">
        <ele>802.7</ele>
        <time>2022-10-15T12:54:47.000Z</time>
      </trkpt>
      <trkpt lat="45.14733" lon="5.40659">
        <ele>802.6</ele>
        <time>2022-10-15T12:54:48.000Z</time>
      </trkpt>
      <trkpt lat="45.14734" lon="5.40662">
        <ele>802.7</ele>
        <time>2022-10-15T12:54:49.000Z</time>
      </trkpt>
      <trkpt lat="45.14735" lon="5.40666">
        <ele>802.8</ele>
        <time>2022-10-15T12:54:50.000Z</time>
      </trkpt>
      <trkpt lat="45.14735" lon="5.4067">
        <ele>803</ele>
        <time>2022-10-15T12:54:51.000Z</time>
      </trkpt>
      <trkpt lat="45.14735" lon="5.40674">
        <ele>803.4</ele>
        <time>2022-10-15T12:54:52.000Z</time>
      </trkpt>
      <trkpt lat="45.14735" lon="5.40677">
        <ele>803.8</ele>
        <time>2022-10-15T12:54:53.000Z</time>
      </trkpt>
      <trkpt lat="45.14735" lon="5.40681">
        <ele>804.1</ele>
        <time>2022-10-15T12:54:54.000Z</time>
      </trkpt>
      <trkpt lat="45.14735" lon="5.40685">
        <ele>804.5</ele>
        <time>2022-10-15T12:54:55.000Z</time>
      </trkpt>
      <trkpt lat="45.14734" lon="5.40689">
        <ele>804.9</ele>
        <time>2022-10-15T12:54:56.000Z</time>
      </trkpt>
      <trkpt lat="45.14734" lon="5.40693">
        <ele>805.4</ele>
        <time>2022-10-15T12:54:57.000Z</time>
      </trkpt>
      <trkpt lat="45.14734" lon="5.40698">
        <ele>805.9</ele>
        <time>2022-10-15T12:54:58.000Z</time>
      </trkpt>
      <trkpt lat="45.14734" lon="5.40703">
        <ele>806.4</ele>
        <time>2022-10-15T12:54:59.000Z</time>
      </trkpt>
      <trkpt lat="45.14733" lon="5.40709">
        <ele>806.9</ele>
        <time>2022-10-15T12:55:00.000Z</time>
      </trkpt>
      <trkpt lat="45.14733" lon="5.40714">
        <ele>807.6</ele>
        <time>2022-10-15T12:55:01.000Z</time>
      </trkpt>
      <trkpt lat="45.14732" lon="5.40719">
        <ele>808.2</ele>
        <time>2022-10-15T12:55:02.000Z</time>
      </trkpt>
      <trkpt lat="45.14732" lon="5.40725">
        <ele>808.9</ele>
        <time>2022-10-15T12:55:03.000Z</time>
      </trkpt>
      <trkpt lat="45.14731" lon="5.4073">
        <ele>809.3</ele>
        <time>2022-10-15T12:55:04.000Z</time>
      </trkpt>
      <trkpt lat="45.14732" lon="5.40735">
        <ele>809.7</ele>
        <time>2022-10-15T12:55:05.000Z</time>
      </trkpt>
      <trkpt lat="45.14732" lon="5.4074">
        <ele>810.1</ele>
        <time>2022-10-15T12:55:06.000Z</time>
      </trkpt>
      <trkpt lat="45.14732" lon="5.40744">
        <ele>810.5</ele>
        <time>2022-10-15T12:55:07.000Z</time>
      </trkpt>
      <trkpt lat="45.14732" lon="5.40749">
        <ele>810.8</ele>
        <time>2022-10-15T12:55:08.000Z</time>
      </trkpt>
      <trkpt lat="45.14732" lon="5.40753">
        <ele>811.2</ele>
        <time>2022-10-15T12:55:09.000Z</time>
      </trkpt>
      <trkpt lat="45.14733" lon="5.40758">
        <ele>811.6</ele>
        <time>2022-10-15T12:55:10.000Z</time>
      </trkpt>
      <trkpt lat="45.14734" lon="5.40762">
        <ele>812</ele>
        <time>2022-10-15T12:55:11.000Z</time>
      </trkpt>
      <trkpt lat="45.14735" lon="5.40767">
        <ele>812.3</ele>
        <time>2022-10-15T12:55:12.000Z</time>
      </trkpt>
      <trkpt lat="45.14736" lon="5.40771">
        <ele>812.6</ele>
        <time>2022-10-15T12:55:13.000Z</time>
      </trkpt>
      <trkpt lat="45.14738" lon="5.40775">
        <ele>812.9</ele>
        <time>2022-10-15T12:55:14.000Z</time>
      </trkpt>
      <trkpt lat="45.14739" lon="5.40779">
        <ele>813.1</ele>
        <time>2022-10-15T12:55:15.000Z</time>
      </trkpt>
      <trkpt lat="45.14741" lon="5.40783">
        <ele>813.5</ele>
        <time>2022-10-15T12:55:16.000Z</time>
      </trkpt>
      <trkpt lat="45.14744" lon="5.40787">
        <ele>813.7</ele>
        <time>2022-10-15T12:55:17.000Z</time>
      </trkpt>
      <trkpt lat="45.14747" lon="5.4079">
        <ele>813.7</ele>
        <time>2022-10-15T12:55:18.000Z</time>
      </trkpt>
      <trkpt lat="45.1475" lon="5.40792">
        <ele>813.6</ele>
        <time>2022-10-15T12:55:19.000Z</time>
      </trkpt>
      <trkpt lat="45.14753" lon="5.40794">
        <ele>813.6</ele>
        <time>2022-10-15T12:55:20.000Z</time>
      </trkpt>
      <trkpt lat="45.14757" lon="5.40795">
        <ele>813.4</ele>
        <time>2022-10-15T12:55:21.000Z</time>
      </trkpt>
      <trkpt lat="45.14761" lon="5.40796">
        <ele>813.2</ele>
        <time>2022-10-15T12:55:22.000Z</time>
      </trkpt>
      <trkpt lat="45.14765" lon="5.40796">
        <ele>812.7</ele>
        <time>2022-10-15T12:55:23.000Z</time>
      </trkpt>
      <trkpt lat="45.14769" lon="5.40796">
        <ele>812.3</ele>
        <time>2022-10-15T12:55:24.000Z</time>
      </trkpt>
      <trkpt lat="45.14773" lon="5.40795">
        <ele>811.6</ele>
        <time>2022-10-15T12:55:25.000Z</time>
      </trkpt>
      <trkpt lat="45.14777" lon="5.40794">
        <ele>811</ele>
        <time>2022-10-15T12:55:26.000Z</time>
      </trkpt>
      <trkpt lat="45.1478" lon="5.40793">
        <ele>810.6</ele>
        <time>2022-10-15T12:55:27.000Z</time>
      </trkpt>
      <trkpt lat="45.14783" lon="5.40792">
        <ele>810.5</ele>
        <time>2022-10-15T12:55:28.000Z</time>
      </trkpt>
      <trkpt lat="45.14786" lon="5.40792">
        <ele>810.4</ele>
        <time>2022-10-15T12:55:29.000Z</time>
      </trkpt>
      <trkpt lat="45.14789" lon="5.40791">
        <ele>810.2</ele>
        <time>2022-10-15T12:55:30.000Z</time>
      </trkpt>
      <trkpt lat="45.14792" lon="5.4079">
        <ele>809.9</ele>
        <time>2022-10-15T12:55:31.000Z</time>
      </trkpt>
      <trkpt lat="45.14796" lon="5.4079">
        <ele>809.9</ele>
        <time>2022-10-15T12:55:32.000Z</time>
      </trkpt>
      <trkpt lat="45.14799" lon="5.40791">
        <ele>810</ele>
        <time>2022-10-15T12:55:33.000Z</time>
      </trkpt>
      <trkpt lat="45.14803" lon="5.40792">
        <ele>810.1</ele>
        <time>2022-10-15T12:55:34.000Z</time>
      </trkpt>
      <trkpt lat="45.14806" lon="5.40793">
        <ele>810.2</ele>
        <time>2022-10-15T12:55:35.000Z</time>
      </trkpt>
      <trkpt lat="45.14808" lon="5.40795">
        <ele>810.6</ele>
        <time>2022-10-15T12:55:36.000Z</time>
      </trkpt>
      <trkpt lat="45.14811" lon="5.40796">
        <ele>810.8</ele>
        <time>2022-10-15T12:55:37.000Z</time>
      </trkpt>
      <trkpt lat="45.14815" lon="5.40798">
        <ele>811.2</ele>
        <time>2022-10-15T12:55:38.000Z</time>
      </trkpt>
      <trkpt lat="45.14818" lon="5.40801">
        <ele>811.6</ele>
        <time>2022-10-15T12:55:39.000Z</time>
      </trkpt>
      <trkpt lat="45.14821" lon="5.40803">
        <ele>811.9</ele>
        <time>2022-10-15T12:55:40.000Z</time>
      </trkpt>
      <trkpt lat="45.14825" lon="5.40805">
        <ele>812.1</ele>
        <time>2022-10-15T12:55:41.000Z</time>
      </trkpt>
      <trkpt lat="45.14829" lon="5.40807">
        <ele>812.4</ele>
        <time>2022-10-15T12:55:42.000Z</time>
      </trkpt>
      <trkpt lat="45.14833" lon="5.4081">
        <ele>812.6</ele>
        <time>2022-10-15T12:55:43.000Z</time>
      </trkpt>
      <trkpt lat="45.14837" lon="5.40813">
        <ele>812.8</ele>
        <time>2022-10-15T12:55:44.000Z</time>
      </trkpt>
      <trkpt lat="45.1484" lon="5.40816">
        <ele>812.9</ele>
        <time>2022-10-15T12:55:45.000Z</time>
      </trkpt>
      <trkpt lat="45.14844" lon="5.4082">
        <ele>813.1</ele>
        <time>2022-10-15T12:55:46.000Z</time>
      </trkpt>
      <trkpt lat="45.14847" lon="5.40823">
        <ele>813.2</ele>
        <time>2022-10-15T12:55:47.000Z</time>
      </trkpt>
      <trkpt lat="45.1485" lon="5.40827">
        <ele>813.4</ele>
        <time>2022-10-15T12:55:48.000Z</time>
      </trkpt>
      <trkpt lat="45.14853" lon="5.40832">
        <ele>813.7</ele>
        <time>2022-10-15T12:55:49.000Z</time>
      </trkpt>
      <trkpt lat="45.14856" lon="5.40837">
        <ele>813.9</ele>
        <time>2022-10-15T12:55:50.000Z</time>
      </trkpt>
      <trkpt lat="45.14859" lon="5.40842">
        <ele>814.2</ele>
        <time>2022-10-15T12:55:51.000Z</time>
      </trkpt>
      <trkpt lat="45.14861" lon="5.40846">
        <ele>814.4</ele>
        <time>2022-10-15T12:55:52.000Z</time>
      </trkpt>
      <trkpt lat="45.14863" lon="5.4085">
        <ele>814.5</ele>
        <time>2022-10-15T12:55:53.000Z</time>
      </trkpt>
      <trkpt lat="45.14865" lon="5.40855">
        <ele>814.6</ele>
        <time>2022-10-15T12:55:54.000Z</time>
      </trkpt>
      <trkpt lat="45.14867" lon="5.40858">
        <ele>814.7</ele>
        <time>2022-10-15T12:55:55.000Z</time>
      </trkpt>
      <trkpt lat="45.14868" lon="5.40862">
        <ele>814.8</ele>
        <time>2022-10-15T12:55:56.000Z</time>
      </trkpt>
      <trkpt lat="45.1487" lon="5.40866">
        <ele>814.9</ele>
        <time>2022-10-15T12:55:57.000Z</time>
      </trkpt>
      <trkpt lat="45.14871" lon="5.40869">
        <ele>814.9</ele>
        <time>2022-10-15T12:55:58.000Z</time>
      </trkpt>
      <trkpt lat="45.14872" lon="5.40873">
        <ele>814.9</ele>
        <time>2022-10-15T12:55:59.000Z</time>
      </trkpt>
      <trkpt lat="45.14874" lon="5.40877">
        <ele>814.9</ele>
        <time>2022-10-15T12:56:00.000Z</time>
      </trkpt>
      <trkpt lat="45.14875" lon="5.40881">
        <ele>814.9</ele>
        <time>2022-10-15T12:56:01.000Z</time>
      </trkpt>
      <trkpt lat="45.14876" lon="5.40885">
        <ele>815</ele>
        <time>2022-10-15T12:56:02.000Z</time>
      </trkpt>
      <trkpt lat="45.14877" lon="5.40889">
        <ele>815.1</ele>
        <time>2022-10-15T12:56:03.000Z</time>
      </trkpt>
      <trkpt lat="45.14878" lon="5.40893">
        <ele>815</ele>
        <time>2022-10-15T12:56:04.000Z</time>
      </trkpt>
      <trkpt lat="45.14878" lon="5.40896">
        <ele>815</ele>
        <time>2022-10-15T12:56:05.000Z</time>
      </trkpt>
      <trkpt lat="45.14879" lon="5.40899">
        <ele>814.9</ele>
        <time>2022-10-15T12:56:06.000Z</time>
      </trkpt>
      <trkpt lat="45.1488" lon="5.40901">
        <ele>814.7</ele>
        <time>2022-10-15T12:56:07.000Z</time>
      </trkpt>
      <trkpt lat="45.14882" lon="5.40905">
        <ele>814.5</ele>
        <time>2022-10-15T12:56:09.000Z</time>
      </trkpt>
      <trkpt lat="45.14881" lon="5.40907">
        <ele>814.9</ele>
        <time>2022-10-15T12:56:11.000Z</time>
      </trkpt>
      <trkpt lat="45.14881" lon="5.40912">
        <ele>815.1</ele>
        <time>2022-10-15T12:56:13.000Z</time>
      </trkpt>
      <trkpt lat="45.14882" lon="5.40916">
        <ele>815.1</ele>
        <time>2022-10-15T12:56:15.000Z</time>
      </trkpt>
      <trkpt lat="45.14881" lon="5.40922">
        <ele>815.1</ele>
        <time>2022-10-15T12:56:17.000Z</time>
      </trkpt>
      <trkpt lat="45.14881" lon="5.40924">
        <ele>815.2</ele>
        <time>2022-10-15T12:56:18.000Z</time>
      </trkpt>
      <trkpt lat="45.14881" lon="5.40927">
        <ele>815.2</ele>
        <time>2022-10-15T12:56:19.000Z</time>
      </trkpt>
      <trkpt lat="45.1488" lon="5.40931">
        <ele>815.4</ele>
        <time>2022-10-15T12:56:20.000Z</time>
      </trkpt>
      <trkpt lat="45.14879" lon="5.40935">
        <ele>815.6</ele>
        <time>2022-10-15T12:56:21.000Z</time>
      </trkpt>
      <trkpt lat="45.14879" lon="5.40941">
        <ele>815.7</ele>
        <time>2022-10-15T12:56:22.000Z</time>
      </trkpt>
      <trkpt lat="45.14878" lon="5.40946">
        <ele>815.8</ele>
        <time>2022-10-15T12:56:23.000Z</time>
      </trkpt>
      <trkpt lat="45.14878" lon="5.40953">
        <ele>815.8</ele>
        <time>2022-10-15T12:56:24.000Z</time>
      </trkpt>
      <trkpt lat="45.14878" lon="5.4096">
        <ele>815.7</ele>
        <time>2022-10-15T12:56:25.000Z</time>
      </trkpt>
      <trkpt lat="45.14877" lon="5.40967">
        <ele>815.7</ele>
        <time>2022-10-15T12:56:26.000Z</time>
      </trkpt>
      <trkpt lat="45.14877" lon="5.40973">
        <ele>815.6</ele>
        <time>2022-10-15T12:56:27.000Z</time>
      </trkpt>
      <trkpt lat="45.14876" lon="5.4098">
        <ele>815.6</ele>
        <time>2022-10-15T12:56:28.000Z</time>
      </trkpt>
      <trkpt lat="45.14875" lon="5.40988">
        <ele>815.7</ele>
        <time>2022-10-15T12:56:29.000Z</time>
      </trkpt>
      <trkpt lat="45.14873" lon="5.40997">
        <ele>815.9</ele>
        <time>2022-10-15T12:56:30.000Z</time>
      </trkpt>
      <trkpt lat="45.14872" lon="5.41008">
        <ele>816.1</ele>
        <time>2022-10-15T12:56:31.000Z</time>
      </trkpt>
      <trkpt lat="45.14871" lon="5.41018">
        <ele>816</ele>
        <time>2022-10-15T12:56:32.000Z</time>
      </trkpt>
      <trkpt lat="45.1487" lon="5.41028">
        <ele>815.7</ele>
        <time>2022-10-15T12:56:33.000Z</time>
      </trkpt>
      <trkpt lat="45.14869" lon="5.4104">
        <ele>815.6</ele>
        <time>2022-10-15T12:56:34.000Z</time>
      </trkpt>
      <trkpt lat="45.14869" lon="5.41051">
        <ele>815.3</ele>
        <time>2022-10-15T12:56:35.000Z</time>
      </trkpt>
      <trkpt lat="45.14868" lon="5.41061">
        <ele>815.3</ele>
        <time>2022-10-15T12:56:36.000Z</time>
      </trkpt>
      <trkpt lat="45.14867" lon="5.41073">
        <ele>815.1</ele>
        <time>2022-10-15T12:56:37.000Z</time>
      </trkpt>
      <trkpt lat="45.14867" lon="5.41083">
        <ele>814.8</ele>
        <time>2022-10-15T12:56:38.000Z</time>
      </trkpt>
      <trkpt lat="45.14868" lon="5.41093">
        <ele>815.2</ele>
        <time>2022-10-15T12:56:39.000Z</time>
      </trkpt>
      <trkpt lat="45.14868" lon="5.41102">
        <ele>815.5</ele>
        <time>2022-10-15T12:56:40.000Z</time>
      </trkpt>
      <trkpt lat="45.14869" lon="5.4111">
        <ele>815.6</ele>
        <time>2022-10-15T12:56:41.000Z</time>
      </trkpt>
      <trkpt lat="45.14871" lon="5.41119">
        <ele>816.3</ele>
        <time>2022-10-15T12:56:42.000Z</time>
      </trkpt>
      <trkpt lat="45.14873" lon="5.41125">
        <ele>816.7</ele>
        <time>2022-10-15T12:56:43.000Z</time>
      </trkpt>
      <trkpt lat="45.14878" lon="5.4113">
        <ele>816.5</ele>
        <time>2022-10-15T12:56:44.000Z</time>
      </trkpt>
      <trkpt lat="45.14884" lon="5.41134">
        <ele>816</ele>
        <time>2022-10-15T12:56:45.000Z</time>
      </trkpt>
      <trkpt lat="45.1489" lon="5.41135">
        <ele>815.1</ele>
        <time>2022-10-15T12:56:46.000Z</time>
      </trkpt>
      <trkpt lat="45.14895" lon="5.41135">
        <ele>814.9</ele>
        <time>2022-10-15T12:56:47.000Z</time>
      </trkpt>
      <trkpt lat="45.14902" lon="5.41133">
        <ele>814.2</ele>
        <time>2022-10-15T12:56:48.000Z</time>
      </trkpt>
      <trkpt lat="45.1491" lon="5.41131">
        <ele>813.3</ele>
        <time>2022-10-15T12:56:49.000Z</time>
      </trkpt>
      <trkpt lat="45.14918" lon="5.41129">
        <ele>812.5</ele>
        <time>2022-10-15T12:56:50.000Z</time>
      </trkpt>
      <trkpt lat="45.14927" lon="5.41126">
        <ele>812.4</ele>
        <time>2022-10-15T12:56:51.000Z</time>
      </trkpt>
      <trkpt lat="45.14936" lon="5.41125">
        <ele>812.4</ele>
        <time>2022-10-15T12:56:52.000Z</time>
      </trkpt>
      <trkpt lat="45.14944" lon="5.41123">
        <ele>812.3</ele>
        <time>2022-10-15T12:56:53.000Z</time>
      </trkpt>
      <trkpt lat="45.14951" lon="5.4112">
        <ele>812.2</ele>
        <time>2022-10-15T12:56:54.000Z</time>
      </trkpt>
      <trkpt lat="45.14958" lon="5.41117">
        <ele>811.9</ele>
        <time>2022-10-15T12:56:55.000Z</time>
      </trkpt>
      <trkpt lat="45.14966" lon="5.41112">
        <ele>810.9</ele>
        <time>2022-10-15T12:56:56.000Z</time>
      </trkpt>
      <trkpt lat="45.14974" lon="5.41106">
        <ele>809.5</ele>
        <time>2022-10-15T12:56:57.000Z</time>
      </trkpt>
      <trkpt lat="45.14982" lon="5.41101">
        <ele>808.1</ele>
        <time>2022-10-15T12:56:58.000Z</time>
      </trkpt>
      <trkpt lat="45.1499" lon="5.41096">
        <ele>806.6</ele>
        <time>2022-10-15T12:56:59.000Z</time>
      </trkpt>
      <trkpt lat="45.14999" lon="5.41091">
        <ele>805.4</ele>
        <time>2022-10-15T12:57:00.000Z</time>
      </trkpt>
      <trkpt lat="45.15009" lon="5.41085">
        <ele>804.1</ele>
        <time>2022-10-15T12:57:01.000Z</time>
      </trkpt>
      <trkpt lat="45.15018" lon="5.4108">
        <ele>803.2</ele>
        <time>2022-10-15T12:57:02.000Z</time>
      </trkpt>
      <trkpt lat="45.15026" lon="5.41075">
        <ele>802.6</ele>
        <time>2022-10-15T12:57:03.000Z</time>
      </trkpt>
      <trkpt lat="45.15034" lon="5.41071">
        <ele>801.8</ele>
        <time>2022-10-15T12:57:04.000Z</time>
      </trkpt>
      <trkpt lat="45.15042" lon="5.41067">
        <ele>800.9</ele>
        <time>2022-10-15T12:57:05.000Z</time>
      </trkpt>
      <trkpt lat="45.15049" lon="5.41062">
        <ele>800.3</ele>
        <time>2022-10-15T12:57:06.000Z</time>
      </trkpt>
      <trkpt lat="45.15055" lon="5.41058">
        <ele>799.6</ele>
        <time>2022-10-15T12:57:07.000Z</time>
      </trkpt>
      <trkpt lat="45.15062" lon="5.41054">
        <ele>798.6</ele>
        <time>2022-10-15T12:57:08.000Z</time>
      </trkpt>
      <trkpt lat="45.15067" lon="5.41052">
        <ele>797.9</ele>
        <time>2022-10-15T12:57:09.000Z</time>
      </trkpt>
      <trkpt lat="45.15072" lon="5.4105">
        <ele>797.4</ele>
        <time>2022-10-15T12:57:10.000Z</time>
      </trkpt>
      <trkpt lat="45.15075" lon="5.41047">
        <ele>796.7</ele>
        <time>2022-10-15T12:57:11.000Z</time>
      </trkpt>
      <trkpt lat="45.15079" lon="5.41043">
        <ele>795.8</ele>
        <time>2022-10-15T12:57:12.000Z</time>
      </trkpt>
      <trkpt lat="45.15084" lon="5.41038">
        <ele>794.6</ele>
        <time>2022-10-15T12:57:13.000Z</time>
      </trkpt>
      <trkpt lat="45.1509" lon="5.41032">
        <ele>793.1</ele>
        <time>2022-10-15T12:57:14.000Z</time>
      </trkpt>
      <trkpt lat="45.15096" lon="5.41026">
        <ele>791.6</ele>
        <time>2022-10-15T12:57:15.000Z</time>
      </trkpt>
      <trkpt lat="45.15103" lon="5.41022">
        <ele>790.4</ele>
        <time>2022-10-15T12:57:16.000Z</time>
      </trkpt>
      <trkpt lat="45.1511" lon="5.41019">
        <ele>789.7</ele>
        <time>2022-10-15T12:57:17.000Z</time>
      </trkpt>
      <trkpt lat="45.15118" lon="5.41017">
        <ele>789</ele>
        <time>2022-10-15T12:57:18.000Z</time>
      </trkpt>
      <trkpt lat="45.15126" lon="5.41018">
        <ele>788.5</ele>
        <time>2022-10-15T12:57:19.000Z</time>
      </trkpt>
      <trkpt lat="45.15136" lon="5.4102">
        <ele>788.4</ele>
        <time>2022-10-15T12:57:20.000Z</time>
      </trkpt>
      <trkpt lat="45.15144" lon="5.41023">
        <ele>788.2</ele>
        <time>2022-10-15T12:57:21.000Z</time>
      </trkpt>
      <trkpt lat="45.15153" lon="5.41026">
        <ele>787.8</ele>
        <time>2022-10-15T12:57:22.000Z</time>
      </trkpt>
      <trkpt lat="45.1516" lon="5.4103">
        <ele>787.3</ele>
        <time>2022-10-15T12:57:23.000Z</time>
      </trkpt>
      <trkpt lat="45.15167" lon="5.41034">
        <ele>786.8</ele>
        <time>2022-10-15T12:57:24.000Z</time>
      </trkpt>
      <trkpt lat="45.15173" lon="5.41037">
        <ele>786.3</ele>
        <time>2022-10-15T12:57:25.000Z</time>
      </trkpt>
      <trkpt lat="45.15178" lon="5.4104">
        <ele>785.8</ele>
        <time>2022-10-15T12:57:26.000Z</time>
      </trkpt>
      <trkpt lat="45.15183" lon="5.41043">
        <ele>785.2</ele>
        <time>2022-10-15T12:57:27.000Z</time>
      </trkpt>
      <trkpt lat="45.15187" lon="5.41044">
        <ele>784.5</ele>
        <time>2022-10-15T12:57:28.000Z</time>
      </trkpt>
      <trkpt lat="45.15192" lon="5.41044">
        <ele>783.6</ele>
        <time>2022-10-15T12:57:29.000Z</time>
      </trkpt>
      <trkpt lat="45.15196" lon="5.41042">
        <ele>782.5</ele>
        <time>2022-10-15T12:57:30.000Z</time>
      </trkpt>
      <trkpt lat="45.152" lon="5.41037">
        <ele>781.3</ele>
        <time>2022-10-15T12:57:31.000Z</time>
      </trkpt>
      <trkpt lat="45.15204" lon="5.4103">
        <ele>780.1</ele>
        <time>2022-10-15T12:57:32.000Z</time>
      </trkpt>
      <trkpt lat="45.15206" lon="5.41022">
        <ele>779.1</ele>
        <time>2022-10-15T12:57:33.000Z</time>
      </trkpt>
      <trkpt lat="45.15208" lon="5.41015">
        <ele>778.3</ele>
        <time>2022-10-15T12:57:34.000Z</time>
      </trkpt>
      <trkpt lat="45.15211" lon="5.4101">
        <ele>777.7</ele>
        <time>2022-10-15T12:57:35.000Z</time>
      </trkpt>
      <trkpt lat="45.15213" lon="5.41006">
        <ele>777.2</ele>
        <time>2022-10-15T12:57:36.000Z</time>
      </trkpt>
      <trkpt lat="45.15216" lon="5.41006">
        <ele>776.8</ele>
        <time>2022-10-15T12:57:37.000Z</time>
      </trkpt>
      <trkpt lat="45.1522" lon="5.41009">
        <ele>776.3</ele>
        <time>2022-10-15T12:57:38.000Z</time>
      </trkpt>
      <trkpt lat="45.15224" lon="5.41014">
        <ele>775.8</ele>
        <time>2022-10-15T12:57:39.000Z</time>
      </trkpt>
      <trkpt lat="45.15227" lon="5.41023">
        <ele>775.4</ele>
        <time>2022-10-15T12:57:40.000Z</time>
      </trkpt>
      <trkpt lat="45.1523" lon="5.41034">
        <ele>774.8</ele>
        <time>2022-10-15T12:57:41.000Z</time>
      </trkpt>
      <trkpt lat="45.15234" lon="5.41046">
        <ele>773.8</ele>
        <time>2022-10-15T12:57:42.000Z</time>
      </trkpt>
      <trkpt lat="45.15238" lon="5.41059">
        <ele>772.5</ele>
        <time>2022-10-15T12:57:43.000Z</time>
      </trkpt>
      <trkpt lat="45.15242" lon="5.41072">
        <ele>771.1</ele>
        <time>2022-10-15T12:57:44.000Z</time>
      </trkpt>
      <trkpt lat="45.15246" lon="5.41083">
        <ele>769.5</ele>
        <time>2022-10-15T12:57:45.000Z</time>
      </trkpt>
      <trkpt lat="45.15249" lon="5.41096">
        <ele>768.5</ele>
        <time>2022-10-15T12:57:46.000Z</time>
      </trkpt>
      <trkpt lat="45.15251" lon="5.41109">
        <ele>767.7</ele>
        <time>2022-10-15T12:57:47.000Z</time>
      </trkpt>
      <trkpt lat="45.15253" lon="5.41122">
        <ele>767.1</ele>
        <time>2022-10-15T12:57:48.000Z</time>
      </trkpt>
      <trkpt lat="45.15255" lon="5.41135">
        <ele>766.5</ele>
        <time>2022-10-15T12:57:49.000Z</time>
      </trkpt>
      <trkpt lat="45.15257" lon="5.41147">
        <ele>766.5</ele>
        <time>2022-10-15T12:57:50.000Z</time>
      </trkpt>
      <trkpt lat="45.15257" lon="5.41159">
        <ele>766.8</ele>
        <time>2022-10-15T12:57:51.000Z</time>
      </trkpt>
      <trkpt lat="45.1526" lon="5.41169">
        <ele>766.8</ele>
        <time>2022-10-15T12:57:52.000Z</time>
      </trkpt>
      <trkpt lat="45.15263" lon="5.4118">
        <ele>767.1</ele>
        <time>2022-10-15T12:57:53.000Z</time>
      </trkpt>
      <trkpt lat="45.15266" lon="5.41189">
        <ele>767.4</ele>
        <time>2022-10-15T12:57:54.000Z</time>
      </trkpt>
      <trkpt lat="45.1527" lon="5.41196">
        <ele>767.6</ele>
        <time>2022-10-15T12:57:55.000Z</time>
      </trkpt>
      <trkpt lat="45.15273" lon="5.41202">
        <ele>768.1</ele>
        <time>2022-10-15T12:57:56.000Z</time>
      </trkpt>
      <trkpt lat="45.15278" lon="5.41205">
        <ele>767.9</ele>
        <time>2022-10-15T12:57:57.000Z</time>
      </trkpt>
      <trkpt lat="45.15284" lon="5.41207">
        <ele>767.8</ele>
        <time>2022-10-15T12:57:58.000Z</time>
      </trkpt>
      <trkpt lat="45.15292" lon="5.41209">
        <ele>767.7</ele>
        <time>2022-10-15T12:57:59.000Z</time>
      </trkpt>
      <trkpt lat="45.15301" lon="5.4121">
        <ele>767.2</ele>
        <time>2022-10-15T12:58:00.000Z</time>
      </trkpt>
      <trkpt lat="45.15309" lon="5.4121">
        <ele>766.6</ele>
        <time>2022-10-15T12:58:01.000Z</time>
      </trkpt>
      <trkpt lat="45.15318" lon="5.41209">
        <ele>766</ele>
        <time>2022-10-15T12:58:02.000Z</time>
      </trkpt>
      <trkpt lat="45.15329" lon="5.41209">
        <ele>765.4</ele>
        <time>2022-10-15T12:58:03.000Z</time>
      </trkpt>
      <trkpt lat="45.15338" lon="5.41207">
        <ele>764.3</ele>
        <time>2022-10-15T12:58:04.000Z</time>
      </trkpt>
      <trkpt lat="45.15349" lon="5.41207">
        <ele>763.3</ele>
        <time>2022-10-15T12:58:05.000Z</time>
      </trkpt>
      <trkpt lat="45.15361" lon="5.41206">
        <ele>762.3</ele>
        <time>2022-10-15T12:58:06.000Z</time>
      </trkpt>
      <trkpt lat="45.15374" lon="5.41204">
        <ele>760.9</ele>
        <time>2022-10-15T12:58:07.000Z</time>
      </trkpt>
      <trkpt lat="45.15387" lon="5.41203">
        <ele>759.5</ele>
        <time>2022-10-15T12:58:08.000Z</time>
      </trkpt>
      <trkpt lat="45.15399" lon="5.41201">
        <ele>758.1</ele>
        <time>2022-10-15T12:58:09.000Z</time>
      </trkpt>
      <trkpt lat="45.15413" lon="5.41198">
        <ele>756.1</ele>
        <time>2022-10-15T12:58:10.000Z</time>
      </trkpt>
      <trkpt lat="45.15425" lon="5.41194">
        <ele>754.3</ele>
        <time>2022-10-15T12:58:11.000Z</time>
      </trkpt>
      <trkpt lat="45.15438" lon="5.41191">
        <ele>752.7</ele>
        <time>2022-10-15T12:58:12.000Z</time>
      </trkpt>
      <trkpt lat="45.15453" lon="5.41189">
        <ele>751.1</ele>
        <time>2022-10-15T12:58:13.000Z</time>
      </trkpt>
      <trkpt lat="45.15467" lon="5.41186">
        <ele>749.4</ele>
        <time>2022-10-15T12:58:14.000Z</time>
      </trkpt>
      <trkpt lat="45.15481" lon="5.41181">
        <ele>747.1</ele>
        <time>2022-10-15T12:58:15.000Z</time>
      </trkpt>
      <trkpt lat="45.15494" lon="5.41176">
        <ele>744.9</ele>
        <time>2022-10-15T12:58:16.000Z</time>
      </trkpt>
      <trkpt lat="45.15507" lon="5.41172">
        <ele>742.9</ele>
        <time>2022-10-15T12:58:17.000Z</time>
      </trkpt>
      <trkpt lat="45.15519" lon="5.41168">
        <ele>741.1</ele>
        <time>2022-10-15T12:58:18.000Z</time>
      </trkpt>
      <trkpt lat="45.15531" lon="5.41164">
        <ele>739.3</ele>
        <time>2022-10-15T12:58:19.000Z</time>
      </trkpt>
      <trkpt lat="45.15542" lon="5.41161">
        <ele>737.6</ele>
        <time>2022-10-15T12:58:20.000Z</time>
      </trkpt>
      <trkpt lat="45.15551" lon="5.41158">
        <ele>736.3</ele>
        <time>2022-10-15T12:58:21.000Z</time>
      </trkpt>
      <trkpt lat="45.15558" lon="5.41158">
        <ele>735.4</ele>
        <time>2022-10-15T12:58:22.000Z</time>
      </trkpt>
      <trkpt lat="45.15563" lon="5.41158">
        <ele>734.7</ele>
        <time>2022-10-15T12:58:23.000Z</time>
      </trkpt>
      <trkpt lat="45.15565" lon="5.41157">
        <ele>734.2</ele>
        <time>2022-10-15T12:58:24.000Z</time>
      </trkpt>
      <trkpt lat="45.15569" lon="5.41156">
        <ele>733.8</ele>
        <time>2022-10-15T12:58:25.000Z</time>
      </trkpt>
      <trkpt lat="45.15571" lon="5.41156">
        <ele>733.4</ele>
        <time>2022-10-15T12:58:26.000Z</time>
      </trkpt>
      <trkpt lat="45.15573" lon="5.41157">
        <ele>733.1</ele>
        <time>2022-10-15T12:58:27.000Z</time>
      </trkpt>
      <trkpt lat="45.15575" lon="5.41159">
        <ele>732.9</ele>
        <time>2022-10-15T12:58:28.000Z</time>
      </trkpt>
      <trkpt lat="45.15576" lon="5.41161">
        <ele>732.9</ele>
        <time>2022-10-15T12:58:29.000Z</time>
      </trkpt>
      <trkpt lat="45.15577" lon="5.41164">
        <ele>732.9</ele>
        <time>2022-10-15T12:58:30.000Z</time>
      </trkpt>
      <trkpt lat="45.15578" lon="5.41169">
        <ele>732.8</ele>
        <time>2022-10-15T12:58:31.000Z</time>
      </trkpt>
      <trkpt lat="45.1558" lon="5.41175">
        <ele>732.8</ele>
        <time>2022-10-15T12:58:32.000Z</time>
      </trkpt>
      <trkpt lat="45.15582" lon="5.41182">
        <ele>732.8</ele>
        <time>2022-10-15T12:58:33.000Z</time>
      </trkpt>
      <trkpt lat="45.15582" lon="5.41189">
        <ele>733</ele>
        <time>2022-10-15T12:58:34.000Z</time>
      </trkpt>
      <trkpt lat="45.15587" lon="5.41192">
        <ele>732.7</ele>
        <time>2022-10-15T12:58:35.000Z</time>
      </trkpt>
      <trkpt lat="45.1559" lon="5.41198">
        <ele>732.6</ele>
        <time>2022-10-15T12:58:36.000Z</time>
      </trkpt>
      <trkpt lat="45.15594" lon="5.41202">
        <ele>732.5</ele>
        <time>2022-10-15T12:58:37.000Z</time>
      </trkpt>
      <trkpt lat="45.15595" lon="5.41208">
        <ele>732.6</ele>
        <time>2022-10-15T12:58:38.000Z</time>
      </trkpt>
      <trkpt lat="45.15596" lon="5.41215">
        <ele>732.8</ele>
        <time>2022-10-15T12:58:39.000Z</time>
      </trkpt>
      <trkpt lat="45.15599" lon="5.41219">
        <ele>732.9</ele>
        <time>2022-10-15T12:58:40.000Z</time>
      </trkpt>
      <trkpt lat="45.15603" lon="5.41224">
        <ele>733.1</ele>
        <time>2022-10-15T12:58:41.000Z</time>
      </trkpt>
      <trkpt lat="45.15606" lon="5.41228">
        <ele>733.6</ele>
        <time>2022-10-15T12:58:42.000Z</time>
      </trkpt>
      <trkpt lat="45.15609" lon="5.4123">
        <ele>733.8</ele>
        <time>2022-10-15T12:58:43.000Z</time>
      </trkpt>
      <trkpt lat="45.15613" lon="5.41226">
        <ele>733.6</ele>
        <time>2022-10-15T12:58:44.000Z</time>
      </trkpt>
      <trkpt lat="45.15623" lon="5.41224">
        <ele>734.4</ele>
        <time>2022-10-15T12:58:45.000Z</time>
      </trkpt>
      <trkpt lat="45.1563" lon="5.41218">
        <ele>734.6</ele>
        <time>2022-10-15T12:58:46.000Z</time>
      </trkpt>
      <trkpt lat="45.15638" lon="5.41209">
        <ele>734.4</ele>
        <time>2022-10-15T12:58:47.000Z</time>
      </trkpt>
      <trkpt lat="45.15646" lon="5.41202">
        <ele>734.1</ele>
        <time>2022-10-15T12:58:48.000Z</time>
      </trkpt>
      <trkpt lat="45.15656" lon="5.41192">
        <ele>733.3</ele>
        <time>2022-10-15T12:58:49.000Z</time>
      </trkpt>
      <trkpt lat="45.15668" lon="5.41186">
        <ele>732.7</ele>
        <time>2022-10-15T12:58:50.000Z</time>
      </trkpt>
      <trkpt lat="45.15676" lon="5.41179">
        <ele>731.8</ele>
        <time>2022-10-15T12:58:51.000Z</time>
      </trkpt>
      <trkpt lat="45.15684" lon="5.41169">
        <ele>730.4</ele>
        <time>2022-10-15T12:58:52.000Z</time>
      </trkpt>
      <trkpt lat="45.15672" lon="5.41148">
        <ele>726.6</ele>
        <time>2022-10-15T12:58:53.000Z</time>
      </trkpt>
      <trkpt lat="45.15675" lon="5.41139">
        <ele>725</ele>
        <time>2022-10-15T12:58:54.000Z</time>
      </trkpt>
      <trkpt lat="45.15672" lon="5.41126">
        <ele>722.1</ele>
        <time>2022-10-15T12:58:55.000Z</time>
      </trkpt>
      <trkpt lat="45.15669" lon="5.41116">
        <ele>720</ele>
        <time>2022-10-15T12:58:56.000Z</time>
      </trkpt>
      <trkpt lat="45.15671" lon="5.41102">
        <ele>716.3</ele>
        <time>2022-10-15T12:58:57.000Z</time>
      </trkpt>
      <trkpt lat="45.15671" lon="5.41089">
        <ele>712.3</ele>
        <time>2022-10-15T12:58:58.000Z</time>
      </trkpt>
      <trkpt lat="45.1567" lon="5.41074">
        <ele>708.4</ele>
        <time>2022-10-15T12:58:59.000Z</time>
      </trkpt>
      <trkpt lat="45.15672" lon="5.41064">
        <ele>705.7</ele>
        <time>2022-10-15T12:59:00.000Z</time>
      </trkpt>
      <trkpt lat="45.15674" lon="5.41051">
        <ele>702.4</ele>
        <time>2022-10-15T12:59:01.000Z</time>
      </trkpt>
      <trkpt lat="45.15677" lon="5.41039">
        <ele>699.4</ele>
        <time>2022-10-15T12:59:02.000Z</time>
      </trkpt>
      <trkpt lat="45.1568" lon="5.41028">
        <ele>696.5</ele>
        <time>2022-10-15T12:59:03.000Z</time>
      </trkpt>
      <trkpt lat="45.15685" lon="5.41018">
        <ele>693.6</ele>
        <time>2022-10-15T12:59:04.000Z</time>
      </trkpt>
      <trkpt lat="45.15693" lon="5.41011">
        <ele>691</ele>
        <time>2022-10-15T12:59:05.000Z</time>
      </trkpt>
      <trkpt lat="45.15702" lon="5.41007">
        <ele>688.6</ele>
        <time>2022-10-15T12:59:06.000Z</time>
      </trkpt>
      <trkpt lat="45.15711" lon="5.41004">
        <ele>686.6</ele>
        <time>2022-10-15T12:59:07.000Z</time>
      </trkpt>
      <trkpt lat="45.15721" lon="5.41003">
        <ele>685.1</ele>
        <time>2022-10-15T12:59:08.000Z</time>
      </trkpt>
      <trkpt lat="45.15733" lon="5.41004">
        <ele>683.7</ele>
        <time>2022-10-15T12:59:09.000Z</time>
      </trkpt>
      <trkpt lat="45.15748" lon="5.41011">
        <ele>683.1</ele>
        <time>2022-10-15T12:59:10.000Z</time>
      </trkpt>
      <trkpt lat="45.15766" lon="5.41024">
        <ele>682.5</ele>
        <time>2022-10-15T12:59:11.000Z</time>
      </trkpt>
      <trkpt lat="45.15781" lon="5.41032">
        <ele>681.1</ele>
        <time>2022-10-15T12:59:12.000Z</time>
      </trkpt>
      <trkpt lat="45.15798" lon="5.41038">
        <ele>677.6</ele>
        <time>2022-10-15T12:59:13.000Z</time>
      </trkpt>
      <trkpt lat="45.15809" lon="5.41044">
        <ele>675.7</ele>
        <time>2022-10-15T12:59:14.000Z</time>
      </trkpt>
      <trkpt lat="45.1582" lon="5.4105">
        <ele>673.7</ele>
        <time>2022-10-15T12:59:15.000Z</time>
      </trkpt>
      <trkpt lat="45.15829" lon="5.41058">
        <ele>672.6</ele>
        <time>2022-10-15T12:59:16.000Z</time>
      </trkpt>
      <trkpt lat="45.15841" lon="5.41065">
        <ele>670.6</ele>
        <time>2022-10-15T12:59:17.000Z</time>
      </trkpt>
      <trkpt lat="45.15851" lon="5.41073">
        <ele>668.6</ele>
        <time>2022-10-15T12:59:18.000Z</time>
      </trkpt>
      <trkpt lat="45.15861" lon="5.41085">
        <ele>667.3</ele>
        <time>2022-10-15T12:59:19.000Z</time>
      </trkpt>
      <trkpt lat="45.15868" lon="5.41096">
        <ele>667.2</ele>
        <time>2022-10-15T12:59:20.000Z</time>
      </trkpt>
      <trkpt lat="45.15876" lon="5.41108">
        <ele>666.7</ele>
        <time>2022-10-15T12:59:21.000Z</time>
      </trkpt>
      <trkpt lat="45.15882" lon="5.41119">
        <ele>666.2</ele>
        <time>2022-10-15T12:59:22.000Z</time>
      </trkpt>
      <trkpt lat="45.15889" lon="5.41128">
        <ele>664.9</ele>
        <time>2022-10-15T12:59:23.000Z</time>
      </trkpt>
      <trkpt lat="45.15898" lon="5.41138">
        <ele>663</ele>
        <time>2022-10-15T12:59:24.000Z</time>
      </trkpt>
      <trkpt lat="45.15906" lon="5.4115">
        <ele>661.8</ele>
        <time>2022-10-15T12:59:25.000Z</time>
      </trkpt>
      <trkpt lat="45.15914" lon="5.41159">
        <ele>660.1</ele>
        <time>2022-10-15T12:59:26.000Z</time>
      </trkpt>
      <trkpt lat="45.15922" lon="5.41168">
        <ele>657.8</ele>
        <time>2022-10-15T12:59:27.000Z</time>
      </trkpt>
      <trkpt lat="45.15931" lon="5.41175">
        <ele>654.7</ele>
        <time>2022-10-15T12:59:28.000Z</time>
      </trkpt>
      <trkpt lat="45.15939" lon="5.41182">
        <ele>651.5</ele>
        <time>2022-10-15T12:59:29.000Z</time>
      </trkpt>
      <trkpt lat="45.15948" lon="5.41188">
        <ele>647.7</ele>
        <time>2022-10-15T12:59:30.000Z</time>
      </trkpt>
      <trkpt lat="45.15956" lon="5.41193">
        <ele>643.5</ele>
        <time>2022-10-15T12:59:31.000Z</time>
      </trkpt>
      <trkpt lat="45.15965" lon="5.41198">
        <ele>639.5</ele>
        <time>2022-10-15T12:59:32.000Z</time>
      </trkpt>
      <trkpt lat="45.15972" lon="5.41203">
        <ele>636.2</ele>
        <time>2022-10-15T12:59:33.000Z</time>
      </trkpt>
      <trkpt lat="45.15974" lon="5.41207">
        <ele>635.2</ele>
        <time>2022-10-15T12:59:34.000Z</time>
      </trkpt>
      <trkpt lat="45.15976" lon="5.41212">
        <ele>634.5</ele>
        <time>2022-10-15T12:59:35.000Z</time>
      </trkpt>
      <trkpt lat="45.15978" lon="5.41217">
        <ele>634.2</ele>
        <time>2022-10-15T12:59:36.000Z</time>
      </trkpt>
      <trkpt lat="45.15978" lon="5.41223">
        <ele>634.6</ele>
        <time>2022-10-15T12:59:37.000Z</time>
      </trkpt>
      <trkpt lat="45.15975" lon="5.4123">
        <ele>637.5</ele>
        <time>2022-10-15T12:59:38.000Z</time>
      </trkpt>
      <trkpt lat="45.15974" lon="5.41238">
        <ele>638.8</ele>
        <time>2022-10-15T12:59:39.000Z</time>
      </trkpt>
      <trkpt lat="45.15971" lon="5.41248">
        <ele>641.5</ele>
        <time>2022-10-15T12:59:40.000Z</time>
      </trkpt>
      <trkpt lat="45.1596" lon="5.41254">
        <ele>647</ele>
        <time>2022-10-15T12:59:41.000Z</time>
      </trkpt>
      <trkpt lat="45.15957" lon="5.41262">
        <ele>648.9</ele>
        <time>2022-10-15T12:59:42.000Z</time>
      </trkpt>
      <trkpt lat="45.15953" lon="5.41272">
        <ele>651.2</ele>
        <time>2022-10-15T12:59:43.000Z</time>
      </trkpt>
      <trkpt lat="45.1595" lon="5.41285">
        <ele>652.9</ele>
        <time>2022-10-15T12:59:44.000Z</time>
      </trkpt>
      <trkpt lat="45.15947" lon="5.41298">
        <ele>654.9</ele>
        <time>2022-10-15T12:59:45.000Z</time>
      </trkpt>
      <trkpt lat="45.15947" lon="5.4131">
        <ele>655</ele>
        <time>2022-10-15T12:59:46.000Z</time>
      </trkpt>
      <trkpt lat="45.15949" lon="5.41318">
        <ele>654.5</ele>
        <time>2022-10-15T12:59:47.000Z</time>
      </trkpt>
      <trkpt lat="45.15951" lon="5.41324">
        <ele>653.6</ele>
        <time>2022-10-15T12:59:48.000Z</time>
      </trkpt>
      <trkpt lat="45.15956" lon="5.41329">
        <ele>652.3</ele>
        <time>2022-10-15T12:59:49.000Z</time>
      </trkpt>
      <trkpt lat="45.15958" lon="5.41331">
        <ele>651.4</ele>
        <time>2022-10-15T12:59:50.000Z</time>
      </trkpt>
      <trkpt lat="45.15964" lon="5.41331">
        <ele>649.6</ele>
        <time>2022-10-15T12:59:51.000Z</time>
      </trkpt>
      <trkpt lat="45.1597" lon="5.41327">
        <ele>647.3</ele>
        <time>2022-10-15T12:59:52.000Z</time>
      </trkpt>
      <trkpt lat="45.15976" lon="5.41326">
        <ele>645.2</ele>
        <time>2022-10-15T12:59:53.000Z</time>
      </trkpt>
      <trkpt lat="45.15984" lon="5.41325">
        <ele>642.3</ele>
        <time>2022-10-15T12:59:54.000Z</time>
      </trkpt>
      <trkpt lat="45.1599" lon="5.41326">
        <ele>640.4</ele>
        <time>2022-10-15T12:59:55.000Z</time>
      </trkpt>
      <trkpt lat="45.15995" lon="5.41331">
        <ele>639.2</ele>
        <time>2022-10-15T12:59:56.000Z</time>
      </trkpt>
      <trkpt lat="45.16001" lon="5.41338">
        <ele>638.4</ele>
        <time>2022-10-15T12:59:57.000Z</time>
      </trkpt>
      <trkpt lat="45.16007" lon="5.41346">
        <ele>637.6</ele>
        <time>2022-10-15T12:59:58.000Z</time>
      </trkpt>
      <trkpt lat="45.16014" lon="5.41354">
        <ele>637</ele>
        <time>2022-10-15T12:59:59.000Z</time>
      </trkpt>
      <trkpt lat="45.16021" lon="5.41362">
        <ele>636.5</ele>
        <time>2022-10-15T13:00:00.000Z</time>
      </trkpt>
      <trkpt lat="45.16027" lon="5.41371">
        <ele>636.1</ele>
        <time>2022-10-15T13:00:01.000Z</time>
      </trkpt>
      <trkpt lat="45.16035" lon="5.4138">
        <ele>634.8</ele>
        <time>2022-10-15T13:00:02.000Z</time>
      </trkpt>
      <trkpt lat="45.16043" lon="5.41388">
        <ele>633.4</ele>
        <time>2022-10-15T13:00:03.000Z</time>
      </trkpt>
      <trkpt lat="45.16051" lon="5.41395">
        <ele>631.6</ele>
        <time>2022-10-15T13:00:04.000Z</time>
      </trkpt>
      <trkpt lat="45.16056" lon="5.41401">
        <ele>630.5</ele>
        <time>2022-10-15T13:00:05.000Z</time>
      </trkpt>
      <trkpt lat="45.16061" lon="5.41408">
        <ele>629.9</ele>
        <time>2022-10-15T13:00:06.000Z</time>
      </trkpt>
      <trkpt lat="45.16065" lon="5.41415">
        <ele>629.7</ele>
        <time>2022-10-15T13:00:07.000Z</time>
      </trkpt>
      <trkpt lat="45.16068" lon="5.4142">
        <ele>629.4</ele>
        <time>2022-10-15T13:00:08.000Z</time>
      </trkpt>
      <trkpt lat="45.16072" lon="5.41425">
        <ele>629.2</ele>
        <time>2022-10-15T13:00:09.000Z</time>
      </trkpt>
      <trkpt lat="45.16074" lon="5.41428">
        <ele>629</ele>
        <time>2022-10-15T13:00:10.000Z</time>
      </trkpt>
      <trkpt lat="45.16076" lon="5.4143">
        <ele>628.8</ele>
        <time>2022-10-15T13:00:11.000Z</time>
      </trkpt>
      <trkpt lat="45.16078" lon="5.41428">
        <ele>627.8</ele>
        <time>2022-10-15T13:00:13.000Z</time>
      </trkpt>
      <trkpt lat="45.16077" lon="5.41425">
        <ele>627.4</ele>
        <time>2022-10-15T13:00:14.000Z</time>
      </trkpt>
      <trkpt lat="45.16076" lon="5.41422">
        <ele>627.2</ele>
        <time>2022-10-15T13:00:15.000Z</time>
      </trkpt>
      <trkpt lat="45.16075" lon="5.41418">
        <ele>627.1</ele>
        <time>2022-10-15T13:00:16.000Z</time>
      </trkpt>
      <trkpt lat="45.16072" lon="5.41415">
        <ele>627.1</ele>
        <time>2022-10-15T13:00:17.000Z</time>
      </trkpt>
      <trkpt lat="45.1607" lon="5.41411">
        <ele>627.3</ele>
        <time>2022-10-15T13:00:18.000Z</time>
      </trkpt>
      <trkpt lat="45.16067" lon="5.41407">
        <ele>627.6</ele>
        <time>2022-10-15T13:00:19.000Z</time>
      </trkpt>
      <trkpt lat="45.16064" lon="5.41403">
        <ele>627.9</ele>
        <time>2022-10-15T13:00:20.000Z</time>
      </trkpt>
      <trkpt lat="45.16061" lon="5.41397">
        <ele>628.1</ele>
        <time>2022-10-15T13:00:21.000Z</time>
      </trkpt>
      <trkpt lat="45.16057" lon="5.4139">
        <ele>628.8</ele>
        <time>2022-10-15T13:00:22.000Z</time>
      </trkpt>
      <trkpt lat="45.16052" lon="5.41383">
        <ele>628.8</ele>
        <time>2022-10-15T13:00:23.000Z</time>
      </trkpt>
      <trkpt lat="45.16048" lon="5.41378">
        <ele>629</ele>
        <time>2022-10-15T13:00:24.000Z</time>
      </trkpt>
      <trkpt lat="45.16044" lon="5.41372">
        <ele>629.2</ele>
        <time>2022-10-15T13:00:25.000Z</time>
      </trkpt>
      <trkpt lat="45.1604" lon="5.41363">
        <ele>629</ele>
        <time>2022-10-15T13:00:26.000Z</time>
      </trkpt>
      <trkpt lat="45.16038" lon="5.41354">
        <ele>627.8</ele>
        <time>2022-10-15T13:00:27.000Z</time>
      </trkpt>
      <trkpt lat="45.16035" lon="5.41343">
        <ele>626.1</ele>
        <time>2022-10-15T13:00:28.000Z</time>
      </trkpt>
      <trkpt lat="45.16033" lon="5.41329">
        <ele>623.8</ele>
        <time>2022-10-15T13:00:29.000Z</time>
      </trkpt>
      <trkpt lat="45.1603" lon="5.41314">
        <ele>621.1</ele>
        <time>2022-10-15T13:00:30.000Z</time>
      </trkpt>
      <trkpt lat="45.16027" lon="5.413">
        <ele>619.2</ele>
        <time>2022-10-15T13:00:31.000Z</time>
      </trkpt>
      <trkpt lat="45.16024" lon="5.41286">
        <ele>617.5</ele>
        <time>2022-10-15T13:00:32.000Z</time>
      </trkpt>
      <trkpt lat="45.16022" lon="5.41274">
        <ele>616.5</ele>
        <time>2022-10-15T13:00:33.000Z</time>
      </trkpt>
      <trkpt lat="45.1602" lon="5.41263">
        <ele>615.7</ele>
        <time>2022-10-15T13:00:34.000Z</time>
      </trkpt>
      <trkpt lat="45.16018" lon="5.41252">
        <ele>614.8</ele>
        <time>2022-10-15T13:00:35.000Z</time>
      </trkpt>
      <trkpt lat="45.16015" lon="5.41244">
        <ele>615.8</ele>
        <time>2022-10-15T13:00:36.000Z</time>
      </trkpt>
      <trkpt lat="45.16011" lon="5.41236">
        <ele>617.2</ele>
        <time>2022-10-15T13:00:37.000Z</time>
      </trkpt>
      <trkpt lat="45.16008" lon="5.41228">
        <ele>617.9</ele>
        <time>2022-10-15T13:00:38.000Z</time>
      </trkpt>
      <trkpt lat="45.16005" lon="5.41219">
        <ele>618.7</ele>
        <time>2022-10-15T13:00:39.000Z</time>
      </trkpt>
      <trkpt lat="45.16003" lon="5.41211">
        <ele>619.2</ele>
        <time>2022-10-15T13:00:40.000Z</time>
      </trkpt>
      <trkpt lat="45.16002" lon="5.41203">
        <ele>618.8</ele>
        <time>2022-10-15T13:00:41.000Z</time>
      </trkpt>
      <trkpt lat="45.16001" lon="5.41196">
        <ele>618.8</ele>
        <time>2022-10-15T13:00:42.000Z</time>
      </trkpt>
      <trkpt lat="45.16001" lon="5.41192">
        <ele>618.4</ele>
        <time>2022-10-15T13:00:43.000Z</time>
      </trkpt>
      <trkpt lat="45.16003" lon="5.41191">
        <ele>617.1</ele>
        <time>2022-10-15T13:00:45.000Z</time>
      </trkpt>
      <trkpt lat="45.16004" lon="5.41194">
        <ele>616.5</ele>
        <time>2022-10-15T13:00:46.000Z</time>
      </trkpt>
      <trkpt lat="45.16005" lon="5.41196">
        <ele>616.1</ele>
        <time>2022-10-15T13:00:47.000Z</time>
      </trkpt>
      <trkpt lat="45.16006" lon="5.41199">
        <ele>616.3</ele>
        <time>2022-10-15T13:00:48.000Z</time>
      </trkpt>
      <trkpt lat="45.16008" lon="5.41208">
        <ele>615.7</ele>
        <time>2022-10-15T13:00:49.000Z</time>
      </trkpt>
      <trkpt lat="45.16014" lon="5.41222">
        <ele>614</ele>
        <time>2022-10-15T13:00:50.000Z</time>
      </trkpt>
      <trkpt lat="45.16023" lon="5.41241">
        <ele>610.9</ele>
        <time>2022-10-15T13:00:51.000Z</time>
      </trkpt>
      <trkpt lat="45.16026" lon="5.41256">
        <ele>611.1</ele>
        <time>2022-10-15T13:00:52.000Z</time>
      </trkpt>
      <trkpt lat="45.1603" lon="5.41269">
        <ele>611.4</ele>
        <time>2022-10-15T13:00:53.000Z</time>
      </trkpt>
      <trkpt lat="45.16036" lon="5.4128">
        <ele>610.9</ele>
        <time>2022-10-15T13:00:54.000Z</time>
      </trkpt>
      <trkpt lat="45.16041" lon="5.4129">
        <ele>610.4</ele>
        <time>2022-10-15T13:00:55.000Z</time>
      </trkpt>
      <trkpt lat="45.16047" lon="5.41296">
        <ele>609.1</ele>
        <time>2022-10-15T13:00:56.000Z</time>
      </trkpt>
      <trkpt lat="45.16055" lon="5.41303">
        <ele>606.8</ele>
        <time>2022-10-15T13:00:57.000Z</time>
      </trkpt>
      <trkpt lat="45.16068" lon="5.41311">
        <ele>603.7</ele>
        <time>2022-10-15T13:00:58.000Z</time>
      </trkpt>
      <trkpt lat="45.16079" lon="5.41318">
        <ele>601</ele>
        <time>2022-10-15T13:00:59.000Z</time>
      </trkpt>
      <trkpt lat="45.16089" lon="5.41326">
        <ele>599.4</ele>
        <time>2022-10-15T13:01:00.000Z</time>
      </trkpt>
      <trkpt lat="45.161" lon="5.41335">
        <ele>598.1</ele>
        <time>2022-10-15T13:01:01.000Z</time>
      </trkpt>
      <trkpt lat="45.16109" lon="5.41343">
        <ele>596.8</ele>
        <time>2022-10-15T13:01:02.000Z</time>
      </trkpt>
      <trkpt lat="45.16118" lon="5.41351">
        <ele>595.9</ele>
        <time>2022-10-15T13:01:03.000Z</time>
      </trkpt>
      <trkpt lat="45.16123" lon="5.41357">
        <ele>595.5</ele>
        <time>2022-10-15T13:01:04.000Z</time>
      </trkpt>
      <trkpt lat="45.1613" lon="5.41362">
        <ele>594</ele>
        <time>2022-10-15T13:01:05.000Z</time>
      </trkpt>
      <trkpt lat="45.1614" lon="5.4137">
        <ele>592.4</ele>
        <time>2022-10-15T13:01:06.000Z</time>
      </trkpt>
      <trkpt lat="45.16148" lon="5.41379">
        <ele>591.4</ele>
        <time>2022-10-15T13:01:07.000Z</time>
      </trkpt>
      <trkpt lat="45.16156" lon="5.41386">
        <ele>590.1</ele>
        <time>2022-10-15T13:01:08.000Z</time>
      </trkpt>
      <trkpt lat="45.16164" lon="5.41392">
        <ele>588.6</ele>
        <time>2022-10-15T13:01:09.000Z</time>
      </trkpt>
      <trkpt lat="45.16171" lon="5.41398">
        <ele>586.9</ele>
        <time>2022-10-15T13:01:10.000Z</time>
      </trkpt>
      <trkpt lat="45.16181" lon="5.41406">
        <ele>585</ele>
        <time>2022-10-15T13:01:11.000Z</time>
      </trkpt>
      <trkpt lat="45.1619" lon="5.41413">
        <ele>583</ele>
        <time>2022-10-15T13:01:12.000Z</time>
      </trkpt>
      <trkpt lat="45.16198" lon="5.4142">
        <ele>581.7</ele>
        <time>2022-10-15T13:01:13.000Z</time>
      </trkpt>
      <trkpt lat="45.16206" lon="5.41426">
        <ele>580.3</ele>
        <time>2022-10-15T13:01:14.000Z</time>
      </trkpt>
      <trkpt lat="45.16213" lon="5.41433">
        <ele>579</ele>
        <time>2022-10-15T13:01:15.000Z</time>
      </trkpt>
      <trkpt lat="45.1622" lon="5.41438">
        <ele>577.5</ele>
        <time>2022-10-15T13:01:16.000Z</time>
      </trkpt>
      <trkpt lat="45.16227" lon="5.41441">
        <ele>575.9</ele>
        <time>2022-10-15T13:01:17.000Z</time>
      </trkpt>
      <trkpt lat="45.16233" lon="5.41442">
        <ele>574.3</ele>
        <time>2022-10-15T13:01:18.000Z</time>
      </trkpt>
      <trkpt lat="45.16243" lon="5.41442">
        <ele>571.6</ele>
        <time>2022-10-15T13:01:19.000Z</time>
      </trkpt>
      <trkpt lat="45.16251" lon="5.41442">
        <ele>569.4</ele>
        <time>2022-10-15T13:01:20.000Z</time>
      </trkpt>
      <trkpt lat="45.16259" lon="5.41443">
        <ele>567.6</ele>
        <time>2022-10-15T13:01:21.000Z</time>
      </trkpt>
      <trkpt lat="45.16266" lon="5.41445">
        <ele>566</ele>
        <time>2022-10-15T13:01:22.000Z</time>
      </trkpt>
      <trkpt lat="45.16273" lon="5.41449">
        <ele>565</ele>
        <time>2022-10-15T13:01:23.000Z</time>
      </trkpt>
      <trkpt lat="45.16279" lon="5.41456">
        <ele>564.2</ele>
        <time>2022-10-15T13:01:24.000Z</time>
      </trkpt>
      <trkpt lat="45.16287" lon="5.41464">
        <ele>562.6</ele>
        <time>2022-10-15T13:01:25.000Z</time>
      </trkpt>
      <trkpt lat="45.16294" lon="5.41472">
        <ele>561.1</ele>
        <time>2022-10-15T13:01:26.000Z</time>
      </trkpt>
      <trkpt lat="45.16299" lon="5.41481">
        <ele>560.6</ele>
        <time>2022-10-15T13:01:27.000Z</time>
      </trkpt>
      <trkpt lat="45.16305" lon="5.4149">
        <ele>559.9</ele>
        <time>2022-10-15T13:01:28.000Z</time>
      </trkpt>
      <trkpt lat="45.1631" lon="5.41498">
        <ele>558.5</ele>
        <time>2022-10-15T13:01:29.000Z</time>
      </trkpt>
      <trkpt lat="45.16316" lon="5.41505">
        <ele>556.6</ele>
        <time>2022-10-15T13:01:30.000Z</time>
      </trkpt>
      <trkpt lat="45.16322" lon="5.41512">
        <ele>554.5</ele>
        <time>2022-10-15T13:01:31.000Z</time>
      </trkpt>
      <trkpt lat="45.16327" lon="5.41518">
        <ele>552.3</ele>
        <time>2022-10-15T13:01:32.000Z</time>
      </trkpt>
      <trkpt lat="45.16332" lon="5.41524">
        <ele>550.5</ele>
        <time>2022-10-15T13:01:33.000Z</time>
      </trkpt>
      <trkpt lat="45.16336" lon="5.41532">
        <ele>549.4</ele>
        <time>2022-10-15T13:01:34.000Z</time>
      </trkpt>
      <trkpt lat="45.16335" lon="5.41538">
        <ele>550.7</ele>
        <time>2022-10-15T13:01:35.000Z</time>
      </trkpt>
      <trkpt lat="45.16337" lon="5.41545">
        <ele>550.4</ele>
        <time>2022-10-15T13:01:36.000Z</time>
      </trkpt>
      <trkpt lat="45.1634" lon="5.41554">
        <ele>550.4</ele>
        <time>2022-10-15T13:01:37.000Z</time>
      </trkpt>
      <trkpt lat="45.16342" lon="5.41561">
        <ele>550.4</ele>
        <time>2022-10-15T13:01:38.000Z</time>
      </trkpt>
      <trkpt lat="45.16343" lon="5.41569">
        <ele>551.2</ele>
        <time>2022-10-15T13:01:39.000Z</time>
      </trkpt>
      <trkpt lat="45.16345" lon="5.41576">
        <ele>551.4</ele>
        <time>2022-10-15T13:01:40.000Z</time>
      </trkpt>
      <trkpt lat="45.16347" lon="5.41583">
        <ele>551.7</ele>
        <time>2022-10-15T13:01:41.000Z</time>
      </trkpt>
      <trkpt lat="45.16349" lon="5.41593">
        <ele>553</ele>
        <time>2022-10-15T13:01:42.000Z</time>
      </trkpt>
      <trkpt lat="45.16352" lon="5.41602">
        <ele>553.5</ele>
        <time>2022-10-15T13:01:43.000Z</time>
      </trkpt>
      <trkpt lat="45.16356" lon="5.41611">
        <ele>554.3</ele>
        <time>2022-10-15T13:01:44.000Z</time>
      </trkpt>
      <trkpt lat="45.16361" lon="5.4162">
        <ele>555.4</ele>
        <time>2022-10-15T13:01:45.000Z</time>
      </trkpt>
      <trkpt lat="45.16369" lon="5.41627">
        <ele>555.7</ele>
        <time>2022-10-15T13:01:46.000Z</time>
      </trkpt>
      <trkpt lat="45.16376" lon="5.41632">
        <ele>555.8</ele>
        <time>2022-10-15T13:01:47.000Z</time>
      </trkpt>
      <trkpt lat="45.16389" lon="5.41637">
        <ele>554.3</ele>
        <time>2022-10-15T13:01:48.000Z</time>
      </trkpt>
      <trkpt lat="45.16397" lon="5.41638">
        <ele>553.7</ele>
        <time>2022-10-15T13:01:49.000Z</time>
      </trkpt>
      <trkpt lat="45.16409" lon="5.41643">
        <ele>553.7</ele>
        <time>2022-10-15T13:01:50.000Z</time>
      </trkpt>
      <trkpt lat="45.16419" lon="5.41645">
        <ele>552.7</ele>
        <time>2022-10-15T13:01:51.000Z</time>
      </trkpt>
      <trkpt lat="45.16431" lon="5.41645">
        <ele>550.6</ele>
        <time>2022-10-15T13:01:52.000Z</time>
      </trkpt>
      <trkpt lat="45.1644" lon="5.41649">
        <ele>550.2</ele>
        <time>2022-10-15T13:01:53.000Z</time>
      </trkpt>
      <trkpt lat="45.16451" lon="5.41652">
        <ele>548.4</ele>
        <time>2022-10-15T13:01:54.000Z</time>
      </trkpt>
      <trkpt lat="45.16459" lon="5.41655">
        <ele>547.1</ele>
        <time>2022-10-15T13:01:55.000Z</time>
      </trkpt>
      <trkpt lat="45.16466" lon="5.41661">
        <ele>546.4</ele>
        <time>2022-10-15T13:01:56.000Z</time>
      </trkpt>
      <trkpt lat="45.16473" lon="5.41665">
        <ele>545.5</ele>
        <time>2022-10-15T13:01:57.000Z</time>
      </trkpt>
      <trkpt lat="45.1648" lon="5.41669">
        <ele>543.3</ele>
        <time>2022-10-15T13:01:58.000Z</time>
      </trkpt>
      <trkpt lat="45.16487" lon="5.41672">
        <ele>541.2</ele>
        <time>2022-10-15T13:01:59.000Z</time>
      </trkpt>
      <trkpt lat="45.16493" lon="5.41674">
        <ele>539.2</ele>
        <time>2022-10-15T13:02:00.000Z</time>
      </trkpt>
      <trkpt lat="45.16499" lon="5.41678">
        <ele>537.3</ele>
        <time>2022-10-15T13:02:01.000Z</time>
      </trkpt>
      <trkpt lat="45.16506" lon="5.41684">
        <ele>535.8</ele>
        <time>2022-10-15T13:02:02.000Z</time>
      </trkpt>
      <trkpt lat="45.16512" lon="5.41688">
        <ele>533.6</ele>
        <time>2022-10-15T13:02:03.000Z</time>
      </trkpt>
      <trkpt lat="45.1652" lon="5.41694">
        <ele>531.5</ele>
        <time>2022-10-15T13:02:04.000Z</time>
      </trkpt>
      <trkpt lat="45.16523" lon="5.41701">
        <ele>530.9</ele>
        <time>2022-10-15T13:02:05.000Z</time>
      </trkpt>
      <trkpt lat="45.16529" lon="5.41709">
        <ele>529.1</ele>
        <time>2022-10-15T13:02:06.000Z</time>
      </trkpt>
      <trkpt lat="45.16535" lon="5.4172">
        <ele>527.2</ele>
        <time>2022-10-15T13:02:07.000Z</time>
      </trkpt>
      <trkpt lat="45.1654" lon="5.41726">
        <ele>525.4</ele>
        <time>2022-10-15T13:02:08.000Z</time>
      </trkpt>
      <trkpt lat="45.16545" lon="5.41734">
        <ele>523.2</ele>
        <time>2022-10-15T13:02:09.000Z</time>
      </trkpt>
      <trkpt lat="45.1655" lon="5.4174">
        <ele>521.5</ele>
        <time>2022-10-15T13:02:10.000Z</time>
      </trkpt>
      <trkpt lat="45.16554" lon="5.41748">
        <ele>519.8</ele>
        <time>2022-10-15T13:02:11.000Z</time>
      </trkpt>
      <trkpt lat="45.16558" lon="5.41753">
        <ele>517.8</ele>
        <time>2022-10-15T13:02:12.000Z</time>
      </trkpt>
      <trkpt lat="45.16561" lon="5.41758">
        <ele>516.1</ele>
        <time>2022-10-15T13:02:13.000Z</time>
      </trkpt>
      <trkpt lat="45.16564" lon="5.41761">
        <ele>514.5</ele>
        <time>2022-10-15T13:02:14.000Z</time>
      </trkpt>
      <trkpt lat="45.16566" lon="5.41762">
        <ele>513.3</ele>
        <time>2022-10-15T13:02:15.000Z</time>
      </trkpt>
      <trkpt lat="45.16569" lon="5.41761">
        <ele>511.2</ele>
        <time>2022-10-15T13:02:16.000Z</time>
      </trkpt>
      <trkpt lat="45.16571" lon="5.41758">
        <ele>510</ele>
        <time>2022-10-15T13:02:17.000Z</time>
      </trkpt>
      <trkpt lat="45.16574" lon="5.41754">
        <ele>508.1</ele>
        <time>2022-10-15T13:02:18.000Z</time>
      </trkpt>
      <trkpt lat="45.16574" lon="5.4175">
        <ele>508</ele>
        <time>2022-10-15T13:02:19.000Z</time>
      </trkpt>
      <trkpt lat="45.16573" lon="5.41745">
        <ele>508</ele>
        <time>2022-10-15T13:02:20.000Z</time>
      </trkpt>
      <trkpt lat="45.16573" lon="5.41741">
        <ele>508</ele>
        <time>2022-10-15T13:02:21.000Z</time>
      </trkpt>
      <trkpt lat="45.16572" lon="5.41735">
        <ele>508</ele>
        <time>2022-10-15T13:02:22.000Z</time>
      </trkpt>
      <trkpt lat="45.16571" lon="5.41728">
        <ele>508.6</ele>
        <time>2022-10-15T13:02:23.000Z</time>
      </trkpt>
      <trkpt lat="45.16569" lon="5.4172">
        <ele>509.1</ele>
        <time>2022-10-15T13:02:24.000Z</time>
      </trkpt>
      <trkpt lat="45.16569" lon="5.41711">
        <ele>508.9</ele>
        <time>2022-10-15T13:02:25.000Z</time>
      </trkpt>
      <trkpt lat="45.16567" lon="5.41702">
        <ele>509.4</ele>
        <time>2022-10-15T13:02:26.000Z</time>
      </trkpt>
      <trkpt lat="45.16566" lon="5.41694">
        <ele>509.9</ele>
        <time>2022-10-15T13:02:27.000Z</time>
      </trkpt>
      <trkpt lat="45.16563" lon="5.41685">
        <ele>510.5</ele>
        <time>2022-10-15T13:02:28.000Z</time>
      </trkpt>
      <trkpt lat="45.1656" lon="5.41677">
        <ele>511.2</ele>
        <time>2022-10-15T13:02:29.000Z</time>
      </trkpt>
      <trkpt lat="45.16556" lon="5.41667">
        <ele>511.8</ele>
        <time>2022-10-15T13:02:30.000Z</time>
      </trkpt>
      <trkpt lat="45.16552" lon="5.41658">
        <ele>512.2</ele>
        <time>2022-10-15T13:02:31.000Z</time>
      </trkpt>
      <trkpt lat="45.16547" lon="5.4165">
        <ele>513.2</ele>
        <time>2022-10-15T13:02:32.000Z</time>
      </trkpt>
      <trkpt lat="45.16541" lon="5.41641">
        <ele>513.6</ele>
        <time>2022-10-15T13:02:33.000Z</time>
      </trkpt>
      <trkpt lat="45.16535" lon="5.41634">
        <ele>514.3</ele>
        <time>2022-10-15T13:02:34.000Z</time>
      </trkpt>
      <trkpt lat="45.16529" lon="5.41625">
        <ele>514.5</ele>
        <time>2022-10-15T13:02:35.000Z</time>
      </trkpt>
      <trkpt lat="45.16523" lon="5.41615">
        <ele>514.2</ele>
        <time>2022-10-15T13:02:36.000Z</time>
      </trkpt>
      <trkpt lat="45.16518" lon="5.41606">
        <ele>514</ele>
        <time>2022-10-15T13:02:37.000Z</time>
      </trkpt>
      <trkpt lat="45.16511" lon="5.41599">
        <ele>514.2</ele>
        <time>2022-10-15T13:02:38.000Z</time>
      </trkpt>
      <trkpt lat="45.16503" lon="5.41592">
        <ele>514.6</ele>
        <time>2022-10-15T13:02:39.000Z</time>
      </trkpt>
      <trkpt lat="45.16495" lon="5.41583">
        <ele>514.3</ele>
        <time>2022-10-15T13:02:40.000Z</time>
      </trkpt>
      <trkpt lat="45.16487" lon="5.41577">
        <ele>514.5</ele>
        <time>2022-10-15T13:02:41.000Z</time>
      </trkpt>
      <trkpt lat="45.1648" lon="5.41569">
        <ele>514.1</ele>
        <time>2022-10-15T13:02:42.000Z</time>
      </trkpt>
      <trkpt lat="45.16473" lon="5.41564">
        <ele>513.9</ele>
        <time>2022-10-15T13:02:43.000Z</time>
      </trkpt>
      <trkpt lat="45.16467" lon="5.41558">
        <ele>512.8</ele>
        <time>2022-10-15T13:02:44.000Z</time>
      </trkpt>
      <trkpt lat="45.1646" lon="5.41552">
        <ele>511.6</ele>
        <time>2022-10-15T13:02:45.000Z</time>
      </trkpt>
      <trkpt lat="45.16455" lon="5.41547">
        <ele>510.3</ele>
        <time>2022-10-15T13:02:46.000Z</time>
      </trkpt>
      <trkpt lat="45.16449" lon="5.41539">
        <ele>508.3</ele>
        <time>2022-10-15T13:02:47.000Z</time>
      </trkpt>
      <trkpt lat="45.16446" lon="5.41534">
        <ele>507.1</ele>
        <time>2022-10-15T13:02:48.000Z</time>
      </trkpt>
      <trkpt lat="45.16443" lon="5.4153">
        <ele>506</ele>
        <time>2022-10-15T13:02:49.000Z</time>
      </trkpt>
      <trkpt lat="45.16442" lon="5.41521">
        <ele>503.5</ele>
        <time>2022-10-15T13:02:50.000Z</time>
      </trkpt>
      <trkpt lat="45.16439" lon="5.41513">
        <ele>501.5</ele>
        <time>2022-10-15T13:02:51.000Z</time>
      </trkpt>
      <trkpt lat="45.16441" lon="5.41507">
        <ele>499.2</ele>
        <time>2022-10-15T13:02:52.000Z</time>
      </trkpt>
      <trkpt lat="45.16441" lon="5.41497">
        <ele>496.5</ele>
        <time>2022-10-15T13:02:53.000Z</time>
      </trkpt>
      <trkpt lat="45.16441" lon="5.41487">
        <ele>493.8</ele>
        <time>2022-10-15T13:02:54.000Z</time>
      </trkpt>
      <trkpt lat="45.16442" lon="5.41474">
        <ele>490.5</ele>
        <time>2022-10-15T13:02:55.000Z</time>
      </trkpt>
      <trkpt lat="45.16444" lon="5.41464">
        <ele>487.6</ele>
        <time>2022-10-15T13:02:56.000Z</time>
      </trkpt>
      <trkpt lat="45.16445" lon="5.41451">
        <ele>484.2</ele>
        <time>2022-10-15T13:02:57.000Z</time>
      </trkpt>
      <trkpt lat="45.16446" lon="5.41438">
        <ele>481.2</ele>
        <time>2022-10-15T13:02:58.000Z</time>
      </trkpt>
      <trkpt lat="45.16448" lon="5.41426">
        <ele>478.3</ele>
        <time>2022-10-15T13:02:59.000Z</time>
      </trkpt>
      <trkpt lat="45.16451" lon="5.41412">
        <ele>474.8</ele>
        <time>2022-10-15T13:03:00.000Z</time>
      </trkpt>
      <trkpt lat="45.16453" lon="5.41399">
        <ele>471.9</ele>
        <time>2022-10-15T13:03:01.000Z</time>
      </trkpt>
      <trkpt lat="45.16457" lon="5.41386">
        <ele>468.2</ele>
        <time>2022-10-15T13:03:02.000Z</time>
      </trkpt>
      <trkpt lat="45.16462" lon="5.41372">
        <ele>465</ele>
        <time>2022-10-15T13:03:03.000Z</time>
      </trkpt>
      <trkpt lat="45.16466" lon="5.41362">
        <ele>462.1</ele>
        <time>2022-10-15T13:03:04.000Z</time>
      </trkpt>
      <trkpt lat="45.1647" lon="5.41353">
        <ele>459.9</ele>
        <time>2022-10-15T13:03:05.000Z</time>
      </trkpt>
      <trkpt lat="45.16474" lon="5.41344">
        <ele>457.7</ele>
        <time>2022-10-15T13:03:06.000Z</time>
      </trkpt>
      <trkpt lat="45.16475" lon="5.41335">
        <ele>456.9</ele>
        <time>2022-10-15T13:03:07.000Z</time>
      </trkpt>
      <trkpt lat="45.16477" lon="5.41329">
        <ele>456.4</ele>
        <time>2022-10-15T13:03:08.000Z</time>
      </trkpt>
      <trkpt lat="45.16478" lon="5.41322">
        <ele>456.1</ele>
        <time>2022-10-15T13:03:09.000Z</time>
      </trkpt>
      <trkpt lat="45.16482" lon="5.41318">
        <ele>454.7</ele>
        <time>2022-10-15T13:03:10.000Z</time>
      </trkpt>
      <trkpt lat="45.16485" lon="5.41314">
        <ele>453.4</ele>
        <time>2022-10-15T13:03:11.000Z</time>
      </trkpt>
      <trkpt lat="45.16489" lon="5.41312">
        <ele>451.3</ele>
        <time>2022-10-15T13:03:12.000Z</time>
      </trkpt>
      <trkpt lat="45.16492" lon="5.41312">
        <ele>450</ele>
        <time>2022-10-15T13:03:13.000Z</time>
      </trkpt>
      <trkpt lat="45.16494" lon="5.41311">
        <ele>448.8</ele>
        <time>2022-10-15T13:03:14.000Z</time>
      </trkpt>
      <trkpt lat="45.16497" lon="5.41311">
        <ele>447.3</ele>
        <time>2022-10-15T13:03:15.000Z</time>
      </trkpt>
      <trkpt lat="45.165" lon="5.41312">
        <ele>446.1</ele>
        <time>2022-10-15T13:03:16.000Z</time>
      </trkpt>
      <trkpt lat="45.16503" lon="5.41315">
        <ele>444.6</ele>
        <time>2022-10-15T13:03:18.000Z</time>
      </trkpt>
      <trkpt lat="45.16501" lon="5.41321">
        <ele>445.4</ele>
        <time>2022-10-15T13:03:20.000Z</time>
      </trkpt>
      <trkpt lat="45.16501" lon="5.41327">
        <ele>445.4</ele>
        <time>2022-10-15T13:03:21.000Z</time>
      </trkpt>
      <trkpt lat="45.16501" lon="5.41332">
        <ele>445.7</ele>
        <time>2022-10-15T13:03:22.000Z</time>
      </trkpt>
      <trkpt lat="45.16501" lon="5.41338">
        <ele>445.6</ele>
        <time>2022-10-15T13:03:23.000Z</time>
      </trkpt>
      <trkpt lat="45.16503" lon="5.41345">
        <ele>445.2</ele>
        <time>2022-10-15T13:03:24.000Z</time>
      </trkpt>
      <trkpt lat="45.16505" lon="5.41351">
        <ele>444.9</ele>
        <time>2022-10-15T13:03:25.000Z</time>
      </trkpt>
      <trkpt lat="45.16508" lon="5.41354">
        <ele>444</ele>
        <time>2022-10-15T13:03:26.000Z</time>
      </trkpt>
      <trkpt lat="45.16512" lon="5.41358">
        <ele>442.9</ele>
        <time>2022-10-15T13:03:27.000Z</time>
      </trkpt>
      <trkpt lat="45.16516" lon="5.4136">
        <ele>441.6</ele>
        <time>2022-10-15T13:03:28.000Z</time>
      </trkpt>
      <trkpt lat="45.16519" lon="5.41364">
        <ele>441.5</ele>
        <time>2022-10-15T13:03:29.000Z</time>
      </trkpt>
      <trkpt lat="45.16522" lon="5.41367">
        <ele>441.2</ele>
        <time>2022-10-15T13:03:30.000Z</time>
      </trkpt>
      <trkpt lat="45.16525" lon="5.41371">
        <ele>441.4</ele>
        <time>2022-10-15T13:03:31.000Z</time>
      </trkpt>
      <trkpt lat="45.16529" lon="5.41373">
        <ele>440.7</ele>
        <time>2022-10-15T13:03:32.000Z</time>
      </trkpt>
      <trkpt lat="45.16533" lon="5.41375">
        <ele>440.2</ele>
        <time>2022-10-15T13:03:33.000Z</time>
      </trkpt>
      <trkpt lat="45.16537" lon="5.41378">
        <ele>440</ele>
        <time>2022-10-15T13:03:34.000Z</time>
      </trkpt>
      <trkpt lat="45.16542" lon="5.41383">
        <ele>440.1</ele>
        <time>2022-10-15T13:03:35.000Z</time>
      </trkpt>
      <trkpt lat="45.16548" lon="5.41389">
        <ele>440.7</ele>
        <time>2022-10-15T13:03:36.000Z</time>
      </trkpt>
      <trkpt lat="45.16554" lon="5.41395">
        <ele>441.4</ele>
        <time>2022-10-15T13:03:37.000Z</time>
      </trkpt>
      <trkpt lat="45.16559" lon="5.414">
        <ele>441.6</ele>
        <time>2022-10-15T13:03:38.000Z</time>
      </trkpt>
      <trkpt lat="45.16565" lon="5.41406">
        <ele>441.8</ele>
        <time>2022-10-15T13:03:39.000Z</time>
      </trkpt>
      <trkpt lat="45.16573" lon="5.41413">
        <ele>441.7</ele>
        <time>2022-10-15T13:03:40.000Z</time>
      </trkpt>
      <trkpt lat="45.16578" lon="5.41417">
        <ele>441.6</ele>
        <time>2022-10-15T13:03:41.000Z</time>
      </trkpt>
      <trkpt lat="45.16587" lon="5.41423">
        <ele>440.9</ele>
        <time>2022-10-15T13:03:42.000Z</time>
      </trkpt>
      <trkpt lat="45.16594" lon="5.41429">
        <ele>440.4</ele>
        <time>2022-10-15T13:03:43.000Z</time>
      </trkpt>
      <trkpt lat="45.16601" lon="5.41436">
        <ele>439.9</ele>
        <time>2022-10-15T13:03:44.000Z</time>
      </trkpt>
      <trkpt lat="45.16606" lon="5.41442">
        <ele>440.2</ele>
        <time>2022-10-15T13:03:45.000Z</time>
      </trkpt>
      <trkpt lat="45.16612" lon="5.41447">
        <ele>439.5</ele>
        <time>2022-10-15T13:03:46.000Z</time>
      </trkpt>
      <trkpt lat="45.16617" lon="5.4145">
        <ele>437.9</ele>
        <time>2022-10-15T13:03:47.000Z</time>
      </trkpt>
      <trkpt lat="45.16619" lon="5.41451">
        <ele>437.2</ele>
        <time>2022-10-15T13:03:48.000Z</time>
      </trkpt>
      <trkpt lat="45.16621" lon="5.4145">
        <ele>435.7</ele>
        <time>2022-10-15T13:03:49.000Z</time>
      </trkpt>
      <trkpt lat="45.16624" lon="5.4145">
        <ele>433.8</ele>
        <time>2022-10-15T13:03:50.000Z</time>
      </trkpt>
      <trkpt lat="45.16627" lon="5.41448">
        <ele>431.5</ele>
        <time>2022-10-15T13:03:51.000Z</time>
      </trkpt>
      <trkpt lat="45.1663" lon="5.41446">
        <ele>428.7</ele>
        <time>2022-10-15T13:03:52.000Z</time>
      </trkpt>
      <trkpt lat="45.16631" lon="5.41442">
        <ele>426.6</ele>
        <time>2022-10-15T13:03:53.000Z</time>
      </trkpt>
      <trkpt lat="45.16636" lon="5.41439">
        <ele>422.4</ele>
        <time>2022-10-15T13:03:54.000Z</time>
      </trkpt>
      <trkpt lat="45.16636" lon="5.41433">
        <ele>420</ele>
        <time>2022-10-15T13:03:55.000Z</time>
      </trkpt>
      <trkpt lat="45.16636" lon="5.41428">
        <ele>417.9</ele>
        <time>2022-10-15T13:03:56.000Z</time>
      </trkpt>
      <trkpt lat="45.16634" lon="5.41422">
        <ele>417</ele>
        <time>2022-10-15T13:03:57.000Z</time>
      </trkpt>
      <trkpt lat="45.1663" lon="5.41416">
        <ele>416.9</ele>
        <time>2022-10-15T13:03:58.000Z</time>
      </trkpt>
      <trkpt lat="45.16621" lon="5.41407">
        <ele>418.7</ele>
        <time>2022-10-15T13:03:59.000Z</time>
      </trkpt>
      <trkpt lat="45.16612" lon="5.41395">
        <ele>419.6</ele>
        <time>2022-10-15T13:04:00.000Z</time>
      </trkpt>
      <trkpt lat="45.16603" lon="5.41385">
        <ele>420.2</ele>
        <time>2022-10-15T13:04:01.000Z</time>
      </trkpt>
      <trkpt lat="45.16597" lon="5.41375">
        <ele>419.5</ele>
        <time>2022-10-15T13:04:02.000Z</time>
      </trkpt>
      <trkpt lat="45.16596" lon="5.41361">
        <ele>415.1</ele>
        <time>2022-10-15T13:04:03.000Z</time>
      </trkpt>
      <trkpt lat="45.16594" lon="5.41349">
        <ele>411.6</ele>
        <time>2022-10-15T13:04:04.000Z</time>
      </trkpt>
      <trkpt lat="45.1659" lon="5.41335">
        <ele>408.4</ele>
        <time>2022-10-15T13:04:05.000Z</time>
      </trkpt>
      <trkpt lat="45.16586" lon="5.4132">
        <ele>405.1</ele>
        <time>2022-10-15T13:04:06.000Z</time>
      </trkpt>
      <trkpt lat="45.16582" lon="5.41306">
        <ele>401.9</ele>
        <time>2022-10-15T13:04:07.000Z</time>
      </trkpt>
      <trkpt lat="45.16579" lon="5.41291">
        <ele>398.9</ele>
        <time>2022-10-15T13:04:08.000Z</time>
      </trkpt>
      <trkpt lat="45.16577" lon="5.41276">
        <ele>395.6</ele>
        <time>2022-10-15T13:04:09.000Z</time>
      </trkpt>
      <trkpt lat="45.16573" lon="5.41262">
        <ele>393.9</ele>
        <time>2022-10-15T13:04:10.000Z</time>
      </trkpt>
      <trkpt lat="45.16572" lon="5.41247">
        <ele>390.9</ele>
        <time>2022-10-15T13:04:11.000Z</time>
      </trkpt>
      <trkpt lat="45.16572" lon="5.41231">
        <ele>388</ele>
        <time>2022-10-15T13:04:12.000Z</time>
      </trkpt>
      <trkpt lat="45.16569" lon="5.41216">
        <ele>387.6</ele>
        <time>2022-10-15T13:04:13.000Z</time>
      </trkpt>
      <trkpt lat="45.16569" lon="5.41202">
        <ele>385.5</ele>
        <time>2022-10-15T13:04:14.000Z</time>
      </trkpt>
      <trkpt lat="45.16568" lon="5.41187">
        <ele>384.1</ele>
        <time>2022-10-15T13:04:15.000Z</time>
      </trkpt>
      <trkpt lat="45.16566" lon="5.41173">
        <ele>383.7</ele>
        <time>2022-10-15T13:04:16.000Z</time>
      </trkpt>
      <trkpt lat="45.16562" lon="5.41159">
        <ele>384.2</ele>
        <time>2022-10-15T13:04:17.000Z</time>
      </trkpt>
      <trkpt lat="45.16559" lon="5.41148">
        <ele>384.8</ele>
        <time>2022-10-15T13:04:18.000Z</time>
      </trkpt>
      <trkpt lat="45.16556" lon="5.41136">
        <ele>385.2</ele>
        <time>2022-10-15T13:04:19.000Z</time>
      </trkpt>
      <trkpt lat="45.16552" lon="5.41124">
        <ele>385.5</ele>
        <time>2022-10-15T13:04:20.000Z</time>
      </trkpt>
      <trkpt lat="45.16549" lon="5.4111">
        <ele>384.4</ele>
        <time>2022-10-15T13:04:21.000Z</time>
      </trkpt>
      <trkpt lat="45.16545" lon="5.41098">
        <ele>383.1</ele>
        <time>2022-10-15T13:04:22.000Z</time>
      </trkpt>
      <trkpt lat="45.16539" lon="5.4109">
        <ele>384.5</ele>
        <time>2022-10-15T13:04:23.000Z</time>
      </trkpt>
      <trkpt lat="45.16532" lon="5.41084">
        <ele>386.6</ele>
        <time>2022-10-15T13:04:24.000Z</time>
      </trkpt>
      <trkpt lat="45.16527" lon="5.41076">
        <ele>386.3</ele>
        <time>2022-10-15T13:04:25.000Z</time>
      </trkpt>
      <trkpt lat="45.16521" lon="5.41073">
        <ele>388.6</ele>
        <time>2022-10-15T13:04:26.000Z</time>
      </trkpt>
      <trkpt lat="45.16515" lon="5.41066">
        <ele>388.5</ele>
        <time>2022-10-15T13:04:27.000Z</time>
      </trkpt>
      <trkpt lat="45.16512" lon="5.41056">
        <ele>385.8</ele>
        <time>2022-10-15T13:04:28.000Z</time>
      </trkpt>
      <trkpt lat="45.16509" lon="5.41046">
        <ele>383.5</ele>
        <time>2022-10-15T13:04:29.000Z</time>
      </trkpt>
      <trkpt lat="45.16506" lon="5.41035">
        <ele>381.1</ele>
        <time>2022-10-15T13:04:30.000Z</time>
      </trkpt>
      <trkpt lat="45.16505" lon="5.41024">
        <ele>377.7</ele>
        <time>2022-10-15T13:04:31.000Z</time>
      </trkpt>
      <trkpt lat="45.16505" lon="5.41011">
        <ele>373.7</ele>
        <time>2022-10-15T13:04:32.000Z</time>
      </trkpt>
      <trkpt lat="45.16503" lon="5.40999">
        <ele>370.7</ele>
        <time>2022-10-15T13:04:33.000Z</time>
      </trkpt>
      <trkpt lat="45.165" lon="5.40985">
        <ele>369.2</ele>
        <time>2022-10-15T13:04:34.000Z</time>
      </trkpt>
      <trkpt lat="45.16497" lon="5.40972">
        <ele>368.4</ele>
        <time>2022-10-15T13:04:35.000Z</time>
      </trkpt>
      <trkpt lat="45.16493" lon="5.40958">
        <ele>366.5</ele>
        <time>2022-10-15T13:04:36.000Z</time>
      </trkpt>
      <trkpt lat="45.16489" lon="5.40944">
        <ele>364.8</ele>
        <time>2022-10-15T13:04:37.000Z</time>
      </trkpt>
      <trkpt lat="45.16485" lon="5.40929">
        <ele>362.5</ele>
        <time>2022-10-15T13:04:38.000Z</time>
      </trkpt>
      <trkpt lat="45.16479" lon="5.40915">
        <ele>361</ele>
        <time>2022-10-15T13:04:39.000Z</time>
      </trkpt>
      <trkpt lat="45.16474" lon="5.409">
        <ele>358.9</ele>
        <time>2022-10-15T13:04:40.000Z</time>
      </trkpt>
      <trkpt lat="45.16468" lon="5.40887">
        <ele>357.9</ele>
        <time>2022-10-15T13:04:41.000Z</time>
      </trkpt>
      <trkpt lat="45.16463" lon="5.40875">
        <ele>357.9</ele>
        <time>2022-10-15T13:04:42.000Z</time>
      </trkpt>
      <trkpt lat="45.16456" lon="5.40865">
        <ele>358.5</ele>
        <time>2022-10-15T13:04:43.000Z</time>
      </trkpt>
      <trkpt lat="45.16451" lon="5.40856">
        <ele>358.8</ele>
        <time>2022-10-15T13:04:44.000Z</time>
      </trkpt>
      <trkpt lat="45.16447" lon="5.40851">
        <ele>359.5</ele>
        <time>2022-10-15T13:04:45.000Z</time>
      </trkpt>
      <trkpt lat="45.16445" lon="5.40842">
        <ele>358.4</ele>
        <time>2022-10-15T13:04:46.000Z</time>
      </trkpt>
      <trkpt lat="45.16443" lon="5.40834">
        <ele>356.9</ele>
        <time>2022-10-15T13:04:47.000Z</time>
      </trkpt>
      <trkpt lat="45.16443" lon="5.40828">
        <ele>355.4</ele>
        <time>2022-10-15T13:04:48.000Z</time>
      </trkpt>
      <trkpt lat="45.16443" lon="5.40822">
        <ele>353.6</ele>
        <time>2022-10-15T13:04:49.000Z</time>
      </trkpt>
      <trkpt lat="45.16443" lon="5.40816">
        <ele>351.8</ele>
        <time>2022-10-15T13:04:50.000Z</time>
      </trkpt>
      <trkpt lat="45.16444" lon="5.40812">
        <ele>350</ele>
        <time>2022-10-15T13:04:51.000Z</time>
      </trkpt>
      <trkpt lat="45.16448" lon="5.40813">
        <ele>348.3</ele>
        <time>2022-10-15T13:04:52.000Z</time>
      </trkpt>
      <trkpt lat="45.1645" lon="5.40813">
        <ele>347.3</ele>
        <time>2022-10-15T13:04:53.000Z</time>
      </trkpt>
      <trkpt lat="45.16452" lon="5.40818">
        <ele>347.3</ele>
        <time>2022-10-15T13:04:54.000Z</time>
      </trkpt>
      <trkpt lat="45.16456" lon="5.40824">
        <ele>347</ele>
        <time>2022-10-15T13:04:55.000Z</time>
      </trkpt>
      <trkpt lat="45.16459" lon="5.40833">
        <ele>347.4</ele>
        <time>2022-10-15T13:04:56.000Z</time>
      </trkpt>
      <trkpt lat="45.16463" lon="5.40843">
        <ele>348</ele>
        <time>2022-10-15T13:04:57.000Z</time>
      </trkpt>
      <trkpt lat="45.16468" lon="5.40854">
        <ele>348.6</ele>
        <time>2022-10-15T13:04:58.000Z</time>
      </trkpt>
      <trkpt lat="45.16475" lon="5.40868">
        <ele>348.6</ele>
        <time>2022-10-15T13:04:59.000Z</time>
      </trkpt>
      <trkpt lat="45.1648" lon="5.40881">
        <ele>349.4</ele>
        <time>2022-10-15T13:05:00.000Z</time>
      </trkpt>
      <trkpt lat="45.16485" lon="5.40893">
        <ele>350.1</ele>
        <time>2022-10-15T13:05:01.000Z</time>
      </trkpt>
      <trkpt lat="45.16489" lon="5.40905">
        <ele>351.4</ele>
        <time>2022-10-15T13:05:02.000Z</time>
      </trkpt>
      <trkpt lat="45.16493" lon="5.40917">
        <ele>353.2</ele>
        <time>2022-10-15T13:05:03.000Z</time>
      </trkpt>
      <trkpt lat="45.16498" lon="5.40929">
        <ele>354.5</ele>
        <time>2022-10-15T13:05:04.000Z</time>
      </trkpt>
      <trkpt lat="45.16499" lon="5.40942">
        <ele>357.8</ele>
        <time>2022-10-15T13:05:05.000Z</time>
      </trkpt>
      <trkpt lat="45.16505" lon="5.40954">
        <ele>357.7</ele>
        <time>2022-10-15T13:05:06.000Z</time>
      </trkpt>
      <trkpt lat="45.16512" lon="5.40965">
        <ele>356.4</ele>
        <time>2022-10-15T13:05:07.000Z</time>
      </trkpt>
      <trkpt lat="45.1652" lon="5.40975">
        <ele>354.8</ele>
        <time>2022-10-15T13:05:08.000Z</time>
      </trkpt>
      <trkpt lat="45.16529" lon="5.40985">
        <ele>352</ele>
        <time>2022-10-15T13:05:09.000Z</time>
      </trkpt>
      <trkpt lat="45.16539" lon="5.40996">
        <ele>349.2</ele>
        <time>2022-10-15T13:05:10.000Z</time>
      </trkpt>
      <trkpt lat="45.16548" lon="5.41007">
        <ele>347.4</ele>
        <time>2022-10-15T13:05:11.000Z</time>
      </trkpt>
      <trkpt lat="45.16554" lon="5.41019">
        <ele>347.8</ele>
        <time>2022-10-15T13:05:12.000Z</time>
      </trkpt>
      <trkpt lat="45.16561" lon="5.41031">
        <ele>347.9</ele>
        <time>2022-10-15T13:05:13.000Z</time>
      </trkpt>
      <trkpt lat="45.16567" lon="5.41042">
        <ele>347.7</ele>
        <time>2022-10-15T13:05:14.000Z</time>
      </trkpt>
      <trkpt lat="45.16573" lon="5.41054">
        <ele>347.2</ele>
        <time>2022-10-15T13:05:15.000Z</time>
      </trkpt>
      <trkpt lat="45.16579" lon="5.41065">
        <ele>346.9</ele>
        <time>2022-10-15T13:05:16.000Z</time>
      </trkpt>
      <trkpt lat="45.16585" lon="5.41076">
        <ele>346.1</ele>
        <time>2022-10-15T13:05:17.000Z</time>
      </trkpt>
      <trkpt lat="45.16593" lon="5.41086">
        <ele>343.2</ele>
        <time>2022-10-15T13:05:18.000Z</time>
      </trkpt>
      <trkpt lat="45.16598" lon="5.41096">
        <ele>341.9</ele>
        <time>2022-10-15T13:05:19.000Z</time>
      </trkpt>
      <trkpt lat="45.16602" lon="5.41107">
        <ele>341.8</ele>
        <time>2022-10-15T13:05:20.000Z</time>
      </trkpt>
      <trkpt lat="45.16606" lon="5.41118">
        <ele>340.7</ele>
        <time>2022-10-15T13:05:21.000Z</time>
      </trkpt>
      <trkpt lat="45.16609" lon="5.41129">
        <ele>340.3</ele>
        <time>2022-10-15T13:05:22.000Z</time>
      </trkpt>
      <trkpt lat="45.16612" lon="5.41138">
        <ele>340.4</ele>
        <time>2022-10-15T13:05:23.000Z</time>
      </trkpt>
      <trkpt lat="45.16614" lon="5.41147">
        <ele>340.6</ele>
        <time>2022-10-15T13:05:24.000Z</time>
      </trkpt>
      <trkpt lat="45.16617" lon="5.41156">
        <ele>340.6</ele>
        <time>2022-10-15T13:05:25.000Z</time>
      </trkpt>
      <trkpt lat="45.16619" lon="5.41163">
        <ele>340.7</ele>
        <time>2022-10-15T13:05:26.000Z</time>
      </trkpt>
      <trkpt lat="45.16624" lon="5.41168">
        <ele>338.2</ele>
        <time>2022-10-15T13:05:27.000Z</time>
      </trkpt>
      <trkpt lat="45.16627" lon="5.4117">
        <ele>336.3</ele>
        <time>2022-10-15T13:05:28.000Z</time>
      </trkpt>
      <trkpt lat="45.16631" lon="5.4117">
        <ele>333.8</ele>
        <time>2022-10-15T13:05:30.000Z</time>
      </trkpt>
      <trkpt lat="45.16633" lon="5.41169">
        <ele>332.1</ele>
        <time>2022-10-15T13:05:31.000Z</time>
      </trkpt>
      <trkpt lat="45.16634" lon="5.41166">
        <ele>330.2</ele>
        <time>2022-10-15T13:05:32.000Z</time>
      </trkpt>
      <trkpt lat="45.16637" lon="5.41163">
        <ele>327.5</ele>
        <time>2022-10-15T13:05:33.000Z</time>
      </trkpt>
      <trkpt lat="45.16639" lon="5.41156">
        <ele>324.6</ele>
        <time>2022-10-15T13:05:34.000Z</time>
      </trkpt>
      <trkpt lat="45.16638" lon="5.41148">
        <ele>323.3</ele>
        <time>2022-10-15T13:05:35.000Z</time>
      </trkpt>
      <trkpt lat="45.16637" lon="5.4114">
        <ele>322.8</ele>
        <time>2022-10-15T13:05:36.000Z</time>
      </trkpt>
      <trkpt lat="45.16635" lon="5.4113">
        <ele>322.2</ele>
        <time>2022-10-15T13:05:37.000Z</time>
      </trkpt>
      <trkpt lat="45.16631" lon="5.41117">
        <ele>322.2</ele>
        <time>2022-10-15T13:05:38.000Z</time>
      </trkpt>
      <trkpt lat="45.16624" lon="5.41103">
        <ele>324</ele>
        <time>2022-10-15T13:05:39.000Z</time>
      </trkpt>
      <trkpt lat="45.16621" lon="5.41088">
        <ele>322.1</ele>
        <time>2022-10-15T13:05:40.000Z</time>
      </trkpt>
      <trkpt lat="45.16617" lon="5.4107">
        <ele>320.3</ele>
        <time>2022-10-15T13:05:41.000Z</time>
      </trkpt>
      <trkpt lat="45.16613" lon="5.41054">
        <ele>318.4</ele>
        <time>2022-10-15T13:05:42.000Z</time>
      </trkpt>
      <trkpt lat="45.16609" lon="5.41039">
        <ele>317.8</ele>
        <time>2022-10-15T13:05:43.000Z</time>
      </trkpt>
      <trkpt lat="45.16606" lon="5.41024">
        <ele>316.7</ele>
        <time>2022-10-15T13:05:44.000Z</time>
      </trkpt>
      <trkpt lat="45.16604" lon="5.4101">
        <ele>315.1</ele>
        <time>2022-10-15T13:05:45.000Z</time>
      </trkpt>
      <trkpt lat="45.16602" lon="5.40996">
        <ele>313.3</ele>
        <time>2022-10-15T13:05:46.000Z</time>
      </trkpt>
      <trkpt lat="45.16601" lon="5.40982">
        <ele>311.8</ele>
        <time>2022-10-15T13:05:47.000Z</time>
      </trkpt>
      <trkpt lat="45.16599" lon="5.40969">
        <ele>310.6</ele>
        <time>2022-10-15T13:05:48.000Z</time>
      </trkpt>
      <trkpt lat="45.16598" lon="5.40956">
        <ele>309</ele>
        <time>2022-10-15T13:05:49.000Z</time>
      </trkpt>
      <trkpt lat="45.16596" lon="5.40942">
        <ele>307.7</ele>
        <time>2022-10-15T13:05:50.000Z</time>
      </trkpt>
      <trkpt lat="45.16592" lon="5.40929">
        <ele>306.8</ele>
        <time>2022-10-15T13:05:51.000Z</time>
      </trkpt>
      <trkpt lat="45.16589" lon="5.40918">
        <ele>306.3</ele>
        <time>2022-10-15T13:05:52.000Z</time>
      </trkpt>
      <trkpt lat="45.16583" lon="5.40908">
        <ele>306.2</ele>
        <time>2022-10-15T13:05:53.000Z</time>
      </trkpt>
      <trkpt lat="45.16577" lon="5.40897">
        <ele>306.1</ele>
        <time>2022-10-15T13:05:54.000Z</time>
      </trkpt>
      <trkpt lat="45.16572" lon="5.40887">
        <ele>305.7</ele>
        <time>2022-10-15T13:05:55.000Z</time>
      </trkpt>
      <trkpt lat="45.16567" lon="5.40876">
        <ele>305</ele>
        <time>2022-10-15T13:05:56.000Z</time>
      </trkpt>
      <trkpt lat="45.16563" lon="5.40866">
        <ele>303.8</ele>
        <time>2022-10-15T13:05:57.000Z</time>
      </trkpt>
      <trkpt lat="45.1656" lon="5.40854">
        <ele>302</ele>
        <time>2022-10-15T13:05:58.000Z</time>
      </trkpt>
      <trkpt lat="45.16557" lon="5.40843">
        <ele>300</ele>
        <time>2022-10-15T13:05:59.000Z</time>
      </trkpt>
      <trkpt lat="45.16555" lon="5.4083">
        <ele>297.6</ele>
        <time>2022-10-15T13:06:00.000Z</time>
      </trkpt>
      <trkpt lat="45.16555" lon="5.40817">
        <ele>295.4</ele>
        <time>2022-10-15T13:06:01.000Z</time>
      </trkpt>
      <trkpt lat="45.16556" lon="5.40804">
        <ele>292.5</ele>
        <time>2022-10-15T13:06:02.000Z</time>
      </trkpt>
      <trkpt lat="45.16558" lon="5.40792">
        <ele>290.5</ele>
        <time>2022-10-15T13:06:03.000Z</time>
      </trkpt>
      <trkpt lat="45.16558" lon="5.40779">
        <ele>288.6</ele>
        <time>2022-10-15T13:06:04.000Z</time>
      </trkpt>
      <trkpt lat="45.16558" lon="5.40767">
        <ele>287.2</ele>
        <time>2022-10-15T13:06:05.000Z</time>
      </trkpt>
      <trkpt lat="45.16558" lon="5.40754">
        <ele>285.9</ele>
        <time>2022-10-15T13:06:06.000Z</time>
      </trkpt>
      <trkpt lat="45.16557" lon="5.40742">
        <ele>285.2</ele>
        <time>2022-10-15T13:06:07.000Z</time>
      </trkpt>
      <trkpt lat="45.16555" lon="5.40731">
        <ele>285</ele>
        <time>2022-10-15T13:06:08.000Z</time>
      </trkpt>
      <trkpt lat="45.16554" lon="5.40721">
        <ele>284.3</ele>
        <time>2022-10-15T13:06:09.000Z</time>
      </trkpt>
      <trkpt lat="45.16555" lon="5.40712">
        <ele>283.4</ele>
        <time>2022-10-15T13:06:10.000Z</time>
      </trkpt>
      <trkpt lat="45.16555" lon="5.40704">
        <ele>282.8</ele>
        <time>2022-10-15T13:06:11.000Z</time>
      </trkpt>
      <trkpt lat="45.16557" lon="5.40698">
        <ele>282</ele>
        <time>2022-10-15T13:06:12.000Z</time>
      </trkpt>
      <trkpt lat="45.16559" lon="5.40693">
        <ele>281.3</ele>
        <time>2022-10-15T13:06:13.000Z</time>
      </trkpt>
      <trkpt lat="45.16562" lon="5.40688">
        <ele>280.5</ele>
        <time>2022-10-15T13:06:14.000Z</time>
      </trkpt>
      <trkpt lat="45.16564" lon="5.40683">
        <ele>279.7</ele>
        <time>2022-10-15T13:06:15.000Z</time>
      </trkpt>
      <trkpt lat="45.16568" lon="5.4068">
        <ele>278.8</ele>
        <time>2022-10-15T13:06:16.000Z</time>
      </trkpt>
      <trkpt lat="45.16571" lon="5.40678">
        <ele>278</ele>
        <time>2022-10-15T13:06:17.000Z</time>
      </trkpt>
      <trkpt lat="45.16578" lon="5.40676">
        <ele>276.7</ele>
        <time>2022-10-15T13:06:18.000Z</time>
      </trkpt>
      <trkpt lat="45.16584" lon="5.40673">
        <ele>275.4</ele>
        <time>2022-10-15T13:06:19.000Z</time>
      </trkpt>
      <trkpt lat="45.16589" lon="5.4067">
        <ele>274.8</ele>
        <time>2022-10-15T13:06:20.000Z</time>
      </trkpt>
      <trkpt lat="45.16595" lon="5.40664">
        <ele>273.9</ele>
        <time>2022-10-15T13:06:21.000Z</time>
      </trkpt>
      <trkpt lat="45.16603" lon="5.40656">
        <ele>272.8</ele>
        <time>2022-10-15T13:06:22.000Z</time>
      </trkpt>
      <trkpt lat="45.1661" lon="5.40648">
        <ele>271.7</ele>
        <time>2022-10-15T13:06:23.000Z</time>
      </trkpt>
      <trkpt lat="45.16619" lon="5.40639">
        <ele>271.3</ele>
        <time>2022-10-15T13:06:24.000Z</time>
      </trkpt>
      <trkpt lat="45.16627" lon="5.40631">
        <ele>271.3</ele>
        <time>2022-10-15T13:06:25.000Z</time>
      </trkpt>
      <trkpt lat="45.16636" lon="5.40623">
        <ele>271.3</ele>
        <time>2022-10-15T13:06:26.000Z</time>
      </trkpt>
      <trkpt lat="45.16645" lon="5.40616">
        <ele>271.7</ele>
        <time>2022-10-15T13:06:27.000Z</time>
      </trkpt>
      <trkpt lat="45.16654" lon="5.4061">
        <ele>272</ele>
        <time>2022-10-15T13:06:28.000Z</time>
      </trkpt>
      <trkpt lat="45.16664" lon="5.40604">
        <ele>272</ele>
        <time>2022-10-15T13:06:29.000Z</time>
      </trkpt>
      <trkpt lat="45.16673" lon="5.40598">
        <ele>272</ele>
        <time>2022-10-15T13:06:30.000Z</time>
      </trkpt>
      <trkpt lat="45.16683" lon="5.40594">
        <ele>271.9</ele>
        <time>2022-10-15T13:06:31.000Z</time>
      </trkpt>
      <trkpt lat="45.16693" lon="5.40589">
        <ele>271.8</ele>
        <time>2022-10-15T13:06:32.000Z</time>
      </trkpt>
      <trkpt lat="45.16702" lon="5.40585">
        <ele>271.3</ele>
        <time>2022-10-15T13:06:33.000Z</time>
      </trkpt>
      <trkpt lat="45.1671" lon="5.40583">
        <ele>271</ele>
        <time>2022-10-15T13:06:34.000Z</time>
      </trkpt>
      <trkpt lat="45.16717" lon="5.40583">
        <ele>270.9</ele>
        <time>2022-10-15T13:06:35.000Z</time>
      </trkpt>
      <trkpt lat="45.16725" lon="5.40584">
        <ele>270.9</ele>
        <time>2022-10-15T13:06:36.000Z</time>
      </trkpt>
      <trkpt lat="45.16732" lon="5.40587">
        <ele>270.5</ele>
        <time>2022-10-15T13:06:37.000Z</time>
      </trkpt>
      <trkpt lat="45.16739" lon="5.40592">
        <ele>270.7</ele>
        <time>2022-10-15T13:06:38.000Z</time>
      </trkpt>
      <trkpt lat="45.16746" lon="5.40596">
        <ele>270.7</ele>
        <time>2022-10-15T13:06:39.000Z</time>
      </trkpt>
      <trkpt lat="45.16753" lon="5.40602">
        <ele>270.9</ele>
        <time>2022-10-15T13:06:40.000Z</time>
      </trkpt>
      <trkpt lat="45.16759" lon="5.40607">
        <ele>270.8</ele>
        <time>2022-10-15T13:06:41.000Z</time>
      </trkpt>
      <trkpt lat="45.16765" lon="5.40613">
        <ele>270.5</ele>
        <time>2022-10-15T13:06:42.000Z</time>
      </trkpt>
      <trkpt lat="45.1677" lon="5.40619">
        <ele>270.3</ele>
        <time>2022-10-15T13:06:43.000Z</time>
      </trkpt>
      <trkpt lat="45.16775" lon="5.40624">
        <ele>270.3</ele>
        <time>2022-10-15T13:06:44.000Z</time>
      </trkpt>
      <trkpt lat="45.1678" lon="5.4063">
        <ele>270.4</ele>
        <time>2022-10-15T13:06:45.000Z</time>
      </trkpt>
      <trkpt lat="45.16785" lon="5.40635">
        <ele>270.2</ele>
        <time>2022-10-15T13:06:46.000Z</time>
      </trkpt>
      <trkpt lat="45.1679" lon="5.40641">
        <ele>270</ele>
        <time>2022-10-15T13:06:47.000Z</time>
      </trkpt>
      <trkpt lat="45.16793" lon="5.40647">
        <ele>269.8</ele>
        <time>2022-10-15T13:06:48.000Z</time>
      </trkpt>
      <trkpt lat="45.16795" lon="5.40652">
        <ele>269.8</ele>
        <time>2022-10-15T13:06:49.000Z</time>
      </trkpt>
      <trkpt lat="45.16797" lon="5.40658">
        <ele>270</ele>
        <time>2022-10-15T13:06:50.000Z</time>
      </trkpt>
      <trkpt lat="45.16798" lon="5.40665">
        <ele>270.2</ele>
        <time>2022-10-15T13:06:51.000Z</time>
      </trkpt>
      <trkpt lat="45.168" lon="5.40671">
        <ele>270</ele>
        <time>2022-10-15T13:06:52.000Z</time>
      </trkpt>
      <trkpt lat="45.16801" lon="5.40677">
        <ele>269.8</ele>
        <time>2022-10-15T13:06:53.000Z</time>
      </trkpt>
      <trkpt lat="45.16802" lon="5.40684">
        <ele>269.7</ele>
        <time>2022-10-15T13:06:54.000Z</time>
      </trkpt>
      <trkpt lat="45.16803" lon="5.4069">
        <ele>269.5</ele>
        <time>2022-10-15T13:06:55.000Z</time>
      </trkpt>
      <trkpt lat="45.16804" lon="5.40696">
        <ele>269.3</ele>
        <time>2022-10-15T13:06:56.000Z</time>
      </trkpt>
      <trkpt lat="45.16805" lon="5.407">
        <ele>269.4</ele>
        <time>2022-10-15T13:06:57.000Z</time>
      </trkpt>
      <trkpt lat="45.16806" lon="5.40704">
        <ele>269.3</ele>
        <time>2022-10-15T13:06:58.000Z</time>
      </trkpt>
      <trkpt lat="45.1681" lon="5.40707">
        <ele>269.1</ele>
        <time>2022-10-15T13:06:59.000Z</time>
      </trkpt>
      <trkpt lat="45.16813" lon="5.40708">
        <ele>268.8</ele>
        <time>2022-10-15T13:07:00.000Z</time>
      </trkpt>
      <trkpt lat="45.16818" lon="5.40706">
        <ele>268.4</ele>
        <time>2022-10-15T13:07:01.000Z</time>
      </trkpt>
      <trkpt lat="45.16823" lon="5.40705">
        <ele>267.9</ele>
        <time>2022-10-15T13:07:02.000Z</time>
      </trkpt>
      <trkpt lat="45.16828" lon="5.40702">
        <ele>267.5</ele>
        <time>2022-10-15T13:07:03.000Z</time>
      </trkpt>
      <trkpt lat="45.16832" lon="5.40699">
        <ele>267.1</ele>
        <time>2022-10-15T13:07:04.000Z</time>
      </trkpt>
      <trkpt lat="45.16835" lon="5.40696">
        <ele>266.5</ele>
        <time>2022-10-15T13:07:05.000Z</time>
      </trkpt>
      <trkpt lat="45.16837" lon="5.40694">
        <ele>265.7</ele>
        <time>2022-10-15T13:07:06.000Z</time>
      </trkpt>
      <trkpt lat="45.16839" lon="5.40691">
        <ele>265.2</ele>
        <time>2022-10-15T13:07:07.000Z</time>
      </trkpt>
      <trkpt lat="45.16841" lon="5.40689">
        <ele>264.4</ele>
        <time>2022-10-15T13:07:08.000Z</time>
      </trkpt>
      <trkpt lat="45.16843" lon="5.40686">
        <ele>263.6</ele>
        <time>2022-10-15T13:07:09.000Z</time>
      </trkpt>
      <trkpt lat="45.16845" lon="5.40683">
        <ele>262.8</ele>
        <time>2022-10-15T13:07:10.000Z</time>
      </trkpt>
      <trkpt lat="45.16846" lon="5.40679">
        <ele>262.3</ele>
        <time>2022-10-15T13:07:11.000Z</time>
      </trkpt>
      <trkpt lat="45.16847" lon="5.40675">
        <ele>262</ele>
        <time>2022-10-15T13:07:12.000Z</time>
      </trkpt>
      <trkpt lat="45.16847" lon="5.4067">
        <ele>261.8</ele>
        <time>2022-10-15T13:07:13.000Z</time>
      </trkpt>
      <trkpt lat="45.16846" lon="5.40665">
        <ele>261.8</ele>
        <time>2022-10-15T13:07:14.000Z</time>
      </trkpt>
      <trkpt lat="45.16846" lon="5.40661">
        <ele>261.8</ele>
        <time>2022-10-15T13:07:15.000Z</time>
      </trkpt>
      <trkpt lat="45.16845" lon="5.40656">
        <ele>261.9</ele>
        <time>2022-10-15T13:07:16.000Z</time>
      </trkpt>
      <trkpt lat="45.16844" lon="5.4065">
        <ele>261.9</ele>
        <time>2022-10-15T13:07:17.000Z</time>
      </trkpt>
      <trkpt lat="45.16843" lon="5.40645">
        <ele>262.1</ele>
        <time>2022-10-15T13:07:18.000Z</time>
      </trkpt>
      <trkpt lat="45.16842" lon="5.40639">
        <ele>262.2</ele>
        <time>2022-10-15T13:07:19.000Z</time>
      </trkpt>
      <trkpt lat="45.16841" lon="5.40633">
        <ele>263.1</ele>
        <time>2022-10-15T13:07:20.000Z</time>
      </trkpt>
      <trkpt lat="45.1684" lon="5.40626">
        <ele>263.9</ele>
        <time>2022-10-15T13:07:21.000Z</time>
      </trkpt>
      <trkpt lat="45.16838" lon="5.40619">
        <ele>264.6</ele>
        <time>2022-10-15T13:07:22.000Z</time>
      </trkpt>
      <trkpt lat="45.16836" lon="5.40613">
        <ele>265.3</ele>
        <time>2022-10-15T13:07:23.000Z</time>
      </trkpt>
      <trkpt lat="45.16835" lon="5.40606">
        <ele>265.8</ele>
        <time>2022-10-15T13:07:24.000Z</time>
      </trkpt>
      <trkpt lat="45.16833" lon="5.40599">
        <ele>266</ele>
        <time>2022-10-15T13:07:25.000Z</time>
      </trkpt>
      <trkpt lat="45.16831" lon="5.40591">
        <ele>266</ele>
        <time>2022-10-15T13:07:26.000Z</time>
      </trkpt>
      <trkpt lat="45.16829" lon="5.40584">
        <ele>266</ele>
        <time>2022-10-15T13:07:27.000Z</time>
      </trkpt>
      <trkpt lat="45.16827" lon="5.40576">
        <ele>265.8</ele>
        <time>2022-10-15T13:07:28.000Z</time>
      </trkpt>
      <trkpt lat="45.16824" lon="5.40568">
        <ele>265.6</ele>
        <time>2022-10-15T13:07:29.000Z</time>
      </trkpt>
      <trkpt lat="45.16822" lon="5.4056">
        <ele>265.5</ele>
        <time>2022-10-15T13:07:30.000Z</time>
      </trkpt>
      <trkpt lat="45.1682" lon="5.40551">
        <ele>265.5</ele>
        <time>2022-10-15T13:07:31.000Z</time>
      </trkpt>
      <trkpt lat="45.16817" lon="5.40544">
        <ele>265.6</ele>
        <time>2022-10-15T13:07:32.000Z</time>
      </trkpt>
      <trkpt lat="45.16815" lon="5.40536">
        <ele>265.7</ele>
        <time>2022-10-15T13:07:33.000Z</time>
      </trkpt>
      <trkpt lat="45.16812" lon="5.40528">
        <ele>265.8</ele>
        <time>2022-10-15T13:07:34.000Z</time>
      </trkpt>
      <trkpt lat="45.16809" lon="5.4052">
        <ele>265.6</ele>
        <time>2022-10-15T13:07:35.000Z</time>
      </trkpt>
      <trkpt lat="45.16806" lon="5.40511">
        <ele>265.4</ele>
        <time>2022-10-15T13:07:36.000Z</time>
      </trkpt>
      <trkpt lat="45.16803" lon="5.40504">
        <ele>265.2</ele>
        <time>2022-10-15T13:07:37.000Z</time>
      </trkpt>
      <trkpt lat="45.168" lon="5.40496">
        <ele>265</ele>
        <time>2022-10-15T13:07:38.000Z</time>
      </trkpt>
      <trkpt lat="45.16797" lon="5.40488">
        <ele>264.9</ele>
        <time>2022-10-15T13:07:39.000Z</time>
      </trkpt>
      <trkpt lat="45.16794" lon="5.4048">
        <ele>264.7</ele>
        <time>2022-10-15T13:07:40.000Z</time>
      </trkpt>
      <trkpt lat="45.16791" lon="5.40472">
        <ele>264.5</ele>
        <time>2022-10-15T13:07:41.000Z</time>
      </trkpt>
      <trkpt lat="45.16788" lon="5.40465">
        <ele>264.5</ele>
        <time>2022-10-15T13:07:42.000Z</time>
      </trkpt>
      <trkpt lat="45.16785" lon="5.40457">
        <ele>264.3</ele>
        <time>2022-10-15T13:07:43.000Z</time>
      </trkpt>
      <trkpt lat="45.16781" lon="5.40448">
        <ele>264.1</ele>
        <time>2022-10-15T13:07:44.000Z</time>
      </trkpt>
      <trkpt lat="45.16778" lon="5.40439">
        <ele>263.8</ele>
        <time>2022-10-15T13:07:45.000Z</time>
      </trkpt>
      <trkpt lat="45.16775" lon="5.4043">
        <ele>263.6</ele>
        <time>2022-10-15T13:07:46.000Z</time>
      </trkpt>
      <trkpt lat="45.16771" lon="5.40422">
        <ele>263.5</ele>
        <time>2022-10-15T13:07:47.000Z</time>
      </trkpt>
      <trkpt lat="45.16767" lon="5.40414">
        <ele>263.4</ele>
        <time>2022-10-15T13:07:48.000Z</time>
      </trkpt>
      <trkpt lat="45.16762" lon="5.40405">
        <ele>263.3</ele>
        <time>2022-10-15T13:07:49.000Z</time>
      </trkpt>
      <trkpt lat="45.16758" lon="5.40397">
        <ele>263.2</ele>
        <time>2022-10-15T13:07:50.000Z</time>
      </trkpt>
      <trkpt lat="45.16753" lon="5.40388">
        <ele>263</ele>
        <time>2022-10-15T13:07:51.000Z</time>
      </trkpt>
      <trkpt lat="45.16749" lon="5.4038">
        <ele>263</ele>
        <time>2022-10-15T13:07:52.000Z</time>
      </trkpt>
      <trkpt lat="45.16745" lon="5.40373">
        <ele>263</ele>
        <time>2022-10-15T13:07:53.000Z</time>
      </trkpt>
      <trkpt lat="45.16741" lon="5.40365">
        <ele>263</ele>
        <time>2022-10-15T13:07:54.000Z</time>
      </trkpt>
      <trkpt lat="45.16737" lon="5.40358">
        <ele>262.9</ele>
        <time>2022-10-15T13:07:55.000Z</time>
      </trkpt>
      <trkpt lat="45.16734" lon="5.40351">
        <ele>262.8</ele>
        <time>2022-10-15T13:07:56.000Z</time>
      </trkpt>
      <trkpt lat="45.1673" lon="5.40343">
        <ele>262.8</ele>
        <time>2022-10-15T13:07:57.000Z</time>
      </trkpt>
      <trkpt lat="45.16727" lon="5.40336">
        <ele>262.8</ele>
        <time>2022-10-15T13:07:58.000Z</time>
      </trkpt>
      <trkpt lat="45.16724" lon="5.40329">
        <ele>262.6</ele>
        <time>2022-10-15T13:07:59.000Z</time>
      </trkpt>
      <trkpt lat="45.16721" lon="5.40321">
        <ele>262.1</ele>
        <time>2022-10-15T13:08:00.000Z</time>
      </trkpt>
      <trkpt lat="45.16717" lon="5.40314">
        <ele>261.6</ele>
        <time>2022-10-15T13:08:01.000Z</time>
      </trkpt>
      <trkpt lat="45.16714" lon="5.40306">
        <ele>261.3</ele>
        <time>2022-10-15T13:08:02.000Z</time>
      </trkpt>
      <trkpt lat="45.16711" lon="5.40298">
        <ele>261.4</ele>
        <time>2022-10-15T13:08:03.000Z</time>
      </trkpt>
      <trkpt lat="45.16708" lon="5.4029">
        <ele>261.5</ele>
        <time>2022-10-15T13:08:04.000Z</time>
      </trkpt>
      <trkpt lat="45.16705" lon="5.40283">
        <ele>261.6</ele>
        <time>2022-10-15T13:08:05.000Z</time>
      </trkpt>
      <trkpt lat="45.16701" lon="5.40275">
        <ele>261.7</ele>
        <time>2022-10-15T13:08:06.000Z</time>
      </trkpt>
      <trkpt lat="45.16698" lon="5.40268">
        <ele>261.6</ele>
        <time>2022-10-15T13:08:07.000Z</time>
      </trkpt>
      <trkpt lat="45.16695" lon="5.40261">
        <ele>261.4</ele>
        <time>2022-10-15T13:08:08.000Z</time>
      </trkpt>
      <trkpt lat="45.16692" lon="5.40254">
        <ele>261.1</ele>
        <time>2022-10-15T13:08:09.000Z</time>
      </trkpt>
      <trkpt lat="45.16688" lon="5.40247">
        <ele>261</ele>
        <time>2022-10-15T13:08:10.000Z</time>
      </trkpt>
      <trkpt lat="45.16685" lon="5.40241">
        <ele>261.1</ele>
        <time>2022-10-15T13:08:11.000Z</time>
      </trkpt>
      <trkpt lat="45.16682" lon="5.40234">
        <ele>261.3</ele>
        <time>2022-10-15T13:08:12.000Z</time>
      </trkpt>
      <trkpt lat="45.16678" lon="5.40227">
        <ele>261.5</ele>
        <time>2022-10-15T13:08:13.000Z</time>
      </trkpt>
      <trkpt lat="45.16675" lon="5.40221">
        <ele>261.7</ele>
        <time>2022-10-15T13:08:14.000Z</time>
      </trkpt>
      <trkpt lat="45.16671" lon="5.40215">
        <ele>261.6</ele>
        <time>2022-10-15T13:08:15.000Z</time>
      </trkpt>
      <trkpt lat="45.16668" lon="5.40208">
        <ele>261.5</ele>
        <time>2022-10-15T13:08:16.000Z</time>
      </trkpt>
      <trkpt lat="45.16665" lon="5.40202">
        <ele>261.2</ele>
        <time>2022-10-15T13:08:17.000Z</time>
      </trkpt>
      <trkpt lat="45.16662" lon="5.40195">
        <ele>261</ele>
        <time>2022-10-15T13:08:18.000Z</time>
      </trkpt>
      <trkpt lat="45.16659" lon="5.40189">
        <ele>260.9</ele>
        <time>2022-10-15T13:08:19.000Z</time>
      </trkpt>
      <trkpt lat="45.16656" lon="5.40184">
        <ele>260.8</ele>
        <time>2022-10-15T13:08:20.000Z</time>
      </trkpt>
      <trkpt lat="45.16653" lon="5.40178">
        <ele>260.7</ele>
        <time>2022-10-15T13:08:21.000Z</time>
      </trkpt>
      <trkpt lat="45.16652" lon="5.40172">
        <ele>260.6</ele>
        <time>2022-10-15T13:08:22.000Z</time>
      </trkpt>
      <trkpt lat="45.16652" lon="5.40167">
        <ele>260.5</ele>
        <time>2022-10-15T13:08:23.000Z</time>
      </trkpt>
      <trkpt lat="45.16653" lon="5.40163">
        <ele>260.4</ele>
        <time>2022-10-15T13:08:24.000Z</time>
      </trkpt>
      <trkpt lat="45.16655" lon="5.4016">
        <ele>260.3</ele>
        <time>2022-10-15T13:08:25.000Z</time>
      </trkpt>
      <trkpt lat="45.16657" lon="5.40157">
        <ele>260.2</ele>
        <time>2022-10-15T13:08:26.000Z</time>
      </trkpt>
      <trkpt lat="45.1666" lon="5.40154">
        <ele>260.1</ele>
        <time>2022-10-15T13:08:27.000Z</time>
      </trkpt>
      <trkpt lat="45.16661" lon="5.40151">
        <ele>260.1</ele>
        <time>2022-10-15T13:08:28.000Z</time>
      </trkpt>
      <trkpt lat="45.16663" lon="5.40149">
        <ele>260</ele>
        <time>2022-10-15T13:08:29.000Z</time>
      </trkpt>
      <trkpt lat="45.16665" lon="5.40146">
        <ele>260</ele>
        <time>2022-10-15T13:08:30.000Z</time>
      </trkpt>
      <trkpt lat="45.16669" lon="5.40144">
        <ele>260</ele>
        <time>2022-10-15T13:08:32.000Z</time>
      </trkpt>
      <trkpt lat="45.16671" lon="5.40141">
        <ele>260</ele>
        <time>2022-10-15T13:08:33.000Z</time>
      </trkpt>
      <trkpt lat="45.16676" lon="5.40139">
        <ele>260</ele>
        <time>2022-10-15T13:08:34.000Z</time>
      </trkpt>
      <trkpt lat="45.16679" lon="5.40136">
        <ele>260</ele>
        <time>2022-10-15T13:08:35.000Z</time>
      </trkpt>
      <trkpt lat="45.16683" lon="5.40133">
        <ele>260</ele>
        <time>2022-10-15T13:08:36.000Z</time>
      </trkpt>
      <trkpt lat="45.16686" lon="5.40131">
        <ele>260</ele>
        <time>2022-10-15T13:08:37.000Z</time>
      </trkpt>
      <trkpt lat="45.1669" lon="5.40128">
        <ele>260</ele>
        <time>2022-10-15T13:08:38.000Z</time>
      </trkpt>
      <trkpt lat="45.16694" lon="5.40125">
        <ele>260</ele>
        <time>2022-10-15T13:08:39.000Z</time>
      </trkpt>
      <trkpt lat="45.16698" lon="5.40122">
        <ele>260</ele>
        <time>2022-10-15T13:08:40.000Z</time>
      </trkpt>
      <trkpt lat="45.16701" lon="5.40118">
        <ele>260</ele>
        <time>2022-10-15T13:08:41.000Z</time>
      </trkpt>
      <trkpt lat="45.16705" lon="5.40115">
        <ele>260</ele>
        <time>2022-10-15T13:08:42.000Z</time>
      </trkpt>
      <trkpt lat="45.16708" lon="5.40111">
        <ele>260</ele>
        <time>2022-10-15T13:08:43.000Z</time>
      </trkpt>
      <trkpt lat="45.16711" lon="5.40109">
        <ele>260</ele>
        <time>2022-10-15T13:08:44.000Z</time>
      </trkpt>
      <trkpt lat="45.16713" lon="5.40105">
        <ele>260</ele>
        <time>2022-10-15T13:08:45.000Z</time>
      </trkpt>
      <trkpt lat="45.16716" lon="5.401">
        <ele>260</ele>
        <time>2022-10-15T13:08:46.000Z</time>
      </trkpt>
      <trkpt lat="45.16719" lon="5.40095">
        <ele>260</ele>
        <time>2022-10-15T13:08:47.000Z</time>
      </trkpt>
      <trkpt lat="45.16722" lon="5.4009">
        <ele>260</ele>
        <time>2022-10-15T13:08:48.000Z</time>
      </trkpt>
      <trkpt lat="45.16725" lon="5.40086">
        <ele>259.9</ele>
        <time>2022-10-15T13:08:49.000Z</time>
      </trkpt>
      <trkpt lat="45.16729" lon="5.4008">
        <ele>259.7</ele>
        <time>2022-10-15T13:08:50.000Z</time>
      </trkpt>
      <trkpt lat="45.16733" lon="5.40074">
        <ele>259.4</ele>
        <time>2022-10-15T13:08:51.000Z</time>
      </trkpt>
      <trkpt lat="45.16737" lon="5.4007">
        <ele>259.2</ele>
        <time>2022-10-15T13:08:52.000Z</time>
      </trkpt>
      <trkpt lat="45.1674" lon="5.40066">
        <ele>259.1</ele>
        <time>2022-10-15T13:08:53.000Z</time>
      </trkpt>
      <trkpt lat="45.16744" lon="5.40062">
        <ele>259</ele>
        <time>2022-10-15T13:08:54.000Z</time>
      </trkpt>
      <trkpt lat="45.16749" lon="5.40057">
        <ele>259</ele>
        <time>2022-10-15T13:08:55.000Z</time>
      </trkpt>
      <trkpt lat="45.16753" lon="5.40053">
        <ele>259</ele>
        <time>2022-10-15T13:08:56.000Z</time>
      </trkpt>
      <trkpt lat="45.16757" lon="5.40049">
        <ele>259</ele>
        <time>2022-10-15T13:08:57.000Z</time>
      </trkpt>
      <trkpt lat="45.16761" lon="5.40045">
        <ele>259</ele>
        <time>2022-10-15T13:08:58.000Z</time>
      </trkpt>
      <trkpt lat="45.16764" lon="5.40041">
        <ele>259</ele>
        <time>2022-10-15T13:08:59.000Z</time>
      </trkpt>
      <trkpt lat="45.16768" lon="5.40038">
        <ele>259</ele>
        <time>2022-10-15T13:09:00.000Z</time>
      </trkpt>
      <trkpt lat="45.16772" lon="5.40034">
        <ele>259</ele>
        <time>2022-10-15T13:09:01.000Z</time>
      </trkpt>
      <trkpt lat="45.16776" lon="5.40031">
        <ele>259</ele>
        <time>2022-10-15T13:09:02.000Z</time>
      </trkpt>
      <trkpt lat="45.16779" lon="5.40027">
        <ele>259</ele>
        <time>2022-10-15T13:09:03.000Z</time>
      </trkpt>
      <trkpt lat="45.16783" lon="5.40024">
        <ele>258.9</ele>
        <time>2022-10-15T13:09:04.000Z</time>
      </trkpt>
      <trkpt lat="45.16786" lon="5.4002">
        <ele>258.7</ele>
        <time>2022-10-15T13:09:05.000Z</time>
      </trkpt>
      <trkpt lat="45.1679" lon="5.40016">
        <ele>258.6</ele>
        <time>2022-10-15T13:09:06.000Z</time>
      </trkpt>
      <trkpt lat="45.16794" lon="5.40012">
        <ele>258.4</ele>
        <time>2022-10-15T13:09:07.000Z</time>
      </trkpt>
      <trkpt lat="45.16798" lon="5.40008">
        <ele>258.3</ele>
        <time>2022-10-15T13:09:08.000Z</time>
      </trkpt>
      <trkpt lat="45.16804" lon="5.40004">
        <ele>258.1</ele>
        <time>2022-10-15T13:09:09.000Z</time>
      </trkpt>
      <trkpt lat="45.16808" lon="5.40001">
        <ele>258</ele>
        <time>2022-10-15T13:09:10.000Z</time>
      </trkpt>
      <trkpt lat="45.16812" lon="5.39997">
        <ele>258</ele>
        <time>2022-10-15T13:09:11.000Z</time>
      </trkpt>
      <trkpt lat="45.16815" lon="5.39993">
        <ele>258</ele>
        <time>2022-10-15T13:09:12.000Z</time>
      </trkpt>
      <trkpt lat="45.16819" lon="5.39989">
        <ele>258</ele>
        <time>2022-10-15T13:09:13.000Z</time>
      </trkpt>
      <trkpt lat="45.16822" lon="5.39985">
        <ele>258</ele>
        <time>2022-10-15T13:09:14.000Z</time>
      </trkpt>
      <trkpt lat="45.16825" lon="5.3998">
        <ele>258</ele>
        <time>2022-10-15T13:09:15.000Z</time>
      </trkpt>
      <trkpt lat="45.16828" lon="5.39977">
        <ele>258</ele>
        <time>2022-10-15T13:09:16.000Z</time>
      </trkpt>
      <trkpt lat="45.1683" lon="5.39972">
        <ele>258</ele>
        <time>2022-10-15T13:09:17.000Z</time>
      </trkpt>
      <trkpt lat="45.16832" lon="5.39968">
        <ele>258</ele>
        <time>2022-10-15T13:09:18.000Z</time>
      </trkpt>
      <trkpt lat="45.16834" lon="5.39964">
        <ele>258</ele>
        <time>2022-10-15T13:09:19.000Z</time>
      </trkpt>
      <trkpt lat="45.16837" lon="5.39958">
        <ele>258</ele>
        <time>2022-10-15T13:09:20.000Z</time>
      </trkpt>
      <trkpt lat="45.16839" lon="5.39953">
        <ele>258</ele>
        <time>2022-10-15T13:09:21.000Z</time>
      </trkpt>
      <trkpt lat="45.16843" lon="5.39949">
        <ele>258</ele>
        <time>2022-10-15T13:09:22.000Z</time>
      </trkpt>
      <trkpt lat="45.16847" lon="5.39944">
        <ele>258</ele>
        <time>2022-10-15T13:09:23.000Z</time>
      </trkpt>
      <trkpt lat="45.1685" lon="5.39939">
        <ele>258</ele>
        <time>2022-10-15T13:09:24.000Z</time>
      </trkpt>
      <trkpt lat="45.16853" lon="5.39935">
        <ele>258</ele>
        <time>2022-10-15T13:09:25.000Z</time>
      </trkpt>
      <trkpt lat="45.16856" lon="5.39931">
        <ele>258</ele>
        <time>2022-10-15T13:09:26.000Z</time>
      </trkpt>
      <trkpt lat="45.16858" lon="5.39927">
        <ele>258</ele>
        <time>2022-10-15T13:09:27.000Z</time>
      </trkpt>
      <trkpt lat="45.1686" lon="5.39924">
        <ele>258</ele>
        <time>2022-10-15T13:09:28.000Z</time>
      </trkpt>
      <trkpt lat="45.16863" lon="5.39918">
        <ele>258</ele>
        <time>2022-10-15T13:09:29.000Z</time>
      </trkpt>
      <trkpt lat="45.16865" lon="5.39913">
        <ele>258</ele>
        <time>2022-10-15T13:09:30.000Z</time>
      </trkpt>
      <trkpt lat="45.16866" lon="5.39909">
        <ele>258</ele>
        <time>2022-10-15T13:09:31.000Z</time>
      </trkpt>
      <trkpt lat="45.16869" lon="5.39908">
        <ele>258</ele>
        <time>2022-10-15T13:09:33.000Z</time>
      </trkpt>
      <trkpt lat="45.16872" lon="5.39906">
        <ele>258</ele>
        <time>2022-10-15T13:09:34.000Z</time>
      </trkpt>
      <trkpt lat="45.16874" lon="5.39902">
        <ele>258</ele>
        <time>2022-10-15T13:09:35.000Z</time>
      </trkpt>
      <trkpt lat="45.16876" lon="5.39897">
        <ele>258</ele>
        <time>2022-10-15T13:09:36.000Z</time>
      </trkpt>
      <trkpt lat="45.16878" lon="5.39892">
        <ele>258</ele>
        <time>2022-10-15T13:09:37.000Z</time>
      </trkpt>
      <trkpt lat="45.16881" lon="5.39889">
        <ele>258</ele>
        <time>2022-10-15T13:09:38.000Z</time>
      </trkpt>
      <trkpt lat="45.16884" lon="5.39885">
        <ele>258</ele>
        <time>2022-10-15T13:09:39.000Z</time>
      </trkpt>
      <trkpt lat="45.16886" lon="5.39882">
        <ele>258</ele>
        <time>2022-10-15T13:09:40.000Z</time>
      </trkpt>
      <trkpt lat="45.16888" lon="5.39879">
        <ele>258</ele>
        <time>2022-10-15T13:09:41.000Z</time>
      </trkpt>
      <trkpt lat="45.16891" lon="5.39874">
        <ele>258</ele>
        <time>2022-10-15T13:09:42.000Z</time>
      </trkpt>
      <trkpt lat="45.16894" lon="5.39869">
        <ele>258</ele>
        <time>2022-10-15T13:09:43.000Z</time>
      </trkpt>
      <trkpt lat="45.16896" lon="5.39866">
        <ele>258</ele>
        <time>2022-10-15T13:09:44.000Z</time>
      </trkpt>
      <trkpt lat="45.16898" lon="5.39863">
        <ele>258</ele>
        <time>2022-10-15T13:09:45.000Z</time>
      </trkpt>
      <trkpt lat="45.169" lon="5.39859">
        <ele>258</ele>
        <time>2022-10-15T13:09:46.000Z</time>
      </trkpt>
      <trkpt lat="45.16902" lon="5.39855">
        <ele>258.1</ele>
        <time>2022-10-15T13:09:47.000Z</time>
      </trkpt>
      <trkpt lat="45.16905" lon="5.39848">
        <ele>258.3</ele>
        <time>2022-10-15T13:09:48.000Z</time>
      </trkpt>
      <trkpt lat="45.16908" lon="5.39842">
        <ele>258.5</ele>
        <time>2022-10-15T13:09:49.000Z</time>
      </trkpt>
      <trkpt lat="45.16911" lon="5.39836">
        <ele>258.7</ele>
        <time>2022-10-15T13:09:50.000Z</time>
      </trkpt>
      <trkpt lat="45.16913" lon="5.3983">
        <ele>258.9</ele>
        <time>2022-10-15T13:09:51.000Z</time>
      </trkpt>
      <trkpt lat="45.16915" lon="5.39825">
        <ele>258.9</ele>
        <time>2022-10-15T13:09:52.000Z</time>
      </trkpt>
      <trkpt lat="45.16918" lon="5.3982">
        <ele>259</ele>
        <time>2022-10-15T13:09:53.000Z</time>
      </trkpt>
      <trkpt lat="45.16921" lon="5.39815">
        <ele>259</ele>
        <time>2022-10-15T13:09:54.000Z</time>
      </trkpt>
      <trkpt lat="45.16923" lon="5.3981">
        <ele>259</ele>
        <time>2022-10-15T13:09:55.000Z</time>
      </trkpt>
      <trkpt lat="45.16926" lon="5.39806">
        <ele>259</ele>
        <time>2022-10-15T13:09:56.000Z</time>
      </trkpt>
      <trkpt lat="45.16928" lon="5.39802">
        <ele>259</ele>
        <time>2022-10-15T13:09:57.000Z</time>
      </trkpt>
      <trkpt lat="45.16931" lon="5.39798">
        <ele>259</ele>
        <time>2022-10-15T13:09:58.000Z</time>
      </trkpt>
      <trkpt lat="45.16933" lon="5.39794">
        <ele>259</ele>
        <time>2022-10-15T13:09:59.000Z</time>
      </trkpt>
      <trkpt lat="45.16935" lon="5.39791">
        <ele>259</ele>
        <time>2022-10-15T13:10:00.000Z</time>
      </trkpt>
      <trkpt lat="45.16936" lon="5.39788">
        <ele>259</ele>
        <time>2022-10-15T13:10:01.000Z</time>
      </trkpt>
      <trkpt lat="45.16938" lon="5.39785">
        <ele>259</ele>
        <time>2022-10-15T13:10:02.000Z</time>
      </trkpt>
      <trkpt lat="45.1694" lon="5.39783">
        <ele>259</ele>
        <time>2022-10-15T13:10:03.000Z</time>
      </trkpt>
      <trkpt lat="45.16941" lon="5.3978">
        <ele>259</ele>
        <time>2022-10-15T13:10:04.000Z</time>
      </trkpt>
      <trkpt lat="45.16943" lon="5.39778">
        <ele>259</ele>
        <time>2022-10-15T13:10:05.000Z</time>
      </trkpt>
      <trkpt lat="45.16944" lon="5.39775">
        <ele>259</ele>
        <time>2022-10-15T13:10:06.000Z</time>
      </trkpt>
      <trkpt lat="45.16946" lon="5.39772">
        <ele>259</ele>
        <time>2022-10-15T13:10:07.000Z</time>
      </trkpt>
      <trkpt lat="45.16948" lon="5.39769">
        <ele>259</ele>
        <time>2022-10-15T13:10:08.000Z</time>
      </trkpt>
      <trkpt lat="45.1695" lon="5.39766">
        <ele>258.9</ele>
        <time>2022-10-15T13:10:09.000Z</time>
      </trkpt>
      <trkpt lat="45.16952" lon="5.39763">
        <ele>258.8</ele>
        <time>2022-10-15T13:10:10.000Z</time>
      </trkpt>
      <trkpt lat="45.16955" lon="5.3976">
        <ele>258.8</ele>
        <time>2022-10-15T13:10:11.000Z</time>
      </trkpt>
      <trkpt lat="45.16957" lon="5.39757">
        <ele>258.7</ele>
        <time>2022-10-15T13:10:12.000Z</time>
      </trkpt>
      <trkpt lat="45.16959" lon="5.39754">
        <ele>258.5</ele>
        <time>2022-10-15T13:10:13.000Z</time>
      </trkpt>
      <trkpt lat="45.16961" lon="5.39751">
        <ele>258.4</ele>
        <time>2022-10-15T13:10:14.000Z</time>
      </trkpt>
      <trkpt lat="45.16964" lon="5.39747">
        <ele>258.3</ele>
        <time>2022-10-15T13:10:15.000Z</time>
      </trkpt>
      <trkpt lat="45.16966" lon="5.39744">
        <ele>258.2</ele>
        <time>2022-10-15T13:10:16.000Z</time>
      </trkpt>
      <trkpt lat="45.16969" lon="5.3974">
        <ele>258.1</ele>
        <time>2022-10-15T13:10:17.000Z</time>
      </trkpt>
      <trkpt lat="45.16971" lon="5.39737">
        <ele>258</ele>
        <time>2022-10-15T13:10:18.000Z</time>
      </trkpt>
      <trkpt lat="45.16973" lon="5.39733">
        <ele>257.9</ele>
        <time>2022-10-15T13:10:19.000Z</time>
      </trkpt>
      <trkpt lat="45.16975" lon="5.39729">
        <ele>257.6</ele>
        <time>2022-10-15T13:10:20.000Z</time>
      </trkpt>
      <trkpt lat="45.16978" lon="5.39727">
        <ele>257.1</ele>
        <time>2022-10-15T13:10:21.000Z</time>
      </trkpt>
      <trkpt lat="45.16981" lon="5.39726">
        <ele>256.7</ele>
        <time>2022-10-15T13:10:22.000Z</time>
      </trkpt>
      <trkpt lat="45.16984" lon="5.39727">
        <ele>256.3</ele>
        <time>2022-10-15T13:10:23.000Z</time>
      </trkpt>
      <trkpt lat="45.16987" lon="5.39729">
        <ele>256</ele>
        <time>2022-10-15T13:10:24.000Z</time>
      </trkpt>
      <trkpt lat="45.16989" lon="5.3973">
        <ele>255.8</ele>
        <time>2022-10-15T13:10:25.000Z</time>
      </trkpt>
      <trkpt lat="45.16992" lon="5.39733">
        <ele>255.8</ele>
        <time>2022-10-15T13:10:26.000Z</time>
      </trkpt>
      <trkpt lat="45.16995" lon="5.39736">
        <ele>255.9</ele>
        <time>2022-10-15T13:10:27.000Z</time>
      </trkpt>
      <trkpt lat="45.16998" lon="5.39739">
        <ele>256.2</ele>
        <time>2022-10-15T13:10:28.000Z</time>
      </trkpt>
      <trkpt lat="45.17002" lon="5.39743">
        <ele>256.1</ele>
        <time>2022-10-15T13:10:29.000Z</time>
      </trkpt>
      <trkpt lat="45.17007" lon="5.39747">
        <ele>255.4</ele>
        <time>2022-10-15T13:10:30.000Z</time>
      </trkpt>
      <trkpt lat="45.17012" lon="5.39752">
        <ele>254.6</ele>
        <time>2022-10-15T13:10:31.000Z</time>
      </trkpt>
      <trkpt lat="45.17018" lon="5.39757">
        <ele>253.9</ele>
        <time>2022-10-15T13:10:32.000Z</time>
      </trkpt>
      <trkpt lat="45.17025" lon="5.39763">
        <ele>253.7</ele>
        <time>2022-10-15T13:10:33.000Z</time>
      </trkpt>
      <trkpt lat="45.17034" lon="5.39769">
        <ele>253.1</ele>
        <time>2022-10-15T13:10:34.000Z</time>
      </trkpt>
      <trkpt lat="45.17042" lon="5.39775">
        <ele>252.1</ele>
        <time>2022-10-15T13:10:35.000Z</time>
      </trkpt>
      <trkpt lat="45.1705" lon="5.39781">
        <ele>251.3</ele>
        <time>2022-10-15T13:10:36.000Z</time>
      </trkpt>
      <trkpt lat="45.17058" lon="5.39786">
        <ele>250.4</ele>
        <time>2022-10-15T13:10:37.000Z</time>
      </trkpt>
      <trkpt lat="45.17067" lon="5.39791">
        <ele>248.7</ele>
        <time>2022-10-15T13:10:38.000Z</time>
      </trkpt>
      <trkpt lat="45.17075" lon="5.39796">
        <ele>247</ele>
        <time>2022-10-15T13:10:39.000Z</time>
      </trkpt>
      <trkpt lat="45.17083" lon="5.398">
        <ele>244.9</ele>
        <time>2022-10-15T13:10:40.000Z</time>
      </trkpt>
      <trkpt lat="45.17091" lon="5.39806">
        <ele>243.8</ele>
        <time>2022-10-15T13:10:41.000Z</time>
      </trkpt>
      <trkpt lat="45.17099" lon="5.39811">
        <ele>242.6</ele>
        <time>2022-10-15T13:10:42.000Z</time>
      </trkpt>
      <trkpt lat="45.17106" lon="5.39818">
        <ele>241.4</ele>
        <time>2022-10-15T13:10:43.000Z</time>
      </trkpt>
      <trkpt lat="45.17114" lon="5.39824">
        <ele>239.9</ele>
        <time>2022-10-15T13:10:44.000Z</time>
      </trkpt>
      <trkpt lat="45.17121" lon="5.39831">
        <ele>238.8</ele>
        <time>2022-10-15T13:10:45.000Z</time>
      </trkpt>
      <trkpt lat="45.17128" lon="5.39838">
        <ele>237.9</ele>
        <time>2022-10-15T13:10:46.000Z</time>
      </trkpt>
      <trkpt lat="45.17134" lon="5.39844">
        <ele>236.7</ele>
        <time>2022-10-15T13:10:47.000Z</time>
      </trkpt>
      <trkpt lat="45.17141" lon="5.39851">
        <ele>235.4</ele>
        <time>2022-10-15T13:10:48.000Z</time>
      </trkpt>
      <trkpt lat="45.17147" lon="5.39857">
        <ele>234.5</ele>
        <time>2022-10-15T13:10:49.000Z</time>
      </trkpt>
      <trkpt lat="45.17154" lon="5.39864">
        <ele>233.6</ele>
        <time>2022-10-15T13:10:50.000Z</time>
      </trkpt>
      <trkpt lat="45.17161" lon="5.3987">
        <ele>232.7</ele>
        <time>2022-10-15T13:10:51.000Z</time>
      </trkpt>
      <trkpt lat="45.17167" lon="5.39877">
        <ele>231.6</ele>
        <time>2022-10-15T13:10:52.000Z</time>
      </trkpt>
      <trkpt lat="45.17173" lon="5.39882">
        <ele>230.8</ele>
        <time>2022-10-15T13:10:53.000Z</time>
      </trkpt>
      <trkpt lat="45.17179" lon="5.39886">
        <ele>230.2</ele>
        <time>2022-10-15T13:10:54.000Z</time>
      </trkpt>
      <trkpt lat="45.17183" lon="5.3989">
        <ele>229.6</ele>
        <time>2022-10-15T13:10:55.000Z</time>
      </trkpt>
      <trkpt lat="45.17187" lon="5.39894">
        <ele>229</ele>
        <time>2022-10-15T13:10:56.000Z</time>
      </trkpt>
      <trkpt lat="45.17191" lon="5.39896">
        <ele>228.3</ele>
        <time>2022-10-15T13:10:57.000Z</time>
      </trkpt>
      <trkpt lat="45.17195" lon="5.39897">
        <ele>227.6</ele>
        <time>2022-10-15T13:10:58.000Z</time>
      </trkpt>
      <trkpt lat="45.17198" lon="5.39897">
        <ele>226.8</ele>
        <time>2022-10-15T13:10:59.000Z</time>
      </trkpt>
      <trkpt lat="45.17202" lon="5.39895">
        <ele>225.9</ele>
        <time>2022-10-15T13:11:00.000Z</time>
      </trkpt>
      <trkpt lat="45.17206" lon="5.39891">
        <ele>224.8</ele>
        <time>2022-10-15T13:11:01.000Z</time>
      </trkpt>
      <trkpt lat="45.17209" lon="5.39886">
        <ele>223.7</ele>
        <time>2022-10-15T13:11:02.000Z</time>
      </trkpt>
      <trkpt lat="45.17212" lon="5.39879">
        <ele>222.8</ele>
        <time>2022-10-15T13:11:03.000Z</time>
      </trkpt>
      <trkpt lat="45.17216" lon="5.39871">
        <ele>221.9</ele>
        <time>2022-10-15T13:11:04.000Z</time>
      </trkpt>
      <trkpt lat="45.17221" lon="5.39863">
        <ele>221.2</ele>
        <time>2022-10-15T13:11:05.000Z</time>
      </trkpt>
      <trkpt lat="45.17225" lon="5.39855">
        <ele>220.8</ele>
        <time>2022-10-15T13:11:06.000Z</time>
      </trkpt>
      <trkpt lat="45.17229" lon="5.39848">
        <ele>220.5</ele>
        <time>2022-10-15T13:11:07.000Z</time>
      </trkpt>
      <trkpt lat="45.17233" lon="5.39841">
        <ele>220.2</ele>
        <time>2022-10-15T13:11:08.000Z</time>
      </trkpt>
      <trkpt lat="45.17237" lon="5.39834">
        <ele>219.9</ele>
        <time>2022-10-15T13:11:09.000Z</time>
      </trkpt>
      <trkpt lat="45.17241" lon="5.39828">
        <ele>219.6</ele>
        <time>2022-10-15T13:11:10.000Z</time>
      </trkpt>
      <trkpt lat="45.17246" lon="5.39823">
        <ele>219.3</ele>
        <time>2022-10-15T13:11:11.000Z</time>
      </trkpt>
      <trkpt lat="45.1725" lon="5.39819">
        <ele>219</ele>
        <time>2022-10-15T13:11:12.000Z</time>
      </trkpt>
      <trkpt lat="45.17255" lon="5.39815">
        <ele>218.8</ele>
        <time>2022-10-15T13:11:13.000Z</time>
      </trkpt>
      <trkpt lat="45.17259" lon="5.39811">
        <ele>218.7</ele>
        <time>2022-10-15T13:11:14.000Z</time>
      </trkpt>
      <trkpt lat="45.17263" lon="5.39806">
        <ele>218.5</ele>
        <time>2022-10-15T13:11:15.000Z</time>
      </trkpt>
      <trkpt lat="45.17265" lon="5.398">
        <ele>218.6</ele>
        <time>2022-10-15T13:11:16.000Z</time>
      </trkpt>
      <trkpt lat="45.17266" lon="5.39794">
        <ele>218.6</ele>
        <time>2022-10-15T13:11:17.000Z</time>
      </trkpt>
      <trkpt lat="45.17265" lon="5.39788">
        <ele>218.8</ele>
        <time>2022-10-15T13:11:18.000Z</time>
      </trkpt>
      <trkpt lat="45.17266" lon="5.39782">
        <ele>218.8</ele>
        <time>2022-10-15T13:11:19.000Z</time>
      </trkpt>
      <trkpt lat="45.17268" lon="5.39778">
        <ele>218.7</ele>
        <time>2022-10-15T13:11:20.000Z</time>
      </trkpt>
      <trkpt lat="45.17271" lon="5.39775">
        <ele>218.4</ele>
        <time>2022-10-15T13:11:21.000Z</time>
      </trkpt>
      <trkpt lat="45.17275" lon="5.39772">
        <ele>218.2</ele>
        <time>2022-10-15T13:11:22.000Z</time>
      </trkpt>
      <trkpt lat="45.17278" lon="5.39769">
        <ele>218</ele>
        <time>2022-10-15T13:11:23.000Z</time>
      </trkpt>
      <trkpt lat="45.17281" lon="5.39766">
        <ele>217.8</ele>
        <time>2022-10-15T13:11:24.000Z</time>
      </trkpt>
      <trkpt lat="45.17284" lon="5.39762">
        <ele>217.7</ele>
        <time>2022-10-15T13:11:25.000Z</time>
      </trkpt>
      <trkpt lat="45.17287" lon="5.3976">
        <ele>217.5</ele>
        <time>2022-10-15T13:11:26.000Z</time>
      </trkpt>
      <trkpt lat="45.1729" lon="5.39757">
        <ele>217.2</ele>
        <time>2022-10-15T13:11:27.000Z</time>
      </trkpt>
      <trkpt lat="45.17294" lon="5.39752">
        <ele>216.9</ele>
        <time>2022-10-15T13:11:28.000Z</time>
      </trkpt>
      <trkpt lat="45.17298" lon="5.39747">
        <ele>216.6</ele>
        <time>2022-10-15T13:11:29.000Z</time>
      </trkpt>
      <trkpt lat="45.17302" lon="5.39741">
        <ele>216.3</ele>
        <time>2022-10-15T13:11:30.000Z</time>
      </trkpt>
      <trkpt lat="45.17306" lon="5.39735">
        <ele>215.9</ele>
        <time>2022-10-15T13:11:31.000Z</time>
      </trkpt>
      <trkpt lat="45.17311" lon="5.39729">
        <ele>215.4</ele>
        <time>2022-10-15T13:11:32.000Z</time>
      </trkpt>
      <trkpt lat="45.17315" lon="5.39722">
        <ele>214.9</ele>
        <time>2022-10-15T13:11:33.000Z</time>
      </trkpt>
      <trkpt lat="45.17321" lon="5.39714">
        <ele>214.2</ele>
        <time>2022-10-15T13:11:34.000Z</time>
      </trkpt>
      <trkpt lat="45.17326" lon="5.39705">
        <ele>213.6</ele>
        <time>2022-10-15T13:11:35.000Z</time>
      </trkpt>
      <trkpt lat="45.17332" lon="5.39697">
        <ele>213.1</ele>
        <time>2022-10-15T13:11:36.000Z</time>
      </trkpt>
      <trkpt lat="45.17338" lon="5.39689">
        <ele>212.4</ele>
        <time>2022-10-15T13:11:37.000Z</time>
      </trkpt>
      <trkpt lat="45.17345" lon="5.39683">
        <ele>211.7</ele>
        <time>2022-10-15T13:11:38.000Z</time>
      </trkpt>
      <trkpt lat="45.17353" lon="5.39676">
        <ele>211.1</ele>
        <time>2022-10-15T13:11:39.000Z</time>
      </trkpt>
      <trkpt lat="45.1736" lon="5.39669">
        <ele>210.9</ele>
        <time>2022-10-15T13:11:40.000Z</time>
      </trkpt>
      <trkpt lat="45.17367" lon="5.39662">
        <ele>210.2</ele>
        <time>2022-10-15T13:11:41.000Z</time>
      </trkpt>
      <trkpt lat="45.17374" lon="5.39655">
        <ele>209.6</ele>
        <time>2022-10-15T13:11:42.000Z</time>
      </trkpt>
      <trkpt lat="45.17379" lon="5.39647">
        <ele>209.3</ele>
        <time>2022-10-15T13:11:43.000Z</time>
      </trkpt>
      <trkpt lat="45.17384" lon="5.3964">
        <ele>209.4</ele>
        <time>2022-10-15T13:11:44.000Z</time>
      </trkpt>
      <trkpt lat="45.17387" lon="5.39632">
        <ele>209.2</ele>
        <time>2022-10-15T13:11:45.000Z</time>
      </trkpt>
      <trkpt lat="45.17389" lon="5.39624">
        <ele>208.9</ele>
        <time>2022-10-15T13:11:46.000Z</time>
      </trkpt>
      <trkpt lat="45.17391" lon="5.39616">
        <ele>208.6</ele>
        <time>2022-10-15T13:11:47.000Z</time>
      </trkpt>
      <trkpt lat="45.17391" lon="5.39609">
        <ele>208.2</ele>
        <time>2022-10-15T13:11:48.000Z</time>
      </trkpt>
      <trkpt lat="45.1739" lon="5.39602">
        <ele>207.7</ele>
        <time>2022-10-15T13:11:49.000Z</time>
      </trkpt>
      <trkpt lat="45.17388" lon="5.39594">
        <ele>207.3</ele>
        <time>2022-10-15T13:11:50.000Z</time>
      </trkpt>
      <trkpt lat="45.17386" lon="5.39588">
        <ele>207</ele>
        <time>2022-10-15T13:11:51.000Z</time>
      </trkpt>
      <trkpt lat="45.17384" lon="5.39581">
        <ele>206.7</ele>
        <time>2022-10-15T13:11:52.000Z</time>
      </trkpt>
      <trkpt lat="45.17381" lon="5.39576">
        <ele>206.1</ele>
        <time>2022-10-15T13:11:53.000Z</time>
      </trkpt>
      <trkpt lat="45.17379" lon="5.3957">
        <ele>205.7</ele>
        <time>2022-10-15T13:11:54.000Z</time>
      </trkpt>
      <trkpt lat="45.17376" lon="5.39565">
        <ele>205.5</ele>
        <time>2022-10-15T13:11:55.000Z</time>
      </trkpt>
      <trkpt lat="45.17373" lon="5.3956">
        <ele>205.4</ele>
        <time>2022-10-15T13:11:56.000Z</time>
      </trkpt>
      <trkpt lat="45.1737" lon="5.39554">
        <ele>205.5</ele>
        <time>2022-10-15T13:11:57.000Z</time>
      </trkpt>
      <trkpt lat="45.17367" lon="5.39549">
        <ele>205.5</ele>
        <time>2022-10-15T13:11:58.000Z</time>
      </trkpt>
      <trkpt lat="45.17362" lon="5.39544">
        <ele>205.7</ele>
        <time>2022-10-15T13:11:59.000Z</time>
      </trkpt>
      <trkpt lat="45.17358" lon="5.39539">
        <ele>205.5</ele>
        <time>2022-10-15T13:12:00.000Z</time>
      </trkpt>
      <trkpt lat="45.17354" lon="5.39533">
        <ele>205.5</ele>
        <time>2022-10-15T13:12:01.000Z</time>
      </trkpt>
      <trkpt lat="45.17349" lon="5.39528">
        <ele>205.9</ele>
        <time>2022-10-15T13:12:02.000Z</time>
      </trkpt>
      <trkpt lat="45.17344" lon="5.39522">
        <ele>206</ele>
        <time>2022-10-15T13:12:03.000Z</time>
      </trkpt>
      <trkpt lat="45.17338" lon="5.39517">
        <ele>205.8</ele>
        <time>2022-10-15T13:12:04.000Z</time>
      </trkpt>
      <trkpt lat="45.17333" lon="5.39512">
        <ele>205.2</ele>
        <time>2022-10-15T13:12:05.000Z</time>
      </trkpt>
      <trkpt lat="45.17328" lon="5.39507">
        <ele>205.4</ele>
        <time>2022-10-15T13:12:06.000Z</time>
      </trkpt>
      <trkpt lat="45.17323" lon="5.39503">
        <ele>206</ele>
        <time>2022-10-15T13:12:07.000Z</time>
      </trkpt>
      <trkpt lat="45.17319" lon="5.39498">
        <ele>206.6</ele>
        <time>2022-10-15T13:12:08.000Z</time>
      </trkpt>
      <trkpt lat="45.17316" lon="5.39494">
        <ele>206.6</ele>
        <time>2022-10-15T13:12:09.000Z</time>
      </trkpt>
      <trkpt lat="45.17314" lon="5.39489">
        <ele>205.9</ele>
        <time>2022-10-15T13:12:10.000Z</time>
      </trkpt>
      <trkpt lat="45.17312" lon="5.39484">
        <ele>205</ele>
        <time>2022-10-15T13:12:11.000Z</time>
      </trkpt>
      <trkpt lat="45.1731" lon="5.39479">
        <ele>204.1</ele>
        <time>2022-10-15T13:12:12.000Z</time>
      </trkpt>
      <trkpt lat="45.17308" lon="5.39475">
        <ele>203.3</ele>
        <time>2022-10-15T13:12:13.000Z</time>
      </trkpt>
      <trkpt lat="45.17305" lon="5.39471">
        <ele>203</ele>
        <time>2022-10-15T13:12:14.000Z</time>
      </trkpt>
      <trkpt lat="45.17302" lon="5.39468">
        <ele>203.5</ele>
        <time>2022-10-15T13:12:15.000Z</time>
      </trkpt>
      <trkpt lat="45.17298" lon="5.39465">
        <ele>204.1</ele>
        <time>2022-10-15T13:12:16.000Z</time>
      </trkpt>
      <trkpt lat="45.17295" lon="5.39463">
        <ele>204.5</ele>
        <time>2022-10-15T13:12:17.000Z</time>
      </trkpt>
      <trkpt lat="45.17293" lon="5.39459">
        <ele>204.5</ele>
        <time>2022-10-15T13:12:18.000Z</time>
      </trkpt>
      <trkpt lat="45.1729" lon="5.39456">
        <ele>204.2</ele>
        <time>2022-10-15T13:12:19.000Z</time>
      </trkpt>
      <trkpt lat="45.17288" lon="5.39452">
        <ele>203.8</ele>
        <time>2022-10-15T13:12:20.000Z</time>
      </trkpt>
      <trkpt lat="45.17286" lon="5.39449">
        <ele>203.2</ele>
        <time>2022-10-15T13:12:21.000Z</time>
      </trkpt>
      <trkpt lat="45.17284" lon="5.39446">
        <ele>203</ele>
        <time>2022-10-15T13:12:22.000Z</time>
      </trkpt>
      <trkpt lat="45.17281" lon="5.39443">
        <ele>203</ele>
        <time>2022-10-15T13:12:23.000Z</time>
      </trkpt>
      <trkpt lat="45.17278" lon="5.39441">
        <ele>203.3</ele>
        <time>2022-10-15T13:12:24.000Z</time>
      </trkpt>
      <trkpt lat="45.17277" lon="5.39439">
        <ele>203.6</ele>
        <time>2022-10-15T13:12:25.000Z</time>
      </trkpt>
      <trkpt lat="45.17275" lon="5.39435">
        <ele>203.7</ele>
        <time>2022-10-15T13:12:26.000Z</time>
      </trkpt>
      <trkpt lat="45.17273" lon="5.39433">
        <ele>204</ele>
        <time>2022-10-15T13:12:27.000Z</time>
      </trkpt>
      <trkpt lat="45.17271" lon="5.3943">
        <ele>204.2</ele>
        <time>2022-10-15T13:12:28.000Z</time>
      </trkpt>
      <trkpt lat="45.17268" lon="5.39427">
        <ele>204.5</ele>
        <time>2022-10-15T13:12:29.000Z</time>
      </trkpt>
      <trkpt lat="45.17265" lon="5.39424">
        <ele>204.9</ele>
        <time>2022-10-15T13:12:30.000Z</time>
      </trkpt>
      <trkpt lat="45.17262" lon="5.3942">
        <ele>205</ele>
        <time>2022-10-15T13:12:31.000Z</time>
      </trkpt>
      <trkpt lat="45.17261" lon="5.39416">
        <ele>204.9</ele>
        <time>2022-10-15T13:12:32.000Z</time>
      </trkpt>
      <trkpt lat="45.17259" lon="5.39413">
        <ele>204.8</ele>
        <time>2022-10-15T13:12:33.000Z</time>
      </trkpt>
      <trkpt lat="45.17257" lon="5.3941">
        <ele>204.7</ele>
        <time>2022-10-15T13:12:34.000Z</time>
      </trkpt>
      <trkpt lat="45.17254" lon="5.39407">
        <ele>204.8</ele>
        <time>2022-10-15T13:12:35.000Z</time>
      </trkpt>
      <trkpt lat="45.17251" lon="5.39404">
        <ele>205</ele>
        <time>2022-10-15T13:12:36.000Z</time>
      </trkpt>
      <trkpt lat="45.1725" lon="5.39401">
        <ele>204.7</ele>
        <time>2022-10-15T13:12:37.000Z</time>
      </trkpt>
      <trkpt lat="45.17248" lon="5.39398">
        <ele>204.5</ele>
        <time>2022-10-15T13:12:38.000Z</time>
      </trkpt>
      <trkpt lat="45.17247" lon="5.39396">
        <ele>204.5</ele>
        <time>2022-10-15T13:12:39.000Z</time>
      </trkpt>
      <trkpt lat="45.17245" lon="5.39394">
        <ele>204.6</ele>
        <time>2022-10-15T13:12:40.000Z</time>
      </trkpt>
      <trkpt lat="45.17243" lon="5.39391">
        <ele>204.6</ele>
        <time>2022-10-15T13:12:41.000Z</time>
      </trkpt>
      <trkpt lat="45.17241" lon="5.39389">
        <ele>204.7</ele>
        <time>2022-10-15T13:12:42.000Z</time>
      </trkpt>
      <trkpt lat="45.17239" lon="5.39386">
        <ele>204.7</ele>
        <time>2022-10-15T13:12:43.000Z</time>
      </trkpt>
      <trkpt lat="45.17237" lon="5.39383">
        <ele>204.7</ele>
        <time>2022-10-15T13:12:44.000Z</time>
      </trkpt>
      <trkpt lat="45.17235" lon="5.39379">
        <ele>204.6</ele>
        <time>2022-10-15T13:12:45.000Z</time>
      </trkpt>
      <trkpt lat="45.17233" lon="5.39376">
        <ele>204.6</ele>
        <time>2022-10-15T13:12:46.000Z</time>
      </trkpt>
      <trkpt lat="45.17231" lon="5.39372">
        <ele>204.5</ele>
        <time>2022-10-15T13:12:47.000Z</time>
      </trkpt>
      <trkpt lat="45.17229" lon="5.39369">
        <ele>204.5</ele>
        <time>2022-10-15T13:12:48.000Z</time>
      </trkpt>
      <trkpt lat="45.17227" lon="5.39366">
        <ele>204.5</ele>
        <time>2022-10-15T13:12:49.000Z</time>
      </trkpt>
      <trkpt lat="45.17225" lon="5.39362">
        <ele>204.3</ele>
        <time>2022-10-15T13:12:50.000Z</time>
      </trkpt>
      <trkpt lat="45.17223" lon="5.39359">
        <ele>204.4</ele>
        <time>2022-10-15T13:12:51.000Z</time>
      </trkpt>
      <trkpt lat="45.17222" lon="5.39355">
        <ele>204.4</ele>
        <time>2022-10-15T13:12:52.000Z</time>
      </trkpt>
      <trkpt lat="45.17221" lon="5.39352">
        <ele>204.3</ele>
        <time>2022-10-15T13:12:53.000Z</time>
      </trkpt>
      <trkpt lat="45.1722" lon="5.39348">
        <ele>204.3</ele>
        <time>2022-10-15T13:12:54.000Z</time>
      </trkpt>
      <trkpt lat="45.17219" lon="5.39344">
        <ele>204.3</ele>
        <time>2022-10-15T13:12:55.000Z</time>
      </trkpt>
      <trkpt lat="45.17217" lon="5.39341">
        <ele>204.5</ele>
        <time>2022-10-15T13:12:56.000Z</time>
      </trkpt>
      <trkpt lat="45.17216" lon="5.39338">
        <ele>204.7</ele>
        <time>2022-10-15T13:12:57.000Z</time>
      </trkpt>
      <trkpt lat="45.17216" lon="5.39334">
        <ele>204.7</ele>
        <time>2022-10-15T13:12:58.000Z</time>
      </trkpt>
      <trkpt lat="45.17215" lon="5.39331">
        <ele>204.5</ele>
        <time>2022-10-15T13:12:59.000Z</time>
      </trkpt>
      <trkpt lat="45.17214" lon="5.39326">
        <ele>204.4</ele>
        <time>2022-10-15T13:13:00.000Z</time>
      </trkpt>
      <trkpt lat="45.17213" lon="5.39321">
        <ele>204.6</ele>
        <time>2022-10-15T13:13:01.000Z</time>
      </trkpt>
      <trkpt lat="45.17211" lon="5.39317">
        <ele>204.8</ele>
        <time>2022-10-15T13:13:02.000Z</time>
      </trkpt>
      <trkpt lat="45.1721" lon="5.39312">
        <ele>205</ele>
        <time>2022-10-15T13:13:03.000Z</time>
      </trkpt>
      <trkpt lat="45.17209" lon="5.39308">
        <ele>205.1</ele>
        <time>2022-10-15T13:13:04.000Z</time>
      </trkpt>
      <trkpt lat="45.17207" lon="5.39303">
        <ele>205.5</ele>
        <time>2022-10-15T13:13:05.000Z</time>
      </trkpt>
      <trkpt lat="45.17205" lon="5.39299">
        <ele>205.9</ele>
        <time>2022-10-15T13:13:06.000Z</time>
      </trkpt>
      <trkpt lat="45.17203" lon="5.39296">
        <ele>206.2</ele>
        <time>2022-10-15T13:13:07.000Z</time>
      </trkpt>
      <trkpt lat="45.17201" lon="5.39292">
        <ele>206.7</ele>
        <time>2022-10-15T13:13:08.000Z</time>
      </trkpt>
      <trkpt lat="45.172" lon="5.39288">
        <ele>206.9</ele>
        <time>2022-10-15T13:13:09.000Z</time>
      </trkpt>
      <trkpt lat="45.17198" lon="5.39284">
        <ele>207.1</ele>
        <time>2022-10-15T13:13:10.000Z</time>
      </trkpt>
      <trkpt lat="45.17197" lon="5.3928">
        <ele>207.1</ele>
        <time>2022-10-15T13:13:11.000Z</time>
      </trkpt>
      <trkpt lat="45.17195" lon="5.39276">
        <ele>207.5</ele>
        <time>2022-10-15T13:13:12.000Z</time>
      </trkpt>
      <trkpt lat="45.17193" lon="5.39273">
        <ele>207.7</ele>
        <time>2022-10-15T13:13:13.000Z</time>
      </trkpt>
      <trkpt lat="45.17191" lon="5.39269">
        <ele>207.9</ele>
        <time>2022-10-15T13:13:14.000Z</time>
      </trkpt>
      <trkpt lat="45.1719" lon="5.39266">
        <ele>207.9</ele>
        <time>2022-10-15T13:13:15.000Z</time>
      </trkpt>
      <trkpt lat="45.17189" lon="5.39263">
        <ele>207.9</ele>
        <time>2022-10-15T13:13:16.000Z</time>
      </trkpt>
      <trkpt lat="45.17188" lon="5.3926">
        <ele>208</ele>
        <time>2022-10-15T13:13:17.000Z</time>
      </trkpt>
      <trkpt lat="45.17186" lon="5.39258">
        <ele>208.2</ele>
        <time>2022-10-15T13:13:18.000Z</time>
      </trkpt>
      <trkpt lat="45.17184" lon="5.39255">
        <ele>208.5</ele>
        <time>2022-10-15T13:13:19.000Z</time>
      </trkpt>
      <trkpt lat="45.17183" lon="5.39252">
        <ele>208.8</ele>
        <time>2022-10-15T13:13:20.000Z</time>
      </trkpt>
      <trkpt lat="45.17181" lon="5.39249">
        <ele>209.1</ele>
        <time>2022-10-15T13:13:21.000Z</time>
      </trkpt>
      <trkpt lat="45.17179" lon="5.39246">
        <ele>209.2</ele>
        <time>2022-10-15T13:13:22.000Z</time>
      </trkpt>
      <trkpt lat="45.17177" lon="5.39242">
        <ele>209.2</ele>
        <time>2022-10-15T13:13:23.000Z</time>
      </trkpt>
      <trkpt lat="45.17176" lon="5.39239">
        <ele>209.2</ele>
        <time>2022-10-15T13:13:24.000Z</time>
      </trkpt>
      <trkpt lat="45.17174" lon="5.39235">
        <ele>209.2</ele>
        <time>2022-10-15T13:13:25.000Z</time>
      </trkpt>
      <trkpt lat="45.17172" lon="5.39233">
        <ele>209.5</ele>
        <time>2022-10-15T13:13:26.000Z</time>
      </trkpt>
      <trkpt lat="45.1717" lon="5.39229">
        <ele>209.9</ele>
        <time>2022-10-15T13:13:27.000Z</time>
      </trkpt>
      <trkpt lat="45.17167" lon="5.39226">
        <ele>210.4</ele>
        <time>2022-10-15T13:13:28.000Z</time>
      </trkpt>
      <trkpt lat="45.17165" lon="5.39222">
        <ele>210.3</ele>
        <time>2022-10-15T13:13:29.000Z</time>
      </trkpt>
      <trkpt lat="45.17162" lon="5.39218">
        <ele>209.8</ele>
        <time>2022-10-15T13:13:30.000Z</time>
      </trkpt>
      <trkpt lat="45.1716" lon="5.39215">
        <ele>209.6</ele>
        <time>2022-10-15T13:13:31.000Z</time>
      </trkpt>
      <trkpt lat="45.17159" lon="5.39212">
        <ele>209.2</ele>
        <time>2022-10-15T13:13:32.000Z</time>
      </trkpt>
      <trkpt lat="45.17157" lon="5.39209">
        <ele>208.9</ele>
        <time>2022-10-15T13:13:33.000Z</time>
      </trkpt>
      <trkpt lat="45.17155" lon="5.39207">
        <ele>208.8</ele>
        <time>2022-10-15T13:13:34.000Z</time>
      </trkpt>
      <trkpt lat="45.17153" lon="5.39204">
        <ele>208.7</ele>
        <time>2022-10-15T13:13:35.000Z</time>
      </trkpt>
      <trkpt lat="45.17151" lon="5.39202">
        <ele>208.7</ele>
        <time>2022-10-15T13:13:36.000Z</time>
      </trkpt>
      <trkpt lat="45.1715" lon="5.39199">
        <ele>208.5</ele>
        <time>2022-10-15T13:13:37.000Z</time>
      </trkpt>
      <trkpt lat="45.17147" lon="5.39196">
        <ele>208.6</ele>
        <time>2022-10-15T13:13:38.000Z</time>
      </trkpt>
      <trkpt lat="45.17145" lon="5.39193">
        <ele>208.6</ele>
        <time>2022-10-15T13:13:39.000Z</time>
      </trkpt>
      <trkpt lat="45.17143" lon="5.3919">
        <ele>208.8</ele>
        <time>2022-10-15T13:13:40.000Z</time>
      </trkpt>
      <trkpt lat="45.17141" lon="5.39187">
        <ele>209.2</ele>
        <time>2022-10-15T13:13:41.000Z</time>
      </trkpt>
      <trkpt lat="45.1714" lon="5.39184">
        <ele>209.5</ele>
        <time>2022-10-15T13:13:42.000Z</time>
      </trkpt>
      <trkpt lat="45.17138" lon="5.39182">
        <ele>209.8</ele>
        <time>2022-10-15T13:13:43.000Z</time>
      </trkpt>
      <trkpt lat="45.17137" lon="5.39179">
        <ele>209.8</ele>
        <time>2022-10-15T13:13:44.000Z</time>
      </trkpt>
      <trkpt lat="45.17136" lon="5.39176">
        <ele>209.9</ele>
        <time>2022-10-15T13:13:45.000Z</time>
      </trkpt>
      <trkpt lat="45.17134" lon="5.39174">
        <ele>210.1</ele>
        <time>2022-10-15T13:13:46.000Z</time>
      </trkpt>
      <trkpt lat="45.17132" lon="5.39171">
        <ele>210.3</ele>
        <time>2022-10-15T13:13:47.000Z</time>
      </trkpt>
      <trkpt lat="45.17131" lon="5.39169">
        <ele>210.5</ele>
        <time>2022-10-15T13:13:48.000Z</time>
      </trkpt>
      <trkpt lat="45.17129" lon="5.39167">
        <ele>210.7</ele>
        <time>2022-10-15T13:13:49.000Z</time>
      </trkpt>
      <trkpt lat="45.17128" lon="5.39164">
        <ele>210.6</ele>
        <time>2022-10-15T13:13:50.000Z</time>
      </trkpt>
      <trkpt lat="45.17126" lon="5.39162">
        <ele>210.6</ele>
        <time>2022-10-15T13:13:51.000Z</time>
      </trkpt>
      <trkpt lat="45.17124" lon="5.39159">
        <ele>210.5</ele>
        <time>2022-10-15T13:13:52.000Z</time>
      </trkpt>
      <trkpt lat="45.17122" lon="5.39156">
        <ele>210.3</ele>
        <time>2022-10-15T13:13:53.000Z</time>
      </trkpt>
      <trkpt lat="45.17121" lon="5.39153">
        <ele>210.2</ele>
        <time>2022-10-15T13:13:54.000Z</time>
      </trkpt>
      <trkpt lat="45.17119" lon="5.3915">
        <ele>210.3</ele>
        <time>2022-10-15T13:13:55.000Z</time>
      </trkpt>
      <trkpt lat="45.17116" lon="5.39148">
        <ele>210.7</ele>
        <time>2022-10-15T13:13:56.000Z</time>
      </trkpt>
      <trkpt lat="45.17114" lon="5.39146">
        <ele>211.2</ele>
        <time>2022-10-15T13:13:57.000Z</time>
      </trkpt>
      <trkpt lat="45.17111" lon="5.39143">
        <ele>211.6</ele>
        <time>2022-10-15T13:13:58.000Z</time>
      </trkpt>
      <trkpt lat="45.17109" lon="5.3914">
        <ele>211.4</ele>
        <time>2022-10-15T13:13:59.000Z</time>
      </trkpt>
      <trkpt lat="45.17107" lon="5.39137">
        <ele>211.1</ele>
        <time>2022-10-15T13:14:00.000Z</time>
      </trkpt>
      <trkpt lat="45.17104" lon="5.39135">
        <ele>211.1</ele>
        <time>2022-10-15T13:14:01.000Z</time>
      </trkpt>
      <trkpt lat="45.17101" lon="5.39133">
        <ele>211.1</ele>
        <time>2022-10-15T13:14:02.000Z</time>
      </trkpt>
      <trkpt lat="45.17099" lon="5.3913">
        <ele>211.1</ele>
        <time>2022-10-15T13:14:03.000Z</time>
      </trkpt>
      <trkpt lat="45.17096" lon="5.39127">
        <ele>211.2</ele>
        <time>2022-10-15T13:14:04.000Z</time>
      </trkpt>
      <trkpt lat="45.17093" lon="5.39124">
        <ele>211.5</ele>
        <time>2022-10-15T13:14:05.000Z</time>
      </trkpt>
      <trkpt lat="45.17091" lon="5.39122">
        <ele>211.8</ele>
        <time>2022-10-15T13:14:06.000Z</time>
      </trkpt>
      <trkpt lat="45.17089" lon="5.39121">
        <ele>212</ele>
        <time>2022-10-15T13:14:07.000Z</time>
      </trkpt>
      <trkpt lat="45.17087" lon="5.39118">
        <ele>212.3</ele>
        <time>2022-10-15T13:14:08.000Z</time>
      </trkpt>
      <trkpt lat="45.17085" lon="5.39115">
        <ele>212.7</ele>
        <time>2022-10-15T13:14:09.000Z</time>
      </trkpt>
      <trkpt lat="45.17083" lon="5.39113">
        <ele>213.1</ele>
        <time>2022-10-15T13:14:10.000Z</time>
      </trkpt>
      <trkpt lat="45.1708" lon="5.3911">
        <ele>213.3</ele>
        <time>2022-10-15T13:14:11.000Z</time>
      </trkpt>
      <trkpt lat="45.17078" lon="5.39108">
        <ele>213.6</ele>
        <time>2022-10-15T13:14:12.000Z</time>
      </trkpt>
      <trkpt lat="45.17076" lon="5.39106">
        <ele>213.9</ele>
        <time>2022-10-15T13:14:13.000Z</time>
      </trkpt>
      <trkpt lat="45.17074" lon="5.39104">
        <ele>214.3</ele>
        <time>2022-10-15T13:14:14.000Z</time>
      </trkpt>
      <trkpt lat="45.17071" lon="5.39102">
        <ele>214.6</ele>
        <time>2022-10-15T13:14:15.000Z</time>
      </trkpt>
      <trkpt lat="45.17068" lon="5.391">
        <ele>214.9</ele>
        <time>2022-10-15T13:14:16.000Z</time>
      </trkpt>
      <trkpt lat="45.17065" lon="5.39098">
        <ele>215.1</ele>
        <time>2022-10-15T13:14:17.000Z</time>
      </trkpt>
      <trkpt lat="45.17062" lon="5.39096">
        <ele>215.3</ele>
        <time>2022-10-15T13:14:18.000Z</time>
      </trkpt>
      <trkpt lat="45.17059" lon="5.39095">
        <ele>215.5</ele>
        <time>2022-10-15T13:14:19.000Z</time>
      </trkpt>
      <trkpt lat="45.17056" lon="5.39093">
        <ele>215.6</ele>
        <time>2022-10-15T13:14:20.000Z</time>
      </trkpt>
      <trkpt lat="45.17054" lon="5.39091">
        <ele>215.8</ele>
        <time>2022-10-15T13:14:21.000Z</time>
      </trkpt>
      <trkpt lat="45.17051" lon="5.39089">
        <ele>215.9</ele>
        <time>2022-10-15T13:14:22.000Z</time>
      </trkpt>
      <trkpt lat="45.17049" lon="5.39087">
        <ele>215.9</ele>
        <time>2022-10-15T13:14:23.000Z</time>
      </trkpt>
      <trkpt lat="45.17047" lon="5.39084">
        <ele>216</ele>
        <time>2022-10-15T13:14:24.000Z</time>
      </trkpt>
      <trkpt lat="45.17045" lon="5.39081">
        <ele>216</ele>
        <time>2022-10-15T13:14:25.000Z</time>
      </trkpt>
      <trkpt lat="45.17042" lon="5.39079">
        <ele>216.1</ele>
        <time>2022-10-15T13:14:26.000Z</time>
      </trkpt>
      <trkpt lat="45.17039" lon="5.39077">
        <ele>216.1</ele>
        <time>2022-10-15T13:14:27.000Z</time>
      </trkpt>
      <trkpt lat="45.17036" lon="5.39074">
        <ele>216.1</ele>
        <time>2022-10-15T13:14:28.000Z</time>
      </trkpt>
      <trkpt lat="45.17034" lon="5.39072">
        <ele>216.1</ele>
        <time>2022-10-15T13:14:29.000Z</time>
      </trkpt>
      <trkpt lat="45.17032" lon="5.39069">
        <ele>216.1</ele>
        <time>2022-10-15T13:14:30.000Z</time>
      </trkpt>
      <trkpt lat="45.1703" lon="5.39065">
        <ele>216</ele>
        <time>2022-10-15T13:14:31.000Z</time>
      </trkpt>
      <trkpt lat="45.17028" lon="5.39062">
        <ele>216</ele>
        <time>2022-10-15T13:14:32.000Z</time>
      </trkpt>
      <trkpt lat="45.17025" lon="5.39059">
        <ele>216.1</ele>
        <time>2022-10-15T13:14:33.000Z</time>
      </trkpt>
      <trkpt lat="45.17023" lon="5.39056">
        <ele>216.2</ele>
        <time>2022-10-15T13:14:34.000Z</time>
      </trkpt>
      <trkpt lat="45.17022" lon="5.39053">
        <ele>216.2</ele>
        <time>2022-10-15T13:14:35.000Z</time>
      </trkpt>
      <trkpt lat="45.1702" lon="5.3905">
        <ele>216.2</ele>
        <time>2022-10-15T13:14:36.000Z</time>
      </trkpt>
      <trkpt lat="45.17019" lon="5.39047">
        <ele>216.2</ele>
        <time>2022-10-15T13:14:37.000Z</time>
      </trkpt>
      <trkpt lat="45.17017" lon="5.39044">
        <ele>216.2</ele>
        <time>2022-10-15T13:14:38.000Z</time>
      </trkpt>
      <trkpt lat="45.17015" lon="5.39041">
        <ele>216.2</ele>
        <time>2022-10-15T13:14:39.000Z</time>
      </trkpt>
      <trkpt lat="45.17013" lon="5.39038">
        <ele>216.2</ele>
        <time>2022-10-15T13:14:40.000Z</time>
      </trkpt>
      <trkpt lat="45.17011" lon="5.39035">
        <ele>216.1</ele>
        <time>2022-10-15T13:14:41.000Z</time>
      </trkpt>
      <trkpt lat="45.17009" lon="5.39032">
        <ele>216.1</ele>
        <time>2022-10-15T13:14:42.000Z</time>
      </trkpt>
      <trkpt lat="45.17008" lon="5.39029">
        <ele>216</ele>
        <time>2022-10-15T13:14:43.000Z</time>
      </trkpt>
      <trkpt lat="45.17006" lon="5.39026">
        <ele>216.1</ele>
        <time>2022-10-15T13:14:44.000Z</time>
      </trkpt>
      <trkpt lat="45.17004" lon="5.39023">
        <ele>216.2</ele>
        <time>2022-10-15T13:14:45.000Z</time>
      </trkpt>
      <trkpt lat="45.17003" lon="5.3902">
        <ele>216.3</ele>
        <time>2022-10-15T13:14:46.000Z</time>
      </trkpt>
      <trkpt lat="45.17001" lon="5.39018">
        <ele>216.4</ele>
        <time>2022-10-15T13:14:47.000Z</time>
      </trkpt>
      <trkpt lat="45.17" lon="5.39015">
        <ele>216.4</ele>
        <time>2022-10-15T13:14:48.000Z</time>
      </trkpt>
      <trkpt lat="45.16999" lon="5.39013">
        <ele>216.7</ele>
        <time>2022-10-15T13:14:49.000Z</time>
      </trkpt>
      <trkpt lat="45.16998" lon="5.3901">
        <ele>217</ele>
        <time>2022-10-15T13:14:50.000Z</time>
      </trkpt>
      <trkpt lat="45.16996" lon="5.39008">
        <ele>217.4</ele>
        <time>2022-10-15T13:14:51.000Z</time>
      </trkpt>
      <trkpt lat="45.16994" lon="5.39005">
        <ele>217.7</ele>
        <time>2022-10-15T13:14:52.000Z</time>
      </trkpt>
      <trkpt lat="45.16993" lon="5.39003">
        <ele>218</ele>
        <time>2022-10-15T13:14:53.000Z</time>
      </trkpt>
      <trkpt lat="45.16992" lon="5.39001">
        <ele>218.2</ele>
        <time>2022-10-15T13:14:54.000Z</time>
      </trkpt>
      <trkpt lat="45.1699" lon="5.38998">
        <ele>218.3</ele>
        <time>2022-10-15T13:14:55.000Z</time>
      </trkpt>
      <trkpt lat="45.16989" lon="5.38995">
        <ele>218.3</ele>
        <time>2022-10-15T13:14:56.000Z</time>
      </trkpt>
      <trkpt lat="45.16987" lon="5.38992">
        <ele>218.2</ele>
        <time>2022-10-15T13:14:57.000Z</time>
      </trkpt>
      <trkpt lat="45.16985" lon="5.38989">
        <ele>218.1</ele>
        <time>2022-10-15T13:14:58.000Z</time>
      </trkpt>
      <trkpt lat="45.16983" lon="5.38986">
        <ele>218</ele>
        <time>2022-10-15T13:14:59.000Z</time>
      </trkpt>
      <trkpt lat="45.16982" lon="5.38983">
        <ele>217.8</ele>
        <time>2022-10-15T13:15:00.000Z</time>
      </trkpt>
      <trkpt lat="45.16981" lon="5.3898">
        <ele>217.6</ele>
        <time>2022-10-15T13:15:01.000Z</time>
      </trkpt>
      <trkpt lat="45.16979" lon="5.38977">
        <ele>217.3</ele>
        <time>2022-10-15T13:15:02.000Z</time>
      </trkpt>
      <trkpt lat="45.16978" lon="5.38974">
        <ele>217</ele>
        <time>2022-10-15T13:15:03.000Z</time>
      </trkpt>
      <trkpt lat="45.16977" lon="5.38971">
        <ele>216.8</ele>
        <time>2022-10-15T13:15:04.000Z</time>
      </trkpt>
      <trkpt lat="45.16975" lon="5.38969">
        <ele>216.7</ele>
        <time>2022-10-15T13:15:05.000Z</time>
      </trkpt>
      <trkpt lat="45.16973" lon="5.38966">
        <ele>216.5</ele>
        <time>2022-10-15T13:15:06.000Z</time>
      </trkpt>
      <trkpt lat="45.16972" lon="5.38963">
        <ele>216.4</ele>
        <time>2022-10-15T13:15:07.000Z</time>
      </trkpt>
      <trkpt lat="45.1697" lon="5.38959">
        <ele>216.4</ele>
        <time>2022-10-15T13:15:08.000Z</time>
      </trkpt>
      <trkpt lat="45.16969" lon="5.38956">
        <ele>216.4</ele>
        <time>2022-10-15T13:15:09.000Z</time>
      </trkpt>
      <trkpt lat="45.16967" lon="5.38953">
        <ele>216.4</ele>
        <time>2022-10-15T13:15:10.000Z</time>
      </trkpt>
      <trkpt lat="45.16964" lon="5.38949">
        <ele>216.5</ele>
        <time>2022-10-15T13:15:11.000Z</time>
      </trkpt>
      <trkpt lat="45.16962" lon="5.38945">
        <ele>216.5</ele>
        <time>2022-10-15T13:15:12.000Z</time>
      </trkpt>
      <trkpt lat="45.1696" lon="5.3894">
        <ele>216.5</ele>
        <time>2022-10-15T13:15:13.000Z</time>
      </trkpt>
      <trkpt lat="45.16957" lon="5.38935">
        <ele>216.8</ele>
        <time>2022-10-15T13:15:14.000Z</time>
      </trkpt>
      <trkpt lat="45.16954" lon="5.38931">
        <ele>217.1</ele>
        <time>2022-10-15T13:15:15.000Z</time>
      </trkpt>
      <trkpt lat="45.16952" lon="5.38926">
        <ele>217.5</ele>
        <time>2022-10-15T13:15:16.000Z</time>
      </trkpt>
      <trkpt lat="45.16949" lon="5.38922">
        <ele>217.9</ele>
        <time>2022-10-15T13:15:17.000Z</time>
      </trkpt>
      <trkpt lat="45.16947" lon="5.38917">
        <ele>218.4</ele>
        <time>2022-10-15T13:15:18.000Z</time>
      </trkpt>
      <trkpt lat="45.16945" lon="5.38913">
        <ele>218.9</ele>
        <time>2022-10-15T13:15:19.000Z</time>
      </trkpt>
      <trkpt lat="45.16943" lon="5.38909">
        <ele>219</ele>
        <time>2022-10-15T13:15:20.000Z</time>
      </trkpt>
      <trkpt lat="45.16941" lon="5.38905">
        <ele>219.1</ele>
        <time>2022-10-15T13:15:21.000Z</time>
      </trkpt>
      <trkpt lat="45.1694" lon="5.38901">
        <ele>219.3</ele>
        <time>2022-10-15T13:15:22.000Z</time>
      </trkpt>
      <trkpt lat="45.16938" lon="5.38897">
        <ele>219.4</ele>
        <time>2022-10-15T13:15:23.000Z</time>
      </trkpt>
      <trkpt lat="45.16937" lon="5.38893">
        <ele>219.6</ele>
        <time>2022-10-15T13:15:24.000Z</time>
      </trkpt>
      <trkpt lat="45.16935" lon="5.38889">
        <ele>219.8</ele>
        <time>2022-10-15T13:15:25.000Z</time>
      </trkpt>
      <trkpt lat="45.16933" lon="5.38885">
        <ele>219.5</ele>
        <time>2022-10-15T13:15:26.000Z</time>
      </trkpt>
      <trkpt lat="45.16931" lon="5.38881">
        <ele>219.3</ele>
        <time>2022-10-15T13:15:27.000Z</time>
      </trkpt>
      <trkpt lat="45.16929" lon="5.38877">
        <ele>219.2</ele>
        <time>2022-10-15T13:15:28.000Z</time>
      </trkpt>
      <trkpt lat="45.16926" lon="5.38873">
        <ele>219.3</ele>
        <time>2022-10-15T13:15:29.000Z</time>
      </trkpt>
      <trkpt lat="45.16924" lon="5.38869">
        <ele>219.5</ele>
        <time>2022-10-15T13:15:30.000Z</time>
      </trkpt>
      <trkpt lat="45.16922" lon="5.38867">
        <ele>219.9</ele>
        <time>2022-10-15T13:15:31.000Z</time>
      </trkpt>
      <trkpt lat="45.16919" lon="5.38864">
        <ele>220.4</ele>
        <time>2022-10-15T13:15:32.000Z</time>
      </trkpt>
      <trkpt lat="45.16917" lon="5.38861">
        <ele>221</ele>
        <time>2022-10-15T13:15:33.000Z</time>
      </trkpt>
      <trkpt lat="45.16914" lon="5.38857">
        <ele>220.5</ele>
        <time>2022-10-15T13:15:34.000Z</time>
      </trkpt>
      <trkpt lat="45.16912" lon="5.38854">
        <ele>220.3</ele>
        <time>2022-10-15T13:15:35.000Z</time>
      </trkpt>
      <trkpt lat="45.16909" lon="5.3885">
        <ele>220.1</ele>
        <time>2022-10-15T13:15:36.000Z</time>
      </trkpt>
      <trkpt lat="45.16906" lon="5.38847">
        <ele>220.1</ele>
        <time>2022-10-15T13:15:37.000Z</time>
      </trkpt>
      <trkpt lat="45.16903" lon="5.38843">
        <ele>220.3</ele>
        <time>2022-10-15T13:15:38.000Z</time>
      </trkpt>
      <trkpt lat="45.16901" lon="5.3884">
        <ele>220.5</ele>
        <time>2022-10-15T13:15:39.000Z</time>
      </trkpt>
      <trkpt lat="45.16898" lon="5.38836">
        <ele>220.8</ele>
        <time>2022-10-15T13:15:40.000Z</time>
      </trkpt>
      <trkpt lat="45.16895" lon="5.38833">
        <ele>221.1</ele>
        <time>2022-10-15T13:15:41.000Z</time>
      </trkpt>
      <trkpt lat="45.16893" lon="5.3883">
        <ele>221</ele>
        <time>2022-10-15T13:15:42.000Z</time>
      </trkpt>
      <trkpt lat="45.1689" lon="5.38828">
        <ele>221.1</ele>
        <time>2022-10-15T13:15:43.000Z</time>
      </trkpt>
      <trkpt lat="45.16888" lon="5.38825">
        <ele>221</ele>
        <time>2022-10-15T13:15:44.000Z</time>
      </trkpt>
      <trkpt lat="45.16886" lon="5.38822">
        <ele>220.7</ele>
        <time>2022-10-15T13:15:45.000Z</time>
      </trkpt>
      <trkpt lat="45.16883" lon="5.38819">
        <ele>220.5</ele>
        <time>2022-10-15T13:15:46.000Z</time>
      </trkpt>
      <trkpt lat="45.1688" lon="5.38817">
        <ele>220.4</ele>
        <time>2022-10-15T13:15:47.000Z</time>
      </trkpt>
      <trkpt lat="45.16878" lon="5.38814">
        <ele>220.3</ele>
        <time>2022-10-15T13:15:48.000Z</time>
      </trkpt>
      <trkpt lat="45.16875" lon="5.38811">
        <ele>220.4</ele>
        <time>2022-10-15T13:15:49.000Z</time>
      </trkpt>
      <trkpt lat="45.16873" lon="5.38809">
        <ele>220.6</ele>
        <time>2022-10-15T13:15:50.000Z</time>
      </trkpt>
      <trkpt lat="45.16871" lon="5.38807">
        <ele>220.8</ele>
        <time>2022-10-15T13:15:51.000Z</time>
      </trkpt>
      <trkpt lat="45.16869" lon="5.38804">
        <ele>220.7</ele>
        <time>2022-10-15T13:15:52.000Z</time>
      </trkpt>
      <trkpt lat="45.16867" lon="5.38801">
        <ele>220.5</ele>
        <time>2022-10-15T13:15:53.000Z</time>
      </trkpt>
      <trkpt lat="45.16865" lon="5.38799">
        <ele>220.5</ele>
        <time>2022-10-15T13:15:54.000Z</time>
      </trkpt>
      <trkpt lat="45.16862" lon="5.38796">
        <ele>220.9</ele>
        <time>2022-10-15T13:15:55.000Z</time>
      </trkpt>
      <trkpt lat="45.16859" lon="5.38794">
        <ele>221.2</ele>
        <time>2022-10-15T13:15:56.000Z</time>
      </trkpt>
      <trkpt lat="45.16857" lon="5.38792">
        <ele>221.2</ele>
        <time>2022-10-15T13:15:57.000Z</time>
      </trkpt>
      <trkpt lat="45.16853" lon="5.3879">
        <ele>221.4</ele>
        <time>2022-10-15T13:15:58.000Z</time>
      </trkpt>
      <trkpt lat="45.1685" lon="5.38788">
        <ele>221.7</ele>
        <time>2022-10-15T13:15:59.000Z</time>
      </trkpt>
      <trkpt lat="45.16847" lon="5.38787">
        <ele>222.1</ele>
        <time>2022-10-15T13:16:00.000Z</time>
      </trkpt>
      <trkpt lat="45.16844" lon="5.38785">
        <ele>222.4</ele>
        <time>2022-10-15T13:16:01.000Z</time>
      </trkpt>
      <trkpt lat="45.16841" lon="5.38783">
        <ele>222.8</ele>
        <time>2022-10-15T13:16:02.000Z</time>
      </trkpt>
      <trkpt lat="45.16838" lon="5.38781">
        <ele>223.2</ele>
        <time>2022-10-15T13:16:03.000Z</time>
      </trkpt>
      <trkpt lat="45.16835" lon="5.3878">
        <ele>223.7</ele>
        <time>2022-10-15T13:16:04.000Z</time>
      </trkpt>
      <trkpt lat="45.16832" lon="5.38778">
        <ele>224.1</ele>
        <time>2022-10-15T13:16:05.000Z</time>
      </trkpt>
      <trkpt lat="45.16828" lon="5.38777">
        <ele>224.1</ele>
        <time>2022-10-15T13:16:06.000Z</time>
      </trkpt>
      <trkpt lat="45.16825" lon="5.38775">
        <ele>223.8</ele>
        <time>2022-10-15T13:16:07.000Z</time>
      </trkpt>
      <trkpt lat="45.16821" lon="5.38773">
        <ele>223.7</ele>
        <time>2022-10-15T13:16:08.000Z</time>
      </trkpt>
      <trkpt lat="45.16817" lon="5.38771">
        <ele>223.7</ele>
        <time>2022-10-15T13:16:09.000Z</time>
      </trkpt>
      <trkpt lat="45.16814" lon="5.3877">
        <ele>223.9</ele>
        <time>2022-10-15T13:16:10.000Z</time>
      </trkpt>
      <trkpt lat="45.1681" lon="5.38768">
        <ele>224.1</ele>
        <time>2022-10-15T13:16:11.000Z</time>
      </trkpt>
      <trkpt lat="45.16807" lon="5.38766">
        <ele>224.4</ele>
        <time>2022-10-15T13:16:12.000Z</time>
      </trkpt>
      <trkpt lat="45.16804" lon="5.38764">
        <ele>224.6</ele>
        <time>2022-10-15T13:16:13.000Z</time>
      </trkpt>
      <trkpt lat="45.16801" lon="5.38763">
        <ele>224.6</ele>
        <time>2022-10-15T13:16:14.000Z</time>
      </trkpt>
      <trkpt lat="45.16798" lon="5.38762">
        <ele>224.6</ele>
        <time>2022-10-15T13:16:15.000Z</time>
      </trkpt>
      <trkpt lat="45.16796" lon="5.38761">
        <ele>224.6</ele>
        <time>2022-10-15T13:16:16.000Z</time>
      </trkpt>
      <trkpt lat="45.16793" lon="5.38759">
        <ele>224.6</ele>
        <time>2022-10-15T13:16:17.000Z</time>
      </trkpt>
      <trkpt lat="45.16789" lon="5.38757">
        <ele>224.7</ele>
        <time>2022-10-15T13:16:18.000Z</time>
      </trkpt>
      <trkpt lat="45.16786" lon="5.38755">
        <ele>224.8</ele>
        <time>2022-10-15T13:16:19.000Z</time>
      </trkpt>
      <trkpt lat="45.16782" lon="5.38753">
        <ele>224.9</ele>
        <time>2022-10-15T13:16:20.000Z</time>
      </trkpt>
      <trkpt lat="45.16778" lon="5.38752">
        <ele>225</ele>
        <time>2022-10-15T13:16:21.000Z</time>
      </trkpt>
      <trkpt lat="45.16775" lon="5.3875">
        <ele>225</ele>
        <time>2022-10-15T13:16:22.000Z</time>
      </trkpt>
      <trkpt lat="45.16772" lon="5.38748">
        <ele>225</ele>
        <time>2022-10-15T13:16:23.000Z</time>
      </trkpt>
      <trkpt lat="45.16769" lon="5.38747">
        <ele>224.9</ele>
        <time>2022-10-15T13:16:24.000Z</time>
      </trkpt>
      <trkpt lat="45.16765" lon="5.38745">
        <ele>224.9</ele>
        <time>2022-10-15T13:16:25.000Z</time>
      </trkpt>
      <trkpt lat="45.16762" lon="5.38744">
        <ele>224.9</ele>
        <time>2022-10-15T13:16:26.000Z</time>
      </trkpt>
      <trkpt lat="45.16758" lon="5.38742">
        <ele>224.9</ele>
        <time>2022-10-15T13:16:27.000Z</time>
      </trkpt>
      <trkpt lat="45.16755" lon="5.3874">
        <ele>224.9</ele>
        <time>2022-10-15T13:16:28.000Z</time>
      </trkpt>
      <trkpt lat="45.16751" lon="5.38738">
        <ele>225</ele>
        <time>2022-10-15T13:16:29.000Z</time>
      </trkpt>
      <trkpt lat="45.16747" lon="5.38736">
        <ele>225.1</ele>
        <time>2022-10-15T13:16:30.000Z</time>
      </trkpt>
      <trkpt lat="45.16743" lon="5.38734">
        <ele>225.1</ele>
        <time>2022-10-15T13:16:31.000Z</time>
      </trkpt>
      <trkpt lat="45.1674" lon="5.38732">
        <ele>225.2</ele>
        <time>2022-10-15T13:16:32.000Z</time>
      </trkpt>
      <trkpt lat="45.16736" lon="5.3873">
        <ele>225.4</ele>
        <time>2022-10-15T13:16:33.000Z</time>
      </trkpt>
      <trkpt lat="45.16733" lon="5.38728">
        <ele>225.5</ele>
        <time>2022-10-15T13:16:34.000Z</time>
      </trkpt>
      <trkpt lat="45.1673" lon="5.38725">
        <ele>225.6</ele>
        <time>2022-10-15T13:16:35.000Z</time>
      </trkpt>
      <trkpt lat="45.16727" lon="5.38724">
        <ele>225.8</ele>
        <time>2022-10-15T13:16:36.000Z</time>
      </trkpt>
      <trkpt lat="45.16722" lon="5.38722">
        <ele>226</ele>
        <time>2022-10-15T13:16:37.000Z</time>
      </trkpt>
      <trkpt lat="45.16719" lon="5.3872">
        <ele>225.9</ele>
        <time>2022-10-15T13:16:38.000Z</time>
      </trkpt>
      <trkpt lat="45.16715" lon="5.38718">
        <ele>225.8</ele>
        <time>2022-10-15T13:16:39.000Z</time>
      </trkpt>
      <trkpt lat="45.16711" lon="5.38716">
        <ele>225.8</ele>
        <time>2022-10-15T13:16:40.000Z</time>
      </trkpt>
      <trkpt lat="45.16707" lon="5.38714">
        <ele>225.7</ele>
        <time>2022-10-15T13:16:41.000Z</time>
      </trkpt>
      <trkpt lat="45.16703" lon="5.38712">
        <ele>225.6</ele>
        <time>2022-10-15T13:16:42.000Z</time>
      </trkpt>
      <trkpt lat="45.16699" lon="5.3871">
        <ele>225.6</ele>
        <time>2022-10-15T13:16:43.000Z</time>
      </trkpt>
      <trkpt lat="45.16695" lon="5.38708">
        <ele>225.5</ele>
        <time>2022-10-15T13:16:44.000Z</time>
      </trkpt>
      <trkpt lat="45.16691" lon="5.38706">
        <ele>225.5</ele>
        <time>2022-10-15T13:16:45.000Z</time>
      </trkpt>
      <trkpt lat="45.16688" lon="5.38704">
        <ele>225.5</ele>
        <time>2022-10-15T13:16:46.000Z</time>
      </trkpt>
      <trkpt lat="45.16685" lon="5.38702">
        <ele>225.5</ele>
        <time>2022-10-15T13:16:47.000Z</time>
      </trkpt>
      <trkpt lat="45.16681" lon="5.38701">
        <ele>225.6</ele>
        <time>2022-10-15T13:16:48.000Z</time>
      </trkpt>
      <trkpt lat="45.16678" lon="5.38699">
        <ele>225.7</ele>
        <time>2022-10-15T13:16:49.000Z</time>
      </trkpt>
      <trkpt lat="45.16674" lon="5.38696">
        <ele>225.7</ele>
        <time>2022-10-15T13:16:50.000Z</time>
      </trkpt>
      <trkpt lat="45.16671" lon="5.38694">
        <ele>225.8</ele>
        <time>2022-10-15T13:16:51.000Z</time>
      </trkpt>
      <trkpt lat="45.16668" lon="5.38692">
        <ele>225.9</ele>
        <time>2022-10-15T13:16:52.000Z</time>
      </trkpt>
      <trkpt lat="45.16665" lon="5.38689">
        <ele>226.1</ele>
        <time>2022-10-15T13:16:53.000Z</time>
      </trkpt>
      <trkpt lat="45.16662" lon="5.38687">
        <ele>226.2</ele>
        <time>2022-10-15T13:16:54.000Z</time>
      </trkpt>
      <trkpt lat="45.16659" lon="5.38685">
        <ele>226.3</ele>
        <time>2022-10-15T13:16:55.000Z</time>
      </trkpt>
      <trkpt lat="45.16656" lon="5.38683">
        <ele>226.4</ele>
        <time>2022-10-15T13:16:56.000Z</time>
      </trkpt>
      <trkpt lat="45.16654" lon="5.38681">
        <ele>226.5</ele>
        <time>2022-10-15T13:16:57.000Z</time>
      </trkpt>
      <trkpt lat="45.1665" lon="5.38679">
        <ele>226.6</ele>
        <time>2022-10-15T13:16:58.000Z</time>
      </trkpt>
      <trkpt lat="45.16647" lon="5.38677">
        <ele>226.7</ele>
        <time>2022-10-15T13:16:59.000Z</time>
      </trkpt>
      <trkpt lat="45.16644" lon="5.38675">
        <ele>226.8</ele>
        <time>2022-10-15T13:17:00.000Z</time>
      </trkpt>
      <trkpt lat="45.16641" lon="5.38673">
        <ele>226.9</ele>
        <time>2022-10-15T13:17:01.000Z</time>
      </trkpt>
      <trkpt lat="45.16638" lon="5.38671">
        <ele>227</ele>
        <time>2022-10-15T13:17:02.000Z</time>
      </trkpt>
      <trkpt lat="45.16634" lon="5.38669">
        <ele>227</ele>
        <time>2022-10-15T13:17:03.000Z</time>
      </trkpt>
      <trkpt lat="45.16631" lon="5.38667">
        <ele>227</ele>
        <time>2022-10-15T13:17:04.000Z</time>
      </trkpt>
      <trkpt lat="45.16626" lon="5.38665">
        <ele>227</ele>
        <time>2022-10-15T13:17:05.000Z</time>
      </trkpt>
      <trkpt lat="45.16622" lon="5.38663">
        <ele>226.9</ele>
        <time>2022-10-15T13:17:06.000Z</time>
      </trkpt>
      <trkpt lat="45.16618" lon="5.38661">
        <ele>227</ele>
        <time>2022-10-15T13:17:07.000Z</time>
      </trkpt>
      <trkpt lat="45.16614" lon="5.38659">
        <ele>227</ele>
        <time>2022-10-15T13:17:08.000Z</time>
      </trkpt>
      <trkpt lat="45.1661" lon="5.38656">
        <ele>227</ele>
        <time>2022-10-15T13:17:09.000Z</time>
      </trkpt>
      <trkpt lat="45.16606" lon="5.38653">
        <ele>227</ele>
        <time>2022-10-15T13:17:10.000Z</time>
      </trkpt>
      <trkpt lat="45.16603" lon="5.38651">
        <ele>227</ele>
        <time>2022-10-15T13:17:11.000Z</time>
      </trkpt>
      <trkpt lat="45.16599" lon="5.3865">
        <ele>227</ele>
        <time>2022-10-15T13:17:12.000Z</time>
      </trkpt>
      <trkpt lat="45.16596" lon="5.38648">
        <ele>227</ele>
        <time>2022-10-15T13:17:13.000Z</time>
      </trkpt>
      <trkpt lat="45.16593" lon="5.38647">
        <ele>227</ele>
        <time>2022-10-15T13:17:14.000Z</time>
      </trkpt>
      <trkpt lat="45.1659" lon="5.38645">
        <ele>227</ele>
        <time>2022-10-15T13:17:15.000Z</time>
      </trkpt>
      <trkpt lat="45.16588" lon="5.38644">
        <ele>227</ele>
        <time>2022-10-15T13:17:16.000Z</time>
      </trkpt>
      <trkpt lat="45.16584" lon="5.38642">
        <ele>227</ele>
        <time>2022-10-15T13:17:17.000Z</time>
      </trkpt>
      <trkpt lat="45.1658" lon="5.38641">
        <ele>227</ele>
        <time>2022-10-15T13:17:18.000Z</time>
      </trkpt>
      <trkpt lat="45.16577" lon="5.38639">
        <ele>227</ele>
        <time>2022-10-15T13:17:19.000Z</time>
      </trkpt>
      <trkpt lat="45.16574" lon="5.38637">
        <ele>226.9</ele>
        <time>2022-10-15T13:17:20.000Z</time>
      </trkpt>
      <trkpt lat="45.1657" lon="5.38635">
        <ele>226.9</ele>
        <time>2022-10-15T13:17:21.000Z</time>
      </trkpt>
      <trkpt lat="45.16567" lon="5.38634">
        <ele>226.9</ele>
        <time>2022-10-15T13:17:22.000Z</time>
      </trkpt>
      <trkpt lat="45.16563" lon="5.38632">
        <ele>226.9</ele>
        <time>2022-10-15T13:17:23.000Z</time>
      </trkpt>
      <trkpt lat="45.1656" lon="5.3863">
        <ele>226.9</ele>
        <time>2022-10-15T13:17:24.000Z</time>
      </trkpt>
      <trkpt lat="45.16556" lon="5.38628">
        <ele>227</ele>
        <time>2022-10-15T13:17:25.000Z</time>
      </trkpt>
      <trkpt lat="45.16553" lon="5.38625">
        <ele>227</ele>
        <time>2022-10-15T13:17:26.000Z</time>
      </trkpt>
      <trkpt lat="45.16549" lon="5.38624">
        <ele>227</ele>
        <time>2022-10-15T13:17:27.000Z</time>
      </trkpt>
      <trkpt lat="45.16545" lon="5.38622">
        <ele>227</ele>
        <time>2022-10-15T13:17:28.000Z</time>
      </trkpt>
      <trkpt lat="45.16542" lon="5.3862">
        <ele>227</ele>
        <time>2022-10-15T13:17:29.000Z</time>
      </trkpt>
      <trkpt lat="45.16538" lon="5.38618">
        <ele>227</ele>
        <time>2022-10-15T13:17:30.000Z</time>
      </trkpt>
      <trkpt lat="45.16535" lon="5.38616">
        <ele>227</ele>
        <time>2022-10-15T13:17:31.000Z</time>
      </trkpt>
      <trkpt lat="45.16531" lon="5.38614">
        <ele>227</ele>
        <time>2022-10-15T13:17:32.000Z</time>
      </trkpt>
      <trkpt lat="45.16528" lon="5.38612">
        <ele>227</ele>
        <time>2022-10-15T13:17:33.000Z</time>
      </trkpt>
      <trkpt lat="45.16524" lon="5.38611">
        <ele>227</ele>
        <time>2022-10-15T13:17:34.000Z</time>
      </trkpt>
      <trkpt lat="45.1652" lon="5.38609">
        <ele>227.1</ele>
        <time>2022-10-15T13:17:35.000Z</time>
      </trkpt>
      <trkpt lat="45.16517" lon="5.38607">
        <ele>227.1</ele>
        <time>2022-10-15T13:17:36.000Z</time>
      </trkpt>
      <trkpt lat="45.16513" lon="5.38606">
        <ele>227.1</ele>
        <time>2022-10-15T13:17:37.000Z</time>
      </trkpt>
      <trkpt lat="45.1651" lon="5.38604">
        <ele>227.1</ele>
        <time>2022-10-15T13:17:38.000Z</time>
      </trkpt>
      <trkpt lat="45.16507" lon="5.38602">
        <ele>227.1</ele>
        <time>2022-10-15T13:17:39.000Z</time>
      </trkpt>
      <trkpt lat="45.16504" lon="5.386">
        <ele>227</ele>
        <time>2022-10-15T13:17:40.000Z</time>
      </trkpt>
      <trkpt lat="45.16501" lon="5.38599">
        <ele>227</ele>
        <time>2022-10-15T13:17:41.000Z</time>
      </trkpt>
      <trkpt lat="45.16497" lon="5.38598">
        <ele>227</ele>
        <time>2022-10-15T13:17:42.000Z</time>
      </trkpt>
      <trkpt lat="45.16494" lon="5.38596">
        <ele>227</ele>
        <time>2022-10-15T13:17:43.000Z</time>
      </trkpt>
      <trkpt lat="45.16491" lon="5.38595">
        <ele>227</ele>
        <time>2022-10-15T13:17:44.000Z</time>
      </trkpt>
      <trkpt lat="45.16487" lon="5.38593">
        <ele>227</ele>
        <time>2022-10-15T13:17:45.000Z</time>
      </trkpt>
      <trkpt lat="45.16483" lon="5.38591">
        <ele>227</ele>
        <time>2022-10-15T13:17:46.000Z</time>
      </trkpt>
      <trkpt lat="45.1648" lon="5.38589">
        <ele>227</ele>
        <time>2022-10-15T13:17:47.000Z</time>
      </trkpt>
      <trkpt lat="45.16476" lon="5.38587">
        <ele>227</ele>
        <time>2022-10-15T13:17:48.000Z</time>
      </trkpt>
      <trkpt lat="45.16473" lon="5.38585">
        <ele>227</ele>
        <time>2022-10-15T13:17:49.000Z</time>
      </trkpt>
      <trkpt lat="45.1647" lon="5.38583">
        <ele>227</ele>
        <time>2022-10-15T13:17:50.000Z</time>
      </trkpt>
      <trkpt lat="45.16467" lon="5.38581">
        <ele>227</ele>
        <time>2022-10-15T13:17:51.000Z</time>
      </trkpt>
      <trkpt lat="45.16464" lon="5.3858">
        <ele>227</ele>
        <time>2022-10-15T13:17:52.000Z</time>
      </trkpt>
      <trkpt lat="45.16462" lon="5.38579">
        <ele>227</ele>
        <time>2022-10-15T13:17:53.000Z</time>
      </trkpt>
      <trkpt lat="45.16459" lon="5.38577">
        <ele>227</ele>
        <time>2022-10-15T13:17:54.000Z</time>
      </trkpt>
      <trkpt lat="45.16456" lon="5.38576">
        <ele>227</ele>
        <time>2022-10-15T13:17:55.000Z</time>
      </trkpt>
      <trkpt lat="45.16454" lon="5.38575">
        <ele>227</ele>
        <time>2022-10-15T13:17:56.000Z</time>
      </trkpt>
      <trkpt lat="45.16451" lon="5.38573">
        <ele>227</ele>
        <time>2022-10-15T13:17:57.000Z</time>
      </trkpt>
      <trkpt lat="45.16447" lon="5.38571">
        <ele>227</ele>
        <time>2022-10-15T13:17:58.000Z</time>
      </trkpt>
      <trkpt lat="45.16444" lon="5.38569">
        <ele>227</ele>
        <time>2022-10-15T13:17:59.000Z</time>
      </trkpt>
      <trkpt lat="45.16441" lon="5.38567">
        <ele>227</ele>
        <time>2022-10-15T13:18:00.000Z</time>
      </trkpt>
      <trkpt lat="45.16437" lon="5.38565">
        <ele>227</ele>
        <time>2022-10-15T13:18:01.000Z</time>
      </trkpt>
      <trkpt lat="45.16433" lon="5.38563">
        <ele>227</ele>
        <time>2022-10-15T13:18:02.000Z</time>
      </trkpt>
      <trkpt lat="45.16429" lon="5.38561">
        <ele>227</ele>
        <time>2022-10-15T13:18:03.000Z</time>
      </trkpt>
      <trkpt lat="45.16426" lon="5.38558">
        <ele>227</ele>
        <time>2022-10-15T13:18:04.000Z</time>
      </trkpt>
      <trkpt lat="45.16422" lon="5.38556">
        <ele>227</ele>
        <time>2022-10-15T13:18:05.000Z</time>
      </trkpt>
      <trkpt lat="45.16418" lon="5.38553">
        <ele>227</ele>
        <time>2022-10-15T13:18:06.000Z</time>
      </trkpt>
      <trkpt lat="45.16415" lon="5.38551">
        <ele>227</ele>
        <time>2022-10-15T13:18:07.000Z</time>
      </trkpt>
      <trkpt lat="45.16411" lon="5.38548">
        <ele>227</ele>
        <time>2022-10-15T13:18:08.000Z</time>
      </trkpt>
      <trkpt lat="45.16407" lon="5.38546">
        <ele>227</ele>
        <time>2022-10-15T13:18:09.000Z</time>
      </trkpt>
      <trkpt lat="45.16404" lon="5.38544">
        <ele>227</ele>
        <time>2022-10-15T13:18:10.000Z</time>
      </trkpt>
      <trkpt lat="45.164" lon="5.38541">
        <ele>227</ele>
        <time>2022-10-15T13:18:11.000Z</time>
      </trkpt>
      <trkpt lat="45.16396" lon="5.38539">
        <ele>227</ele>
        <time>2022-10-15T13:18:12.000Z</time>
      </trkpt>
      <trkpt lat="45.16392" lon="5.38537">
        <ele>227</ele>
        <time>2022-10-15T13:18:13.000Z</time>
      </trkpt>
      <trkpt lat="45.16388" lon="5.38535">
        <ele>227</ele>
        <time>2022-10-15T13:18:14.000Z</time>
      </trkpt>
      <trkpt lat="45.16384" lon="5.38533">
        <ele>227</ele>
        <time>2022-10-15T13:18:15.000Z</time>
      </trkpt>
      <trkpt lat="45.16379" lon="5.38531">
        <ele>227</ele>
        <time>2022-10-15T13:18:16.000Z</time>
      </trkpt>
      <trkpt lat="45.16375" lon="5.38528">
        <ele>227</ele>
        <time>2022-10-15T13:18:17.000Z</time>
      </trkpt>
      <trkpt lat="45.1637" lon="5.38526">
        <ele>227</ele>
        <time>2022-10-15T13:18:18.000Z</time>
      </trkpt>
      <trkpt lat="45.16366" lon="5.38524">
        <ele>227</ele>
        <time>2022-10-15T13:18:19.000Z</time>
      </trkpt>
      <trkpt lat="45.16361" lon="5.38521">
        <ele>227</ele>
        <time>2022-10-15T13:18:20.000Z</time>
      </trkpt>
      <trkpt lat="45.16357" lon="5.38519">
        <ele>227</ele>
        <time>2022-10-15T13:18:21.000Z</time>
      </trkpt>
      <trkpt lat="45.16352" lon="5.38516">
        <ele>227</ele>
        <time>2022-10-15T13:18:22.000Z</time>
      </trkpt>
      <trkpt lat="45.16348" lon="5.38513">
        <ele>227</ele>
        <time>2022-10-15T13:18:23.000Z</time>
      </trkpt>
      <trkpt lat="45.16343" lon="5.38511">
        <ele>227</ele>
        <time>2022-10-15T13:18:24.000Z</time>
      </trkpt>
      <trkpt lat="45.16338" lon="5.38508">
        <ele>227</ele>
        <time>2022-10-15T13:18:25.000Z</time>
      </trkpt>
      <trkpt lat="45.16334" lon="5.38506">
        <ele>227</ele>
        <time>2022-10-15T13:18:26.000Z</time>
      </trkpt>
      <trkpt lat="45.16329" lon="5.38504">
        <ele>227.1</ele>
        <time>2022-10-15T13:18:27.000Z</time>
      </trkpt>
      <trkpt lat="45.16324" lon="5.38502">
        <ele>227.3</ele>
        <time>2022-10-15T13:18:28.000Z</time>
      </trkpt>
      <trkpt lat="45.1632" lon="5.38499">
        <ele>227.5</ele>
        <time>2022-10-15T13:18:29.000Z</time>
      </trkpt>
      <trkpt lat="45.16315" lon="5.38497">
        <ele>227.6</ele>
        <time>2022-10-15T13:18:30.000Z</time>
      </trkpt>
      <trkpt lat="45.1631" lon="5.38494">
        <ele>227.7</ele>
        <time>2022-10-15T13:18:31.000Z</time>
      </trkpt>
      <trkpt lat="45.16306" lon="5.38492">
        <ele>227.7</ele>
        <time>2022-10-15T13:18:32.000Z</time>
      </trkpt>
      <trkpt lat="45.16302" lon="5.3849">
        <ele>227.7</ele>
        <time>2022-10-15T13:18:33.000Z</time>
      </trkpt>
      <trkpt lat="45.16298" lon="5.38488">
        <ele>227.7</ele>
        <time>2022-10-15T13:18:34.000Z</time>
      </trkpt>
      <trkpt lat="45.16294" lon="5.38485">
        <ele>227.7</ele>
        <time>2022-10-15T13:18:35.000Z</time>
      </trkpt>
      <trkpt lat="45.1629" lon="5.38483">
        <ele>227.7</ele>
        <time>2022-10-15T13:18:36.000Z</time>
      </trkpt>
      <trkpt lat="45.16286" lon="5.3848">
        <ele>227.8</ele>
        <time>2022-10-15T13:18:37.000Z</time>
      </trkpt>
      <trkpt lat="45.16282" lon="5.38478">
        <ele>227.9</ele>
        <time>2022-10-15T13:18:38.000Z</time>
      </trkpt>
      <trkpt lat="45.16277" lon="5.38476">
        <ele>228</ele>
        <time>2022-10-15T13:18:39.000Z</time>
      </trkpt>
      <trkpt lat="45.16273" lon="5.38474">
        <ele>228</ele>
        <time>2022-10-15T13:18:40.000Z</time>
      </trkpt>
      <trkpt lat="45.16269" lon="5.38472">
        <ele>228</ele>
        <time>2022-10-15T13:18:41.000Z</time>
      </trkpt>
      <trkpt lat="45.16264" lon="5.38469">
        <ele>228</ele>
        <time>2022-10-15T13:18:42.000Z</time>
      </trkpt>
      <trkpt lat="45.1626" lon="5.38466">
        <ele>228.1</ele>
        <time>2022-10-15T13:18:43.000Z</time>
      </trkpt>
      <trkpt lat="45.16256" lon="5.38464">
        <ele>228.2</ele>
        <time>2022-10-15T13:18:44.000Z</time>
      </trkpt>
      <trkpt lat="45.16251" lon="5.38462">
        <ele>228.4</ele>
        <time>2022-10-15T13:18:45.000Z</time>
      </trkpt>
      <trkpt lat="45.16247" lon="5.38459">
        <ele>228.4</ele>
        <time>2022-10-15T13:18:46.000Z</time>
      </trkpt>
      <trkpt lat="45.16242" lon="5.38457">
        <ele>228.4</ele>
        <time>2022-10-15T13:18:47.000Z</time>
      </trkpt>
      <trkpt lat="45.16238" lon="5.38454">
        <ele>228.4</ele>
        <time>2022-10-15T13:18:48.000Z</time>
      </trkpt>
      <trkpt lat="45.16234" lon="5.38452">
        <ele>228.3</ele>
        <time>2022-10-15T13:18:49.000Z</time>
      </trkpt>
      <trkpt lat="45.16229" lon="5.38449">
        <ele>228.2</ele>
        <time>2022-10-15T13:18:50.000Z</time>
      </trkpt>
      <trkpt lat="45.16225" lon="5.38447">
        <ele>228.1</ele>
        <time>2022-10-15T13:18:51.000Z</time>
      </trkpt>
      <trkpt lat="45.16221" lon="5.38445">
        <ele>228</ele>
        <time>2022-10-15T13:18:52.000Z</time>
      </trkpt>
      <trkpt lat="45.16216" lon="5.38443">
        <ele>228</ele>
        <time>2022-10-15T13:18:53.000Z</time>
      </trkpt>
      <trkpt lat="45.16211" lon="5.3844">
        <ele>228</ele>
        <time>2022-10-15T13:18:54.000Z</time>
      </trkpt>
      <trkpt lat="45.16207" lon="5.38437">
        <ele>228</ele>
        <time>2022-10-15T13:18:55.000Z</time>
      </trkpt>
      <trkpt lat="45.16202" lon="5.38435">
        <ele>228</ele>
        <time>2022-10-15T13:18:56.000Z</time>
      </trkpt>
      <trkpt lat="45.16198" lon="5.38433">
        <ele>228</ele>
        <time>2022-10-15T13:18:57.000Z</time>
      </trkpt>
      <trkpt lat="45.16194" lon="5.3843">
        <ele>228</ele>
        <time>2022-10-15T13:18:58.000Z</time>
      </trkpt>
      <trkpt lat="45.16189" lon="5.38428">
        <ele>228</ele>
        <time>2022-10-15T13:18:59.000Z</time>
      </trkpt>
      <trkpt lat="45.16185" lon="5.38425">
        <ele>228</ele>
        <time>2022-10-15T13:19:00.000Z</time>
      </trkpt>
      <trkpt lat="45.1618" lon="5.38423">
        <ele>228</ele>
        <time>2022-10-15T13:19:01.000Z</time>
      </trkpt>
      <trkpt lat="45.16176" lon="5.38421">
        <ele>228</ele>
        <time>2022-10-15T13:19:02.000Z</time>
      </trkpt>
      <trkpt lat="45.16171" lon="5.38418">
        <ele>228</ele>
        <time>2022-10-15T13:19:03.000Z</time>
      </trkpt>
      <trkpt lat="45.16167" lon="5.38416">
        <ele>228</ele>
        <time>2022-10-15T13:19:04.000Z</time>
      </trkpt>
      <trkpt lat="45.16162" lon="5.38414">
        <ele>228</ele>
        <time>2022-10-15T13:19:05.000Z</time>
      </trkpt>
      <trkpt lat="45.16158" lon="5.38412">
        <ele>228</ele>
        <time>2022-10-15T13:19:06.000Z</time>
      </trkpt>
      <trkpt lat="45.16153" lon="5.38409">
        <ele>228</ele>
        <time>2022-10-15T13:19:07.000Z</time>
      </trkpt>
      <trkpt lat="45.16149" lon="5.38406">
        <ele>228</ele>
        <time>2022-10-15T13:19:08.000Z</time>
      </trkpt>
      <trkpt lat="45.16144" lon="5.38404">
        <ele>228</ele>
        <time>2022-10-15T13:19:09.000Z</time>
      </trkpt>
      <trkpt lat="45.1614" lon="5.38402">
        <ele>228</ele>
        <time>2022-10-15T13:19:10.000Z</time>
      </trkpt>
      <trkpt lat="45.16135" lon="5.38399">
        <ele>228</ele>
        <time>2022-10-15T13:19:11.000Z</time>
      </trkpt>
      <trkpt lat="45.1613" lon="5.38396">
        <ele>228</ele>
        <time>2022-10-15T13:19:12.000Z</time>
      </trkpt>
      <trkpt lat="45.16126" lon="5.38394">
        <ele>228</ele>
        <time>2022-10-15T13:19:13.000Z</time>
      </trkpt>
      <trkpt lat="45.16122" lon="5.38391">
        <ele>228</ele>
        <time>2022-10-15T13:19:14.000Z</time>
      </trkpt>
      <trkpt lat="45.16117" lon="5.38389">
        <ele>228</ele>
        <time>2022-10-15T13:19:15.000Z</time>
      </trkpt>
      <trkpt lat="45.16113" lon="5.38387">
        <ele>228</ele>
        <time>2022-10-15T13:19:16.000Z</time>
      </trkpt>
      <trkpt lat="45.16109" lon="5.38385">
        <ele>228</ele>
        <time>2022-10-15T13:19:17.000Z</time>
      </trkpt>
      <trkpt lat="45.16104" lon="5.38383">
        <ele>228</ele>
        <time>2022-10-15T13:19:18.000Z</time>
      </trkpt>
      <trkpt lat="45.161" lon="5.38381">
        <ele>228</ele>
        <time>2022-10-15T13:19:19.000Z</time>
      </trkpt>
      <trkpt lat="45.16097" lon="5.3838">
        <ele>228</ele>
        <time>2022-10-15T13:19:20.000Z</time>
      </trkpt>
      <trkpt lat="45.16093" lon="5.38377">
        <ele>228</ele>
        <time>2022-10-15T13:19:21.000Z</time>
      </trkpt>
      <trkpt lat="45.16089" lon="5.38375">
        <ele>228</ele>
        <time>2022-10-15T13:19:22.000Z</time>
      </trkpt>
      <trkpt lat="45.16085" lon="5.38372">
        <ele>228</ele>
        <time>2022-10-15T13:19:23.000Z</time>
      </trkpt>
      <trkpt lat="45.16081" lon="5.38369">
        <ele>228.1</ele>
        <time>2022-10-15T13:19:24.000Z</time>
      </trkpt>
      <trkpt lat="45.16077" lon="5.38367">
        <ele>228.2</ele>
        <time>2022-10-15T13:19:25.000Z</time>
      </trkpt>
      <trkpt lat="45.16073" lon="5.38365">
        <ele>228.3</ele>
        <time>2022-10-15T13:19:26.000Z</time>
      </trkpt>
      <trkpt lat="45.1607" lon="5.38363">
        <ele>228.4</ele>
        <time>2022-10-15T13:19:27.000Z</time>
      </trkpt>
      <trkpt lat="45.16068" lon="5.38362">
        <ele>228.5</ele>
        <time>2022-10-15T13:19:28.000Z</time>
      </trkpt>
      <trkpt lat="45.16065" lon="5.3836">
        <ele>228.6</ele>
        <time>2022-10-15T13:19:29.000Z</time>
      </trkpt>
      <trkpt lat="45.16062" lon="5.38358">
        <ele>228.7</ele>
        <time>2022-10-15T13:19:30.000Z</time>
      </trkpt>
      <trkpt lat="45.16059" lon="5.38357">
        <ele>228.7</ele>
        <time>2022-10-15T13:19:31.000Z</time>
      </trkpt>
      <trkpt lat="45.16056" lon="5.38355">
        <ele>228.8</ele>
        <time>2022-10-15T13:19:32.000Z</time>
      </trkpt>
      <trkpt lat="45.16052" lon="5.38353">
        <ele>228.7</ele>
        <time>2022-10-15T13:19:33.000Z</time>
      </trkpt>
      <trkpt lat="45.16048" lon="5.3835">
        <ele>228.6</ele>
        <time>2022-10-15T13:19:34.000Z</time>
      </trkpt>
      <trkpt lat="45.16045" lon="5.38348">
        <ele>228.5</ele>
        <time>2022-10-15T13:19:35.000Z</time>
      </trkpt>
      <trkpt lat="45.16041" lon="5.38345">
        <ele>228.4</ele>
        <time>2022-10-15T13:19:36.000Z</time>
      </trkpt>
      <trkpt lat="45.16037" lon="5.38343">
        <ele>228.3</ele>
        <time>2022-10-15T13:19:37.000Z</time>
      </trkpt>
      <trkpt lat="45.16034" lon="5.38341">
        <ele>228.3</ele>
        <time>2022-10-15T13:19:38.000Z</time>
      </trkpt>
      <trkpt lat="45.1603" lon="5.38339">
        <ele>228.2</ele>
        <time>2022-10-15T13:19:39.000Z</time>
      </trkpt>
      <trkpt lat="45.16027" lon="5.38337">
        <ele>228.2</ele>
        <time>2022-10-15T13:19:40.000Z</time>
      </trkpt>
      <trkpt lat="45.16023" lon="5.38335">
        <ele>228.2</ele>
        <time>2022-10-15T13:19:41.000Z</time>
      </trkpt>
      <trkpt lat="45.1602" lon="5.38333">
        <ele>228.3</ele>
        <time>2022-10-15T13:19:42.000Z</time>
      </trkpt>
      <trkpt lat="45.16016" lon="5.38331">
        <ele>228.4</ele>
        <time>2022-10-15T13:19:43.000Z</time>
      </trkpt>
      <trkpt lat="45.16013" lon="5.3833">
        <ele>228.5</ele>
        <time>2022-10-15T13:19:44.000Z</time>
      </trkpt>
      <trkpt lat="45.16009" lon="5.38328">
        <ele>228.5</ele>
        <time>2022-10-15T13:19:45.000Z</time>
      </trkpt>
      <trkpt lat="45.16004" lon="5.38326">
        <ele>228.6</ele>
        <time>2022-10-15T13:19:46.000Z</time>
      </trkpt>
      <trkpt lat="45.16" lon="5.38324">
        <ele>228.7</ele>
        <time>2022-10-15T13:19:47.000Z</time>
      </trkpt>
      <trkpt lat="45.15995" lon="5.38322">
        <ele>228.6</ele>
        <time>2022-10-15T13:19:48.000Z</time>
      </trkpt>
      <trkpt lat="45.15991" lon="5.38319">
        <ele>228.7</ele>
        <time>2022-10-15T13:19:49.000Z</time>
      </trkpt>
      <trkpt lat="45.15987" lon="5.38317">
        <ele>228.7</ele>
        <time>2022-10-15T13:19:50.000Z</time>
      </trkpt>
      <trkpt lat="45.15983" lon="5.38315">
        <ele>228.8</ele>
        <time>2022-10-15T13:19:51.000Z</time>
      </trkpt>
      <trkpt lat="45.15978" lon="5.38313">
        <ele>228.8</ele>
        <time>2022-10-15T13:19:52.000Z</time>
      </trkpt>
      <trkpt lat="45.15974" lon="5.38311">
        <ele>228.9</ele>
        <time>2022-10-15T13:19:53.000Z</time>
      </trkpt>
      <trkpt lat="45.1597" lon="5.38309">
        <ele>229</ele>
        <time>2022-10-15T13:19:54.000Z</time>
      </trkpt>
      <trkpt lat="45.15966" lon="5.38306">
        <ele>229</ele>
        <time>2022-10-15T13:19:55.000Z</time>
      </trkpt>
      <trkpt lat="45.15962" lon="5.38304">
        <ele>229</ele>
        <time>2022-10-15T13:19:56.000Z</time>
      </trkpt>
      <trkpt lat="45.15958" lon="5.38302">
        <ele>228.9</ele>
        <time>2022-10-15T13:19:57.000Z</time>
      </trkpt>
      <trkpt lat="45.15954" lon="5.38299">
        <ele>228.9</ele>
        <time>2022-10-15T13:19:58.000Z</time>
      </trkpt>
      <trkpt lat="45.1595" lon="5.38297">
        <ele>228.9</ele>
        <time>2022-10-15T13:19:59.000Z</time>
      </trkpt>
      <trkpt lat="45.15946" lon="5.38295">
        <ele>229</ele>
        <time>2022-10-15T13:20:00.000Z</time>
      </trkpt>
      <trkpt lat="45.15944" lon="5.38293">
        <ele>229</ele>
        <time>2022-10-15T13:20:01.000Z</time>
      </trkpt>
      <trkpt lat="45.1594" lon="5.38291">
        <ele>229</ele>
        <time>2022-10-15T13:20:02.000Z</time>
      </trkpt>
      <trkpt lat="45.15937" lon="5.38289">
        <ele>229</ele>
        <time>2022-10-15T13:20:03.000Z</time>
      </trkpt>
      <trkpt lat="45.15933" lon="5.38286">
        <ele>229</ele>
        <time>2022-10-15T13:20:04.000Z</time>
      </trkpt>
      <trkpt lat="45.1593" lon="5.38284">
        <ele>229</ele>
        <time>2022-10-15T13:20:05.000Z</time>
      </trkpt>
      <trkpt lat="45.15926" lon="5.38282">
        <ele>229</ele>
        <time>2022-10-15T13:20:06.000Z</time>
      </trkpt>
      <trkpt lat="45.15921" lon="5.38279">
        <ele>229</ele>
        <time>2022-10-15T13:20:07.000Z</time>
      </trkpt>
      <trkpt lat="45.15918" lon="5.38277">
        <ele>229</ele>
        <time>2022-10-15T13:20:08.000Z</time>
      </trkpt>
      <trkpt lat="45.15915" lon="5.38276">
        <ele>229</ele>
        <time>2022-10-15T13:20:09.000Z</time>
      </trkpt>
      <trkpt lat="45.15911" lon="5.38275">
        <ele>229</ele>
        <time>2022-10-15T13:20:10.000Z</time>
      </trkpt>
      <trkpt lat="45.15908" lon="5.38273">
        <ele>229</ele>
        <time>2022-10-15T13:20:11.000Z</time>
      </trkpt>
      <trkpt lat="45.15905" lon="5.38272">
        <ele>229</ele>
        <time>2022-10-15T13:20:12.000Z</time>
      </trkpt>
      <trkpt lat="45.15901" lon="5.3827">
        <ele>229</ele>
        <time>2022-10-15T13:20:13.000Z</time>
      </trkpt>
      <trkpt lat="45.15898" lon="5.38268">
        <ele>229</ele>
        <time>2022-10-15T13:20:14.000Z</time>
      </trkpt>
      <trkpt lat="45.15896" lon="5.38265">
        <ele>229</ele>
        <time>2022-10-15T13:20:15.000Z</time>
      </trkpt>
      <trkpt lat="45.15893" lon="5.38264">
        <ele>229</ele>
        <time>2022-10-15T13:20:16.000Z</time>
      </trkpt>
      <trkpt lat="45.1589" lon="5.38262">
        <ele>229</ele>
        <time>2022-10-15T13:20:17.000Z</time>
      </trkpt>
      <trkpt lat="45.15887" lon="5.3826">
        <ele>229</ele>
        <time>2022-10-15T13:20:18.000Z</time>
      </trkpt>
      <trkpt lat="45.15884" lon="5.38259">
        <ele>229</ele>
        <time>2022-10-15T13:20:19.000Z</time>
      </trkpt>
      <trkpt lat="45.15881" lon="5.38257">
        <ele>229</ele>
        <time>2022-10-15T13:20:20.000Z</time>
      </trkpt>
      <trkpt lat="45.15878" lon="5.38255">
        <ele>229</ele>
        <time>2022-10-15T13:20:21.000Z</time>
      </trkpt>
      <trkpt lat="45.15875" lon="5.38254">
        <ele>229</ele>
        <time>2022-10-15T13:20:22.000Z</time>
      </trkpt>
      <trkpt lat="45.15872" lon="5.38252">
        <ele>229</ele>
        <time>2022-10-15T13:20:23.000Z</time>
      </trkpt>
      <trkpt lat="45.15869" lon="5.3825">
        <ele>229</ele>
        <time>2022-10-15T13:20:24.000Z</time>
      </trkpt>
      <trkpt lat="45.15866" lon="5.38248">
        <ele>229</ele>
        <time>2022-10-15T13:20:25.000Z</time>
      </trkpt>
      <trkpt lat="45.15862" lon="5.38246">
        <ele>229</ele>
        <time>2022-10-15T13:20:26.000Z</time>
      </trkpt>
      <trkpt lat="45.15859" lon="5.38244">
        <ele>229</ele>
        <time>2022-10-15T13:20:27.000Z</time>
      </trkpt>
      <trkpt lat="45.15856" lon="5.38243">
        <ele>229</ele>
        <time>2022-10-15T13:20:28.000Z</time>
      </trkpt>
      <trkpt lat="45.15854" lon="5.38241">
        <ele>229</ele>
        <time>2022-10-15T13:20:29.000Z</time>
      </trkpt>
      <trkpt lat="45.15851" lon="5.38239">
        <ele>229</ele>
        <time>2022-10-15T13:20:30.000Z</time>
      </trkpt>
      <trkpt lat="45.15848" lon="5.38238">
        <ele>229</ele>
        <time>2022-10-15T13:20:31.000Z</time>
      </trkpt>
      <trkpt lat="45.15845" lon="5.38236">
        <ele>229</ele>
        <time>2022-10-15T13:20:32.000Z</time>
      </trkpt>
      <trkpt lat="45.15843" lon="5.38236">
        <ele>229</ele>
        <time>2022-10-15T13:20:33.000Z</time>
      </trkpt>
      <trkpt lat="45.1584" lon="5.38235">
        <ele>229</ele>
        <time>2022-10-15T13:20:34.000Z</time>
      </trkpt>
      <trkpt lat="45.15838" lon="5.38234">
        <ele>229</ele>
        <time>2022-10-15T13:20:35.000Z</time>
      </trkpt>
      <trkpt lat="45.15835" lon="5.38233">
        <ele>229</ele>
        <time>2022-10-15T13:20:36.000Z</time>
      </trkpt>
      <trkpt lat="45.15833" lon="5.38232">
        <ele>229</ele>
        <time>2022-10-15T13:20:37.000Z</time>
      </trkpt>
      <trkpt lat="45.1583" lon="5.38231">
        <ele>229</ele>
        <time>2022-10-15T13:20:38.000Z</time>
      </trkpt>
      <trkpt lat="45.15827" lon="5.38229">
        <ele>229</ele>
        <time>2022-10-15T13:20:39.000Z</time>
      </trkpt>
      <trkpt lat="45.15824" lon="5.38227">
        <ele>229</ele>
        <time>2022-10-15T13:20:40.000Z</time>
      </trkpt>
      <trkpt lat="45.1582" lon="5.38225">
        <ele>229</ele>
        <time>2022-10-15T13:20:41.000Z</time>
      </trkpt>
      <trkpt lat="45.15816" lon="5.38222">
        <ele>229</ele>
        <time>2022-10-15T13:20:42.000Z</time>
      </trkpt>
      <trkpt lat="45.15813" lon="5.3822">
        <ele>229</ele>
        <time>2022-10-15T13:20:43.000Z</time>
      </trkpt>
      <trkpt lat="45.15809" lon="5.38218">
        <ele>229</ele>
        <time>2022-10-15T13:20:44.000Z</time>
      </trkpt>
      <trkpt lat="45.15805" lon="5.38216">
        <ele>229</ele>
        <time>2022-10-15T13:20:45.000Z</time>
      </trkpt>
      <trkpt lat="45.15801" lon="5.38213">
        <ele>229</ele>
        <time>2022-10-15T13:20:46.000Z</time>
      </trkpt>
      <trkpt lat="45.15798" lon="5.38211">
        <ele>229</ele>
        <time>2022-10-15T13:20:47.000Z</time>
      </trkpt>
      <trkpt lat="45.15794" lon="5.38209">
        <ele>229</ele>
        <time>2022-10-15T13:20:48.000Z</time>
      </trkpt>
      <trkpt lat="45.15791" lon="5.38207">
        <ele>229</ele>
        <time>2022-10-15T13:20:49.000Z</time>
      </trkpt>
      <trkpt lat="45.15788" lon="5.38206">
        <ele>229</ele>
        <time>2022-10-15T13:20:50.000Z</time>
      </trkpt>
      <trkpt lat="45.15785" lon="5.38204">
        <ele>229</ele>
        <time>2022-10-15T13:20:51.000Z</time>
      </trkpt>
      <trkpt lat="45.15783" lon="5.38202">
        <ele>229</ele>
        <time>2022-10-15T13:20:52.000Z</time>
      </trkpt>
      <trkpt lat="45.1578" lon="5.38201">
        <ele>229</ele>
        <time>2022-10-15T13:20:53.000Z</time>
      </trkpt>
      <trkpt lat="45.15777" lon="5.38199">
        <ele>229</ele>
        <time>2022-10-15T13:20:54.000Z</time>
      </trkpt>
      <trkpt lat="45.15775" lon="5.38198">
        <ele>229</ele>
        <time>2022-10-15T13:20:55.000Z</time>
      </trkpt>
      <trkpt lat="45.15772" lon="5.38197">
        <ele>229</ele>
        <time>2022-10-15T13:20:56.000Z</time>
      </trkpt>
      <trkpt lat="45.1577" lon="5.38196">
        <ele>229</ele>
        <time>2022-10-15T13:20:57.000Z</time>
      </trkpt>
      <trkpt lat="45.15767" lon="5.38195">
        <ele>229</ele>
        <time>2022-10-15T13:20:58.000Z</time>
      </trkpt>
      <trkpt lat="45.15765" lon="5.38194">
        <ele>229</ele>
        <time>2022-10-15T13:20:59.000Z</time>
      </trkpt>
      <trkpt lat="45.15763" lon="5.38194">
        <ele>229</ele>
        <time>2022-10-15T13:21:00.000Z</time>
      </trkpt>
      <trkpt lat="45.1576" lon="5.38193">
        <ele>229</ele>
        <time>2022-10-15T13:21:01.000Z</time>
      </trkpt>
      <trkpt lat="45.15758" lon="5.38192">
        <ele>229</ele>
        <time>2022-10-15T13:21:02.000Z</time>
      </trkpt>
      <trkpt lat="45.15755" lon="5.3819">
        <ele>229</ele>
        <time>2022-10-15T13:21:03.000Z</time>
      </trkpt>
      <trkpt lat="45.15752" lon="5.38188">
        <ele>229</ele>
        <time>2022-10-15T13:21:04.000Z</time>
      </trkpt>
      <trkpt lat="45.1575" lon="5.38186">
        <ele>229</ele>
        <time>2022-10-15T13:21:05.000Z</time>
      </trkpt>
      <trkpt lat="45.15746" lon="5.38185">
        <ele>229</ele>
        <time>2022-10-15T13:21:06.000Z</time>
      </trkpt>
      <trkpt lat="45.15743" lon="5.38183">
        <ele>229</ele>
        <time>2022-10-15T13:21:07.000Z</time>
      </trkpt>
      <trkpt lat="45.1574" lon="5.38181">
        <ele>229</ele>
        <time>2022-10-15T13:21:08.000Z</time>
      </trkpt>
      <trkpt lat="45.15736" lon="5.38179">
        <ele>229</ele>
        <time>2022-10-15T13:21:09.000Z</time>
      </trkpt>
      <trkpt lat="45.15733" lon="5.38177">
        <ele>229</ele>
        <time>2022-10-15T13:21:10.000Z</time>
      </trkpt>
      <trkpt lat="45.1573" lon="5.38175">
        <ele>229</ele>
        <time>2022-10-15T13:21:11.000Z</time>
      </trkpt>
      <trkpt lat="45.15726" lon="5.38173">
        <ele>229</ele>
        <time>2022-10-15T13:21:12.000Z</time>
      </trkpt>
      <trkpt lat="45.15723" lon="5.38172">
        <ele>229</ele>
        <time>2022-10-15T13:21:13.000Z</time>
      </trkpt>
      <trkpt lat="45.15719" lon="5.38169">
        <ele>229</ele>
        <time>2022-10-15T13:21:14.000Z</time>
      </trkpt>
      <trkpt lat="45.15716" lon="5.38167">
        <ele>229</ele>
        <time>2022-10-15T13:21:15.000Z</time>
      </trkpt>
      <trkpt lat="45.15712" lon="5.38165">
        <ele>229</ele>
        <time>2022-10-15T13:21:16.000Z</time>
      </trkpt>
      <trkpt lat="45.15709" lon="5.38162">
        <ele>229</ele>
        <time>2022-10-15T13:21:17.000Z</time>
      </trkpt>
      <trkpt lat="45.15705" lon="5.3816">
        <ele>229</ele>
        <time>2022-10-15T13:21:18.000Z</time>
      </trkpt>
      <trkpt lat="45.15701" lon="5.38158">
        <ele>229</ele>
        <time>2022-10-15T13:21:19.000Z</time>
      </trkpt>
      <trkpt lat="45.15697" lon="5.38155">
        <ele>229</ele>
        <time>2022-10-15T13:21:20.000Z</time>
      </trkpt>
      <trkpt lat="45.15693" lon="5.38152">
        <ele>229</ele>
        <time>2022-10-15T13:21:21.000Z</time>
      </trkpt>
      <trkpt lat="45.15689" lon="5.3815">
        <ele>229</ele>
        <time>2022-10-15T13:21:22.000Z</time>
      </trkpt>
      <trkpt lat="45.15686" lon="5.38148">
        <ele>229</ele>
        <time>2022-10-15T13:21:23.000Z</time>
      </trkpt>
      <trkpt lat="45.15682" lon="5.38146">
        <ele>229</ele>
        <time>2022-10-15T13:21:24.000Z</time>
      </trkpt>
      <trkpt lat="45.15679" lon="5.38144">
        <ele>229</ele>
        <time>2022-10-15T13:21:25.000Z</time>
      </trkpt>
      <trkpt lat="45.15675" lon="5.38142">
        <ele>229</ele>
        <time>2022-10-15T13:21:26.000Z</time>
      </trkpt>
      <trkpt lat="45.15672" lon="5.38141">
        <ele>229</ele>
        <time>2022-10-15T13:21:27.000Z</time>
      </trkpt>
      <trkpt lat="45.15668" lon="5.38139">
        <ele>229</ele>
        <time>2022-10-15T13:21:28.000Z</time>
      </trkpt>
      <trkpt lat="45.15665" lon="5.38138">
        <ele>229</ele>
        <time>2022-10-15T13:21:29.000Z</time>
      </trkpt>
      <trkpt lat="45.15661" lon="5.38136">
        <ele>229</ele>
        <time>2022-10-15T13:21:30.000Z</time>
      </trkpt>
      <trkpt lat="45.15658" lon="5.38135">
        <ele>229</ele>
        <time>2022-10-15T13:21:31.000Z</time>
      </trkpt>
      <trkpt lat="45.15655" lon="5.38134">
        <ele>229</ele>
        <time>2022-10-15T13:21:32.000Z</time>
      </trkpt>
      <trkpt lat="45.15653" lon="5.38132">
        <ele>229</ele>
        <time>2022-10-15T13:21:33.000Z</time>
      </trkpt>
      <trkpt lat="45.15651" lon="5.3813">
        <ele>229</ele>
        <time>2022-10-15T13:21:34.000Z</time>
      </trkpt>
      <trkpt lat="45.15648" lon="5.38129">
        <ele>229</ele>
        <time>2022-10-15T13:21:35.000Z</time>
      </trkpt>
      <trkpt lat="45.15645" lon="5.38127">
        <ele>229</ele>
        <time>2022-10-15T13:21:36.000Z</time>
      </trkpt>
      <trkpt lat="45.15642" lon="5.38126">
        <ele>229</ele>
        <time>2022-10-15T13:21:37.000Z</time>
      </trkpt>
      <trkpt lat="45.15639" lon="5.38125">
        <ele>229</ele>
        <time>2022-10-15T13:21:38.000Z</time>
      </trkpt>
      <trkpt lat="45.15636" lon="5.38123">
        <ele>229</ele>
        <time>2022-10-15T13:21:39.000Z</time>
      </trkpt>
      <trkpt lat="45.15633" lon="5.38121">
        <ele>229</ele>
        <time>2022-10-15T13:21:40.000Z</time>
      </trkpt>
      <trkpt lat="45.1563" lon="5.38119">
        <ele>229</ele>
        <time>2022-10-15T13:21:41.000Z</time>
      </trkpt>
      <trkpt lat="45.15627" lon="5.38118">
        <ele>229</ele>
        <time>2022-10-15T13:21:42.000Z</time>
      </trkpt>
      <trkpt lat="45.15624" lon="5.38117">
        <ele>229</ele>
        <time>2022-10-15T13:21:43.000Z</time>
      </trkpt>
      <trkpt lat="45.15621" lon="5.38115">
        <ele>229</ele>
        <time>2022-10-15T13:21:44.000Z</time>
      </trkpt>
      <trkpt lat="45.15617" lon="5.38113">
        <ele>229</ele>
        <time>2022-10-15T13:21:45.000Z</time>
      </trkpt>
      <trkpt lat="45.15615" lon="5.38111">
        <ele>229</ele>
        <time>2022-10-15T13:21:46.000Z</time>
      </trkpt>
      <trkpt lat="45.15612" lon="5.38109">
        <ele>228.9</ele>
        <time>2022-10-15T13:21:47.000Z</time>
      </trkpt>
      <trkpt lat="45.15609" lon="5.38108">
        <ele>228.9</ele>
        <time>2022-10-15T13:21:48.000Z</time>
      </trkpt>
      <trkpt lat="45.15606" lon="5.38107">
        <ele>228.9</ele>
        <time>2022-10-15T13:21:49.000Z</time>
      </trkpt>
      <trkpt lat="45.15604" lon="5.38106">
        <ele>228.9</ele>
        <time>2022-10-15T13:21:50.000Z</time>
      </trkpt>
      <trkpt lat="45.15602" lon="5.38105">
        <ele>228.8</ele>
        <time>2022-10-15T13:21:51.000Z</time>
      </trkpt>
      <trkpt lat="45.156" lon="5.38103">
        <ele>228.8</ele>
        <time>2022-10-15T13:21:52.000Z</time>
      </trkpt>
      <trkpt lat="45.15597" lon="5.38102">
        <ele>228.8</ele>
        <time>2022-10-15T13:21:53.000Z</time>
      </trkpt>
      <trkpt lat="45.15595" lon="5.38101">
        <ele>228.8</ele>
        <time>2022-10-15T13:21:54.000Z</time>
      </trkpt>
      <trkpt lat="45.15592" lon="5.381">
        <ele>228.9</ele>
        <time>2022-10-15T13:21:55.000Z</time>
      </trkpt>
      <trkpt lat="45.15589" lon="5.38098">
        <ele>228.9</ele>
        <time>2022-10-15T13:21:56.000Z</time>
      </trkpt>
      <trkpt lat="45.15586" lon="5.38096">
        <ele>228.9</ele>
        <time>2022-10-15T13:21:57.000Z</time>
      </trkpt>
      <trkpt lat="45.15583" lon="5.38094">
        <ele>229</ele>
        <time>2022-10-15T13:21:58.000Z</time>
      </trkpt>
      <trkpt lat="45.1558" lon="5.38092">
        <ele>229</ele>
        <time>2022-10-15T13:21:59.000Z</time>
      </trkpt>
      <trkpt lat="45.15577" lon="5.3809">
        <ele>229</ele>
        <time>2022-10-15T13:22:00.000Z</time>
      </trkpt>
      <trkpt lat="45.15574" lon="5.38086">
        <ele>229</ele>
        <time>2022-10-15T13:22:01.000Z</time>
      </trkpt>
      <trkpt lat="45.15571" lon="5.38083">
        <ele>229</ele>
        <time>2022-10-15T13:22:02.000Z</time>
      </trkpt>
      <trkpt lat="45.15569" lon="5.38079">
        <ele>228.9</ele>
        <time>2022-10-15T13:22:03.000Z</time>
      </trkpt>
      <trkpt lat="45.15568" lon="5.38075">
        <ele>228.9</ele>
        <time>2022-10-15T13:22:04.000Z</time>
      </trkpt>
      <trkpt lat="45.15567" lon="5.38071">
        <ele>228.8</ele>
        <time>2022-10-15T13:22:05.000Z</time>
      </trkpt>
      <trkpt lat="45.15567" lon="5.38067">
        <ele>228.8</ele>
        <time>2022-10-15T13:22:06.000Z</time>
      </trkpt>
      <trkpt lat="45.15566" lon="5.38063">
        <ele>228.7</ele>
        <time>2022-10-15T13:22:07.000Z</time>
      </trkpt>
      <trkpt lat="45.15566" lon="5.38059">
        <ele>228.7</ele>
        <time>2022-10-15T13:22:08.000Z</time>
      </trkpt>
      <trkpt lat="45.15565" lon="5.38054">
        <ele>228.7</ele>
        <time>2022-10-15T13:22:09.000Z</time>
      </trkpt>
      <trkpt lat="45.15564" lon="5.3805">
        <ele>228.7</ele>
        <time>2022-10-15T13:22:10.000Z</time>
      </trkpt>
      <trkpt lat="45.15564" lon="5.38046">
        <ele>228.7</ele>
        <time>2022-10-15T13:22:11.000Z</time>
      </trkpt>
      <trkpt lat="45.15563" lon="5.38041">
        <ele>228.7</ele>
        <time>2022-10-15T13:22:12.000Z</time>
      </trkpt>
      <trkpt lat="45.15562" lon="5.38037">
        <ele>228.8</ele>
        <time>2022-10-15T13:22:13.000Z</time>
      </trkpt>
      <trkpt lat="45.15562" lon="5.38033">
        <ele>228.8</ele>
        <time>2022-10-15T13:22:14.000Z</time>
      </trkpt>
      <trkpt lat="45.15561" lon="5.38029">
        <ele>228.8</ele>
        <time>2022-10-15T13:22:15.000Z</time>
      </trkpt>
      <trkpt lat="45.1556" lon="5.38025">
        <ele>228.8</ele>
        <time>2022-10-15T13:22:16.000Z</time>
      </trkpt>
      <trkpt lat="45.1556" lon="5.38021">
        <ele>228.9</ele>
        <time>2022-10-15T13:22:17.000Z</time>
      </trkpt>
      <trkpt lat="45.15559" lon="5.38017">
        <ele>228.9</ele>
        <time>2022-10-15T13:22:18.000Z</time>
      </trkpt>
      <trkpt lat="45.15559" lon="5.38014">
        <ele>228.9</ele>
        <time>2022-10-15T13:22:19.000Z</time>
      </trkpt>
      <trkpt lat="45.15558" lon="5.3801">
        <ele>229</ele>
        <time>2022-10-15T13:22:20.000Z</time>
      </trkpt>
      <trkpt lat="45.15556" lon="5.38007">
        <ele>229</ele>
        <time>2022-10-15T13:22:21.000Z</time>
      </trkpt>
      <trkpt lat="45.15555" lon="5.38004">
        <ele>229</ele>
        <time>2022-10-15T13:22:22.000Z</time>
      </trkpt>
      <trkpt lat="45.15554" lon="5.38001">
        <ele>229</ele>
        <time>2022-10-15T13:22:23.000Z</time>
      </trkpt>
      <trkpt lat="45.15554" lon="5.37996">
        <ele>229</ele>
        <time>2022-10-15T13:22:24.000Z</time>
      </trkpt>
      <trkpt lat="45.15555" lon="5.37991">
        <ele>229</ele>
        <time>2022-10-15T13:22:25.000Z</time>
      </trkpt>
      <trkpt lat="45.15555" lon="5.37986">
        <ele>229</ele>
        <time>2022-10-15T13:22:26.000Z</time>
      </trkpt>
      <trkpt lat="45.15554" lon="5.37981">
        <ele>229</ele>
        <time>2022-10-15T13:22:27.000Z</time>
      </trkpt>
      <trkpt lat="45.15553" lon="5.37975">
        <ele>229</ele>
        <time>2022-10-15T13:22:28.000Z</time>
      </trkpt>
      <trkpt lat="45.15552" lon="5.37969">
        <ele>229</ele>
        <time>2022-10-15T13:22:29.000Z</time>
      </trkpt>
      <trkpt lat="45.15551" lon="5.37963">
        <ele>229</ele>
        <time>2022-10-15T13:22:30.000Z</time>
      </trkpt>
      <trkpt lat="45.1555" lon="5.37956">
        <ele>229</ele>
        <time>2022-10-15T13:22:31.000Z</time>
      </trkpt>
      <trkpt lat="45.15549" lon="5.3795">
        <ele>229</ele>
        <time>2022-10-15T13:22:32.000Z</time>
      </trkpt>
      <trkpt lat="45.15548" lon="5.37943">
        <ele>229</ele>
        <time>2022-10-15T13:22:33.000Z</time>
      </trkpt>
      <trkpt lat="45.15547" lon="5.37938">
        <ele>229</ele>
        <time>2022-10-15T13:22:34.000Z</time>
      </trkpt>
      <trkpt lat="45.15546" lon="5.37932">
        <ele>229</ele>
        <time>2022-10-15T13:22:35.000Z</time>
      </trkpt>
      <trkpt lat="45.15545" lon="5.37926">
        <ele>229</ele>
        <time>2022-10-15T13:22:36.000Z</time>
      </trkpt>
      <trkpt lat="45.15544" lon="5.3792">
        <ele>229</ele>
        <time>2022-10-15T13:22:37.000Z</time>
      </trkpt>
      <trkpt lat="45.15543" lon="5.37915">
        <ele>229</ele>
        <time>2022-10-15T13:22:38.000Z</time>
      </trkpt>
      <trkpt lat="45.15542" lon="5.37909">
        <ele>229.2</ele>
        <time>2022-10-15T13:22:39.000Z</time>
      </trkpt>
      <trkpt lat="45.15541" lon="5.37902">
        <ele>229.3</ele>
        <time>2022-10-15T13:22:40.000Z</time>
      </trkpt>
      <trkpt lat="45.1554" lon="5.37896">
        <ele>229.3</ele>
        <time>2022-10-15T13:22:41.000Z</time>
      </trkpt>
      <trkpt lat="45.15539" lon="5.37891">
        <ele>229.4</ele>
        <time>2022-10-15T13:22:42.000Z</time>
      </trkpt>
      <trkpt lat="45.15539" lon="5.37885">
        <ele>229.5</ele>
        <time>2022-10-15T13:22:43.000Z</time>
      </trkpt>
      <trkpt lat="45.15538" lon="5.37879">
        <ele>229.6</ele>
        <time>2022-10-15T13:22:44.000Z</time>
      </trkpt>
      <trkpt lat="45.15536" lon="5.37873">
        <ele>229.7</ele>
        <time>2022-10-15T13:22:45.000Z</time>
      </trkpt>
      <trkpt lat="45.15535" lon="5.37866">
        <ele>229.9</ele>
        <time>2022-10-15T13:22:46.000Z</time>
      </trkpt>
      <trkpt lat="45.15534" lon="5.3786">
        <ele>230</ele>
        <time>2022-10-15T13:22:47.000Z</time>
      </trkpt>
      <trkpt lat="45.15533" lon="5.37854">
        <ele>230</ele>
        <time>2022-10-15T13:22:48.000Z</time>
      </trkpt>
      <trkpt lat="45.15532" lon="5.37847">
        <ele>230</ele>
        <time>2022-10-15T13:22:49.000Z</time>
      </trkpt>
      <trkpt lat="45.15531" lon="5.37841">
        <ele>230</ele>
        <time>2022-10-15T13:22:50.000Z</time>
      </trkpt>
      <trkpt lat="45.1553" lon="5.37835">
        <ele>230</ele>
        <time>2022-10-15T13:22:51.000Z</time>
      </trkpt>
      <trkpt lat="45.15529" lon="5.3783">
        <ele>229.9</ele>
        <time>2022-10-15T13:22:52.000Z</time>
      </trkpt>
      <trkpt lat="45.15528" lon="5.37824">
        <ele>229.7</ele>
        <time>2022-10-15T13:22:53.000Z</time>
      </trkpt>
      <trkpt lat="45.15528" lon="5.37819">
        <ele>229.5</ele>
        <time>2022-10-15T13:22:54.000Z</time>
      </trkpt>
      <trkpt lat="45.15527" lon="5.37813">
        <ele>229.3</ele>
        <time>2022-10-15T13:22:55.000Z</time>
      </trkpt>
      <trkpt lat="45.15527" lon="5.37808">
        <ele>229.1</ele>
        <time>2022-10-15T13:22:56.000Z</time>
      </trkpt>
      <trkpt lat="45.15526" lon="5.37803">
        <ele>229.2</ele>
        <time>2022-10-15T13:22:57.000Z</time>
      </trkpt>
      <trkpt lat="45.15525" lon="5.37798">
        <ele>229.4</ele>
        <time>2022-10-15T13:22:58.000Z</time>
      </trkpt>
      <trkpt lat="45.15524" lon="5.37794">
        <ele>229.5</ele>
        <time>2022-10-15T13:22:59.000Z</time>
      </trkpt>
      <trkpt lat="45.15524" lon="5.3779">
        <ele>229.6</ele>
        <time>2022-10-15T13:23:00.000Z</time>
      </trkpt>
      <trkpt lat="45.15523" lon="5.37786">
        <ele>229.7</ele>
        <time>2022-10-15T13:23:01.000Z</time>
      </trkpt>
      <trkpt lat="45.15522" lon="5.37784">
        <ele>229.8</ele>
        <time>2022-10-15T13:23:02.000Z</time>
      </trkpt>
      <trkpt lat="45.15522" lon="5.37781">
        <ele>229.9</ele>
        <time>2022-10-15T13:23:03.000Z</time>
      </trkpt>
      <trkpt lat="45.15522" lon="5.37778">
        <ele>230</ele>
        <time>2022-10-15T13:23:04.000Z</time>
      </trkpt>
      <trkpt lat="45.15524" lon="5.37776">
        <ele>230</ele>
        <time>2022-10-15T13:23:06.000Z</time>
      </trkpt>
      <trkpt lat="45.15527" lon="5.37777">
        <ele>230</ele>
        <time>2022-10-15T13:23:08.000Z</time>
      </trkpt>
      <trkpt lat="45.15527" lon="5.37777">
        <ele>230</ele>
        <time>2022-10-15T13:23:08.000Z</time>
      </trkpt>
      <trkpt lat="45.15529" lon="5.37778">
        <ele>230</ele>
        <time>2022-10-15T13:39:35.000Z</time>
      </trkpt>
      <trkpt lat="45.15529" lon="5.37778">
        <ele>230</ele>
        <time>2022-10-15T13:39:35.000Z</time>
      </trkpt>
      <trkpt lat="45.15527" lon="5.37776">
        <ele>230</ele>
        <time>2022-10-15T13:39:36.000Z</time>
      </trkpt>
      <trkpt lat="45.15525" lon="5.37771">
        <ele>230</ele>
        <time>2022-10-15T13:39:38.000Z</time>
      </trkpt>
      <trkpt lat="45.15523" lon="5.37769">
        <ele>230</ele>
        <time>2022-10-15T13:39:39.000Z</time>
      </trkpt>
      <trkpt lat="45.15522" lon="5.37766">
        <ele>230.1</ele>
        <time>2022-10-15T13:39:40.000Z</time>
      </trkpt>
      <trkpt lat="45.15519" lon="5.37764">
        <ele>230.1</ele>
        <time>2022-10-15T13:39:41.000Z</time>
      </trkpt>
      <trkpt lat="45.15517" lon="5.37762">
        <ele>230.2</ele>
        <time>2022-10-15T13:39:42.000Z</time>
      </trkpt>
      <trkpt lat="45.15515" lon="5.37759">
        <ele>230.3</ele>
        <time>2022-10-15T13:39:43.000Z</time>
      </trkpt>
      <trkpt lat="45.15513" lon="5.37755">
        <ele>230.4</ele>
        <time>2022-10-15T13:39:44.000Z</time>
      </trkpt>
      <trkpt lat="45.15513" lon="5.37751">
        <ele>230.5</ele>
        <time>2022-10-15T13:39:45.000Z</time>
      </trkpt>
      <trkpt lat="45.15513" lon="5.37746">
        <ele>230.5</ele>
        <time>2022-10-15T13:39:46.000Z</time>
      </trkpt>
      <trkpt lat="45.15513" lon="5.37741">
        <ele>230.4</ele>
        <time>2022-10-15T13:39:47.000Z</time>
      </trkpt>
      <trkpt lat="45.15513" lon="5.37737">
        <ele>230.3</ele>
        <time>2022-10-15T13:39:48.000Z</time>
      </trkpt>
      <trkpt lat="45.15514" lon="5.37731">
        <ele>230.2</ele>
        <time>2022-10-15T13:39:49.000Z</time>
      </trkpt>
      <trkpt lat="45.15514" lon="5.37726">
        <ele>230.1</ele>
        <time>2022-10-15T13:39:50.000Z</time>
      </trkpt>
      <trkpt lat="45.15514" lon="5.3772">
        <ele>230</ele>
        <time>2022-10-15T13:39:51.000Z</time>
      </trkpt>
      <trkpt lat="45.15513" lon="5.37713">
        <ele>230.2</ele>
        <time>2022-10-15T13:39:52.000Z</time>
      </trkpt>
      <trkpt lat="45.15512" lon="5.37707">
        <ele>230.3</ele>
        <time>2022-10-15T13:39:53.000Z</time>
      </trkpt>
      <trkpt lat="45.15511" lon="5.377">
        <ele>230.5</ele>
        <time>2022-10-15T13:39:54.000Z</time>
      </trkpt>
      <trkpt lat="45.1551" lon="5.37695">
        <ele>230.6</ele>
        <time>2022-10-15T13:39:55.000Z</time>
      </trkpt>
      <trkpt lat="45.1551" lon="5.37689">
        <ele>230.6</ele>
        <time>2022-10-15T13:39:56.000Z</time>
      </trkpt>
      <trkpt lat="45.1551" lon="5.37683">
        <ele>230.6</ele>
        <time>2022-10-15T13:39:57.000Z</time>
      </trkpt>
      <trkpt lat="45.15509" lon="5.37678">
        <ele>230.7</ele>
        <time>2022-10-15T13:39:58.000Z</time>
      </trkpt>
      <trkpt lat="45.15509" lon="5.37672">
        <ele>230.7</ele>
        <time>2022-10-15T13:39:59.000Z</time>
      </trkpt>
      <trkpt lat="45.15508" lon="5.37666">
        <ele>230.7</ele>
        <time>2022-10-15T13:40:00.000Z</time>
      </trkpt>
      <trkpt lat="45.15507" lon="5.37661">
        <ele>230.8</ele>
        <time>2022-10-15T13:40:01.000Z</time>
      </trkpt>
      <trkpt lat="45.15506" lon="5.37656">
        <ele>230.9</ele>
        <time>2022-10-15T13:40:02.000Z</time>
      </trkpt>
      <trkpt lat="45.15506" lon="5.37651">
        <ele>230.9</ele>
        <time>2022-10-15T13:40:03.000Z</time>
      </trkpt>
      <trkpt lat="45.15505" lon="5.37646">
        <ele>231</ele>
        <time>2022-10-15T13:40:04.000Z</time>
      </trkpt>
      <trkpt lat="45.15505" lon="5.37641">
        <ele>231</ele>
        <time>2022-10-15T13:40:05.000Z</time>
      </trkpt>
      <trkpt lat="45.15504" lon="5.37637">
        <ele>230.9</ele>
        <time>2022-10-15T13:40:06.000Z</time>
      </trkpt>
      <trkpt lat="45.15503" lon="5.37633">
        <ele>230.8</ele>
        <time>2022-10-15T13:40:07.000Z</time>
      </trkpt>
      <trkpt lat="45.15503" lon="5.37628">
        <ele>230.6</ele>
        <time>2022-10-15T13:40:08.000Z</time>
      </trkpt>
      <trkpt lat="45.15502" lon="5.37623">
        <ele>230.4</ele>
        <time>2022-10-15T13:40:09.000Z</time>
      </trkpt>
      <trkpt lat="45.15502" lon="5.37618">
        <ele>230.2</ele>
        <time>2022-10-15T13:40:10.000Z</time>
      </trkpt>
      <trkpt lat="45.155" lon="5.37613">
        <ele>230.1</ele>
        <time>2022-10-15T13:40:11.000Z</time>
      </trkpt>
      <trkpt lat="45.155" lon="5.37607">
        <ele>230</ele>
        <time>2022-10-15T13:40:12.000Z</time>
      </trkpt>
      <trkpt lat="45.15499" lon="5.37601">
        <ele>230</ele>
        <time>2022-10-15T13:40:13.000Z</time>
      </trkpt>
      <trkpt lat="45.15498" lon="5.37595">
        <ele>230</ele>
        <time>2022-10-15T13:40:14.000Z</time>
      </trkpt>
      <trkpt lat="45.15497" lon="5.37589">
        <ele>230</ele>
        <time>2022-10-15T13:40:15.000Z</time>
      </trkpt>
      <trkpt lat="45.15496" lon="5.37583">
        <ele>230</ele>
        <time>2022-10-15T13:40:16.000Z</time>
      </trkpt>
      <trkpt lat="45.15495" lon="5.37578">
        <ele>230</ele>
        <time>2022-10-15T13:40:17.000Z</time>
      </trkpt>
      <trkpt lat="45.15494" lon="5.37572">
        <ele>230</ele>
        <time>2022-10-15T13:40:18.000Z</time>
      </trkpt>
      <trkpt lat="45.15493" lon="5.37566">
        <ele>230</ele>
        <time>2022-10-15T13:40:19.000Z</time>
      </trkpt>
      <trkpt lat="45.15493" lon="5.3756">
        <ele>230</ele>
        <time>2022-10-15T13:40:20.000Z</time>
      </trkpt>
      <trkpt lat="45.15492" lon="5.37554">
        <ele>230</ele>
        <time>2022-10-15T13:40:21.000Z</time>
      </trkpt>
      <trkpt lat="45.15491" lon="5.37548">
        <ele>230</ele>
        <time>2022-10-15T13:40:22.000Z</time>
      </trkpt>
      <trkpt lat="45.1549" lon="5.37542">
        <ele>230</ele>
        <time>2022-10-15T13:40:23.000Z</time>
      </trkpt>
      <trkpt lat="45.15489" lon="5.37535">
        <ele>230</ele>
        <time>2022-10-15T13:40:24.000Z</time>
      </trkpt>
      <trkpt lat="45.15488" lon="5.37528">
        <ele>230</ele>
        <time>2022-10-15T13:40:25.000Z</time>
      </trkpt>
      <trkpt lat="45.15487" lon="5.37521">
        <ele>230.1</ele>
        <time>2022-10-15T13:40:26.000Z</time>
      </trkpt>
      <trkpt lat="45.15487" lon="5.37515">
        <ele>230.2</ele>
        <time>2022-10-15T13:40:27.000Z</time>
      </trkpt>
      <trkpt lat="45.15486" lon="5.37509">
        <ele>230.3</ele>
        <time>2022-10-15T13:40:28.000Z</time>
      </trkpt>
      <trkpt lat="45.15486" lon="5.37502">
        <ele>230.5</ele>
        <time>2022-10-15T13:40:29.000Z</time>
      </trkpt>
      <trkpt lat="45.15485" lon="5.37495">
        <ele>230.5</ele>
        <time>2022-10-15T13:40:30.000Z</time>
      </trkpt>
      <trkpt lat="45.15484" lon="5.37489">
        <ele>230.6</ele>
        <time>2022-10-15T13:40:31.000Z</time>
      </trkpt>
      <trkpt lat="45.15483" lon="5.37483">
        <ele>230.6</ele>
        <time>2022-10-15T13:40:32.000Z</time>
      </trkpt>
      <trkpt lat="45.15482" lon="5.37476">
        <ele>230.6</ele>
        <time>2022-10-15T13:40:33.000Z</time>
      </trkpt>
      <trkpt lat="45.1548" lon="5.37469">
        <ele>230.6</ele>
        <time>2022-10-15T13:40:34.000Z</time>
      </trkpt>
      <trkpt lat="45.15479" lon="5.37463">
        <ele>230.4</ele>
        <time>2022-10-15T13:40:35.000Z</time>
      </trkpt>
      <trkpt lat="45.15478" lon="5.37456">
        <ele>230.2</ele>
        <time>2022-10-15T13:40:36.000Z</time>
      </trkpt>
      <trkpt lat="45.15477" lon="5.3745">
        <ele>230</ele>
        <time>2022-10-15T13:40:37.000Z</time>
      </trkpt>
      <trkpt lat="45.15476" lon="5.37444">
        <ele>229.9</ele>
        <time>2022-10-15T13:40:38.000Z</time>
      </trkpt>
      <trkpt lat="45.15476" lon="5.37437">
        <ele>229.9</ele>
        <time>2022-10-15T13:40:39.000Z</time>
      </trkpt>
      <trkpt lat="45.15474" lon="5.37431">
        <ele>229.9</ele>
        <time>2022-10-15T13:40:40.000Z</time>
      </trkpt>
      <trkpt lat="45.15473" lon="5.37425">
        <ele>230</ele>
        <time>2022-10-15T13:40:41.000Z</time>
      </trkpt>
      <trkpt lat="45.15473" lon="5.37419">
        <ele>230</ele>
        <time>2022-10-15T13:40:42.000Z</time>
      </trkpt>
      <trkpt lat="45.15472" lon="5.37412">
        <ele>229.8</ele>
        <time>2022-10-15T13:40:43.000Z</time>
      </trkpt>
      <trkpt lat="45.15471" lon="5.37406">
        <ele>229.6</ele>
        <time>2022-10-15T13:40:44.000Z</time>
      </trkpt>
      <trkpt lat="45.1547" lon="5.37399">
        <ele>229.4</ele>
        <time>2022-10-15T13:40:45.000Z</time>
      </trkpt>
      <trkpt lat="45.15469" lon="5.37392">
        <ele>229.2</ele>
        <time>2022-10-15T13:40:46.000Z</time>
      </trkpt>
      <trkpt lat="45.15468" lon="5.37385">
        <ele>229.1</ele>
        <time>2022-10-15T13:40:47.000Z</time>
      </trkpt>
      <trkpt lat="45.15468" lon="5.37378">
        <ele>229.2</ele>
        <time>2022-10-15T13:40:48.000Z</time>
      </trkpt>
      <trkpt lat="45.15466" lon="5.37371">
        <ele>229.2</ele>
        <time>2022-10-15T13:40:49.000Z</time>
      </trkpt>
      <trkpt lat="45.15465" lon="5.37364">
        <ele>229.3</ele>
        <time>2022-10-15T13:40:50.000Z</time>
      </trkpt>
      <trkpt lat="45.15464" lon="5.37357">
        <ele>229.3</ele>
        <time>2022-10-15T13:40:51.000Z</time>
      </trkpt>
      <trkpt lat="45.15463" lon="5.37351">
        <ele>229.2</ele>
        <time>2022-10-15T13:40:52.000Z</time>
      </trkpt>
      <trkpt lat="45.15462" lon="5.37344">
        <ele>229.1</ele>
        <time>2022-10-15T13:40:53.000Z</time>
      </trkpt>
      <trkpt lat="45.15461" lon="5.37337">
        <ele>229.1</ele>
        <time>2022-10-15T13:40:54.000Z</time>
      </trkpt>
      <trkpt lat="45.1546" lon="5.3733">
        <ele>228.9</ele>
        <time>2022-10-15T13:40:55.000Z</time>
      </trkpt>
      <trkpt lat="45.15458" lon="5.37323">
        <ele>228.8</ele>
        <time>2022-10-15T13:40:56.000Z</time>
      </trkpt>
      <trkpt lat="45.15457" lon="5.37316">
        <ele>228.7</ele>
        <time>2022-10-15T13:40:57.000Z</time>
      </trkpt>
      <trkpt lat="45.15456" lon="5.3731">
        <ele>228.7</ele>
        <time>2022-10-15T13:40:58.000Z</time>
      </trkpt>
      <trkpt lat="45.15455" lon="5.37304">
        <ele>228.6</ele>
        <time>2022-10-15T13:40:59.000Z</time>
      </trkpt>
      <trkpt lat="45.15454" lon="5.37297">
        <ele>228.7</ele>
        <time>2022-10-15T13:41:00.000Z</time>
      </trkpt>
      <trkpt lat="45.15453" lon="5.3729">
        <ele>228.7</ele>
        <time>2022-10-15T13:41:01.000Z</time>
      </trkpt>
      <trkpt lat="45.15452" lon="5.37284">
        <ele>228.7</ele>
        <time>2022-10-15T13:41:02.000Z</time>
      </trkpt>
      <trkpt lat="45.15451" lon="5.37278">
        <ele>228.7</ele>
        <time>2022-10-15T13:41:03.000Z</time>
      </trkpt>
      <trkpt lat="45.15451" lon="5.37271">
        <ele>228.5</ele>
        <time>2022-10-15T13:41:04.000Z</time>
      </trkpt>
      <trkpt lat="45.15449" lon="5.37265">
        <ele>228.4</ele>
        <time>2022-10-15T13:41:05.000Z</time>
      </trkpt>
      <trkpt lat="45.15448" lon="5.37259">
        <ele>228.2</ele>
        <time>2022-10-15T13:41:06.000Z</time>
      </trkpt>
      <trkpt lat="45.15448" lon="5.37252">
        <ele>228</ele>
        <time>2022-10-15T13:41:07.000Z</time>
      </trkpt>
      <trkpt lat="45.15447" lon="5.37245">
        <ele>227.7</ele>
        <time>2022-10-15T13:41:08.000Z</time>
      </trkpt>
      <trkpt lat="45.15446" lon="5.37238">
        <ele>227.5</ele>
        <time>2022-10-15T13:41:09.000Z</time>
      </trkpt>
      <trkpt lat="45.15445" lon="5.37231">
        <ele>227.3</ele>
        <time>2022-10-15T13:41:10.000Z</time>
      </trkpt>
      <trkpt lat="45.15444" lon="5.37224">
        <ele>227.1</ele>
        <time>2022-10-15T13:41:11.000Z</time>
      </trkpt>
      <trkpt lat="45.15443" lon="5.37217">
        <ele>226.9</ele>
        <time>2022-10-15T13:41:12.000Z</time>
      </trkpt>
      <trkpt lat="45.15442" lon="5.3721">
        <ele>226.7</ele>
        <time>2022-10-15T13:41:13.000Z</time>
      </trkpt>
      <trkpt lat="45.15442" lon="5.37203">
        <ele>226.4</ele>
        <time>2022-10-15T13:41:14.000Z</time>
      </trkpt>
      <trkpt lat="45.15441" lon="5.37196">
        <ele>226.2</ele>
        <time>2022-10-15T13:41:15.000Z</time>
      </trkpt>
      <trkpt lat="45.15439" lon="5.37189">
        <ele>226</ele>
        <time>2022-10-15T13:41:16.000Z</time>
      </trkpt>
      <trkpt lat="45.15439" lon="5.37184">
        <ele>225.8</ele>
        <time>2022-10-15T13:41:17.000Z</time>
      </trkpt>
      <trkpt lat="45.15438" lon="5.37179">
        <ele>225.7</ele>
        <time>2022-10-15T13:41:18.000Z</time>
      </trkpt>
      <trkpt lat="45.15437" lon="5.37172">
        <ele>225.5</ele>
        <time>2022-10-15T13:41:19.000Z</time>
      </trkpt>
      <trkpt lat="45.15436" lon="5.37166">
        <ele>225.3</ele>
        <time>2022-10-15T13:41:20.000Z</time>
      </trkpt>
      <trkpt lat="45.15434" lon="5.37159">
        <ele>225.3</ele>
        <time>2022-10-15T13:41:21.000Z</time>
      </trkpt>
      <trkpt lat="45.15432" lon="5.37153">
        <ele>225.2</ele>
        <time>2022-10-15T13:41:22.000Z</time>
      </trkpt>
      <trkpt lat="45.15431" lon="5.37147">
        <ele>225.1</ele>
        <time>2022-10-15T13:41:23.000Z</time>
      </trkpt>
      <trkpt lat="45.1543" lon="5.3714">
        <ele>225</ele>
        <time>2022-10-15T13:41:24.000Z</time>
      </trkpt>
      <trkpt lat="45.15429" lon="5.37134">
        <ele>225.1</ele>
        <time>2022-10-15T13:41:25.000Z</time>
      </trkpt>
      <trkpt lat="45.15428" lon="5.37129">
        <ele>225.2</ele>
        <time>2022-10-15T13:41:26.000Z</time>
      </trkpt>
      <trkpt lat="45.15425" lon="5.37123">
        <ele>225.4</ele>
        <time>2022-10-15T13:41:27.000Z</time>
      </trkpt>
      <trkpt lat="45.15422" lon="5.37118">
        <ele>225.6</ele>
        <time>2022-10-15T13:41:28.000Z</time>
      </trkpt>
      <trkpt lat="45.15419" lon="5.37114">
        <ele>225.8</ele>
        <time>2022-10-15T13:41:29.000Z</time>
      </trkpt>
      <trkpt lat="45.15415" lon="5.37112">
        <ele>225.9</ele>
        <time>2022-10-15T13:41:30.000Z</time>
      </trkpt>
      <trkpt lat="45.1541" lon="5.37109">
        <ele>225.8</ele>
        <time>2022-10-15T13:41:31.000Z</time>
      </trkpt>
      <trkpt lat="45.15406" lon="5.37107">
        <ele>225.6</ele>
        <time>2022-10-15T13:41:32.000Z</time>
      </trkpt>
      <trkpt lat="45.15402" lon="5.37104">
        <ele>225.5</ele>
        <time>2022-10-15T13:41:33.000Z</time>
      </trkpt>
      <trkpt lat="45.15398" lon="5.37102">
        <ele>225.3</ele>
        <time>2022-10-15T13:41:34.000Z</time>
      </trkpt>
      <trkpt lat="45.15394" lon="5.371">
        <ele>225.2</ele>
        <time>2022-10-15T13:41:35.000Z</time>
      </trkpt>
      <trkpt lat="45.15391" lon="5.37099">
        <ele>225.1</ele>
        <time>2022-10-15T13:41:36.000Z</time>
      </trkpt>
      <trkpt lat="45.15387" lon="5.37099">
        <ele>225</ele>
        <time>2022-10-15T13:41:37.000Z</time>
      </trkpt>
      <trkpt lat="45.15384" lon="5.37099">
        <ele>225.1</ele>
        <time>2022-10-15T13:41:38.000Z</time>
      </trkpt>
      <trkpt lat="45.15381" lon="5.37101">
        <ele>225.2</ele>
        <time>2022-10-15T13:41:39.000Z</time>
      </trkpt>
      <trkpt lat="45.15378" lon="5.37104">
        <ele>225.3</ele>
        <time>2022-10-15T13:41:40.000Z</time>
      </trkpt>
      <trkpt lat="45.15374" lon="5.37106">
        <ele>225.4</ele>
        <time>2022-10-15T13:41:41.000Z</time>
      </trkpt>
      <trkpt lat="45.1537" lon="5.37108">
        <ele>225.6</ele>
        <time>2022-10-15T13:41:42.000Z</time>
      </trkpt>
      <trkpt lat="45.15367" lon="5.37108">
        <ele>225.7</ele>
        <time>2022-10-15T13:41:43.000Z</time>
      </trkpt>
      <trkpt lat="45.15363" lon="5.37108">
        <ele>225.8</ele>
        <time>2022-10-15T13:41:44.000Z</time>
      </trkpt>
      <trkpt lat="45.15359" lon="5.37107">
        <ele>225.9</ele>
        <time>2022-10-15T13:41:45.000Z</time>
      </trkpt>
      <trkpt lat="45.15355" lon="5.37107">
        <ele>225.8</ele>
        <time>2022-10-15T13:41:46.000Z</time>
      </trkpt>
      <trkpt lat="45.15351" lon="5.37106">
        <ele>225.8</ele>
        <time>2022-10-15T13:41:47.000Z</time>
      </trkpt>
      <trkpt lat="45.15347" lon="5.37104">
        <ele>225.7</ele>
        <time>2022-10-15T13:41:48.000Z</time>
      </trkpt>
      <trkpt lat="45.15342" lon="5.37102">
        <ele>225.7</ele>
        <time>2022-10-15T13:41:49.000Z</time>
      </trkpt>
      <trkpt lat="45.15338" lon="5.371">
        <ele>225.6</ele>
        <time>2022-10-15T13:41:50.000Z</time>
      </trkpt>
      <trkpt lat="45.15333" lon="5.37097">
        <ele>225.5</ele>
        <time>2022-10-15T13:41:51.000Z</time>
      </trkpt>
      <trkpt lat="45.15328" lon="5.37095">
        <ele>225.5</ele>
        <time>2022-10-15T13:41:52.000Z</time>
      </trkpt>
      <trkpt lat="45.15324" lon="5.37091">
        <ele>225.5</ele>
        <time>2022-10-15T13:41:53.000Z</time>
      </trkpt>
      <trkpt lat="45.15319" lon="5.37087">
        <ele>225.6</ele>
        <time>2022-10-15T13:41:54.000Z</time>
      </trkpt>
      <trkpt lat="45.15315" lon="5.37083">
        <ele>225.6</ele>
        <time>2022-10-15T13:41:55.000Z</time>
      </trkpt>
      <trkpt lat="45.15312" lon="5.37079">
        <ele>225.5</ele>
        <time>2022-10-15T13:41:56.000Z</time>
      </trkpt>
      <trkpt lat="45.15308" lon="5.37075">
        <ele>225.4</ele>
        <time>2022-10-15T13:41:57.000Z</time>
      </trkpt>
      <trkpt lat="45.15303" lon="5.37072">
        <ele>225.3</ele>
        <time>2022-10-15T13:41:58.000Z</time>
      </trkpt>
      <trkpt lat="45.15299" lon="5.37068">
        <ele>225.4</ele>
        <time>2022-10-15T13:41:59.000Z</time>
      </trkpt>
      <trkpt lat="45.15296" lon="5.37065">
        <ele>225.5</ele>
        <time>2022-10-15T13:42:00.000Z</time>
      </trkpt>
      <trkpt lat="45.15293" lon="5.37062">
        <ele>225.6</ele>
        <time>2022-10-15T13:42:01.000Z</time>
      </trkpt>
      <trkpt lat="45.1529" lon="5.37059">
        <ele>225.8</ele>
        <time>2022-10-15T13:42:02.000Z</time>
      </trkpt>
      <trkpt lat="45.15286" lon="5.37055">
        <ele>226.1</ele>
        <time>2022-10-15T13:42:03.000Z</time>
      </trkpt>
      <trkpt lat="45.15283" lon="5.37052">
        <ele>226.1</ele>
        <time>2022-10-15T13:42:04.000Z</time>
      </trkpt>
      <trkpt lat="45.15279" lon="5.37049">
        <ele>226.2</ele>
        <time>2022-10-15T13:42:05.000Z</time>
      </trkpt>
      <trkpt lat="45.15277" lon="5.37047">
        <ele>226.1</ele>
        <time>2022-10-15T13:42:06.000Z</time>
      </trkpt>
      <trkpt lat="45.15274" lon="5.37044">
        <ele>225.8</ele>
        <time>2022-10-15T13:42:07.000Z</time>
      </trkpt>
      <trkpt lat="45.15271" lon="5.37041">
        <ele>225.6</ele>
        <time>2022-10-15T13:42:08.000Z</time>
      </trkpt>
      <trkpt lat="45.15269" lon="5.37038">
        <ele>225.5</ele>
        <time>2022-10-15T13:42:09.000Z</time>
      </trkpt>
      <trkpt lat="45.15266" lon="5.37035">
        <ele>225.4</ele>
        <time>2022-10-15T13:42:10.000Z</time>
      </trkpt>
      <trkpt lat="45.15263" lon="5.37033">
        <ele>225.4</ele>
        <time>2022-10-15T13:42:11.000Z</time>
      </trkpt>
      <trkpt lat="45.1526" lon="5.3703">
        <ele>225.4</ele>
        <time>2022-10-15T13:42:12.000Z</time>
      </trkpt>
      <trkpt lat="45.15257" lon="5.37027">
        <ele>225.5</ele>
        <time>2022-10-15T13:42:13.000Z</time>
      </trkpt>
      <trkpt lat="45.15254" lon="5.37024">
        <ele>225.5</ele>
        <time>2022-10-15T13:42:14.000Z</time>
      </trkpt>
      <trkpt lat="45.15251" lon="5.37019">
        <ele>225.3</ele>
        <time>2022-10-15T13:42:15.000Z</time>
      </trkpt>
      <trkpt lat="45.15246" lon="5.37014">
        <ele>225.1</ele>
        <time>2022-10-15T13:42:16.000Z</time>
      </trkpt>
      <trkpt lat="45.15242" lon="5.37009">
        <ele>225.1</ele>
        <time>2022-10-15T13:42:17.000Z</time>
      </trkpt>
      <trkpt lat="45.15237" lon="5.37005">
        <ele>225.1</ele>
        <time>2022-10-15T13:42:18.000Z</time>
      </trkpt>
      <trkpt lat="45.15233" lon="5.37001">
        <ele>225.3</ele>
        <time>2022-10-15T13:42:19.000Z</time>
      </trkpt>
      <trkpt lat="45.15229" lon="5.36998">
        <ele>225.4</ele>
        <time>2022-10-15T13:42:20.000Z</time>
      </trkpt>
      <trkpt lat="45.15225" lon="5.36994">
        <ele>225.4</ele>
        <time>2022-10-15T13:42:21.000Z</time>
      </trkpt>
      <trkpt lat="45.15221" lon="5.36991">
        <ele>225.3</ele>
        <time>2022-10-15T13:42:22.000Z</time>
      </trkpt>
      <trkpt lat="45.15218" lon="5.36987">
        <ele>225.2</ele>
        <time>2022-10-15T13:42:23.000Z</time>
      </trkpt>
      <trkpt lat="45.15216" lon="5.36984">
        <ele>225.1</ele>
        <time>2022-10-15T13:42:24.000Z</time>
      </trkpt>
      <trkpt lat="45.15214" lon="5.36982">
        <ele>225.1</ele>
        <time>2022-10-15T13:42:25.000Z</time>
      </trkpt>
      <trkpt lat="45.15211" lon="5.36979">
        <ele>225.1</ele>
        <time>2022-10-15T13:42:26.000Z</time>
      </trkpt>
      <trkpt lat="45.15209" lon="5.36976">
        <ele>225.1</ele>
        <time>2022-10-15T13:42:27.000Z</time>
      </trkpt>
      <trkpt lat="45.15206" lon="5.36973">
        <ele>225.2</ele>
        <time>2022-10-15T13:42:28.000Z</time>
      </trkpt>
      <trkpt lat="45.15203" lon="5.36971">
        <ele>225.3</ele>
        <time>2022-10-15T13:42:29.000Z</time>
      </trkpt>
      <trkpt lat="45.152" lon="5.36968">
        <ele>225.5</ele>
        <time>2022-10-15T13:42:30.000Z</time>
      </trkpt>
      <trkpt lat="45.15197" lon="5.36965">
        <ele>225.6</ele>
        <time>2022-10-15T13:42:31.000Z</time>
      </trkpt>
      <trkpt lat="45.15194" lon="5.36962">
        <ele>225.6</ele>
        <time>2022-10-15T13:42:32.000Z</time>
      </trkpt>
      <trkpt lat="45.15191" lon="5.36959">
        <ele>225.6</ele>
        <time>2022-10-15T13:42:33.000Z</time>
      </trkpt>
      <trkpt lat="45.15187" lon="5.36956">
        <ele>225.6</ele>
        <time>2022-10-15T13:42:34.000Z</time>
      </trkpt>
      <trkpt lat="45.15183" lon="5.36954">
        <ele>225.6</ele>
        <time>2022-10-15T13:42:35.000Z</time>
      </trkpt>
      <trkpt lat="45.15179" lon="5.36951">
        <ele>225.7</ele>
        <time>2022-10-15T13:42:36.000Z</time>
      </trkpt>
      <trkpt lat="45.15174" lon="5.36948">
        <ele>225.8</ele>
        <time>2022-10-15T13:42:37.000Z</time>
      </trkpt>
      <trkpt lat="45.1517" lon="5.36945">
        <ele>225.9</ele>
        <time>2022-10-15T13:42:38.000Z</time>
      </trkpt>
      <trkpt lat="45.15166" lon="5.36942">
        <ele>225.8</ele>
        <time>2022-10-15T13:42:39.000Z</time>
      </trkpt>
      <trkpt lat="45.15161" lon="5.36939">
        <ele>225.6</ele>
        <time>2022-10-15T13:42:40.000Z</time>
      </trkpt>
      <trkpt lat="45.15158" lon="5.36936">
        <ele>225.5</ele>
        <time>2022-10-15T13:42:41.000Z</time>
      </trkpt>
      <trkpt lat="45.15155" lon="5.36933">
        <ele>225.4</ele>
        <time>2022-10-15T13:42:42.000Z</time>
      </trkpt>
      <trkpt lat="45.15151" lon="5.36931">
        <ele>225.3</ele>
        <time>2022-10-15T13:42:43.000Z</time>
      </trkpt>
      <trkpt lat="45.15148" lon="5.36928">
        <ele>225.2</ele>
        <time>2022-10-15T13:42:44.000Z</time>
      </trkpt>
      <trkpt lat="45.15145" lon="5.36927">
        <ele>225.2</ele>
        <time>2022-10-15T13:42:45.000Z</time>
      </trkpt>
      <trkpt lat="45.15142" lon="5.36926">
        <ele>225.3</ele>
        <time>2022-10-15T13:42:46.000Z</time>
      </trkpt>
      <trkpt lat="45.15139" lon="5.36924">
        <ele>225.3</ele>
        <time>2022-10-15T13:42:47.000Z</time>
      </trkpt>
      <trkpt lat="45.15135" lon="5.36921">
        <ele>225.3</ele>
        <time>2022-10-15T13:42:48.000Z</time>
      </trkpt>
      <trkpt lat="45.1513" lon="5.36918">
        <ele>225.3</ele>
        <time>2022-10-15T13:42:49.000Z</time>
      </trkpt>
      <trkpt lat="45.15126" lon="5.36915">
        <ele>225.4</ele>
        <time>2022-10-15T13:42:50.000Z</time>
      </trkpt>
      <trkpt lat="45.15121" lon="5.36912">
        <ele>225.5</ele>
        <time>2022-10-15T13:42:51.000Z</time>
      </trkpt>
      <trkpt lat="45.15116" lon="5.36908">
        <ele>225.5</ele>
        <time>2022-10-15T13:42:52.000Z</time>
      </trkpt>
      <trkpt lat="45.15112" lon="5.36905">
        <ele>225.6</ele>
        <time>2022-10-15T13:42:53.000Z</time>
      </trkpt>
      <trkpt lat="45.15107" lon="5.36902">
        <ele>225.5</ele>
        <time>2022-10-15T13:42:54.000Z</time>
      </trkpt>
      <trkpt lat="45.15103" lon="5.36899">
        <ele>225.6</ele>
        <time>2022-10-15T13:42:55.000Z</time>
      </trkpt>
      <trkpt lat="45.15099" lon="5.36896">
        <ele>225.6</ele>
        <time>2022-10-15T13:42:56.000Z</time>
      </trkpt>
      <trkpt lat="45.15095" lon="5.36893">
        <ele>225.6</ele>
        <time>2022-10-15T13:42:57.000Z</time>
      </trkpt>
      <trkpt lat="45.15092" lon="5.3689">
        <ele>225.7</ele>
        <time>2022-10-15T13:42:58.000Z</time>
      </trkpt>
      <trkpt lat="45.15089" lon="5.36888">
        <ele>225.8</ele>
        <time>2022-10-15T13:42:59.000Z</time>
      </trkpt>
      <trkpt lat="45.15086" lon="5.36885">
        <ele>225.8</ele>
        <time>2022-10-15T13:43:00.000Z</time>
      </trkpt>
      <trkpt lat="45.15083" lon="5.36883">
        <ele>225.8</ele>
        <time>2022-10-15T13:43:01.000Z</time>
      </trkpt>
      <trkpt lat="45.15079" lon="5.3688">
        <ele>225.7</ele>
        <time>2022-10-15T13:43:02.000Z</time>
      </trkpt>
      <trkpt lat="45.15076" lon="5.36878">
        <ele>225.6</ele>
        <time>2022-10-15T13:43:03.000Z</time>
      </trkpt>
      <trkpt lat="45.15073" lon="5.36875">
        <ele>225.5</ele>
        <time>2022-10-15T13:43:04.000Z</time>
      </trkpt>
      <trkpt lat="45.15069" lon="5.36872">
        <ele>225.4</ele>
        <time>2022-10-15T13:43:05.000Z</time>
      </trkpt>
      <trkpt lat="45.15065" lon="5.36869">
        <ele>225.3</ele>
        <time>2022-10-15T13:43:06.000Z</time>
      </trkpt>
      <trkpt lat="45.1506" lon="5.36866">
        <ele>225.2</ele>
        <time>2022-10-15T13:43:07.000Z</time>
      </trkpt>
      <trkpt lat="45.15056" lon="5.36862">
        <ele>225</ele>
        <time>2022-10-15T13:43:08.000Z</time>
      </trkpt>
      <trkpt lat="45.15051" lon="5.36859">
        <ele>224.9</ele>
        <time>2022-10-15T13:43:09.000Z</time>
      </trkpt>
      <trkpt lat="45.15047" lon="5.36855">
        <ele>224.9</ele>
        <time>2022-10-15T13:43:10.000Z</time>
      </trkpt>
      <trkpt lat="45.15043" lon="5.36852">
        <ele>224.8</ele>
        <time>2022-10-15T13:43:11.000Z</time>
      </trkpt>
      <trkpt lat="45.15039" lon="5.36849">
        <ele>224.8</ele>
        <time>2022-10-15T13:43:12.000Z</time>
      </trkpt>
      <trkpt lat="45.15035" lon="5.36846">
        <ele>224.9</ele>
        <time>2022-10-15T13:43:13.000Z</time>
      </trkpt>
      <trkpt lat="45.1503" lon="5.36842">
        <ele>224.9</ele>
        <time>2022-10-15T13:43:14.000Z</time>
      </trkpt>
      <trkpt lat="45.15027" lon="5.36839">
        <ele>225</ele>
        <time>2022-10-15T13:43:15.000Z</time>
      </trkpt>
      <trkpt lat="45.15023" lon="5.36836">
        <ele>225</ele>
        <time>2022-10-15T13:43:16.000Z</time>
      </trkpt>
      <trkpt lat="45.15018" lon="5.36833">
        <ele>225</ele>
        <time>2022-10-15T13:43:17.000Z</time>
      </trkpt>
      <trkpt lat="45.15013" lon="5.3683">
        <ele>224.9</ele>
        <time>2022-10-15T13:43:18.000Z</time>
      </trkpt>
      <trkpt lat="45.15008" lon="5.36827">
        <ele>224.8</ele>
        <time>2022-10-15T13:43:19.000Z</time>
      </trkpt>
      <trkpt lat="45.15004" lon="5.36823">
        <ele>224.6</ele>
        <time>2022-10-15T13:43:20.000Z</time>
      </trkpt>
      <trkpt lat="45.15" lon="5.3682">
        <ele>224.5</ele>
        <time>2022-10-15T13:43:21.000Z</time>
      </trkpt>
      <trkpt lat="45.14995" lon="5.36817">
        <ele>224.5</ele>
        <time>2022-10-15T13:43:22.000Z</time>
      </trkpt>
      <trkpt lat="45.14992" lon="5.36815">
        <ele>224.5</ele>
        <time>2022-10-15T13:43:23.000Z</time>
      </trkpt>
      <trkpt lat="45.14989" lon="5.36812">
        <ele>224.5</ele>
        <time>2022-10-15T13:43:24.000Z</time>
      </trkpt>
      <trkpt lat="45.14986" lon="5.3681">
        <ele>224.6</ele>
        <time>2022-10-15T13:43:25.000Z</time>
      </trkpt>
      <trkpt lat="45.14984" lon="5.36807">
        <ele>224.6</ele>
        <time>2022-10-15T13:43:26.000Z</time>
      </trkpt>
      <trkpt lat="45.14982" lon="5.36805">
        <ele>224.7</ele>
        <time>2022-10-15T13:43:27.000Z</time>
      </trkpt>
      <trkpt lat="45.1498" lon="5.36803">
        <ele>224.7</ele>
        <time>2022-10-15T13:43:28.000Z</time>
      </trkpt>
      <trkpt lat="45.14977" lon="5.36802">
        <ele>224.7</ele>
        <time>2022-10-15T13:43:29.000Z</time>
      </trkpt>
      <trkpt lat="45.14975" lon="5.36799">
        <ele>224.7</ele>
        <time>2022-10-15T13:43:30.000Z</time>
      </trkpt>
      <trkpt lat="45.14973" lon="5.36796">
        <ele>224.6</ele>
        <time>2022-10-15T13:43:31.000Z</time>
      </trkpt>
      <trkpt lat="45.14965" lon="5.36789">
        <ele>224.5</ele>
        <time>2022-10-15T13:43:32.000Z</time>
      </trkpt>
      <trkpt lat="45.1496" lon="5.36783">
        <ele>224.5</ele>
        <time>2022-10-15T13:43:33.000Z</time>
      </trkpt>
      <trkpt lat="45.14957" lon="5.36779">
        <ele>224.6</ele>
        <time>2022-10-15T13:43:34.000Z</time>
      </trkpt>
      <trkpt lat="45.14955" lon="5.36779">
        <ele>224.6</ele>
        <time>2022-10-15T13:43:35.000Z</time>
      </trkpt>
      <trkpt lat="45.14953" lon="5.36777">
        <ele>224.7</ele>
        <time>2022-10-15T13:43:37.000Z</time>
      </trkpt>
      <trkpt lat="45.14951" lon="5.36778">
        <ele>224.8</ele>
        <time>2022-10-15T13:43:38.000Z</time>
      </trkpt>
      <trkpt lat="45.14949" lon="5.3678">
        <ele>224.8</ele>
        <time>2022-10-15T13:43:39.000Z</time>
      </trkpt>
      <trkpt lat="45.14946" lon="5.36783">
        <ele>224.8</ele>
        <time>2022-10-15T13:43:40.000Z</time>
      </trkpt>
      <trkpt lat="45.14942" lon="5.36786">
        <ele>224.7</ele>
        <time>2022-10-15T13:43:41.000Z</time>
      </trkpt>
      <trkpt lat="45.14939" lon="5.36789">
        <ele>224.6</ele>
        <time>2022-10-15T13:43:42.000Z</time>
      </trkpt>
      <trkpt lat="45.14936" lon="5.36791">
        <ele>224.5</ele>
        <time>2022-10-15T13:43:43.000Z</time>
      </trkpt>
      <trkpt lat="45.14933" lon="5.36793">
        <ele>224.5</ele>
        <time>2022-10-15T13:43:44.000Z</time>
      </trkpt>
      <trkpt lat="45.1493" lon="5.36796">
        <ele>224.5</ele>
        <time>2022-10-15T13:43:45.000Z</time>
      </trkpt>
      <trkpt lat="45.14928" lon="5.36799">
        <ele>224.5</ele>
        <time>2022-10-15T13:43:46.000Z</time>
      </trkpt>
      <trkpt lat="45.14926" lon="5.36804">
        <ele>224.6</ele>
        <time>2022-10-15T13:43:47.000Z</time>
      </trkpt>
      <trkpt lat="45.14925" lon="5.36809">
        <ele>224.7</ele>
        <time>2022-10-15T13:43:48.000Z</time>
      </trkpt>
      <trkpt lat="45.14923" lon="5.36813">
        <ele>224.8</ele>
        <time>2022-10-15T13:43:49.000Z</time>
      </trkpt>
      <trkpt lat="45.14921" lon="5.36816">
        <ele>224.9</ele>
        <time>2022-10-15T13:43:50.000Z</time>
      </trkpt>
      <trkpt lat="45.1492" lon="5.3682">
        <ele>225</ele>
        <time>2022-10-15T13:43:51.000Z</time>
      </trkpt>
      <trkpt lat="45.14918" lon="5.36824">
        <ele>225</ele>
        <time>2022-10-15T13:43:52.000Z</time>
      </trkpt>
      <trkpt lat="45.14916" lon="5.36828">
        <ele>225</ele>
        <time>2022-10-15T13:43:53.000Z</time>
      </trkpt>
      <trkpt lat="45.14915" lon="5.36832">
        <ele>225</ele>
        <time>2022-10-15T13:43:54.000Z</time>
      </trkpt>
      <trkpt lat="45.14913" lon="5.36836">
        <ele>225.1</ele>
        <time>2022-10-15T13:43:55.000Z</time>
      </trkpt>
      <trkpt lat="45.14912" lon="5.3684">
        <ele>225.2</ele>
        <time>2022-10-15T13:43:56.000Z</time>
      </trkpt>
      <trkpt lat="45.1491" lon="5.36845">
        <ele>225.4</ele>
        <time>2022-10-15T13:43:57.000Z</time>
      </trkpt>
      <trkpt lat="45.14909" lon="5.36848">
        <ele>225.5</ele>
        <time>2022-10-15T13:43:58.000Z</time>
      </trkpt>
      <trkpt lat="45.14908" lon="5.36852">
        <ele>225.7</ele>
        <time>2022-10-15T13:43:59.000Z</time>
      </trkpt>
      <trkpt lat="45.14906" lon="5.36857">
        <ele>225.8</ele>
        <time>2022-10-15T13:44:00.000Z</time>
      </trkpt>
      <trkpt lat="45.14906" lon="5.36861">
        <ele>226</ele>
        <time>2022-10-15T13:44:01.000Z</time>
      </trkpt>
      <trkpt lat="45.14904" lon="5.36865">
        <ele>226.1</ele>
        <time>2022-10-15T13:44:02.000Z</time>
      </trkpt>
      <trkpt lat="45.14903" lon="5.36868">
        <ele>226.1</ele>
        <time>2022-10-15T13:44:03.000Z</time>
      </trkpt>
      <trkpt lat="45.14902" lon="5.36871">
        <ele>226.2</ele>
        <time>2022-10-15T13:44:04.000Z</time>
      </trkpt>
      <trkpt lat="45.14901" lon="5.36875">
        <ele>226.3</ele>
        <time>2022-10-15T13:44:05.000Z</time>
      </trkpt>
      <trkpt lat="45.14901" lon="5.36879">
        <ele>226.4</ele>
        <time>2022-10-15T13:44:06.000Z</time>
      </trkpt>
      <trkpt lat="45.149" lon="5.36884">
        <ele>226.5</ele>
        <time>2022-10-15T13:44:07.000Z</time>
      </trkpt>
      <trkpt lat="45.14899" lon="5.36888">
        <ele>226.6</ele>
        <time>2022-10-15T13:44:08.000Z</time>
      </trkpt>
      <trkpt lat="45.14898" lon="5.36891">
        <ele>226.7</ele>
        <time>2022-10-15T13:44:09.000Z</time>
      </trkpt>
      <trkpt lat="45.14897" lon="5.36894">
        <ele>226.8</ele>
        <time>2022-10-15T13:44:10.000Z</time>
      </trkpt>
      <trkpt lat="45.14895" lon="5.36898">
        <ele>226.8</ele>
        <time>2022-10-15T13:44:11.000Z</time>
      </trkpt>
      <trkpt lat="45.14894" lon="5.36901">
        <ele>226.9</ele>
        <time>2022-10-15T13:44:12.000Z</time>
      </trkpt>
      <trkpt lat="45.14893" lon="5.36903">
        <ele>226.9</ele>
        <time>2022-10-15T13:44:13.000Z</time>
      </trkpt>
      <trkpt lat="45.14892" lon="5.36905">
        <ele>227</ele>
        <time>2022-10-15T13:44:14.000Z</time>
      </trkpt>
      <trkpt lat="45.14891" lon="5.36908">
        <ele>227</ele>
        <time>2022-10-15T13:44:15.000Z</time>
      </trkpt>
      <trkpt lat="45.14889" lon="5.36913">
        <ele>227</ele>
        <time>2022-10-15T13:44:17.000Z</time>
      </trkpt>
      <trkpt lat="45.14887" lon="5.36915">
        <ele>227</ele>
        <time>2022-10-15T13:44:18.000Z</time>
      </trkpt>
      <trkpt lat="45.14886" lon="5.36918">
        <ele>227</ele>
        <time>2022-10-15T13:44:19.000Z</time>
      </trkpt>
      <trkpt lat="45.14884" lon="5.36921">
        <ele>227</ele>
        <time>2022-10-15T13:44:20.000Z</time>
      </trkpt>
      <trkpt lat="45.14882" lon="5.36922">
        <ele>227</ele>
        <time>2022-10-15T13:44:21.000Z</time>
      </trkpt>
      <trkpt lat="45.1488" lon="5.36923">
        <ele>227.1</ele>
        <time>2022-10-15T13:44:22.000Z</time>
      </trkpt>
      <trkpt lat="45.14878" lon="5.36924">
        <ele>227.1</ele>
        <time>2022-10-15T13:44:23.000Z</time>
      </trkpt>
      <trkpt lat="45.14875" lon="5.36924">
        <ele>227.1</ele>
        <time>2022-10-15T13:44:24.000Z</time>
      </trkpt>
      <trkpt lat="45.14872" lon="5.36923">
        <ele>227.1</ele>
        <time>2022-10-15T13:44:25.000Z</time>
      </trkpt>
      <trkpt lat="45.14869" lon="5.36922">
        <ele>227.1</ele>
        <time>2022-10-15T13:44:26.000Z</time>
      </trkpt>
      <trkpt lat="45.14867" lon="5.36921">
        <ele>227.1</ele>
        <time>2022-10-15T13:44:27.000Z</time>
      </trkpt>
      <trkpt lat="45.14865" lon="5.36921">
        <ele>227.1</ele>
        <time>2022-10-15T13:44:28.000Z</time>
      </trkpt>
      <trkpt lat="45.14861" lon="5.3692">
        <ele>227.1</ele>
        <time>2022-10-15T13:44:30.000Z</time>
      </trkpt>
      <trkpt lat="45.14859" lon="5.36919">
        <ele>227.1</ele>
        <time>2022-10-15T13:44:31.000Z</time>
      </trkpt>
      <trkpt lat="45.14857" lon="5.36918">
        <ele>227.1</ele>
        <time>2022-10-15T13:44:32.000Z</time>
      </trkpt>
      <trkpt lat="45.14855" lon="5.36917">
        <ele>227</ele>
        <time>2022-10-15T13:44:33.000Z</time>
      </trkpt>
      <trkpt lat="45.14852" lon="5.36916">
        <ele>227</ele>
        <time>2022-10-15T13:44:34.000Z</time>
      </trkpt>
      <trkpt lat="45.1485" lon="5.36915">
        <ele>227</ele>
        <time>2022-10-15T13:44:35.000Z</time>
      </trkpt>
      <trkpt lat="45.14848" lon="5.36914">
        <ele>226.9</ele>
        <time>2022-10-15T13:44:36.000Z</time>
      </trkpt>
      <trkpt lat="45.14845" lon="5.36912">
        <ele>226.9</ele>
        <time>2022-10-15T13:44:37.000Z</time>
      </trkpt>
      <trkpt lat="45.14843" lon="5.36911">
        <ele>226.9</ele>
        <time>2022-10-15T13:44:38.000Z</time>
      </trkpt>
      <trkpt lat="45.1484" lon="5.3691">
        <ele>226.9</ele>
        <time>2022-10-15T13:44:39.000Z</time>
      </trkpt>
      <trkpt lat="45.14838" lon="5.36909">
        <ele>227</ele>
        <time>2022-10-15T13:44:40.000Z</time>
      </trkpt>
      <trkpt lat="45.14835" lon="5.36908">
        <ele>227</ele>
        <time>2022-10-15T13:44:41.000Z</time>
      </trkpt>
      <trkpt lat="45.14833" lon="5.36906">
        <ele>227</ele>
        <time>2022-10-15T13:44:42.000Z</time>
      </trkpt>
      <trkpt lat="45.14832" lon="5.36905">
        <ele>227</ele>
        <time>2022-10-15T13:44:43.000Z</time>
      </trkpt>
      <trkpt lat="45.1483" lon="5.36904">
        <ele>227</ele>
        <time>2022-10-15T13:44:44.000Z</time>
      </trkpt>
      <trkpt lat="45.14828" lon="5.36902">
        <ele>227</ele>
        <time>2022-10-15T13:44:45.000Z</time>
      </trkpt>
      <trkpt lat="45.14825" lon="5.369">
        <ele>227</ele>
        <time>2022-10-15T13:44:47.000Z</time>
      </trkpt>
      <trkpt lat="45.14822" lon="5.36897">
        <ele>227</ele>
        <time>2022-10-15T13:44:49.000Z</time>
      </trkpt>
      <trkpt lat="45.1482" lon="5.36895">
        <ele>227</ele>
        <time>2022-10-15T13:44:50.000Z</time>
      </trkpt>
      <trkpt lat="45.14818" lon="5.36894">
        <ele>227</ele>
        <time>2022-10-15T13:44:51.000Z</time>
      </trkpt>
      <trkpt lat="45.14816" lon="5.36891">
        <ele>227</ele>
        <time>2022-10-15T13:44:52.000Z</time>
      </trkpt>
      <trkpt lat="45.14814" lon="5.36888">
        <ele>227</ele>
        <time>2022-10-15T13:44:53.000Z</time>
      </trkpt>
      <trkpt lat="45.14812" lon="5.36886">
        <ele>227</ele>
        <time>2022-10-15T13:44:54.000Z</time>
      </trkpt>
      <trkpt lat="45.14809" lon="5.36885">
        <ele>227</ele>
        <time>2022-10-15T13:44:55.000Z</time>
      </trkpt>
      <trkpt lat="45.14807" lon="5.36883">
        <ele>227</ele>
        <time>2022-10-15T13:44:56.000Z</time>
      </trkpt>
      <trkpt lat="45.14804" lon="5.36882">
        <ele>227</ele>
        <time>2022-10-15T13:44:57.000Z</time>
      </trkpt>
      <trkpt lat="45.14802" lon="5.3688">
        <ele>227</ele>
        <time>2022-10-15T13:44:58.000Z</time>
      </trkpt>
      <trkpt lat="45.148" lon="5.36879">
        <ele>227</ele>
        <time>2022-10-15T13:44:59.000Z</time>
      </trkpt>
      <trkpt lat="45.14798" lon="5.36877">
        <ele>227</ele>
        <time>2022-10-15T13:45:00.000Z</time>
      </trkpt>
      <trkpt lat="45.14796" lon="5.36876">
        <ele>227</ele>
        <time>2022-10-15T13:45:01.000Z</time>
      </trkpt>
      <trkpt lat="45.14794" lon="5.36874">
        <ele>227</ele>
        <time>2022-10-15T13:45:02.000Z</time>
      </trkpt>
      <trkpt lat="45.14791" lon="5.36872">
        <ele>227</ele>
        <time>2022-10-15T13:45:03.000Z</time>
      </trkpt>
      <trkpt lat="45.14789" lon="5.36871">
        <ele>227</ele>
        <time>2022-10-15T13:45:04.000Z</time>
      </trkpt>
      <trkpt lat="45.14786" lon="5.3687">
        <ele>227</ele>
        <time>2022-10-15T13:45:05.000Z</time>
      </trkpt>
      <trkpt lat="45.14783" lon="5.36868">
        <ele>227</ele>
        <time>2022-10-15T13:45:06.000Z</time>
      </trkpt>
      <trkpt lat="45.14779" lon="5.36867">
        <ele>227</ele>
        <time>2022-10-15T13:45:07.000Z</time>
      </trkpt>
      <trkpt lat="45.14776" lon="5.36867">
        <ele>227</ele>
        <time>2022-10-15T13:45:08.000Z</time>
      </trkpt>
      <trkpt lat="45.14773" lon="5.36865">
        <ele>227</ele>
        <time>2022-10-15T13:45:09.000Z</time>
      </trkpt>
      <trkpt lat="45.1477" lon="5.36864">
        <ele>227</ele>
        <time>2022-10-15T13:45:10.000Z</time>
      </trkpt>
      <trkpt lat="45.14766" lon="5.36864">
        <ele>227</ele>
        <time>2022-10-15T13:45:11.000Z</time>
      </trkpt>
      <trkpt lat="45.14763" lon="5.36863">
        <ele>227</ele>
        <time>2022-10-15T13:45:12.000Z</time>
      </trkpt>
      <trkpt lat="45.1476" lon="5.36863">
        <ele>227</ele>
        <time>2022-10-15T13:45:13.000Z</time>
      </trkpt>
      <trkpt lat="45.14756" lon="5.36863">
        <ele>227</ele>
        <time>2022-10-15T13:45:14.000Z</time>
      </trkpt>
      <trkpt lat="45.14753" lon="5.36863">
        <ele>227.1</ele>
        <time>2022-10-15T13:45:15.000Z</time>
      </trkpt>
      <trkpt lat="45.1475" lon="5.36863">
        <ele>227.1</ele>
        <time>2022-10-15T13:45:16.000Z</time>
      </trkpt>
      <trkpt lat="45.14747" lon="5.36862">
        <ele>227</ele>
        <time>2022-10-15T13:45:17.000Z</time>
      </trkpt>
      <trkpt lat="45.14744" lon="5.36861">
        <ele>227</ele>
        <time>2022-10-15T13:45:18.000Z</time>
      </trkpt>
      <trkpt lat="45.1474" lon="5.3686">
        <ele>227</ele>
        <time>2022-10-15T13:45:19.000Z</time>
      </trkpt>
      <trkpt lat="45.14735" lon="5.36858">
        <ele>226.9</ele>
        <time>2022-10-15T13:45:20.000Z</time>
      </trkpt>
      <trkpt lat="45.14732" lon="5.36855">
        <ele>226.9</ele>
        <time>2022-10-15T13:45:21.000Z</time>
      </trkpt>
      <trkpt lat="45.14728" lon="5.36851">
        <ele>226.9</ele>
        <time>2022-10-15T13:45:22.000Z</time>
      </trkpt>
      <trkpt lat="45.14723" lon="5.36847">
        <ele>227</ele>
        <time>2022-10-15T13:45:23.000Z</time>
      </trkpt>
      <trkpt lat="45.14717" lon="5.36841">
        <ele>227</ele>
        <time>2022-10-15T13:45:24.000Z</time>
      </trkpt>
      <trkpt lat="45.14712" lon="5.36836">
        <ele>227</ele>
        <time>2022-10-15T13:45:25.000Z</time>
      </trkpt>
      <trkpt lat="45.14706" lon="5.36832">
        <ele>226.9</ele>
        <time>2022-10-15T13:45:26.000Z</time>
      </trkpt>
      <trkpt lat="45.147" lon="5.36829">
        <ele>226.8</ele>
        <time>2022-10-15T13:45:27.000Z</time>
      </trkpt>
      <trkpt lat="45.14695" lon="5.36825">
        <ele>226.7</ele>
        <time>2022-10-15T13:45:28.000Z</time>
      </trkpt>
      <trkpt lat="45.14691" lon="5.36821">
        <ele>226.6</ele>
        <time>2022-10-15T13:45:29.000Z</time>
      </trkpt>
      <trkpt lat="45.14687" lon="5.36818">
        <ele>226.4</ele>
        <time>2022-10-15T13:45:30.000Z</time>
      </trkpt>
      <trkpt lat="45.14683" lon="5.36815">
        <ele>226.3</ele>
        <time>2022-10-15T13:45:31.000Z</time>
      </trkpt>
      <trkpt lat="45.14679" lon="5.36812">
        <ele>226.2</ele>
        <time>2022-10-15T13:45:32.000Z</time>
      </trkpt>
      <trkpt lat="45.14676" lon="5.36809">
        <ele>226.1</ele>
        <time>2022-10-15T13:45:33.000Z</time>
      </trkpt>
      <trkpt lat="45.14672" lon="5.36805">
        <ele>226</ele>
        <time>2022-10-15T13:45:34.000Z</time>
      </trkpt>
      <trkpt lat="45.14668" lon="5.36802">
        <ele>226</ele>
        <time>2022-10-15T13:45:35.000Z</time>
      </trkpt>
      <trkpt lat="45.14664" lon="5.36799">
        <ele>226</ele>
        <time>2022-10-15T13:45:36.000Z</time>
      </trkpt>
      <trkpt lat="45.1466" lon="5.36795">
        <ele>226</ele>
        <time>2022-10-15T13:45:37.000Z</time>
      </trkpt>
      <trkpt lat="45.14656" lon="5.36791">
        <ele>226</ele>
        <time>2022-10-15T13:45:38.000Z</time>
      </trkpt>
      <trkpt lat="45.14652" lon="5.36788">
        <ele>226</ele>
        <time>2022-10-15T13:45:39.000Z</time>
      </trkpt>
      <trkpt lat="45.14648" lon="5.36784">
        <ele>226</ele>
        <time>2022-10-15T13:45:40.000Z</time>
      </trkpt>
      <trkpt lat="45.14643" lon="5.3678">
        <ele>226</ele>
        <time>2022-10-15T13:45:41.000Z</time>
      </trkpt>
      <trkpt lat="45.14639" lon="5.36776">
        <ele>226</ele>
        <time>2022-10-15T13:45:42.000Z</time>
      </trkpt>
      <trkpt lat="45.14634" lon="5.36772">
        <ele>226</ele>
        <time>2022-10-15T13:45:43.000Z</time>
      </trkpt>
      <trkpt lat="45.1463" lon="5.36769">
        <ele>225.9</ele>
        <time>2022-10-15T13:45:44.000Z</time>
      </trkpt>
      <trkpt lat="45.14625" lon="5.36765">
        <ele>225.8</ele>
        <time>2022-10-15T13:45:45.000Z</time>
      </trkpt>
      <trkpt lat="45.1462" lon="5.36761">
        <ele>225.6</ele>
        <time>2022-10-15T13:45:46.000Z</time>
      </trkpt>
      <trkpt lat="45.14615" lon="5.36759">
        <ele>225.4</ele>
        <time>2022-10-15T13:45:47.000Z</time>
      </trkpt>
      <trkpt lat="45.1461" lon="5.36756">
        <ele>225.2</ele>
        <time>2022-10-15T13:45:48.000Z</time>
      </trkpt>
      <trkpt lat="45.14606" lon="5.36752">
        <ele>225.1</ele>
        <time>2022-10-15T13:45:49.000Z</time>
      </trkpt>
      <trkpt lat="45.14601" lon="5.36749">
        <ele>225</ele>
        <time>2022-10-15T13:45:50.000Z</time>
      </trkpt>
      <trkpt lat="45.14595" lon="5.36745">
        <ele>225</ele>
        <time>2022-10-15T13:45:51.000Z</time>
      </trkpt>
      <trkpt lat="45.14591" lon="5.36741">
        <ele>225</ele>
        <time>2022-10-15T13:45:52.000Z</time>
      </trkpt>
      <trkpt lat="45.14586" lon="5.36738">
        <ele>225</ele>
        <time>2022-10-15T13:45:53.000Z</time>
      </trkpt>
      <trkpt lat="45.14581" lon="5.36734">
        <ele>225</ele>
        <time>2022-10-15T13:45:54.000Z</time>
      </trkpt>
      <trkpt lat="45.14577" lon="5.36731">
        <ele>225</ele>
        <time>2022-10-15T13:45:55.000Z</time>
      </trkpt>
      <trkpt lat="45.14573" lon="5.36729">
        <ele>225</ele>
        <time>2022-10-15T13:45:56.000Z</time>
      </trkpt>
      <trkpt lat="45.14569" lon="5.36726">
        <ele>225</ele>
        <time>2022-10-15T13:45:57.000Z</time>
      </trkpt>
      <trkpt lat="45.14565" lon="5.36724">
        <ele>225</ele>
        <time>2022-10-15T13:45:58.000Z</time>
      </trkpt>
      <trkpt lat="45.14561" lon="5.36721">
        <ele>225</ele>
        <time>2022-10-15T13:45:59.000Z</time>
      </trkpt>
      <trkpt lat="45.14557" lon="5.36719">
        <ele>225</ele>
        <time>2022-10-15T13:46:00.000Z</time>
      </trkpt>
      <trkpt lat="45.14552" lon="5.36717">
        <ele>225</ele>
        <time>2022-10-15T13:46:01.000Z</time>
      </trkpt>
      <trkpt lat="45.14548" lon="5.36715">
        <ele>225</ele>
        <time>2022-10-15T13:46:02.000Z</time>
      </trkpt>
      <trkpt lat="45.14543" lon="5.36713">
        <ele>225</ele>
        <time>2022-10-15T13:46:03.000Z</time>
      </trkpt>
      <trkpt lat="45.14538" lon="5.36711">
        <ele>225</ele>
        <time>2022-10-15T13:46:04.000Z</time>
      </trkpt>
      <trkpt lat="45.14532" lon="5.3671">
        <ele>225</ele>
        <time>2022-10-15T13:46:05.000Z</time>
      </trkpt>
      <trkpt lat="45.14527" lon="5.36709">
        <ele>225</ele>
        <time>2022-10-15T13:46:06.000Z</time>
      </trkpt>
      <trkpt lat="45.14521" lon="5.36708">
        <ele>225</ele>
        <time>2022-10-15T13:46:07.000Z</time>
      </trkpt>
      <trkpt lat="45.14516" lon="5.36708">
        <ele>225</ele>
        <time>2022-10-15T13:46:08.000Z</time>
      </trkpt>
      <trkpt lat="45.14511" lon="5.36709">
        <ele>225</ele>
        <time>2022-10-15T13:46:09.000Z</time>
      </trkpt>
      <trkpt lat="45.14506" lon="5.3671">
        <ele>225</ele>
        <time>2022-10-15T13:46:10.000Z</time>
      </trkpt>
      <trkpt lat="45.14501" lon="5.36712">
        <ele>225</ele>
        <time>2022-10-15T13:46:11.000Z</time>
      </trkpt>
      <trkpt lat="45.14497" lon="5.36714">
        <ele>225</ele>
        <time>2022-10-15T13:46:12.000Z</time>
      </trkpt>
      <trkpt lat="45.14492" lon="5.36716">
        <ele>225</ele>
        <time>2022-10-15T13:46:13.000Z</time>
      </trkpt>
      <trkpt lat="45.14486" lon="5.36718">
        <ele>225</ele>
        <time>2022-10-15T13:46:14.000Z</time>
      </trkpt>
      <trkpt lat="45.14481" lon="5.3672">
        <ele>225</ele>
        <time>2022-10-15T13:46:15.000Z</time>
      </trkpt>
      <trkpt lat="45.14476" lon="5.36721">
        <ele>225</ele>
        <time>2022-10-15T13:46:16.000Z</time>
      </trkpt>
      <trkpt lat="45.14471" lon="5.36722">
        <ele>225</ele>
        <time>2022-10-15T13:46:17.000Z</time>
      </trkpt>
      <trkpt lat="45.14467" lon="5.36723">
        <ele>225</ele>
        <time>2022-10-15T13:46:18.000Z</time>
      </trkpt>
      <trkpt lat="45.14462" lon="5.36723">
        <ele>225</ele>
        <time>2022-10-15T13:46:19.000Z</time>
      </trkpt>
      <trkpt lat="45.14457" lon="5.36722">
        <ele>225</ele>
        <time>2022-10-15T13:46:20.000Z</time>
      </trkpt>
      <trkpt lat="45.14452" lon="5.3672">
        <ele>225</ele>
        <time>2022-10-15T13:46:21.000Z</time>
      </trkpt>
      <trkpt lat="45.14447" lon="5.36718">
        <ele>225</ele>
        <time>2022-10-15T13:46:22.000Z</time>
      </trkpt>
      <trkpt lat="45.14442" lon="5.36716">
        <ele>225</ele>
        <time>2022-10-15T13:46:23.000Z</time>
      </trkpt>
      <trkpt lat="45.14437" lon="5.36714">
        <ele>225</ele>
        <time>2022-10-15T13:46:24.000Z</time>
      </trkpt>
      <trkpt lat="45.14433" lon="5.36713">
        <ele>225</ele>
        <time>2022-10-15T13:46:25.000Z</time>
      </trkpt>
      <trkpt lat="45.14428" lon="5.36712">
        <ele>225</ele>
        <time>2022-10-15T13:46:26.000Z</time>
      </trkpt>
      <trkpt lat="45.14423" lon="5.36711">
        <ele>225</ele>
        <time>2022-10-15T13:46:27.000Z</time>
      </trkpt>
      <trkpt lat="45.14418" lon="5.3671">
        <ele>225</ele>
        <time>2022-10-15T13:46:28.000Z</time>
      </trkpt>
      <trkpt lat="45.14413" lon="5.36709">
        <ele>225</ele>
        <time>2022-10-15T13:46:29.000Z</time>
      </trkpt>
      <trkpt lat="45.14408" lon="5.36709">
        <ele>225</ele>
        <time>2022-10-15T13:46:30.000Z</time>
      </trkpt>
      <trkpt lat="45.14403" lon="5.36708">
        <ele>225</ele>
        <time>2022-10-15T13:46:31.000Z</time>
      </trkpt>
      <trkpt lat="45.14398" lon="5.36708">
        <ele>225</ele>
        <time>2022-10-15T13:46:32.000Z</time>
      </trkpt>
      <trkpt lat="45.14393" lon="5.36708">
        <ele>225</ele>
        <time>2022-10-15T13:46:33.000Z</time>
      </trkpt>
      <trkpt lat="45.14388" lon="5.36708">
        <ele>225</ele>
        <time>2022-10-15T13:46:34.000Z</time>
      </trkpt>
      <trkpt lat="45.14384" lon="5.36707">
        <ele>225</ele>
        <time>2022-10-15T13:46:35.000Z</time>
      </trkpt>
      <trkpt lat="45.14379" lon="5.36706">
        <ele>225</ele>
        <time>2022-10-15T13:46:36.000Z</time>
      </trkpt>
      <trkpt lat="45.14375" lon="5.36707">
        <ele>225</ele>
        <time>2022-10-15T13:46:37.000Z</time>
      </trkpt>
      <trkpt lat="45.14371" lon="5.36707">
        <ele>225</ele>
        <time>2022-10-15T13:46:38.000Z</time>
      </trkpt>
      <trkpt lat="45.14366" lon="5.36706">
        <ele>225</ele>
        <time>2022-10-15T13:46:39.000Z</time>
      </trkpt>
      <trkpt lat="45.14362" lon="5.36705">
        <ele>225</ele>
        <time>2022-10-15T13:46:40.000Z</time>
      </trkpt>
      <trkpt lat="45.14357" lon="5.36705">
        <ele>224.9</ele>
        <time>2022-10-15T13:46:41.000Z</time>
      </trkpt>
      <trkpt lat="45.14353" lon="5.36703">
        <ele>224.9</ele>
        <time>2022-10-15T13:46:42.000Z</time>
      </trkpt>
      <trkpt lat="45.1435" lon="5.36702">
        <ele>224.9</ele>
        <time>2022-10-15T13:46:43.000Z</time>
      </trkpt>
      <trkpt lat="45.14346" lon="5.36701">
        <ele>224.9</ele>
        <time>2022-10-15T13:46:44.000Z</time>
      </trkpt>
      <trkpt lat="45.14342" lon="5.367">
        <ele>224.9</ele>
        <time>2022-10-15T13:46:45.000Z</time>
      </trkpt>
      <trkpt lat="45.14337" lon="5.36698">
        <ele>224.9</ele>
        <time>2022-10-15T13:46:46.000Z</time>
      </trkpt>
      <trkpt lat="45.14333" lon="5.36697">
        <ele>224.9</ele>
        <time>2022-10-15T13:46:47.000Z</time>
      </trkpt>
      <trkpt lat="45.14329" lon="5.36695">
        <ele>225</ele>
        <time>2022-10-15T13:46:48.000Z</time>
      </trkpt>
      <trkpt lat="45.14324" lon="5.36693">
        <ele>225</ele>
        <time>2022-10-15T13:46:49.000Z</time>
      </trkpt>
      <trkpt lat="45.14321" lon="5.36692">
        <ele>225</ele>
        <time>2022-10-15T13:46:50.000Z</time>
      </trkpt>
      <trkpt lat="45.14317" lon="5.3669">
        <ele>225</ele>
        <time>2022-10-15T13:46:51.000Z</time>
      </trkpt>
      <trkpt lat="45.1431" lon="5.36687">
        <ele>225</ele>
        <time>2022-10-15T13:46:53.000Z</time>
      </trkpt>
      <trkpt lat="45.14306" lon="5.36687">
        <ele>225</ele>
        <time>2022-10-15T13:46:54.000Z</time>
      </trkpt>
      <trkpt lat="45.14302" lon="5.36687">
        <ele>224.9</ele>
        <time>2022-10-15T13:46:55.000Z</time>
      </trkpt>
      <trkpt lat="45.14297" lon="5.36688">
        <ele>224.7</ele>
        <time>2022-10-15T13:46:56.000Z</time>
      </trkpt>
      <trkpt lat="45.14293" lon="5.36688">
        <ele>224.5</ele>
        <time>2022-10-15T13:46:57.000Z</time>
      </trkpt>
      <trkpt lat="45.14288" lon="5.36687">
        <ele>224.4</ele>
        <time>2022-10-15T13:46:58.000Z</time>
      </trkpt>
      <trkpt lat="45.14284" lon="5.36686">
        <ele>224.2</ele>
        <time>2022-10-15T13:46:59.000Z</time>
      </trkpt>
      <trkpt lat="45.14279" lon="5.36684">
        <ele>224.1</ele>
        <time>2022-10-15T13:47:00.000Z</time>
      </trkpt>
      <trkpt lat="45.14275" lon="5.36683">
        <ele>224</ele>
        <time>2022-10-15T13:47:01.000Z</time>
      </trkpt>
      <trkpt lat="45.1427" lon="5.36681">
        <ele>224</ele>
        <time>2022-10-15T13:47:02.000Z</time>
      </trkpt>
      <trkpt lat="45.14265" lon="5.36678">
        <ele>224</ele>
        <time>2022-10-15T13:47:03.000Z</time>
      </trkpt>
      <trkpt lat="45.14261" lon="5.36676">
        <ele>224</ele>
        <time>2022-10-15T13:47:04.000Z</time>
      </trkpt>
      <trkpt lat="45.14256" lon="5.36673">
        <ele>224</ele>
        <time>2022-10-15T13:47:05.000Z</time>
      </trkpt>
      <trkpt lat="45.14252" lon="5.36671">
        <ele>224</ele>
        <time>2022-10-15T13:47:06.000Z</time>
      </trkpt>
      <trkpt lat="45.14247" lon="5.36669">
        <ele>224</ele>
        <time>2022-10-15T13:47:07.000Z</time>
      </trkpt>
      <trkpt lat="45.14243" lon="5.36666">
        <ele>224</ele>
        <time>2022-10-15T13:47:08.000Z</time>
      </trkpt>
      <trkpt lat="45.14238" lon="5.36665">
        <ele>224</ele>
        <time>2022-10-15T13:47:09.000Z</time>
      </trkpt>
      <trkpt lat="45.14233" lon="5.36663">
        <ele>224</ele>
        <time>2022-10-15T13:47:10.000Z</time>
      </trkpt>
      <trkpt lat="45.14228" lon="5.3666">
        <ele>224</ele>
        <time>2022-10-15T13:47:11.000Z</time>
      </trkpt>
      <trkpt lat="45.14222" lon="5.36658">
        <ele>224</ele>
        <time>2022-10-15T13:47:12.000Z</time>
      </trkpt>
      <trkpt lat="45.14217" lon="5.36657">
        <ele>223.9</ele>
        <time>2022-10-15T13:47:13.000Z</time>
      </trkpt>
      <trkpt lat="45.14211" lon="5.36656">
        <ele>223.8</ele>
        <time>2022-10-15T13:47:14.000Z</time>
      </trkpt>
      <trkpt lat="45.14206" lon="5.36654">
        <ele>223.7</ele>
        <time>2022-10-15T13:47:15.000Z</time>
      </trkpt>
      <trkpt lat="45.14201" lon="5.36653">
        <ele>223.6</ele>
        <time>2022-10-15T13:47:16.000Z</time>
      </trkpt>
      <trkpt lat="45.14196" lon="5.36652">
        <ele>223.5</ele>
        <time>2022-10-15T13:47:17.000Z</time>
      </trkpt>
      <trkpt lat="45.1419" lon="5.36652">
        <ele>223.4</ele>
        <time>2022-10-15T13:47:18.000Z</time>
      </trkpt>
      <trkpt lat="45.14185" lon="5.36652">
        <ele>223.4</ele>
        <time>2022-10-15T13:47:19.000Z</time>
      </trkpt>
      <trkpt lat="45.14183" lon="5.36653">
        <ele>223.3</ele>
        <time>2022-10-15T13:47:20.000Z</time>
      </trkpt>
      <trkpt lat="45.1418" lon="5.36653">
        <ele>223.2</ele>
        <time>2022-10-15T13:47:22.000Z</time>
      </trkpt>
      <trkpt lat="45.14176" lon="5.36652">
        <ele>223.2</ele>
        <time>2022-10-15T13:47:24.000Z</time>
      </trkpt>
      <trkpt lat="45.14173" lon="5.36652">
        <ele>223.1</ele>
        <time>2022-10-15T13:47:25.000Z</time>
      </trkpt>
      <trkpt lat="45.14171" lon="5.36653">
        <ele>223.1</ele>
        <time>2022-10-15T13:47:26.000Z</time>
      </trkpt>
      <trkpt lat="45.14168" lon="5.36653">
        <ele>223</ele>
        <time>2022-10-15T13:47:27.000Z</time>
      </trkpt>
      <trkpt lat="45.14163" lon="5.36653">
        <ele>223</ele>
        <time>2022-10-15T13:47:28.000Z</time>
      </trkpt>
      <trkpt lat="45.14159" lon="5.36653">
        <ele>223</ele>
        <time>2022-10-15T13:47:29.000Z</time>
      </trkpt>
      <trkpt lat="45.14154" lon="5.36654">
        <ele>223</ele>
        <time>2022-10-15T13:47:30.000Z</time>
      </trkpt>
      <trkpt lat="45.14149" lon="5.36655">
        <ele>223</ele>
        <time>2022-10-15T13:47:31.000Z</time>
      </trkpt>
      <trkpt lat="45.14144" lon="5.36656">
        <ele>223</ele>
        <time>2022-10-15T13:47:32.000Z</time>
      </trkpt>
      <trkpt lat="45.1414" lon="5.36656">
        <ele>223</ele>
        <time>2022-10-15T13:47:33.000Z</time>
      </trkpt>
      <trkpt lat="45.14135" lon="5.36657">
        <ele>222.9</ele>
        <time>2022-10-15T13:47:34.000Z</time>
      </trkpt>
      <trkpt lat="45.14131" lon="5.36658">
        <ele>222.7</ele>
        <time>2022-10-15T13:47:35.000Z</time>
      </trkpt>
      <trkpt lat="45.14126" lon="5.36657">
        <ele>222.5</ele>
        <time>2022-10-15T13:47:36.000Z</time>
      </trkpt>
      <trkpt lat="45.14122" lon="5.36655">
        <ele>222.4</ele>
        <time>2022-10-15T13:47:37.000Z</time>
      </trkpt>
      <trkpt lat="45.14118" lon="5.36653">
        <ele>222.2</ele>
        <time>2022-10-15T13:47:38.000Z</time>
      </trkpt>
      <trkpt lat="45.14114" lon="5.3665">
        <ele>222.1</ele>
        <time>2022-10-15T13:47:39.000Z</time>
      </trkpt>
      <trkpt lat="45.14109" lon="5.36647">
        <ele>221.9</ele>
        <time>2022-10-15T13:47:40.000Z</time>
      </trkpt>
      <trkpt lat="45.14105" lon="5.36644">
        <ele>221.8</ele>
        <time>2022-10-15T13:47:41.000Z</time>
      </trkpt>
      <trkpt lat="45.14101" lon="5.36641">
        <ele>221.6</ele>
        <time>2022-10-15T13:47:42.000Z</time>
      </trkpt>
      <trkpt lat="45.14096" lon="5.36638">
        <ele>221.5</ele>
        <time>2022-10-15T13:47:43.000Z</time>
      </trkpt>
      <trkpt lat="45.14092" lon="5.36636">
        <ele>221.3</ele>
        <time>2022-10-15T13:47:44.000Z</time>
      </trkpt>
      <trkpt lat="45.14087" lon="5.36633">
        <ele>221.1</ele>
        <time>2022-10-15T13:47:45.000Z</time>
      </trkpt>
      <trkpt lat="45.14081" lon="5.36631">
        <ele>220.8</ele>
        <time>2022-10-15T13:47:46.000Z</time>
      </trkpt>
      <trkpt lat="45.14076" lon="5.3663">
        <ele>220.2</ele>
        <time>2022-10-15T13:47:47.000Z</time>
      </trkpt>
      <trkpt lat="45.14069" lon="5.36629">
        <ele>219.5</ele>
        <time>2022-10-15T13:47:48.000Z</time>
      </trkpt>
      <trkpt lat="45.14063" lon="5.36627">
        <ele>219</ele>
        <time>2022-10-15T13:47:49.000Z</time>
      </trkpt>
      <trkpt lat="45.14056" lon="5.36625">
        <ele>218.5</ele>
        <time>2022-10-15T13:47:50.000Z</time>
      </trkpt>
      <trkpt lat="45.14049" lon="5.36624">
        <ele>218</ele>
        <time>2022-10-15T13:47:51.000Z</time>
      </trkpt>
      <trkpt lat="45.14041" lon="5.36622">
        <ele>217.4</ele>
        <time>2022-10-15T13:47:52.000Z</time>
      </trkpt>
      <trkpt lat="45.14033" lon="5.3662">
        <ele>216.6</ele>
        <time>2022-10-15T13:47:53.000Z</time>
      </trkpt>
      <trkpt lat="45.14025" lon="5.36619">
        <ele>215.9</ele>
        <time>2022-10-15T13:47:54.000Z</time>
      </trkpt>
      <trkpt lat="45.14017" lon="5.36619">
        <ele>215.7</ele>
        <time>2022-10-15T13:47:55.000Z</time>
      </trkpt>
      <trkpt lat="45.14009" lon="5.36619">
        <ele>215.5</ele>
        <time>2022-10-15T13:47:56.000Z</time>
      </trkpt>
      <trkpt lat="45.14001" lon="5.36618">
        <ele>215.3</ele>
        <time>2022-10-15T13:47:57.000Z</time>
      </trkpt>
      <trkpt lat="45.13994" lon="5.36618">
        <ele>215.2</ele>
        <time>2022-10-15T13:47:58.000Z</time>
      </trkpt>
      <trkpt lat="45.13987" lon="5.36618">
        <ele>215.2</ele>
        <time>2022-10-15T13:47:59.000Z</time>
      </trkpt>
      <trkpt lat="45.1398" lon="5.36617">
        <ele>215.2</ele>
        <time>2022-10-15T13:48:00.000Z</time>
      </trkpt>
      <trkpt lat="45.13973" lon="5.36616">
        <ele>215.2</ele>
        <time>2022-10-15T13:48:01.000Z</time>
      </trkpt>
      <trkpt lat="45.13966" lon="5.36615">
        <ele>215.3</ele>
        <time>2022-10-15T13:48:02.000Z</time>
      </trkpt>
      <trkpt lat="45.1396" lon="5.36613">
        <ele>215.5</ele>
        <time>2022-10-15T13:48:03.000Z</time>
      </trkpt>
      <trkpt lat="45.13954" lon="5.36612">
        <ele>215.7</ele>
        <time>2022-10-15T13:48:04.000Z</time>
      </trkpt>
      <trkpt lat="45.13949" lon="5.3661">
        <ele>215.7</ele>
        <time>2022-10-15T13:48:05.000Z</time>
      </trkpt>
      <trkpt lat="45.13944" lon="5.36608">
        <ele>215.8</ele>
        <time>2022-10-15T13:48:06.000Z</time>
      </trkpt>
      <trkpt lat="45.13939" lon="5.36607">
        <ele>215.9</ele>
        <time>2022-10-15T13:48:07.000Z</time>
      </trkpt>
      <trkpt lat="45.13935" lon="5.36605">
        <ele>215.9</ele>
        <time>2022-10-15T13:48:08.000Z</time>
      </trkpt>
      <trkpt lat="45.13932" lon="5.36604">
        <ele>215.9</ele>
        <time>2022-10-15T13:48:09.000Z</time>
      </trkpt>
      <trkpt lat="45.13928" lon="5.36603">
        <ele>216</ele>
        <time>2022-10-15T13:48:10.000Z</time>
      </trkpt>
      <trkpt lat="45.13923" lon="5.36602">
        <ele>216.1</ele>
        <time>2022-10-15T13:48:11.000Z</time>
      </trkpt>
      <trkpt lat="45.13919" lon="5.36601">
        <ele>216.2</ele>
        <time>2022-10-15T13:48:12.000Z</time>
      </trkpt>
      <trkpt lat="45.13915" lon="5.366">
        <ele>216.3</ele>
        <time>2022-10-15T13:48:13.000Z</time>
      </trkpt>
      <trkpt lat="45.13912" lon="5.36599">
        <ele>216.7</ele>
        <time>2022-10-15T13:48:14.000Z</time>
      </trkpt>
      <trkpt lat="45.13908" lon="5.36597">
        <ele>217</ele>
        <time>2022-10-15T13:48:15.000Z</time>
      </trkpt>
      <trkpt lat="45.13904" lon="5.36596">
        <ele>217.2</ele>
        <time>2022-10-15T13:48:16.000Z</time>
      </trkpt>
      <trkpt lat="45.13901" lon="5.36595">
        <ele>217.5</ele>
        <time>2022-10-15T13:48:17.000Z</time>
      </trkpt>
      <trkpt lat="45.13898" lon="5.36593">
        <ele>217.8</ele>
        <time>2022-10-15T13:48:18.000Z</time>
      </trkpt>
      <trkpt lat="45.13894" lon="5.36592">
        <ele>218</ele>
        <time>2022-10-15T13:48:19.000Z</time>
      </trkpt>
      <trkpt lat="45.13892" lon="5.36591">
        <ele>218.3</ele>
        <time>2022-10-15T13:48:20.000Z</time>
      </trkpt>
      <trkpt lat="45.13889" lon="5.36591">
        <ele>218.5</ele>
        <time>2022-10-15T13:48:21.000Z</time>
      </trkpt>
      <trkpt lat="45.13887" lon="5.3659">
        <ele>218.7</ele>
        <time>2022-10-15T13:48:22.000Z</time>
      </trkpt>
      <trkpt lat="45.13884" lon="5.36588">
        <ele>218.7</ele>
        <time>2022-10-15T13:48:23.000Z</time>
      </trkpt>
      <trkpt lat="45.13882" lon="5.36587">
        <ele>218.7</ele>
        <time>2022-10-15T13:48:24.000Z</time>
      </trkpt>
      <trkpt lat="45.1388" lon="5.36586">
        <ele>218.8</ele>
        <time>2022-10-15T13:48:25.000Z</time>
      </trkpt>
      <trkpt lat="45.13878" lon="5.36585">
        <ele>219</ele>
        <time>2022-10-15T13:48:26.000Z</time>
      </trkpt>
      <trkpt lat="45.13875" lon="5.36584">
        <ele>219.1</ele>
        <time>2022-10-15T13:48:27.000Z</time>
      </trkpt>
      <trkpt lat="45.13872" lon="5.36583">
        <ele>219.2</ele>
        <time>2022-10-15T13:48:28.000Z</time>
      </trkpt>
      <trkpt lat="45.13869" lon="5.3658">
        <ele>219.3</ele>
        <time>2022-10-15T13:48:29.000Z</time>
      </trkpt>
      <trkpt lat="45.13865" lon="5.36578">
        <ele>219.5</ele>
        <time>2022-10-15T13:48:30.000Z</time>
      </trkpt>
      <trkpt lat="45.13862" lon="5.36575">
        <ele>219.6</ele>
        <time>2022-10-15T13:48:31.000Z</time>
      </trkpt>
      <trkpt lat="45.13859" lon="5.36572">
        <ele>219.7</ele>
        <time>2022-10-15T13:48:32.000Z</time>
      </trkpt>
      <trkpt lat="45.13856" lon="5.36568">
        <ele>219.7</ele>
        <time>2022-10-15T13:48:33.000Z</time>
      </trkpt>
      <trkpt lat="45.13852" lon="5.36563">
        <ele>219.7</ele>
        <time>2022-10-15T13:48:34.000Z</time>
      </trkpt>
      <trkpt lat="45.13848" lon="5.36559">
        <ele>219.7</ele>
        <time>2022-10-15T13:48:35.000Z</time>
      </trkpt>
      <trkpt lat="45.13844" lon="5.36555">
        <ele>219.6</ele>
        <time>2022-10-15T13:48:36.000Z</time>
      </trkpt>
      <trkpt lat="45.1384" lon="5.36552">
        <ele>219.7</ele>
        <time>2022-10-15T13:48:37.000Z</time>
      </trkpt>
      <trkpt lat="45.13836" lon="5.36548">
        <ele>219.9</ele>
        <time>2022-10-15T13:48:38.000Z</time>
      </trkpt>
      <trkpt lat="45.13832" lon="5.36545">
        <ele>220.2</ele>
        <time>2022-10-15T13:48:39.000Z</time>
      </trkpt>
      <trkpt lat="45.13827" lon="5.36542">
        <ele>220.5</ele>
        <time>2022-10-15T13:48:40.000Z</time>
      </trkpt>
      <trkpt lat="45.13823" lon="5.36538">
        <ele>220.6</ele>
        <time>2022-10-15T13:48:41.000Z</time>
      </trkpt>
      <trkpt lat="45.13818" lon="5.36534">
        <ele>220.5</ele>
        <time>2022-10-15T13:48:42.000Z</time>
      </trkpt>
      <trkpt lat="45.13814" lon="5.3653">
        <ele>220.2</ele>
        <time>2022-10-15T13:48:43.000Z</time>
      </trkpt>
      <trkpt lat="45.13809" lon="5.36526">
        <ele>220</ele>
        <time>2022-10-15T13:48:44.000Z</time>
      </trkpt>
      <trkpt lat="45.13805" lon="5.36522">
        <ele>220.1</ele>
        <time>2022-10-15T13:48:45.000Z</time>
      </trkpt>
      <trkpt lat="45.138" lon="5.36518">
        <ele>220.5</ele>
        <time>2022-10-15T13:48:46.000Z</time>
      </trkpt>
      <trkpt lat="45.13795" lon="5.36514">
        <ele>220.6</ele>
        <time>2022-10-15T13:48:47.000Z</time>
      </trkpt>
      <trkpt lat="45.1379" lon="5.3651">
        <ele>220.4</ele>
        <time>2022-10-15T13:48:48.000Z</time>
      </trkpt>
      <trkpt lat="45.13785" lon="5.36506">
        <ele>220</ele>
        <time>2022-10-15T13:48:49.000Z</time>
      </trkpt>
      <trkpt lat="45.13781" lon="5.36501">
        <ele>219.3</ele>
        <time>2022-10-15T13:48:50.000Z</time>
      </trkpt>
      <trkpt lat="45.13776" lon="5.36497">
        <ele>219.3</ele>
        <time>2022-10-15T13:48:51.000Z</time>
      </trkpt>
      <trkpt lat="45.13771" lon="5.36492">
        <ele>219.9</ele>
        <time>2022-10-15T13:48:52.000Z</time>
      </trkpt>
      <trkpt lat="45.13766" lon="5.36488">
        <ele>220.2</ele>
        <time>2022-10-15T13:48:53.000Z</time>
      </trkpt>
      <trkpt lat="45.13762" lon="5.36484">
        <ele>220.2</ele>
        <time>2022-10-15T13:48:54.000Z</time>
      </trkpt>
      <trkpt lat="45.13757" lon="5.36479">
        <ele>219.9</ele>
        <time>2022-10-15T13:48:55.000Z</time>
      </trkpt>
      <trkpt lat="45.13752" lon="5.36474">
        <ele>219.2</ele>
        <time>2022-10-15T13:48:56.000Z</time>
      </trkpt>
      <trkpt lat="45.13747" lon="5.36468">
        <ele>219.4</ele>
        <time>2022-10-15T13:48:57.000Z</time>
      </trkpt>
      <trkpt lat="45.13742" lon="5.36463">
        <ele>219.7</ele>
        <time>2022-10-15T13:48:58.000Z</time>
      </trkpt>
      <trkpt lat="45.13737" lon="5.36459">
        <ele>219.7</ele>
        <time>2022-10-15T13:48:59.000Z</time>
      </trkpt>
      <trkpt lat="45.13733" lon="5.36454">
        <ele>219.5</ele>
        <time>2022-10-15T13:49:00.000Z</time>
      </trkpt>
      <trkpt lat="45.13728" lon="5.36449">
        <ele>218.9</ele>
        <time>2022-10-15T13:49:01.000Z</time>
      </trkpt>
      <trkpt lat="45.13723" lon="5.36445">
        <ele>218</ele>
        <time>2022-10-15T13:49:02.000Z</time>
      </trkpt>
      <trkpt lat="45.13718" lon="5.36439">
        <ele>215.3</ele>
        <time>2022-10-15T13:49:03.000Z</time>
      </trkpt>
      <trkpt lat="45.13713" lon="5.36434">
        <ele>213.4</ele>
        <time>2022-10-15T13:49:04.000Z</time>
      </trkpt>
      <trkpt lat="45.13708" lon="5.3643">
        <ele>212.6</ele>
        <time>2022-10-15T13:49:05.000Z</time>
      </trkpt>
      <trkpt lat="45.13704" lon="5.36425">
        <ele>212.7</ele>
        <time>2022-10-15T13:49:06.000Z</time>
      </trkpt>
      <trkpt lat="45.13699" lon="5.3642">
        <ele>213.6</ele>
        <time>2022-10-15T13:49:07.000Z</time>
      </trkpt>
      <trkpt lat="45.13695" lon="5.36415">
        <ele>213.9</ele>
        <time>2022-10-15T13:49:08.000Z</time>
      </trkpt>
      <trkpt lat="45.13691" lon="5.36409">
        <ele>212.1</ele>
        <time>2022-10-15T13:49:09.000Z</time>
      </trkpt>
      <trkpt lat="45.13686" lon="5.36404">
        <ele>211.4</ele>
        <time>2022-10-15T13:49:10.000Z</time>
      </trkpt>
      <trkpt lat="45.13681" lon="5.36399">
        <ele>211.7</ele>
        <time>2022-10-15T13:49:11.000Z</time>
      </trkpt>
      <trkpt lat="45.13677" lon="5.36395">
        <ele>212.6</ele>
        <time>2022-10-15T13:49:12.000Z</time>
      </trkpt>
      <trkpt lat="45.13673" lon="5.3639">
        <ele>214.4</ele>
        <time>2022-10-15T13:49:13.000Z</time>
      </trkpt>
      <trkpt lat="45.13668" lon="5.36386">
        <ele>217.1</ele>
        <time>2022-10-15T13:49:14.000Z</time>
      </trkpt>
      <trkpt lat="45.13663" lon="5.36381">
        <ele>217.8</ele>
        <time>2022-10-15T13:49:15.000Z</time>
      </trkpt>
      <trkpt lat="45.13659" lon="5.36376">
        <ele>217.8</ele>
        <time>2022-10-15T13:49:16.000Z</time>
      </trkpt>
      <trkpt lat="45.13655" lon="5.36371">
        <ele>217.9</ele>
        <time>2022-10-15T13:49:17.000Z</time>
      </trkpt>
      <trkpt lat="45.1365" lon="5.36366">
        <ele>218.2</ele>
        <time>2022-10-15T13:49:18.000Z</time>
      </trkpt>
      <trkpt lat="45.13646" lon="5.36361">
        <ele>218.5</ele>
        <time>2022-10-15T13:49:19.000Z</time>
      </trkpt>
      <trkpt lat="45.13641" lon="5.36356">
        <ele>218.3</ele>
        <time>2022-10-15T13:49:20.000Z</time>
      </trkpt>
      <trkpt lat="45.13637" lon="5.36351">
        <ele>218</ele>
        <time>2022-10-15T13:49:21.000Z</time>
      </trkpt>
      <trkpt lat="45.13633" lon="5.36347">
        <ele>217.9</ele>
        <time>2022-10-15T13:49:22.000Z</time>
      </trkpt>
      <trkpt lat="45.13629" lon="5.36342">
        <ele>218</ele>
        <time>2022-10-15T13:49:23.000Z</time>
      </trkpt>
      <trkpt lat="45.13625" lon="5.36338">
        <ele>218.2</ele>
        <time>2022-10-15T13:49:24.000Z</time>
      </trkpt>
      <trkpt lat="45.1362" lon="5.36333">
        <ele>218.7</ele>
        <time>2022-10-15T13:49:25.000Z</time>
      </trkpt>
      <trkpt lat="45.13616" lon="5.36329">
        <ele>218.9</ele>
        <time>2022-10-15T13:49:26.000Z</time>
      </trkpt>
      <trkpt lat="45.13613" lon="5.36324">
        <ele>219.1</ele>
        <time>2022-10-15T13:49:27.000Z</time>
      </trkpt>
      <trkpt lat="45.13609" lon="5.3632">
        <ele>219.2</ele>
        <time>2022-10-15T13:49:28.000Z</time>
      </trkpt>
      <trkpt lat="45.13605" lon="5.36316">
        <ele>219.2</ele>
        <time>2022-10-15T13:49:29.000Z</time>
      </trkpt>
      <trkpt lat="45.13601" lon="5.36312">
        <ele>219.2</ele>
        <time>2022-10-15T13:49:30.000Z</time>
      </trkpt>
      <trkpt lat="45.13597" lon="5.36308">
        <ele>219.2</ele>
        <time>2022-10-15T13:49:31.000Z</time>
      </trkpt>
      <trkpt lat="45.13594" lon="5.36305">
        <ele>219.2</ele>
        <time>2022-10-15T13:49:32.000Z</time>
      </trkpt>
      <trkpt lat="45.1359" lon="5.36301">
        <ele>219.3</ele>
        <time>2022-10-15T13:49:33.000Z</time>
      </trkpt>
      <trkpt lat="45.13586" lon="5.36297">
        <ele>219.5</ele>
        <time>2022-10-15T13:49:34.000Z</time>
      </trkpt>
      <trkpt lat="45.13581" lon="5.36293">
        <ele>219.7</ele>
        <time>2022-10-15T13:49:35.000Z</time>
      </trkpt>
      <trkpt lat="45.13577" lon="5.3629">
        <ele>220</ele>
        <time>2022-10-15T13:49:36.000Z</time>
      </trkpt>
      <trkpt lat="45.13573" lon="5.36286">
        <ele>220.2</ele>
        <time>2022-10-15T13:49:37.000Z</time>
      </trkpt>
      <trkpt lat="45.13569" lon="5.36283">
        <ele>220.3</ele>
        <time>2022-10-15T13:49:38.000Z</time>
      </trkpt>
      <trkpt lat="45.13565" lon="5.3628">
        <ele>220.5</ele>
        <time>2022-10-15T13:49:39.000Z</time>
      </trkpt>
      <trkpt lat="45.1356" lon="5.36276">
        <ele>220.6</ele>
        <time>2022-10-15T13:49:40.000Z</time>
      </trkpt>
      <trkpt lat="45.13556" lon="5.36273">
        <ele>220.8</ele>
        <time>2022-10-15T13:49:41.000Z</time>
      </trkpt>
      <trkpt lat="45.13552" lon="5.3627">
        <ele>221</ele>
        <time>2022-10-15T13:49:42.000Z</time>
      </trkpt>
      <trkpt lat="45.13548" lon="5.36267">
        <ele>221.1</ele>
        <time>2022-10-15T13:49:43.000Z</time>
      </trkpt>
      <trkpt lat="45.13544" lon="5.36263">
        <ele>221.1</ele>
        <time>2022-10-15T13:49:44.000Z</time>
      </trkpt>
      <trkpt lat="45.13539" lon="5.3626">
        <ele>221.1</ele>
        <time>2022-10-15T13:49:45.000Z</time>
      </trkpt>
      <trkpt lat="45.13535" lon="5.36257">
        <ele>221.2</ele>
        <time>2022-10-15T13:49:46.000Z</time>
      </trkpt>
      <trkpt lat="45.1353" lon="5.36253">
        <ele>221.1</ele>
        <time>2022-10-15T13:49:47.000Z</time>
      </trkpt>
      <trkpt lat="45.13526" lon="5.3625">
        <ele>221</ele>
        <time>2022-10-15T13:49:48.000Z</time>
      </trkpt>
      <trkpt lat="45.13522" lon="5.36247">
        <ele>221</ele>
        <time>2022-10-15T13:49:49.000Z</time>
      </trkpt>
      <trkpt lat="45.13517" lon="5.36243">
        <ele>221</ele>
        <time>2022-10-15T13:49:50.000Z</time>
      </trkpt>
      <trkpt lat="45.13513" lon="5.3624">
        <ele>221</ele>
        <time>2022-10-15T13:49:51.000Z</time>
      </trkpt>
      <trkpt lat="45.13508" lon="5.36237">
        <ele>221.1</ele>
        <time>2022-10-15T13:49:52.000Z</time>
      </trkpt>
      <trkpt lat="45.13504" lon="5.36233">
        <ele>221.2</ele>
        <time>2022-10-15T13:49:53.000Z</time>
      </trkpt>
      <trkpt lat="45.13499" lon="5.3623">
        <ele>221.3</ele>
        <time>2022-10-15T13:49:54.000Z</time>
      </trkpt>
      <trkpt lat="45.13495" lon="5.36226">
        <ele>221.3</ele>
        <time>2022-10-15T13:49:55.000Z</time>
      </trkpt>
      <trkpt lat="45.1349" lon="5.36222">
        <ele>221.4</ele>
        <time>2022-10-15T13:49:56.000Z</time>
      </trkpt>
      <trkpt lat="45.13486" lon="5.36219">
        <ele>221.3</ele>
        <time>2022-10-15T13:49:57.000Z</time>
      </trkpt>
      <trkpt lat="45.13481" lon="5.36215">
        <ele>221.4</ele>
        <time>2022-10-15T13:49:58.000Z</time>
      </trkpt>
      <trkpt lat="45.13476" lon="5.36212">
        <ele>221.4</ele>
        <time>2022-10-15T13:49:59.000Z</time>
      </trkpt>
      <trkpt lat="45.13472" lon="5.36209">
        <ele>221.5</ele>
        <time>2022-10-15T13:50:00.000Z</time>
      </trkpt>
      <trkpt lat="45.13467" lon="5.36205">
        <ele>221.6</ele>
        <time>2022-10-15T13:50:01.000Z</time>
      </trkpt>
      <trkpt lat="45.13463" lon="5.36202">
        <ele>221.6</ele>
        <time>2022-10-15T13:50:02.000Z</time>
      </trkpt>
      <trkpt lat="45.13458" lon="5.36198">
        <ele>221.6</ele>
        <time>2022-10-15T13:50:03.000Z</time>
      </trkpt>
      <trkpt lat="45.13454" lon="5.36195">
        <ele>221.7</ele>
        <time>2022-10-15T13:50:04.000Z</time>
      </trkpt>
      <trkpt lat="45.13449" lon="5.36191">
        <ele>221.8</ele>
        <time>2022-10-15T13:50:05.000Z</time>
      </trkpt>
      <trkpt lat="45.13445" lon="5.36188">
        <ele>222</ele>
        <time>2022-10-15T13:50:06.000Z</time>
      </trkpt>
      <trkpt lat="45.1344" lon="5.36185">
        <ele>222.4</ele>
        <time>2022-10-15T13:50:07.000Z</time>
      </trkpt>
      <trkpt lat="45.13435" lon="5.36181">
        <ele>222.7</ele>
        <time>2022-10-15T13:50:08.000Z</time>
      </trkpt>
      <trkpt lat="45.13431" lon="5.36177">
        <ele>222.9</ele>
        <time>2022-10-15T13:50:09.000Z</time>
      </trkpt>
      <trkpt lat="45.13426" lon="5.36174">
        <ele>223</ele>
        <time>2022-10-15T13:50:10.000Z</time>
      </trkpt>
      <trkpt lat="45.13422" lon="5.36171">
        <ele>223.1</ele>
        <time>2022-10-15T13:50:11.000Z</time>
      </trkpt>
      <trkpt lat="45.13417" lon="5.36168">
        <ele>223</ele>
        <time>2022-10-15T13:50:12.000Z</time>
      </trkpt>
      <trkpt lat="45.13413" lon="5.36165">
        <ele>223.3</ele>
        <time>2022-10-15T13:50:13.000Z</time>
      </trkpt>
      <trkpt lat="45.13408" lon="5.36161">
        <ele>223.5</ele>
        <time>2022-10-15T13:50:14.000Z</time>
      </trkpt>
      <trkpt lat="45.13404" lon="5.36158">
        <ele>223.8</ele>
        <time>2022-10-15T13:50:15.000Z</time>
      </trkpt>
      <trkpt lat="45.134" lon="5.36155">
        <ele>224</ele>
        <time>2022-10-15T13:50:16.000Z</time>
      </trkpt>
      <trkpt lat="45.13395" lon="5.36152">
        <ele>224.1</ele>
        <time>2022-10-15T13:50:17.000Z</time>
      </trkpt>
      <trkpt lat="45.13391" lon="5.36148">
        <ele>224.2</ele>
        <time>2022-10-15T13:50:18.000Z</time>
      </trkpt>
      <trkpt lat="45.13387" lon="5.36145">
        <ele>224.4</ele>
        <time>2022-10-15T13:50:19.000Z</time>
      </trkpt>
      <trkpt lat="45.13382" lon="5.36142">
        <ele>224.4</ele>
        <time>2022-10-15T13:50:20.000Z</time>
      </trkpt>
      <trkpt lat="45.13378" lon="5.36138">
        <ele>224.4</ele>
        <time>2022-10-15T13:50:21.000Z</time>
      </trkpt>
      <trkpt lat="45.13374" lon="5.36135">
        <ele>224.6</ele>
        <time>2022-10-15T13:50:22.000Z</time>
      </trkpt>
      <trkpt lat="45.13369" lon="5.36132">
        <ele>224.8</ele>
        <time>2022-10-15T13:50:23.000Z</time>
      </trkpt>
      <trkpt lat="45.13366" lon="5.36129">
        <ele>224.9</ele>
        <time>2022-10-15T13:50:24.000Z</time>
      </trkpt>
      <trkpt lat="45.13361" lon="5.36126">
        <ele>225</ele>
        <time>2022-10-15T13:50:25.000Z</time>
      </trkpt>
      <trkpt lat="45.13357" lon="5.36123">
        <ele>225</ele>
        <time>2022-10-15T13:50:26.000Z</time>
      </trkpt>
      <trkpt lat="45.13353" lon="5.3612">
        <ele>225</ele>
        <time>2022-10-15T13:50:27.000Z</time>
      </trkpt>
      <trkpt lat="45.13348" lon="5.36117">
        <ele>224.8</ele>
        <time>2022-10-15T13:50:28.000Z</time>
      </trkpt>
      <trkpt lat="45.13343" lon="5.36114">
        <ele>224.5</ele>
        <time>2022-10-15T13:50:29.000Z</time>
      </trkpt>
      <trkpt lat="45.13339" lon="5.3611">
        <ele>224.2</ele>
        <time>2022-10-15T13:50:30.000Z</time>
      </trkpt>
      <trkpt lat="45.13333" lon="5.36107">
        <ele>224</ele>
        <time>2022-10-15T13:50:31.000Z</time>
      </trkpt>
      <trkpt lat="45.13328" lon="5.36104">
        <ele>224.1</ele>
        <time>2022-10-15T13:50:32.000Z</time>
      </trkpt>
      <trkpt lat="45.13323" lon="5.361">
        <ele>224.2</ele>
        <time>2022-10-15T13:50:33.000Z</time>
      </trkpt>
      <trkpt lat="45.13318" lon="5.36096">
        <ele>224.3</ele>
        <time>2022-10-15T13:50:34.000Z</time>
      </trkpt>
      <trkpt lat="45.13313" lon="5.36092">
        <ele>224.2</ele>
        <time>2022-10-15T13:50:35.000Z</time>
      </trkpt>
      <trkpt lat="45.13308" lon="5.36089">
        <ele>224.2</ele>
        <time>2022-10-15T13:50:36.000Z</time>
      </trkpt>
      <trkpt lat="45.13303" lon="5.36085">
        <ele>224.1</ele>
        <time>2022-10-15T13:50:37.000Z</time>
      </trkpt>
      <trkpt lat="45.13298" lon="5.36081">
        <ele>224</ele>
        <time>2022-10-15T13:50:38.000Z</time>
      </trkpt>
      <trkpt lat="45.13293" lon="5.36078">
        <ele>224</ele>
        <time>2022-10-15T13:50:39.000Z</time>
      </trkpt>
      <trkpt lat="45.13289" lon="5.36074">
        <ele>224</ele>
        <time>2022-10-15T13:50:40.000Z</time>
      </trkpt>
      <trkpt lat="45.13284" lon="5.36071">
        <ele>224</ele>
        <time>2022-10-15T13:50:41.000Z</time>
      </trkpt>
      <trkpt lat="45.13279" lon="5.36067">
        <ele>224</ele>
        <time>2022-10-15T13:50:42.000Z</time>
      </trkpt>
      <trkpt lat="45.13275" lon="5.36063">
        <ele>224.2</ele>
        <time>2022-10-15T13:50:43.000Z</time>
      </trkpt>
      <trkpt lat="45.1327" lon="5.3606">
        <ele>224.5</ele>
        <time>2022-10-15T13:50:44.000Z</time>
      </trkpt>
      <trkpt lat="45.13265" lon="5.36056">
        <ele>224.5</ele>
        <time>2022-10-15T13:50:45.000Z</time>
      </trkpt>
      <trkpt lat="45.13261" lon="5.36053">
        <ele>224.5</ele>
        <time>2022-10-15T13:50:46.000Z</time>
      </trkpt>
      <trkpt lat="45.13256" lon="5.36049">
        <ele>224.5</ele>
        <time>2022-10-15T13:50:47.000Z</time>
      </trkpt>
      <trkpt lat="45.13252" lon="5.36046">
        <ele>224.6</ele>
        <time>2022-10-15T13:50:48.000Z</time>
      </trkpt>
      <trkpt lat="45.13247" lon="5.36042">
        <ele>225</ele>
        <time>2022-10-15T13:50:49.000Z</time>
      </trkpt>
      <trkpt lat="45.13243" lon="5.36039">
        <ele>225.3</ele>
        <time>2022-10-15T13:50:50.000Z</time>
      </trkpt>
      <trkpt lat="45.13238" lon="5.36035">
        <ele>225.4</ele>
        <time>2022-10-15T13:50:51.000Z</time>
      </trkpt>
      <trkpt lat="45.13233" lon="5.36031">
        <ele>225.2</ele>
        <time>2022-10-15T13:50:52.000Z</time>
      </trkpt>
      <trkpt lat="45.13229" lon="5.36028">
        <ele>224.8</ele>
        <time>2022-10-15T13:50:53.000Z</time>
      </trkpt>
      <trkpt lat="45.13224" lon="5.36024">
        <ele>224.8</ele>
        <time>2022-10-15T13:50:54.000Z</time>
      </trkpt>
      <trkpt lat="45.13219" lon="5.36021">
        <ele>225.4</ele>
        <time>2022-10-15T13:50:55.000Z</time>
      </trkpt>
      <trkpt lat="45.13215" lon="5.36018">
        <ele>226.2</ele>
        <time>2022-10-15T13:50:56.000Z</time>
      </trkpt>
      <trkpt lat="45.1321" lon="5.36014">
        <ele>226.5</ele>
        <time>2022-10-15T13:50:57.000Z</time>
      </trkpt>
      <trkpt lat="45.13205" lon="5.36009">
        <ele>226.4</ele>
        <time>2022-10-15T13:50:58.000Z</time>
      </trkpt>
      <trkpt lat="45.13201" lon="5.36004">
        <ele>225.7</ele>
        <time>2022-10-15T13:50:59.000Z</time>
      </trkpt>
      <trkpt lat="45.13197" lon="5.35999">
        <ele>224.6</ele>
        <time>2022-10-15T13:51:00.000Z</time>
      </trkpt>
      <trkpt lat="45.13193" lon="5.35993">
        <ele>223.1</ele>
        <time>2022-10-15T13:51:01.000Z</time>
      </trkpt>
      <trkpt lat="45.13189" lon="5.35988">
        <ele>222.1</ele>
        <time>2022-10-15T13:51:02.000Z</time>
      </trkpt>
      <trkpt lat="45.13186" lon="5.35982">
        <ele>221.8</ele>
        <time>2022-10-15T13:51:03.000Z</time>
      </trkpt>
      <trkpt lat="45.13182" lon="5.35977">
        <ele>222</ele>
        <time>2022-10-15T13:51:04.000Z</time>
      </trkpt>
      <trkpt lat="45.13179" lon="5.35971">
        <ele>222.6</ele>
        <time>2022-10-15T13:51:05.000Z</time>
      </trkpt>
      <trkpt lat="45.13175" lon="5.35964">
        <ele>223.4</ele>
        <time>2022-10-15T13:51:06.000Z</time>
      </trkpt>
      <trkpt lat="45.13171" lon="5.35958">
        <ele>224</ele>
        <time>2022-10-15T13:51:07.000Z</time>
      </trkpt>
      <trkpt lat="45.13169" lon="5.3595">
        <ele>224</ele>
        <time>2022-10-15T13:51:08.000Z</time>
      </trkpt>
      <trkpt lat="45.13166" lon="5.35943">
        <ele>223.9</ele>
        <time>2022-10-15T13:51:09.000Z</time>
      </trkpt>
      <trkpt lat="45.13164" lon="5.35935">
        <ele>223.4</ele>
        <time>2022-10-15T13:51:10.000Z</time>
      </trkpt>
      <trkpt lat="45.13162" lon="5.35928">
        <ele>222.9</ele>
        <time>2022-10-15T13:51:11.000Z</time>
      </trkpt>
      <trkpt lat="45.13159" lon="5.3592">
        <ele>222.6</ele>
        <time>2022-10-15T13:51:12.000Z</time>
      </trkpt>
      <trkpt lat="45.13157" lon="5.3591">
        <ele>222.2</ele>
        <time>2022-10-15T13:51:13.000Z</time>
      </trkpt>
      <trkpt lat="45.13155" lon="5.35902">
        <ele>221.8</ele>
        <time>2022-10-15T13:51:14.000Z</time>
      </trkpt>
      <trkpt lat="45.13152" lon="5.35894">
        <ele>221.7</ele>
        <time>2022-10-15T13:51:15.000Z</time>
      </trkpt>
      <trkpt lat="45.13149" lon="5.35886">
        <ele>221.6</ele>
        <time>2022-10-15T13:51:16.000Z</time>
      </trkpt>
      <trkpt lat="45.13147" lon="5.35878">
        <ele>221.3</ele>
        <time>2022-10-15T13:51:17.000Z</time>
      </trkpt>
      <trkpt lat="45.13146" lon="5.35869">
        <ele>220.9</ele>
        <time>2022-10-15T13:51:18.000Z</time>
      </trkpt>
      <trkpt lat="45.13144" lon="5.35861">
        <ele>220.7</ele>
        <time>2022-10-15T13:51:19.000Z</time>
      </trkpt>
      <trkpt lat="45.13142" lon="5.35852">
        <ele>220.2</ele>
        <time>2022-10-15T13:51:20.000Z</time>
      </trkpt>
      <trkpt lat="45.1314" lon="5.35844">
        <ele>219.9</ele>
        <time>2022-10-15T13:51:21.000Z</time>
      </trkpt>
      <trkpt lat="45.13137" lon="5.35836">
        <ele>219.6</ele>
        <time>2022-10-15T13:51:22.000Z</time>
      </trkpt>
      <trkpt lat="45.13135" lon="5.35828">
        <ele>219.7</ele>
        <time>2022-10-15T13:51:23.000Z</time>
      </trkpt>
      <trkpt lat="45.13132" lon="5.3582">
        <ele>219.8</ele>
        <time>2022-10-15T13:51:24.000Z</time>
      </trkpt>
      <trkpt lat="45.13129" lon="5.35812">
        <ele>219.8</ele>
        <time>2022-10-15T13:51:25.000Z</time>
      </trkpt>
      <trkpt lat="45.13126" lon="5.35803">
        <ele>219.8</ele>
        <time>2022-10-15T13:51:26.000Z</time>
      </trkpt>
      <trkpt lat="45.13123" lon="5.35794">
        <ele>219.9</ele>
        <time>2022-10-15T13:51:27.000Z</time>
      </trkpt>
      <trkpt lat="45.1312" lon="5.35786">
        <ele>220</ele>
        <time>2022-10-15T13:51:28.000Z</time>
      </trkpt>
      <trkpt lat="45.13117" lon="5.35777">
        <ele>220.1</ele>
        <time>2022-10-15T13:51:29.000Z</time>
      </trkpt>
      <trkpt lat="45.13114" lon="5.35768">
        <ele>219.9</ele>
        <time>2022-10-15T13:51:30.000Z</time>
      </trkpt>
      <trkpt lat="45.13111" lon="5.35759">
        <ele>219.6</ele>
        <time>2022-10-15T13:51:31.000Z</time>
      </trkpt>
      <trkpt lat="45.13109" lon="5.3575">
        <ele>219.5</ele>
        <time>2022-10-15T13:51:32.000Z</time>
      </trkpt>
      <trkpt lat="45.13106" lon="5.35742">
        <ele>219.3</ele>
        <time>2022-10-15T13:51:33.000Z</time>
      </trkpt>
      <trkpt lat="45.13103" lon="5.35733">
        <ele>219.1</ele>
        <time>2022-10-15T13:51:34.000Z</time>
      </trkpt>
      <trkpt lat="45.13099" lon="5.35724">
        <ele>218.9</ele>
        <time>2022-10-15T13:51:35.000Z</time>
      </trkpt>
      <trkpt lat="45.13096" lon="5.35716">
        <ele>218.9</ele>
        <time>2022-10-15T13:51:36.000Z</time>
      </trkpt>
      <trkpt lat="45.13093" lon="5.35707">
        <ele>219.1</ele>
        <time>2022-10-15T13:51:37.000Z</time>
      </trkpt>
      <trkpt lat="45.1309" lon="5.35699">
        <ele>219.1</ele>
        <time>2022-10-15T13:51:38.000Z</time>
      </trkpt>
      <trkpt lat="45.13087" lon="5.35691">
        <ele>219.1</ele>
        <time>2022-10-15T13:51:39.000Z</time>
      </trkpt>
      <trkpt lat="45.13084" lon="5.35683">
        <ele>219</ele>
        <time>2022-10-15T13:51:40.000Z</time>
      </trkpt>
      <trkpt lat="45.13081" lon="5.35675">
        <ele>219</ele>
        <time>2022-10-15T13:51:41.000Z</time>
      </trkpt>
      <trkpt lat="45.13078" lon="5.35668">
        <ele>218.9</ele>
        <time>2022-10-15T13:51:42.000Z</time>
      </trkpt>
      <trkpt lat="45.13075" lon="5.35661">
        <ele>218.7</ele>
        <time>2022-10-15T13:51:43.000Z</time>
      </trkpt>
      <trkpt lat="45.13072" lon="5.35654">
        <ele>218.5</ele>
        <time>2022-10-15T13:51:44.000Z</time>
      </trkpt>
      <trkpt lat="45.13069" lon="5.35646">
        <ele>218.2</ele>
        <time>2022-10-15T13:51:45.000Z</time>
      </trkpt>
      <trkpt lat="45.13066" lon="5.35639">
        <ele>217.9</ele>
        <time>2022-10-15T13:51:46.000Z</time>
      </trkpt>
      <trkpt lat="45.13062" lon="5.35631">
        <ele>217.9</ele>
        <time>2022-10-15T13:51:47.000Z</time>
      </trkpt>
      <trkpt lat="45.13059" lon="5.35624">
        <ele>218</ele>
        <time>2022-10-15T13:51:48.000Z</time>
      </trkpt>
      <trkpt lat="45.13055" lon="5.35617">
        <ele>218.2</ele>
        <time>2022-10-15T13:51:49.000Z</time>
      </trkpt>
      <trkpt lat="45.13052" lon="5.3561">
        <ele>218.1</ele>
        <time>2022-10-15T13:51:50.000Z</time>
      </trkpt>
      <trkpt lat="45.13048" lon="5.35602">
        <ele>217.6</ele>
        <time>2022-10-15T13:51:51.000Z</time>
      </trkpt>
      <trkpt lat="45.13044" lon="5.35595">
        <ele>217.1</ele>
        <time>2022-10-15T13:51:52.000Z</time>
      </trkpt>
      <trkpt lat="45.1304" lon="5.35586">
        <ele>216.5</ele>
        <time>2022-10-15T13:51:53.000Z</time>
      </trkpt>
      <trkpt lat="45.13036" lon="5.35578">
        <ele>216.1</ele>
        <time>2022-10-15T13:51:54.000Z</time>
      </trkpt>
      <trkpt lat="45.13032" lon="5.35569">
        <ele>216</ele>
        <time>2022-10-15T13:51:55.000Z</time>
      </trkpt>
      <trkpt lat="45.13028" lon="5.3556">
        <ele>216.2</ele>
        <time>2022-10-15T13:51:56.000Z</time>
      </trkpt>
      <trkpt lat="45.13023" lon="5.35552">
        <ele>215.7</ele>
        <time>2022-10-15T13:51:57.000Z</time>
      </trkpt>
      <trkpt lat="45.13019" lon="5.35543">
        <ele>214.9</ele>
        <time>2022-10-15T13:51:58.000Z</time>
      </trkpt>
      <trkpt lat="45.13015" lon="5.35535">
        <ele>214.5</ele>
        <time>2022-10-15T13:51:59.000Z</time>
      </trkpt>
      <trkpt lat="45.1301" lon="5.35526">
        <ele>214.4</ele>
        <time>2022-10-15T13:52:00.000Z</time>
      </trkpt>
      <trkpt lat="45.13006" lon="5.35517">
        <ele>214.3</ele>
        <time>2022-10-15T13:52:01.000Z</time>
      </trkpt>
      <trkpt lat="45.13002" lon="5.35508">
        <ele>214.3</ele>
        <time>2022-10-15T13:52:02.000Z</time>
      </trkpt>
      <trkpt lat="45.12998" lon="5.35499">
        <ele>214.3</ele>
        <time>2022-10-15T13:52:03.000Z</time>
      </trkpt>
      <trkpt lat="45.12993" lon="5.35491">
        <ele>214.3</ele>
        <time>2022-10-15T13:52:04.000Z</time>
      </trkpt>
      <trkpt lat="45.12989" lon="5.35482">
        <ele>214.3</ele>
        <time>2022-10-15T13:52:05.000Z</time>
      </trkpt>
      <trkpt lat="45.12984" lon="5.35474">
        <ele>214.5</ele>
        <time>2022-10-15T13:52:06.000Z</time>
      </trkpt>
      <trkpt lat="45.12979" lon="5.35466">
        <ele>214.4</ele>
        <time>2022-10-15T13:52:07.000Z</time>
      </trkpt>
      <trkpt lat="45.12975" lon="5.35458">
        <ele>214.1</ele>
        <time>2022-10-15T13:52:08.000Z</time>
      </trkpt>
      <trkpt lat="45.12971" lon="5.3545">
        <ele>213.8</ele>
        <time>2022-10-15T13:52:09.000Z</time>
      </trkpt>
      <trkpt lat="45.12967" lon="5.35442">
        <ele>213.7</ele>
        <time>2022-10-15T13:52:10.000Z</time>
      </trkpt>
      <trkpt lat="45.12963" lon="5.35434">
        <ele>213.7</ele>
        <time>2022-10-15T13:52:11.000Z</time>
      </trkpt>
      <trkpt lat="45.12959" lon="5.35426">
        <ele>213.5</ele>
        <time>2022-10-15T13:52:12.000Z</time>
      </trkpt>
      <trkpt lat="45.12955" lon="5.35418">
        <ele>213.1</ele>
        <time>2022-10-15T13:52:13.000Z</time>
      </trkpt>
      <trkpt lat="45.1295" lon="5.35411">
        <ele>213.1</ele>
        <time>2022-10-15T13:52:14.000Z</time>
      </trkpt>
      <trkpt lat="45.12946" lon="5.35404">
        <ele>213.4</ele>
        <time>2022-10-15T13:52:15.000Z</time>
      </trkpt>
      <trkpt lat="45.12941" lon="5.35397">
        <ele>213.7</ele>
        <time>2022-10-15T13:52:16.000Z</time>
      </trkpt>
      <trkpt lat="45.12936" lon="5.3539">
        <ele>213.9</ele>
        <time>2022-10-15T13:52:17.000Z</time>
      </trkpt>
      <trkpt lat="45.12932" lon="5.35383">
        <ele>213.8</ele>
        <time>2022-10-15T13:52:18.000Z</time>
      </trkpt>
      <trkpt lat="45.12927" lon="5.35376">
        <ele>213.8</ele>
        <time>2022-10-15T13:52:19.000Z</time>
      </trkpt>
      <trkpt lat="45.12922" lon="5.35368">
        <ele>213.9</ele>
        <time>2022-10-15T13:52:20.000Z</time>
      </trkpt>
      <trkpt lat="45.12917" lon="5.35361">
        <ele>214</ele>
        <time>2022-10-15T13:52:21.000Z</time>
      </trkpt>
      <trkpt lat="45.12911" lon="5.35354">
        <ele>213.8</ele>
        <time>2022-10-15T13:52:22.000Z</time>
      </trkpt>
      <trkpt lat="45.12907" lon="5.35347">
        <ele>213.6</ele>
        <time>2022-10-15T13:52:23.000Z</time>
      </trkpt>
      <trkpt lat="45.12901" lon="5.3534">
        <ele>213.3</ele>
        <time>2022-10-15T13:52:24.000Z</time>
      </trkpt>
      <trkpt lat="45.12897" lon="5.35333">
        <ele>213.1</ele>
        <time>2022-10-15T13:52:25.000Z</time>
      </trkpt>
      <trkpt lat="45.12892" lon="5.35326">
        <ele>212.9</ele>
        <time>2022-10-15T13:52:26.000Z</time>
      </trkpt>
      <trkpt lat="45.12887" lon="5.35319">
        <ele>212.6</ele>
        <time>2022-10-15T13:52:27.000Z</time>
      </trkpt>
      <trkpt lat="45.12883" lon="5.35312">
        <ele>212.5</ele>
        <time>2022-10-15T13:52:28.000Z</time>
      </trkpt>
      <trkpt lat="45.12878" lon="5.35304">
        <ele>212.4</ele>
        <time>2022-10-15T13:52:29.000Z</time>
      </trkpt>
      <trkpt lat="45.12874" lon="5.35297">
        <ele>212.5</ele>
        <time>2022-10-15T13:52:30.000Z</time>
      </trkpt>
      <trkpt lat="45.1287" lon="5.3529">
        <ele>212.6</ele>
        <time>2022-10-15T13:52:31.000Z</time>
      </trkpt>
      <trkpt lat="45.12866" lon="5.35282">
        <ele>212.6</ele>
        <time>2022-10-15T13:52:32.000Z</time>
      </trkpt>
      <trkpt lat="45.12862" lon="5.35274">
        <ele>212.6</ele>
        <time>2022-10-15T13:52:33.000Z</time>
      </trkpt>
      <trkpt lat="45.12858" lon="5.35266">
        <ele>212.7</ele>
        <time>2022-10-15T13:52:34.000Z</time>
      </trkpt>
      <trkpt lat="45.12854" lon="5.35258">
        <ele>212.9</ele>
        <time>2022-10-15T13:52:35.000Z</time>
      </trkpt>
      <trkpt lat="45.1285" lon="5.3525">
        <ele>212.9</ele>
        <time>2022-10-15T13:52:36.000Z</time>
      </trkpt>
      <trkpt lat="45.12847" lon="5.35242">
        <ele>212.9</ele>
        <time>2022-10-15T13:52:37.000Z</time>
      </trkpt>
      <trkpt lat="45.12844" lon="5.35234">
        <ele>212.7</ele>
        <time>2022-10-15T13:52:38.000Z</time>
      </trkpt>
      <trkpt lat="45.1284" lon="5.35226">
        <ele>212.4</ele>
        <time>2022-10-15T13:52:39.000Z</time>
      </trkpt>
      <trkpt lat="45.12837" lon="5.35218">
        <ele>212.4</ele>
        <time>2022-10-15T13:52:40.000Z</time>
      </trkpt>
      <trkpt lat="45.12833" lon="5.35211">
        <ele>212.7</ele>
        <time>2022-10-15T13:52:41.000Z</time>
      </trkpt>
      <trkpt lat="45.12829" lon="5.35203">
        <ele>213.1</ele>
        <time>2022-10-15T13:52:42.000Z</time>
      </trkpt>
      <trkpt lat="45.12826" lon="5.35195">
        <ele>213.4</ele>
        <time>2022-10-15T13:52:43.000Z</time>
      </trkpt>
      <trkpt lat="45.12822" lon="5.35187">
        <ele>213.2</ele>
        <time>2022-10-15T13:52:44.000Z</time>
      </trkpt>
      <trkpt lat="45.12819" lon="5.3518">
        <ele>213.1</ele>
        <time>2022-10-15T13:52:45.000Z</time>
      </trkpt>
      <trkpt lat="45.12815" lon="5.35172">
        <ele>212.9</ele>
        <time>2022-10-15T13:52:46.000Z</time>
      </trkpt>
      <trkpt lat="45.12811" lon="5.35164">
        <ele>212.8</ele>
        <time>2022-10-15T13:52:47.000Z</time>
      </trkpt>
      <trkpt lat="45.12808" lon="5.35157">
        <ele>212.9</ele>
        <time>2022-10-15T13:52:48.000Z</time>
      </trkpt>
      <trkpt lat="45.12805" lon="5.35149">
        <ele>212.8</ele>
        <time>2022-10-15T13:52:49.000Z</time>
      </trkpt>
      <trkpt lat="45.12801" lon="5.3514">
        <ele>212.6</ele>
        <time>2022-10-15T13:52:50.000Z</time>
      </trkpt>
      <trkpt lat="45.12798" lon="5.35132">
        <ele>212.3</ele>
        <time>2022-10-15T13:52:51.000Z</time>
      </trkpt>
      <trkpt lat="45.12794" lon="5.35124">
        <ele>212.1</ele>
        <time>2022-10-15T13:52:52.000Z</time>
      </trkpt>
      <trkpt lat="45.12791" lon="5.35116">
        <ele>212.1</ele>
        <time>2022-10-15T13:52:53.000Z</time>
      </trkpt>
      <trkpt lat="45.12787" lon="5.35108">
        <ele>212.2</ele>
        <time>2022-10-15T13:52:54.000Z</time>
      </trkpt>
      <trkpt lat="45.12784" lon="5.351">
        <ele>212.4</ele>
        <time>2022-10-15T13:52:55.000Z</time>
      </trkpt>
      <trkpt lat="45.1278" lon="5.35092">
        <ele>212.8</ele>
        <time>2022-10-15T13:52:56.000Z</time>
      </trkpt>
      <trkpt lat="45.12776" lon="5.35084">
        <ele>213.2</ele>
        <time>2022-10-15T13:52:57.000Z</time>
      </trkpt>
      <trkpt lat="45.12772" lon="5.35077">
        <ele>213</ele>
        <time>2022-10-15T13:52:58.000Z</time>
      </trkpt>
      <trkpt lat="45.12769" lon="5.35069">
        <ele>212.8</ele>
        <time>2022-10-15T13:52:59.000Z</time>
      </trkpt>
      <trkpt lat="45.12765" lon="5.35062">
        <ele>212.8</ele>
        <time>2022-10-15T13:53:00.000Z</time>
      </trkpt>
      <trkpt lat="45.12761" lon="5.35054">
        <ele>212.9</ele>
        <time>2022-10-15T13:53:01.000Z</time>
      </trkpt>
      <trkpt lat="45.12758" lon="5.35047">
        <ele>213</ele>
        <time>2022-10-15T13:53:02.000Z</time>
      </trkpt>
      <trkpt lat="45.12755" lon="5.3504">
        <ele>213.1</ele>
        <time>2022-10-15T13:53:03.000Z</time>
      </trkpt>
      <trkpt lat="45.12751" lon="5.35033">
        <ele>213.2</ele>
        <time>2022-10-15T13:53:04.000Z</time>
      </trkpt>
      <trkpt lat="45.12749" lon="5.35026">
        <ele>213.2</ele>
        <time>2022-10-15T13:53:05.000Z</time>
      </trkpt>
      <trkpt lat="45.12745" lon="5.35018">
        <ele>213.5</ele>
        <time>2022-10-15T13:53:06.000Z</time>
      </trkpt>
      <trkpt lat="45.12742" lon="5.3501">
        <ele>213.6</ele>
        <time>2022-10-15T13:53:07.000Z</time>
      </trkpt>
      <trkpt lat="45.12739" lon="5.35003">
        <ele>213.7</ele>
        <time>2022-10-15T13:53:08.000Z</time>
      </trkpt>
      <trkpt lat="45.12736" lon="5.34996">
        <ele>213.7</ele>
        <time>2022-10-15T13:53:09.000Z</time>
      </trkpt>
      <trkpt lat="45.12732" lon="5.34989">
        <ele>213.7</ele>
        <time>2022-10-15T13:53:10.000Z</time>
      </trkpt>
      <trkpt lat="45.12729" lon="5.34982">
        <ele>213.5</ele>
        <time>2022-10-15T13:53:11.000Z</time>
      </trkpt>
      <trkpt lat="45.12725" lon="5.34976">
        <ele>213.2</ele>
        <time>2022-10-15T13:53:12.000Z</time>
      </trkpt>
      <trkpt lat="45.12721" lon="5.34969">
        <ele>213</ele>
        <time>2022-10-15T13:53:13.000Z</time>
      </trkpt>
      <trkpt lat="45.12717" lon="5.34962">
        <ele>213.2</ele>
        <time>2022-10-15T13:53:14.000Z</time>
      </trkpt>
      <trkpt lat="45.12713" lon="5.34955">
        <ele>213.3</ele>
        <time>2022-10-15T13:53:15.000Z</time>
      </trkpt>
      <trkpt lat="45.1271" lon="5.34947">
        <ele>213.4</ele>
        <time>2022-10-15T13:53:16.000Z</time>
      </trkpt>
      <trkpt lat="45.12707" lon="5.3494">
        <ele>213.4</ele>
        <time>2022-10-15T13:53:17.000Z</time>
      </trkpt>
      <trkpt lat="45.12704" lon="5.34932">
        <ele>213.4</ele>
        <time>2022-10-15T13:53:18.000Z</time>
      </trkpt>
      <trkpt lat="45.12702" lon="5.34926">
        <ele>213.4</ele>
        <time>2022-10-15T13:53:19.000Z</time>
      </trkpt>
      <trkpt lat="45.12699" lon="5.34919">
        <ele>213.5</ele>
        <time>2022-10-15T13:53:20.000Z</time>
      </trkpt>
      <trkpt lat="45.12696" lon="5.34912">
        <ele>213.3</ele>
        <time>2022-10-15T13:53:21.000Z</time>
      </trkpt>
      <trkpt lat="45.12693" lon="5.34905">
        <ele>213</ele>
        <time>2022-10-15T13:53:22.000Z</time>
      </trkpt>
      <trkpt lat="45.12691" lon="5.34898">
        <ele>212.9</ele>
        <time>2022-10-15T13:53:23.000Z</time>
      </trkpt>
      <trkpt lat="45.12688" lon="5.34891">
        <ele>212.8</ele>
        <time>2022-10-15T13:53:24.000Z</time>
      </trkpt>
      <trkpt lat="45.12685" lon="5.34884">
        <ele>212.6</ele>
        <time>2022-10-15T13:53:25.000Z</time>
      </trkpt>
      <trkpt lat="45.12682" lon="5.34877">
        <ele>212.5</ele>
        <time>2022-10-15T13:53:26.000Z</time>
      </trkpt>
      <trkpt lat="45.12679" lon="5.3487">
        <ele>212.3</ele>
        <time>2022-10-15T13:53:27.000Z</time>
      </trkpt>
      <trkpt lat="45.12676" lon="5.34863">
        <ele>212</ele>
        <time>2022-10-15T13:53:28.000Z</time>
      </trkpt>
      <trkpt lat="45.12673" lon="5.34856">
        <ele>211.8</ele>
        <time>2022-10-15T13:53:29.000Z</time>
      </trkpt>
      <trkpt lat="45.1267" lon="5.34848">
        <ele>211.7</ele>
        <time>2022-10-15T13:53:30.000Z</time>
      </trkpt>
      <trkpt lat="45.12667" lon="5.3484">
        <ele>211.5</ele>
        <time>2022-10-15T13:53:31.000Z</time>
      </trkpt>
      <trkpt lat="45.12664" lon="5.34832">
        <ele>211.2</ele>
        <time>2022-10-15T13:53:32.000Z</time>
      </trkpt>
      <trkpt lat="45.12662" lon="5.34824">
        <ele>210.8</ele>
        <time>2022-10-15T13:53:33.000Z</time>
      </trkpt>
      <trkpt lat="45.12659" lon="5.34816">
        <ele>210.5</ele>
        <time>2022-10-15T13:53:34.000Z</time>
      </trkpt>
      <trkpt lat="45.12657" lon="5.34808">
        <ele>210.2</ele>
        <time>2022-10-15T13:53:35.000Z</time>
      </trkpt>
      <trkpt lat="45.12654" lon="5.348">
        <ele>210.1</ele>
        <time>2022-10-15T13:53:36.000Z</time>
      </trkpt>
      <trkpt lat="45.12652" lon="5.34791">
        <ele>210</ele>
        <time>2022-10-15T13:53:37.000Z</time>
      </trkpt>
      <trkpt lat="45.1265" lon="5.34783">
        <ele>210</ele>
        <time>2022-10-15T13:53:38.000Z</time>
      </trkpt>
      <trkpt lat="45.12648" lon="5.34775">
        <ele>210</ele>
        <time>2022-10-15T13:53:39.000Z</time>
      </trkpt>
      <trkpt lat="45.12646" lon="5.34767">
        <ele>210.1</ele>
        <time>2022-10-15T13:53:40.000Z</time>
      </trkpt>
      <trkpt lat="45.12644" lon="5.34759">
        <ele>210.3</ele>
        <time>2022-10-15T13:53:41.000Z</time>
      </trkpt>
      <trkpt lat="45.12643" lon="5.3475">
        <ele>210.5</ele>
        <time>2022-10-15T13:53:42.000Z</time>
      </trkpt>
      <trkpt lat="45.12641" lon="5.34742">
        <ele>210.4</ele>
        <time>2022-10-15T13:53:43.000Z</time>
      </trkpt>
      <trkpt lat="45.1264" lon="5.34734">
        <ele>210.2</ele>
        <time>2022-10-15T13:53:44.000Z</time>
      </trkpt>
      <trkpt lat="45.12639" lon="5.34725">
        <ele>210.1</ele>
        <time>2022-10-15T13:53:45.000Z</time>
      </trkpt>
      <trkpt lat="45.12638" lon="5.34716">
        <ele>210.2</ele>
        <time>2022-10-15T13:53:46.000Z</time>
      </trkpt>
      <trkpt lat="45.12636" lon="5.34707">
        <ele>210.3</ele>
        <time>2022-10-15T13:53:47.000Z</time>
      </trkpt>
      <trkpt lat="45.12634" lon="5.34698">
        <ele>210.2</ele>
        <time>2022-10-15T13:53:48.000Z</time>
      </trkpt>
      <trkpt lat="45.12634" lon="5.34689">
        <ele>210</ele>
        <time>2022-10-15T13:53:49.000Z</time>
      </trkpt>
      <trkpt lat="45.12633" lon="5.3468">
        <ele>209.8</ele>
        <time>2022-10-15T13:53:50.000Z</time>
      </trkpt>
      <trkpt lat="45.12632" lon="5.34672">
        <ele>209.8</ele>
        <time>2022-10-15T13:53:51.000Z</time>
      </trkpt>
      <trkpt lat="45.1263" lon="5.34663">
        <ele>209.7</ele>
        <time>2022-10-15T13:53:52.000Z</time>
      </trkpt>
      <trkpt lat="45.1263" lon="5.34654">
        <ele>209.4</ele>
        <time>2022-10-15T13:53:53.000Z</time>
      </trkpt>
      <trkpt lat="45.12629" lon="5.34645">
        <ele>209.1</ele>
        <time>2022-10-15T13:53:54.000Z</time>
      </trkpt>
      <trkpt lat="45.12627" lon="5.34637">
        <ele>209.1</ele>
        <time>2022-10-15T13:53:55.000Z</time>
      </trkpt>
      <trkpt lat="45.12627" lon="5.34629">
        <ele>209.2</ele>
        <time>2022-10-15T13:53:56.000Z</time>
      </trkpt>
      <trkpt lat="45.12626" lon="5.3462">
        <ele>209.4</ele>
        <time>2022-10-15T13:53:57.000Z</time>
      </trkpt>
      <trkpt lat="45.12625" lon="5.34612">
        <ele>209.6</ele>
        <time>2022-10-15T13:53:58.000Z</time>
      </trkpt>
      <trkpt lat="45.12623" lon="5.34603">
        <ele>209.3</ele>
        <time>2022-10-15T13:53:59.000Z</time>
      </trkpt>
      <trkpt lat="45.12622" lon="5.34595">
        <ele>209</ele>
        <time>2022-10-15T13:54:00.000Z</time>
      </trkpt>
      <trkpt lat="45.12621" lon="5.34587">
        <ele>208.5</ele>
        <time>2022-10-15T13:54:01.000Z</time>
      </trkpt>
      <trkpt lat="45.1262" lon="5.34578">
        <ele>208.3</ele>
        <time>2022-10-15T13:54:02.000Z</time>
      </trkpt>
      <trkpt lat="45.12618" lon="5.3457">
        <ele>208.4</ele>
        <time>2022-10-15T13:54:03.000Z</time>
      </trkpt>
      <trkpt lat="45.12617" lon="5.34562">
        <ele>208.5</ele>
        <time>2022-10-15T13:54:04.000Z</time>
      </trkpt>
      <trkpt lat="45.12615" lon="5.34554">
        <ele>208.5</ele>
        <time>2022-10-15T13:54:05.000Z</time>
      </trkpt>
      <trkpt lat="45.12614" lon="5.34545">
        <ele>208.4</ele>
        <time>2022-10-15T13:54:06.000Z</time>
      </trkpt>
      <trkpt lat="45.12612" lon="5.34537">
        <ele>208.2</ele>
        <time>2022-10-15T13:54:07.000Z</time>
      </trkpt>
      <trkpt lat="45.12611" lon="5.34527">
        <ele>208</ele>
        <time>2022-10-15T13:54:08.000Z</time>
      </trkpt>
      <trkpt lat="45.1261" lon="5.34518">
        <ele>207.9</ele>
        <time>2022-10-15T13:54:09.000Z</time>
      </trkpt>
      <trkpt lat="45.12609" lon="5.34509">
        <ele>207.7</ele>
        <time>2022-10-15T13:54:10.000Z</time>
      </trkpt>
      <trkpt lat="45.12607" lon="5.34499">
        <ele>207.5</ele>
        <time>2022-10-15T13:54:11.000Z</time>
      </trkpt>
      <trkpt lat="45.12606" lon="5.34489">
        <ele>207</ele>
        <time>2022-10-15T13:54:12.000Z</time>
      </trkpt>
      <trkpt lat="45.12604" lon="5.3448">
        <ele>206.6</ele>
        <time>2022-10-15T13:54:13.000Z</time>
      </trkpt>
      <trkpt lat="45.12603" lon="5.3447">
        <ele>206.2</ele>
        <time>2022-10-15T13:54:14.000Z</time>
      </trkpt>
      <trkpt lat="45.12601" lon="5.3446">
        <ele>206.5</ele>
        <time>2022-10-15T13:54:15.000Z</time>
      </trkpt>
      <trkpt lat="45.12599" lon="5.34451">
        <ele>206.7</ele>
        <time>2022-10-15T13:54:16.000Z</time>
      </trkpt>
      <trkpt lat="45.12598" lon="5.34442">
        <ele>206.7</ele>
        <time>2022-10-15T13:54:17.000Z</time>
      </trkpt>
      <trkpt lat="45.12597" lon="5.34432">
        <ele>206.4</ele>
        <time>2022-10-15T13:54:18.000Z</time>
      </trkpt>
      <trkpt lat="45.12595" lon="5.34423">
        <ele>206.1</ele>
        <time>2022-10-15T13:54:19.000Z</time>
      </trkpt>
      <trkpt lat="45.12593" lon="5.34414">
        <ele>205.9</ele>
        <time>2022-10-15T13:54:20.000Z</time>
      </trkpt>
      <trkpt lat="45.12592" lon="5.34404">
        <ele>206</ele>
        <time>2022-10-15T13:54:21.000Z</time>
      </trkpt>
      <trkpt lat="45.12591" lon="5.34395">
        <ele>206</ele>
        <time>2022-10-15T13:54:22.000Z</time>
      </trkpt>
      <trkpt lat="45.12589" lon="5.34386">
        <ele>206</ele>
        <time>2022-10-15T13:54:23.000Z</time>
      </trkpt>
      <trkpt lat="45.12588" lon="5.34376">
        <ele>205.8</ele>
        <time>2022-10-15T13:54:24.000Z</time>
      </trkpt>
      <trkpt lat="45.12586" lon="5.34367">
        <ele>205.6</ele>
        <time>2022-10-15T13:54:25.000Z</time>
      </trkpt>
      <trkpt lat="45.12585" lon="5.34358">
        <ele>205.6</ele>
        <time>2022-10-15T13:54:26.000Z</time>
      </trkpt>
      <trkpt lat="45.12583" lon="5.34349">
        <ele>205.6</ele>
        <time>2022-10-15T13:54:27.000Z</time>
      </trkpt>
      <trkpt lat="45.12582" lon="5.3434">
        <ele>205.4</ele>
        <time>2022-10-15T13:54:28.000Z</time>
      </trkpt>
      <trkpt lat="45.1258" lon="5.3433">
        <ele>205.3</ele>
        <time>2022-10-15T13:54:29.000Z</time>
      </trkpt>
      <trkpt lat="45.12579" lon="5.34321">
        <ele>205.4</ele>
        <time>2022-10-15T13:54:30.000Z</time>
      </trkpt>
      <trkpt lat="45.12577" lon="5.34311">
        <ele>205.5</ele>
        <time>2022-10-15T13:54:31.000Z</time>
      </trkpt>
      <trkpt lat="45.12576" lon="5.34302">
        <ele>205.2</ele>
        <time>2022-10-15T13:54:32.000Z</time>
      </trkpt>
      <trkpt lat="45.12574" lon="5.34292">
        <ele>204.5</ele>
        <time>2022-10-15T13:54:33.000Z</time>
      </trkpt>
      <trkpt lat="45.12573" lon="5.34283">
        <ele>203.9</ele>
        <time>2022-10-15T13:54:34.000Z</time>
      </trkpt>
      <trkpt lat="45.12572" lon="5.34274">
        <ele>203.8</ele>
        <time>2022-10-15T13:54:35.000Z</time>
      </trkpt>
      <trkpt lat="45.12571" lon="5.34265">
        <ele>204.1</ele>
        <time>2022-10-15T13:54:36.000Z</time>
      </trkpt>
      <trkpt lat="45.12569" lon="5.34255">
        <ele>204.4</ele>
        <time>2022-10-15T13:54:37.000Z</time>
      </trkpt>
      <trkpt lat="45.12568" lon="5.34246">
        <ele>204.1</ele>
        <time>2022-10-15T13:54:38.000Z</time>
      </trkpt>
      <trkpt lat="45.12566" lon="5.34237">
        <ele>203.3</ele>
        <time>2022-10-15T13:54:39.000Z</time>
      </trkpt>
      <trkpt lat="45.12565" lon="5.34227">
        <ele>202.8</ele>
        <time>2022-10-15T13:54:40.000Z</time>
      </trkpt>
      <trkpt lat="45.12563" lon="5.34217">
        <ele>202.4</ele>
        <time>2022-10-15T13:54:41.000Z</time>
      </trkpt>
      <trkpt lat="45.12562" lon="5.34207">
        <ele>202</ele>
        <time>2022-10-15T13:54:42.000Z</time>
      </trkpt>
      <trkpt lat="45.1256" lon="5.34197">
        <ele>202.2</ele>
        <time>2022-10-15T13:54:43.000Z</time>
      </trkpt>
      <trkpt lat="45.12559" lon="5.34187">
        <ele>202.6</ele>
        <time>2022-10-15T13:54:44.000Z</time>
      </trkpt>
      <trkpt lat="45.12557" lon="5.34178">
        <ele>203.4</ele>
        <time>2022-10-15T13:54:45.000Z</time>
      </trkpt>
      <trkpt lat="45.12555" lon="5.34168">
        <ele>204.1</ele>
        <time>2022-10-15T13:54:46.000Z</time>
      </trkpt>
      <trkpt lat="45.12554" lon="5.34159">
        <ele>204.3</ele>
        <time>2022-10-15T13:54:47.000Z</time>
      </trkpt>
      <trkpt lat="45.12552" lon="5.34149">
        <ele>204.7</ele>
        <time>2022-10-15T13:54:48.000Z</time>
      </trkpt>
      <trkpt lat="45.12551" lon="5.34139">
        <ele>205</ele>
        <time>2022-10-15T13:54:49.000Z</time>
      </trkpt>
      <trkpt lat="45.1255" lon="5.3413">
        <ele>204.8</ele>
        <time>2022-10-15T13:54:50.000Z</time>
      </trkpt>
      <trkpt lat="45.12549" lon="5.34121">
        <ele>204.7</ele>
        <time>2022-10-15T13:54:51.000Z</time>
      </trkpt>
      <trkpt lat="45.12547" lon="5.34111">
        <ele>204.6</ele>
        <time>2022-10-15T13:54:52.000Z</time>
      </trkpt>
      <trkpt lat="45.12546" lon="5.34102">
        <ele>204.9</ele>
        <time>2022-10-15T13:54:53.000Z</time>
      </trkpt>
      <trkpt lat="45.12545" lon="5.34093">
        <ele>205.2</ele>
        <time>2022-10-15T13:54:54.000Z</time>
      </trkpt>
      <trkpt lat="45.12543" lon="5.34084">
        <ele>205.4</ele>
        <time>2022-10-15T13:54:55.000Z</time>
      </trkpt>
      <trkpt lat="45.12542" lon="5.34076">
        <ele>205.5</ele>
        <time>2022-10-15T13:54:56.000Z</time>
      </trkpt>
      <trkpt lat="45.1254" lon="5.34067">
        <ele>205.6</ele>
        <time>2022-10-15T13:54:57.000Z</time>
      </trkpt>
      <trkpt lat="45.12539" lon="5.34058">
        <ele>205.6</ele>
        <time>2022-10-15T13:54:58.000Z</time>
      </trkpt>
      <trkpt lat="45.12538" lon="5.34049">
        <ele>205.6</ele>
        <time>2022-10-15T13:54:59.000Z</time>
      </trkpt>
      <trkpt lat="45.12536" lon="5.3404">
        <ele>205.7</ele>
        <time>2022-10-15T13:55:00.000Z</time>
      </trkpt>
      <trkpt lat="45.12535" lon="5.34032">
        <ele>205.7</ele>
        <time>2022-10-15T13:55:01.000Z</time>
      </trkpt>
      <trkpt lat="45.12533" lon="5.34023">
        <ele>205.8</ele>
        <time>2022-10-15T13:55:02.000Z</time>
      </trkpt>
      <trkpt lat="45.12532" lon="5.34015">
        <ele>205.8</ele>
        <time>2022-10-15T13:55:03.000Z</time>
      </trkpt>
      <trkpt lat="45.12531" lon="5.34006">
        <ele>205.9</ele>
        <time>2022-10-15T13:55:04.000Z</time>
      </trkpt>
      <trkpt lat="45.1253" lon="5.33998">
        <ele>205.9</ele>
        <time>2022-10-15T13:55:05.000Z</time>
      </trkpt>
      <trkpt lat="45.12528" lon="5.3399">
        <ele>206</ele>
        <time>2022-10-15T13:55:06.000Z</time>
      </trkpt>
      <trkpt lat="45.12527" lon="5.33982">
        <ele>206</ele>
        <time>2022-10-15T13:55:07.000Z</time>
      </trkpt>
      <trkpt lat="45.12526" lon="5.33973">
        <ele>206.1</ele>
        <time>2022-10-15T13:55:08.000Z</time>
      </trkpt>
      <trkpt lat="45.12525" lon="5.33965">
        <ele>206.2</ele>
        <time>2022-10-15T13:55:09.000Z</time>
      </trkpt>
      <trkpt lat="45.12524" lon="5.33957">
        <ele>206.2</ele>
        <time>2022-10-15T13:55:10.000Z</time>
      </trkpt>
      <trkpt lat="45.12523" lon="5.33949">
        <ele>206.2</ele>
        <time>2022-10-15T13:55:11.000Z</time>
      </trkpt>
      <trkpt lat="45.12522" lon="5.33941">
        <ele>206.1</ele>
        <time>2022-10-15T13:55:12.000Z</time>
      </trkpt>
      <trkpt lat="45.12521" lon="5.33933">
        <ele>205.8</ele>
        <time>2022-10-15T13:55:13.000Z</time>
      </trkpt>
      <trkpt lat="45.1252" lon="5.33926">
        <ele>205.6</ele>
        <time>2022-10-15T13:55:14.000Z</time>
      </trkpt>
      <trkpt lat="45.12519" lon="5.33918">
        <ele>205.4</ele>
        <time>2022-10-15T13:55:15.000Z</time>
      </trkpt>
      <trkpt lat="45.12518" lon="5.33911">
        <ele>205.4</ele>
        <time>2022-10-15T13:55:16.000Z</time>
      </trkpt>
      <trkpt lat="45.12517" lon="5.33903">
        <ele>205.4</ele>
        <time>2022-10-15T13:55:17.000Z</time>
      </trkpt>
      <trkpt lat="45.12515" lon="5.33896">
        <ele>205.4</ele>
        <time>2022-10-15T13:55:18.000Z</time>
      </trkpt>
      <trkpt lat="45.12515" lon="5.33889">
        <ele>205.5</ele>
        <time>2022-10-15T13:55:19.000Z</time>
      </trkpt>
      <trkpt lat="45.12513" lon="5.33882">
        <ele>205.3</ele>
        <time>2022-10-15T13:55:20.000Z</time>
      </trkpt>
      <trkpt lat="45.12512" lon="5.33874">
        <ele>205</ele>
        <time>2022-10-15T13:55:21.000Z</time>
      </trkpt>
      <trkpt lat="45.1251" lon="5.33866">
        <ele>204.8</ele>
        <time>2022-10-15T13:55:22.000Z</time>
      </trkpt>
      <trkpt lat="45.12509" lon="5.33857">
        <ele>204.5</ele>
        <time>2022-10-15T13:55:23.000Z</time>
      </trkpt>
      <trkpt lat="45.12508" lon="5.33848">
        <ele>204.4</ele>
        <time>2022-10-15T13:55:24.000Z</time>
      </trkpt>
      <trkpt lat="45.12506" lon="5.3384">
        <ele>204.3</ele>
        <time>2022-10-15T13:55:25.000Z</time>
      </trkpt>
      <trkpt lat="45.12504" lon="5.3383">
        <ele>204.2</ele>
        <time>2022-10-15T13:55:26.000Z</time>
      </trkpt>
      <trkpt lat="45.12503" lon="5.33821">
        <ele>203.7</ele>
        <time>2022-10-15T13:55:27.000Z</time>
      </trkpt>
      <trkpt lat="45.12501" lon="5.33812">
        <ele>203.3</ele>
        <time>2022-10-15T13:55:28.000Z</time>
      </trkpt>
      <trkpt lat="45.12499" lon="5.33803">
        <ele>202.9</ele>
        <time>2022-10-15T13:55:29.000Z</time>
      </trkpt>
      <trkpt lat="45.12498" lon="5.33794">
        <ele>202.7</ele>
        <time>2022-10-15T13:55:30.000Z</time>
      </trkpt>
      <trkpt lat="45.12496" lon="5.33785">
        <ele>202.4</ele>
        <time>2022-10-15T13:55:31.000Z</time>
      </trkpt>
      <trkpt lat="45.12494" lon="5.33776">
        <ele>200.8</ele>
        <time>2022-10-15T13:55:32.000Z</time>
      </trkpt>
      <trkpt lat="45.12493" lon="5.33766">
        <ele>194.8</ele>
        <time>2022-10-15T13:55:33.000Z</time>
      </trkpt>
      <trkpt lat="45.12491" lon="5.33756">
        <ele>188.7</ele>
        <time>2022-10-15T13:55:34.000Z</time>
      </trkpt>
      <trkpt lat="45.1249" lon="5.33747">
        <ele>184.7</ele>
        <time>2022-10-15T13:55:35.000Z</time>
      </trkpt>
      <trkpt lat="45.12488" lon="5.33737">
        <ele>185</ele>
        <time>2022-10-15T13:55:36.000Z</time>
      </trkpt>
      <trkpt lat="45.12487" lon="5.33728">
        <ele>185.3</ele>
        <time>2022-10-15T13:55:37.000Z</time>
      </trkpt>
      <trkpt lat="45.12485" lon="5.33719">
        <ele>187.7</ele>
        <time>2022-10-15T13:55:38.000Z</time>
      </trkpt>
      <trkpt lat="45.12484" lon="5.3371">
        <ele>193.2</ele>
        <time>2022-10-15T13:55:39.000Z</time>
      </trkpt>
      <trkpt lat="45.12482" lon="5.337">
        <ele>199.1</ele>
        <time>2022-10-15T13:55:40.000Z</time>
      </trkpt>
      <trkpt lat="45.12481" lon="5.33692">
        <ele>202.8</ele>
        <time>2022-10-15T13:55:41.000Z</time>
      </trkpt>
      <trkpt lat="45.12479" lon="5.33683">
        <ele>203.1</ele>
        <time>2022-10-15T13:55:42.000Z</time>
      </trkpt>
      <trkpt lat="45.12476" lon="5.33675">
        <ele>203.5</ele>
        <time>2022-10-15T13:55:43.000Z</time>
      </trkpt>
      <trkpt lat="45.12474" lon="5.33667">
        <ele>203.9</ele>
        <time>2022-10-15T13:55:44.000Z</time>
      </trkpt>
      <trkpt lat="45.12471" lon="5.33659">
        <ele>203.8</ele>
        <time>2022-10-15T13:55:45.000Z</time>
      </trkpt>
      <trkpt lat="45.12469" lon="5.33653">
        <ele>203.7</ele>
        <time>2022-10-15T13:55:46.000Z</time>
      </trkpt>
      <trkpt lat="45.12466" lon="5.33646">
        <ele>203.6</ele>
        <time>2022-10-15T13:55:47.000Z</time>
      </trkpt>
      <trkpt lat="45.12464" lon="5.3364">
        <ele>203.6</ele>
        <time>2022-10-15T13:55:48.000Z</time>
      </trkpt>
      <trkpt lat="45.12461" lon="5.33634">
        <ele>203.8</ele>
        <time>2022-10-15T13:55:49.000Z</time>
      </trkpt>
      <trkpt lat="45.12458" lon="5.33628">
        <ele>204.1</ele>
        <time>2022-10-15T13:55:50.000Z</time>
      </trkpt>
      <trkpt lat="45.12454" lon="5.33623">
        <ele>204.5</ele>
        <time>2022-10-15T13:55:51.000Z</time>
      </trkpt>
      <trkpt lat="45.12451" lon="5.33617">
        <ele>204.9</ele>
        <time>2022-10-15T13:55:52.000Z</time>
      </trkpt>
      <trkpt lat="45.12448" lon="5.33612">
        <ele>205.5</ele>
        <time>2022-10-15T13:55:53.000Z</time>
      </trkpt>
      <trkpt lat="45.12445" lon="5.33607">
        <ele>205.7</ele>
        <time>2022-10-15T13:55:54.000Z</time>
      </trkpt>
      <trkpt lat="45.12441" lon="5.33602">
        <ele>205.4</ele>
        <time>2022-10-15T13:55:55.000Z</time>
      </trkpt>
      <trkpt lat="45.12437" lon="5.33598">
        <ele>205.2</ele>
        <time>2022-10-15T13:55:56.000Z</time>
      </trkpt>
      <trkpt lat="45.12433" lon="5.33593">
        <ele>205.1</ele>
        <time>2022-10-15T13:55:57.000Z</time>
      </trkpt>
      <trkpt lat="45.12429" lon="5.33589">
        <ele>205.2</ele>
        <time>2022-10-15T13:55:58.000Z</time>
      </trkpt>
      <trkpt lat="45.12425" lon="5.33585">
        <ele>205.4</ele>
        <time>2022-10-15T13:55:59.000Z</time>
      </trkpt>
      <trkpt lat="45.12421" lon="5.33581">
        <ele>205.5</ele>
        <time>2022-10-15T13:56:00.000Z</time>
      </trkpt>
      <trkpt lat="45.12417" lon="5.33577">
        <ele>205.5</ele>
        <time>2022-10-15T13:56:01.000Z</time>
      </trkpt>
      <trkpt lat="45.12413" lon="5.33573">
        <ele>205.3</ele>
        <time>2022-10-15T13:56:02.000Z</time>
      </trkpt>
      <trkpt lat="45.12409" lon="5.33569">
        <ele>205.1</ele>
        <time>2022-10-15T13:56:03.000Z</time>
      </trkpt>
      <trkpt lat="45.12404" lon="5.33565">
        <ele>205.1</ele>
        <time>2022-10-15T13:56:04.000Z</time>
      </trkpt>
      <trkpt lat="45.124" lon="5.33561">
        <ele>205.2</ele>
        <time>2022-10-15T13:56:05.000Z</time>
      </trkpt>
      <trkpt lat="45.12396" lon="5.33558">
        <ele>205.5</ele>
        <time>2022-10-15T13:56:06.000Z</time>
      </trkpt>
      <trkpt lat="45.12392" lon="5.33554">
        <ele>205.7</ele>
        <time>2022-10-15T13:56:07.000Z</time>
      </trkpt>
      <trkpt lat="45.12388" lon="5.3355">
        <ele>205.6</ele>
        <time>2022-10-15T13:56:08.000Z</time>
      </trkpt>
      <trkpt lat="45.12383" lon="5.33546">
        <ele>205.5</ele>
        <time>2022-10-15T13:56:09.000Z</time>
      </trkpt>
      <trkpt lat="45.12379" lon="5.33543">
        <ele>205.4</ele>
        <time>2022-10-15T13:56:10.000Z</time>
      </trkpt>
      <trkpt lat="45.12375" lon="5.3354">
        <ele>205.4</ele>
        <time>2022-10-15T13:56:11.000Z</time>
      </trkpt>
      <trkpt lat="45.12371" lon="5.33536">
        <ele>205.5</ele>
        <time>2022-10-15T13:56:12.000Z</time>
      </trkpt>
      <trkpt lat="45.12367" lon="5.33532">
        <ele>205.7</ele>
        <time>2022-10-15T13:56:13.000Z</time>
      </trkpt>
      <trkpt lat="45.12362" lon="5.33528">
        <ele>205.9</ele>
        <time>2022-10-15T13:56:14.000Z</time>
      </trkpt>
      <trkpt lat="45.12358" lon="5.33524">
        <ele>206.1</ele>
        <time>2022-10-15T13:56:15.000Z</time>
      </trkpt>
      <trkpt lat="45.12354" lon="5.33521">
        <ele>206.3</ele>
        <time>2022-10-15T13:56:16.000Z</time>
      </trkpt>
      <trkpt lat="45.12349" lon="5.33518">
        <ele>206.5</ele>
        <time>2022-10-15T13:56:17.000Z</time>
      </trkpt>
      <trkpt lat="45.12345" lon="5.33515">
        <ele>206.7</ele>
        <time>2022-10-15T13:56:18.000Z</time>
      </trkpt>
      <trkpt lat="45.12341" lon="5.33511">
        <ele>206.8</ele>
        <time>2022-10-15T13:56:19.000Z</time>
      </trkpt>
      <trkpt lat="45.12337" lon="5.33508">
        <ele>207</ele>
        <time>2022-10-15T13:56:20.000Z</time>
      </trkpt>
      <trkpt lat="45.12333" lon="5.33505">
        <ele>207.2</ele>
        <time>2022-10-15T13:56:21.000Z</time>
      </trkpt>
      <trkpt lat="45.1233" lon="5.33501">
        <ele>207.3</ele>
        <time>2022-10-15T13:56:22.000Z</time>
      </trkpt>
      <trkpt lat="45.12325" lon="5.33498">
        <ele>207.5</ele>
        <time>2022-10-15T13:56:23.000Z</time>
      </trkpt>
      <trkpt lat="45.12321" lon="5.33495">
        <ele>207.8</ele>
        <time>2022-10-15T13:56:24.000Z</time>
      </trkpt>
      <trkpt lat="45.12318" lon="5.33492">
        <ele>208</ele>
        <time>2022-10-15T13:56:25.000Z</time>
      </trkpt>
      <trkpt lat="45.12314" lon="5.33488">
        <ele>208.3</ele>
        <time>2022-10-15T13:56:26.000Z</time>
      </trkpt>
      <trkpt lat="45.1231" lon="5.33485">
        <ele>208.6</ele>
        <time>2022-10-15T13:56:27.000Z</time>
      </trkpt>
      <trkpt lat="45.12306" lon="5.33481">
        <ele>208.9</ele>
        <time>2022-10-15T13:56:28.000Z</time>
      </trkpt>
      <trkpt lat="45.12302" lon="5.33478">
        <ele>209</ele>
        <time>2022-10-15T13:56:29.000Z</time>
      </trkpt>
      <trkpt lat="45.12298" lon="5.33475">
        <ele>209</ele>
        <time>2022-10-15T13:56:30.000Z</time>
      </trkpt>
      <trkpt lat="45.12294" lon="5.33472">
        <ele>209</ele>
        <time>2022-10-15T13:56:31.000Z</time>
      </trkpt>
      <trkpt lat="45.12291" lon="5.33468">
        <ele>208.9</ele>
        <time>2022-10-15T13:56:32.000Z</time>
      </trkpt>
      <trkpt lat="45.12287" lon="5.33465">
        <ele>208.9</ele>
        <time>2022-10-15T13:56:33.000Z</time>
      </trkpt>
      <trkpt lat="45.12283" lon="5.33461">
        <ele>208.9</ele>
        <time>2022-10-15T13:56:34.000Z</time>
      </trkpt>
      <trkpt lat="45.12279" lon="5.33458">
        <ele>209</ele>
        <time>2022-10-15T13:56:35.000Z</time>
      </trkpt>
      <trkpt lat="45.12276" lon="5.33454">
        <ele>209.1</ele>
        <time>2022-10-15T13:56:36.000Z</time>
      </trkpt>
      <trkpt lat="45.12272" lon="5.3345">
        <ele>209.2</ele>
        <time>2022-10-15T13:56:37.000Z</time>
      </trkpt>
      <trkpt lat="45.12268" lon="5.33446">
        <ele>209.4</ele>
        <time>2022-10-15T13:56:38.000Z</time>
      </trkpt>
      <trkpt lat="45.12264" lon="5.33442">
        <ele>209.4</ele>
        <time>2022-10-15T13:56:39.000Z</time>
      </trkpt>
      <trkpt lat="45.1226" lon="5.33439">
        <ele>209.4</ele>
        <time>2022-10-15T13:56:40.000Z</time>
      </trkpt>
      <trkpt lat="45.12256" lon="5.33435">
        <ele>209.4</ele>
        <time>2022-10-15T13:56:41.000Z</time>
      </trkpt>
      <trkpt lat="45.12253" lon="5.33431">
        <ele>209.4</ele>
        <time>2022-10-15T13:56:42.000Z</time>
      </trkpt>
      <trkpt lat="45.12249" lon="5.33427">
        <ele>209.4</ele>
        <time>2022-10-15T13:56:43.000Z</time>
      </trkpt>
      <trkpt lat="45.12245" lon="5.33424">
        <ele>209.5</ele>
        <time>2022-10-15T13:56:44.000Z</time>
      </trkpt>
      <trkpt lat="45.12241" lon="5.33421">
        <ele>209.5</ele>
        <time>2022-10-15T13:56:45.000Z</time>
      </trkpt>
      <trkpt lat="45.12237" lon="5.33418">
        <ele>209.5</ele>
        <time>2022-10-15T13:56:46.000Z</time>
      </trkpt>
      <trkpt lat="45.12233" lon="5.33415">
        <ele>209.6</ele>
        <time>2022-10-15T13:56:47.000Z</time>
      </trkpt>
      <trkpt lat="45.12229" lon="5.33412">
        <ele>209.7</ele>
        <time>2022-10-15T13:56:48.000Z</time>
      </trkpt>
      <trkpt lat="45.12225" lon="5.33408">
        <ele>209.9</ele>
        <time>2022-10-15T13:56:49.000Z</time>
      </trkpt>
      <trkpt lat="45.12221" lon="5.33405">
        <ele>210.1</ele>
        <time>2022-10-15T13:56:50.000Z</time>
      </trkpt>
      <trkpt lat="45.12218" lon="5.33402">
        <ele>210.2</ele>
        <time>2022-10-15T13:56:51.000Z</time>
      </trkpt>
      <trkpt lat="45.12215" lon="5.33398">
        <ele>210.4</ele>
        <time>2022-10-15T13:56:52.000Z</time>
      </trkpt>
      <trkpt lat="45.12211" lon="5.33395">
        <ele>210.5</ele>
        <time>2022-10-15T13:56:53.000Z</time>
      </trkpt>
      <trkpt lat="45.12208" lon="5.33391">
        <ele>210.6</ele>
        <time>2022-10-15T13:56:54.000Z</time>
      </trkpt>
      <trkpt lat="45.12204" lon="5.33387">
        <ele>210.5</ele>
        <time>2022-10-15T13:56:55.000Z</time>
      </trkpt>
      <trkpt lat="45.122" lon="5.33383">
        <ele>210.4</ele>
        <time>2022-10-15T13:56:56.000Z</time>
      </trkpt>
      <trkpt lat="45.12196" lon="5.33379">
        <ele>210.2</ele>
        <time>2022-10-15T13:56:57.000Z</time>
      </trkpt>
      <trkpt lat="45.12192" lon="5.33374">
        <ele>210</ele>
        <time>2022-10-15T13:56:58.000Z</time>
      </trkpt>
      <trkpt lat="45.12188" lon="5.33369">
        <ele>210</ele>
        <time>2022-10-15T13:56:59.000Z</time>
      </trkpt>
      <trkpt lat="45.12184" lon="5.33364">
        <ele>209.9</ele>
        <time>2022-10-15T13:57:00.000Z</time>
      </trkpt>
      <trkpt lat="45.1218" lon="5.33359">
        <ele>209.9</ele>
        <time>2022-10-15T13:57:01.000Z</time>
      </trkpt>
      <trkpt lat="45.12176" lon="5.33354">
        <ele>209.8</ele>
        <time>2022-10-15T13:57:02.000Z</time>
      </trkpt>
      <trkpt lat="45.12171" lon="5.33348">
        <ele>209.7</ele>
        <time>2022-10-15T13:57:03.000Z</time>
      </trkpt>
      <trkpt lat="45.12167" lon="5.33342">
        <ele>209.6</ele>
        <time>2022-10-15T13:57:04.000Z</time>
      </trkpt>
      <trkpt lat="45.12162" lon="5.33336">
        <ele>209.3</ele>
        <time>2022-10-15T13:57:05.000Z</time>
      </trkpt>
      <trkpt lat="45.12157" lon="5.33329">
        <ele>208.2</ele>
        <time>2022-10-15T13:57:06.000Z</time>
      </trkpt>
      <trkpt lat="45.12152" lon="5.33323">
        <ele>206.9</ele>
        <time>2022-10-15T13:57:07.000Z</time>
      </trkpt>
      <trkpt lat="45.12147" lon="5.33317">
        <ele>205.9</ele>
        <time>2022-10-15T13:57:08.000Z</time>
      </trkpt>
      <trkpt lat="45.12142" lon="5.33311">
        <ele>205.4</ele>
        <time>2022-10-15T13:57:09.000Z</time>
      </trkpt>
      <trkpt lat="45.12137" lon="5.33304">
        <ele>204.7</ele>
        <time>2022-10-15T13:57:10.000Z</time>
      </trkpt>
      <trkpt lat="45.12133" lon="5.33298">
        <ele>204.5</ele>
        <time>2022-10-15T13:57:11.000Z</time>
      </trkpt>
      <trkpt lat="45.12128" lon="5.33292">
        <ele>204.9</ele>
        <time>2022-10-15T13:57:12.000Z</time>
      </trkpt>
      <trkpt lat="45.12124" lon="5.33286">
        <ele>206.1</ele>
        <time>2022-10-15T13:57:13.000Z</time>
      </trkpt>
      <trkpt lat="45.12119" lon="5.3328">
        <ele>207.9</ele>
        <time>2022-10-15T13:57:14.000Z</time>
      </trkpt>
      <trkpt lat="45.12115" lon="5.33274">
        <ele>209.3</ele>
        <time>2022-10-15T13:57:15.000Z</time>
      </trkpt>
      <trkpt lat="45.1211" lon="5.33268">
        <ele>209.7</ele>
        <time>2022-10-15T13:57:16.000Z</time>
      </trkpt>
      <trkpt lat="45.12106" lon="5.33263">
        <ele>209.8</ele>
        <time>2022-10-15T13:57:17.000Z</time>
      </trkpt>
      <trkpt lat="45.12102" lon="5.33257">
        <ele>209.9</ele>
        <time>2022-10-15T13:57:18.000Z</time>
      </trkpt>
      <trkpt lat="45.12097" lon="5.33251">
        <ele>210</ele>
        <time>2022-10-15T13:57:19.000Z</time>
      </trkpt>
      <trkpt lat="45.12093" lon="5.33246">
        <ele>210.4</ele>
        <time>2022-10-15T13:57:20.000Z</time>
      </trkpt>
      <trkpt lat="45.1209" lon="5.3324">
        <ele>210.6</ele>
        <time>2022-10-15T13:57:21.000Z</time>
      </trkpt>
      <trkpt lat="45.12086" lon="5.33234">
        <ele>210.9</ele>
        <time>2022-10-15T13:57:22.000Z</time>
      </trkpt>
      <trkpt lat="45.12082" lon="5.33229">
        <ele>211.1</ele>
        <time>2022-10-15T13:57:23.000Z</time>
      </trkpt>
      <trkpt lat="45.12078" lon="5.33224">
        <ele>211.2</ele>
        <time>2022-10-15T13:57:24.000Z</time>
      </trkpt>
      <trkpt lat="45.12074" lon="5.33219">
        <ele>211.3</ele>
        <time>2022-10-15T13:57:25.000Z</time>
      </trkpt>
      <trkpt lat="45.12071" lon="5.33214">
        <ele>211.5</ele>
        <time>2022-10-15T13:57:26.000Z</time>
      </trkpt>
      <trkpt lat="45.12067" lon="5.33209">
        <ele>211.6</ele>
        <time>2022-10-15T13:57:27.000Z</time>
      </trkpt>
      <trkpt lat="45.12064" lon="5.33204">
        <ele>211.7</ele>
        <time>2022-10-15T13:57:28.000Z</time>
      </trkpt>
      <trkpt lat="45.1206" lon="5.33198">
        <ele>211.8</ele>
        <time>2022-10-15T13:57:29.000Z</time>
      </trkpt>
      <trkpt lat="45.12057" lon="5.33194">
        <ele>212</ele>
        <time>2022-10-15T13:57:30.000Z</time>
      </trkpt>
      <trkpt lat="45.12053" lon="5.33189">
        <ele>212.1</ele>
        <time>2022-10-15T13:57:31.000Z</time>
      </trkpt>
      <trkpt lat="45.1205" lon="5.33184">
        <ele>212.2</ele>
        <time>2022-10-15T13:57:32.000Z</time>
      </trkpt>
      <trkpt lat="45.12046" lon="5.33179">
        <ele>212.3</ele>
        <time>2022-10-15T13:57:33.000Z</time>
      </trkpt>
      <trkpt lat="45.12043" lon="5.33175">
        <ele>212.5</ele>
        <time>2022-10-15T13:57:34.000Z</time>
      </trkpt>
      <trkpt lat="45.12039" lon="5.3317">
        <ele>212.6</ele>
        <time>2022-10-15T13:57:35.000Z</time>
      </trkpt>
      <trkpt lat="45.12035" lon="5.33165">
        <ele>212.7</ele>
        <time>2022-10-15T13:57:36.000Z</time>
      </trkpt>
      <trkpt lat="45.12032" lon="5.3316">
        <ele>212.6</ele>
        <time>2022-10-15T13:57:37.000Z</time>
      </trkpt>
      <trkpt lat="45.12028" lon="5.33155">
        <ele>212.6</ele>
        <time>2022-10-15T13:57:38.000Z</time>
      </trkpt>
      <trkpt lat="45.12025" lon="5.3315">
        <ele>212.5</ele>
        <time>2022-10-15T13:57:39.000Z</time>
      </trkpt>
      <trkpt lat="45.12021" lon="5.33145">
        <ele>212.4</ele>
        <time>2022-10-15T13:57:40.000Z</time>
      </trkpt>
      <trkpt lat="45.12018" lon="5.3314">
        <ele>212.4</ele>
        <time>2022-10-15T13:57:41.000Z</time>
      </trkpt>
      <trkpt lat="45.12014" lon="5.33134">
        <ele>212.5</ele>
        <time>2022-10-15T13:57:42.000Z</time>
      </trkpt>
      <trkpt lat="45.1201" lon="5.33129">
        <ele>212.6</ele>
        <time>2022-10-15T13:57:43.000Z</time>
      </trkpt>
      <trkpt lat="45.12006" lon="5.33123">
        <ele>212.8</ele>
        <time>2022-10-15T13:57:44.000Z</time>
      </trkpt>
      <trkpt lat="45.12002" lon="5.33118">
        <ele>212.9</ele>
        <time>2022-10-15T13:57:45.000Z</time>
      </trkpt>
      <trkpt lat="45.11998" lon="5.33112">
        <ele>213</ele>
        <time>2022-10-15T13:57:46.000Z</time>
      </trkpt>
      <trkpt lat="45.11994" lon="5.33107">
        <ele>212.9</ele>
        <time>2022-10-15T13:57:47.000Z</time>
      </trkpt>
      <trkpt lat="45.1199" lon="5.33101">
        <ele>212.8</ele>
        <time>2022-10-15T13:57:48.000Z</time>
      </trkpt>
      <trkpt lat="45.11985" lon="5.33096">
        <ele>212.7</ele>
        <time>2022-10-15T13:57:49.000Z</time>
      </trkpt>
      <trkpt lat="45.11981" lon="5.3309">
        <ele>212.8</ele>
        <time>2022-10-15T13:57:50.000Z</time>
      </trkpt>
      <trkpt lat="45.11977" lon="5.33085">
        <ele>212.9</ele>
        <time>2022-10-15T13:57:51.000Z</time>
      </trkpt>
      <trkpt lat="45.11972" lon="5.33079">
        <ele>213</ele>
        <time>2022-10-15T13:57:52.000Z</time>
      </trkpt>
      <trkpt lat="45.11968" lon="5.33073">
        <ele>213.2</ele>
        <time>2022-10-15T13:57:53.000Z</time>
      </trkpt>
      <trkpt lat="45.11964" lon="5.33068">
        <ele>213.3</ele>
        <time>2022-10-15T13:57:54.000Z</time>
      </trkpt>
      <trkpt lat="45.1196" lon="5.33064">
        <ele>213.4</ele>
        <time>2022-10-15T13:57:55.000Z</time>
      </trkpt>
      <trkpt lat="45.11957" lon="5.33059">
        <ele>213.6</ele>
        <time>2022-10-15T13:57:56.000Z</time>
      </trkpt>
      <trkpt lat="45.11953" lon="5.33054">
        <ele>213.6</ele>
        <time>2022-10-15T13:57:57.000Z</time>
      </trkpt>
      <trkpt lat="45.11949" lon="5.33048">
        <ele>213.6</ele>
        <time>2022-10-15T13:57:58.000Z</time>
      </trkpt>
      <trkpt lat="45.11944" lon="5.33042">
        <ele>213.5</ele>
        <time>2022-10-15T13:57:59.000Z</time>
      </trkpt>
      <trkpt lat="45.1194" lon="5.33036">
        <ele>213.4</ele>
        <time>2022-10-15T13:58:00.000Z</time>
      </trkpt>
      <trkpt lat="45.11935" lon="5.3303">
        <ele>213.4</ele>
        <time>2022-10-15T13:58:01.000Z</time>
      </trkpt>
      <trkpt lat="45.1193" lon="5.33024">
        <ele>213.5</ele>
        <time>2022-10-15T13:58:02.000Z</time>
      </trkpt>
      <trkpt lat="45.11925" lon="5.33017">
        <ele>213.7</ele>
        <time>2022-10-15T13:58:03.000Z</time>
      </trkpt>
      <trkpt lat="45.1192" lon="5.3301">
        <ele>213.9</ele>
        <time>2022-10-15T13:58:04.000Z</time>
      </trkpt>
      <trkpt lat="45.11915" lon="5.33004">
        <ele>214</ele>
        <time>2022-10-15T13:58:05.000Z</time>
      </trkpt>
      <trkpt lat="45.1191" lon="5.32997">
        <ele>213.9</ele>
        <time>2022-10-15T13:58:06.000Z</time>
      </trkpt>
      <trkpt lat="45.11905" lon="5.32991">
        <ele>213.8</ele>
        <time>2022-10-15T13:58:07.000Z</time>
      </trkpt>
      <trkpt lat="45.11901" lon="5.32985">
        <ele>213.8</ele>
        <time>2022-10-15T13:58:08.000Z</time>
      </trkpt>
      <trkpt lat="45.11896" lon="5.32978">
        <ele>213.8</ele>
        <time>2022-10-15T13:58:09.000Z</time>
      </trkpt>
      <trkpt lat="45.11892" lon="5.32972">
        <ele>213.9</ele>
        <time>2022-10-15T13:58:10.000Z</time>
      </trkpt>
      <trkpt lat="45.11887" lon="5.32965">
        <ele>213.8</ele>
        <time>2022-10-15T13:58:11.000Z</time>
      </trkpt>
      <trkpt lat="45.11882" lon="5.32959">
        <ele>213.6</ele>
        <time>2022-10-15T13:58:12.000Z</time>
      </trkpt>
      <trkpt lat="45.11877" lon="5.32952">
        <ele>213.6</ele>
        <time>2022-10-15T13:58:13.000Z</time>
      </trkpt>
      <trkpt lat="45.11873" lon="5.32946">
        <ele>213.6</ele>
        <time>2022-10-15T13:58:14.000Z</time>
      </trkpt>
      <trkpt lat="45.11868" lon="5.3294">
        <ele>213.6</ele>
        <time>2022-10-15T13:58:15.000Z</time>
      </trkpt>
      <trkpt lat="45.11863" lon="5.32934">
        <ele>213.6</ele>
        <time>2022-10-15T13:58:16.000Z</time>
      </trkpt>
      <trkpt lat="45.11859" lon="5.32927">
        <ele>213.4</ele>
        <time>2022-10-15T13:58:17.000Z</time>
      </trkpt>
      <trkpt lat="45.11854" lon="5.32921">
        <ele>213.4</ele>
        <time>2022-10-15T13:58:18.000Z</time>
      </trkpt>
      <trkpt lat="45.11849" lon="5.32916">
        <ele>213.4</ele>
        <time>2022-10-15T13:58:19.000Z</time>
      </trkpt>
      <trkpt lat="45.11845" lon="5.32909">
        <ele>213.6</ele>
        <time>2022-10-15T13:58:20.000Z</time>
      </trkpt>
      <trkpt lat="45.11841" lon="5.32903">
        <ele>213.7</ele>
        <time>2022-10-15T13:58:21.000Z</time>
      </trkpt>
      <trkpt lat="45.11837" lon="5.32897">
        <ele>213.9</ele>
        <time>2022-10-15T13:58:22.000Z</time>
      </trkpt>
      <trkpt lat="45.11834" lon="5.32891">
        <ele>214</ele>
        <time>2022-10-15T13:58:23.000Z</time>
      </trkpt>
      <trkpt lat="45.1183" lon="5.32885">
        <ele>213.8</ele>
        <time>2022-10-15T13:58:24.000Z</time>
      </trkpt>
      <trkpt lat="45.11825" lon="5.32879">
        <ele>213.6</ele>
        <time>2022-10-15T13:58:25.000Z</time>
      </trkpt>
      <trkpt lat="45.11821" lon="5.32873">
        <ele>213.4</ele>
        <time>2022-10-15T13:58:26.000Z</time>
      </trkpt>
      <trkpt lat="45.11818" lon="5.32867">
        <ele>213.2</ele>
        <time>2022-10-15T13:58:27.000Z</time>
      </trkpt>
      <trkpt lat="45.11814" lon="5.32861">
        <ele>213</ele>
        <time>2022-10-15T13:58:28.000Z</time>
      </trkpt>
      <trkpt lat="45.1181" lon="5.32856">
        <ele>213</ele>
        <time>2022-10-15T13:58:29.000Z</time>
      </trkpt>
      <trkpt lat="45.11807" lon="5.32851">
        <ele>213</ele>
        <time>2022-10-15T13:58:30.000Z</time>
      </trkpt>
      <trkpt lat="45.11802" lon="5.32846">
        <ele>213.2</ele>
        <time>2022-10-15T13:58:31.000Z</time>
      </trkpt>
      <trkpt lat="45.11798" lon="5.32841">
        <ele>213.3</ele>
        <time>2022-10-15T13:58:32.000Z</time>
      </trkpt>
      <trkpt lat="45.11794" lon="5.32835">
        <ele>213.4</ele>
        <time>2022-10-15T13:58:33.000Z</time>
      </trkpt>
      <trkpt lat="45.11791" lon="5.3283">
        <ele>213.5</ele>
        <time>2022-10-15T13:58:34.000Z</time>
      </trkpt>
      <trkpt lat="45.11787" lon="5.32825">
        <ele>213.7</ele>
        <time>2022-10-15T13:58:35.000Z</time>
      </trkpt>
      <trkpt lat="45.11784" lon="5.32821">
        <ele>213.8</ele>
        <time>2022-10-15T13:58:36.000Z</time>
      </trkpt>
      <trkpt lat="45.1178" lon="5.32817">
        <ele>213.9</ele>
        <time>2022-10-15T13:58:37.000Z</time>
      </trkpt>
      <trkpt lat="45.11777" lon="5.32813">
        <ele>214</ele>
        <time>2022-10-15T13:58:38.000Z</time>
      </trkpt>
      <trkpt lat="45.11776" lon="5.3281">
        <ele>214</ele>
        <time>2022-10-15T13:58:39.000Z</time>
      </trkpt>
      <trkpt lat="45.11774" lon="5.32807">
        <ele>214</ele>
        <time>2022-10-15T13:58:40.000Z</time>
      </trkpt>
      <trkpt lat="45.11771" lon="5.32804">
        <ele>214</ele>
        <time>2022-10-15T13:58:41.000Z</time>
      </trkpt>
      <trkpt lat="45.11769" lon="5.328">
        <ele>214</ele>
        <time>2022-10-15T13:58:42.000Z</time>
      </trkpt>
      <trkpt lat="45.11766" lon="5.32796">
        <ele>214</ele>
        <time>2022-10-15T13:58:43.000Z</time>
      </trkpt>
      <trkpt lat="45.11763" lon="5.32792">
        <ele>214</ele>
        <time>2022-10-15T13:58:44.000Z</time>
      </trkpt>
      <trkpt lat="45.1176" lon="5.32789">
        <ele>214</ele>
        <time>2022-10-15T13:58:45.000Z</time>
      </trkpt>
      <trkpt lat="45.11758" lon="5.32786">
        <ele>214</ele>
        <time>2022-10-15T13:58:46.000Z</time>
      </trkpt>
      <trkpt lat="45.11756" lon="5.32783">
        <ele>214</ele>
        <time>2022-10-15T13:58:47.000Z</time>
      </trkpt>
      <trkpt lat="45.11755" lon="5.32781">
        <ele>214</ele>
        <time>2022-10-15T13:58:48.000Z</time>
      </trkpt>
      <trkpt lat="45.11754" lon="5.32779">
        <ele>214</ele>
        <time>2022-10-15T13:58:49.000Z</time>
      </trkpt>
      <trkpt lat="45.11753" lon="5.32776">
        <ele>214</ele>
        <time>2022-10-15T13:58:50.000Z</time>
      </trkpt>
      <trkpt lat="45.11751" lon="5.32773">
        <ele>214</ele>
        <time>2022-10-15T13:58:51.000Z</time>
      </trkpt>
      <trkpt lat="45.1175" lon="5.32769">
        <ele>214</ele>
        <time>2022-10-15T13:58:52.000Z</time>
      </trkpt>
      <trkpt lat="45.11748" lon="5.32766">
        <ele>214</ele>
        <time>2022-10-15T13:58:53.000Z</time>
      </trkpt>
      <trkpt lat="45.11746" lon="5.32763">
        <ele>214</ele>
        <time>2022-10-15T13:58:54.000Z</time>
      </trkpt>
      <trkpt lat="45.11743" lon="5.3276">
        <ele>214</ele>
        <time>2022-10-15T13:58:55.000Z</time>
      </trkpt>
      <trkpt lat="45.11742" lon="5.32757">
        <ele>214</ele>
        <time>2022-10-15T13:58:56.000Z</time>
      </trkpt>
      <trkpt lat="45.11742" lon="5.32753">
        <ele>214</ele>
        <time>2022-10-15T13:58:57.000Z</time>
      </trkpt>
      <trkpt lat="45.11743" lon="5.3275">
        <ele>214</ele>
        <time>2022-10-15T13:58:58.000Z</time>
      </trkpt>
      <trkpt lat="45.11744" lon="5.32747">
        <ele>213.9</ele>
        <time>2022-10-15T13:58:59.000Z</time>
      </trkpt>
      <trkpt lat="45.11746" lon="5.32744">
        <ele>213.8</ele>
        <time>2022-10-15T13:59:00.000Z</time>
      </trkpt>
      <trkpt lat="45.11746" lon="5.32739">
        <ele>213.7</ele>
        <time>2022-10-15T13:59:01.000Z</time>
      </trkpt>
      <trkpt lat="45.11745" lon="5.32734">
        <ele>213.5</ele>
        <time>2022-10-15T13:59:02.000Z</time>
      </trkpt>
      <trkpt lat="45.11743" lon="5.3273">
        <ele>213.5</ele>
        <time>2022-10-15T13:59:03.000Z</time>
      </trkpt>
      <trkpt lat="45.1174" lon="5.32727">
        <ele>213.5</ele>
        <time>2022-10-15T13:59:04.000Z</time>
      </trkpt>
      <trkpt lat="45.11736" lon="5.32725">
        <ele>213.6</ele>
        <time>2022-10-15T13:59:05.000Z</time>
      </trkpt>
      <trkpt lat="45.11732" lon="5.32724">
        <ele>213.7</ele>
        <time>2022-10-15T13:59:06.000Z</time>
      </trkpt>
      <trkpt lat="45.11727" lon="5.32724">
        <ele>213.8</ele>
        <time>2022-10-15T13:59:07.000Z</time>
      </trkpt>
      <trkpt lat="45.11722" lon="5.32723">
        <ele>214</ele>
        <time>2022-10-15T13:59:08.000Z</time>
      </trkpt>
      <trkpt lat="45.11718" lon="5.32721">
        <ele>214</ele>
        <time>2022-10-15T13:59:09.000Z</time>
      </trkpt>
      <trkpt lat="45.11716" lon="5.32719">
        <ele>213.9</ele>
        <time>2022-10-15T13:59:10.000Z</time>
      </trkpt>
      <trkpt lat="45.11712" lon="5.32717">
        <ele>213.9</ele>
        <time>2022-10-15T13:59:21.000Z</time>
      </trkpt>
      <trkpt lat="45.11709" lon="5.32713">
        <ele>213.8</ele>
        <time>2022-10-15T13:59:23.000Z</time>
      </trkpt>
      <trkpt lat="45.11707" lon="5.3271">
        <ele>213.8</ele>
        <time>2022-10-15T13:59:24.000Z</time>
      </trkpt>
      <trkpt lat="45.11704" lon="5.32705">
        <ele>213.8</ele>
        <time>2022-10-15T13:59:25.000Z</time>
      </trkpt>
      <trkpt lat="45.11702" lon="5.327">
        <ele>213.8</ele>
        <time>2022-10-15T13:59:26.000Z</time>
      </trkpt>
      <trkpt lat="45.11698" lon="5.32695">
        <ele>213.9</ele>
        <time>2022-10-15T13:59:27.000Z</time>
      </trkpt>
      <trkpt lat="45.11694" lon="5.3269">
        <ele>214</ele>
        <time>2022-10-15T13:59:28.000Z</time>
      </trkpt>
      <trkpt lat="45.1169" lon="5.32684">
        <ele>214</ele>
        <time>2022-10-15T13:59:29.000Z</time>
      </trkpt>
      <trkpt lat="45.11686" lon="5.32679">
        <ele>214</ele>
        <time>2022-10-15T13:59:30.000Z</time>
      </trkpt>
      <trkpt lat="45.11681" lon="5.32673">
        <ele>214</ele>
        <time>2022-10-15T13:59:31.000Z</time>
      </trkpt>
      <trkpt lat="45.11677" lon="5.32667">
        <ele>214</ele>
        <time>2022-10-15T13:59:32.000Z</time>
      </trkpt>
      <trkpt lat="45.11673" lon="5.32661">
        <ele>213.6</ele>
        <time>2022-10-15T13:59:33.000Z</time>
      </trkpt>
      <trkpt lat="45.11669" lon="5.32657">
        <ele>213.3</ele>
        <time>2022-10-15T13:59:34.000Z</time>
      </trkpt>
      <trkpt lat="45.11664" lon="5.32652">
        <ele>213</ele>
        <time>2022-10-15T13:59:35.000Z</time>
      </trkpt>
      <trkpt lat="45.1166" lon="5.32648">
        <ele>212.6</ele>
        <time>2022-10-15T13:59:36.000Z</time>
      </trkpt>
      <trkpt lat="45.11656" lon="5.32643">
        <ele>212.3</ele>
        <time>2022-10-15T13:59:37.000Z</time>
      </trkpt>
      <trkpt lat="45.11652" lon="5.32638">
        <ele>212.1</ele>
        <time>2022-10-15T13:59:38.000Z</time>
      </trkpt>
      <trkpt lat="45.11649" lon="5.32632">
        <ele>212.5</ele>
        <time>2022-10-15T13:59:39.000Z</time>
      </trkpt>
      <trkpt lat="45.11648" lon="5.32626">
        <ele>213.1</ele>
        <time>2022-10-15T13:59:40.000Z</time>
      </trkpt>
      <trkpt lat="45.11647" lon="5.32618">
        <ele>213.8</ele>
        <time>2022-10-15T13:59:41.000Z</time>
      </trkpt>
      <trkpt lat="45.11648" lon="5.3261">
        <ele>214.4</ele>
        <time>2022-10-15T13:59:42.000Z</time>
      </trkpt>
      <trkpt lat="45.11648" lon="5.32602">
        <ele>214.4</ele>
        <time>2022-10-15T13:59:43.000Z</time>
      </trkpt>
      <trkpt lat="45.11648" lon="5.32594">
        <ele>214.4</ele>
        <time>2022-10-15T13:59:44.000Z</time>
      </trkpt>
      <trkpt lat="45.11647" lon="5.32586">
        <ele>214.4</ele>
        <time>2022-10-15T13:59:45.000Z</time>
      </trkpt>
      <trkpt lat="45.11646" lon="5.32578">
        <ele>214.5</ele>
        <time>2022-10-15T13:59:46.000Z</time>
      </trkpt>
      <trkpt lat="45.11646" lon="5.32569">
        <ele>214.6</ele>
        <time>2022-10-15T13:59:47.000Z</time>
      </trkpt>
      <trkpt lat="45.11645" lon="5.32561">
        <ele>214.7</ele>
        <time>2022-10-15T13:59:48.000Z</time>
      </trkpt>
      <trkpt lat="45.11644" lon="5.32554">
        <ele>214.8</ele>
        <time>2022-10-15T13:59:49.000Z</time>
      </trkpt>
      <trkpt lat="45.11643" lon="5.32546">
        <ele>214.8</ele>
        <time>2022-10-15T13:59:50.000Z</time>
      </trkpt>
      <trkpt lat="45.11643" lon="5.32539">
        <ele>214.9</ele>
        <time>2022-10-15T13:59:51.000Z</time>
      </trkpt>
      <trkpt lat="45.11643" lon="5.32532">
        <ele>214.8</ele>
        <time>2022-10-15T13:59:52.000Z</time>
      </trkpt>
      <trkpt lat="45.11644" lon="5.32525">
        <ele>214.8</ele>
        <time>2022-10-15T13:59:53.000Z</time>
      </trkpt>
      <trkpt lat="45.11644" lon="5.32517">
        <ele>214.8</ele>
        <time>2022-10-15T13:59:54.000Z</time>
      </trkpt>
      <trkpt lat="45.11644" lon="5.32509">
        <ele>214.8</ele>
        <time>2022-10-15T13:59:55.000Z</time>
      </trkpt>
      <trkpt lat="45.11644" lon="5.32501">
        <ele>214.8</ele>
        <time>2022-10-15T13:59:56.000Z</time>
      </trkpt>
      <trkpt lat="45.11644" lon="5.32494">
        <ele>214.8</ele>
        <time>2022-10-15T13:59:57.000Z</time>
      </trkpt>
      <trkpt lat="45.11646" lon="5.32486">
        <ele>214.8</ele>
        <time>2022-10-15T13:59:58.000Z</time>
      </trkpt>
      <trkpt lat="45.11646" lon="5.32478">
        <ele>214.7</ele>
        <time>2022-10-15T13:59:59.000Z</time>
      </trkpt>
      <trkpt lat="45.11647" lon="5.32469">
        <ele>214.7</ele>
        <time>2022-10-15T14:00:00.000Z</time>
      </trkpt>
      <trkpt lat="45.11647" lon="5.3246">
        <ele>214.7</ele>
        <time>2022-10-15T14:00:01.000Z</time>
      </trkpt>
      <trkpt lat="45.11648" lon="5.32453">
        <ele>214.7</ele>
        <time>2022-10-15T14:00:02.000Z</time>
      </trkpt>
      <trkpt lat="45.11649" lon="5.32444">
        <ele>214.7</ele>
        <time>2022-10-15T14:00:03.000Z</time>
      </trkpt>
      <trkpt lat="45.11649" lon="5.32435">
        <ele>215</ele>
        <time>2022-10-15T14:00:04.000Z</time>
      </trkpt>
      <trkpt lat="45.11649" lon="5.32426">
        <ele>215.3</ele>
        <time>2022-10-15T14:00:05.000Z</time>
      </trkpt>
      <trkpt lat="45.1165" lon="5.32418">
        <ele>215.5</ele>
        <time>2022-10-15T14:00:06.000Z</time>
      </trkpt>
      <trkpt lat="45.1165" lon="5.3241">
        <ele>215.3</ele>
        <time>2022-10-15T14:00:07.000Z</time>
      </trkpt>
      <trkpt lat="45.11651" lon="5.32401">
        <ele>215</ele>
        <time>2022-10-15T14:00:08.000Z</time>
      </trkpt>
      <trkpt lat="45.11652" lon="5.32392">
        <ele>214.7</ele>
        <time>2022-10-15T14:00:09.000Z</time>
      </trkpt>
      <trkpt lat="45.11652" lon="5.32383">
        <ele>214.5</ele>
        <time>2022-10-15T14:00:10.000Z</time>
      </trkpt>
      <trkpt lat="45.11652" lon="5.32375">
        <ele>214.5</ele>
        <time>2022-10-15T14:00:11.000Z</time>
      </trkpt>
      <trkpt lat="45.11652" lon="5.32366">
        <ele>214.5</ele>
        <time>2022-10-15T14:00:12.000Z</time>
      </trkpt>
      <trkpt lat="45.11653" lon="5.32357">
        <ele>214.5</ele>
        <time>2022-10-15T14:00:13.000Z</time>
      </trkpt>
      <trkpt lat="45.11654" lon="5.32349">
        <ele>214.4</ele>
        <time>2022-10-15T14:00:14.000Z</time>
      </trkpt>
      <trkpt lat="45.11655" lon="5.32342">
        <ele>214.4</ele>
        <time>2022-10-15T14:00:15.000Z</time>
      </trkpt>
      <trkpt lat="45.11657" lon="5.32335">
        <ele>214.4</ele>
        <time>2022-10-15T14:00:16.000Z</time>
      </trkpt>
      <trkpt lat="45.11657" lon="5.32327">
        <ele>214.3</ele>
        <time>2022-10-15T14:00:17.000Z</time>
      </trkpt>
      <trkpt lat="45.11657" lon="5.3232">
        <ele>214.3</ele>
        <time>2022-10-15T14:00:18.000Z</time>
      </trkpt>
      <trkpt lat="45.11658" lon="5.32313">
        <ele>214.3</ele>
        <time>2022-10-15T14:00:19.000Z</time>
      </trkpt>
      <trkpt lat="45.11658" lon="5.32307">
        <ele>214.3</ele>
        <time>2022-10-15T14:00:20.000Z</time>
      </trkpt>
      <trkpt lat="45.11659" lon="5.323">
        <ele>214.3</ele>
        <time>2022-10-15T14:00:21.000Z</time>
      </trkpt>
      <trkpt lat="45.11659" lon="5.32293">
        <ele>214.3</ele>
        <time>2022-10-15T14:00:22.000Z</time>
      </trkpt>
      <trkpt lat="45.11659" lon="5.32286">
        <ele>214.3</ele>
        <time>2022-10-15T14:00:23.000Z</time>
      </trkpt>
      <trkpt lat="45.11659" lon="5.32279">
        <ele>214.3</ele>
        <time>2022-10-15T14:00:24.000Z</time>
      </trkpt>
      <trkpt lat="45.11659" lon="5.32272">
        <ele>214.3</ele>
        <time>2022-10-15T14:00:25.000Z</time>
      </trkpt>
      <trkpt lat="45.11657" lon="5.32263">
        <ele>214.4</ele>
        <time>2022-10-15T14:00:26.000Z</time>
      </trkpt>
      <trkpt lat="45.11655" lon="5.32255">
        <ele>214.4</ele>
        <time>2022-10-15T14:00:27.000Z</time>
      </trkpt>
      <trkpt lat="45.11652" lon="5.32247">
        <ele>214.5</ele>
        <time>2022-10-15T14:00:28.000Z</time>
      </trkpt>
      <trkpt lat="45.11649" lon="5.32239">
        <ele>214.4</ele>
        <time>2022-10-15T14:00:29.000Z</time>
      </trkpt>
      <trkpt lat="45.11645" lon="5.32231">
        <ele>214.2</ele>
        <time>2022-10-15T14:00:30.000Z</time>
      </trkpt>
      <trkpt lat="45.11642" lon="5.32222">
        <ele>214</ele>
        <time>2022-10-15T14:00:31.000Z</time>
      </trkpt>
      <trkpt lat="45.1164" lon="5.32213">
        <ele>214</ele>
        <time>2022-10-15T14:00:32.000Z</time>
      </trkpt>
      <trkpt lat="45.11638" lon="5.32203">
        <ele>214</ele>
        <time>2022-10-15T14:00:33.000Z</time>
      </trkpt>
      <trkpt lat="45.11637" lon="5.32193">
        <ele>214</ele>
        <time>2022-10-15T14:00:34.000Z</time>
      </trkpt>
      <trkpt lat="45.11637" lon="5.32183">
        <ele>214</ele>
        <time>2022-10-15T14:00:35.000Z</time>
      </trkpt>
      <trkpt lat="45.11638" lon="5.32173">
        <ele>214</ele>
        <time>2022-10-15T14:00:36.000Z</time>
      </trkpt>
      <trkpt lat="45.11639" lon="5.32163">
        <ele>214.1</ele>
        <time>2022-10-15T14:00:37.000Z</time>
      </trkpt>
      <trkpt lat="45.11641" lon="5.32154">
        <ele>214.4</ele>
        <time>2022-10-15T14:00:38.000Z</time>
      </trkpt>
      <trkpt lat="45.11642" lon="5.32144">
        <ele>214.6</ele>
        <time>2022-10-15T14:00:39.000Z</time>
      </trkpt>
      <trkpt lat="45.11644" lon="5.32134">
        <ele>214.5</ele>
        <time>2022-10-15T14:00:40.000Z</time>
      </trkpt>
      <trkpt lat="45.11644" lon="5.32123">
        <ele>214.2</ele>
        <time>2022-10-15T14:00:41.000Z</time>
      </trkpt>
      <trkpt lat="45.11642" lon="5.32113">
        <ele>214</ele>
        <time>2022-10-15T14:00:42.000Z</time>
      </trkpt>
      <trkpt lat="45.11639" lon="5.32104">
        <ele>214</ele>
        <time>2022-10-15T14:00:43.000Z</time>
      </trkpt>
      <trkpt lat="45.11636" lon="5.32096">
        <ele>214</ele>
        <time>2022-10-15T14:00:44.000Z</time>
      </trkpt>
      <trkpt lat="45.11631" lon="5.32089">
        <ele>214</ele>
        <time>2022-10-15T14:00:45.000Z</time>
      </trkpt>
      <trkpt lat="45.11625" lon="5.32083">
        <ele>214</ele>
        <time>2022-10-15T14:00:46.000Z</time>
      </trkpt>
      <trkpt lat="45.1162" lon="5.32078">
        <ele>213.9</ele>
        <time>2022-10-15T14:00:47.000Z</time>
      </trkpt>
      <trkpt lat="45.11614" lon="5.32072">
        <ele>214</ele>
        <time>2022-10-15T14:00:48.000Z</time>
      </trkpt>
      <trkpt lat="45.11609" lon="5.32067">
        <ele>214</ele>
        <time>2022-10-15T14:00:49.000Z</time>
      </trkpt>
      <trkpt lat="45.11604" lon="5.32061">
        <ele>214</ele>
        <time>2022-10-15T14:00:50.000Z</time>
      </trkpt>
      <trkpt lat="45.11599" lon="5.32054">
        <ele>214</ele>
        <time>2022-10-15T14:00:51.000Z</time>
      </trkpt>
      <trkpt lat="45.11595" lon="5.32047">
        <ele>213.9</ele>
        <time>2022-10-15T14:00:52.000Z</time>
      </trkpt>
      <trkpt lat="45.11592" lon="5.3204">
        <ele>213.8</ele>
        <time>2022-10-15T14:00:53.000Z</time>
      </trkpt>
      <trkpt lat="45.11588" lon="5.32033">
        <ele>213.9</ele>
        <time>2022-10-15T14:00:54.000Z</time>
      </trkpt>
      <trkpt lat="45.11584" lon="5.32025">
        <ele>213.9</ele>
        <time>2022-10-15T14:00:55.000Z</time>
      </trkpt>
      <trkpt lat="45.11581" lon="5.32018">
        <ele>213.7</ele>
        <time>2022-10-15T14:00:56.000Z</time>
      </trkpt>
      <trkpt lat="45.11578" lon="5.32011">
        <ele>213.5</ele>
        <time>2022-10-15T14:00:57.000Z</time>
      </trkpt>
      <trkpt lat="45.11575" lon="5.32004">
        <ele>213.4</ele>
        <time>2022-10-15T14:00:58.000Z</time>
      </trkpt>
      <trkpt lat="45.11572" lon="5.31997">
        <ele>213.4</ele>
        <time>2022-10-15T14:00:59.000Z</time>
      </trkpt>
      <trkpt lat="45.1157" lon="5.3199">
        <ele>213.7</ele>
        <time>2022-10-15T14:01:00.000Z</time>
      </trkpt>
      <trkpt lat="45.11568" lon="5.31983">
        <ele>213.9</ele>
        <time>2022-10-15T14:01:01.000Z</time>
      </trkpt>
      <trkpt lat="45.11567" lon="5.31976">
        <ele>214.1</ele>
        <time>2022-10-15T14:01:02.000Z</time>
      </trkpt>
      <trkpt lat="45.11565" lon="5.31968">
        <ele>214.3</ele>
        <time>2022-10-15T14:01:03.000Z</time>
      </trkpt>
      <trkpt lat="45.11563" lon="5.31961">
        <ele>214.2</ele>
        <time>2022-10-15T14:01:04.000Z</time>
      </trkpt>
      <trkpt lat="45.11561" lon="5.31953">
        <ele>214.1</ele>
        <time>2022-10-15T14:01:05.000Z</time>
      </trkpt>
      <trkpt lat="45.11559" lon="5.31946">
        <ele>213.9</ele>
        <time>2022-10-15T14:01:06.000Z</time>
      </trkpt>
      <trkpt lat="45.11557" lon="5.31939">
        <ele>213.7</ele>
        <time>2022-10-15T14:01:07.000Z</time>
      </trkpt>
      <trkpt lat="45.11555" lon="5.31932">
        <ele>213.6</ele>
        <time>2022-10-15T14:01:08.000Z</time>
      </trkpt>
      <trkpt lat="45.11553" lon="5.31924">
        <ele>213.5</ele>
        <time>2022-10-15T14:01:09.000Z</time>
      </trkpt>
      <trkpt lat="45.1155" lon="5.31917">
        <ele>213.4</ele>
        <time>2022-10-15T14:01:10.000Z</time>
      </trkpt>
      <trkpt lat="45.11548" lon="5.3191">
        <ele>213.6</ele>
        <time>2022-10-15T14:01:11.000Z</time>
      </trkpt>
      <trkpt lat="45.11546" lon="5.31902">
        <ele>213.7</ele>
        <time>2022-10-15T14:01:12.000Z</time>
      </trkpt>
      <trkpt lat="45.11543" lon="5.31895">
        <ele>213.9</ele>
        <time>2022-10-15T14:01:13.000Z</time>
      </trkpt>
      <trkpt lat="45.1154" lon="5.31888">
        <ele>214.1</ele>
        <time>2022-10-15T14:01:14.000Z</time>
      </trkpt>
      <trkpt lat="45.11538" lon="5.3188">
        <ele>214.1</ele>
        <time>2022-10-15T14:01:15.000Z</time>
      </trkpt>
      <trkpt lat="45.11535" lon="5.31874">
        <ele>214.1</ele>
        <time>2022-10-15T14:01:16.000Z</time>
      </trkpt>
      <trkpt lat="45.11533" lon="5.31867">
        <ele>214</ele>
        <time>2022-10-15T14:01:17.000Z</time>
      </trkpt>
      <trkpt lat="45.11531" lon="5.31861">
        <ele>213.9</ele>
        <time>2022-10-15T14:01:18.000Z</time>
      </trkpt>
      <trkpt lat="45.11529" lon="5.31856">
        <ele>213.9</ele>
        <time>2022-10-15T14:01:19.000Z</time>
      </trkpt>
      <trkpt lat="45.11528" lon="5.3185">
        <ele>214</ele>
        <time>2022-10-15T14:01:20.000Z</time>
      </trkpt>
      <trkpt lat="45.11527" lon="5.31845">
        <ele>214</ele>
        <time>2022-10-15T14:01:21.000Z</time>
      </trkpt>
      <trkpt lat="45.11526" lon="5.3184">
        <ele>214.1</ele>
        <time>2022-10-15T14:01:22.000Z</time>
      </trkpt>
      <trkpt lat="45.11524" lon="5.31835">
        <ele>214.1</ele>
        <time>2022-10-15T14:01:23.000Z</time>
      </trkpt>
      <trkpt lat="45.11522" lon="5.31833">
        <ele>214.2</ele>
        <time>2022-10-15T14:01:24.000Z</time>
      </trkpt>
      <trkpt lat="45.11519" lon="5.31832">
        <ele>214.3</ele>
        <time>2022-10-15T14:01:25.000Z</time>
      </trkpt>
      <trkpt lat="45.11515" lon="5.31833">
        <ele>214.4</ele>
        <time>2022-10-15T14:01:26.000Z</time>
      </trkpt>
      <trkpt lat="45.11513" lon="5.31834">
        <ele>214.6</ele>
        <time>2022-10-15T14:01:27.000Z</time>
      </trkpt>
      <trkpt lat="45.1151" lon="5.31836">
        <ele>214.7</ele>
        <time>2022-10-15T14:01:28.000Z</time>
      </trkpt>
      <trkpt lat="45.11505" lon="5.31838">
        <ele>214.8</ele>
        <time>2022-10-15T14:01:29.000Z</time>
      </trkpt>
      <trkpt lat="45.11502" lon="5.31842">
        <ele>214.9</ele>
        <time>2022-10-15T14:01:30.000Z</time>
      </trkpt>
      <trkpt lat="45.115" lon="5.31845">
        <ele>215</ele>
        <time>2022-10-15T14:01:31.000Z</time>
      </trkpt>
      <trkpt lat="45.11498" lon="5.31848">
        <ele>215</ele>
        <time>2022-10-15T14:01:32.000Z</time>
      </trkpt>
      <trkpt lat="45.11496" lon="5.31851">
        <ele>215</ele>
        <time>2022-10-15T14:01:33.000Z</time>
      </trkpt>
      <trkpt lat="45.11495" lon="5.31854">
        <ele>215</ele>
        <time>2022-10-15T14:01:35.000Z</time>
      </trkpt>
    </trkseg>
  </trk>
</gpx>